<?xml version='1.0' encoding='UTF-8'?><gpx version="1.1" creator="JPX - https://github.com/jenetics/jpx" xmlns="http://www.topografix.com/GPX/1/1"><trk><trkseg><trkpt lat="39.265838281975" lon="16.7083527595149"><ele>986.0000000000001</ele><time>2026-03-28T11:11:09Z</time></trkpt><trkpt lat="39.2658672499414" lon="16.708277658222965"><ele>986.0</ele><time>2026-03-28T11:15:10Z</time></trkpt><trkpt lat="39.265910176448635" lon="16.70834044773854"><ele>986.0</ele><time>2026-03-28T11:15:15Z</time></trkpt><trkpt lat="39.26589737812875" lon="16.70845153141361"><ele>986.0</ele><time>2026-03-28T11:16:43Z</time></trkpt><trkpt lat="39.26588482945726" lon="16.70857777002932"><ele>986.0000000000001</ele><time>2026-03-28T11:16:46Z</time></trkpt><trkpt lat="39.265891123701294" lon="16.70866280104133"><ele>986.0</ele><time>2026-03-28T11:16:50Z</time></trkpt><trkpt lat="39.26596594268145" lon="16.708670534250306"><ele>986.3333333333334</ele><time>2026-03-28T11:17:07.001Z</time></trkpt><trkpt lat="39.26598692781293" lon="16.708780147780782"><ele>986.6666666666667</ele><time>2026-03-28T11:17:10.001Z</time></trkpt><trkpt lat="39.265983582340695" lon="16.70886301706091"><ele>987.0</ele><time>2026-03-28T11:17:12.001Z</time></trkpt><trkpt lat="39.26595193140356" lon="16.708968586148575"><ele>987.3333333333333</ele><time>2026-03-28T11:17:14.001Z</time></trkpt><trkpt lat="39.26591987800748" lon="16.709120579801834"><ele>987.6666666666666</ele><time>2026-03-28T11:17:16.001Z</time></trkpt><trkpt lat="39.26590526276971" lon="16.7092189689684"><ele>988.0</ele><time>2026-03-28T11:17:17.001Z</time></trkpt><trkpt lat="39.26589919071905" lon="16.709344123484577"><ele>988.4</ele><time>2026-03-28T11:17:18.001Z</time></trkpt><trkpt lat="39.265883012231356" lon="16.70945185122798"><ele>988.8</ele><time>2026-03-28T11:17:19.001Z</time></trkpt><trkpt lat="39.265832178786034" lon="16.70954047628795"><ele>989.2</ele><time>2026-03-28T11:17:20.001Z</time></trkpt><trkpt lat="39.26576686525272" lon="16.70960869387286"><ele>989.6</ele><time>2026-03-28T11:17:21.001Z</time></trkpt><trkpt lat="39.265685311094664" lon="16.709689099625027"><ele>990.0</ele><time>2026-03-28T11:17:22.001Z</time></trkpt><trkpt lat="39.265609715578805" lon="16.70976415165655"><ele>987.6</ele><time>2026-03-28T11:17:23.001Z</time></trkpt><trkpt lat="39.26553569082948" lon="16.709845556258543"><ele>985.2</ele><time>2026-03-28T11:17:24.001Z</time></trkpt><trkpt lat="39.26546473753534" lon="16.709946757249803"><ele>982.8</ele><time>2026-03-28T11:17:25.001Z</time></trkpt><trkpt lat="39.2654162014582" lon="16.71006933821384"><ele>980.4</ele><time>2026-03-28T11:17:26.001Z</time></trkpt><trkpt lat="39.265355153246425" lon="16.71015965268605"><ele>978.0</ele><time>2026-03-28T11:17:27.001Z</time></trkpt><trkpt lat="39.26532016558843" lon="16.710264611175234"><ele>978.0</ele><time>2026-03-28T11:17:28.001Z</time></trkpt><trkpt lat="39.26528740791396" lon="16.71036287995481"><ele>978.0</ele><time>2026-03-28T11:17:29.001Z</time></trkpt><trkpt lat="39.26526191484414" lon="16.71044801602386"><ele>978.0</ele><time>2026-03-28T11:17:30.001Z</time></trkpt><trkpt lat="39.2653837991736" lon="16.710605990215303"><ele>978.0</ele><time>2026-03-28T11:17:31.001Z</time></trkpt><trkpt lat="39.265411997433326" lon="16.710711078616523"><ele>978.0</ele><time>2026-03-28T11:17:32.001Z</time></trkpt><trkpt lat="39.265431456721245" lon="16.710818018002247"><ele>978.0</ele><time>2026-03-28T11:17:33.001Z</time></trkpt><trkpt lat="39.26539054086437" lon="16.71091152466802"><ele>978.0</ele><time>2026-03-28T11:17:34.001Z</time></trkpt><trkpt lat="39.26536575256193" lon="16.711008167836887"><ele>978.0</ele><time>2026-03-28T11:17:35.001Z</time></trkpt><trkpt lat="39.265327169121804" lon="16.711099059806095"><ele>978.0</ele><time>2026-03-28T11:17:36.001Z</time></trkpt><trkpt lat="39.2652792231641" lon="16.711185956412297"><ele>978.0</ele><time>2026-03-28T11:17:37.001Z</time></trkpt><trkpt lat="39.26522797451802" lon="16.71127155482397"><ele>978.0</ele><time>2026-03-28T11:17:38.001Z</time></trkpt><trkpt lat="39.265167418206204" lon="16.711367003067437"><ele>978.0</ele><time>2026-03-28T11:17:39.001Z</time></trkpt><trkpt lat="39.26511768565793" lon="16.71147814781146"><ele>978.0</ele><time>2026-03-28T11:17:40.001Z</time></trkpt><trkpt lat="39.265098218297176" lon="16.71160124902763"><ele>978.0</ele><time>2026-03-28T11:17:41.001Z</time></trkpt><trkpt lat="39.26511541688129" lon="16.71171734637643"><ele>978.0</ele><time>2026-03-28T11:17:42.001Z</time></trkpt><trkpt lat="39.26513240421037" lon="16.711829128615925"><ele>978.0</ele><time>2026-03-28T11:17:43.001Z</time></trkpt><trkpt lat="39.26516512243765" lon="16.711937773764244"><ele>976.8333333333334</ele><time>2026-03-28T11:17:44.001Z</time></trkpt><trkpt lat="39.26521953823562" lon="16.712028761811474"><ele>975.6666666666667</ele><time>2026-03-28T11:17:45.001Z</time></trkpt><trkpt lat="39.26528078233576" lon="16.71211057411948"><ele>974.5</ele><time>2026-03-28T11:17:46.001Z</time></trkpt><trkpt lat="39.265342098161184" lon="16.712192731290603"><ele>973.3333333333334</ele><time>2026-03-28T11:17:47.001Z</time></trkpt><trkpt lat="39.265364093455325" lon="16.712296212762332"><ele>972.1666666666667</ele><time>2026-03-28T11:17:48.001Z</time></trkpt><trkpt lat="39.26536854766265" lon="16.712394695448953"><ele>971.0</ele><time>2026-03-28T11:17:49.001Z</time></trkpt><trkpt lat="39.26535154952189" lon="16.71249319927604"><ele>971.0</ele><time>2026-03-28T11:17:50.001Z</time></trkpt><trkpt lat="39.26531362222157" lon="16.712598797725146"><ele>970.9999999999999</ele><time>2026-03-28T11:17:51.001Z</time></trkpt><trkpt lat="39.26526577688482" lon="16.712706257687692"><ele>970.9999999999999</ele><time>2026-03-28T11:17:52.001Z</time></trkpt><trkpt lat="39.26521509135782" lon="16.712820868818817"><ele>971.0</ele><time>2026-03-28T11:17:53.001Z</time></trkpt><trkpt lat="39.265166489784946" lon="16.712937037801172"><ele>971.0</ele><time>2026-03-28T11:17:54.001Z</time></trkpt><trkpt lat="39.265118269561725" lon="16.713052295262617"><ele>971.5999999999999</ele><time>2026-03-28T11:17:55.001Z</time></trkpt><trkpt lat="39.26511795558974" lon="16.713198910932146"><ele>972.1999999999999</ele><time>2026-03-28T11:17:56.001Z</time></trkpt><trkpt lat="39.26506974954126" lon="16.713307400794868"><ele>972.8000000000001</ele><time>2026-03-28T11:17:57.001Z</time></trkpt><trkpt lat="39.26502267811634" lon="16.713416241627545"><ele>973.4000000000001</ele><time>2026-03-28T11:17:58.001Z</time></trkpt><trkpt lat="39.26497285886222" lon="16.713527923654592"><ele>974.0</ele><time>2026-03-28T11:17:59.001Z</time></trkpt><trkpt lat="39.26487561662185" lon="16.713620582123248"><ele>972.5</ele><time>2026-03-28T11:18:00.001Z</time></trkpt><trkpt lat="39.264818269390084" lon="16.713754340465407"><ele>971.0</ele><time>2026-03-28T11:18:01.001Z</time></trkpt><trkpt lat="39.264759607273994" lon="16.713892517893697"><ele>969.5</ele><time>2026-03-28T11:18:02.001Z</time></trkpt><trkpt lat="39.26469817304945" lon="16.71403636872942"><ele>968.0</ele><time>2026-03-28T11:18:03.001Z</time></trkpt><trkpt lat="39.26463027020967" lon="16.714194043377596"><ele>968.0</ele><time>2026-03-28T11:18:04.001Z</time></trkpt><trkpt lat="39.26455751158089" lon="16.714362993471987"><ele>968.0</ele><time>2026-03-28T11:18:05.001Z</time></trkpt><trkpt lat="39.264481593917615" lon="16.71454050022399"><ele>968.0</ele><time>2026-03-28T11:18:06.001Z</time></trkpt><trkpt lat="39.26440327012033" lon="16.714723811106516"><ele>970.6666666666667</ele><time>2026-03-28T11:18:07.001Z</time></trkpt><trkpt lat="39.264322005315044" lon="16.714916582118015"><ele>973.3333333333333</ele><time>2026-03-28T11:18:08.001Z</time></trkpt><trkpt lat="39.26423933842888" lon="16.715112840067537"><ele>976.0</ele><time>2026-03-28T11:18:09.001Z</time></trkpt><trkpt lat="39.264152793006616" lon="16.71531484757833"><ele>976.0</ele><time>2026-03-28T11:18:10.001Z</time></trkpt><trkpt lat="39.264066787874235" lon="16.715516488790715"><ele>976.0</ele><time>2026-03-28T11:18:11.001Z</time></trkpt><trkpt lat="39.26398063057934" lon="16.715721308642244"><ele>976.0</ele><time>2026-03-28T11:18:12.001Z</time></trkpt><trkpt lat="39.26388945138563" lon="16.71593806694349"><ele>976.0</ele><time>2026-03-28T11:18:13.001Z</time></trkpt><trkpt lat="39.26380550328835" lon="16.716160142323044"><ele>976.0</ele><time>2026-03-28T11:18:14.001Z</time></trkpt><trkpt lat="39.263718787021794" lon="16.71639166433581"><ele>976.0</ele><time>2026-03-28T11:18:15.001Z</time></trkpt><trkpt lat="39.263633792803105" lon="16.716609433839484"><ele>976.0</ele><time>2026-03-28T11:18:16.001Z</time></trkpt><trkpt lat="39.263544298335844" lon="16.71678664853783"><ele>976.0</ele><time>2026-03-28T11:18:17.001Z</time></trkpt><trkpt lat="39.26347909581373" lon="16.716937254142643"><ele>976.0</ele><time>2026-03-28T11:18:18.001Z</time></trkpt><trkpt lat="39.2634195070509" lon="16.71706832496915"><ele>976.0</ele><time>2026-03-28T11:18:19.001Z</time></trkpt><trkpt lat="39.26335352613932" lon="16.717178987830785"><ele>975.5</ele><time>2026-03-28T11:18:20.001Z</time></trkpt><trkpt lat="39.26326330908621" lon="16.71726978471242"><ele>975.0</ele><time>2026-03-28T11:18:21.001Z</time></trkpt><trkpt lat="39.263151080049404" lon="16.717361458832958"><ele>974.5</ele><time>2026-03-28T11:18:22.001Z</time></trkpt><trkpt lat="39.26303587413111" lon="16.71743985214688"><ele>974.0</ele><time>2026-03-28T11:18:23.001Z</time></trkpt><trkpt lat="39.26288660592442" lon="16.71752740970523"><ele>973.75</ele><time>2026-03-28T11:18:24.001Z</time></trkpt><trkpt lat="39.26277065658209" lon="16.71759377915753"><ele>973.5</ele><time>2026-03-28T11:18:25.001Z</time></trkpt><trkpt lat="39.26265509673667" lon="16.71765992560237"><ele>973.25</ele><time>2026-03-28T11:18:26.001Z</time></trkpt><trkpt lat="39.26253529801403" lon="16.71772889694594"><ele>973.0</ele><time>2026-03-28T11:18:27.001Z</time></trkpt><trkpt lat="39.26241568625456" lon="16.717797834204564"><ele>972.75</ele><time>2026-03-28T11:18:28.001Z</time></trkpt><trkpt lat="39.26228772369789" lon="16.71787261471365"><ele>972.5</ele><time>2026-03-28T11:18:29.001Z</time></trkpt><trkpt lat="39.2621683378832" lon="16.717942383025083"><ele>972.25</ele><time>2026-03-28T11:18:30.001Z</time></trkpt><trkpt lat="39.262063970431996" lon="16.718000429104027"><ele>972.0</ele><time>2026-03-28T11:18:31.001Z</time></trkpt><trkpt lat="39.26196281830328" lon="16.718057032531803"><ele>974.0</ele><time>2026-03-28T11:18:32.001Z</time></trkpt><trkpt lat="39.26185679267442" lon="16.718118451609424"><ele>976.0</ele><time>2026-03-28T11:18:33.001Z</time></trkpt><trkpt lat="39.26175922039055" lon="16.71818845317218"><ele>978.0</ele><time>2026-03-28T11:18:34.001Z</time></trkpt><trkpt lat="39.261678571900326" lon="16.71833299972717"><ele>980.0</ele><time>2026-03-28T11:18:35.001Z</time></trkpt><trkpt lat="39.2616326723229" lon="16.718438842176386"><ele>980.0</ele><time>2026-03-28T11:18:36.001Z</time></trkpt><trkpt lat="39.2615915529197" lon="16.718505108488458"><ele>980.0</ele><time>2026-03-28T11:18:37.001Z</time></trkpt><trkpt lat="39.26153793854071" lon="16.718599522012376"><ele>980.0</ele><time>2026-03-28T11:18:39.001Z</time></trkpt><trkpt lat="39.261440781422266" lon="16.71863875675046"><ele>980.0</ele><time>2026-03-28T11:18:44.001Z</time></trkpt><trkpt lat="39.26135167563316" lon="16.718752230854665"><ele>980.0</ele><time>2026-03-28T11:18:46.001Z</time></trkpt><trkpt lat="39.2612798775648" lon="16.718807720899505"><ele>982.5000000000001</ele><time>2026-03-28T11:18:47.001Z</time></trkpt><trkpt lat="39.26121144258659" lon="16.718885337975046"><ele>985.0</ele><time>2026-03-28T11:18:48.001Z</time></trkpt><trkpt lat="39.26113658743789" lon="16.7189552480947"><ele>987.5</ele><time>2026-03-28T11:18:49.001Z</time></trkpt><trkpt lat="39.26106062626052" lon="16.71899713093556"><ele>990.0</ele><time>2026-03-28T11:18:50.001Z</time></trkpt><trkpt lat="39.260982313744776" lon="16.719018236570534"><ele>992.5000000000001</ele><time>2026-03-28T11:18:51.001Z</time></trkpt><trkpt lat="39.260917876559226" lon="16.719036223817312"><ele>995.0</ele><time>2026-03-28T11:18:52.001Z</time></trkpt><trkpt lat="39.26085483377974" lon="16.71903293125896"><ele>995.0</ele><time>2026-03-28T11:18:53.001Z</time></trkpt><trkpt lat="39.26077664721799" lon="16.719046576997346"><ele>995.0</ele><time>2026-03-28T11:18:56.001Z</time></trkpt><trkpt lat="39.26075239614499" lon="16.719130319666487"><ele>995.0</ele><time>2026-03-28T11:18:59.001Z</time></trkpt><trkpt lat="39.26079363815726" lon="16.7193925772282"><ele>995.0</ele><time>2026-03-28T11:19:05.001Z</time></trkpt><trkpt lat="39.26073681507696" lon="16.719454231577462"><ele>995.0</ele><time>2026-03-28T11:19:11.001Z</time></trkpt><trkpt lat="39.260667366921105" lon="16.719530471702786"><ele>1000.3333333333334</ele><time>2026-03-28T11:19:14.001Z</time></trkpt><trkpt lat="39.26060651708309" lon="16.719589649067622"><ele>1005.6666666666667</ele><time>2026-03-28T11:19:19.001Z</time></trkpt><trkpt lat="39.260344561330655" lon="16.71934629408197"><ele>1011.0</ele><time>2026-03-28T11:19:20.001Z</time></trkpt><trkpt lat="39.260259633007024" lon="16.71936147459105"><ele>1011.0</ele><time>2026-03-28T11:19:23.001Z</time></trkpt><trkpt lat="39.26018653230288" lon="16.719343181891134"><ele>1011.0</ele><time>2026-03-28T11:19:26.001Z</time></trkpt><trkpt lat="39.2601147442893" lon="16.719412440592507"><ele>1011.0</ele><time>2026-03-28T11:19:29.001Z</time></trkpt><trkpt lat="39.260053384166675" lon="16.719455334232098"><ele>1011.0</ele><time>2026-03-28T11:19:32.001Z</time></trkpt><trkpt lat="39.25997637784903" lon="16.719495399542275"><ele>1011.0</ele><time>2026-03-28T11:19:35.001Z</time></trkpt><trkpt lat="39.259874335436066" lon="16.71950156203473"><ele>1011.0</ele><time>2026-03-28T11:19:38.001Z</time></trkpt><trkpt lat="39.2597937024397" lon="16.71952302341279"><ele>1014.5</ele><time>2026-03-28T11:19:40.001Z</time></trkpt><trkpt lat="39.259729677798816" lon="16.71952872514717"><ele>1018.0</ele><time>2026-03-28T11:19:42.001Z</time></trkpt><trkpt lat="39.25964212120064" lon="16.71957710573651"><ele>1021.5</ele><time>2026-03-28T11:19:45.001Z</time></trkpt><trkpt lat="39.2595767636183" lon="16.719617355095572"><ele>1025.0</ele><time>2026-03-28T11:19:48.001Z</time></trkpt><trkpt lat="39.25950425520372" lon="16.719618786578053"><ele>1028.5</ele><time>2026-03-28T11:19:52.001Z</time></trkpt><trkpt lat="39.25942661910173" lon="16.719611843403346"><ele>1032.0</ele><time>2026-03-28T11:19:54.001Z</time></trkpt><trkpt lat="39.25934815220283" lon="16.719624434797986"><ele>1032.0</ele><time>2026-03-28T11:19:56.001Z</time></trkpt><trkpt lat="39.25926689503571" lon="16.719669831830764"><ele>1032.0</ele><time>2026-03-28T11:19:58.001Z</time></trkpt><trkpt lat="39.25919645046452" lon="16.71966305865353"><ele>1032.0</ele><time>2026-03-28T11:20:00.001Z</time></trkpt><trkpt lat="39.25911098726436" lon="16.71967780186955"><ele>1032.0</ele><time>2026-03-28T11:20:03.001Z</time></trkpt><trkpt lat="39.25902116848694" lon="16.719654134364813"><ele>1032.0</ele><time>2026-03-28T11:20:06.001Z</time></trkpt><trkpt lat="39.25895068220836" lon="16.719652571141506"><ele>1032.0</ele><time>2026-03-28T11:20:08.001Z</time></trkpt><trkpt lat="39.25887106914758" lon="16.71966627175575"><ele>1033.8333333333333</ele><time>2026-03-28T11:20:10.001Z</time></trkpt><trkpt lat="39.25878852401192" lon="16.719679417602936"><ele>1035.6666666666667</ele><time>2026-03-28T11:20:12.001Z</time></trkpt><trkpt lat="39.25871773467966" lon="16.719713344002713"><ele>1037.5</ele><time>2026-03-28T11:20:14.001Z</time></trkpt><trkpt lat="39.258651538240656" lon="16.719715509797485"><ele>1039.3333333333335</ele><time>2026-03-28T11:20:16.001Z</time></trkpt><trkpt lat="39.258581074207896" lon="16.71977124145289"><ele>1041.1666666666667</ele><time>2026-03-28T11:20:18.001Z</time></trkpt><trkpt lat="39.258499254292964" lon="16.71975495362066"><ele>1043.0</ele><time>2026-03-28T11:20:24.001Z</time></trkpt><trkpt lat="39.25841504308192" lon="16.719821412186388"><ele>1043.0</ele><time>2026-03-28T11:20:26.001Z</time></trkpt><trkpt lat="39.25836262343243" lon="16.719870143794786"><ele>1043.0</ele><time>2026-03-28T11:20:27.001Z</time></trkpt><trkpt lat="39.25828893429178" lon="16.71995588822969"><ele>1043.0</ele><time>2026-03-28T11:20:29.001Z</time></trkpt><trkpt lat="39.25820725233913" lon="16.720046682146762"><ele>1043.0</ele><time>2026-03-28T11:20:31.001Z</time></trkpt><trkpt lat="39.25813800611294" lon="16.720128641442642"><ele>1043.0</ele><time>2026-03-28T11:20:33.001Z</time></trkpt><trkpt lat="39.25805869088257" lon="16.720178901562928"><ele>1043.6</ele><time>2026-03-28T11:20:35.001Z</time></trkpt><trkpt lat="39.25797290783464" lon="16.720207892874736"><ele>1044.1999999999998</ele><time>2026-03-28T11:20:37.001Z</time></trkpt><trkpt lat="39.25788023950478" lon="16.720269137990552"><ele>1044.8</ele><time>2026-03-28T11:20:39.001Z</time></trkpt><trkpt lat="39.25777712378419" lon="16.72036416038367"><ele>1045.3999999999999</ele><time>2026-03-28T11:20:41.001Z</time></trkpt><trkpt lat="39.257726112931884" lon="16.720424781766678"><ele>1046.0</ele><time>2026-03-28T11:20:42.001Z</time></trkpt><trkpt lat="39.25768517457167" lon="16.72049077553219"><ele>1046.8333333333335</ele><time>2026-03-28T11:20:43.001Z</time></trkpt><trkpt lat="39.257641537257875" lon="16.720558439492144"><ele>1047.6666666666667</ele><time>2026-03-28T11:20:44.001Z</time></trkpt><trkpt lat="39.25758514051546" lon="16.72061955114384"><ele>1048.5</ele><time>2026-03-28T11:20:45.001Z</time></trkpt><trkpt lat="39.25753662656626" lon="16.72069661414681"><ele>1049.3333333333333</ele><time>2026-03-28T11:20:46.001Z</time></trkpt><trkpt lat="39.25748783376596" lon="16.72078764730433"><ele>1050.1666666666665</ele><time>2026-03-28T11:20:47.001Z</time></trkpt><trkpt lat="39.25742159026602" lon="16.720883283736374"><ele>1051.0</ele><time>2026-03-28T11:20:48.001Z</time></trkpt><trkpt lat="39.257344680458026" lon="16.72096788887291"><ele>1051.0</ele><time>2026-03-28T11:20:49.001Z</time></trkpt><trkpt lat="39.25726339167379" lon="16.721025631636383"><ele>1051.0</ele><time>2026-03-28T11:20:50.001Z</time></trkpt><trkpt lat="39.257178482900954" lon="16.721079796156953"><ele>1051.0</ele><time>2026-03-28T11:20:51.001Z</time></trkpt><trkpt lat="39.25708754260715" lon="16.72114205233891"><ele>1051.0</ele><time>2026-03-28T11:20:52.001Z</time></trkpt><trkpt lat="39.256989626392546" lon="16.721212479012927"><ele>1051.0</ele><time>2026-03-28T11:20:53.001Z</time></trkpt><trkpt lat="39.25689941922436" lon="16.721282654799523"><ele>1051.3999999999999</ele><time>2026-03-28T11:20:54.001Z</time></trkpt><trkpt lat="39.25681594089257" lon="16.721347522766862"><ele>1051.8</ele><time>2026-03-28T11:20:55.001Z</time></trkpt><trkpt lat="39.25675102106473" lon="16.721432158849776"><ele>1052.1999999999998</ele><time>2026-03-28T11:20:56.001Z</time></trkpt><trkpt lat="39.25668737499944" lon="16.721526406905536"><ele>1052.6</ele><time>2026-03-28T11:20:57.001Z</time></trkpt><trkpt lat="39.25660940817291" lon="16.721640209209124"><ele>1053.0</ele><time>2026-03-28T11:20:58.001Z</time></trkpt><trkpt lat="39.25650706401752" lon="16.721754274459514"><ele>1052.0</ele><time>2026-03-28T11:20:59.001Z</time></trkpt><trkpt lat="39.256403131247886" lon="16.7218708189986"><ele>1051.0</ele><time>2026-03-28T11:21:00.001Z</time></trkpt><trkpt lat="39.256302895040804" lon="16.721976591839788"><ele>1050.0</ele><time>2026-03-28T11:21:01.001Z</time></trkpt><trkpt lat="39.256209385568646" lon="16.722078023835067"><ele>1049.0</ele><time>2026-03-28T11:21:02.001Z</time></trkpt><trkpt lat="39.256121476244765" lon="16.722175184364943"><ele>1049.0</ele><time>2026-03-28T11:21:03.001Z</time></trkpt><trkpt lat="39.25603847812205" lon="16.722269777348558"><ele>1049.0</ele><time>2026-03-28T11:21:04.001Z</time></trkpt><trkpt lat="39.25595750453767" lon="16.72235244706836"><ele>1049.0</ele><time>2026-03-28T11:21:05.001Z</time></trkpt><trkpt lat="39.25587517281089" lon="16.722416621793858"><ele>1049.0</ele><time>2026-03-28T11:21:06.001Z</time></trkpt><trkpt lat="39.255795027611825" lon="16.722467280199528"><ele>1049.0</ele><time>2026-03-28T11:21:07.001Z</time></trkpt><trkpt lat="39.255722121646556" lon="16.72251554294375"><ele>1049.0</ele><time>2026-03-28T11:21:08.001Z</time></trkpt><trkpt lat="39.25565582019195" lon="16.72255367619674"><ele>1049.0</ele><time>2026-03-28T11:21:09.001Z</time></trkpt><trkpt lat="39.25559890245363" lon="16.722608324441897"><ele>1049.0</ele><time>2026-03-28T11:21:10.001Z</time></trkpt><trkpt lat="39.25554617794609" lon="16.722673786459314"><ele>1049.0</ele><time>2026-03-28T11:21:11.001Z</time></trkpt><trkpt lat="39.25549547498282" lon="16.722743616187334"><ele>1049.0</ele><time>2026-03-28T11:21:12.001Z</time></trkpt><trkpt lat="39.25545453177195" lon="16.7228403011569"><ele>1049.0</ele><time>2026-03-28T11:21:13.001Z</time></trkpt><trkpt lat="39.255405630106395" lon="16.722946770567233"><ele>1048.0</ele><time>2026-03-28T11:21:14.001Z</time></trkpt><trkpt lat="39.25537132697491" lon="16.72305574095327"><ele>1047.0</ele><time>2026-03-28T11:21:15.001Z</time></trkpt><trkpt lat="39.2553378981227" lon="16.72316291268373"><ele>1046.0</ele><time>2026-03-28T11:21:16.001Z</time></trkpt><trkpt lat="39.255315698675425" lon="16.7232831307854"><ele>1045.0</ele><time>2026-03-28T11:21:17.001Z</time></trkpt><trkpt lat="39.25530552051903" lon="16.723414407193808"><ele>1044.0</ele><time>2026-03-28T11:21:18.001Z</time></trkpt><trkpt lat="39.25528963052783" lon="16.723546582043898"><ele>1044.2</ele><time>2026-03-28T11:21:19.001Z</time></trkpt><trkpt lat="39.25527979346693" lon="16.723675137804918"><ele>1044.4</ele><time>2026-03-28T11:21:20.001Z</time></trkpt><trkpt lat="39.25526956544211" lon="16.723804875811425"><ele>1044.6</ele><time>2026-03-28T11:21:21.001Z</time></trkpt><trkpt lat="39.25523864509217" lon="16.723930040520305"><ele>1044.8</ele><time>2026-03-28T11:21:22.001Z</time></trkpt><trkpt lat="39.25518421176913" lon="16.724043050722244"><ele>1045.0</ele><time>2026-03-28T11:21:23.001Z</time></trkpt><trkpt lat="39.25512786320528" lon="16.724154166115422"><ele>1045.0</ele><time>2026-03-28T11:21:24.001Z</time></trkpt><trkpt lat="39.2550692049316" lon="16.7242575796369"><ele>1045.0</ele><time>2026-03-28T11:21:25.001Z</time></trkpt><trkpt lat="39.25500949096976" lon="16.724355321940266"><ele>1045.0</ele><time>2026-03-28T11:21:26.001Z</time></trkpt><trkpt lat="39.25495755083556" lon="16.72445071110501"><ele>1045.0</ele><time>2026-03-28T11:21:27.001Z</time></trkpt><trkpt lat="39.25492325434302" lon="16.724556977741678"><ele>1045.0</ele><time>2026-03-28T11:21:28.001Z</time></trkpt><trkpt lat="39.25489221615959" lon="16.72464204796073"><ele>1045.0</ele><time>2026-03-28T11:21:29.001Z</time></trkpt><trkpt lat="39.25485094595764" lon="16.72476489300385"><ele>1044.6666666666665</ele><time>2026-03-28T11:21:31.001Z</time></trkpt><trkpt lat="39.25481569240636" lon="16.724863315174918"><ele>1044.3333333333333</ele><time>2026-03-28T11:21:33.001Z</time></trkpt><trkpt lat="39.254777849481385" lon="16.724964501006852"><ele>1044.0</ele><time>2026-03-28T11:21:36.001Z</time></trkpt><trkpt lat="39.25473822067698" lon="16.725050533998687"><ele>1043.6666666666667</ele><time>2026-03-28T11:21:39.001Z</time></trkpt><trkpt lat="39.254693192185286" lon="16.725120040067022"><ele>1043.3333333333335</ele><time>2026-03-28T11:21:41.001Z</time></trkpt><trkpt lat="39.25464298167801" lon="16.725206635964796"><ele>1043.0</ele><time>2026-03-28T11:21:43.001Z</time></trkpt><trkpt lat="39.25456944429686" lon="16.725279182331565"><ele>1046.4285714285713</ele><time>2026-03-28T11:21:45.001Z</time></trkpt><trkpt lat="39.254508231208234" lon="16.72533882589602"><ele>1049.857142857143</ele><time>2026-03-28T11:21:47.001Z</time></trkpt><trkpt lat="39.25444489838768" lon="16.725380319678028"><ele>1053.2857142857142</ele><time>2026-03-28T11:21:49.001Z</time></trkpt><trkpt lat="39.254372301521535" lon="16.725425278410476"><ele>1056.7142857142858</ele><time>2026-03-28T11:21:52.001Z</time></trkpt><trkpt lat="39.25432144412254" lon="16.725477501224184"><ele>1060.142857142857</ele><time>2026-03-28T11:21:54.001Z</time></trkpt><trkpt lat="39.25427550283188" lon="16.725535037702073"><ele>1063.5714285714284</ele><time>2026-03-28T11:21:56.001Z</time></trkpt><trkpt lat="39.25421453428222" lon="16.725590624509348"><ele>1067.0</ele><time>2026-03-28T11:21:58.001Z</time></trkpt><trkpt lat="39.254159152517495" lon="16.725685565792112"><ele>1067.0</ele><time>2026-03-28T11:22:01.001Z</time></trkpt><trkpt lat="39.25415337473048" lon="16.725795246429037"><ele>1067.0</ele><time>2026-03-28T11:22:03.001Z</time></trkpt><trkpt lat="39.254133126759804" lon="16.725889798639074"><ele>1067.0</ele><time>2026-03-28T11:22:05.001Z</time></trkpt><trkpt lat="39.25413558878965" lon="16.725978430489462"><ele>1067.0</ele><time>2026-03-28T11:22:07.001Z</time></trkpt><trkpt lat="39.25411951042457" lon="16.72608154169252"><ele>1067.0</ele><time>2026-03-28T11:22:09.001Z</time></trkpt><trkpt lat="39.254113574271415" lon="16.726182652807328"><ele>1067.0</ele><time>2026-03-28T11:22:11.001Z</time></trkpt><trkpt lat="39.254101522242735" lon="16.72626519957396"><ele>1067.4</ele><time>2026-03-28T11:22:13.001Z</time></trkpt><trkpt lat="39.25408053122614" lon="16.72635961023715"><ele>1067.8000000000002</ele><time>2026-03-28T11:22:15.001Z</time></trkpt><trkpt lat="39.254056706659824" lon="16.726457227541726"><ele>1068.2</ele><time>2026-03-28T11:22:17.001Z</time></trkpt><trkpt lat="39.25400637959807" lon="16.726560263611418"><ele>1068.6000000000001</ele><time>2026-03-28T11:22:19.001Z</time></trkpt><trkpt lat="39.25395846448172" lon="16.726686377191673"><ele>1069.0</ele><time>2026-03-28T11:22:21.001Z</time></trkpt><trkpt lat="39.25391034070761" lon="16.72679658732534"><ele>1074.6000000000001</ele><time>2026-03-28T11:22:23.001Z</time></trkpt><trkpt lat="39.25385153528238" lon="16.726916613664287"><ele>1080.2</ele><time>2026-03-28T11:22:25.001Z</time></trkpt><trkpt lat="39.25379236602609" lon="16.72704765814205"><ele>1085.8000000000002</ele><time>2026-03-28T11:22:27.001Z</time></trkpt><trkpt lat="39.25375549090291" lon="16.727184755995278"><ele>1091.4</ele><time>2026-03-28T11:22:29.001Z</time></trkpt><trkpt lat="39.25373011494573" lon="16.727289933762368"><ele>1097.0</ele><time>2026-03-28T11:22:31.001Z</time></trkpt><trkpt lat="39.25370874750137" lon="16.727389589908128"><ele>1097.0</ele><time>2026-03-28T11:22:33.001Z</time></trkpt><trkpt lat="39.25367458773038" lon="16.72750031140037"><ele>1097.0</ele><time>2026-03-28T11:22:35.001Z</time></trkpt><trkpt lat="39.25363145973298" lon="16.727604701642573"><ele>1097.0</ele><time>2026-03-28T11:22:37.001Z</time></trkpt><trkpt lat="39.25358362749207" lon="16.727684817435076"><ele>1097.0</ele><time>2026-03-28T11:22:39.001Z</time></trkpt><trkpt lat="39.25353977036007" lon="16.727765061445634"><ele>1097.0</ele><time>2026-03-28T11:22:41.001Z</time></trkpt><trkpt lat="39.253495940228156" lon="16.72786237890917"><ele>1097.0</ele><time>2026-03-28T11:22:43.001Z</time></trkpt><trkpt lat="39.25348436703193" lon="16.727971080469487"><ele>1098.4</ele><time>2026-03-28T11:22:45.001Z</time></trkpt><trkpt lat="39.253462221327815" lon="16.728074805294472"><ele>1099.8000000000002</ele><time>2026-03-28T11:22:47.001Z</time></trkpt><trkpt lat="39.2534165199438" lon="16.728184052036635"><ele>1101.2</ele><time>2026-03-28T11:22:49.001Z</time></trkpt><trkpt lat="39.253375215456025" lon="16.728290006754246"><ele>1102.6000000000001</ele><time>2026-03-28T11:22:51.001Z</time></trkpt><trkpt lat="39.25334474016152" lon="16.728416971293907"><ele>1104.0</ele><time>2026-03-28T11:22:53.001Z</time></trkpt><trkpt lat="39.25331925932066" lon="16.728560278185583"><ele>1104.6000000000001</ele><time>2026-03-28T11:22:55.001Z</time></trkpt><trkpt lat="39.25327824223365" lon="16.728678918236053"><ele>1105.2</ele><time>2026-03-28T11:22:57.001Z</time></trkpt><trkpt lat="39.25321622374279" lon="16.728788258738177"><ele>1105.8000000000002</ele><time>2026-03-28T11:22:59.001Z</time></trkpt><trkpt lat="39.2530888164648" lon="16.728845329341873"><ele>1106.4</ele><time>2026-03-28T11:23:01.001Z</time></trkpt><trkpt lat="39.25300636165531" lon="16.728888391764844"><ele>1107.0</ele><time>2026-03-28T11:23:02.001Z</time></trkpt><trkpt lat="39.25292514747514" lon="16.72892223875559"><ele>1107.6666666666667</ele><time>2026-03-28T11:23:03.001Z</time></trkpt><trkpt lat="39.25284188889428" lon="16.728950569615353"><ele>1108.3333333333333</ele><time>2026-03-28T11:23:04Z</time></trkpt><trkpt lat="39.252759251985346" lon="16.728970566575867"><ele>1109.0</ele><time>2026-03-28T11:23:05Z</time></trkpt><trkpt lat="39.25267885254158" lon="16.728994887709263"><ele>1109.6666666666665</ele><time>2026-03-28T11:23:06Z</time></trkpt><trkpt lat="39.252602840864895" lon="16.72901275244491"><ele>1110.3333333333333</ele><time>2026-03-28T11:23:07Z</time></trkpt><trkpt lat="39.25253465557809" lon="16.729036291414513"><ele>1111.0</ele><time>2026-03-28T11:23:08Z</time></trkpt><trkpt lat="39.2524447661083" lon="16.729107676078556"><ele>1111.0</ele><time>2026-03-28T11:23:10Z</time></trkpt><trkpt lat="39.25241004091496" lon="16.72923652279582"><ele>1111.0</ele><time>2026-03-28T11:23:12Z</time></trkpt><trkpt lat="39.25236172553946" lon="16.729293082152452"><ele>1111.0</ele><time>2026-03-28T11:23:14Z</time></trkpt><trkpt lat="39.25229572375568" lon="16.729346205036606"><ele>1111.0</ele><time>2026-03-28T11:23:17Z</time></trkpt><trkpt lat="39.25222291568997" lon="16.729381193827475"><ele>1111.0</ele><time>2026-03-28T11:23:23Z</time></trkpt><trkpt lat="39.25214075569489" lon="16.72941875109404"><ele>1111.0</ele><time>2026-03-28T11:23:26Z</time></trkpt><trkpt lat="39.252068649994634" lon="16.729456232132943"><ele>1108.8</ele><time>2026-03-28T11:23:28Z</time></trkpt><trkpt lat="39.25198155311096" lon="16.72951570752523"><ele>1106.6</ele><time>2026-03-28T11:23:30Z</time></trkpt><trkpt lat="39.25191481914955" lon="16.729556765092962"><ele>1104.4</ele><time>2026-03-28T11:23:32Z</time></trkpt><trkpt lat="39.2518298256965" lon="16.72962211176911"><ele>1102.2</ele><time>2026-03-28T11:23:35Z</time></trkpt><trkpt lat="39.251742036140726" lon="16.729686582936804"><ele>1100.0</ele><time>2026-03-28T11:23:37Z</time></trkpt><trkpt lat="39.25163661725929" lon="16.729775566204317"><ele>1100.0</ele><time>2026-03-28T11:23:39Z</time></trkpt><trkpt lat="39.25158458520279" lon="16.72983170400364"><ele>1100.0</ele><time>2026-03-28T11:23:40Z</time></trkpt><trkpt lat="39.251523954549" lon="16.729884555991102"><ele>1100.0</ele><time>2026-03-28T11:23:41Z</time></trkpt><trkpt lat="39.251438003993286" lon="16.729970084945855"><ele>1100.0</ele><time>2026-03-28T11:23:43Z</time></trkpt><trkpt lat="39.25135941027516" lon="16.730060773900384"><ele>1100.0</ele><time>2026-03-28T11:23:45Z</time></trkpt><trkpt lat="39.25129606268982" lon="16.730135761227526"><ele>1100.0</ele><time>2026-03-28T11:23:46Z</time></trkpt><trkpt lat="39.251223673552374" lon="16.730221401989237"><ele>1101.25</ele><time>2026-03-28T11:23:47Z</time></trkpt><trkpt lat="39.25114579226876" lon="16.730322928919612"><ele>1102.5</ele><time>2026-03-28T11:23:48Z</time></trkpt><trkpt lat="39.25106220197724" lon="16.73042953288069"><ele>1103.75</ele><time>2026-03-28T11:23:49Z</time></trkpt><trkpt lat="39.25097103170331" lon="16.730538668531608"><ele>1105.0</ele><time>2026-03-28T11:23:50Z</time></trkpt><trkpt lat="39.25085433347984" lon="16.73058903877379"><ele>1105.0</ele><time>2026-03-28T11:23:51Z</time></trkpt><trkpt lat="39.25077671053571" lon="16.730671377515993"><ele>1105.0</ele><time>2026-03-28T11:23:52Z</time></trkpt><trkpt lat="39.25069748160106" lon="16.73075541013874"><ele>1105.0</ele><time>2026-03-28T11:23:53Z</time></trkpt><trkpt lat="39.25062184592877" lon="16.730835588511727"><ele>1105.0</ele><time>2026-03-28T11:23:54Z</time></trkpt><trkpt lat="39.25054220142105" lon="16.73092001639957"><ele>1105.0</ele><time>2026-03-28T11:23:55Z</time></trkpt><trkpt lat="39.2504687145451" lon="16.730997916919815"><ele>1104.5</ele><time>2026-03-28T11:23:56Z</time></trkpt><trkpt lat="39.250393523327325" lon="16.731083235326537"><ele>1104.0</ele><time>2026-03-28T11:23:57Z</time></trkpt><trkpt lat="39.25033504694567" lon="16.731169997744146"><ele>1103.5</ele><time>2026-03-28T11:23:58Z</time></trkpt><trkpt lat="39.250288639055846" lon="16.731270174941564"><ele>1103.0</ele><time>2026-03-28T11:23:59Z</time></trkpt><trkpt lat="39.250254545036135" lon="16.731374493167326"><ele>1102.5</ele><time>2026-03-28T11:24:00Z</time></trkpt><trkpt lat="39.25023072765726" lon="16.731470870400113"><ele>1102.0</ele><time>2026-03-28T11:24:01Z</time></trkpt><trkpt lat="39.250213909047176" lon="16.731565100446453"><ele>1102.0</ele><time>2026-03-28T11:24:02Z</time></trkpt><trkpt lat="39.25022203445736" lon="16.731663140053456"><ele>1102.0</ele><time>2026-03-28T11:24:03Z</time></trkpt><trkpt lat="39.25023883035018" lon="16.73175167184211"><ele>1102.0</ele><time>2026-03-28T11:24:04Z</time></trkpt><trkpt lat="39.25026464151882" lon="16.731831407858373"><ele>1102.0</ele><time>2026-03-28T11:24:05Z</time></trkpt><trkpt lat="39.25029780577585" lon="16.731909389264928"><ele>1102.0</ele><time>2026-03-28T11:24:06Z</time></trkpt><trkpt lat="39.25037415510884" lon="16.73200788664827"><ele>1102.0</ele><time>2026-03-28T11:24:08Z</time></trkpt><trkpt lat="39.25043065768975" lon="16.732063933495017"><ele>1107.0</ele><time>2026-03-28T11:24:10Z</time></trkpt><trkpt lat="39.25032465587552" lon="16.732927416051865"><ele>1107.0</ele><time>2026-03-28T11:24:17Z</time></trkpt><trkpt lat="39.250341287733114" lon="16.73301160656102"><ele>1107.0</ele><time>2026-03-28T11:24:18Z</time></trkpt><trkpt lat="39.250355854576824" lon="16.733100287720106"><ele>1107.0</ele><time>2026-03-28T11:24:19Z</time></trkpt><trkpt lat="39.25037082248848" lon="16.733202674579008"><ele>1107.0</ele><time>2026-03-28T11:24:20Z</time></trkpt><trkpt lat="39.25037016197291" lon="16.733332408700434"><ele>1107.0</ele><time>2026-03-28T11:24:21Z</time></trkpt><trkpt lat="39.25035207658882" lon="16.733476545553476"><ele>1107.0</ele><time>2026-03-28T11:24:22Z</time></trkpt><trkpt lat="39.2503244726746" lon="16.73360143600621"><ele>1107.5</ele><time>2026-03-28T11:24:23Z</time></trkpt><trkpt lat="39.2503074706454" lon="16.733716038571114"><ele>1108.0</ele><time>2026-03-28T11:24:24Z</time></trkpt><trkpt lat="39.25028659097154" lon="16.733808833150626"><ele>1108.5</ele><time>2026-03-28T11:24:25Z</time></trkpt><trkpt lat="39.25026397759532" lon="16.73389069776678"><ele>1109.0</ele><time>2026-03-28T11:24:26Z</time></trkpt><trkpt lat="39.250224389619966" lon="16.734032129808742"><ele>1109.5</ele><time>2026-03-28T11:24:28Z</time></trkpt><trkpt lat="39.25019088913168" lon="16.734103722759503"><ele>1110.0</ele><time>2026-03-28T11:24:29Z</time></trkpt><trkpt lat="39.25015582728215" lon="16.734192436085376"><ele>1110.0</ele><time>2026-03-28T11:24:30Z</time></trkpt><trkpt lat="39.25012624253811" lon="16.734299740853217"><ele>1110.0</ele><time>2026-03-28T11:24:31Z</time></trkpt><trkpt lat="39.25012392308971" lon="16.734415215816465"><ele>1110.0</ele><time>2026-03-28T11:24:32Z</time></trkpt><trkpt lat="39.25013414348716" lon="16.734537094299228"><ele>1110.0</ele><time>2026-03-28T11:24:33Z</time></trkpt><trkpt lat="39.25014291561443" lon="16.73466382507738"><ele>1110.0</ele><time>2026-03-28T11:24:34Z</time></trkpt><trkpt lat="39.25015426467343" lon="16.734782779950226"><ele>1110.1666666666667</ele><time>2026-03-28T11:24:35Z</time></trkpt><trkpt lat="39.25018029674914" lon="16.734882441884846"><ele>1110.3333333333333</ele><time>2026-03-28T11:24:36Z</time></trkpt><trkpt lat="39.25021844476415" lon="16.734966761346076"><ele>1110.5</ele><time>2026-03-28T11:24:37Z</time></trkpt><trkpt lat="39.250266887563384" lon="16.735053683412158"><ele>1110.6666666666665</ele><time>2026-03-28T11:24:38Z</time></trkpt><trkpt lat="39.250332657981495" lon="16.735089092174896"><ele>1110.8333333333333</ele><time>2026-03-28T11:24:39Z</time></trkpt><trkpt lat="39.25044403261298" lon="16.73509954936663"><ele>1111.0</ele><time>2026-03-28T11:24:41Z</time></trkpt><trkpt lat="39.25051787844784" lon="16.735102989627798"><ele>1111.0</ele><time>2026-03-28T11:24:43Z</time></trkpt><trkpt lat="39.250594091562725" lon="16.735113623489156"><ele>1111.0</ele><time>2026-03-28T11:24:46Z</time></trkpt><trkpt lat="39.25065339785863" lon="16.735147209556118"><ele>1111.0</ele><time>2026-03-28T11:24:49Z</time></trkpt><trkpt lat="39.250720722022685" lon="16.735179723632694"><ele>1111.0</ele><time>2026-03-28T11:24:51Z</time></trkpt><trkpt lat="39.25083025943159" lon="16.73518965345116"><ele>1111.0</ele><time>2026-03-28T11:24:53Z</time></trkpt><trkpt lat="39.25089451128987" lon="16.735174658604848"><ele>1111.0</ele><time>2026-03-28T11:24:54Z</time></trkpt><trkpt lat="39.25095639146191" lon="16.735195272182946"><ele>1110.2</ele><time>2026-03-28T11:24:55Z</time></trkpt><trkpt lat="39.2510505131828" lon="16.735258018687382"><ele>1109.3999999999999</ele><time>2026-03-28T11:24:57Z</time></trkpt><trkpt lat="39.25108525546622" lon="16.73540414273478"><ele>1108.6</ele><time>2026-03-28T11:24:59Z</time></trkpt><trkpt lat="39.251083845169624" lon="16.735490015982727"><ele>1107.8</ele><time>2026-03-28T11:25:00Z</time></trkpt><trkpt lat="39.25108339252878" lon="16.735573880819963"><ele>1107.0</ele><time>2026-03-28T11:25:01Z</time></trkpt><trkpt lat="39.251093291352475" lon="16.735721667626294"><ele>1107.0</ele><time>2026-03-28T11:25:03Z</time></trkpt><trkpt lat="39.25112932671301" lon="16.735859538759932"><ele>1107.0</ele><time>2026-03-28T11:25:05Z</time></trkpt><trkpt lat="39.25120723984492" lon="16.73596870897825"><ele>1107.0</ele><time>2026-03-28T11:25:07Z</time></trkpt><trkpt lat="39.25129471701398" lon="16.7360823364962"><ele>1107.0</ele><time>2026-03-28T11:25:09Z</time></trkpt><trkpt lat="39.25139840642582" lon="16.736153192211358"><ele>1105.4</ele><time>2026-03-28T11:25:11Z</time></trkpt><trkpt lat="39.25148657292465" lon="16.73623767548269"><ele>1103.8000000000002</ele><time>2026-03-28T11:25:13Z</time></trkpt><trkpt lat="39.25155618617076" lon="16.73634082469498"><ele>1102.2</ele><time>2026-03-28T11:25:15Z</time></trkpt><trkpt lat="39.25158640634051" lon="16.736460752235907"><ele>1100.6000000000001</ele><time>2026-03-28T11:25:17Z</time></trkpt><trkpt lat="39.25161548370535" lon="16.736579959530427"><ele>1099.0</ele><time>2026-03-28T11:25:19Z</time></trkpt><trkpt lat="39.25166742052398" lon="16.736700120194627"><ele>1099.0</ele><time>2026-03-28T11:25:21Z</time></trkpt><trkpt lat="39.25170366630854" lon="16.736853222129547"><ele>1099.0</ele><time>2026-03-28T11:25:23Z</time></trkpt><trkpt lat="39.251741204233355" lon="16.73699727399537"><ele>1099.0</ele><time>2026-03-28T11:25:25Z</time></trkpt><trkpt lat="39.25174785965073" lon="16.73712634206068"><ele>1099.0</ele><time>2026-03-28T11:25:27Z</time></trkpt><trkpt lat="39.251717162126695" lon="16.737246911706595"><ele>1099.0</ele><time>2026-03-28T11:25:29Z</time></trkpt><trkpt lat="39.25167579656182" lon="16.737383864584398"><ele>1099.1666666666665</ele><time>2026-03-28T11:25:31Z</time></trkpt><trkpt lat="39.251640370935256" lon="16.737489713763097"><ele>1099.3333333333333</ele><time>2026-03-28T11:25:33Z</time></trkpt><trkpt lat="39.25159836156009" lon="16.73755864666096"><ele>1099.5</ele><time>2026-03-28T11:25:35Z</time></trkpt><trkpt lat="39.25155501319491" lon="16.737628333283546"><ele>1099.6666666666667</ele><time>2026-03-28T11:25:37Z</time></trkpt><trkpt lat="39.25150714247786" lon="16.7377153399963"><ele>1099.8333333333335</ele><time>2026-03-28T11:25:39Z</time></trkpt><trkpt lat="39.251459092199354" lon="16.737789599992155"><ele>1100.0</ele><time>2026-03-28T11:25:41Z</time></trkpt><trkpt lat="39.25139861691159" lon="16.737825021689932"><ele>1099.4</ele><time>2026-03-28T11:25:43Z</time></trkpt><trkpt lat="39.251329552370116" lon="16.737874802649987"><ele>1098.8</ele><time>2026-03-28T11:25:45Z</time></trkpt><trkpt lat="39.25124000567468" lon="16.737917847923725"><ele>1098.2</ele><time>2026-03-28T11:25:47Z</time></trkpt><trkpt lat="39.25113086699117" lon="16.737981135779176"><ele>1097.6</ele><time>2026-03-28T11:25:49Z</time></trkpt><trkpt lat="39.25105403977092" lon="16.738038085432628"><ele>1097.0</ele><time>2026-03-28T11:25:51Z</time></trkpt><trkpt lat="39.2509899832354" lon="16.73807131030793"><ele>1097.0</ele><time>2026-03-28T11:25:53Z</time></trkpt><trkpt lat="39.250976437311174" lon="16.738153836189547"><ele>1097.0</ele><time>2026-03-28T11:26:00Z</time></trkpt><trkpt lat="39.2510116767335" lon="16.738224931114516"><ele>1097.0</ele><time>2026-03-28T11:26:02Z</time></trkpt><trkpt lat="39.25109893038202" lon="16.738262692501113"><ele>1097.0</ele><time>2026-03-28T11:26:05Z</time></trkpt><trkpt lat="39.25116962661015" lon="16.73828530172734"><ele>1097.0</ele><time>2026-03-28T11:26:07Z</time></trkpt><trkpt lat="39.25125102752707" lon="16.738272901568124"><ele>1097.0</ele><time>2026-03-28T11:26:09Z</time></trkpt><trkpt lat="39.251319331819985" lon="16.738294242998297"><ele>1097.0</ele><time>2026-03-28T11:26:12Z</time></trkpt><trkpt lat="39.25137648498952" lon="16.738331831904745"><ele>1097.0</ele><time>2026-03-28T11:26:15Z</time></trkpt><trkpt lat="39.25144172851217" lon="16.738360016389706"><ele>1097.0</ele><time>2026-03-28T11:26:17Z</time></trkpt><trkpt lat="39.2515353798486" lon="16.73836409851665"><ele>1097.0</ele><time>2026-03-28T11:26:20Z</time></trkpt><trkpt lat="39.251617527617505" lon="16.73837669340897"><ele>1097.0</ele><time>2026-03-28T11:26:22Z</time></trkpt><trkpt lat="39.2516973749826" lon="16.73837896081957"><ele>1097.0</ele><time>2026-03-28T11:26:24Z</time></trkpt><trkpt lat="39.251766850100516" lon="16.73836135717344"><ele>1097.0</ele><time>2026-03-28T11:26:26Z</time></trkpt><trkpt lat="39.25186607052023" lon="16.73834854621517"><ele>1094.8</ele><time>2026-03-28T11:26:29Z</time></trkpt><trkpt lat="39.2519424119755" lon="16.73826753602721"><ele>1092.6</ele><time>2026-03-28T11:26:31Z</time></trkpt><trkpt lat="39.25201812322703" lon="16.738167939603212"><ele>1090.3999999999999</ele><time>2026-03-28T11:26:33Z</time></trkpt><trkpt lat="39.25207076565338" lon="16.73807324039378"><ele>1088.2</ele><time>2026-03-28T11:26:35Z</time></trkpt><trkpt lat="39.25214540383692" lon="16.738013418242783"><ele>1086.0</ele><time>2026-03-28T11:26:37Z</time></trkpt><trkpt lat="39.252225445947225" lon="16.737999390465212"><ele>1082.8</ele><time>2026-03-28T11:26:39Z</time></trkpt><trkpt lat="39.25229372593866" lon="16.738029492220974"><ele>1079.6</ele><time>2026-03-28T11:26:41Z</time></trkpt><trkpt lat="39.25236263463697" lon="16.738089683616142"><ele>1076.4</ele><time>2026-03-28T11:26:43Z</time></trkpt><trkpt lat="39.252472474148874" lon="16.738157601005238"><ele>1073.2</ele><time>2026-03-28T11:26:45Z</time></trkpt><trkpt lat="39.25252982963966" lon="16.73820487873124"><ele>1070.0</ele><time>2026-03-28T11:26:46Z</time></trkpt><trkpt lat="39.25263390301065" lon="16.73828129123245"><ele>1070.0</ele><time>2026-03-28T11:26:48Z</time></trkpt><trkpt lat="39.252729041060526" lon="16.73834571201694"><ele>1070.0</ele><time>2026-03-28T11:26:50Z</time></trkpt><trkpt lat="39.25278241287797" lon="16.738422377891037"><ele>1070.0</ele><time>2026-03-28T11:26:52Z</time></trkpt><trkpt lat="39.252777161200356" lon="16.738506540641737"><ele>1070.0</ele><time>2026-03-28T11:26:54Z</time></trkpt><trkpt lat="39.252806970530855" lon="16.73863311803795"><ele>1070.0</ele><time>2026-03-28T11:26:56Z</time></trkpt><trkpt lat="39.25284289746751" lon="16.738727550782137"><ele>1070.0</ele><time>2026-03-28T11:26:58Z</time></trkpt><trkpt lat="39.25288765343977" lon="16.738811635242435"><ele>1067.6</ele><time>2026-03-28T11:27:01Z</time></trkpt><trkpt lat="39.25295695349356" lon="16.73880774827729"><ele>1065.2</ele><time>2026-03-28T11:27:04Z</time></trkpt><trkpt lat="39.253022995393906" lon="16.738754605563027"><ele>1062.8</ele><time>2026-03-28T11:27:06Z</time></trkpt><trkpt lat="39.25310602910937" lon="16.738688981892466"><ele>1060.4</ele><time>2026-03-28T11:27:08Z</time></trkpt><trkpt lat="39.25320906611317" lon="16.738650371451747"><ele>1058.0</ele><time>2026-03-28T11:27:10Z</time></trkpt><trkpt lat="39.25330438766941" lon="16.73861587222734"><ele>1058.1666666666667</ele><time>2026-03-28T11:27:12Z</time></trkpt><trkpt lat="39.253378574158674" lon="16.738571486558854"><ele>1058.3333333333335</ele><time>2026-03-28T11:27:14Z</time></trkpt><trkpt lat="39.253451016567915" lon="16.738498256291706"><ele>1058.5</ele><time>2026-03-28T11:27:16Z</time></trkpt><trkpt lat="39.2535080193473" lon="16.73843504016069"><ele>1058.6666666666667</ele><time>2026-03-28T11:27:18Z</time></trkpt><trkpt lat="39.25356372350872" lon="16.738394787365188"><ele>1058.8333333333333</ele><time>2026-03-28T11:27:20Z</time></trkpt><trkpt lat="39.25364210935114" lon="16.738415369301173"><ele>1059.0</ele><time>2026-03-28T11:27:22Z</time></trkpt><trkpt lat="39.25373862680306" lon="16.738540034122458"><ele>1058.3333333333333</ele><time>2026-03-28T11:27:24Z</time></trkpt><trkpt lat="39.25380056143752" lon="16.73858673736673"><ele>1057.6666666666667</ele><time>2026-03-28T11:27:25Z</time></trkpt><trkpt lat="39.253866805018426" lon="16.738632328581918"><ele>1057.0</ele><time>2026-03-28T11:27:26Z</time></trkpt><trkpt lat="39.25393226347278" lon="16.738673475845538"><ele>1056.3333333333335</ele><time>2026-03-28T11:27:27Z</time></trkpt><trkpt lat="39.25399554072148" lon="16.738686742366376"><ele>1055.6666666666667</ele><time>2026-03-28T11:27:28Z</time></trkpt><trkpt lat="39.254096708172696" lon="16.73871649777027"><ele>1055.0</ele><time>2026-03-28T11:27:30Z</time></trkpt><trkpt lat="39.2541994074733" lon="16.738644931942854"><ele>1054.6666666666667</ele><time>2026-03-28T11:27:32Z</time></trkpt><trkpt lat="39.25424921173776" lon="16.738585900657732"><ele>1054.3333333333335</ele><time>2026-03-28T11:27:33Z</time></trkpt><trkpt lat="39.25429894581463" lon="16.73850440985145"><ele>1054.0</ele><time>2026-03-28T11:27:34Z</time></trkpt><trkpt lat="39.2543491405708" lon="16.738414696162966"><ele>1053.6666666666667</ele><time>2026-03-28T11:27:35Z</time></trkpt><trkpt lat="39.254387798887294" lon="16.738329374942378"><ele>1053.3333333333333</ele><time>2026-03-28T11:27:36Z</time></trkpt><trkpt lat="39.25445663458642" lon="16.738194011750792"><ele>1053.0</ele><time>2026-03-28T11:27:38Z</time></trkpt><trkpt lat="39.254553434913916" lon="16.738230086917667"><ele>1052.9999999999998</ele><time>2026-03-28T11:27:40Z</time></trkpt><trkpt lat="39.25459782843225" lon="16.738305129681216"><ele>1053.0</ele><time>2026-03-28T11:27:41Z</time></trkpt><trkpt lat="39.25464231070503" lon="16.73837283898053"><ele>1053.0</ele><time>2026-03-28T11:27:42Z</time></trkpt><trkpt lat="39.25469645846568" lon="16.738456307394422"><ele>1053.0</ele><time>2026-03-28T11:27:44Z</time></trkpt><trkpt lat="39.25472330473739" lon="16.738539074195874"><ele>1053.0</ele><time>2026-03-28T11:27:47Z</time></trkpt><trkpt lat="39.254786594054295" lon="16.738597947520937"><ele>1052.9999999999998</ele><time>2026-03-28T11:27:57Z</time></trkpt><trkpt lat="39.25483971154359" lon="16.738645686572024"><ele>1053.0</ele><time>2026-03-28T11:28:00Z</time></trkpt><trkpt lat="39.2549118414973" lon="16.738635395472578"><ele>1051.4285714285713</ele><time>2026-03-28T11:28:08Z</time></trkpt><trkpt lat="39.25497616759172" lon="16.73860139469768"><ele>1049.857142857143</ele><time>2026-03-28T11:28:21Z</time></trkpt><trkpt lat="39.255064278215755" lon="16.73859232129447"><ele>1048.2857142857142</ele><time>2026-03-28T11:29:00Z</time></trkpt><trkpt lat="39.25508913532228" lon="16.738517530425252"><ele>1046.7142857142858</ele><time>2026-03-28T11:29:43Z</time></trkpt><trkpt lat="39.25509998872286" lon="16.73842721118463"><ele>1045.142857142857</ele><time>2026-03-28T11:30:00Z</time></trkpt><trkpt lat="39.25513959360569" lon="16.73835653525117"><ele>1043.5714285714284</ele><time>2026-03-28T11:30:04Z</time></trkpt><trkpt lat="39.25518015321289" lon="16.738281015551312"><ele>1042.0</ele><time>2026-03-28T11:30:08Z</time></trkpt><trkpt lat="39.25525482349324" lon="16.73825361999088"><ele>1042.0</ele><time>2026-03-28T11:30:15Z</time></trkpt><trkpt lat="39.255308816303085" lon="16.738298126418325"><ele>1042.0</ele><time>2026-03-28T11:30:22Z</time></trkpt><trkpt lat="39.25535835470156" lon="16.73836692708205"><ele>1042.0</ele><time>2026-03-28T11:30:29Z</time></trkpt><trkpt lat="39.25541096460093" lon="16.73843203481711"><ele>1042.0</ele><time>2026-03-28T11:30:32Z</time></trkpt><trkpt lat="39.255410598043106" lon="16.738518884471066"><ele>1042.0</ele><time>2026-03-28T11:30:35Z</time></trkpt><trkpt lat="39.255369224787465" lon="16.738631231640642"><ele>1042.0</ele><time>2026-03-28T11:30:38Z</time></trkpt><trkpt lat="39.255325840002364" lon="16.73871690678355"><ele>1039.6</ele><time>2026-03-28T11:30:40Z</time></trkpt><trkpt lat="39.25526564393983" lon="16.738811952190648"><ele>1037.2</ele><time>2026-03-28T11:30:42Z</time></trkpt><trkpt lat="39.25521796399472" lon="16.738927181011086"><ele>1034.8</ele><time>2026-03-28T11:30:44Z</time></trkpt><trkpt lat="39.255155235728886" lon="16.73906294831936"><ele>1032.4</ele><time>2026-03-28T11:30:46Z</time></trkpt><trkpt lat="39.25512100134841" lon="16.739135750971055"><ele>1030.0</ele><time>2026-03-28T11:30:47Z</time></trkpt><trkpt lat="39.25507838517144" lon="16.73921015946159"><ele>1030.0</ele><time>2026-03-28T11:30:48Z</time></trkpt><trkpt lat="39.25504257223589" lon="16.739283441051764"><ele>1030.0</ele><time>2026-03-28T11:30:49Z</time></trkpt><trkpt lat="39.25498675388099" lon="16.739389284707205"><ele>1030.0</ele><time>2026-03-28T11:30:51Z</time></trkpt><trkpt lat="39.254943428949396" lon="16.739492062117687"><ele>1030.0</ele><time>2026-03-28T11:30:53Z</time></trkpt><trkpt lat="39.254906938631436" lon="16.73959815289439"><ele>1030.0</ele><time>2026-03-28T11:30:55Z</time></trkpt><trkpt lat="39.25489311611528" lon="16.73971209721119"><ele>1030.0</ele><time>2026-03-28T11:30:57Z</time></trkpt><trkpt lat="39.25488426518436" lon="16.73981667156956"><ele>1028.6666666666665</ele><time>2026-03-28T11:30:59Z</time></trkpt><trkpt lat="39.2548238316435" lon="16.73983950791082"><ele>1027.3333333333333</ele><time>2026-03-28T11:31:02Z</time></trkpt><trkpt lat="39.25475461783789" lon="16.739842797889132"><ele>1026.0</ele><time>2026-03-28T11:31:04Z</time></trkpt><trkpt lat="39.25466201083816" lon="16.739846106955518"><ele>1024.6666666666667</ele><time>2026-03-28T11:31:06Z</time></trkpt><trkpt lat="39.254579201680336" lon="16.73984985576914"><ele>1023.3333333333334</ele><time>2026-03-28T11:31:08Z</time></trkpt><trkpt lat="39.254538008932315" lon="16.739931787666055"><ele>1022.0</ele><time>2026-03-28T11:31:09Z</time></trkpt><trkpt lat="39.254471694939944" lon="16.739973245510036"><ele>1022.0000000000001</ele><time>2026-03-28T11:31:11Z</time></trkpt><trkpt lat="39.25440881424293" lon="16.739985310777875"><ele>1022.0</ele><time>2026-03-28T11:31:13Z</time></trkpt><trkpt lat="39.25433773368374" lon="16.740042032707258"><ele>1022.0</ele><time>2026-03-28T11:31:16Z</time></trkpt><trkpt lat="39.25436492327741" lon="16.740201621789776"><ele>1022.0</ele><time>2026-03-28T11:31:18Z</time></trkpt><trkpt lat="39.25437578603034" lon="16.740291089057784"><ele>1022.0000000000001</ele><time>2026-03-28T11:31:19Z</time></trkpt><trkpt lat="39.2543793888565" lon="16.74037259617706"><ele>1022.0</ele><time>2026-03-28T11:31:20Z</time></trkpt><trkpt lat="39.254372881921334" lon="16.74045351322354"><ele>1019.1666666666667</ele><time>2026-03-28T11:31:21Z</time></trkpt><trkpt lat="39.25434717557812" lon="16.740536830494783"><ele>1016.3333333333334</ele><time>2026-03-28T11:31:22Z</time></trkpt><trkpt lat="39.25430620451732" lon="16.740601871466357"><ele>1013.5</ele><time>2026-03-28T11:31:23Z</time></trkpt><trkpt lat="39.25424029808454" lon="16.740671385298842"><ele>1010.6666666666667</ele><time>2026-03-28T11:31:24Z</time></trkpt><trkpt lat="39.25417165814676" lon="16.74073320226415"><ele>1007.8333333333334</ele><time>2026-03-28T11:31:25Z</time></trkpt><trkpt lat="39.254088299867966" lon="16.74076835993583"><ele>1005.0</ele><time>2026-03-28T11:31:26Z</time></trkpt><trkpt lat="39.25399717807453" lon="16.7408231249206"><ele>1009.1666666666666</ele><time>2026-03-28T11:31:27Z</time></trkpt><trkpt lat="39.253907645426146" lon="16.740874058875153"><ele>1013.3333333333333</ele><time>2026-03-28T11:31:28Z</time></trkpt><trkpt lat="39.253830121505224" lon="16.740921886622186"><ele>1017.5</ele><time>2026-03-28T11:31:29Z</time></trkpt><trkpt lat="39.253767370157725" lon="16.740953840682742"><ele>1021.6666666666666</ele><time>2026-03-28T11:31:30Z</time></trkpt><trkpt lat="39.25370535284903" lon="16.740982717586835"><ele>1025.8333333333333</ele><time>2026-03-28T11:31:31Z</time></trkpt><trkpt lat="39.25364066149533" lon="16.741014568267428"><ele>1030.0</ele><time>2026-03-28T11:31:32Z</time></trkpt><trkpt lat="39.25357184462082" lon="16.74103530861747"><ele>1027.3333333333333</ele><time>2026-03-28T11:31:33Z</time></trkpt><trkpt lat="39.253503946884" lon="16.741056996376944"><ele>1024.6666666666665</ele><time>2026-03-28T11:31:34Z</time></trkpt><trkpt lat="39.25343908677073" lon="16.74109252250712"><ele>1022.0</ele><time>2026-03-28T11:31:35Z</time></trkpt><trkpt lat="39.25334953487513" lon="16.741129910882876"><ele>1019.3333333333333</ele><time>2026-03-28T11:31:37Z</time></trkpt><trkpt lat="39.253343367779486" lon="16.741213712531202"><ele>1016.6666666666666</ele><time>2026-03-28T11:31:40Z</time></trkpt><trkpt lat="39.253423327830845" lon="16.74132780500754"><ele>1014.0</ele><time>2026-03-28T11:31:42Z</time></trkpt><trkpt lat="39.25347899632429" lon="16.74137496828441"><ele>1014.0</ele><time>2026-03-28T11:31:43Z</time></trkpt><trkpt lat="39.253520139509234" lon="16.741455409873037"><ele>1014.0</ele><time>2026-03-28T11:31:44Z</time></trkpt><trkpt lat="39.25356686823547" lon="16.74153949504569"><ele>1014.0</ele><time>2026-03-28T11:31:45Z</time></trkpt><trkpt lat="39.25362270886554" lon="16.74160967756032"><ele>1014.0</ele><time>2026-03-28T11:31:46Z</time></trkpt><trkpt lat="39.253699533875896" lon="16.741667569220553"><ele>1014.0</ele><time>2026-03-28T11:31:47Z</time></trkpt><trkpt lat="39.253782908948274" lon="16.741732886415832"><ele>1014.0</ele><time>2026-03-28T11:31:48Z</time></trkpt><trkpt lat="39.2538676830517" lon="16.741793432598396"><ele>1014.0</ele><time>2026-03-28T11:31:49Z</time></trkpt><trkpt lat="39.2539364819277" lon="16.741881021495285"><ele>1014.0000000000001</ele><time>2026-03-28T11:31:50Z</time></trkpt><trkpt lat="39.25399666345776" lon="16.7419949818192"><ele>1014.0000000000001</ele><time>2026-03-28T11:31:51Z</time></trkpt><trkpt lat="39.25405787766127" lon="16.74210119727574"><ele>1014.0</ele><time>2026-03-28T11:31:52Z</time></trkpt><trkpt lat="39.25412474796464" lon="16.74220341966501"><ele>1014.0</ele><time>2026-03-28T11:31:53Z</time></trkpt><trkpt lat="39.25418789523496" lon="16.74230941623003"><ele>1010.1666666666666</ele><time>2026-03-28T11:31:54Z</time></trkpt><trkpt lat="39.25422835490502" lon="16.742404234847285"><ele>1006.3333333333333</ele><time>2026-03-28T11:31:55Z</time></trkpt><trkpt lat="39.25423431740594" lon="16.742503350048292"><ele>1002.5</ele><time>2026-03-28T11:31:56Z</time></trkpt><trkpt lat="39.2542322782173" lon="16.742611338952713"><ele>998.6666666666666</ele><time>2026-03-28T11:31:57Z</time></trkpt><trkpt lat="39.2542245617466" lon="16.74269527171176"><ele>994.8333333333333</ele><time>2026-03-28T11:31:58Z</time></trkpt><trkpt lat="39.25416263677205" lon="16.742835198913504"><ele>991.0</ele><time>2026-03-28T11:32:00Z</time></trkpt><trkpt lat="39.25410276579897" lon="16.742964282803765"><ele>989.8</ele><time>2026-03-28T11:32:02Z</time></trkpt><trkpt lat="39.25404818815518" lon="16.743094835599447"><ele>988.5999999999999</ele><time>2026-03-28T11:32:04Z</time></trkpt><trkpt lat="39.253997646691374" lon="16.743244383069165"><ele>987.4</ele><time>2026-03-28T11:32:06Z</time></trkpt><trkpt lat="39.253971131630756" lon="16.743354349752654"><ele>986.2</ele><time>2026-03-28T11:32:08Z</time></trkpt><trkpt lat="39.253954105080844" lon="16.743434370557175"><ele>985.0</ele><time>2026-03-28T11:32:10Z</time></trkpt><trkpt lat="39.25396571117788" lon="16.74352353912127"><ele>984.1428571428572</ele><time>2026-03-28T11:32:13Z</time></trkpt><trkpt lat="39.2540161021222" lon="16.743575637750727"><ele>983.2857142857144</ele><time>2026-03-28T11:32:15Z</time></trkpt><trkpt lat="39.25406687046089" lon="16.74363042536381"><ele>982.4285714285714</ele><time>2026-03-28T11:32:20Z</time></trkpt><trkpt lat="39.25413637439041" lon="16.743663042908775"><ele>981.5714285714287</ele><time>2026-03-28T11:32:26Z</time></trkpt><trkpt lat="39.25419822825556" lon="16.74369082781475"><ele>980.7142857142858</ele><time>2026-03-28T11:32:32Z</time></trkpt><trkpt lat="39.2542175652483" lon="16.74377520417606"><ele>979.8571428571429</ele><time>2026-03-28T11:32:38Z</time></trkpt><trkpt lat="39.25419499940085" lon="16.743872016577843"><ele>979.0</ele><time>2026-03-28T11:32:40Z</time></trkpt><trkpt lat="39.25417936336991" lon="16.74396340201731"><ele>979.0</ele><time>2026-03-28T11:32:43Z</time></trkpt><trkpt lat="39.254161928291936" lon="16.744055003164288"><ele>979.0</ele><time>2026-03-28T11:32:47Z</time></trkpt><trkpt lat="39.25416976952085" lon="16.744152218594614"><ele>979.0</ele><time>2026-03-28T11:32:49Z</time></trkpt><trkpt lat="39.254200559686545" lon="16.744238259054683"><ele>979.0</ele><time>2026-03-28T11:32:51Z</time></trkpt><trkpt lat="39.25421354105522" lon="16.744323927683222"><ele>979.0</ele><time>2026-03-28T11:32:53Z</time></trkpt><trkpt lat="39.25421946327197" lon="16.744412409690156"><ele>979.0</ele><time>2026-03-28T11:32:55Z</time></trkpt><trkpt lat="39.25425305399702" lon="16.744484093696794"><ele>979.0</ele><time>2026-03-28T11:32:58Z</time></trkpt><trkpt lat="39.254311148430745" lon="16.744544503371927"><ele>977.5</ele><time>2026-03-28T11:33:03Z</time></trkpt><trkpt lat="39.25430094405251" lon="16.744631718263733"><ele>976.0</ele><time>2026-03-28T11:33:06Z</time></trkpt><trkpt lat="39.25431437066204" lon="16.744738996360848"><ele>974.5</ele><time>2026-03-28T11:33:10Z</time></trkpt><trkpt lat="39.2543019139033" lon="16.744829219443496"><ele>973.0</ele><time>2026-03-28T11:33:14Z</time></trkpt><trkpt lat="39.254652992463235" lon="16.745200166084278"><ele>972.1666666666666</ele><time>2026-03-28T11:33:33Z</time></trkpt><trkpt lat="39.254743622576385" lon="16.745254312444498"><ele>971.3333333333333</ele><time>2026-03-28T11:33:35Z</time></trkpt><trkpt lat="39.25481909858653" lon="16.745331070547802"><ele>970.5</ele><time>2026-03-28T11:33:37Z</time></trkpt><trkpt lat="39.254886727461866" lon="16.745380407256736"><ele>969.6666666666667</ele><time>2026-03-28T11:33:39Z</time></trkpt><trkpt lat="39.254942944033296" lon="16.74543683233095"><ele>968.8333333333334</ele><time>2026-03-28T11:33:41Z</time></trkpt><trkpt lat="39.25500152969178" lon="16.745506713402882"><ele>968.0</ele><time>2026-03-28T11:33:43Z</time></trkpt><trkpt lat="39.255089031336006" lon="16.745587265927117"><ele>969.8</ele><time>2026-03-28T11:33:45Z</time></trkpt><trkpt lat="39.25518473241359" lon="16.74567198931686"><ele>971.5999999999999</ele><time>2026-03-28T11:33:47Z</time></trkpt><trkpt lat="39.255229393965266" lon="16.745781242581753"><ele>973.4000000000001</ele><time>2026-03-28T11:33:49Z</time></trkpt><trkpt lat="39.25518932448602" lon="16.745917934770592"><ele>975.2</ele><time>2026-03-28T11:33:51Z</time></trkpt><trkpt lat="39.25518236894751" lon="16.7460682347314"><ele>977.0</ele><time>2026-03-28T11:33:53Z</time></trkpt><trkpt lat="39.25517972757334" lon="16.74622912633348"><ele>977.0000000000001</ele><time>2026-03-28T11:33:55Z</time></trkpt><trkpt lat="39.25518206117566" lon="16.746380936600637"><ele>977.0</ele><time>2026-03-28T11:33:57Z</time></trkpt><trkpt lat="39.25518038866612" lon="16.74650985987884"><ele>977.0</ele><time>2026-03-28T11:33:59Z</time></trkpt><trkpt lat="39.25516578324657" lon="16.746614431472953"><ele>977.0</ele><time>2026-03-28T11:34:01Z</time></trkpt><trkpt lat="39.25516039634777" lon="16.746716462766095"><ele>977.0000000000001</ele><time>2026-03-28T11:34:03Z</time></trkpt><trkpt lat="39.25514754747587" lon="16.746798448657163"><ele>977.0</ele><time>2026-03-28T11:34:06Z</time></trkpt><trkpt lat="39.25516456529749" lon="16.74687704474632"><ele>977.0000000000001</ele><time>2026-03-28T11:34:10Z</time></trkpt><trkpt lat="39.255159309038014" lon="16.74696269185903"><ele>977.0</ele><time>2026-03-28T11:34:13Z</time></trkpt><trkpt lat="39.25512806741778" lon="16.747049203241566"><ele>977.0</ele><time>2026-03-28T11:34:17Z</time></trkpt><trkpt lat="39.25509975369828" lon="16.747132677039417"><ele>977.0</ele><time>2026-03-28T11:34:19Z</time></trkpt><trkpt lat="39.25505541030044" lon="16.74728787371861"><ele>977.0000000000001</ele><time>2026-03-28T11:34:21Z</time></trkpt><trkpt lat="39.25503291196214" lon="16.74738606970547"><ele>977.0</ele><time>2026-03-28T11:34:22Z</time></trkpt><trkpt lat="39.255030691304974" lon="16.747508693612275"><ele>977.0</ele><time>2026-03-28T11:34:23Z</time></trkpt><trkpt lat="39.255044937388796" lon="16.747644226689808"><ele>977.0</ele><time>2026-03-28T11:34:24Z</time></trkpt><trkpt lat="39.25506132035906" lon="16.747779715995158"><ele>977.0</ele><time>2026-03-28T11:34:25Z</time></trkpt><trkpt lat="39.2550763742488" lon="16.747896841623987"><ele>977.0</ele><time>2026-03-28T11:34:26Z</time></trkpt><trkpt lat="39.25508299928613" lon="16.747989455680074"><ele>977.0</ele><time>2026-03-28T11:34:27Z</time></trkpt><trkpt lat="39.25508165231302" lon="16.748085430913026"><ele>977.1666666666667</ele><time>2026-03-28T11:34:29Z</time></trkpt><trkpt lat="39.25512175434508" lon="16.74818494210765"><ele>977.3333333333334</ele><time>2026-03-28T11:34:33Z</time></trkpt><trkpt lat="39.25514280625377" lon="16.748298243309897"><ele>977.5</ele><time>2026-03-28T11:34:35Z</time></trkpt><trkpt lat="39.25516451544988" lon="16.748407323584665"><ele>977.6666666666667</ele><time>2026-03-28T11:34:37Z</time></trkpt><trkpt lat="39.25518218196067" lon="16.748513888643412"><ele>977.8333333333334</ele><time>2026-03-28T11:34:39Z</time></trkpt><trkpt lat="39.25520318177863" lon="16.74862483910077"><ele>978.0</ele><time>2026-03-28T11:34:41Z</time></trkpt><trkpt lat="39.25522201535619" lon="16.74874864739031"><ele>978.0</ele><time>2026-03-28T11:34:43Z</time></trkpt><trkpt lat="39.255240132366936" lon="16.74885579972289"><ele>978.0</ele><time>2026-03-28T11:34:45Z</time></trkpt><trkpt lat="39.25525970518925" lon="16.748975196865498"><ele>978.0</ele><time>2026-03-28T11:34:47Z</time></trkpt><trkpt lat="39.25531550993581" lon="16.749097229266496"><ele>978.0</ele><time>2026-03-28T11:34:49Z</time></trkpt><trkpt lat="39.25538022342723" lon="16.74921234358882"><ele>978.0</ele><time>2026-03-28T11:34:51Z</time></trkpt><trkpt lat="39.25544597122222" lon="16.749318789835694"><ele>978.5999999999999</ele><time>2026-03-28T11:34:53Z</time></trkpt><trkpt lat="39.255532240137285" lon="16.749413150327026"><ele>979.1999999999999</ele><time>2026-03-28T11:34:55Z</time></trkpt><trkpt lat="39.25557197401659" lon="16.74953875832802"><ele>979.8</ele><time>2026-03-28T11:34:57Z</time></trkpt><trkpt lat="39.25561409356253" lon="16.749661626485562"><ele>980.4</ele><time>2026-03-28T11:34:59Z</time></trkpt><trkpt lat="39.255629684452025" lon="16.749772447652084"><ele>981.0</ele><time>2026-03-28T11:35:01Z</time></trkpt><trkpt lat="39.25563163859458" lon="16.749895753701054"><ele>983.1666666666666</ele><time>2026-03-28T11:35:03Z</time></trkpt><trkpt lat="39.25564165031372" lon="16.74997972479941"><ele>985.3333333333333</ele><time>2026-03-28T11:35:04Z</time></trkpt><trkpt lat="39.25564474267198" lon="16.75006716936593"><ele>987.5</ele><time>2026-03-28T11:35:05Z</time></trkpt><trkpt lat="39.25564331205077" lon="16.750149695606947"><ele>989.6666666666666</ele><time>2026-03-28T11:35:06Z</time></trkpt><trkpt lat="39.25564427205632" lon="16.75029869960352"><ele>991.8333333333333</ele><time>2026-03-28T11:35:08Z</time></trkpt><trkpt lat="39.25564440985103" lon="16.750454431091434"><ele>994.0</ele><time>2026-03-28T11:35:10Z</time></trkpt><trkpt lat="39.255641148451254" lon="16.750538890305858"><ele>994.0</ele><time>2026-03-28T11:35:11Z</time></trkpt><trkpt lat="39.25564679801445" lon="16.750622013266142"><ele>994.0000000000001</ele><time>2026-03-28T11:35:12Z</time></trkpt><trkpt lat="39.255648314275156" lon="16.750705529152697"><ele>994.0000000000001</ele><time>2026-03-28T11:35:13Z</time></trkpt><trkpt lat="39.255661723387185" lon="16.75085226507387"><ele>994.0</ele><time>2026-03-28T11:35:15Z</time></trkpt><trkpt lat="39.25571398666433" lon="16.750983855506387"><ele>994.0</ele><time>2026-03-28T11:35:17Z</time></trkpt><trkpt lat="39.25574191602484" lon="16.75111451241465"><ele>993.0</ele><time>2026-03-28T11:35:19Z</time></trkpt><trkpt lat="39.25574607825946" lon="16.7512238046526"><ele>992.0</ele><time>2026-03-28T11:35:21Z</time></trkpt><trkpt lat="39.25574024539168" lon="16.751313053225466"><ele>991.0</ele><time>2026-03-28T11:35:23Z</time></trkpt><trkpt lat="39.25573003700838" lon="16.751396328076694"><ele>990.0</ele><time>2026-03-28T11:35:25Z</time></trkpt><trkpt lat="39.2556794638852" lon="16.75147852516695"><ele>989.0</ele><time>2026-03-28T11:35:27Z</time></trkpt><trkpt lat="39.25561964234019" lon="16.751520529969866"><ele>988.0</ele><time>2026-03-28T11:35:29Z</time></trkpt><trkpt lat="39.25554927152851" lon="16.75156141465845"><ele>987.0</ele><time>2026-03-28T11:35:32Z</time></trkpt><trkpt lat="39.255476464094066" lon="16.75161101348511"><ele>985.4285714285714</ele><time>2026-03-28T11:35:35Z</time></trkpt><trkpt lat="39.2554259974423" lon="16.751667795731464"><ele>983.8571428571429</ele><time>2026-03-28T11:35:39.001Z</time></trkpt><trkpt lat="39.25537496791311" lon="16.751717656898407"><ele>982.2857142857142</ele><time>2026-03-28T11:35:46.001Z</time></trkpt><trkpt lat="39.25530469266869" lon="16.751745567799368"><ele>980.7142857142857</ele><time>2026-03-28T11:35:49.001Z</time></trkpt><trkpt lat="39.25523826978545" lon="16.75178566847713"><ele>979.1428571428571</ele><time>2026-03-28T11:35:52Z</time></trkpt><trkpt lat="39.25518277139913" lon="16.75183619191436"><ele>977.5714285714284</ele><time>2026-03-28T11:35:57Z</time></trkpt><trkpt lat="39.25511452216602" lon="16.75189540606079"><ele>975.9999999999999</ele><time>2026-03-28T11:36:01Z</time></trkpt><trkpt lat="39.25504303697183" lon="16.751924329406133"><ele>974.8571428571427</ele><time>2026-03-28T11:36:05Z</time></trkpt><trkpt lat="39.25497988216462" lon="16.751946074030307"><ele>973.7142857142857</ele><time>2026-03-28T11:36:10Z</time></trkpt><trkpt lat="39.25496158093823" lon="16.752037169237184"><ele>972.5714285714284</ele><time>2026-03-28T11:36:16Z</time></trkpt><trkpt lat="39.25495146149016" lon="16.752121446145363"><ele>971.4285714285713</ele><time>2026-03-28T11:36:18Z</time></trkpt><trkpt lat="39.25493148701554" lon="16.752229542676808"><ele>970.2857142857142</ele><time>2026-03-28T11:36:21Z</time></trkpt><trkpt lat="39.254915829500675" lon="16.752325365094286"><ele>969.1428571428571</ele><time>2026-03-28T11:36:24Z</time></trkpt><trkpt lat="39.25488932161067" lon="16.75240306882822"><ele>968.0</ele><time>2026-03-28T11:36:27Z</time></trkpt><trkpt lat="39.2548597364441" lon="16.752512492891597"><ele>968.0000000000001</ele><time>2026-03-28T11:36:30Z</time></trkpt><trkpt lat="39.25483863257502" lon="16.752612482932054"><ele>968.0</ele><time>2026-03-28T11:36:33Z</time></trkpt><trkpt lat="39.254767692769725" lon="16.752687088633007"><ele>968.0</ele><time>2026-03-28T11:36:37Z</time></trkpt><trkpt lat="39.25468688136911" lon="16.75269062145696"><ele>968.0</ele><time>2026-03-28T11:36:40Z</time></trkpt><trkpt lat="39.25459613571163" lon="16.752676210142578"><ele>968.0000000000001</ele><time>2026-03-28T11:36:43Z</time></trkpt><trkpt lat="39.254507311299164" lon="16.752678716327395"><ele>968.0</ele><time>2026-03-28T11:36:46Z</time></trkpt><trkpt lat="39.25449083618161" lon="16.752776756770164"><ele>963.5000000000001</ele><time>2026-03-28T11:36:50Z</time></trkpt><trkpt lat="39.25450978370286" lon="16.752889281886464"><ele>959.0</ele><time>2026-03-28T11:36:53Z</time></trkpt><trkpt lat="39.254505916282845" lon="16.752973951513706"><ele>954.5</ele><time>2026-03-28T11:36:58Z</time></trkpt><trkpt lat="39.25454383019596" lon="16.753058122361846"><ele>950.0</ele><time>2026-03-28T11:37:05Z</time></trkpt><trkpt lat="39.25445678228355" lon="16.753104385002956"><ele>945.5000000000001</ele><time>2026-03-28T11:37:10Z</time></trkpt><trkpt lat="39.254375625856646" lon="16.753078109736695"><ele>941.0</ele><time>2026-03-28T11:37:12Z</time></trkpt><trkpt lat="39.25430947442034" lon="16.753026159828"><ele>941.0000000000001</ele><time>2026-03-28T11:37:14Z</time></trkpt><trkpt lat="39.25423428623621" lon="16.75296248916861"><ele>941.0</ele><time>2026-03-28T11:37:16Z</time></trkpt><trkpt lat="39.254157357200924" lon="16.752902959038998"><ele>941.0</ele><time>2026-03-28T11:37:18Z</time></trkpt><trkpt lat="39.25408559410206" lon="16.7528519537636"><ele>941.0</ele><time>2026-03-28T11:37:20Z</time></trkpt><trkpt lat="39.25400394353945" lon="16.75281207427691"><ele>941.0000000000001</ele><time>2026-03-28T11:37:22Z</time></trkpt><trkpt lat="39.253934060838944" lon="16.752758827282527"><ele>941.0</ele><time>2026-03-28T11:37:24Z</time></trkpt><trkpt lat="39.253869518282556" lon="16.75273512122255"><ele>939.0000000000001</ele><time>2026-03-28T11:37:26Z</time></trkpt><trkpt lat="39.25379267596045" lon="16.752741010297868"><ele>937.0</ele><time>2026-03-28T11:37:28Z</time></trkpt><trkpt lat="39.25371916847109" lon="16.75278115629885"><ele>935.0</ele><time>2026-03-28T11:37:30Z</time></trkpt><trkpt lat="39.25365392655222" lon="16.75283076345061"><ele>933.0</ele><time>2026-03-28T11:37:32Z</time></trkpt><trkpt lat="39.253602289521716" lon="16.752877839899725"><ele>931.0000000000001</ele><time>2026-03-28T11:37:34Z</time></trkpt><trkpt lat="39.253544785600575" lon="16.75294626147475"><ele>929.0</ele><time>2026-03-28T11:37:38Z</time></trkpt><trkpt lat="39.253520491300726" lon="16.753044083180328"><ele>929.0000000000001</ele><time>2026-03-28T11:37:46Z</time></trkpt><trkpt lat="39.25349153188176" lon="16.753122974419277"><ele>929.0</ele><time>2026-03-28T11:37:48Z</time></trkpt><trkpt lat="39.25351915093196" lon="16.75321074097422"><ele>929.0</ele><time>2026-03-28T11:37:50Z</time></trkpt><trkpt lat="39.25360210303818" lon="16.753336711785874"><ele>929.0</ele><time>2026-03-28T11:37:52Z</time></trkpt><trkpt lat="39.25364747185315" lon="16.75340599535513"><ele>929.0000000000001</ele><time>2026-03-28T11:37:53Z</time></trkpt><trkpt lat="39.25368936421215" lon="16.75348817625634"><ele>929.0</ele><time>2026-03-28T11:37:54Z</time></trkpt><trkpt lat="39.25373095588071" lon="16.753576351477207"><ele>927.6</ele><time>2026-03-28T11:37:55.001Z</time></trkpt><trkpt lat="39.253765601476275" lon="16.753657679328924"><ele>926.2</ele><time>2026-03-28T11:37:56.001Z</time></trkpt><trkpt lat="39.25374698524663" lon="16.75374733904506"><ele>924.8000000000001</ele><time>2026-03-28T11:37:57.001Z</time></trkpt><trkpt lat="39.25376147314816" lon="16.75389332087821"><ele>923.4000000000001</ele><time>2026-03-28T11:37:59.001Z</time></trkpt><trkpt lat="39.253781464841076" lon="16.754028446417415"><ele>922.0</ele><time>2026-03-28T11:38:01.001Z</time></trkpt><trkpt lat="39.253812818701405" lon="16.754158041764082"><ele>922.0</ele><time>2026-03-28T11:38:03.001Z</time></trkpt><trkpt lat="39.25384245715612" lon="16.754282438426852"><ele>922.0</ele><time>2026-03-28T11:38:05.001Z</time></trkpt><trkpt lat="39.253872621505714" lon="16.75440904234295"><ele>922.0</ele><time>2026-03-28T11:38:07.001Z</time></trkpt><trkpt lat="39.253918338813534" lon="16.754546196862698"><ele>922.0</ele><time>2026-03-28T11:38:09.001Z</time></trkpt><trkpt lat="39.25391066599746" lon="16.754635228303357"><ele>922.0</ele><time>2026-03-28T11:38:10.001Z</time></trkpt><trkpt lat="39.25390287254724" lon="16.754718102782252"><ele>920.6</ele><time>2026-03-28T11:38:11.001Z</time></trkpt><trkpt lat="39.25378419888876" lon="16.754748187305818"><ele>919.2</ele><time>2026-03-28T11:38:12.001Z</time></trkpt><trkpt lat="39.25375475983958" lon="16.754841224941153"><ele>917.8</ele><time>2026-03-28T11:38:21.001Z</time></trkpt><trkpt lat="39.25370129097685" lon="16.75495301129912"><ele>916.4</ele><time>2026-03-28T11:38:25.001Z</time></trkpt><trkpt lat="39.253693407165656" lon="16.755100991522923"><ele>915.0</ele><time>2026-03-28T11:38:27.001Z</time></trkpt><trkpt lat="39.25377436908946" lon="16.755185676185036"><ele>912.8</ele><time>2026-03-28T11:38:29.001Z</time></trkpt><trkpt lat="39.25364152636911" lon="16.75534617646135"><ele>910.6</ele><time>2026-03-28T11:38:46.001Z</time></trkpt><trkpt lat="39.253568634882434" lon="16.755357904863946"><ele>908.4000000000001</ele><time>2026-03-28T11:38:52.001Z</time></trkpt><trkpt lat="39.253477064442585" lon="16.755391009605294"><ele>906.2</ele><time>2026-03-28T11:38:56.001Z</time></trkpt><trkpt lat="39.25341271165508" lon="16.75539214747687"><ele>904.0</ele><time>2026-03-28T11:38:59.001Z</time></trkpt><trkpt lat="39.25331731690378" lon="16.755437598968875"><ele>903.9999999999999</ele><time>2026-03-28T11:39:01.001Z</time></trkpt><trkpt lat="39.25324175574242" lon="16.755519400884953"><ele>904.0</ele><time>2026-03-28T11:39:03.001Z</time></trkpt><trkpt lat="39.25319444216117" lon="16.755585248185795"><ele>904.0</ele><time>2026-03-28T11:39:07.001Z</time></trkpt><trkpt lat="39.253128090936784" lon="16.75567732323922"><ele>904.0</ele><time>2026-03-28T11:39:11.001Z</time></trkpt><trkpt lat="39.253079797274836" lon="16.75573150405975"><ele>903.9999999999999</ele><time>2026-03-28T11:39:13.001Z</time></trkpt><trkpt lat="39.253017920164275" lon="16.7557922843616"><ele>904.0</ele><time>2026-03-28T11:39:23.001Z</time></trkpt><trkpt lat="39.25295138501026" lon="16.75579386645386"><ele>903.4285714285714</ele><time>2026-03-28T11:39:25.001Z</time></trkpt><trkpt lat="39.25288552730345" lon="16.755775954939885"><ele>902.8571428571429</ele><time>2026-03-28T11:39:27.001Z</time></trkpt><trkpt lat="39.25282228460463" lon="16.75574879121788"><ele>902.2857142857143</ele><time>2026-03-28T11:39:30.001Z</time></trkpt><trkpt lat="39.252757563765904" lon="16.755793723158845"><ele>901.7142857142858</ele><time>2026-03-28T11:39:38.001Z</time></trkpt><trkpt lat="39.252723568039784" lon="16.75586360553724"><ele>901.1428571428571</ele><time>2026-03-28T11:39:43.001Z</time></trkpt><trkpt lat="39.252685725203726" lon="16.755942891069008"><ele>900.5714285714287</ele><time>2026-03-28T11:39:47.001Z</time></trkpt><trkpt lat="39.25263333913013" lon="16.756010728792386"><ele>900.0000000000001</ele><time>2026-03-28T11:39:49.001Z</time></trkpt><trkpt lat="39.25258871018269" lon="16.756097676259714"><ele>899.2</ele><time>2026-03-28T11:39:51.001Z</time></trkpt><trkpt lat="39.25256485021859" lon="16.75618506385924"><ele>898.4</ele><time>2026-03-28T11:39:53.001Z</time></trkpt><trkpt lat="39.252549259360975" lon="16.756276462054988"><ele>897.5999999999999</ele><time>2026-03-28T11:39:55.001Z</time></trkpt><trkpt lat="39.25254905143208" lon="16.75640624066849"><ele>896.8</ele><time>2026-03-28T11:39:57.001Z</time></trkpt><trkpt lat="39.25261885621432" lon="16.756509867420583"><ele>896.0</ele><time>2026-03-28T11:39:59.001Z</time></trkpt><trkpt lat="39.25266075885651" lon="16.756637494451898"><ele>896.0</ele><time>2026-03-28T11:40:01.001Z</time></trkpt><trkpt lat="39.25270259402459" lon="16.756751696578114"><ele>895.9999999999999</ele><time>2026-03-28T11:40:03.001Z</time></trkpt><trkpt lat="39.25273901740326" lon="16.756869343900608"><ele>895.9999999999999</ele><time>2026-03-28T11:40:05.001Z</time></trkpt><trkpt lat="39.25274596316056" lon="16.75697943137693"><ele>896.0</ele><time>2026-03-28T11:40:07.001Z</time></trkpt><trkpt lat="39.25275633220809" lon="16.757073251201746"><ele>896.0</ele><time>2026-03-28T11:40:09.001Z</time></trkpt><trkpt lat="39.25270676584091" lon="16.757186819538948"><ele>895.0</ele><time>2026-03-28T11:40:11.001Z</time></trkpt><trkpt lat="39.25261500859329" lon="16.75729206282291"><ele>893.9999999999999</ele><time>2026-03-28T11:40:13.001Z</time></trkpt><trkpt lat="39.25253074021698" lon="16.757400021090547"><ele>892.9999999999999</ele><time>2026-03-28T11:40:15.001Z</time></trkpt><trkpt lat="39.25245199779111" lon="16.757469607537047"><ele>892.0</ele><time>2026-03-28T11:40:17.001Z</time></trkpt><trkpt lat="39.25239233897525" lon="16.757516487494435"><ele>891.0</ele><time>2026-03-28T11:40:19.001Z</time></trkpt><trkpt lat="39.25232504462115" lon="16.75755034561981"><ele>890.2857142857143</ele><time>2026-03-28T11:40:21.001Z</time></trkpt><trkpt lat="39.25225594121826" lon="16.757600501254064"><ele>889.5714285714286</ele><time>2026-03-28T11:40:23.001Z</time></trkpt><trkpt lat="39.252205968926155" lon="16.75765197250884"><ele>888.8571428571429</ele><time>2026-03-28T11:40:25.001Z</time></trkpt><trkpt lat="39.25215445096015" lon="16.75769948866893"><ele>888.1428571428571</ele><time>2026-03-28T11:40:27.001Z</time></trkpt><trkpt lat="39.25210074723907" lon="16.757764728485363"><ele>887.4285714285714</ele><time>2026-03-28T11:40:29.001Z</time></trkpt><trkpt lat="39.25206536517908" lon="16.757848539707865"><ele>886.7142857142858</ele><time>2026-03-28T11:40:31.001Z</time></trkpt><trkpt lat="39.25202821309858" lon="16.757919300016376"><ele>886.0</ele><time>2026-03-28T11:40:33.001Z</time></trkpt><trkpt lat="39.251975032494904" lon="16.757987526020166"><ele>885.6666666666666</ele><time>2026-03-28T11:40:35.001Z</time></trkpt><trkpt lat="39.251910486055884" lon="16.758054331538492"><ele>885.3333333333333</ele><time>2026-03-28T11:40:37.001Z</time></trkpt><trkpt lat="39.251858706037666" lon="16.75812398459056"><ele>885.0</ele><time>2026-03-28T11:40:39.001Z</time></trkpt><trkpt lat="39.251821786610385" lon="16.75820665922545"><ele>884.6666666666667</ele><time>2026-03-28T11:40:41.001Z</time></trkpt><trkpt lat="39.25177703641591" lon="16.75829658130164"><ele>884.3333333333334</ele><time>2026-03-28T11:40:43.001Z</time></trkpt><trkpt lat="39.25173914549145" lon="16.75839196239202"><ele>884.0</ele><time>2026-03-28T11:40:45.001Z</time></trkpt><trkpt lat="39.25169752648835" lon="16.758465024758163"><ele>882.8571428571429</ele><time>2026-03-28T11:40:47.001Z</time></trkpt><trkpt lat="39.251675898905795" lon="16.75855015276274"><ele>881.7142857142858</ele><time>2026-03-28T11:40:49.001Z</time></trkpt><trkpt lat="39.2516506122496" lon="16.758628231025476"><ele>880.5714285714287</ele><time>2026-03-28T11:40:51.001Z</time></trkpt><trkpt lat="39.25163928428022" lon="16.758717677088793"><ele>879.4285714285714</ele><time>2026-03-28T11:40:53.001Z</time></trkpt><trkpt lat="39.25163498394465" lon="16.75882822709475"><ele>878.2857142857142</ele><time>2026-03-28T11:40:56.001Z</time></trkpt><trkpt lat="39.25161639117615" lon="16.75891676027411"><ele>877.1428571428572</ele><time>2026-03-28T11:40:59.001Z</time></trkpt><trkpt lat="39.2515685077989" lon="16.759000138636456"><ele>876.0</ele><time>2026-03-28T11:41:02.001Z</time></trkpt><trkpt lat="39.251527086139234" lon="16.759091974391097"><ele>876.0</ele><time>2026-03-28T11:41:05.001Z</time></trkpt><trkpt lat="39.25149166114197" lon="16.759161752228305"><ele>876.0</ele><time>2026-03-28T11:41:07.001Z</time></trkpt><trkpt lat="39.251444848411055" lon="16.759253823186974"><ele>876.0</ele><time>2026-03-28T11:41:09.001Z</time></trkpt><trkpt lat="39.25139145054437" lon="16.75933622686039"><ele>876.0</ele><time>2026-03-28T11:41:11.001Z</time></trkpt><trkpt lat="39.251338182035354" lon="16.759392377425275"><ele>876.0</ele><time>2026-03-28T11:41:13.001Z</time></trkpt><trkpt lat="39.251274509480076" lon="16.759465330942735"><ele>876.0</ele><time>2026-03-28T11:41:16Z</time></trkpt><trkpt lat="39.25124811269685" lon="16.75956969989992"><ele>874.5714285714286</ele><time>2026-03-28T11:41:19Z</time></trkpt><trkpt lat="39.25120403932593" lon="16.759630276953732"><ele>873.1428571428571</ele><time>2026-03-28T11:41:22Z</time></trkpt><trkpt lat="39.25114829947684" lon="16.759683674014425"><ele>871.7142857142857</ele><time>2026-03-28T11:41:25Z</time></trkpt><trkpt lat="39.25110393353034" lon="16.75974827537332"><ele>870.2857142857142</ele><time>2026-03-28T11:41:28Z</time></trkpt><trkpt lat="39.251068390444004" lon="16.759837563242023"><ele>868.8571428571429</ele><time>2026-03-28T11:41:32Z</time></trkpt><trkpt lat="39.25103367845595" lon="16.759921248809228"><ele>867.4285714285713</ele><time>2026-03-28T11:41:36Z</time></trkpt><trkpt lat="39.25099268436713" lon="16.760001930325153"><ele>866.0</ele><time>2026-03-28T11:41:39Z</time></trkpt><trkpt lat="39.25095436864622" lon="16.76009180051852"><ele>865.9999999999999</ele><time>2026-03-28T11:41:43Z</time></trkpt><trkpt lat="39.25093646541756" lon="16.760172082928396"><ele>866.0</ele><time>2026-03-28T11:41:49Z</time></trkpt><trkpt lat="39.25092589327388" lon="16.760258116525957"><ele>866.0</ele><time>2026-03-28T11:41:54Z</time></trkpt><trkpt lat="39.25089581802534" lon="16.760334097179555"><ele>866.0</ele><time>2026-03-28T11:41:57Z</time></trkpt><trkpt lat="39.25086026776586" lon="16.760402603846536"><ele>866.0</ele><time>2026-03-28T11:42:00Z</time></trkpt><trkpt lat="39.25080484830397" lon="16.760442509124033"><ele>865.9999999999999</ele><time>2026-03-28T11:42:02Z</time></trkpt><trkpt lat="39.25073961189783" lon="16.76045979667898"><ele>866.0</ele><time>2026-03-28T11:42:04Z</time></trkpt><trkpt lat="39.25064613574088" lon="16.76045405909316"><ele>862.6666666666667</ele><time>2026-03-28T11:42:07Z</time></trkpt><trkpt lat="39.25056346803294" lon="16.760442656645594"><ele>859.3333333333334</ele><time>2026-03-28T11:42:10Z</time></trkpt><trkpt lat="39.250492188855965" lon="16.760476308567974"><ele>856.0</ele><time>2026-03-28T11:42:13Z</time></trkpt><trkpt lat="39.25045464540472" lon="16.76055770520028"><ele>852.6666666666667</ele><time>2026-03-28T11:42:31Z</time></trkpt><trkpt lat="39.250397293396155" lon="16.76063550109912"><ele>849.3333333333334</ele><time>2026-03-28T11:42:35Z</time></trkpt><trkpt lat="39.250378416077425" lon="16.760719820113778"><ele>846.0</ele><time>2026-03-28T11:42:39Z</time></trkpt><trkpt lat="39.25038055303871" lon="16.760817117942125"><ele>846.0</ele><time>2026-03-28T11:42:44Z</time></trkpt><trkpt lat="39.250410210128116" lon="16.76090847696939"><ele>846.0</ele><time>2026-03-28T11:42:46Z</time></trkpt><trkpt lat="39.25043194083351" lon="16.761009195112035"><ele>846.0</ele><time>2026-03-28T11:42:48Z</time></trkpt><trkpt lat="39.250438751569305" lon="16.761102652454866"><ele>846.0</ele><time>2026-03-28T11:42:50Z</time></trkpt><trkpt lat="39.25044813358647" lon="16.761184360549773"><ele>846.0</ele><time>2026-03-28T11:42:52Z</time></trkpt><trkpt lat="39.250445481055046" lon="16.761286781312062"><ele>846.0</ele><time>2026-03-28T11:42:54Z</time></trkpt><trkpt lat="39.25042202033235" lon="16.761400002302704"><ele>844.3333333333334</ele><time>2026-03-28T11:42:56Z</time></trkpt><trkpt lat="39.25039220035161" lon="16.761492210647177"><ele>842.6666666666667</ele><time>2026-03-28T11:42:58Z</time></trkpt><trkpt lat="39.250398417796426" lon="16.761597579629427"><ele>841.0</ele><time>2026-03-28T11:43:01Z</time></trkpt><trkpt lat="39.250419942379715" lon="16.76169204135815"><ele>839.3333333333334</ele><time>2026-03-28T11:43:04Z</time></trkpt><trkpt lat="39.25040969283237" lon="16.76181315087417"><ele>837.6666666666667</ele><time>2026-03-28T11:43:07Z</time></trkpt><trkpt lat="39.250406861536774" lon="16.76190299743373"><ele>836.0</ele><time>2026-03-28T11:43:09Z</time></trkpt><trkpt lat="39.25038034741011" lon="16.761993669557587"><ele>834.3333333333334</ele><time>2026-03-28T11:43:12Z</time></trkpt><trkpt lat="39.25045812390027" lon="16.762089320270775"><ele>832.6666666666667</ele><time>2026-03-28T11:43:13Z</time></trkpt><trkpt lat="39.250428067315326" lon="16.762164666471747"><ele>831.0</ele><time>2026-03-28T11:43:15Z</time></trkpt><trkpt lat="39.25039899954983" lon="16.762244343241733"><ele>829.3333333333333</ele><time>2026-03-28T11:43:17Z</time></trkpt><trkpt lat="39.25037244614455" lon="16.762337966402256"><ele>827.6666666666666</ele><time>2026-03-28T11:43:21Z</time></trkpt><trkpt lat="39.25034771748795" lon="16.762427624850645"><ele>826.0</ele><time>2026-03-28T11:43:25Z</time></trkpt><trkpt lat="39.250316507426916" lon="16.76253484386299"><ele>826.0</ele><time>2026-03-28T11:43:28Z</time></trkpt><trkpt lat="39.25028741898513" lon="16.76263206129972"><ele>826.0</ele><time>2026-03-28T11:43:30Z</time></trkpt><trkpt lat="39.25026057386499" lon="16.76272158993655"><ele>826.0</ele><time>2026-03-28T11:43:32Z</time></trkpt><trkpt lat="39.250195541918465" lon="16.762786057990024"><ele>826.0</ele><time>2026-03-28T11:43:37Z</time></trkpt><trkpt lat="39.250144368594455" lon="16.762834300791965"><ele>826.0</ele><time>2026-03-28T11:43:41Z</time></trkpt><trkpt lat="39.25008899528008" lon="16.762893446310404"><ele>826.0</ele><time>2026-03-28T11:43:45Z</time></trkpt><trkpt lat="39.250037187449166" lon="16.76294529474361"><ele>826.0</ele><time>2026-03-28T11:43:49Z</time></trkpt><trkpt lat="39.24998167765977" lon="16.7630008480737"><ele>824.7142857142857</ele><time>2026-03-28T11:43:51Z</time></trkpt><trkpt lat="39.24992555659954" lon="16.763054624820892"><ele>823.4285714285714</ele><time>2026-03-28T11:43:53Z</time></trkpt><trkpt lat="39.2498574206478" lon="16.7630743243686"><ele>822.1428571428571</ele><time>2026-03-28T11:43:55Z</time></trkpt><trkpt lat="39.24981110649015" lon="16.763139776905955"><ele>820.8571428571429</ele><time>2026-03-28T11:43:57Z</time></trkpt><trkpt lat="39.249748219388785" lon="16.763193266197295"><ele>819.5714285714286</ele><time>2026-03-28T11:43:59Z</time></trkpt><trkpt lat="39.24966657460599" lon="16.763228054717874"><ele>818.2857142857142</ele><time>2026-03-28T11:44:01Z</time></trkpt><trkpt lat="39.249603933755346" lon="16.763282593051446"><ele>817.0</ele><time>2026-03-28T11:44:03Z</time></trkpt><trkpt lat="39.249542475227145" lon="16.763349671376123"><ele>817.0</ele><time>2026-03-28T11:44:06Z</time></trkpt><trkpt lat="39.24946690945394" lon="16.763381964383672"><ele>817.0</ele><time>2026-03-28T11:44:10Z</time></trkpt><trkpt lat="39.24939990192326" lon="16.76340320390204"><ele>817.0</ele><time>2026-03-28T11:44:12Z</time></trkpt><trkpt lat="39.249319813160966" lon="16.76343767709582"><ele>817.0</ele><time>2026-03-28T11:44:14Z</time></trkpt><trkpt lat="39.249228211631724" lon="16.763474657913942"><ele>817.0</ele><time>2026-03-28T11:44:16Z</time></trkpt><trkpt lat="39.249102696718964" lon="16.763497349580323"><ele>816.9999999999999</ele><time>2026-03-28T11:44:18Z</time></trkpt><trkpt lat="39.249038305961676" lon="16.763520111412607"><ele>817.0</ele><time>2026-03-28T11:44:19Z</time></trkpt><trkpt lat="39.24899778321694" lon="16.763662718258637"><ele>817.0</ele><time>2026-03-28T11:44:20Z</time></trkpt><trkpt lat="39.24895470511061" lon="16.763757053871128"><ele>817.0</ele><time>2026-03-28T11:44:21Z</time></trkpt><trkpt lat="39.24891684734653" lon="16.763866083755488"><ele>816.9999999999999</ele><time>2026-03-28T11:44:22Z</time></trkpt><trkpt lat="39.248892626759115" lon="16.763974284897554"><ele>817.0</ele><time>2026-03-28T11:44:23Z</time></trkpt><trkpt lat="39.24888901368178" lon="16.764080240688497"><ele>815.8333333333333</ele><time>2026-03-28T11:44:24Z</time></trkpt><trkpt lat="39.24890916784643" lon="16.764181785877337"><ele>814.6666666666666</ele><time>2026-03-28T11:44:25Z</time></trkpt><trkpt lat="39.248932639882725" lon="16.76428662489829"><ele>813.5</ele><time>2026-03-28T11:44:26Z</time></trkpt><trkpt lat="39.24896254707802" lon="16.76439951118949"><ele>812.3333333333333</ele><time>2026-03-28T11:44:27Z</time></trkpt><trkpt lat="39.24897461530483" lon="16.764518386302452"><ele>811.1666666666666</ele><time>2026-03-28T11:44:28Z</time></trkpt><trkpt lat="39.248953184064376" lon="16.764625492372968"><ele>810.0</ele><time>2026-03-28T11:44:29Z</time></trkpt><trkpt lat="39.24891046492273" lon="16.7647169626799"><ele>808.4285714285713</ele><time>2026-03-28T11:44:30Z</time></trkpt><trkpt lat="39.24885479295883" lon="16.76479013397001"><ele>806.8571428571429</ele><time>2026-03-28T11:44:31Z</time></trkpt><trkpt lat="39.24878501303258" lon="16.76483054478843"><ele>805.2857142857142</ele><time>2026-03-28T11:44:32Z</time></trkpt><trkpt lat="39.24870912169484" lon="16.764850181295643"><ele>803.7142857142857</ele><time>2026-03-28T11:44:33Z</time></trkpt><trkpt lat="39.24863504471364" lon="16.764838159463526"><ele>802.1428571428571</ele><time>2026-03-28T11:44:34Z</time></trkpt><trkpt lat="39.24857059886693" lon="16.764807837167698"><ele>800.5714285714286</ele><time>2026-03-28T11:44:35Z</time></trkpt><trkpt lat="39.24851221611536" lon="16.764770397580858"><ele>799.0</ele><time>2026-03-28T11:44:36Z</time></trkpt><trkpt lat="39.248453109134054" lon="16.7647334987082"><ele>799.0</ele><time>2026-03-28T11:44:37Z</time></trkpt><trkpt lat="39.248391899764215" lon="16.764690177459737"><ele>799.0</ele><time>2026-03-28T11:44:38Z</time></trkpt><trkpt lat="39.24832890849266" lon="16.76465675980785"><ele>799.0</ele><time>2026-03-28T11:44:39Z</time></trkpt><trkpt lat="39.24826467867094" lon="16.764634177912498"><ele>799.0</ele><time>2026-03-28T11:44:40Z</time></trkpt><trkpt lat="39.24819866194566" lon="16.76462267723157"><ele>799.0</ele><time>2026-03-28T11:44:41Z</time></trkpt><trkpt lat="39.24812442793218" lon="16.764618772626132"><ele>799.0</ele><time>2026-03-28T11:44:42Z</time></trkpt><trkpt lat="39.24804427888343" lon="16.764640396897192"><ele>799.0</ele><time>2026-03-28T11:44:43Z</time></trkpt><trkpt lat="39.24796305418267" lon="16.76466905150619"><ele>798.6666666666666</ele><time>2026-03-28T11:44:44Z</time></trkpt><trkpt lat="39.24787658489078" lon="16.764682919175492"><ele>798.3333333333333</ele><time>2026-03-28T11:44:45Z</time></trkpt><trkpt lat="39.247789114456" lon="16.764708470627113"><ele>798.0</ele><time>2026-03-28T11:44:46Z</time></trkpt><trkpt lat="39.24770239816929" lon="16.764734907100728"><ele>797.6666666666667</ele><time>2026-03-28T11:44:47Z</time></trkpt><trkpt lat="39.247625623395905" lon="16.76477729978759"><ele>797.3333333333334</ele><time>2026-03-28T11:44:48Z</time></trkpt><trkpt lat="39.24754465864271" lon="16.764797364578133"><ele>797.0</ele><time>2026-03-28T11:44:49Z</time></trkpt><trkpt lat="39.24746224641158" lon="16.764823832333278"><ele>797.0</ele><time>2026-03-28T11:44:50Z</time></trkpt><trkpt lat="39.24737905641368" lon="16.764864768050092"><ele>797.0</ele><time>2026-03-28T11:44:51Z</time></trkpt><trkpt lat="39.24729474331887" lon="16.76491979187948"><ele>797.0</ele><time>2026-03-28T11:44:52Z</time></trkpt><trkpt lat="39.24721972709715" lon="16.765000303477887"><ele>797.0</ele><time>2026-03-28T11:44:53Z</time></trkpt><trkpt lat="39.24715043618001" lon="16.765087610912083"><ele>797.0</ele><time>2026-03-28T11:44:54Z</time></trkpt><trkpt lat="39.24709010469494" lon="16.765185440788088"><ele>796.0</ele><time>2026-03-28T11:44:55Z</time></trkpt><trkpt lat="39.24701596762437" lon="16.765267684720822"><ele>795.0</ele><time>2026-03-28T11:44:56Z</time></trkpt><trkpt lat="39.24695644503245" lon="16.765360267948775"><ele>794.0</ele><time>2026-03-28T11:44:57Z</time></trkpt><trkpt lat="39.246971223634176" lon="16.765521468951917"><ele>793.0</ele><time>2026-03-28T11:44:58Z</time></trkpt><trkpt lat="39.24695503733677" lon="16.765642942644842"><ele>792.0</ele><time>2026-03-28T11:44:59Z</time></trkpt><trkpt lat="39.24694234720031" lon="16.76576668855668"><ele>792.0</ele><time>2026-03-28T11:45:00Z</time></trkpt><trkpt lat="39.24693204267653" lon="16.765891685487095"><ele>792.0</ele><time>2026-03-28T11:45:01Z</time></trkpt><trkpt lat="39.24690496875787" lon="16.766012710814927"><ele>792.0</ele><time>2026-03-28T11:45:02Z</time></trkpt><trkpt lat="39.24686410316635" lon="16.76613123896085"><ele>792.0</ele><time>2026-03-28T11:45:03Z</time></trkpt><trkpt lat="39.24679696253694" lon="16.766230447871983"><ele>792.0</ele><time>2026-03-28T11:45:04Z</time></trkpt><trkpt lat="39.24671407834957" lon="16.76631415196454"><ele>790.6</ele><time>2026-03-28T11:45:05Z</time></trkpt><trkpt lat="39.246612608751654" lon="16.766359317080497"><ele>789.2</ele><time>2026-03-28T11:45:06Z</time></trkpt><trkpt lat="39.24651638168201" lon="16.766417632139483"><ele>787.8</ele><time>2026-03-28T11:45:07Z</time></trkpt><trkpt lat="39.24643352954856" lon="16.76650598243846"><ele>786.4</ele><time>2026-03-28T11:45:08Z</time></trkpt><trkpt lat="39.24634831889181" lon="16.76658131156455"><ele>785.0</ele><time>2026-03-28T11:45:09Z</time></trkpt><trkpt lat="39.24628107173023" lon="16.766685918131508"><ele>783.5</ele><time>2026-03-28T11:45:10Z</time></trkpt><trkpt lat="39.246218801965796" lon="16.766805130782252"><ele>782.0</ele><time>2026-03-28T11:45:11Z</time></trkpt><trkpt lat="39.246183557390324" lon="16.766949859580023"><ele>780.5</ele><time>2026-03-28T11:45:12Z</time></trkpt><trkpt lat="39.2461624827882" lon="16.76710397271508"><ele>779.0</ele><time>2026-03-28T11:45:13Z</time></trkpt><trkpt lat="39.246141026899714" lon="16.767251082100426"><ele>777.0</ele><time>2026-03-28T11:45:14Z</time></trkpt><trkpt lat="39.24611659798244" lon="16.76738986275777"><ele>775.0</ele><time>2026-03-28T11:45:15Z</time></trkpt><trkpt lat="39.246093303902114" lon="16.767517430138746"><ele>773.0</ele><time>2026-03-28T11:45:16Z</time></trkpt><trkpt lat="39.246079088818796" lon="16.767635522172725"><ele>771.0</ele><time>2026-03-28T11:45:17Z</time></trkpt><trkpt lat="39.24608959437976" lon="16.767740830705876"><ele>769.0</ele><time>2026-03-28T11:45:18Z</time></trkpt><trkpt lat="39.24611060168332" lon="16.767849354130924"><ele>768.8333333333333</ele><time>2026-03-28T11:45:19Z</time></trkpt><trkpt lat="39.24616358370667" lon="16.767922290809775"><ele>768.6666666666666</ele><time>2026-03-28T11:45:20Z</time></trkpt><trkpt lat="39.24623492675768" lon="16.767966794002362"><ele>768.5</ele><time>2026-03-28T11:45:21Z</time></trkpt><trkpt lat="39.24631960972678" lon="16.767990701480315"><ele>768.3333333333333</ele><time>2026-03-28T11:45:22Z</time></trkpt><trkpt lat="39.246410409797356" lon="16.76795995962399"><ele>768.1666666666666</ele><time>2026-03-28T11:45:23Z</time></trkpt><trkpt lat="39.24649667906" lon="16.767877189220446"><ele>768.0</ele><time>2026-03-28T11:45:24Z</time></trkpt><trkpt lat="39.24657795729687" lon="16.76778667478488"><ele>769.8333333333334</ele><time>2026-03-28T11:45:25Z</time></trkpt><trkpt lat="39.24663064824115" lon="16.767683846186888"><ele>771.6666666666667</ele><time>2026-03-28T11:45:26Z</time></trkpt><trkpt lat="39.246683024494615" lon="16.767602246670677"><ele>773.5</ele><time>2026-03-28T11:45:27Z</time></trkpt><trkpt lat="39.246731328925335" lon="16.767530776697427"><ele>775.3333333333334</ele><time>2026-03-28T11:45:28Z</time></trkpt><trkpt lat="39.24677766633164" lon="16.76746746818752"><ele>777.1666666666667</ele><time>2026-03-28T11:45:29Z</time></trkpt><trkpt lat="39.2468385324835" lon="16.767414305694306"><ele>779.0</ele><time>2026-03-28T11:45:30Z</time></trkpt><trkpt lat="39.24690458718076" lon="16.767406691676523"><ele>779.0</ele><time>2026-03-28T11:45:31Z</time></trkpt><trkpt lat="39.24696814023162" lon="16.76741018617349"><ele>779.0</ele><time>2026-03-28T11:45:32Z</time></trkpt><trkpt lat="39.247059015702575" lon="16.767515498134326"><ele>779.0</ele><time>2026-03-28T11:45:34Z</time></trkpt><trkpt lat="39.247052245150066" lon="16.76761136064933"><ele>779.0</ele><time>2026-03-28T11:45:35Z</time></trkpt><trkpt lat="39.24704785034233" lon="16.76772758438529"><ele>779.0</ele><time>2026-03-28T11:45:36Z</time></trkpt><trkpt lat="39.24703852258253" lon="16.767864665914406"><ele>776.25</ele><time>2026-03-28T11:45:37Z</time></trkpt><trkpt lat="39.24702792240614" lon="16.76802044683132"><ele>773.5</ele><time>2026-03-28T11:45:38Z</time></trkpt><trkpt lat="39.24701611013093" lon="16.768194041069368"><ele>770.75</ele><time>2026-03-28T11:45:39Z</time></trkpt><trkpt lat="39.247002585818194" lon="16.768377127905563"><ele>768.0</ele><time>2026-03-28T11:45:40Z</time></trkpt><trkpt lat="39.246983174668756" lon="16.768558701054165"><ele>765.25</ele><time>2026-03-28T11:45:41Z</time></trkpt><trkpt lat="39.24694323508846" lon="16.768730319369315"><ele>762.5</ele><time>2026-03-28T11:45:42Z</time></trkpt><trkpt lat="39.24689212640328" lon="16.76888984971939"><ele>759.75</ele><time>2026-03-28T11:45:43Z</time></trkpt><trkpt lat="39.24683621796991" lon="16.769038339454568"><ele>757.0</ele><time>2026-03-28T11:45:44Z</time></trkpt><trkpt lat="39.24678469005241" lon="16.76917326085727"><ele>757.0</ele><time>2026-03-28T11:45:45Z</time></trkpt><trkpt lat="39.246741844556425" lon="16.769300562744757"><ele>757.0</ele><time>2026-03-28T11:45:46Z</time></trkpt><trkpt lat="39.246741136181214" lon="16.769421536806764"><ele>757.0</ele><time>2026-03-28T11:45:47Z</time></trkpt><trkpt lat="39.24674271598848" lon="16.76952490071671"><ele>757.0</ele><time>2026-03-28T11:45:48Z</time></trkpt><trkpt lat="39.24677640120192" lon="16.76959511617141"><ele>757.0</ele><time>2026-03-28T11:45:49Z</time></trkpt><trkpt lat="39.24687913094169" lon="16.769628327344805"><ele>757.2</ele><time>2026-03-28T11:45:51Z</time></trkpt><trkpt lat="39.24696287795889" lon="16.769623902940218"><ele>757.4000000000001</ele><time>2026-03-28T11:45:52Z</time></trkpt><trkpt lat="39.24708154131904" lon="16.76962896316639"><ele>757.5999999999999</ele><time>2026-03-28T11:45:53Z</time></trkpt><trkpt lat="39.24717227648671" lon="16.76969719578998"><ele>757.8</ele><time>2026-03-28T11:45:54Z</time></trkpt><trkpt lat="39.24722787245108" lon="16.769793621815452"><ele>758.0</ele><time>2026-03-28T11:45:55Z</time></trkpt><trkpt lat="39.24730265541745" lon="16.76986441292702"><ele>758.0</ele><time>2026-03-28T11:45:56Z</time></trkpt><trkpt lat="39.24736983753777" lon="16.76992237136187"><ele>758.0</ele><time>2026-03-28T11:45:57Z</time></trkpt><trkpt lat="39.24744549519667" lon="16.769952141939203"><ele>758.0</ele><time>2026-03-28T11:45:58Z</time></trkpt><trkpt lat="39.247530502442316" lon="16.769954746063178"><ele>758.0</ele><time>2026-03-28T11:45:59Z</time></trkpt><trkpt lat="39.247611212427934" lon="16.76993871330221"><ele>758.0</ele><time>2026-03-28T11:46:00Z</time></trkpt><trkpt lat="39.247692159797374" lon="16.769906488297604"><ele>758.0</ele><time>2026-03-28T11:46:01Z</time></trkpt><trkpt lat="39.247770286377715" lon="16.769864010118265"><ele>758.0</ele><time>2026-03-28T11:46:02Z</time></trkpt><trkpt lat="39.247859509424934" lon="16.76981979033907"><ele>758.0</ele><time>2026-03-28T11:46:03Z</time></trkpt><trkpt lat="39.24794643375985" lon="16.769733053149764"><ele>758.0</ele><time>2026-03-28T11:46:04Z</time></trkpt><trkpt lat="39.248035393629046" lon="16.769634172347615"><ele>758.0</ele><time>2026-03-28T11:46:05Z</time></trkpt><trkpt lat="39.24811821651531" lon="16.76953235803818"><ele>758.0</ele><time>2026-03-28T11:46:06Z</time></trkpt><trkpt lat="39.24818995503918" lon="16.769430135153932"><ele>757.6666666666666</ele><time>2026-03-28T11:46:07Z</time></trkpt><trkpt lat="39.24824525353901" lon="16.769328556851"><ele>757.3333333333333</ele><time>2026-03-28T11:46:08Z</time></trkpt><trkpt lat="39.24829269787959" lon="16.769237824900568"><ele>757.0</ele><time>2026-03-28T11:46:09Z</time></trkpt><trkpt lat="39.24834697287107" lon="16.769166883655394"><ele>756.6666666666666</ele><time>2026-03-28T11:46:10Z</time></trkpt><trkpt lat="39.24842030090524" lon="16.769151460455063"><ele>756.3333333333334</ele><time>2026-03-28T11:46:11Z</time></trkpt><trkpt lat="39.248490528600584" lon="16.76919140600901"><ele>756.0</ele><time>2026-03-28T11:46:12Z</time></trkpt><trkpt lat="39.248524099205476" lon="16.769277119447825"><ele>754.5999999999999</ele><time>2026-03-28T11:46:13Z</time></trkpt><trkpt lat="39.24854768064816" lon="16.769380299328155"><ele>753.2</ele><time>2026-03-28T11:46:14Z</time></trkpt><trkpt lat="39.2485658359422" lon="16.76950219652124"><ele>751.8</ele><time>2026-03-28T11:46:15Z</time></trkpt><trkpt lat="39.24858449978657" lon="16.769622574084263"><ele>750.4000000000001</ele><time>2026-03-28T11:46:16Z</time></trkpt><trkpt lat="39.248601165237744" lon="16.769741838172006"><ele>749.0</ele><time>2026-03-28T11:46:17Z</time></trkpt><trkpt lat="39.24865237162206" lon="16.76983075451518"><ele>749.0</ele><time>2026-03-28T11:46:18Z</time></trkpt><trkpt lat="39.24870787778295" lon="16.769908415067874"><ele>749.0</ele><time>2026-03-28T11:46:19Z</time></trkpt><trkpt lat="39.24879244347942" lon="16.76995895620179"><ele>749.0</ele><time>2026-03-28T11:46:20Z</time></trkpt><trkpt lat="39.24889647446904" lon="16.76999133505304"><ele>749.0</ele><time>2026-03-28T11:46:21Z</time></trkpt><trkpt lat="39.24900700825001" lon="16.770024155125093"><ele>749.0</ele><time>2026-03-28T11:46:22Z</time></trkpt><trkpt lat="39.24911337056546" lon="16.77008466994272"><ele>748.6666666666666</ele><time>2026-03-28T11:46:23Z</time></trkpt><trkpt lat="39.24919887428805" lon="16.77016377842234"><ele>748.3333333333333</ele><time>2026-03-28T11:46:24Z</time></trkpt><trkpt lat="39.249266011310254" lon="16.770249128558685"><ele>748.0</ele><time>2026-03-28T11:46:25Z</time></trkpt><trkpt lat="39.24931779759527" lon="16.770315994229254"><ele>747.6666666666666</ele><time>2026-03-28T11:46:26Z</time></trkpt><trkpt lat="39.24937360478253" lon="16.770388051632537"><ele>747.3333333333334</ele><time>2026-03-28T11:46:28Z</time></trkpt><trkpt lat="39.24941672767563" lon="16.77046266750109"><ele>747.0</ele><time>2026-03-28T11:46:32Z</time></trkpt><trkpt lat="39.24947278500127" lon="16.770516111649105"><ele>744.6</ele><time>2026-03-28T11:46:37Z</time></trkpt><trkpt lat="39.2494446753031" lon="16.77065843723701"><ele>742.2</ele><time>2026-03-28T11:46:39Z</time></trkpt><trkpt lat="39.24945012820576" lon="16.770765168050705"><ele>739.8</ele><time>2026-03-28T11:46:41Z</time></trkpt><trkpt lat="39.24945011521574" lon="16.770878153216312"><ele>737.4</ele><time>2026-03-28T11:46:43Z</time></trkpt><trkpt lat="39.249456993422335" lon="16.770998838855338"><ele>735.0</ele><time>2026-03-28T11:46:45Z</time></trkpt><trkpt lat="39.249467320019626" lon="16.771131687701974"><ele>733.8333333333334</ele><time>2026-03-28T11:46:47Z</time></trkpt><trkpt lat="39.24946898361922" lon="16.771272894625078"><ele>732.6666666666666</ele><time>2026-03-28T11:46:49Z</time></trkpt><trkpt lat="39.249463769137364" lon="16.771427104926058"><ele>731.5</ele><time>2026-03-28T11:46:51Z</time></trkpt><trkpt lat="39.249457544653225" lon="16.77151147764888"><ele>730.3333333333333</ele><time>2026-03-28T11:46:52Z</time></trkpt><trkpt lat="39.2494500042809" lon="16.771601040525915"><ele>729.1666666666666</ele><time>2026-03-28T11:46:53Z</time></trkpt><trkpt lat="39.24945025583183" lon="16.771692835724018"><ele>728.0</ele><time>2026-03-28T11:46:54Z</time></trkpt><trkpt lat="39.24942855110773" lon="16.77178495345542"><ele>727.5714285714286</ele><time>2026-03-28T11:46:55Z</time></trkpt><trkpt lat="39.24941769175535" lon="16.771879363891188"><ele>727.1428571428571</ele><time>2026-03-28T11:46:56Z</time></trkpt><trkpt lat="39.24940823504645" lon="16.771979689813996"><ele>726.7142857142858</ele><time>2026-03-28T11:46:57Z</time></trkpt><trkpt lat="39.2493982487932" lon="16.772078913921792"><ele>726.2857142857142</ele><time>2026-03-28T11:46:58Z</time></trkpt><trkpt lat="39.249388079549334" lon="16.772174292483367"><ele>725.8571428571429</ele><time>2026-03-28T11:46:59Z</time></trkpt><trkpt lat="39.24938332553448" lon="16.772265420231665"><ele>725.4285714285714</ele><time>2026-03-28T11:47:00Z</time></trkpt><trkpt lat="39.24938366536727" lon="16.772349976571704"><ele>725.0</ele><time>2026-03-28T11:47:01Z</time></trkpt><trkpt lat="39.249386943794526" lon="16.77243228274544"><ele>725.0</ele><time>2026-03-28T11:47:02Z</time></trkpt><trkpt lat="39.24928772466774" lon="16.772541941854975"><ele>725.0</ele><time>2026-03-28T11:47:04Z</time></trkpt><trkpt lat="39.249255233835996" lon="16.77265876384444"><ele>725.0</ele><time>2026-03-28T11:47:06Z</time></trkpt><trkpt lat="39.24922730760447" lon="16.77275917287664"><ele>725.0</ele><time>2026-03-28T11:47:08Z</time></trkpt><trkpt lat="39.24920232134633" lon="16.772849009962908"><ele>725.0</ele><time>2026-03-28T11:47:10Z</time></trkpt><trkpt lat="39.249178174668174" lon="16.772936557926467"><ele>725.0</ele><time>2026-03-28T11:47:12Z</time></trkpt><trkpt lat="39.24915623181619" lon="16.77303133356496"><ele>725.0</ele><time>2026-03-28T11:47:16Z</time></trkpt><trkpt lat="39.24913487206633" lon="16.773112022675832"><ele>725.0</ele><time>2026-03-28T11:47:18Z</time></trkpt><trkpt lat="39.24909100667809" lon="16.773255617531447"><ele>725.0</ele><time>2026-03-28T11:47:20Z</time></trkpt><trkpt lat="39.24906121601455" lon="16.773348303146673"><ele>725.0</ele><time>2026-03-28T11:47:21Z</time></trkpt><trkpt lat="39.24903123603431" lon="16.77345827942631"><ele>725.0</ele><time>2026-03-28T11:47:22Z</time></trkpt><trkpt lat="39.24896208700481" lon="16.773550617389347"><ele>724.75</ele><time>2026-03-28T11:47:23Z</time></trkpt><trkpt lat="39.248893707159446" lon="16.773668707830893"><ele>724.5</ele><time>2026-03-28T11:47:24Z</time></trkpt><trkpt lat="39.24882183946632" lon="16.77379675140095"><ele>724.25</ele><time>2026-03-28T11:47:25Z</time></trkpt><trkpt lat="39.24874654787873" lon="16.773922005660847"><ele>724.0</ele><time>2026-03-28T11:47:26Z</time></trkpt><trkpt lat="39.248669024850166" lon="16.774047553465945"><ele>724.0</ele><time>2026-03-28T11:47:27Z</time></trkpt><trkpt lat="39.24858694438471" lon="16.774179140280456"><ele>724.0</ele><time>2026-03-28T11:47:28Z</time></trkpt><trkpt lat="39.248497455130554" lon="16.774308558197898"><ele>724.0</ele><time>2026-03-28T11:47:29Z</time></trkpt><trkpt lat="39.24840521913265" lon="16.774439910219215"><ele>724.0</ele><time>2026-03-28T11:47:30Z</time></trkpt><trkpt lat="39.24834135676427" lon="16.77460649010205"><ele>721.75</ele><time>2026-03-28T11:47:31Z</time></trkpt><trkpt lat="39.24825016387485" lon="16.774737677353592"><ele>719.5</ele><time>2026-03-28T11:47:32Z</time></trkpt><trkpt lat="39.24816356693404" lon="16.77486530783866"><ele>717.25</ele><time>2026-03-28T11:47:33Z</time></trkpt><trkpt lat="39.24807866116302" lon="16.774986428618618"><ele>715.0</ele><time>2026-03-28T11:47:34Z</time></trkpt><trkpt lat="39.2479746097779" lon="16.77508134659981"><ele>712.25</ele><time>2026-03-28T11:47:35Z</time></trkpt><trkpt lat="39.24789096244007" lon="16.77519602355032"><ele>709.5</ele><time>2026-03-28T11:47:36Z</time></trkpt><trkpt lat="39.24779988007968" lon="16.775315367803387"><ele>706.75</ele><time>2026-03-28T11:47:37Z</time></trkpt><trkpt lat="39.24770586026788" lon="16.775445748002166"><ele>704.0</ele><time>2026-03-28T11:47:38Z</time></trkpt><trkpt lat="39.2476143946277" lon="16.775586945620756"><ele>704.0</ele><time>2026-03-28T11:47:39Z</time></trkpt><trkpt lat="39.24753522128938" lon="16.775736385678368"><ele>704.0</ele><time>2026-03-28T11:47:40Z</time></trkpt><trkpt lat="39.24745938445167" lon="16.775874565276713"><ele>704.0</ele><time>2026-03-28T11:47:41Z</time></trkpt><trkpt lat="39.247386753904415" lon="16.776003522191584"><ele>704.0</ele><time>2026-03-28T11:47:42Z</time></trkpt><trkpt lat="39.24732115615688" lon="16.776126245270262"><ele>699.8000000000001</ele><time>2026-03-28T11:47:43Z</time></trkpt><trkpt lat="39.24726434283909" lon="16.776233234001108"><ele>695.6</ele><time>2026-03-28T11:47:44Z</time></trkpt><trkpt lat="39.247212766004516" lon="16.776330361571656"><ele>691.4</ele><time>2026-03-28T11:47:45Z</time></trkpt><trkpt lat="39.247289335816205" lon="16.776521280468284"><ele>687.2</ele><time>2026-03-28T11:47:46Z</time></trkpt><trkpt lat="39.24726689229227" lon="16.776601380035263"><ele>683.0</ele><time>2026-03-28T11:47:47Z</time></trkpt><trkpt lat="39.247120734697454" lon="16.776655581887695"><ele>683.0</ele><time>2026-03-28T11:47:49Z</time></trkpt><trkpt lat="39.24719552955393" lon="16.77673940278515"><ele>683.0</ele><time>2026-03-28T11:47:50Z</time></trkpt><trkpt lat="39.24707818720678" lon="16.776779111102815"><ele>683.0</ele><time>2026-03-28T11:47:52Z</time></trkpt><trkpt lat="39.24698514235713" lon="16.776812564723773"><ele>683.0</ele><time>2026-03-28T11:47:53Z</time></trkpt><trkpt lat="39.24688151974462" lon="16.776856414661623"><ele>683.0</ele><time>2026-03-28T11:47:54Z</time></trkpt><trkpt lat="39.24678138032768" lon="16.77690483135928"><ele>683.4</ele><time>2026-03-28T11:47:55Z</time></trkpt><trkpt lat="39.24668580976733" lon="16.776958009577182"><ele>683.8</ele><time>2026-03-28T11:47:56Z</time></trkpt><trkpt lat="39.24658700818605" lon="16.77699676745398"><ele>684.2</ele><time>2026-03-28T11:47:57Z</time></trkpt><trkpt lat="39.24648966008033" lon="16.777041395378625"><ele>684.6</ele><time>2026-03-28T11:47:58Z</time></trkpt><trkpt lat="39.24640877800302" lon="16.777134663181744"><ele>685.0</ele><time>2026-03-28T11:47:59Z</time></trkpt><trkpt lat="39.246306728902596" lon="16.77722303493281"><ele>683.0</ele><time>2026-03-28T11:48:00Z</time></trkpt><trkpt lat="39.2462175180435" lon="16.777359556972044"><ele>681.0</ele><time>2026-03-28T11:48:01Z</time></trkpt><trkpt lat="39.24615728078046" lon="16.777530187206658"><ele>679.0</ele><time>2026-03-28T11:48:02Z</time></trkpt><trkpt lat="39.246109433868064" lon="16.777701356827254"><ele>677.0</ele><time>2026-03-28T11:48:03Z</time></trkpt><trkpt lat="39.246061587358156" lon="16.777872524746215"><ele>676.0</ele><time>2026-03-28T11:48:04Z</time></trkpt><trkpt lat="39.246014176066794" lon="16.778039484675322"><ele>675.0</ele><time>2026-03-28T11:48:05Z</time></trkpt><trkpt lat="39.24607343455511" lon="16.778257363339755"><ele>674.0</ele><time>2026-03-28T11:48:06Z</time></trkpt><trkpt lat="39.24603415044252" lon="16.77843547218685"><ele>673.3333333333333</ele><time>2026-03-28T11:48:07Z</time></trkpt><trkpt lat="39.245996930226745" lon="16.77861924338172"><ele>672.6666666666666</ele><time>2026-03-28T11:48:08Z</time></trkpt><trkpt lat="39.24595559238749" lon="16.778792131111217"><ele>672.0</ele><time>2026-03-28T11:48:09Z</time></trkpt><trkpt lat="39.24576747693953" lon="16.778899751724374"><ele>672.0</ele><time>2026-03-28T11:48:10Z</time></trkpt><trkpt lat="39.24586460452953" lon="16.779126282436945"><ele>672.0</ele><time>2026-03-28T11:48:11Z</time></trkpt><trkpt lat="39.24581672786889" lon="16.779285617154"><ele>672.0</ele><time>2026-03-28T11:48:12Z</time></trkpt><trkpt lat="39.245768545862646" lon="16.779457877299148"><ele>670.25</ele><time>2026-03-28T11:48:13Z</time></trkpt><trkpt lat="39.24571616096939" lon="16.77964223499623"><ele>668.5</ele><time>2026-03-28T11:48:14Z</time></trkpt><trkpt lat="39.24566455519142" lon="16.77981006103509"><ele>666.75</ele><time>2026-03-28T11:48:15Z</time></trkpt><trkpt lat="39.245621029414586" lon="16.77995924603599"><ele>665.0</ele><time>2026-03-28T11:48:16Z</time></trkpt><trkpt lat="39.24557713309361" lon="16.78010794299655"><ele>665.0</ele><time>2026-03-28T11:48:17Z</time></trkpt><trkpt lat="39.24553658460883" lon="16.780252710843175"><ele>665.0</ele><time>2026-03-28T11:48:18Z</time></trkpt><trkpt lat="39.245486258775564" lon="16.78039597651603"><ele>665.0</ele><time>2026-03-28T11:48:19Z</time></trkpt><trkpt lat="39.24543615674125" lon="16.780538970692533"><ele>665.0</ele><time>2026-03-28T11:48:20Z</time></trkpt><trkpt lat="39.245275326518005" lon="16.780796070943495"><ele>665.0</ele><time>2026-03-28T11:48:22Z</time></trkpt><trkpt lat="39.24525757074856" lon="16.780929805869143"><ele>665.0</ele><time>2026-03-28T11:48:23Z</time></trkpt><trkpt lat="39.2452541155459" lon="16.781056442973412"><ele>665.0</ele><time>2026-03-28T11:48:24Z</time></trkpt><trkpt lat="39.24522398671795" lon="16.78117377524807"><ele>665.0</ele><time>2026-03-28T11:48:25Z</time></trkpt><trkpt lat="39.245197593365596" lon="16.78128990015672"><ele>665.0</ele><time>2026-03-28T11:48:26Z</time></trkpt><trkpt lat="39.24517228936903" lon="16.78140350167631"><ele>664.0</ele><time>2026-03-28T11:48:27Z</time></trkpt><trkpt lat="39.244997881862176" lon="16.781471795530038"><ele>663.0</ele><time>2026-03-28T11:48:28Z</time></trkpt><trkpt lat="39.24495523768037" lon="16.781540429033257"><ele>662.0</ele><time>2026-03-28T11:48:29Z</time></trkpt><trkpt lat="39.244890597301925" lon="16.78164105511664"><ele>661.0</ele><time>2026-03-28T11:48:30Z</time></trkpt><trkpt lat="39.24495485229538" lon="16.781883673717324"><ele>660.25</ele><time>2026-03-28T11:48:31Z</time></trkpt><trkpt lat="39.24489549683928" lon="16.78198636024556"><ele>659.5</ele><time>2026-03-28T11:48:32Z</time></trkpt><trkpt lat="39.24482141462889" lon="16.78207406678663"><ele>658.75</ele><time>2026-03-28T11:48:33Z</time></trkpt><trkpt lat="39.2447628656899" lon="16.78216299632694"><ele>658.0</ele><time>2026-03-28T11:48:34Z</time></trkpt><trkpt lat="39.24456413065569" lon="16.782121627317437"><ele>656.5999999999999</ele><time>2026-03-28T11:48:35Z</time></trkpt><trkpt lat="39.24447939555501" lon="16.782261642463183"><ele>655.1999999999999</ele><time>2026-03-28T11:48:36Z</time></trkpt><trkpt lat="39.244417734920624" lon="16.782371146324902"><ele>653.8</ele><time>2026-03-28T11:48:37Z</time></trkpt><trkpt lat="39.24435137683782" lon="16.782492277861174"><ele>652.4</ele><time>2026-03-28T11:48:38Z</time></trkpt><trkpt lat="39.24429855559261" lon="16.782589532057965"><ele>651.0</ele><time>2026-03-28T11:48:39Z</time></trkpt><trkpt lat="39.244246346130716" lon="16.782685661321874"><ele>650.4</ele><time>2026-03-28T11:48:40Z</time></trkpt><trkpt lat="39.244191838789696" lon="16.7827897744991"><ele>649.8</ele><time>2026-03-28T11:48:41Z</time></trkpt><trkpt lat="39.2441382422529" lon="16.78288880891654"><ele>649.1999999999999</ele><time>2026-03-28T11:48:42Z</time></trkpt><trkpt lat="39.24408153476418" lon="16.782993736483903"><ele>648.5999999999999</ele><time>2026-03-28T11:48:43Z</time></trkpt><trkpt lat="39.2440268992042" lon="16.78309347005782"><ele>648.0</ele><time>2026-03-28T11:48:44Z</time></trkpt><trkpt lat="39.243977573787916" lon="16.783183764791094"><ele>645.8</ele><time>2026-03-28T11:48:45Z</time></trkpt><trkpt lat="39.243931220602484" lon="16.78326865652525"><ele>643.5999999999999</ele><time>2026-03-28T11:48:46Z</time></trkpt><trkpt lat="39.24388964533363" lon="16.78334918126622"><ele>641.4000000000001</ele><time>2026-03-28T11:48:47Z</time></trkpt><trkpt lat="39.24383026597274" lon="16.783471336288105"><ele>639.2</ele><time>2026-03-28T11:48:49Z</time></trkpt><trkpt lat="39.24376722401455" lon="16.78360709119289"><ele>637.0</ele><time>2026-03-28T11:48:51Z</time></trkpt><trkpt lat="39.243731730934975" lon="16.783682809404745"><ele>636.8000000000001</ele><time>2026-03-28T11:48:52Z</time></trkpt><trkpt lat="39.243698405689614" lon="16.78375257418176"><ele>636.6</ele><time>2026-03-28T11:48:53Z</time></trkpt><trkpt lat="39.24364083224718" lon="16.783859170019053"><ele>636.4000000000001</ele><time>2026-03-28T11:48:55Z</time></trkpt><trkpt lat="39.24361214745612" lon="16.783939850411617"><ele>636.2</ele><time>2026-03-28T11:48:56Z</time></trkpt><trkpt lat="39.24350595911369" lon="16.783886884698326"><ele>636.0</ele><time>2026-03-28T11:48:57Z</time></trkpt><trkpt lat="39.24347054810663" lon="16.784040930949892"><ele>636.0</ele><time>2026-03-28T11:48:58Z</time></trkpt><trkpt lat="39.24337883011744" lon="16.78413126558385"><ele>636.0</ele><time>2026-03-28T11:48:59Z</time></trkpt><trkpt lat="39.24330434872833" lon="16.784234926970182"><ele>636.0</ele><time>2026-03-28T11:49:00Z</time></trkpt><trkpt lat="39.24324814698693" lon="16.78432509871392"><ele>636.0</ele><time>2026-03-28T11:49:01Z</time></trkpt><trkpt lat="39.243155073243564" lon="16.784396238523193"><ele>636.0</ele><time>2026-03-28T11:49:02Z</time></trkpt><trkpt lat="39.24311991606281" lon="16.7845069296858"><ele>635.0</ele><time>2026-03-28T11:49:03Z</time></trkpt><trkpt lat="39.243082332665075" lon="16.784643712743726"><ele>634.0</ele><time>2026-03-28T11:49:04Z</time></trkpt><trkpt lat="39.24304771962843" lon="16.78478331415308"><ele>633.0</ele><time>2026-03-28T11:49:05Z</time></trkpt><trkpt lat="39.243018942575404" lon="16.78492058174616"><ele>632.0</ele><time>2026-03-28T11:49:06Z</time></trkpt><trkpt lat="39.24299415126484" lon="16.785053799416257"><ele>631.0</ele><time>2026-03-28T11:49:07Z</time></trkpt><trkpt lat="39.242971246724764" lon="16.785175157472143"><ele>630.6666666666667</ele><time>2026-03-28T11:49:08Z</time></trkpt><trkpt lat="39.24296078663366" lon="16.785295595109652"><ele>630.3333333333334</ele><time>2026-03-28T11:49:09Z</time></trkpt><trkpt lat="39.242936894722284" lon="16.78540972726155"><ele>630.0</ele><time>2026-03-28T11:49:10Z</time></trkpt><trkpt lat="39.24292068059798" lon="16.78551193102932"><ele>629.6666666666666</ele><time>2026-03-28T11:49:11Z</time></trkpt><trkpt lat="39.24289074765085" lon="16.785586481191014"><ele>629.3333333333333</ele><time>2026-03-28T11:49:12Z</time></trkpt><trkpt lat="39.24287523160835" lon="16.78573163699059"><ele>629.0</ele><time>2026-03-28T11:49:14Z</time></trkpt><trkpt lat="39.24284965481987" lon="16.785838157634988"><ele>629.0</ele><time>2026-03-28T11:49:15Z</time></trkpt><trkpt lat="39.24281928575264" lon="16.785969640767547"><ele>629.0</ele><time>2026-03-28T11:49:16Z</time></trkpt><trkpt lat="39.24278368750541" lon="16.786114442560226"><ele>629.0</ele><time>2026-03-28T11:49:17Z</time></trkpt><trkpt lat="39.24275016900948" lon="16.786268483289124"><ele>629.0</ele><time>2026-03-28T11:49:18Z</time></trkpt><trkpt lat="39.242712422800686" lon="16.78641958138209"><ele>628.25</ele><time>2026-03-28T11:49:19Z</time></trkpt><trkpt lat="39.242676055358125" lon="16.786574935718342"><ele>627.5</ele><time>2026-03-28T11:49:20Z</time></trkpt><trkpt lat="39.24263700493125" lon="16.786733262139926"><ele>626.75</ele><time>2026-03-28T11:49:21Z</time></trkpt><trkpt lat="39.24261921075509" lon="16.786897835199376"><ele>626.0</ele><time>2026-03-28T11:49:22Z</time></trkpt><trkpt lat="39.24258701120572" lon="16.787044528364763"><ele>624.6</ele><time>2026-03-28T11:49:23Z</time></trkpt><trkpt lat="39.242558015678156" lon="16.78717662633629"><ele>623.2</ele><time>2026-03-28T11:49:24Z</time></trkpt><trkpt lat="39.242517820570264" lon="16.787288579075835"><ele>621.8</ele><time>2026-03-28T11:49:25Z</time></trkpt><trkpt lat="39.24250647907843" lon="16.787396955366926"><ele>620.4</ele><time>2026-03-28T11:49:26Z</time></trkpt><trkpt lat="39.242496632705745" lon="16.787501103198558"><ele>619.0</ele><time>2026-03-28T11:49:27Z</time></trkpt><trkpt lat="39.24248195631617" lon="16.787612888317184"><ele>617.5</ele><time>2026-03-28T11:49:28Z</time></trkpt><trkpt lat="39.24246106746992" lon="16.787739338580153"><ele>616.0</ele><time>2026-03-28T11:49:29Z</time></trkpt><trkpt lat="39.242421162644995" lon="16.787890969685936"><ele>614.5</ele><time>2026-03-28T11:49:30Z</time></trkpt><trkpt lat="39.242352449525995" lon="16.7880655927451"><ele>613.0</ele><time>2026-03-28T11:49:31Z</time></trkpt><trkpt lat="39.242278415023506" lon="16.788255423628357"><ele>613.0</ele><time>2026-03-28T11:49:32Z</time></trkpt><trkpt lat="39.242199484546106" lon="16.788448550502558"><ele>613.0</ele><time>2026-03-28T11:49:33Z</time></trkpt><trkpt lat="39.242127614846225" lon="16.788651502145573"><ele>613.0</ele><time>2026-03-28T11:49:34Z</time></trkpt><trkpt lat="39.24205487115711" lon="16.788857751497897"><ele>611.5</ele><time>2026-03-28T11:49:35Z</time></trkpt><trkpt lat="39.24196548592141" lon="16.789024293914412"><ele>610.0</ele><time>2026-03-28T11:49:36Z</time></trkpt><trkpt lat="39.241893193188446" lon="16.789154303019316"><ele>608.5</ele><time>2026-03-28T11:49:37Z</time></trkpt><trkpt lat="39.24179975116071" lon="16.78925327356847"><ele>607.0</ele><time>2026-03-28T11:49:38Z</time></trkpt><trkpt lat="39.24171262056447" lon="16.789365515333095"><ele>605.1666666666667</ele><time>2026-03-28T11:49:39Z</time></trkpt><trkpt lat="39.24163620142996" lon="16.789461445432504"><ele>603.3333333333334</ele><time>2026-03-28T11:49:40Z</time></trkpt><trkpt lat="39.24156976879226" lon="16.78954696950846"><ele>601.5</ele><time>2026-03-28T11:49:41Z</time></trkpt><trkpt lat="39.241510150058936" lon="16.789629257200545"><ele>599.6666666666666</ele><time>2026-03-28T11:49:42Z</time></trkpt><trkpt lat="39.24145576312749" lon="16.7897038396372"><ele>597.8333333333333</ele><time>2026-03-28T11:49:43Z</time></trkpt><trkpt lat="39.241404394320796" lon="16.789772980146896"><ele>596.0</ele><time>2026-03-28T11:49:44Z</time></trkpt><trkpt lat="39.2413168272181" lon="16.789879495605344"><ele>594.5</ele><time>2026-03-28T11:49:46Z</time></trkpt><trkpt lat="39.24126402738421" lon="16.78992412163678"><ele>593.0</ele><time>2026-03-28T11:49:48Z</time></trkpt><trkpt lat="39.24131763315844" lon="16.789872568446505"><ele>591.5</ele><time>2026-03-28T11:49:52Z</time></trkpt><trkpt lat="39.241236068094786" lon="16.789905479006002"><ele>590.0</ele><time>2026-03-28T11:49:57.001Z</time></trkpt><trkpt lat="39.24116612415814" lon="16.789933700674176"><ele>588.5</ele><time>2026-03-28T11:49:59.001Z</time></trkpt><trkpt lat="39.24105761270347" lon="16.78993615380456"><ele>587.0</ele><time>2026-03-28T11:50:02.001Z</time></trkpt><trkpt lat="39.241020782755335" lon="16.79024101393029"><ele>586.4</ele><time>2026-03-28T11:50:03.001Z</time></trkpt><trkpt lat="39.24097162412485" lon="16.790366100485308"><ele>585.8000000000001</ele><time>2026-03-28T11:50:05Z</time></trkpt><trkpt lat="39.24094072559234" lon="16.790453169680237"><ele>585.2</ele><time>2026-03-28T11:50:07Z</time></trkpt><trkpt lat="39.240923333719614" lon="16.7905485278556"><ele>584.6</ele><time>2026-03-28T11:50:09Z</time></trkpt><trkpt lat="39.24087942132666" lon="16.790681854948055"><ele>584.0</ele><time>2026-03-28T11:50:12Z</time></trkpt><trkpt lat="39.240850685215264" lon="16.79078421169864"><ele>584.0</ele><time>2026-03-28T11:50:15Z</time></trkpt><trkpt lat="39.24082785203381" lon="16.790862310746878"><ele>584.0</ele><time>2026-03-28T11:50:18Z</time></trkpt><trkpt lat="39.24077721493976" lon="16.7909165501364"><ele>584.0</ele><time>2026-03-28T11:50:20Z</time></trkpt><trkpt lat="39.240750858516215" lon="16.791011962168913"><ele>584.0</ele><time>2026-03-28T11:50:22Z</time></trkpt><trkpt lat="39.24075898208644" lon="16.79114901551564"><ele>584.0</ele><time>2026-03-28T11:50:24Z</time></trkpt><trkpt lat="39.240736531636124" lon="16.791278223857397"><ele>584.0</ele><time>2026-03-28T11:50:26Z</time></trkpt><trkpt lat="39.240753798353204" lon="16.791413515304555"><ele>582.4</ele><time>2026-03-28T11:50:28Z</time></trkpt><trkpt lat="39.24069954931455" lon="16.791542823125937"><ele>580.8</ele><time>2026-03-28T11:50:30Z</time></trkpt><trkpt lat="39.24062052987773" lon="16.79164531257398"><ele>579.2</ele><time>2026-03-28T11:50:32Z</time></trkpt><trkpt lat="39.24056253909468" lon="16.791718708992477"><ele>577.6</ele><time>2026-03-28T11:50:33Z</time></trkpt><trkpt lat="39.240524081389" lon="16.79179931597967"><ele>576.0</ele><time>2026-03-28T11:50:34Z</time></trkpt><trkpt lat="39.24049853263508" lon="16.791896530935457"><ele>574.8</ele><time>2026-03-28T11:50:35Z</time></trkpt><trkpt lat="39.24047556944442" lon="16.79201576270555"><ele>573.6</ele><time>2026-03-28T11:50:37Z</time></trkpt><trkpt lat="39.240418319258104" lon="16.7921062650822"><ele>572.4</ele><time>2026-03-28T11:50:39Z</time></trkpt><trkpt lat="39.24033312369539" lon="16.79223655032512"><ele>571.2</ele><time>2026-03-28T11:50:41Z</time></trkpt><trkpt lat="39.24027299625583" lon="16.792270957821806"><ele>570.0</ele><time>2026-03-28T11:50:42Z</time></trkpt><trkpt lat="39.24018188594599" lon="16.792400627621756"><ele>570.0</ele><time>2026-03-28T11:50:44Z</time></trkpt><trkpt lat="39.24009278731325" lon="16.79245277932151"><ele>570.0</ele><time>2026-03-28T11:50:46Z</time></trkpt><trkpt lat="39.240036184364655" lon="16.79250470347622"><ele>570.0</ele><time>2026-03-28T11:50:48Z</time></trkpt><trkpt lat="39.23998586327382" lon="16.792555316534365"><ele>570.0</ele><time>2026-03-28T11:50:50Z</time></trkpt><trkpt lat="39.23989424598317" lon="16.79259762626716"><ele>570.0</ele><time>2026-03-28T11:50:53Z</time></trkpt><trkpt lat="39.23982547002902" lon="16.792679237665244"><ele>570.0</ele><time>2026-03-28T11:50:55Z</time></trkpt><trkpt lat="39.23978992403979" lon="16.7927838156287"><ele>566.0</ele><time>2026-03-28T11:50:57Z</time></trkpt><trkpt lat="39.2397375947598" lon="16.792876360167124"><ele>562.0</ele><time>2026-03-28T11:50:59Z</time></trkpt><trkpt lat="39.239689758034636" lon="16.79295113141183"><ele>558.0</ele><time>2026-03-28T11:51:03Z</time></trkpt><trkpt lat="39.2396273489561" lon="16.79298047448001"><ele>554.0</ele><time>2026-03-28T11:51:06Z</time></trkpt><trkpt lat="39.23964143675709" lon="16.79310114614556"><ele>550.0</ele><time>2026-03-28T11:51:10Z</time></trkpt><trkpt lat="39.23961015215965" lon="16.7931903748239"><ele>546.0</ele><time>2026-03-28T11:51:12Z</time></trkpt><trkpt lat="39.2395416931954" lon="16.79324899085473"><ele>546.0</ele><time>2026-03-28T11:51:14Z</time></trkpt><trkpt lat="39.239530448278344" lon="16.793352762054216"><ele>546.0</ele><time>2026-03-28T11:51:16Z</time></trkpt><trkpt lat="39.239542540479235" lon="16.793503166624134"><ele>546.0</ele><time>2026-03-28T11:51:18Z</time></trkpt><trkpt lat="39.23954385107121" lon="16.793662688923305"><ele>546.0</ele><time>2026-03-28T11:51:20Z</time></trkpt><trkpt lat="39.23956238450597" lon="16.793758577547433"><ele>546.0</ele><time>2026-03-28T11:51:21Z</time></trkpt><trkpt lat="39.239561681016575" lon="16.793847454293925"><ele>546.1666666666666</ele><time>2026-03-28T11:51:22Z</time></trkpt><trkpt lat="39.239493681178324" lon="16.793936234497572"><ele>546.3333333333334</ele><time>2026-03-28T11:51:24Z</time></trkpt><trkpt lat="39.23953863921673" lon="16.794034022107784"><ele>546.5</ele><time>2026-03-28T11:51:26Z</time></trkpt><trkpt lat="39.23960397174794" lon="16.794081048366554"><ele>546.6666666666667</ele><time>2026-03-28T11:51:30Z</time></trkpt><trkpt lat="39.23968058752246" lon="16.794077225716883"><ele>546.8333333333334</ele><time>2026-03-28T11:51:33Z</time></trkpt><trkpt lat="39.23975768182702" lon="16.794101441205928"><ele>547.0</ele><time>2026-03-28T11:51:36Z</time></trkpt><trkpt lat="39.23981628570807" lon="16.794060800272174"><ele>547.0</ele><time>2026-03-28T11:51:38Z</time></trkpt><trkpt lat="39.239888225172045" lon="16.7940198455217"><ele>547.0</ele><time>2026-03-28T11:51:41Z</time></trkpt><trkpt lat="39.23995388717118" lon="16.79405123968425"><ele>547.0</ele><time>2026-03-28T11:51:44Z</time></trkpt><trkpt lat="39.23993602643272" lon="16.794168356633474"><ele>547.0</ele><time>2026-03-28T11:51:47Z</time></trkpt><trkpt lat="39.23991817566936" lon="16.794261748154593"><ele>547.0</ele><time>2026-03-28T11:51:49Z</time></trkpt><trkpt lat="39.239889334598296" lon="16.79435083569943"><ele>547.0</ele><time>2026-03-28T11:51:51Z</time></trkpt><trkpt lat="39.23985825527573" lon="16.794482215367108"><ele>543.6</ele><time>2026-03-28T11:51:54Z</time></trkpt><trkpt lat="39.23982267449585" lon="16.794602351105187"><ele>540.2</ele><time>2026-03-28T11:51:56Z</time></trkpt><trkpt lat="39.239809122805724" lon="16.79474964691069"><ele>536.8</ele><time>2026-03-28T11:51:58Z</time></trkpt><trkpt lat="39.239807271218" lon="16.794869238463363"><ele>533.4</ele><time>2026-03-28T11:52:00Z</time></trkpt><trkpt lat="39.23983935223777" lon="16.794964346680775"><ele>530.0</ele><time>2026-03-28T11:52:03Z</time></trkpt><trkpt lat="39.23982554581289" lon="16.795086148079235"><ele>529.8333333333333</ele><time>2026-03-28T11:52:05Z</time></trkpt><trkpt lat="39.239811345149874" lon="16.795184595004542"><ele>529.6666666666666</ele><time>2026-03-28T11:52:07Z</time></trkpt><trkpt lat="39.23977745576353" lon="16.79529431590262"><ele>529.5</ele><time>2026-03-28T11:52:09Z</time></trkpt><trkpt lat="39.23975542442495" lon="16.795390771834164"><ele>529.3333333333334</ele><time>2026-03-28T11:52:11Z</time></trkpt><trkpt lat="39.239756497898405" lon="16.795474337786587"><ele>529.1666666666667</ele><time>2026-03-28T11:52:13Z</time></trkpt><trkpt lat="39.23974621543165" lon="16.795561300805506"><ele>529.0</ele><time>2026-03-28T11:52:15Z</time></trkpt><trkpt lat="39.23975585884729" lon="16.79565525780496"><ele>529.0</ele><time>2026-03-28T11:52:19Z</time></trkpt><trkpt lat="39.23974392374004" lon="16.79574941422012"><ele>529.0</ele><time>2026-03-28T11:52:24Z</time></trkpt><trkpt lat="39.239785126378955" lon="16.795845447886123"><ele>529.0</ele><time>2026-03-28T11:52:28Z</time></trkpt><trkpt lat="39.23980202741609" lon="16.79592571547276"><ele>529.0</ele><time>2026-03-28T11:52:31Z</time></trkpt><trkpt lat="39.23977847166524" lon="16.796019141054835"><ele>529.0</ele><time>2026-03-28T11:52:36Z</time></trkpt><trkpt lat="39.239764228635714" lon="16.79610197895993"><ele>529.0</ele><time>2026-03-28T11:52:50Z</time></trkpt><trkpt lat="39.23976912698923" lon="16.796184434283315"><ele>529.0</ele><time>2026-03-28T11:53:00Z</time></trkpt><trkpt lat="39.23978904823277" lon="16.796272819030918"><ele>526.1666666666667</ele><time>2026-03-28T11:53:08Z</time></trkpt><trkpt lat="39.23976502064639" lon="16.79635104201906"><ele>523.3333333333334</ele><time>2026-03-28T11:53:16Z</time></trkpt><trkpt lat="39.23976266077908" lon="16.796450795431664"><ele>520.5</ele><time>2026-03-28T11:53:35Z</time></trkpt><trkpt lat="39.23976090418257" lon="16.79653523485925"><ele>517.6666666666666</ele><time>2026-03-28T11:53:40Z</time></trkpt><trkpt lat="39.239751835094665" lon="16.79664212500424"><ele>514.8333333333333</ele><time>2026-03-28T11:54:06.001Z</time></trkpt><trkpt lat="39.23983488142734" lon="16.79670941675387"><ele>512.0</ele><time>2026-03-28T11:54:22.001Z</time></trkpt><trkpt lat="39.239866038928845" lon="16.796783503176755"><ele>510.3333333333333</ele><time>2026-03-28T11:54:28.001Z</time></trkpt><trkpt lat="39.23986983854503" lon="16.796869111524593"><ele>508.66666666666663</ele><time>2026-03-28T11:54:33.001Z</time></trkpt><trkpt lat="39.23983101304294" lon="16.796935429178646"><ele>507.0</ele><time>2026-03-28T11:54:41.001Z</time></trkpt><trkpt lat="39.239864780403394" lon="16.797026778868073"><ele>505.33333333333337</ele><time>2026-03-28T11:54:58.001Z</time></trkpt><trkpt lat="39.23988474387133" lon="16.79711072128581"><ele>503.6666666666667</ele><time>2026-03-28T11:55:22.001Z</time></trkpt><trkpt lat="39.2398489454017" lon="16.797238922711614"><ele>502.0</ele><time>2026-03-28T11:55:24.001Z</time></trkpt><trkpt lat="39.239802822764915" lon="16.797388291268287"><ele>502.00000000000006</ele><time>2026-03-28T11:55:26.001Z</time></trkpt><trkpt lat="39.23978697390291" lon="16.79746739817878"><ele>502.0</ele><time>2026-03-28T11:55:27.001Z</time></trkpt><trkpt lat="39.239768719937636" lon="16.797545963976958"><ele>502.0</ele><time>2026-03-28T11:55:28.001Z</time></trkpt><trkpt lat="39.2397588741343" lon="16.79768969800184"><ele>502.0</ele><time>2026-03-28T11:55:30.001Z</time></trkpt><trkpt lat="39.23973544144786" lon="16.797784859848637"><ele>502.00000000000006</ele><time>2026-03-28T11:55:34.001Z</time></trkpt><trkpt lat="39.239676412339435" lon="16.797852310106975"><ele>502.0</ele><time>2026-03-28T11:55:37.001Z</time></trkpt><trkpt lat="39.23959192747179" lon="16.797922823813842"><ele>501.99999999999994</ele><time>2026-03-28T11:55:53.001Z</time></trkpt><trkpt lat="39.23954738031223" lon="16.797991071872886"><ele>502.0</ele><time>2026-03-28T11:56:04.001Z</time></trkpt><trkpt lat="39.23952881204957" lon="16.798098656745772"><ele>501.99999999999994</ele><time>2026-03-28T11:56:22.001Z</time></trkpt><trkpt lat="39.23950090227564" lon="16.798175958600964"><ele>501.99999999999994</ele><time>2026-03-28T11:56:27.001Z</time></trkpt><trkpt lat="39.239432464881666" lon="16.798207774075497"><ele>502.0</ele><time>2026-03-28T11:56:31.001Z</time></trkpt><trkpt lat="39.23936891709976" lon="16.7982281458246"><ele>501.99999999999994</ele><time>2026-03-28T11:56:35.001Z</time></trkpt><trkpt lat="39.23929719577089" lon="16.79828978553052"><ele>501.99999999999994</ele><time>2026-03-28T11:56:54.001Z</time></trkpt><trkpt lat="39.239276625574206" lon="16.798376317201377"><ele>501.99999999999994</ele><time>2026-03-28T11:56:57.001Z</time></trkpt><trkpt lat="39.239252627951494" lon="16.798456763623825"><ele>502.0</ele><time>2026-03-28T11:56:59.001Z</time></trkpt><trkpt lat="39.23922491245376" lon="16.79854798194127"><ele>501.99999999999994</ele><time>2026-03-28T11:57:01.001Z</time></trkpt><trkpt lat="39.23922847677717" lon="16.79863914861202"><ele>501.99999999999994</ele><time>2026-03-28T11:57:03.001Z</time></trkpt><trkpt lat="39.23923332435344" lon="16.79874045792134"><ele>502.0</ele><time>2026-03-28T11:57:06.001Z</time></trkpt><trkpt lat="39.23925942692283" lon="16.798824773115538"><ele>501.99999999999994</ele><time>2026-03-28T11:57:11Z</time></trkpt><trkpt lat="39.23928046660969" lon="16.798923268430237"><ele>501.99999999999994</ele><time>2026-03-28T11:57:16Z</time></trkpt><trkpt lat="39.23925516286644" lon="16.799029781011555"><ele>501.33333333333337</ele><time>2026-03-28T11:57:19Z</time></trkpt><trkpt lat="39.239202900335634" lon="16.7991145496487"><ele>500.6666666666667</ele><time>2026-03-28T11:57:21Z</time></trkpt><trkpt lat="39.23916567593074" lon="16.799200193235727"><ele>500.0</ele><time>2026-03-28T11:57:23Z</time></trkpt><trkpt lat="39.239162183980845" lon="16.79929678162005"><ele>499.33333333333337</ele><time>2026-03-28T11:57:25Z</time></trkpt><trkpt lat="39.239159034022876" lon="16.79939661115919"><ele>498.6666666666667</ele><time>2026-03-28T11:57:27Z</time></trkpt><trkpt lat="39.23916306062805" lon="16.799502771138133"><ele>498.0</ele><time>2026-03-28T11:57:29Z</time></trkpt><trkpt lat="39.23917717199327" lon="16.799595294908475"><ele>496.8333333333333</ele><time>2026-03-28T11:57:31Z</time></trkpt><trkpt lat="39.239201046781496" lon="16.799697193923876"><ele>495.66666666666663</ele><time>2026-03-28T11:57:34Z</time></trkpt><trkpt lat="39.23919001894932" lon="16.799796048091032"><ele>494.5</ele><time>2026-03-28T11:57:37Z</time></trkpt><trkpt lat="39.239142873207406" lon="16.799862640392977"><ele>493.3333333333333</ele><time>2026-03-28T11:58:13Z</time></trkpt><trkpt lat="39.239056122189766" lon="16.799823549155544"><ele>492.16666666666663</ele><time>2026-03-28T11:58:17.001Z</time></trkpt><trkpt lat="39.23896001108129" lon="16.799800340764502"><ele>491.0</ele><time>2026-03-28T11:58:19.001Z</time></trkpt><trkpt lat="39.238869960015364" lon="16.79984243410331"><ele>489.49999999999994</ele><time>2026-03-28T11:58:21.001Z</time></trkpt><trkpt lat="39.23878424081762" lon="16.79990305280173"><ele>488.0</ele><time>2026-03-28T11:58:23.001Z</time></trkpt><trkpt lat="39.238713737338756" lon="16.799970223648636"><ele>486.5</ele><time>2026-03-28T11:58:25.001Z</time></trkpt><trkpt lat="39.23864058118838" lon="16.800023747500436"><ele>485.0</ele><time>2026-03-28T11:58:27.001Z</time></trkpt><trkpt lat="39.2385644748196" lon="16.80007150799958"><ele>483.49999999999994</ele><time>2026-03-28T11:58:29.001Z</time></trkpt><trkpt lat="39.23847841591628" lon="16.800116059312547"><ele>482.0</ele><time>2026-03-28T11:58:31.001Z</time></trkpt><trkpt lat="39.238380844452166" lon="16.800260986485704"><ele>481.99999999999994</ele><time>2026-03-28T11:58:33.001Z</time></trkpt><trkpt lat="39.23835140061985" lon="16.800339227048838"><ele>482.0</ele><time>2026-03-28T11:58:34.001Z</time></trkpt><trkpt lat="39.238310156448186" lon="16.80041474599735"><ele>482.0</ele><time>2026-03-28T11:58:35.001Z</time></trkpt><trkpt lat="39.23827807841558" lon="16.80048906481068"><ele>482.0</ele><time>2026-03-28T11:58:36.001Z</time></trkpt><trkpt lat="39.23820620996904" lon="16.80060731463407"><ele>481.99999999999994</ele><time>2026-03-28T11:58:38.001Z</time></trkpt><trkpt lat="39.23813599793748" lon="16.80073740580994"><ele>482.0</ele><time>2026-03-28T11:58:40.001Z</time></trkpt><trkpt lat="39.23806897606974" lon="16.80086158615195"><ele>479.49999999999994</ele><time>2026-03-28T11:58:42.001Z</time></trkpt><trkpt lat="39.238005029406864" lon="16.800986019697294"><ele>477.0</ele><time>2026-03-28T11:58:44.001Z</time></trkpt><trkpt lat="39.237972213076176" lon="16.801060437414453"><ele>474.5</ele><time>2026-03-28T11:58:45.001Z</time></trkpt><trkpt lat="39.237940690690586" lon="16.801138007653964"><ele>472.0</ele><time>2026-03-28T11:58:46.001Z</time></trkpt><trkpt lat="39.23791106947743" lon="16.80123016645015"><ele>469.49999999999994</ele><time>2026-03-28T11:58:47.001Z</time></trkpt><trkpt lat="39.23788271485237" lon="16.801332483206423"><ele>467.0</ele><time>2026-03-28T11:58:48.001Z</time></trkpt><trkpt lat="39.23785779906036" lon="16.801444602629488"><ele>466.3333333333333</ele><time>2026-03-28T11:58:49.001Z</time></trkpt><trkpt lat="39.237836937815416" lon="16.801542720009596"><ele>465.66666666666663</ele><time>2026-03-28T11:58:50.001Z</time></trkpt><trkpt lat="39.23781909196057" lon="16.801626655017376"><ele>465.0</ele><time>2026-03-28T11:58:51.001Z</time></trkpt><trkpt lat="39.23778371690788" lon="16.80177791567773"><ele>464.33333333333337</ele><time>2026-03-28T11:58:53.001Z</time></trkpt><trkpt lat="39.2377813382104" lon="16.801860473430946"><ele>463.6666666666667</ele><time>2026-03-28T11:58:54.001Z</time></trkpt><trkpt lat="39.237759688339644" lon="16.80194090715569"><ele>463.0</ele><time>2026-03-28T11:58:55.001Z</time></trkpt><trkpt lat="39.237742660154694" lon="16.802023182543905"><ele>461.79999999999995</ele><time>2026-03-28T11:58:56.001Z</time></trkpt><trkpt lat="39.2377275899537" lon="16.802106523929645"><ele>460.59999999999997</ele><time>2026-03-28T11:58:57.001Z</time></trkpt><trkpt lat="39.23772366037248" lon="16.802193483868873"><ele>459.40000000000003</ele><time>2026-03-28T11:58:58.001Z</time></trkpt><trkpt lat="39.23777339559963" lon="16.802339278575484"><ele>458.20000000000005</ele><time>2026-03-28T11:59:00.001Z</time></trkpt><trkpt lat="39.23787258111479" lon="16.802436518336915"><ele>457.0</ele><time>2026-03-28T11:59:02.001Z</time></trkpt><trkpt lat="39.23799952361974" lon="16.802443478775096"><ele>457.00000000000006</ele><time>2026-03-28T11:59:04.001Z</time></trkpt><trkpt lat="39.238072471346946" lon="16.802429455271756"><ele>457.0</ele><time>2026-03-28T11:59:05.001Z</time></trkpt><trkpt lat="39.23815149111165" lon="16.802411263234205"><ele>457.0</ele><time>2026-03-28T11:59:06.001Z</time></trkpt><trkpt lat="39.23823656649785" lon="16.802399618097304"><ele>457.0</ele><time>2026-03-28T11:59:07.001Z</time></trkpt><trkpt lat="39.23832249530258" lon="16.80240478412274"><ele>457.00000000000006</ele><time>2026-03-28T11:59:08.001Z</time></trkpt><trkpt lat="39.238404490215885" lon="16.802413700740097"><ele>457.0</ele><time>2026-03-28T11:59:09.001Z</time></trkpt><trkpt lat="39.238486818977336" lon="16.802404626973807"><ele>458.6666666666667</ele><time>2026-03-28T11:59:10.001Z</time></trkpt><trkpt lat="39.23857542040039" lon="16.80238658642318"><ele>460.33333333333337</ele><time>2026-03-28T11:59:11.001Z</time></trkpt><trkpt lat="39.238661114718134" lon="16.80239280713283"><ele>462.0</ele><time>2026-03-28T11:59:12.001Z</time></trkpt><trkpt lat="39.238739546190985" lon="16.80242402666728"><ele>463.66666666666663</ele><time>2026-03-28T11:59:13.001Z</time></trkpt><trkpt lat="39.23880884567377" lon="16.802441987736447"><ele>465.3333333333333</ele><time>2026-03-28T11:59:14.001Z</time></trkpt><trkpt lat="39.23889923170249" lon="16.802476052639292"><ele>467.0</ele><time>2026-03-28T11:59:16.001Z</time></trkpt><trkpt lat="39.23899003996221" lon="16.802518712400545"><ele>467.16666666666663</ele><time>2026-03-28T11:59:18.001Z</time></trkpt><trkpt lat="39.23907634064464" lon="16.802645582983345"><ele>467.3333333333333</ele><time>2026-03-28T11:59:20.001Z</time></trkpt><trkpt lat="39.239120326413605" lon="16.802732405464393"><ele>467.5</ele><time>2026-03-28T11:59:21.001Z</time></trkpt><trkpt lat="39.239143264872865" lon="16.80282683616223"><ele>467.66666666666663</ele><time>2026-03-28T11:59:22.001Z</time></trkpt><trkpt lat="39.23914143471323" lon="16.80290863054675"><ele>467.8333333333333</ele><time>2026-03-28T11:59:23.001Z</time></trkpt><trkpt lat="39.2391496564624" lon="16.80302980832612"><ele>468.0</ele><time>2026-03-28T11:59:25.001Z</time></trkpt><trkpt lat="39.23915800679424" lon="16.80311087277589"><ele>468.0</ele><time>2026-03-28T11:59:26.001Z</time></trkpt><trkpt lat="39.23904722263611" lon="16.80324630625934"><ele>467.99999999999994</ele><time>2026-03-28T11:59:28.001Z</time></trkpt><trkpt lat="39.238972103797785" lon="16.803237523798547"><ele>467.99999999999994</ele><time>2026-03-28T11:59:29.001Z</time></trkpt><trkpt lat="39.23888971068322" lon="16.80315154579941"><ele>468.0</ele><time>2026-03-28T11:59:31.001Z</time></trkpt><trkpt lat="39.2388270295753" lon="16.803046744160937"><ele>468.0</ele><time>2026-03-28T11:59:33.001Z</time></trkpt><trkpt lat="39.23876657228193" lon="16.802945127566087"><ele>465.3333333333333</ele><time>2026-03-28T11:59:35Z</time></trkpt><trkpt lat="39.23869297432738" lon="16.802814367188947"><ele>462.66666666666663</ele><time>2026-03-28T11:59:37Z</time></trkpt><trkpt lat="39.23863595455786" lon="16.80275312310439"><ele>460.0</ele><time>2026-03-28T11:59:38Z</time></trkpt><trkpt lat="39.23857068987193" lon="16.802735975661964"><ele>457.3333333333333</ele><time>2026-03-28T11:59:39Z</time></trkpt><trkpt lat="39.238494521167375" lon="16.802727168820727"><ele>454.66666666666663</ele><time>2026-03-28T11:59:40Z</time></trkpt><trkpt lat="39.23841815327491" lon="16.80272125903588"><ele>452.0</ele><time>2026-03-28T11:59:41Z</time></trkpt><trkpt lat="39.23834428850613" lon="16.80276666011894"><ele>452.0</ele><time>2026-03-28T11:59:42Z</time></trkpt><trkpt lat="39.238260922057535" lon="16.802811146626503"><ele>452.00000000000006</ele><time>2026-03-28T11:59:43Z</time></trkpt><trkpt lat="39.23818939621152" lon="16.80289144917129"><ele>452.00000000000006</ele><time>2026-03-28T11:59:44Z</time></trkpt><trkpt lat="39.23812345138854" lon="16.802978430810306"><ele>452.0</ele><time>2026-03-28T11:59:45Z</time></trkpt><trkpt lat="39.238058973511194" lon="16.803064798619314"><ele>452.0</ele><time>2026-03-28T11:59:46Z</time></trkpt><trkpt lat="39.23797280832931" lon="16.803079889251546"><ele>450.20000000000005</ele><time>2026-03-28T11:59:47Z</time></trkpt><trkpt lat="39.23789031271791" lon="16.80306921778629"><ele>448.40000000000003</ele><time>2026-03-28T11:59:48Z</time></trkpt><trkpt lat="39.23780373126057" lon="16.80303359277165"><ele>446.59999999999997</ele><time>2026-03-28T11:59:49Z</time></trkpt><trkpt lat="39.23771604252782" lon="16.802980004702313"><ele>444.79999999999995</ele><time>2026-03-28T11:59:50Z</time></trkpt><trkpt lat="39.23762685814902" lon="16.802920395801834"><ele>443.0</ele><time>2026-03-28T11:59:51Z</time></trkpt><trkpt lat="39.237530786257366" lon="16.802858426938684"><ele>443.0</ele><time>2026-03-28T11:59:52Z</time></trkpt><trkpt lat="39.23745635584176" lon="16.8027640290065"><ele>442.99999999999994</ele><time>2026-03-28T11:59:53Z</time></trkpt><trkpt lat="39.23740088822158" lon="16.802658407550496"><ele>442.99999999999994</ele><time>2026-03-28T11:59:54Z</time></trkpt><trkpt lat="39.237342527466225" lon="16.80256152938314"><ele>443.0</ele><time>2026-03-28T11:59:55Z</time></trkpt><trkpt lat="39.23727170903783" lon="16.80248550530735"><ele>443.0</ele><time>2026-03-28T11:59:56Z</time></trkpt><trkpt lat="39.23719557305704" lon="16.802402891603833"><ele>443.3333333333333</ele><time>2026-03-28T11:59:57Z</time></trkpt><trkpt lat="39.2370898602864" lon="16.802355907644987"><ele>443.66666666666663</ele><time>2026-03-28T11:59:58Z</time></trkpt><trkpt lat="39.236987937133605" lon="16.80234725357182"><ele>444.0</ele><time>2026-03-28T11:59:59Z</time></trkpt><trkpt lat="39.236899273478954" lon="16.802338053354042"><ele>444.33333333333337</ele><time>2026-03-28T12:00:00Z</time></trkpt><trkpt lat="39.23682501850811" lon="16.802325337225792"><ele>444.6666666666667</ele><time>2026-03-28T12:00:01Z</time></trkpt><trkpt lat="39.23675796675687" lon="16.802315665682464"><ele>445.0</ele><time>2026-03-28T12:00:02Z</time></trkpt><trkpt lat="39.23668758566092" lon="16.802284992032995"><ele>445.0</ele><time>2026-03-28T12:00:03Z</time></trkpt><trkpt lat="39.23661487373444" lon="16.802218427589597"><ele>445.0</ele><time>2026-03-28T12:00:04Z</time></trkpt><trkpt lat="39.23657734014554" lon="16.802112475924826"><ele>445.0</ele><time>2026-03-28T12:00:05Z</time></trkpt><trkpt lat="39.23655584551414" lon="16.802002011256064"><ele>445.0</ele><time>2026-03-28T12:00:06Z</time></trkpt><trkpt lat="39.23648826246557" lon="16.801907125194717"><ele>445.0</ele><time>2026-03-28T12:00:07Z</time></trkpt><trkpt lat="39.23645900894301" lon="16.801803788830668"><ele>444.0</ele><time>2026-03-28T12:00:08Z</time></trkpt><trkpt lat="39.23643611523892" lon="16.80170221284894"><ele>443.0</ele><time>2026-03-28T12:00:09Z</time></trkpt><trkpt lat="39.23642901580206" lon="16.801580937222358"><ele>442.0</ele><time>2026-03-28T12:00:10Z</time></trkpt><trkpt lat="39.236380192619634" lon="16.80147526491387"><ele>441.0</ele><time>2026-03-28T12:00:11Z</time></trkpt><trkpt lat="39.23631203825889" lon="16.801388403990106"><ele>440.0</ele><time>2026-03-28T12:00:12Z</time></trkpt><trkpt lat="39.23623469725109" lon="16.801306661081416"><ele>440.0</ele><time>2026-03-28T12:00:13Z</time></trkpt><trkpt lat="39.23614110951644" lon="16.801258696475458"><ele>440.0</ele><time>2026-03-28T12:00:14Z</time></trkpt><trkpt lat="39.23603272006447" lon="16.80123697416469"><ele>440.0</ele><time>2026-03-28T12:00:15Z</time></trkpt><trkpt lat="39.23592087255832" lon="16.80125394100708"><ele>440.0</ele><time>2026-03-28T12:00:16Z</time></trkpt><trkpt lat="39.23581566637629" lon="16.801312757758133"><ele>440.0</ele><time>2026-03-28T12:00:17Z</time></trkpt><trkpt lat="39.23572566915607" lon="16.80140468847595"><ele>440.0</ele><time>2026-03-28T12:00:18Z</time></trkpt><trkpt lat="39.23565081632361" lon="16.80151367341998"><ele>440.0</ele><time>2026-03-28T12:00:19Z</time></trkpt><trkpt lat="39.235579358293535" lon="16.801625089460654"><ele>440.0</ele><time>2026-03-28T12:00:20Z</time></trkpt><trkpt lat="39.23550673638623" lon="16.801738320186733"><ele>440.0</ele><time>2026-03-28T12:00:21Z</time></trkpt><trkpt lat="39.23543806545269" lon="16.80184539063442"><ele>440.0</ele><time>2026-03-28T12:00:22Z</time></trkpt><trkpt lat="39.235383782181835" lon="16.801963116002554"><ele>438.2</ele><time>2026-03-28T12:00:23Z</time></trkpt><trkpt lat="39.23531435309725" lon="16.802070203372722"><ele>436.4</ele><time>2026-03-28T12:00:24Z</time></trkpt><trkpt lat="39.23524248222949" lon="16.802180870643877"><ele>434.6</ele><time>2026-03-28T12:00:25Z</time></trkpt><trkpt lat="39.235172765887164" lon="16.80228999039283"><ele>432.8</ele><time>2026-03-28T12:00:26Z</time></trkpt><trkpt lat="39.235103011420506" lon="16.802394785554146"><ele>431.0</ele><time>2026-03-28T12:00:27Z</time></trkpt><trkpt lat="39.23503268539057" lon="16.80249682082465"><ele>431.0</ele><time>2026-03-28T12:00:28Z</time></trkpt><trkpt lat="39.23496430686768" lon="16.80259923874785"><ele>431.0</ele><time>2026-03-28T12:00:29Z</time></trkpt><trkpt lat="39.23490042910348" lon="16.802700699053464"><ele>431.0</ele><time>2026-03-28T12:00:30Z</time></trkpt><trkpt lat="39.234834174890324" lon="16.80279232675769"><ele>431.0</ele><time>2026-03-28T12:00:31Z</time></trkpt><trkpt lat="39.23477276546808" lon="16.802891811951753"><ele>431.0</ele><time>2026-03-28T12:00:32Z</time></trkpt><trkpt lat="39.23471568127066" lon="16.802995562370914"><ele>430.0</ele><time>2026-03-28T12:00:33Z</time></trkpt><trkpt lat="39.234664421349734" lon="16.80310465686455"><ele>429.0</ele><time>2026-03-28T12:00:34Z</time></trkpt><trkpt lat="39.234619503308224" lon="16.803218001969803"><ele>428.0</ele><time>2026-03-28T12:00:35Z</time></trkpt><trkpt lat="39.23457461258004" lon="16.803333410024592"><ele>427.0</ele><time>2026-03-28T12:00:36Z</time></trkpt><trkpt lat="39.234535944507044" lon="16.803451130057997"><ele>426.0</ele><time>2026-03-28T12:00:37Z</time></trkpt><trkpt lat="39.23449372862122" lon="16.803562267870696"><ele>426.0</ele><time>2026-03-28T12:00:38Z</time></trkpt><trkpt lat="39.23445981895172" lon="16.803668514822824"><ele>426.0</ele><time>2026-03-28T12:00:39Z</time></trkpt><trkpt lat="39.23443304387795" lon="16.80376775478348"><ele>426.0</ele><time>2026-03-28T12:00:40Z</time></trkpt><trkpt lat="39.23442329788044" lon="16.80386725046926"><ele>426.0</ele><time>2026-03-28T12:00:41Z</time></trkpt><trkpt lat="39.23443200527959" lon="16.8039701562702"><ele>426.0</ele><time>2026-03-28T12:00:42Z</time></trkpt><trkpt lat="39.234458964691264" lon="16.804068285865636"><ele>426.0</ele><time>2026-03-28T12:00:43Z</time></trkpt><trkpt lat="39.234500306726694" lon="16.804160290756617"><ele>426.0</ele><time>2026-03-28T12:00:44Z</time></trkpt><trkpt lat="39.23455863157653" lon="16.80423031885432"><ele>426.0</ele><time>2026-03-28T12:00:45Z</time></trkpt><trkpt lat="39.23463192174235" lon="16.8042774708713"><ele>426.0</ele><time>2026-03-28T12:00:46Z</time></trkpt><trkpt lat="39.23471319394802" lon="16.804285971911543"><ele>426.0</ele><time>2026-03-28T12:00:47Z</time></trkpt><trkpt lat="39.23479411514215" lon="16.804294525029636"><ele>426.0</ele><time>2026-03-28T12:00:48Z</time></trkpt><trkpt lat="39.234870710705486" lon="16.804304314188837"><ele>426.0</ele><time>2026-03-28T12:00:49Z</time></trkpt><trkpt lat="39.234945914623026" lon="16.804319760793174"><ele>426.0</ele><time>2026-03-28T12:00:50Z</time></trkpt><trkpt lat="39.23503297393424" lon="16.804325782962987"><ele>426.0</ele><time>2026-03-28T12:00:51Z</time></trkpt><trkpt lat="39.23510012077988" lon="16.80439054242566"><ele>426.0</ele><time>2026-03-28T12:00:52Z</time></trkpt><trkpt lat="39.23513902842447" lon="16.804485037398155"><ele>426.0</ele><time>2026-03-28T12:00:53Z</time></trkpt><trkpt lat="39.23518219399803" lon="16.80457337780369"><ele>426.0</ele><time>2026-03-28T12:00:54Z</time></trkpt><trkpt lat="39.23519649736088" lon="16.804687136557142"><ele>426.0</ele><time>2026-03-28T12:00:55Z</time></trkpt><trkpt lat="39.23520241414569" lon="16.804811405753625"><ele>424.0</ele><time>2026-03-28T12:00:56Z</time></trkpt><trkpt lat="39.23519640843357" lon="16.804936646268494"><ele>422.0</ele><time>2026-03-28T12:00:57Z</time></trkpt><trkpt lat="39.23517699614211" lon="16.805052858868855"><ele>420.0</ele><time>2026-03-28T12:00:58Z</time></trkpt><trkpt lat="39.23514387474392" lon="16.805167770973103"><ele>418.0</ele><time>2026-03-28T12:00:59Z</time></trkpt><trkpt lat="39.23509032394527" lon="16.80526743730969"><ele>416.0</ele><time>2026-03-28T12:01:00Z</time></trkpt><trkpt lat="39.23502248156334" lon="16.805350427205006"><ele>414.66666666666663</ele><time>2026-03-28T12:01:01Z</time></trkpt><trkpt lat="39.234945873707666" lon="16.805377664924585"><ele>413.3333333333333</ele><time>2026-03-28T12:01:02Z</time></trkpt><trkpt lat="39.234858956474135" lon="16.805384188234395"><ele>412.0</ele><time>2026-03-28T12:01:03Z</time></trkpt><trkpt lat="39.23477113521155" lon="16.805375457605333"><ele>410.66666666666663</ele><time>2026-03-28T12:01:04Z</time></trkpt><trkpt lat="39.234678833996405" lon="16.80536200319375"><ele>409.3333333333333</ele><time>2026-03-28T12:01:05Z</time></trkpt><trkpt lat="39.23458757595416" lon="16.80534998092449"><ele>408.0</ele><time>2026-03-28T12:01:06Z</time></trkpt><trkpt lat="39.2344895673967" lon="16.80534473953417"><ele>408.0</ele><time>2026-03-28T12:01:07Z</time></trkpt><trkpt lat="39.23438364386191" lon="16.80538725273233"><ele>408.0</ele><time>2026-03-28T12:01:08Z</time></trkpt><trkpt lat="39.234299340522035" lon="16.805478883035764"><ele>408.0</ele><time>2026-03-28T12:01:09Z</time></trkpt><trkpt lat="39.23423357897765" lon="16.805608991689166"><ele>408.0</ele><time>2026-03-28T12:01:10Z</time></trkpt><trkpt lat="39.23419356543912" lon="16.805737480777886"><ele>408.0</ele><time>2026-03-28T12:01:11Z</time></trkpt><trkpt lat="39.234157105054216" lon="16.805868136464607"><ele>406.0</ele><time>2026-03-28T12:01:12Z</time></trkpt><trkpt lat="39.23412075971756" lon="16.805997964025504"><ele>404.0</ele><time>2026-03-28T12:01:13Z</time></trkpt><trkpt lat="39.23408424282147" lon="16.80611906140549"><ele>402.0</ele><time>2026-03-28T12:01:14Z</time></trkpt><trkpt lat="39.23404804713446" lon="16.806229492495206"><ele>400.0</ele><time>2026-03-28T12:01:15Z</time></trkpt><trkpt lat="39.234010913172284" lon="16.806327288746342"><ele>398.0</ele><time>2026-03-28T12:01:16Z</time></trkpt><trkpt lat="39.23397291231594" lon="16.80640912203691"><ele>397.59999999999997</ele><time>2026-03-28T12:01:17Z</time></trkpt><trkpt lat="39.23389805754219" lon="16.806508172158694"><ele>397.2</ele><time>2026-03-28T12:01:19Z</time></trkpt><trkpt lat="39.23377332185731" lon="16.806522276779106"><ele>396.8</ele><time>2026-03-28T12:01:21Z</time></trkpt><trkpt lat="39.23374116655047" lon="16.806432979973533"><ele>396.4</ele><time>2026-03-28T12:01:22Z</time></trkpt><trkpt lat="39.23370632044641" lon="16.806342987686683"><ele>396.0</ele><time>2026-03-28T12:01:23Z</time></trkpt><trkpt lat="39.233661323058705" lon="16.80625729675992"><ele>396.0</ele><time>2026-03-28T12:01:24Z</time></trkpt><trkpt lat="39.23360425218938" lon="16.80618127516696"><ele>396.0</ele><time>2026-03-28T12:01:25Z</time></trkpt><trkpt lat="39.23352757624946" lon="16.80612370985972"><ele>396.0</ele><time>2026-03-28T12:01:26Z</time></trkpt><trkpt lat="39.23342960597295" lon="16.806093955448468"><ele>396.0</ele><time>2026-03-28T12:01:27Z</time></trkpt><trkpt lat="39.233325490530966" lon="16.80608408767156"><ele>396.0</ele><time>2026-03-28T12:01:28Z</time></trkpt><trkpt lat="39.233222172958286" lon="16.806079427978975"><ele>395.0</ele><time>2026-03-28T12:01:29Z</time></trkpt><trkpt lat="39.23311960499794" lon="16.8060776252143"><ele>394.0</ele><time>2026-03-28T12:01:30Z</time></trkpt><trkpt lat="39.23302158277018" lon="16.806077625213018"><ele>393.0</ele><time>2026-03-28T12:01:31Z</time></trkpt><trkpt lat="39.232927740774315" lon="16.806079355988743"><ele>392.0</ele><time>2026-03-28T12:01:32Z</time></trkpt><trkpt lat="39.232841303586085" lon="16.806079591948325"><ele>391.0</ele><time>2026-03-28T12:01:33Z</time></trkpt><trkpt lat="39.23276458755509" lon="16.806077131028072"><ele>391.00000000000006</ele><time>2026-03-28T12:01:34Z</time></trkpt><trkpt lat="39.23268791970038" lon="16.806056322322053"><ele>391.0</ele><time>2026-03-28T12:01:35Z</time></trkpt><trkpt lat="39.232613711056224" lon="16.806022830013816"><ele>391.0</ele><time>2026-03-28T12:01:36Z</time></trkpt><trkpt lat="39.23255001897895" lon="16.80596971011555"><ele>391.0</ele><time>2026-03-28T12:01:37Z</time></trkpt><trkpt lat="39.23248856563642" lon="16.80590034453963"><ele>391.00000000000006</ele><time>2026-03-28T12:01:38Z</time></trkpt><trkpt lat="39.232412426562625" lon="16.805817182056533"><ele>391.0</ele><time>2026-03-28T12:01:39Z</time></trkpt><trkpt lat="39.232314030020504" lon="16.80574261895033"><ele>391.8</ele><time>2026-03-28T12:01:40Z</time></trkpt><trkpt lat="39.23222594397701" lon="16.80570985155355"><ele>392.6</ele><time>2026-03-28T12:01:41Z</time></trkpt><trkpt lat="39.2321366144095" lon="16.805676621518213"><ele>393.4</ele><time>2026-03-28T12:01:42Z</time></trkpt><trkpt lat="39.232044926198334" lon="16.805642514082386"><ele>394.2</ele><time>2026-03-28T12:01:43Z</time></trkpt><trkpt lat="39.23195057401596" lon="16.80561182986785"><ele>395.0</ele><time>2026-03-28T12:01:44Z</time></trkpt><trkpt lat="39.231809550983996" lon="16.805798593415158"><ele>395.0</ele><time>2026-03-28T12:01:45Z</time></trkpt><trkpt lat="39.23170736199084" lon="16.805857960134144"><ele>395.0</ele><time>2026-03-28T12:01:46Z</time></trkpt><trkpt lat="39.23160038535221" lon="16.805926397498848"><ele>395.0</ele><time>2026-03-28T12:01:47Z</time></trkpt><trkpt lat="39.231478377071014" lon="16.805984759516683"><ele>395.0</ele><time>2026-03-28T12:01:48Z</time></trkpt><trkpt lat="39.23137796216278" lon="16.806081350922394"><ele>393.0</ele><time>2026-03-28T12:01:49Z</time></trkpt><trkpt lat="39.23127806716421" lon="16.806181224664112"><ele>391.0</ele><time>2026-03-28T12:01:50Z</time></trkpt><trkpt lat="39.23117807294009" lon="16.806284832425863"><ele>389.0</ele><time>2026-03-28T12:01:51Z</time></trkpt><trkpt lat="39.23108821285123" lon="16.806402679975246"><ele>387.0</ele><time>2026-03-28T12:01:52Z</time></trkpt><trkpt lat="39.230991784402505" lon="16.8065057824768"><ele>387.0</ele><time>2026-03-28T12:01:53Z</time></trkpt><trkpt lat="39.23089858873946" lon="16.806602800945964"><ele>387.0</ele><time>2026-03-28T12:01:54Z</time></trkpt><trkpt lat="39.2308115598996" lon="16.806688671169688"><ele>387.0</ele><time>2026-03-28T12:01:55Z</time></trkpt><trkpt lat="39.23073152425288" lon="16.806771159251362"><ele>387.0</ele><time>2026-03-28T12:01:56Z</time></trkpt><trkpt lat="39.23065567248382" lon="16.806850757097084"><ele>387.0</ele><time>2026-03-28T12:01:57Z</time></trkpt><trkpt lat="39.230571182995135" lon="16.80691119546911"><ele>386.0</ele><time>2026-03-28T12:01:58Z</time></trkpt><trkpt lat="39.23049607979468" lon="16.806986776212852"><ele>385.0</ele><time>2026-03-28T12:01:59Z</time></trkpt><trkpt lat="39.230418836325775" lon="16.807064501352507"><ele>384.0</ele><time>2026-03-28T12:02:00Z</time></trkpt><trkpt lat="39.230338302809045" lon="16.80714502214541"><ele>383.0</ele><time>2026-03-28T12:02:01Z</time></trkpt><trkpt lat="39.23026869289279" lon="16.807246922775864"><ele>382.0</ele><time>2026-03-28T12:02:02Z</time></trkpt><trkpt lat="39.230228350450886" lon="16.80735625650577"><ele>382.0</ele><time>2026-03-28T12:02:03Z</time></trkpt><trkpt lat="39.23018065002217" lon="16.80746127628061"><ele>382.0</ele><time>2026-03-28T12:02:04Z</time></trkpt><trkpt lat="39.23012169384647" lon="16.807550424488817"><ele>382.0</ele><time>2026-03-28T12:02:05Z</time></trkpt><trkpt lat="39.23005126265782" lon="16.807603592399982"><ele>382.0</ele><time>2026-03-28T12:02:06Z</time></trkpt><trkpt lat="39.22998445410292" lon="16.80763220663554"><ele>382.0</ele><time>2026-03-28T12:02:07Z</time></trkpt><trkpt lat="39.22989378744216" lon="16.80764941972399"><ele>382.0</ele><time>2026-03-28T12:02:08Z</time></trkpt><trkpt lat="39.22979262726687" lon="16.807679656010617"><ele>379.8</ele><time>2026-03-28T12:02:09Z</time></trkpt><trkpt lat="39.229697493222396" lon="16.8077456777305"><ele>377.6</ele><time>2026-03-28T12:02:10Z</time></trkpt><trkpt lat="39.22961665943676" lon="16.807843869716226"><ele>375.40000000000003</ele><time>2026-03-28T12:02:11Z</time></trkpt><trkpt lat="39.22954757452613" lon="16.807952083659615"><ele>373.20000000000005</ele><time>2026-03-28T12:02:12Z</time></trkpt><trkpt lat="39.22948534909947" lon="16.808070867556463"><ele>371.0</ele><time>2026-03-28T12:02:13Z</time></trkpt><trkpt lat="39.22939338128269" lon="16.808146713661383"><ele>371.0</ele><time>2026-03-28T12:02:14Z</time></trkpt><trkpt lat="39.22930822209792" lon="16.80820673848191"><ele>371.0</ele><time>2026-03-28T12:02:15Z</time></trkpt><trkpt lat="39.22922094569059" lon="16.80824163589507"><ele>371.0</ele><time>2026-03-28T12:02:16Z</time></trkpt><trkpt lat="39.229129057082936" lon="16.808261756568644"><ele>371.0</ele><time>2026-03-28T12:02:17Z</time></trkpt><trkpt lat="39.229035477105334" lon="16.80826925851016"><ele>371.0</ele><time>2026-03-28T12:02:18Z</time></trkpt><trkpt lat="39.22894101699592" lon="16.808282265285957"><ele>370.5</ele><time>2026-03-28T12:02:19Z</time></trkpt><trkpt lat="39.22884715028226" lon="16.80827171414325"><ele>370.0</ele><time>2026-03-28T12:02:20Z</time></trkpt><trkpt lat="39.22875730789853" lon="16.808256426724597"><ele>369.5</ele><time>2026-03-28T12:02:21Z</time></trkpt><trkpt lat="39.228676336931244" lon="16.80824044515067"><ele>369.0</ele><time>2026-03-28T12:02:22Z</time></trkpt><trkpt lat="39.22860455053277" lon="16.808223479779546"><ele>368.5</ele><time>2026-03-28T12:02:23Z</time></trkpt><trkpt lat="39.22854044904473" lon="16.808193857114997"><ele>368.0</ele><time>2026-03-28T12:02:24Z</time></trkpt><trkpt lat="39.228461272869794" lon="16.80819129542548"><ele>368.0</ele><time>2026-03-28T12:02:25Z</time></trkpt><trkpt lat="39.22836360664169" lon="16.808263120637555"><ele>368.0</ele><time>2026-03-28T12:02:27Z</time></trkpt><trkpt lat="39.228266227315544" lon="16.808316894599272"><ele>368.0</ele><time>2026-03-28T12:02:29Z</time></trkpt><trkpt lat="39.228183459226116" lon="16.80840175906655"><ele>368.0</ele><time>2026-03-28T12:02:31Z</time></trkpt><trkpt lat="39.22810983350654" lon="16.808577721861738"><ele>366.4</ele><time>2026-03-28T12:02:33Z</time></trkpt><trkpt lat="39.228063084862036" lon="16.808708895146772"><ele>364.79999999999995</ele><time>2026-03-28T12:02:34Z</time></trkpt><trkpt lat="39.22800817907696" lon="16.808828630329632"><ele>363.2</ele><time>2026-03-28T12:02:35Z</time></trkpt><trkpt lat="39.22795751833527" lon="16.80894194411342"><ele>361.6</ele><time>2026-03-28T12:02:36Z</time></trkpt><trkpt lat="39.22791156395637" lon="16.80905906570977"><ele>360.0</ele><time>2026-03-28T12:02:37Z</time></trkpt><trkpt lat="39.227865882192596" lon="16.80917500975158"><ele>360.0</ele><time>2026-03-28T12:02:38Z</time></trkpt><trkpt lat="39.227805691391666" lon="16.809276656519337"><ele>360.0</ele><time>2026-03-28T12:02:39Z</time></trkpt><trkpt lat="39.22776014117952" lon="16.809381615633917"><ele>360.0</ele><time>2026-03-28T12:02:40Z</time></trkpt><trkpt lat="39.22773677471994" lon="16.80949483210732"><ele>360.0</ele><time>2026-03-28T12:02:41Z</time></trkpt><trkpt lat="39.2276899722217" lon="16.809585714894077"><ele>360.0</ele><time>2026-03-28T12:02:42Z</time></trkpt><trkpt lat="39.227633660698714" lon="16.8096754140062"><ele>359.8</ele><time>2026-03-28T12:02:43Z</time></trkpt><trkpt lat="39.22755207495551" lon="16.809730621595417"><ele>359.6</ele><time>2026-03-28T12:02:44Z</time></trkpt><trkpt lat="39.227468145111786" lon="16.809777429126186"><ele>359.4</ele><time>2026-03-28T12:02:45Z</time></trkpt><trkpt lat="39.227382612923634" lon="16.80981064728191"><ele>359.2</ele><time>2026-03-28T12:02:46Z</time></trkpt><trkpt lat="39.22729727897842" lon="16.809829387186806"><ele>359.0</ele><time>2026-03-28T12:02:47Z</time></trkpt><trkpt lat="39.2272075409628" lon="16.809854025769717"><ele>357.6666666666667</ele><time>2026-03-28T12:02:48Z</time></trkpt><trkpt lat="39.22712237740044" lon="16.809880716013254"><ele>356.33333333333337</ele><time>2026-03-28T12:02:49Z</time></trkpt><trkpt lat="39.22703538891613" lon="16.80990900323894"><ele>355.0</ele><time>2026-03-28T12:02:50Z</time></trkpt><trkpt lat="39.22695041649816" lon="16.809938092693315"><ele>353.6666666666667</ele><time>2026-03-28T12:02:51Z</time></trkpt><trkpt lat="39.22686596968232" lon="16.809967879893925"><ele>352.3333333333333</ele><time>2026-03-28T12:02:52Z</time></trkpt><trkpt lat="39.22678667101454" lon="16.80999929956892"><ele>351.0</ele><time>2026-03-28T12:02:53Z</time></trkpt><trkpt lat="39.226704912071426" lon="16.81003169403676"><ele>351.0</ele><time>2026-03-28T12:02:54Z</time></trkpt><trkpt lat="39.22661642903431" lon="16.810065676022724"><ele>351.0</ele><time>2026-03-28T12:02:55Z</time></trkpt><trkpt lat="39.22651851302522" lon="16.810102346741076"><ele>351.0</ele><time>2026-03-28T12:02:56Z</time></trkpt><trkpt lat="39.22641549017657" lon="16.81013908487899"><ele>351.0</ele><time>2026-03-28T12:02:57Z</time></trkpt><trkpt lat="39.22631540117456" lon="16.810178881719953"><ele>351.0</ele><time>2026-03-28T12:02:58Z</time></trkpt><trkpt lat="39.226216768142336" lon="16.810204802784373"><ele>349.0</ele><time>2026-03-28T12:02:59Z</time></trkpt><trkpt lat="39.22612150500485" lon="16.81023055547579"><ele>347.0</ele><time>2026-03-28T12:03:00Z</time></trkpt><trkpt lat="39.22603265195323" lon="16.810262801312287"><ele>345.0</ele><time>2026-03-28T12:03:01Z</time></trkpt><trkpt lat="39.225950861626394" lon="16.81030223049322"><ele>343.0</ele><time>2026-03-28T12:03:02Z</time></trkpt><trkpt lat="39.22587707276476" lon="16.81038439225904"><ele>341.0</ele><time>2026-03-28T12:03:03Z</time></trkpt><trkpt lat="39.2258271022052" lon="16.810507503835645"><ele>341.0</ele><time>2026-03-28T12:03:04Z</time></trkpt><trkpt lat="39.22577632062881" lon="16.81062711014663"><ele>341.0</ele><time>2026-03-28T12:03:05Z</time></trkpt><trkpt lat="39.22572999197149" lon="16.810744371610244"><ele>341.0</ele><time>2026-03-28T12:03:06Z</time></trkpt><trkpt lat="39.22571437746023" lon="16.81086477997888"><ele>341.0</ele><time>2026-03-28T12:03:07Z</time></trkpt><trkpt lat="39.22571976785676" lon="16.810988764102053"><ele>341.0</ele><time>2026-03-28T12:03:08Z</time></trkpt><trkpt lat="39.22574041738622" lon="16.811125175837887"><ele>339.25</ele><time>2026-03-28T12:03:09Z</time></trkpt><trkpt lat="39.225778810015306" lon="16.811267100477995"><ele>337.5</ele><time>2026-03-28T12:03:10Z</time></trkpt><trkpt lat="39.225850324472816" lon="16.81139605955467"><ele>335.75</ele><time>2026-03-28T12:03:11Z</time></trkpt><trkpt lat="39.225893862359065" lon="16.811539193064927"><ele>334.0</ele><time>2026-03-28T12:03:12Z</time></trkpt><trkpt lat="39.22593864050077" lon="16.81167237462545"><ele>334.0</ele><time>2026-03-28T12:03:13Z</time></trkpt><trkpt lat="39.22598066678435" lon="16.811797282001397"><ele>334.0</ele><time>2026-03-28T12:03:14Z</time></trkpt><trkpt lat="39.2260196633227" lon="16.811912292609964"><ele>334.0</ele><time>2026-03-28T12:03:15Z</time></trkpt><trkpt lat="39.226059656513954" lon="16.81201877376518"><ele>334.0</ele><time>2026-03-28T12:03:16Z</time></trkpt><trkpt lat="39.22608664583467" lon="16.812119539096088"><ele>334.0</ele><time>2026-03-28T12:03:17Z</time></trkpt><trkpt lat="39.22609687122162" lon="16.81221512069675"><ele>333.0</ele><time>2026-03-28T12:03:18Z</time></trkpt><trkpt lat="39.226083096978584" lon="16.812308230562067"><ele>332.0</ele><time>2026-03-28T12:03:19Z</time></trkpt><trkpt lat="39.22603246598254" lon="16.812373362932398"><ele>331.0</ele><time>2026-03-28T12:03:20Z</time></trkpt><trkpt lat="39.22595202474495" lon="16.81241801260914"><ele>330.0</ele><time>2026-03-28T12:03:21Z</time></trkpt><trkpt lat="39.22585745717475" lon="16.812438663199853"><ele>329.0</ele><time>2026-03-28T12:03:22Z</time></trkpt><trkpt lat="39.22577420757931" lon="16.812482256369318"><ele>328.0</ele><time>2026-03-28T12:03:23Z</time></trkpt><trkpt lat="39.22569623893975" lon="16.81251350717437"><ele>326.5</ele><time>2026-03-28T12:03:24Z</time></trkpt><trkpt lat="39.22562251252508" lon="16.812542440082098"><ele>325.0</ele><time>2026-03-28T12:03:25Z</time></trkpt><trkpt lat="39.22555227993858" lon="16.812556711121104"><ele>323.5</ele><time>2026-03-28T12:03:26Z</time></trkpt><trkpt lat="39.225460186727005" lon="16.812632110909416"><ele>322.0</ele><time>2026-03-28T12:03:28Z</time></trkpt><trkpt lat="39.22545077748863" lon="16.812794743084226"><ele>320.5</ele><time>2026-03-28T12:03:30.001Z</time></trkpt><trkpt lat="39.225476614946174" lon="16.812871387175115"><ele>319.0</ele><time>2026-03-28T12:03:31.001Z</time></trkpt><trkpt lat="39.225537956715414" lon="16.81290080303851"><ele>319.0</ele><time>2026-03-28T12:03:32.001Z</time></trkpt><trkpt lat="39.22560813922654" lon="16.812923493819902"><ele>319.0</ele><time>2026-03-28T12:03:33.001Z</time></trkpt><trkpt lat="39.22567486801557" lon="16.81295097234374"><ele>319.0</ele><time>2026-03-28T12:03:34.001Z</time></trkpt><trkpt lat="39.225754742477854" lon="16.81293645933399"><ele>319.0</ele><time>2026-03-28T12:03:35.001Z</time></trkpt><trkpt lat="39.225824516355445" lon="16.813005746266153"><ele>319.0</ele><time>2026-03-28T12:03:36.001Z</time></trkpt><trkpt lat="39.22585296952828" lon="16.813124606402567"><ele>319.0</ele><time>2026-03-28T12:03:37.001Z</time></trkpt><trkpt lat="39.22584607212563" lon="16.813238389501002"><ele>319.0</ele><time>2026-03-28T12:03:38.001Z</time></trkpt><trkpt lat="39.22583090152734" lon="16.81335529626569"><ele>319.0</ele><time>2026-03-28T12:03:39.001Z</time></trkpt><trkpt lat="39.225837420049565" lon="16.813477828387484"><ele>319.0</ele><time>2026-03-28T12:03:40.001Z</time></trkpt><trkpt lat="39.225825274601036" lon="16.813595153277127"><ele>319.0</ele><time>2026-03-28T12:03:41.001Z</time></trkpt><trkpt lat="39.22580870916882" lon="16.81370886267716"><ele>319.0</ele><time>2026-03-28T12:03:42.001Z</time></trkpt><trkpt lat="39.22577684914547" lon="16.813813463129446"><ele>317.66666666666663</ele><time>2026-03-28T12:03:43.001Z</time></trkpt><trkpt lat="39.2257520139429" lon="16.81391047354337"><ele>316.3333333333333</ele><time>2026-03-28T12:03:44.001Z</time></trkpt><trkpt lat="39.22571683699112" lon="16.813989874490005"><ele>315.0</ele><time>2026-03-28T12:03:45.001Z</time></trkpt><trkpt lat="39.22567269596236" lon="16.814050670583807"><ele>313.6666666666667</ele><time>2026-03-28T12:03:46.001Z</time></trkpt><trkpt lat="39.22555723531167" lon="16.814109891748515"><ele>312.33333333333337</ele><time>2026-03-28T12:03:48.001Z</time></trkpt><trkpt lat="39.22547134981247" lon="16.814140258647157"><ele>311.0</ele><time>2026-03-28T12:03:49.001Z</time></trkpt><trkpt lat="39.22538110605944" lon="16.81416854037793"><ele>309.5</ele><time>2026-03-28T12:03:50.001Z</time></trkpt><trkpt lat="39.22529546437509" lon="16.81419537987421"><ele>308.0</ele><time>2026-03-28T12:03:51.001Z</time></trkpt><trkpt lat="39.22521538756404" lon="16.814220475332213"><ele>306.5</ele><time>2026-03-28T12:03:52.001Z</time></trkpt><trkpt lat="39.2251393225354" lon="16.81424431366066"><ele>305.0</ele><time>2026-03-28T12:03:53.001Z</time></trkpt><trkpt lat="39.22506827128685" lon="16.81428129836939"><ele>303.5</ele><time>2026-03-28T12:03:54.001Z</time></trkpt><trkpt lat="39.225002377903834" lon="16.81431016373359"><ele>302.0</ele><time>2026-03-28T12:03:55.001Z</time></trkpt><trkpt lat="39.22494405787597" lon="16.81434983216745"><ele>301.33333333333337</ele><time>2026-03-28T12:03:56.001Z</time></trkpt><trkpt lat="39.224898251311714" lon="16.814407633157185"><ele>300.6666666666667</ele><time>2026-03-28T12:03:57.001Z</time></trkpt><trkpt lat="39.22486362038763" lon="16.814481714879715"><ele>300.0</ele><time>2026-03-28T12:03:58.001Z</time></trkpt><trkpt lat="39.224848131379716" lon="16.81458184884795"><ele>299.3333333333333</ele><time>2026-03-28T12:03:59.001Z</time></trkpt><trkpt lat="39.224842961926974" lon="16.814691813246124"><ele>298.66666666666663</ele><time>2026-03-28T12:04:00.001Z</time></trkpt><trkpt lat="39.22487457337386" lon="16.81479274356888"><ele>298.0</ele><time>2026-03-28T12:04:01.001Z</time></trkpt><trkpt lat="39.22492812343434" lon="16.814879352158744"><ele>298.0</ele><time>2026-03-28T12:04:02.001Z</time></trkpt><trkpt lat="39.224991241312814" lon="16.814959701485517"><ele>298.0</ele><time>2026-03-28T12:04:03.001Z</time></trkpt><trkpt lat="39.225057637427035" lon="16.815036560241087"><ele>298.0</ele><time>2026-03-28T12:04:04.001Z</time></trkpt><trkpt lat="39.22512310913143" lon="16.81511339752723"><ele>298.0</ele><time>2026-03-28T12:04:05.001Z</time></trkpt><trkpt lat="39.22518064960149" lon="16.815188739511118"><ele>298.0</ele><time>2026-03-28T12:04:06.001Z</time></trkpt><trkpt lat="39.22524429493249" lon="16.815314803820577"><ele>296.2</ele><time>2026-03-28T12:04:07.001Z</time></trkpt><trkpt lat="39.22523419037697" lon="16.815457704280202"><ele>294.4</ele><time>2026-03-28T12:04:08.001Z</time></trkpt><trkpt lat="39.22516198583476" lon="16.815539315897727"><ele>292.59999999999997</ele><time>2026-03-28T12:04:09.001Z</time></trkpt><trkpt lat="39.225128954473234" lon="16.815631999500358"><ele>290.8</ele><time>2026-03-28T12:04:10.001Z</time></trkpt><trkpt lat="39.225060636073344" lon="16.815615841174942"><ele>289.0</ele><time>2026-03-28T12:04:11.001Z</time></trkpt><trkpt lat="39.22495831370517" lon="16.81559453595398"><ele>289.0</ele><time>2026-03-28T12:04:13.001Z</time></trkpt><trkpt lat="39.22487070294613" lon="16.815562979855518"><ele>289.0</ele><time>2026-03-28T12:04:14Z</time></trkpt><trkpt lat="39.224777885920496" lon="16.81552256045745"><ele>289.0</ele><time>2026-03-28T12:04:15Z</time></trkpt><trkpt lat="39.224684223615476" lon="16.815483067849232"><ele>289.0</ele><time>2026-03-28T12:04:16Z</time></trkpt><trkpt lat="39.224599114814495" lon="16.815449819638296"><ele>289.0</ele><time>2026-03-28T12:04:17Z</time></trkpt><trkpt lat="39.22451493798742" lon="16.815420008598938"><ele>287.2</ele><time>2026-03-28T12:04:18Z</time></trkpt><trkpt lat="39.22442765181992" lon="16.815402173053503"><ele>285.4</ele><time>2026-03-28T12:04:19Z</time></trkpt><trkpt lat="39.224320685160954" lon="16.81544027248878"><ele>283.6</ele><time>2026-03-28T12:04:20Z</time></trkpt><trkpt lat="39.22425803347885" lon="16.81554739399556"><ele>281.8</ele><time>2026-03-28T12:04:21Z</time></trkpt><trkpt lat="39.22426248010931" lon="16.815655050163567"><ele>280.0</ele><time>2026-03-28T12:04:22Z</time></trkpt><trkpt lat="39.224261564224726" lon="16.815743874327307"><ele>280.0</ele><time>2026-03-28T12:04:23Z</time></trkpt><trkpt lat="39.224279000294466" lon="16.81584609772764"><ele>280.0</ele><time>2026-03-28T12:04:24Z</time></trkpt><trkpt lat="39.224321088327386" lon="16.81594637730378"><ele>280.0</ele><time>2026-03-28T12:04:25Z</time></trkpt><trkpt lat="39.224340734070644" lon="16.816074302487582"><ele>280.0</ele><time>2026-03-28T12:04:26Z</time></trkpt><trkpt lat="39.224363653082335" lon="16.816202093988043"><ele>280.0</ele><time>2026-03-28T12:04:27Z</time></trkpt><trkpt lat="39.2243849448987" lon="16.81632919865856"><ele>278.8333333333333</ele><time>2026-03-28T12:04:28Z</time></trkpt><trkpt lat="39.22440678236318" lon="16.816451732441603"><ele>277.66666666666663</ele><time>2026-03-28T12:04:29Z</time></trkpt><trkpt lat="39.224424532301875" lon="16.81657710285404"><ele>276.5</ele><time>2026-03-28T12:04:30Z</time></trkpt><trkpt lat="39.22447312201621" lon="16.816672439767654"><ele>275.3333333333333</ele><time>2026-03-28T12:04:31Z</time></trkpt><trkpt lat="39.224526351532674" lon="16.816752455852086"><ele>274.1666666666667</ele><time>2026-03-28T12:04:32Z</time></trkpt><trkpt lat="39.22458750815229" lon="16.81682252022698"><ele>273.0</ele><time>2026-03-28T12:04:33Z</time></trkpt><trkpt lat="39.224655900570305" lon="16.816886707306555"><ele>271.8333333333333</ele><time>2026-03-28T12:04:34Z</time></trkpt><trkpt lat="39.22472654006114" lon="16.816948342579686"><ele>270.6666666666667</ele><time>2026-03-28T12:04:35Z</time></trkpt><trkpt lat="39.22479135417438" lon="16.817002822650046"><ele>269.5</ele><time>2026-03-28T12:04:36Z</time></trkpt><trkpt lat="39.22485478703581" lon="16.81705535512548"><ele>268.33333333333337</ele><time>2026-03-28T12:04:37Z</time></trkpt><trkpt lat="39.22491624197594" lon="16.817112020295824"><ele>267.1666666666667</ele><time>2026-03-28T12:04:38Z</time></trkpt><trkpt lat="39.22496951676031" lon="16.81716812107513"><ele>266.0</ele><time>2026-03-28T12:04:39Z</time></trkpt><trkpt lat="39.2250171491839" lon="16.817233322879865"><ele>266.0</ele><time>2026-03-28T12:04:40Z</time></trkpt><trkpt lat="39.22504754562884" lon="16.817321301283343"><ele>266.0</ele><time>2026-03-28T12:04:41Z</time></trkpt><trkpt lat="39.22502515777728" lon="16.817430249708643"><ele>266.0</ele><time>2026-03-28T12:04:42Z</time></trkpt><trkpt lat="39.22496686487058" lon="16.817547906257918"><ele>266.0</ele><time>2026-03-28T12:04:44Z</time></trkpt><trkpt lat="39.224869211572766" lon="16.817589510304664"><ele>266.0</ele><time>2026-03-28T12:04:46Z</time></trkpt><trkpt lat="39.22479884844302" lon="16.817627765592473"><ele>266.0</ele><time>2026-03-28T12:04:47Z</time></trkpt><trkpt lat="39.22473113097514" lon="16.817678104049257"><ele>264.33333333333337</ele><time>2026-03-28T12:04:48Z</time></trkpt><trkpt lat="39.22465096640928" lon="16.81769843590896"><ele>262.6666666666667</ele><time>2026-03-28T12:04:49Z</time></trkpt><trkpt lat="39.22457544760181" lon="16.817734351107685"><ele>261.0</ele><time>2026-03-28T12:04:50Z</time></trkpt><trkpt lat="39.22449950960935" lon="16.817769872713946"><ele>259.3333333333333</ele><time>2026-03-28T12:04:51Z</time></trkpt><trkpt lat="39.22442452515819" lon="16.817801415928614"><ele>257.66666666666663</ele><time>2026-03-28T12:04:52Z</time></trkpt><trkpt lat="39.22435304812715" lon="16.817827892127962"><ele>256.0</ele><time>2026-03-28T12:04:53Z</time></trkpt><trkpt lat="39.22428103238164" lon="16.817855024128246"><ele>256.0</ele><time>2026-03-28T12:04:54Z</time></trkpt><trkpt lat="39.22421125719968" lon="16.817857686986244"><ele>256.0</ele><time>2026-03-28T12:04:55Z</time></trkpt><trkpt lat="39.22414750581031" lon="16.8178772617953"><ele>256.0</ele><time>2026-03-28T12:04:56Z</time></trkpt><trkpt lat="39.22404154193824" lon="16.8178844903659"><ele>256.0</ele><time>2026-03-28T12:04:58Z</time></trkpt><trkpt lat="39.22393802415854" lon="16.817869263377972"><ele>256.0</ele><time>2026-03-28T12:05:00Z</time></trkpt><trkpt lat="39.22383208838013" lon="16.817846246282695"><ele>254.60000000000002</ele><time>2026-03-28T12:05:02Z</time></trkpt><trkpt lat="39.223717377160284" lon="16.81782132249182"><ele>253.20000000000002</ele><time>2026-03-28T12:05:04Z</time></trkpt><trkpt lat="39.22358840202288" lon="16.817814666621253"><ele>251.79999999999998</ele><time>2026-03-28T12:05:06Z</time></trkpt><trkpt lat="39.22352000196842" lon="16.817792947242165"><ele>250.39999999999998</ele><time>2026-03-28T12:05:07Z</time></trkpt><trkpt lat="39.223449575317616" lon="16.81776077422061"><ele>249.0</ele><time>2026-03-28T12:05:08Z</time></trkpt><trkpt lat="39.22335568085751" lon="16.817821608995228"><ele>249.0</ele><time>2026-03-28T12:05:10Z</time></trkpt><trkpt lat="39.22334053331015" lon="16.817906826593042"><ele>249.0</ele><time>2026-03-28T12:05:11Z</time></trkpt><trkpt lat="39.2233103238241" lon="16.81800078213237"><ele>249.0</ele><time>2026-03-28T12:05:12Z</time></trkpt><trkpt lat="39.22331509338225" lon="16.818099279268136"><ele>249.0</ele><time>2026-03-28T12:05:13Z</time></trkpt><trkpt lat="39.22336066024693" lon="16.818208710250726"><ele>249.0</ele><time>2026-03-28T12:05:14Z</time></trkpt><trkpt lat="39.22342950481817" lon="16.818293581732107"><ele>249.0</ele><time>2026-03-28T12:05:15Z</time></trkpt><trkpt lat="39.22349102597835" lon="16.81838223533724"><ele>249.0</ele><time>2026-03-28T12:05:16Z</time></trkpt><trkpt lat="39.223568208958625" lon="16.818461992092164"><ele>249.0</ele><time>2026-03-28T12:05:17Z</time></trkpt><trkpt lat="39.22364283449112" lon="16.818543454715257"><ele>249.0</ele><time>2026-03-28T12:05:18Z</time></trkpt><trkpt lat="39.22370816795736" lon="16.818622093361878"><ele>249.0</ele><time>2026-03-28T12:05:19Z</time></trkpt><trkpt lat="39.22376967221989" lon="16.81869230417949"><ele>249.0</ele><time>2026-03-28T12:05:20Z</time></trkpt><trkpt lat="39.223831339328456" lon="16.8187526105636"><ele>249.0</ele><time>2026-03-28T12:05:21Z</time></trkpt><trkpt lat="39.22389001863855" lon="16.818788118996295"><ele>248.16666666666666</ele><time>2026-03-28T12:05:22Z</time></trkpt><trkpt lat="39.22396289452142" lon="16.818889102950717"><ele>247.33333333333331</ele><time>2026-03-28T12:05:24Z</time></trkpt><trkpt lat="39.224010006979846" lon="16.818943993110985"><ele>246.5</ele><time>2026-03-28T12:05:27Z</time></trkpt><trkpt lat="39.22407288738469" lon="16.819017254241217"><ele>245.66666666666666</ele><time>2026-03-28T12:05:31Z</time></trkpt><trkpt lat="39.22412283291109" lon="16.819075445110904"><ele>244.83333333333331</ele><time>2026-03-28T12:06:06Z</time></trkpt><trkpt lat="39.224174313064054" lon="16.81913180021607"><ele>244.0</ele><time>2026-03-28T12:06:13Z</time></trkpt><trkpt lat="39.22405344215008" lon="16.819276504535615"><ele>243.49999999999997</ele><time>2026-03-28T12:07:51Z</time></trkpt><trkpt lat="39.223971126135055" lon="16.819319624751614"><ele>243.0</ele><time>2026-03-28T12:07:53Z</time></trkpt><trkpt lat="39.223897600771345" lon="16.8192378904202"><ele>242.5</ele><time>2026-03-28T12:07:54Z</time></trkpt><trkpt lat="39.22381328594684" lon="16.81926906999615"><ele>242.0</ele><time>2026-03-28T12:07:56Z</time></trkpt><trkpt lat="39.22374136114202" lon="16.819285119351044"><ele>241.49999999999997</ele><time>2026-03-28T12:07:58Z</time></trkpt><trkpt lat="39.223673924172594" lon="16.819298308781146"><ele>241.0</ele><time>2026-03-28T12:08:00Z</time></trkpt><trkpt lat="39.22361094443274" lon="16.819310626462702"><ele>239.20000000000002</ele><time>2026-03-28T12:08:02Z</time></trkpt><trkpt lat="39.22353116404676" lon="16.819326230043234"><ele>237.40000000000003</ele><time>2026-03-28T12:08:04Z</time></trkpt><trkpt lat="39.22343868246719" lon="16.819363259501106"><ele>235.6</ele><time>2026-03-28T12:08:06Z</time></trkpt><trkpt lat="39.22334842771352" lon="16.819398242753895"><ele>233.8</ele><time>2026-03-28T12:08:08Z</time></trkpt><trkpt lat="39.223281217120096" lon="16.819536884391955"><ele>232.0</ele><time>2026-03-28T12:08:10Z</time></trkpt><trkpt lat="39.22325551811712" lon="16.819625208402822"><ele>232.0</ele><time>2026-03-28T12:08:11Z</time></trkpt><trkpt lat="39.22322615570984" lon="16.81972612312632"><ele>232.0</ele><time>2026-03-28T12:08:12Z</time></trkpt><trkpt lat="39.22320538776133" lon="16.81984404239371"><ele>232.0</ele><time>2026-03-28T12:08:13Z</time></trkpt><trkpt lat="39.22315795268975" lon="16.819956017875644"><ele>232.0</ele><time>2026-03-28T12:08:14Z</time></trkpt><trkpt lat="39.22311911525153" lon="16.820069488487807"><ele>232.0</ele><time>2026-03-28T12:08:15Z</time></trkpt><trkpt lat="39.2230808707813" lon="16.820172744962854"><ele>230.83333333333331</ele><time>2026-03-28T12:08:16Z</time></trkpt><trkpt lat="39.223049703828174" lon="16.820271486952507"><ele>229.66666666666666</ele><time>2026-03-28T12:08:17Z</time></trkpt><trkpt lat="39.22300356865559" lon="16.820365031551805"><ele>228.5</ele><time>2026-03-28T12:08:18Z</time></trkpt><trkpt lat="39.22298524164428" lon="16.820471781512495"><ele>227.33333333333331</ele><time>2026-03-28T12:08:19Z</time></trkpt><trkpt lat="39.222937506685966" lon="16.820564725344163"><ele>226.16666666666666</ele><time>2026-03-28T12:08:20Z</time></trkpt><trkpt lat="39.222884606042236" lon="16.820657905825712"><ele>225.0</ele><time>2026-03-28T12:08:21Z</time></trkpt><trkpt lat="39.222828249242035" lon="16.820755689874574"><ele>225.0</ele><time>2026-03-28T12:08:22Z</time></trkpt><trkpt lat="39.22277305694199" lon="16.82084574606616"><ele>225.0</ele><time>2026-03-28T12:08:23Z</time></trkpt><trkpt lat="39.2227040456346" lon="16.820914528538996"><ele>225.0</ele><time>2026-03-28T12:08:24Z</time></trkpt><trkpt lat="39.22265871312008" lon="16.82100287711041"><ele>225.0</ele><time>2026-03-28T12:08:25Z</time></trkpt><trkpt lat="39.2225854428335" lon="16.82103606270887"><ele>225.0</ele><time>2026-03-28T12:08:26Z</time></trkpt><trkpt lat="39.222511211475585" lon="16.82106793699344"><ele>225.0</ele><time>2026-03-28T12:08:27Z</time></trkpt><trkpt lat="39.22242925119486" lon="16.821095141813263"><ele>224.16666666666666</ele><time>2026-03-28T12:08:28Z</time></trkpt><trkpt lat="39.22234835442583" lon="16.821121993654778"><ele>223.33333333333331</ele><time>2026-03-28T12:08:29Z</time></trkpt><trkpt lat="39.2222639443301" lon="16.821157709392605"><ele>222.5</ele><time>2026-03-28T12:08:30Z</time></trkpt><trkpt lat="39.22219078914363" lon="16.821219426223593"><ele>221.66666666666666</ele><time>2026-03-28T12:08:31Z</time></trkpt><trkpt lat="39.22212177973582" lon="16.821293799085456"><ele>220.83333333333331</ele><time>2026-03-28T12:08:32Z</time></trkpt><trkpt lat="39.22207543875774" lon="16.821394480200293"><ele>220.0</ele><time>2026-03-28T12:08:33Z</time></trkpt><trkpt lat="39.222027354434736" lon="16.82148769204046"><ele>220.0</ele><time>2026-03-28T12:08:34Z</time></trkpt><trkpt lat="39.22197837136956" lon="16.82158458031825"><ele>220.0</ele><time>2026-03-28T12:08:35Z</time></trkpt><trkpt lat="39.221918466405825" lon="16.821689259232713"><ele>220.0</ele><time>2026-03-28T12:08:36.001Z</time></trkpt><trkpt lat="39.22185690034704" lon="16.82180198327633"><ele>220.0</ele><time>2026-03-28T12:08:37.001Z</time></trkpt><trkpt lat="39.221783469633564" lon="16.821898608857616"><ele>220.0</ele><time>2026-03-28T12:08:38.001Z</time></trkpt><trkpt lat="39.221725018416564" lon="16.822005720479925"><ele>219.0</ele><time>2026-03-28T12:08:39.001Z</time></trkpt><trkpt lat="39.221668352206486" lon="16.822109515375626"><ele>218.0</ele><time>2026-03-28T12:08:40.001Z</time></trkpt><trkpt lat="39.22161416188606" lon="16.82221118931024"><ele>217.0</ele><time>2026-03-28T12:08:41.001Z</time></trkpt><trkpt lat="39.22156211867912" lon="16.822308370067788"><ele>216.0</ele><time>2026-03-28T12:08:42.001Z</time></trkpt><trkpt lat="39.221504818320874" lon="16.822399610492447"><ele>215.0</ele><time>2026-03-28T12:08:43.001Z</time></trkpt><trkpt lat="39.221437851129544" lon="16.822480424511916"><ele>215.0</ele><time>2026-03-28T12:08:44.001Z</time></trkpt><trkpt lat="39.221356074519065" lon="16.822549276627765"><ele>215.0</ele><time>2026-03-28T12:08:45.001Z</time></trkpt><trkpt lat="39.221266675714354" lon="16.82260443886745"><ele>215.0</ele><time>2026-03-28T12:08:46.001Z</time></trkpt><trkpt lat="39.221171345110086" lon="16.822653265908045"><ele>215.0</ele><time>2026-03-28T12:08:47.001Z</time></trkpt><trkpt lat="39.22107567866902" lon="16.822698367323195"><ele>215.0</ele><time>2026-03-28T12:08:48.001Z</time></trkpt><trkpt lat="39.22098120093749" lon="16.82274032921766"><ele>212.4</ele><time>2026-03-28T12:08:49.001Z</time></trkpt><trkpt lat="39.220888945340356" lon="16.822781304181312"><ele>209.8</ele><time>2026-03-28T12:08:50.001Z</time></trkpt><trkpt lat="39.220798417439475" lon="16.82282340249782"><ele>207.2</ele><time>2026-03-28T12:08:51.001Z</time></trkpt><trkpt lat="39.22071126270849" lon="16.822863888910884"><ele>204.6</ele><time>2026-03-28T12:08:52.001Z</time></trkpt><trkpt lat="39.22062888319255" lon="16.822902157029873"><ele>202.0</ele><time>2026-03-28T12:08:53.001Z</time></trkpt><trkpt lat="39.220554358687984" lon="16.822959132405074"><ele>201.57142857142856</ele><time>2026-03-28T12:08:54.001Z</time></trkpt><trkpt lat="39.220475075167364" lon="16.822992124602315"><ele>201.14285714285714</ele><time>2026-03-28T12:08:55.001Z</time></trkpt><trkpt lat="39.22039704934556" lon="16.82302552705159"><ele>200.71428571428572</ele><time>2026-03-28T12:08:56.001Z</time></trkpt><trkpt lat="39.22032362086856" lon="16.823058859771283"><ele>200.28571428571428</ele><time>2026-03-28T12:08:57.001Z</time></trkpt><trkpt lat="39.22025663619197" lon="16.823091018995825"><ele>199.85714285714286</ele><time>2026-03-28T12:08:58.001Z</time></trkpt><trkpt lat="39.220194285208336" lon="16.82312438001479"><ele>199.42857142857142</ele><time>2026-03-28T12:08:59.001Z</time></trkpt><trkpt lat="39.22013869492724" lon="16.823164496743573"><ele>199.0</ele><time>2026-03-28T12:09:00.001Z</time></trkpt><trkpt lat="39.22008873641138" lon="16.82326797074929"><ele>198.99999999999997</ele><time>2026-03-28T12:09:02.001Z</time></trkpt><trkpt lat="39.220120644607334" lon="16.823404813695273"><ele>199.0</ele><time>2026-03-28T12:09:04.001Z</time></trkpt><trkpt lat="39.220168102937386" lon="16.82348007180756"><ele>199.0</ele><time>2026-03-28T12:09:05.001Z</time></trkpt><trkpt lat="39.22024518840506" lon="16.823507258524536"><ele>199.0</ele><time>2026-03-28T12:09:06.001Z</time></trkpt><trkpt lat="39.220320261052414" lon="16.82349021663295"><ele>198.99999999999997</ele><time>2026-03-28T12:09:07.001Z</time></trkpt><trkpt lat="39.2203925581019" lon="16.82349388312642"><ele>199.0</ele><time>2026-03-28T12:09:08.001Z</time></trkpt><trkpt lat="39.2204583853745" lon="16.823526612387933"><ele>197.83333333333331</ele><time>2026-03-28T12:09:09.001Z</time></trkpt><trkpt lat="39.22050167858426" lon="16.823602333094637"><ele>196.66666666666666</ele><time>2026-03-28T12:09:10.001Z</time></trkpt><trkpt lat="39.22055868705405" lon="16.823679690875412"><ele>195.5</ele><time>2026-03-28T12:09:11.001Z</time></trkpt><trkpt lat="39.22063320626217" lon="16.823733910772738"><ele>194.33333333333331</ele><time>2026-03-28T12:09:12.001Z</time></trkpt><trkpt lat="39.22071010155193" lon="16.82372372839708"><ele>193.16666666666666</ele><time>2026-03-28T12:09:13.001Z</time></trkpt><trkpt lat="39.22077704852857" lon="16.823742507382004"><ele>192.0</ele><time>2026-03-28T12:09:14.001Z</time></trkpt><trkpt lat="39.22088988632409" lon="16.823759623283355"><ele>192.0</ele><time>2026-03-28T12:09:16.001Z</time></trkpt><trkpt lat="39.220894660826204" lon="16.823932128523293"><ele>192.0</ele><time>2026-03-28T12:09:18.001Z</time></trkpt><trkpt lat="39.220853307207335" lon="16.82403606907574"><ele>192.0</ele><time>2026-03-28T12:09:19.001Z</time></trkpt><trkpt lat="39.2208487022315" lon="16.82415229558358"><ele>192.0</ele><time>2026-03-28T12:09:20.001Z</time></trkpt><trkpt lat="39.22086616521815" lon="16.824269555574844"><ele>192.0</ele><time>2026-03-28T12:09:21.001Z</time></trkpt><trkpt lat="39.22091883472629" lon="16.824364832366623"><ele>190.0</ele><time>2026-03-28T12:09:22.001Z</time></trkpt><trkpt lat="39.22099792237003" lon="16.824393269048837"><ele>188.0</ele><time>2026-03-28T12:09:23.001Z</time></trkpt><trkpt lat="39.22108088932552" lon="16.824432693483836"><ele>186.0</ele><time>2026-03-28T12:09:24.001Z</time></trkpt><trkpt lat="39.2211737988826" lon="16.82445882655975"><ele>184.0</ele><time>2026-03-28T12:09:25.001Z</time></trkpt><trkpt lat="39.221270455809055" lon="16.824478788324633"><ele>182.0</ele><time>2026-03-28T12:09:26.001Z</time></trkpt><trkpt lat="39.22136135638378" lon="16.82449772204916"><ele>182.0</ele><time>2026-03-28T12:09:27.001Z</time></trkpt><trkpt lat="39.22144860477819" lon="16.82450240704208"><ele>182.0</ele><time>2026-03-28T12:09:28.001Z</time></trkpt><trkpt lat="39.221538154474295" lon="16.82448563442028"><ele>182.0</ele><time>2026-03-28T12:09:29.001Z</time></trkpt><trkpt lat="39.22162400724142" lon="16.824445013718925"><ele>182.0</ele><time>2026-03-28T12:09:30.001Z</time></trkpt><trkpt lat="39.22170281462489" lon="16.824390475831308"><ele>182.0</ele><time>2026-03-28T12:09:31.001Z</time></trkpt><trkpt lat="39.22177482908605" lon="16.82433943614541"><ele>182.0</ele><time>2026-03-28T12:09:32.001Z</time></trkpt><trkpt lat="39.221842715734056" lon="16.824297279609556"><ele>182.0</ele><time>2026-03-28T12:09:33.001Z</time></trkpt><trkpt lat="39.22190773434728" lon="16.824276595794906"><ele>182.0</ele><time>2026-03-28T12:09:34.001Z</time></trkpt><trkpt lat="39.221979410434265" lon="16.82433693332471"><ele>182.0</ele><time>2026-03-28T12:09:36.001Z</time></trkpt><trkpt lat="39.22198019515012" lon="16.82445166543977"><ele>182.0</ele><time>2026-03-28T12:09:38.001Z</time></trkpt><trkpt lat="39.221936409277134" lon="16.824521596374062"><ele>182.0</ele><time>2026-03-28T12:09:39.001Z</time></trkpt><trkpt lat="39.22187354185504" lon="16.824598263609712"><ele>182.0</ele><time>2026-03-28T12:09:40.001Z</time></trkpt><trkpt lat="39.22181144643643" lon="16.824687041390973"><ele>182.0</ele><time>2026-03-28T12:09:41.001Z</time></trkpt><trkpt lat="39.22175363319627" lon="16.82477491897374"><ele>182.0</ele><time>2026-03-28T12:09:42.001Z</time></trkpt><trkpt lat="39.22169868469276" lon="16.82486219342145"><ele>182.0</ele><time>2026-03-28T12:09:43.001Z</time></trkpt><trkpt lat="39.22164425300629" lon="16.82495213727745"><ele>182.0</ele><time>2026-03-28T12:09:44.001Z</time></trkpt><trkpt lat="39.2215880591857" lon="16.82504670883828"><ele>182.0</ele><time>2026-03-28T12:09:45.001Z</time></trkpt><trkpt lat="39.221533416679556" lon="16.82514293928575"><ele>181.16666666666666</ele><time>2026-03-28T12:09:46.001Z</time></trkpt><trkpt lat="39.22148119244046" lon="16.825235885143375"><ele>180.33333333333331</ele><time>2026-03-28T12:09:47.001Z</time></trkpt><trkpt lat="39.22143017519261" lon="16.825326896222773"><ele>179.5</ele><time>2026-03-28T12:09:48.001Z</time></trkpt><trkpt lat="39.22138102699" lon="16.82540968308689"><ele>178.66666666666666</ele><time>2026-03-28T12:09:49.001Z</time></trkpt><trkpt lat="39.221355695186105" lon="16.825510062047737"><ele>177.83333333333334</ele><time>2026-03-28T12:09:50.001Z</time></trkpt><trkpt lat="39.22130258163922" lon="16.825581655523653"><ele>177.0</ele><time>2026-03-28T12:09:51.001Z</time></trkpt><trkpt lat="39.22124558946256" lon="16.825644095798985"><ele>177.0</ele><time>2026-03-28T12:09:52.001Z</time></trkpt><trkpt lat="39.2211921416857" lon="16.82570456596707"><ele>177.0</ele><time>2026-03-28T12:09:53.001Z</time></trkpt><trkpt lat="39.221100025143926" lon="16.825702793597348"><ele>177.0</ele><time>2026-03-28T12:09:54.001Z</time></trkpt><trkpt lat="39.22105171293257" lon="16.825763642343528"><ele>177.0</ele><time>2026-03-28T12:09:55.001Z</time></trkpt><trkpt lat="39.22096982417975" lon="16.825857575428497"><ele>177.0</ele><time>2026-03-28T12:09:57.001Z</time></trkpt><trkpt lat="39.22087645092256" lon="16.825929885134688"><ele>177.0</ele><time>2026-03-28T12:09:59.001Z</time></trkpt><trkpt lat="39.22077199026334" lon="16.825982219444658"><ele>177.14285714285714</ele><time>2026-03-28T12:10:01.001Z</time></trkpt><trkpt lat="39.22070884779659" lon="16.826005899554083"><ele>177.28571428571428</ele><time>2026-03-28T12:10:02.001Z</time></trkpt><trkpt lat="39.22064506639555" lon="16.826052264578866"><ele>177.42857142857142</ele><time>2026-03-28T12:10:03.001Z</time></trkpt><trkpt lat="39.22057677268636" lon="16.82604388344631"><ele>177.57142857142856</ele><time>2026-03-28T12:10:04.001Z</time></trkpt><trkpt lat="39.22050765610756" lon="16.82603316497036"><ele>177.71428571428572</ele><time>2026-03-28T12:10:05.001Z</time></trkpt><trkpt lat="39.22045022194823" lon="16.825979977016285"><ele>177.85714285714283</ele><time>2026-03-28T12:10:06.001Z</time></trkpt><trkpt lat="39.220387829458076" lon="16.825924214293615"><ele>178.0</ele><time>2026-03-28T12:10:07.001Z</time></trkpt><trkpt lat="39.220341754402675" lon="16.825827515002523"><ele>178.0</ele><time>2026-03-28T12:10:08.001Z</time></trkpt><trkpt lat="39.22024566693894" lon="16.82578119441149"><ele>178.0</ele><time>2026-03-28T12:10:09.001Z</time></trkpt><trkpt lat="39.22015827006091" lon="16.825817568770923"><ele>178.0</ele><time>2026-03-28T12:10:10.001Z</time></trkpt><trkpt lat="39.220078989963305" lon="16.82588309782591"><ele>178.0</ele><time>2026-03-28T12:10:11.001Z</time></trkpt><trkpt lat="39.22001268304374" lon="16.825947957249415"><ele>178.0</ele><time>2026-03-28T12:10:12.001Z</time></trkpt><trkpt lat="39.21995595760185" lon="16.826004150312883"><ele>178.0</ele><time>2026-03-28T12:10:13.001Z</time></trkpt><trkpt lat="39.21989906737575" lon="16.826051329456845"><ele>178.0</ele><time>2026-03-28T12:10:14.001Z</time></trkpt><trkpt lat="39.21983104808838" lon="16.826064084480947"><ele>178.0</ele><time>2026-03-28T12:10:15.001Z</time></trkpt><trkpt lat="39.219761849713606" lon="16.826031322768532"><ele>178.0</ele><time>2026-03-28T12:10:16.001Z</time></trkpt><trkpt lat="39.21968676398728" lon="16.825975859298318"><ele>178.0</ele><time>2026-03-28T12:10:17.001Z</time></trkpt><trkpt lat="39.21961163241254" lon="16.825915686247995"><ele>178.0</ele><time>2026-03-28T12:10:18.001Z</time></trkpt><trkpt lat="39.21953816051558" lon="16.82585684253562"><ele>178.0</ele><time>2026-03-28T12:10:19.001Z</time></trkpt><trkpt lat="39.219462668158485" lon="16.82580509354152"><ele>177.16666666666669</ele><time>2026-03-28T12:10:20.001Z</time></trkpt><trkpt lat="39.21938281488205" lon="16.82576661692652"><ele>176.33333333333334</ele><time>2026-03-28T12:10:21.001Z</time></trkpt><trkpt lat="39.21929400005022" lon="16.82574792586486"><ele>175.5</ele><time>2026-03-28T12:10:22.001Z</time></trkpt><trkpt lat="39.219210466602924" lon="16.825771094101135"><ele>174.66666666666666</ele><time>2026-03-28T12:10:23.001Z</time></trkpt><trkpt lat="39.21912669626491" lon="16.82581746791957"><ele>173.83333333333331</ele><time>2026-03-28T12:10:24.001Z</time></trkpt><trkpt lat="39.21905076493355" lon="16.82588147846922"><ele>173.0</ele><time>2026-03-28T12:10:25.001Z</time></trkpt><trkpt lat="39.21897466828014" lon="16.825947415032033"><ele>172.2</ele><time>2026-03-28T12:10:26.001Z</time></trkpt><trkpt lat="39.2188984793495" lon="16.826027427386652"><ele>171.4</ele><time>2026-03-28T12:10:27.001Z</time></trkpt><trkpt lat="39.218823803151444" lon="16.826111549859547"><ele>170.6</ele><time>2026-03-28T12:10:28.001Z</time></trkpt><trkpt lat="39.21874840020165" lon="16.82619788879245"><ele>169.79999999999998</ele><time>2026-03-28T12:10:29.001Z</time></trkpt><trkpt lat="39.21867213390872" lon="16.82628381633472"><ele>169.0</ele><time>2026-03-28T12:10:30.001Z</time></trkpt><trkpt lat="39.2185979996759" lon="16.826364256949063"><ele>169.0</ele><time>2026-03-28T12:10:31.001Z</time></trkpt><trkpt lat="39.21852758855548" lon="16.826437188669956"><ele>169.0</ele><time>2026-03-28T12:10:32.001Z</time></trkpt><trkpt lat="39.21846135022618" lon="16.826504594421394"><ele>169.0</ele><time>2026-03-28T12:10:33.001Z</time></trkpt><trkpt lat="39.21840068625402" lon="16.826566327688212"><ele>169.0</ele><time>2026-03-28T12:10:34.001Z</time></trkpt><trkpt lat="39.218343638895966" lon="16.82662438052221"><ele>169.0</ele><time>2026-03-28T12:10:35.001Z</time></trkpt><trkpt lat="39.21828696339342" lon="16.826682054984836"><ele>169.0</ele><time>2026-03-28T12:10:36.001Z</time></trkpt><trkpt lat="39.218230296537676" lon="16.826745763266427"><ele>168.14285714285714</ele><time>2026-03-28T12:10:37.001Z</time></trkpt><trkpt lat="39.21818020767579" lon="16.82681536357208"><ele>167.28571428571428</ele><time>2026-03-28T12:10:38.001Z</time></trkpt><trkpt lat="39.21814081781165" lon="16.826896487441424"><ele>166.42857142857144</ele><time>2026-03-28T12:10:39.001Z</time></trkpt><trkpt lat="39.21812894786473" lon="16.826983862030147"><ele>165.57142857142856</ele><time>2026-03-28T12:10:40.001Z</time></trkpt><trkpt lat="39.21814190561072" lon="16.82706734615459"><ele>164.7142857142857</ele><time>2026-03-28T12:10:41.001Z</time></trkpt><trkpt lat="39.218185166429485" lon="16.827145636619637"><ele>163.85714285714286</ele><time>2026-03-28T12:10:42.001Z</time></trkpt><trkpt lat="39.218231005856175" lon="16.827241085898102"><ele>163.0</ele><time>2026-03-28T12:10:43.001Z</time></trkpt><trkpt lat="39.21828577993651" lon="16.827345779142064"><ele>163.0</ele><time>2026-03-28T12:10:44.001Z</time></trkpt><trkpt lat="39.21834706128833" lon="16.827444923921806"><ele>163.0</ele><time>2026-03-28T12:10:45.001Z</time></trkpt><trkpt lat="39.21840674453981" lon="16.827536222001587"><ele>163.0</ele><time>2026-03-28T12:10:46.001Z</time></trkpt><trkpt lat="39.218463856113374" lon="16.827619871365176"><ele>163.0</ele><time>2026-03-28T12:10:47.001Z</time></trkpt><trkpt lat="39.21849963174459" lon="16.827710459614885"><ele>163.0</ele><time>2026-03-28T12:10:48.001Z</time></trkpt><trkpt lat="39.21852275516771" lon="16.827807536620714"><ele>163.0</ele><time>2026-03-28T12:10:49.001Z</time></trkpt><trkpt lat="39.21852920703985" lon="16.827908303392896"><ele>161.83333333333334</ele><time>2026-03-28T12:10:50.001Z</time></trkpt><trkpt lat="39.21853031891076" lon="16.82800868316445"><ele>160.66666666666669</ele><time>2026-03-28T12:10:51.001Z</time></trkpt><trkpt lat="39.21853560536041" lon="16.82811647531989"><ele>159.5</ele><time>2026-03-28T12:10:52.001Z</time></trkpt><trkpt lat="39.21855654255893" lon="16.82822996996549"><ele>158.33333333333334</ele><time>2026-03-28T12:10:53.001Z</time></trkpt><trkpt lat="39.21859133020266" lon="16.82832648256059"><ele>157.16666666666666</ele><time>2026-03-28T12:10:54.001Z</time></trkpt><trkpt lat="39.218651248284324" lon="16.82841144010612"><ele>156.0</ele><time>2026-03-28T12:10:55.001Z</time></trkpt><trkpt lat="39.21870311217429" lon="16.82850587191082"><ele>155.4</ele><time>2026-03-28T12:10:56.001Z</time></trkpt><trkpt lat="39.21876230440273" lon="16.828593427069414"><ele>154.8</ele><time>2026-03-28T12:10:57.001Z</time></trkpt><trkpt lat="39.21882087388361" lon="16.828682438516356"><ele>154.20000000000002</ele><time>2026-03-28T12:10:58.001Z</time></trkpt><trkpt lat="39.21888495955527" lon="16.828764682064648"><ele>153.6</ele><time>2026-03-28T12:10:59.001Z</time></trkpt><trkpt lat="39.21895144095951" lon="16.828842256870978"><ele>153.0</ele><time>2026-03-28T12:11:00.001Z</time></trkpt><trkpt lat="39.21902695012177" lon="16.828907598994228"><ele>153.0</ele><time>2026-03-28T12:11:01.001Z</time></trkpt><trkpt lat="39.21909958049952" lon="16.828971029771182"><ele>153.0</ele><time>2026-03-28T12:11:02.001Z</time></trkpt><trkpt lat="39.219165806514084" lon="16.82903580317399"><ele>153.0</ele><time>2026-03-28T12:11:03.001Z</time></trkpt><trkpt lat="39.21922934467317" lon="16.829099970249658"><ele>153.0</ele><time>2026-03-28T12:11:04.001Z</time></trkpt><trkpt lat="39.21929120033051" lon="16.82916733855641"><ele>153.0</ele><time>2026-03-28T12:11:05.001Z</time></trkpt><trkpt lat="39.21934305309005" lon="16.829243405422787"><ele>153.0</ele><time>2026-03-28T12:11:06.001Z</time></trkpt><trkpt lat="39.21936128720454" lon="16.829332610628338"><ele>152.0</ele><time>2026-03-28T12:11:07.001Z</time></trkpt><trkpt lat="39.21938827090457" lon="16.82941409703578"><ele>151.0</ele><time>2026-03-28T12:11:08.001Z</time></trkpt><trkpt lat="39.219430780134836" lon="16.829493363583367"><ele>150.0</ele><time>2026-03-28T12:11:09.001Z</time></trkpt><trkpt lat="39.2194879495431" lon="16.82955612060399"><ele>149.0</ele><time>2026-03-28T12:11:10.001Z</time></trkpt><trkpt lat="39.21953670416066" lon="16.829627379765405"><ele>148.0</ele><time>2026-03-28T12:11:11.001Z</time></trkpt><trkpt lat="39.21959224917583" lon="16.82967306436548"><ele>147.0</ele><time>2026-03-28T12:11:12.001Z</time></trkpt><trkpt lat="39.21967586699954" lon="16.82976685114793"><ele>147.0</ele><time>2026-03-28T12:11:14.001Z</time></trkpt><trkpt lat="39.219663695939104" lon="16.829887949979"><ele>147.0</ele><time>2026-03-28T12:11:16.001Z</time></trkpt><trkpt lat="39.21959258160062" lon="16.830013176986274"><ele>147.0</ele><time>2026-03-28T12:11:18.001Z</time></trkpt><trkpt lat="39.21953895013799" lon="16.83007013770742"><ele>147.0</ele><time>2026-03-28T12:11:19.001Z</time></trkpt><trkpt lat="39.21946455632971" lon="16.830117686604606"><ele>147.0</ele><time>2026-03-28T12:11:20.001Z</time></trkpt><trkpt lat="39.219393531799675" lon="16.830159705073907"><ele>147.0</ele><time>2026-03-28T12:11:21.001Z</time></trkpt><trkpt lat="39.21932903811616" lon="16.830198098347235"><ele>146.66666666666666</ele><time>2026-03-28T12:11:22.001Z</time></trkpt><trkpt lat="39.21926381839005" lon="16.830239724621105"><ele>146.33333333333334</ele><time>2026-03-28T12:11:23.001Z</time></trkpt><trkpt lat="39.21920439646666" lon="16.830287436084255"><ele>146.0</ele><time>2026-03-28T12:11:24.001Z</time></trkpt><trkpt lat="39.219160867939436" lon="16.830356253685594"><ele>145.66666666666669</ele><time>2026-03-28T12:11:25.001Z</time></trkpt><trkpt lat="39.21911031563431" lon="16.830418208624067"><ele>145.33333333333334</ele><time>2026-03-28T12:11:26Z</time></trkpt><trkpt lat="39.21906949366111" lon="16.830493192295663"><ele>145.0</ele><time>2026-03-28T12:11:27Z</time></trkpt><trkpt lat="39.219012016482026" lon="16.830609534922676"><ele>144.33333333333334</ele><time>2026-03-28T12:11:29Z</time></trkpt><trkpt lat="39.21897539608771" lon="16.83068366033568"><ele>143.66666666666669</ele><time>2026-03-28T12:11:31Z</time></trkpt><trkpt lat="39.218940499309745" lon="16.830783730004843"><ele>143.0</ele><time>2026-03-28T12:11:34Z</time></trkpt><trkpt lat="39.21888615535029" lon="16.83084377841174"><ele>142.33333333333334</ele><time>2026-03-28T12:11:36Z</time></trkpt><trkpt lat="39.21889035002086" lon="16.83096645675573"><ele>141.66666666666666</ele><time>2026-03-28T12:11:40Z</time></trkpt><trkpt lat="39.218874165516965" lon="16.831056456586634"><ele>141.0</ele><time>2026-03-28T12:11:43Z</time></trkpt><trkpt lat="39.21864294775654" lon="16.831076274497292"><ele>140.5</ele><time>2026-03-28T12:11:44Z</time></trkpt><trkpt lat="39.218738820724525" lon="16.831411050931575"><ele>140.0</ele><time>2026-03-28T12:11:53Z</time></trkpt><trkpt lat="39.21871047349246" lon="16.8314876577329"><ele>139.5</ele><time>2026-03-28T12:11:55Z</time></trkpt><trkpt lat="39.21866191754039" lon="16.831587385226236"><ele>139.0</ele><time>2026-03-28T12:11:58Z</time></trkpt><trkpt lat="39.21863294744296" lon="16.831680924372566"><ele>139.0</ele><time>2026-03-28T12:12:01Z</time></trkpt><trkpt lat="39.218615941680675" lon="16.831773665761403"><ele>139.0</ele><time>2026-03-28T12:12:04Z</time></trkpt><trkpt lat="39.21858705405109" lon="16.83185983244924"><ele>139.0</ele><time>2026-03-28T12:12:08Z</time></trkpt><trkpt lat="39.218542001064684" lon="16.831935213822824"><ele>139.0</ele><time>2026-03-28T12:12:12Z</time></trkpt><trkpt lat="39.21848587226375" lon="16.831978966673216"><ele>139.0</ele><time>2026-03-28T12:12:18Z</time></trkpt><trkpt lat="39.21844991995122" lon="16.832054555621173"><ele>139.0</ele><time>2026-03-28T12:12:22Z</time></trkpt><trkpt lat="39.2183991921741" lon="16.832122814103755"><ele>139.0</ele><time>2026-03-28T12:12:25Z</time></trkpt><trkpt lat="39.218345106876896" lon="16.832183620860015"><ele>139.14285714285714</ele><time>2026-03-28T12:12:29Z</time></trkpt><trkpt lat="39.21830424409392" lon="16.832247777128217"><ele>139.28571428571428</ele><time>2026-03-28T12:12:32Z</time></trkpt><trkpt lat="39.21824774808416" lon="16.832306508282073"><ele>139.42857142857144</ele><time>2026-03-28T12:12:36Z</time></trkpt><trkpt lat="39.218206076997205" lon="16.83238164981431"><ele>139.57142857142856</ele><time>2026-03-28T12:12:40Z</time></trkpt><trkpt lat="39.21815221282545" lon="16.832433654717825"><ele>139.71428571428572</ele><time>2026-03-28T12:12:58Z</time></trkpt><trkpt lat="39.21812834012579" lon="16.83251980974816"><ele>139.85714285714286</ele><time>2026-03-28T12:13:03Z</time></trkpt><trkpt lat="39.21812329814562" lon="16.83260323599394"><ele>140.0</ele><time>2026-03-28T12:13:07Z</time></trkpt><trkpt lat="39.2181277908791" lon="16.8327071217138"><ele>140.0</ele><time>2026-03-28T12:13:11.001Z</time></trkpt><trkpt lat="39.21817008442443" lon="16.832776488795105"><ele>140.0</ele><time>2026-03-28T12:13:14.001Z</time></trkpt><trkpt lat="39.2182228324339" lon="16.832833778713724"><ele>140.0</ele><time>2026-03-28T12:13:18.001Z</time></trkpt><trkpt lat="39.21816494344433" lon="16.8329190689235"><ele>140.0</ele><time>2026-03-28T12:13:44.001Z</time></trkpt><trkpt lat="39.21812544429509" lon="16.832987332228033"><ele>140.0</ele><time>2026-03-28T12:13:49.001Z</time></trkpt><trkpt lat="39.218096483345704" lon="16.83305999872986"><ele>140.0</ele><time>2026-03-28T12:13:58.001Z</time></trkpt><trkpt lat="39.21809007565052" lon="16.833150618503556"><ele>140.0</ele><time>2026-03-28T12:14:02.001Z</time></trkpt><trkpt lat="39.21806761461532" lon="16.83325156927032"><ele>140.0</ele><time>2026-03-28T12:14:10.001Z</time></trkpt><trkpt lat="39.21802876750093" lon="16.833327049180383"><ele>140.0</ele><time>2026-03-28T12:14:13.001Z</time></trkpt><trkpt lat="39.217991520603526" lon="16.83339999014641"><ele>140.0</ele><time>2026-03-28T12:14:17.001Z</time></trkpt><trkpt lat="39.21799015371665" lon="16.83350645660884"><ele>140.0</ele><time>2026-03-28T12:14:22.001Z</time></trkpt><trkpt lat="39.21800777759145" lon="16.83360370141606"><ele>140.0</ele><time>2026-03-28T12:14:25.001Z</time></trkpt><trkpt lat="39.21802775659794" lon="16.83369505576828"><ele>140.0</ele><time>2026-03-28T12:14:28.001Z</time></trkpt><trkpt lat="39.21800556355947" lon="16.833793086989896"><ele>139.57142857142858</ele><time>2026-03-28T12:14:31.001Z</time></trkpt><trkpt lat="39.21794585660692" lon="16.83384501006618"><ele>139.14285714285714</ele><time>2026-03-28T12:14:57.001Z</time></trkpt><trkpt lat="39.21789359202166" lon="16.833916703398547"><ele>138.71428571428572</ele><time>2026-03-28T12:15:00.001Z</time></trkpt><trkpt lat="39.217842282380104" lon="16.833968760374965"><ele>138.28571428571428</ele><time>2026-03-28T12:15:03.001Z</time></trkpt><trkpt lat="39.21779859340653" lon="16.8340345787618"><ele>137.85714285714286</ele><time>2026-03-28T12:15:07.001Z</time></trkpt><trkpt lat="39.21775566332194" lon="16.834114440254314"><ele>137.42857142857144</ele><time>2026-03-28T12:15:27.001Z</time></trkpt><trkpt lat="39.21774851182653" lon="16.834204102271308"><ele>137.0</ele><time>2026-03-28T12:15:29.001Z</time></trkpt><trkpt lat="39.21774648978562" lon="16.834312854042874"><ele>136.83333333333331</ele><time>2026-03-28T12:15:31.001Z</time></trkpt><trkpt lat="39.21776085870597" lon="16.834409222538177"><ele>136.66666666666666</ele><time>2026-03-28T12:15:33.001Z</time></trkpt><trkpt lat="39.21777471955234" lon="16.83452732461703"><ele>136.5</ele><time>2026-03-28T12:15:36.001Z</time></trkpt><trkpt lat="39.21779910065812" lon="16.83461467742498"><ele>136.33333333333334</ele><time>2026-03-28T12:15:38.001Z</time></trkpt><trkpt lat="39.21783103294913" lon="16.834714994892487"><ele>136.16666666666669</ele><time>2026-03-28T12:15:40.001Z</time></trkpt><trkpt lat="39.21785819740596" lon="16.834828655020253"><ele>136.0</ele><time>2026-03-28T12:15:42.001Z</time></trkpt><trkpt lat="39.217887619609265" lon="16.83495024089817"><ele>136.0</ele><time>2026-03-28T12:15:44.001Z</time></trkpt><trkpt lat="39.21789874629153" lon="16.83507096698695"><ele>136.0</ele><time>2026-03-28T12:15:46.001Z</time></trkpt><trkpt lat="39.217880290163116" lon="16.835167149740194"><ele>136.0</ele><time>2026-03-28T12:15:48.001Z</time></trkpt><trkpt lat="39.2178436884846" lon="16.835249292855252"><ele>136.0</ele><time>2026-03-28T12:15:50.001Z</time></trkpt><trkpt lat="39.217847049760834" lon="16.835377202786496"><ele>136.0</ele><time>2026-03-28T12:15:52.001Z</time></trkpt><trkpt lat="39.217838037632816" lon="16.835498825358837"><ele>136.0</ele><time>2026-03-28T12:15:54.001Z</time></trkpt><trkpt lat="39.2178375074328" lon="16.83562661884492"><ele>136.0</ele><time>2026-03-28T12:15:56.001Z</time></trkpt><trkpt lat="39.21784977612625" lon="16.83575235717514"><ele>136.0</ele><time>2026-03-28T12:15:58.001Z</time></trkpt><trkpt lat="39.21785414533534" lon="16.83587135211767"><ele>136.0</ele><time>2026-03-28T12:16:00.001Z</time></trkpt><trkpt lat="39.217801165479386" lon="16.83598640613476"><ele>136.0</ele><time>2026-03-28T12:16:02.001Z</time></trkpt><trkpt lat="39.217744160077274" lon="16.836036949253543"><ele>136.0</ele><time>2026-03-28T12:16:03.001Z</time></trkpt><trkpt lat="39.2176798344384" lon="16.836069332706586"><ele>136.0</ele><time>2026-03-28T12:16:04.001Z</time></trkpt><trkpt lat="39.21761800077917" lon="16.83611834337408"><ele>136.0</ele><time>2026-03-28T12:16:05.001Z</time></trkpt><trkpt lat="39.217562332162075" lon="16.836159777773553"><ele>136.0</ele><time>2026-03-28T12:16:06.001Z</time></trkpt><trkpt lat="39.217495788039464" lon="16.836222270304276"><ele>136.0</ele><time>2026-03-28T12:16:08.001Z</time></trkpt><trkpt lat="39.21752170799888" lon="16.836305429211468"><ele>136.0</ele><time>2026-03-28T12:16:10.001Z</time></trkpt><trkpt lat="39.21751819311349" lon="16.836409122682106"><ele>136.0</ele><time>2026-03-28T12:16:12.001Z</time></trkpt><trkpt lat="39.21750577032753" lon="16.83651917560853"><ele>136.0</ele><time>2026-03-28T12:16:14.001Z</time></trkpt><trkpt lat="39.21746818788941" lon="16.836627342192237"><ele>136.0</ele><time>2026-03-28T12:16:16.001Z</time></trkpt><trkpt lat="39.21742159243405" lon="16.836705992749376"><ele>136.0</ele><time>2026-03-28T12:16:17.001Z</time></trkpt><trkpt lat="39.21737451175537" lon="16.836772761134913"><ele>136.0</ele><time>2026-03-28T12:16:18.001Z</time></trkpt><trkpt lat="39.2173324749174" lon="16.836841580509763"><ele>136.0</ele><time>2026-03-28T12:16:19.001Z</time></trkpt><trkpt lat="39.21728727929646" lon="16.836909543001813"><ele>136.0</ele><time>2026-03-28T12:16:20.001Z</time></trkpt><trkpt lat="39.217237074705544" lon="16.837026033651522"><ele>136.0</ele><time>2026-03-28T12:16:22.001Z</time></trkpt><trkpt lat="39.2172013224975" lon="16.837120424373023"><ele>138.16666666666669</ele><time>2026-03-28T12:16:25.001Z</time></trkpt><trkpt lat="39.21719504374146" lon="16.837235218980904"><ele>140.33333333333334</ele><time>2026-03-28T12:16:28.001Z</time></trkpt><trkpt lat="39.21720986607167" lon="16.837321040009872"><ele>142.5</ele><time>2026-03-28T12:16:30.001Z</time></trkpt><trkpt lat="39.21721433887401" lon="16.837413356870822"><ele>144.66666666666666</ele><time>2026-03-28T12:16:33.001Z</time></trkpt><trkpt lat="39.21723088632856" lon="16.837507294486127"><ele>146.83333333333331</ele><time>2026-03-28T12:16:38.001Z</time></trkpt><trkpt lat="39.21727157506436" lon="16.837587293152367"><ele>149.0</ele><time>2026-03-28T12:16:50.001Z</time></trkpt><trkpt lat="39.217284415717984" lon="16.837682665066506"><ele>150.16666666666666</ele><time>2026-03-28T12:16:55.001Z</time></trkpt><trkpt lat="39.21728647496042" lon="16.83778284637656"><ele>151.33333333333331</ele><time>2026-03-28T12:16:59.001Z</time></trkpt><trkpt lat="39.21730536604529" lon="16.837880668219533"><ele>152.5</ele><time>2026-03-28T12:17:03.001Z</time></trkpt><trkpt lat="39.21734847563946" lon="16.837972369162586"><ele>153.66666666666666</ele><time>2026-03-28T12:17:06.001Z</time></trkpt><trkpt lat="39.21738125640201" lon="16.83806672851902"><ele>154.83333333333334</ele><time>2026-03-28T12:17:08.001Z</time></trkpt><trkpt lat="39.21741573646436" lon="16.83814026080889"><ele>156.0</ele><time>2026-03-28T12:17:10.001Z</time></trkpt><trkpt lat="39.21748055146693" lon="16.838217209861405"><ele>152.5</ele><time>2026-03-28T12:17:12.001Z</time></trkpt><trkpt lat="39.21752634590767" lon="16.838305180070332"><ele>149.0</ele><time>2026-03-28T12:17:15.001Z</time></trkpt><trkpt lat="39.217567126261585" lon="16.83840018567003"><ele>145.5</ele><time>2026-03-28T12:17:17.001Z</time></trkpt><trkpt lat="39.21763986880662" lon="16.838466929462545"><ele>142.0</ele><time>2026-03-28T12:17:19.001Z</time></trkpt><trkpt lat="39.217696811928995" lon="16.838517411338984"><ele>138.5</ele><time>2026-03-28T12:17:21.001Z</time></trkpt><trkpt lat="39.217757510628225" lon="16.838574497056275"><ele>135.0</ele><time>2026-03-28T12:17:24.001Z</time></trkpt><trkpt lat="39.2178189744623" lon="16.838606058018616"><ele>135.0</ele><time>2026-03-28T12:17:28.001Z</time></trkpt><trkpt lat="39.21788639209276" lon="16.83862754082371"><ele>135.0</ele><time>2026-03-28T12:17:31.001Z</time></trkpt></trkseg><trkseg><trkpt lat="39.22072414224121" lon="16.843452834348245"><ele>138.42857142857142</ele><time>2026-03-28T12:25:41Z</time></trkpt><trkpt lat="39.22072205272599" lon="16.84354831931369"><ele>136.85714285714286</ele><time>2026-03-28T12:27:02Z</time></trkpt><trkpt lat="39.220686974994436" lon="16.84363042874071"><ele>135.28571428571428</ele><time>2026-03-28T12:27:06Z</time></trkpt><trkpt lat="39.220668399432775" lon="16.843715076493982"><ele>133.71428571428572</ele><time>2026-03-28T12:27:11Z</time></trkpt><trkpt lat="39.220703697493775" lon="16.843783575203503"><ele>132.14285714285714</ele><time>2026-03-28T12:27:19Z</time></trkpt><trkpt lat="39.220764596092835" lon="16.843839299806344"><ele>130.57142857142856</ele><time>2026-03-28T12:27:28Z</time></trkpt><trkpt lat="39.220802202123615" lon="16.843907062031686"><ele>129.0</ele><time>2026-03-28T12:27:34Z</time></trkpt><trkpt lat="39.22083148538283" lon="16.84397912624568"><ele>129.0</ele><time>2026-03-28T12:27:38Z</time></trkpt><trkpt lat="39.220849142466" lon="16.844079004874853"><ele>129.0</ele><time>2026-03-28T12:27:43Z</time></trkpt><trkpt lat="39.220851412319504" lon="16.844188683048305"><ele>129.0</ele><time>2026-03-28T12:27:46Z</time></trkpt><trkpt lat="39.22087618583969" lon="16.84429073892082"><ele>129.0</ele><time>2026-03-28T12:27:49Z</time></trkpt><trkpt lat="39.22090221037791" lon="16.844379414090387"><ele>129.0</ele><time>2026-03-28T12:27:52Z</time></trkpt><trkpt lat="39.22092360539161" lon="16.844474003395405"><ele>129.0</ele><time>2026-03-28T12:27:55Z</time></trkpt><trkpt lat="39.22092924570838" lon="16.8445665147557"><ele>129.66666666666666</ele><time>2026-03-28T12:27:59Z</time></trkpt><trkpt lat="39.22090796031631" lon="16.844665161559952"><ele>130.33333333333334</ele><time>2026-03-28T12:28:03Z</time></trkpt><trkpt lat="39.22091472731136" lon="16.844748819385305"><ele>131.0</ele><time>2026-03-28T12:28:06Z</time></trkpt><trkpt lat="39.220951774713" lon="16.84482696359235"><ele>131.66666666666669</ele><time>2026-03-28T12:28:09Z</time></trkpt><trkpt lat="39.22103209756147" lon="16.84484768729521"><ele>132.33333333333334</ele><time>2026-03-28T12:28:12Z</time></trkpt><trkpt lat="39.221103933377236" lon="16.844898365654572"><ele>133.0</ele><time>2026-03-28T12:28:16Z</time></trkpt><trkpt lat="39.221178093121665" lon="16.84488204227397"><ele>133.0</ele><time>2026-03-28T12:28:19Z</time></trkpt><trkpt lat="39.22124942007435" lon="16.844875714926914"><ele>133.0</ele><time>2026-03-28T12:28:22Z</time></trkpt><trkpt lat="39.22132466406581" lon="16.84489346050184"><ele>133.0</ele><time>2026-03-28T12:28:26Z</time></trkpt><trkpt lat="39.221388153554464" lon="16.844920536410232"><ele>133.0</ele><time>2026-03-28T12:28:28Z</time></trkpt><trkpt lat="39.221470390994696" lon="16.84495938288442"><ele>133.0</ele><time>2026-03-28T12:28:31Z</time></trkpt><trkpt lat="39.221557625913896" lon="16.84498516609822"><ele>133.0</ele><time>2026-03-28T12:28:34Z</time></trkpt><trkpt lat="39.22162826496967" lon="16.845004645233075"><ele>132.33333333333334</ele><time>2026-03-28T12:28:37Z</time></trkpt><trkpt lat="39.22170757496804" lon="16.84501260082745"><ele>131.66666666666669</ele><time>2026-03-28T12:28:40Z</time></trkpt><trkpt lat="39.221795564324935" lon="16.845065716940873"><ele>131.0</ele><time>2026-03-28T12:28:43Z</time></trkpt><trkpt lat="39.22187007866823" lon="16.84510083581436"><ele>130.33333333333334</ele><time>2026-03-28T12:28:45Z</time></trkpt><trkpt lat="39.22192743435937" lon="16.845142912641123"><ele>129.66666666666666</ele><time>2026-03-28T12:28:47Z</time></trkpt><trkpt lat="39.221976456924416" lon="16.845210513347457"><ele>129.0</ele><time>2026-03-28T12:28:49Z</time></trkpt><trkpt lat="39.22204700968536" lon="16.8452704199719"><ele>129.0</ele><time>2026-03-28T12:28:51Z</time></trkpt><trkpt lat="39.2221269054172" lon="16.845334928035896"><ele>129.0</ele><time>2026-03-28T12:28:53Z</time></trkpt><trkpt lat="39.22219656225914" lon="16.845403065609066"><ele>129.0</ele><time>2026-03-28T12:28:55Z</time></trkpt><trkpt lat="39.22227570599782" lon="16.84544015181598"><ele>129.0</ele><time>2026-03-28T12:28:57Z</time></trkpt><trkpt lat="39.22233055989788" lon="16.84549523113499"><ele>129.0</ele><time>2026-03-28T12:28:59Z</time></trkpt><trkpt lat="39.222390294591406" lon="16.84553374202569"><ele>129.0</ele><time>2026-03-28T12:29:01Z</time></trkpt><trkpt lat="39.22246800191207" lon="16.845564835372944"><ele>128.99999999999997</ele><time>2026-03-28T12:29:04Z</time></trkpt><trkpt lat="39.22251950925614" lon="16.845625082224725"><ele>129.0</ele><time>2026-03-28T12:29:08Z</time></trkpt><trkpt lat="39.22253186560609" lon="16.845711315133475"><ele>129.0</ele><time>2026-03-28T12:29:16Z</time></trkpt><trkpt lat="39.22253347651549" lon="16.845809790359652"><ele>129.0</ele><time>2026-03-28T12:29:20Z</time></trkpt><trkpt lat="39.22255761058862" lon="16.845900192983034"><ele>129.0</ele><time>2026-03-28T12:29:23Z</time></trkpt><trkpt lat="39.222630651769656" lon="16.845907019955757"><ele>128.99999999999997</ele><time>2026-03-28T12:29:29Z</time></trkpt><trkpt lat="39.22269975247252" lon="16.845866854392014"><ele>129.0</ele><time>2026-03-28T12:29:33Z</time></trkpt><trkpt lat="39.22276751092012" lon="16.845867264631135"><ele>130.6</ele><time>2026-03-28T12:29:36Z</time></trkpt><trkpt lat="39.222774131779666" lon="16.845972315709176"><ele>132.2</ele><time>2026-03-28T12:29:38Z</time></trkpt><trkpt lat="39.222819699887864" lon="16.846062781816318"><ele>133.79999999999998</ele><time>2026-03-28T12:29:40Z</time></trkpt><trkpt lat="39.22290887015203" lon="16.846132880547728"><ele>135.4</ele><time>2026-03-28T12:29:42Z</time></trkpt><trkpt lat="39.22299663117715" lon="16.846220721175307"><ele>137.0</ele><time>2026-03-28T12:29:44Z</time></trkpt><trkpt lat="39.22304773437763" lon="16.84631868195268"><ele>137.0</ele><time>2026-03-28T12:29:46Z</time></trkpt><trkpt lat="39.22307719284025" lon="16.846411395441578"><ele>137.0</ele><time>2026-03-28T12:29:48Z</time></trkpt><trkpt lat="39.22311267821277" lon="16.84650293095332"><ele>137.0</ele><time>2026-03-28T12:29:50Z</time></trkpt><trkpt lat="39.22311675078979" lon="16.846610226150215"><ele>137.0</ele><time>2026-03-28T12:29:53Z</time></trkpt><trkpt lat="39.223140627215486" lon="16.846707470759377"><ele>137.0</ele><time>2026-03-28T12:29:56Z</time></trkpt><trkpt lat="39.22309245513507" lon="16.846768316180977"><ele>137.0</ele><time>2026-03-28T12:29:59Z</time></trkpt><trkpt lat="39.22304002106491" lon="16.846850883449147"><ele>135.71428571428572</ele><time>2026-03-28T12:30:02Z</time></trkpt><trkpt lat="39.223002924645115" lon="16.84693416919159"><ele>134.42857142857144</ele><time>2026-03-28T12:30:04Z</time></trkpt><trkpt lat="39.222972542828195" lon="16.847022253467642"><ele>133.14285714285714</ele><time>2026-03-28T12:30:06Z</time></trkpt><trkpt lat="39.22294392261581" lon="16.847115838855373"><ele>131.85714285714286</ele><time>2026-03-28T12:30:10Z</time></trkpt><trkpt lat="39.22292251971551" lon="16.847213154585337"><ele>130.57142857142856</ele><time>2026-03-28T12:30:20Z</time></trkpt><trkpt lat="39.222865062892446" lon="16.84726132969165"><ele>129.28571428571428</ele><time>2026-03-28T12:30:25Z</time></trkpt><trkpt lat="39.222817795549034" lon="16.847332463927916"><ele>128.0</ele><time>2026-03-28T12:30:30Z</time></trkpt><trkpt lat="39.22276690992348" lon="16.847382246502683"><ele>127.99999999999999</ele><time>2026-03-28T12:30:33Z</time></trkpt><trkpt lat="39.22269574260223" lon="16.847381671263683"><ele>128.0</ele><time>2026-03-28T12:30:38Z</time></trkpt><trkpt lat="39.222615514181115" lon="16.84738929444832"><ele>128.0</ele><time>2026-03-28T12:30:43Z</time></trkpt><trkpt lat="39.22254090393348" lon="16.847399905480017"><ele>128.0</ele><time>2026-03-28T12:30:46Z</time></trkpt><trkpt lat="39.222481233870546" lon="16.84746019460765"><ele>127.99999999999999</ele><time>2026-03-28T12:30:49Z</time></trkpt><trkpt lat="39.22246222666642" lon="16.847540630752054"><ele>128.0</ele><time>2026-03-28T12:30:52Z</time></trkpt><trkpt lat="39.222513946685766" lon="16.847624428725545"><ele>127.85714285714285</ele><time>2026-03-28T12:30:56Z</time></trkpt><trkpt lat="39.22255161225244" lon="16.847719002356847"><ele>127.7142857142857</ele><time>2026-03-28T12:30:58Z</time></trkpt><trkpt lat="39.22257107187545" lon="16.84781089108537"><ele>127.57142857142857</ele><time>2026-03-28T12:31:00Z</time></trkpt><trkpt lat="39.222573273764795" lon="16.847897241378472"><ele>127.42857142857142</ele><time>2026-03-28T12:31:02Z</time></trkpt><trkpt lat="39.22256369538488" lon="16.847978674313183"><ele>127.28571428571428</ele><time>2026-03-28T12:31:04Z</time></trkpt><trkpt lat="39.222555085993086" lon="16.84808253590428"><ele>127.14285714285714</ele><time>2026-03-28T12:31:07Z</time></trkpt><trkpt lat="39.222578255135296" lon="16.848176078834065"><ele>127.0</ele><time>2026-03-28T12:31:10Z</time></trkpt><trkpt lat="39.22260796199925" lon="16.84827475541893"><ele>127.00000000000001</ele><time>2026-03-28T12:31:12Z</time></trkpt><trkpt lat="39.22263701474203" lon="16.84835241475318"><ele>127.0</ele><time>2026-03-28T12:31:14Z</time></trkpt><trkpt lat="39.22266079857337" lon="16.848437172386557"><ele>127.0</ele><time>2026-03-28T12:31:16Z</time></trkpt><trkpt lat="39.22266822405238" lon="16.848541134056266"><ele>127.0</ele><time>2026-03-28T12:31:19Z</time></trkpt><trkpt lat="39.222712649090205" lon="16.848646167013083"><ele>127.00000000000001</ele><time>2026-03-28T12:31:22Z</time></trkpt><trkpt lat="39.22270117313172" lon="16.848742160550366"><ele>127.0</ele><time>2026-03-28T12:31:25Z</time></trkpt><trkpt lat="39.2227326861039" lon="16.848827745227343"><ele>128.57142857142858</ele><time>2026-03-28T12:31:27Z</time></trkpt><trkpt lat="39.22279490797446" lon="16.84889756316019"><ele>130.14285714285714</ele><time>2026-03-28T12:31:30Z</time></trkpt><trkpt lat="39.22285357164471" lon="16.848959217404204"><ele>131.71428571428572</ele><time>2026-03-28T12:31:33Z</time></trkpt><trkpt lat="39.222891736146835" lon="16.849024751703546"><ele>133.28571428571428</ele><time>2026-03-28T12:31:41Z</time></trkpt><trkpt lat="39.22293498703519" lon="16.849091149920604"><ele>134.85714285714286</ele><time>2026-03-28T12:31:46Z</time></trkpt><trkpt lat="39.22299494888962" lon="16.84914599349455"><ele>136.42857142857144</ele><time>2026-03-28T12:31:54Z</time></trkpt><trkpt lat="39.22300790578507" lon="16.849232516205163"><ele>138.0</ele><time>2026-03-28T12:31:59Z</time></trkpt><trkpt lat="39.223044677458944" lon="16.849329910347972"><ele>135.6</ele><time>2026-03-28T12:32:02Z</time></trkpt><trkpt lat="39.22303292279998" lon="16.849428251990947"><ele>133.20000000000002</ele><time>2026-03-28T12:32:05Z</time></trkpt><trkpt lat="39.22298026726655" lon="16.84952831684103"><ele>130.8</ele><time>2026-03-28T12:32:08Z</time></trkpt><trkpt lat="39.222993554027454" lon="16.849631235828948"><ele>128.4</ele><time>2026-03-28T12:32:10Z</time></trkpt><trkpt lat="39.22305457750105" lon="16.84973183394509"><ele>126.0</ele><time>2026-03-28T12:32:12Z</time></trkpt><trkpt lat="39.22315454042513" lon="16.849796325996117"><ele>126.0</ele><time>2026-03-28T12:32:14Z</time></trkpt><trkpt lat="39.22326503280744" lon="16.849844299555507"><ele>126.0</ele><time>2026-03-28T12:32:16Z</time></trkpt><trkpt lat="39.22331559091445" lon="16.849992084216343"><ele>126.0</ele><time>2026-03-28T12:32:18Z</time></trkpt><trkpt lat="39.2233612405618" lon="16.850054465966117"><ele>126.0</ele><time>2026-03-28T12:32:19Z</time></trkpt><trkpt lat="39.22341344708142" lon="16.850168384968953"><ele>126.0</ele><time>2026-03-28T12:32:21Z</time></trkpt><trkpt lat="39.223427688150174" lon="16.8502580215098"><ele>126.16666666666667</ele><time>2026-03-28T12:32:23Z</time></trkpt><trkpt lat="39.22344718727987" lon="16.850361217202327"><ele>126.33333333333334</ele><time>2026-03-28T12:32:26Z</time></trkpt><trkpt lat="39.22347057682318" lon="16.850441100699907"><ele>126.5</ele><time>2026-03-28T12:32:30Z</time></trkpt><trkpt lat="39.22351150095928" lon="16.85051305196951"><ele>126.66666666666667</ele><time>2026-03-28T12:32:35Z</time></trkpt><trkpt lat="39.223551276372056" lon="16.85058450799506"><ele>126.83333333333334</ele><time>2026-03-28T12:32:41.001Z</time></trkpt><trkpt lat="39.22356988178948" lon="16.850682226920906"><ele>127.0</ele><time>2026-03-28T12:32:45.001Z</time></trkpt><trkpt lat="39.22354624055857" lon="16.85080923473798"><ele>127.00000000000001</ele><time>2026-03-28T12:32:49.001Z</time></trkpt><trkpt lat="39.223525842771465" lon="16.850899482848"><ele>127.0</ele><time>2026-03-28T12:32:52.001Z</time></trkpt><trkpt lat="39.22351121385533" lon="16.851021569452865"><ele>127.0</ele><time>2026-03-28T12:32:55.001Z</time></trkpt><trkpt lat="39.22350994807433" lon="16.851130945263584"><ele>127.0</ele><time>2026-03-28T12:32:57.001Z</time></trkpt><trkpt lat="39.223508091395026" lon="16.851234017244536"><ele>127.00000000000001</ele><time>2026-03-28T12:32:59.001Z</time></trkpt><trkpt lat="39.22350149163996" lon="16.85134172797481"><ele>127.0</ele><time>2026-03-28T12:33:01Z</time></trkpt><trkpt lat="39.22348991213409" lon="16.851448241710507"><ele>126.14285714285714</ele><time>2026-03-28T12:33:03Z</time></trkpt><trkpt lat="39.22349618044399" lon="16.851549009436738"><ele>125.28571428571428</ele><time>2026-03-28T12:33:05Z</time></trkpt><trkpt lat="39.22350672439577" lon="16.8516393632365"><ele>124.42857142857142</ele><time>2026-03-28T12:33:07Z</time></trkpt><trkpt lat="39.22351663772674" lon="16.851747806807552"><ele>123.57142857142857</ele><time>2026-03-28T12:33:10Z</time></trkpt><trkpt lat="39.22350678264662" lon="16.85184184837525"><ele>122.7142857142857</ele><time>2026-03-28T12:33:13Z</time></trkpt><trkpt lat="39.223501901739475" lon="16.851922897209967"><ele>121.85714285714285</ele><time>2026-03-28T12:33:15Z</time></trkpt><trkpt lat="39.22349515470461" lon="16.852020089588322"><ele>121.0</ele><time>2026-03-28T12:33:17Z</time></trkpt><trkpt lat="39.22348773959806" lon="16.85212134265774"><ele>120.00000000000001</ele><time>2026-03-28T12:33:19Z</time></trkpt><trkpt lat="39.223474158430854" lon="16.85223801584556"><ele>119.0</ele><time>2026-03-28T12:33:22Z</time></trkpt><trkpt lat="39.2234557190635" lon="16.85232589355496"><ele>118.0</ele><time>2026-03-28T12:33:24Z</time></trkpt><trkpt lat="39.223436744173576" lon="16.852406191407816"><ele>117.0</ele><time>2026-03-28T12:33:26Z</time></trkpt><trkpt lat="39.22341006177866" lon="16.852493231951094"><ele>116.00000000000001</ele><time>2026-03-28T12:33:28Z</time></trkpt><trkpt lat="39.223350806163225" lon="16.85260086518664"><ele>115.0</ele><time>2026-03-28T12:33:31Z</time></trkpt><trkpt lat="39.22331902904259" lon="16.8527100849796"><ele>114.66666666666667</ele><time>2026-03-28T12:33:34Z</time></trkpt><trkpt lat="39.22328344947105" lon="16.8528183738559"><ele>114.33333333333334</ele><time>2026-03-28T12:33:37Z</time></trkpt><trkpt lat="39.223248933443756" lon="16.85291421621807"><ele>114.0</ele><time>2026-03-28T12:33:39Z</time></trkpt><trkpt lat="39.22321968187057" lon="16.852994280000964"><ele>113.66666666666666</ele><time>2026-03-28T12:33:41Z</time></trkpt><trkpt lat="39.223179738660235" lon="16.85308559223924"><ele>113.33333333333333</ele><time>2026-03-28T12:33:44Z</time></trkpt><trkpt lat="39.22314448523496" lon="16.853169716926942"><ele>113.0</ele><time>2026-03-28T12:33:46Z</time></trkpt><trkpt lat="39.223101752734756" lon="16.85325422576074"><ele>113.33333333333333</ele><time>2026-03-28T12:33:48Z</time></trkpt><trkpt lat="39.22306433329075" lon="16.853346143081243"><ele>113.66666666666666</ele><time>2026-03-28T12:33:50Z</time></trkpt><trkpt lat="39.22302471679826" lon="16.853432045862426"><ele>114.0</ele><time>2026-03-28T12:33:52Z</time></trkpt><trkpt lat="39.22298773615606" lon="16.8535209773067"><ele>114.33333333333334</ele><time>2026-03-28T12:33:54Z</time></trkpt><trkpt lat="39.22295320426427" lon="16.85361245441395"><ele>114.66666666666667</ele><time>2026-03-28T12:33:56Z</time></trkpt><trkpt lat="39.222908855336016" lon="16.853709536430806"><ele>115.0</ele><time>2026-03-28T12:33:58Z</time></trkpt><trkpt lat="39.222865547084126" lon="16.853809780217286"><ele>115.00000000000001</ele><time>2026-03-28T12:34:00Z</time></trkpt><trkpt lat="39.22281461515829" lon="16.853903609701366"><ele>115.0</ele><time>2026-03-28T12:34:02Z</time></trkpt><trkpt lat="39.22276927667579" lon="16.854003391315903"><ele>115.0</ele><time>2026-03-28T12:34:04Z</time></trkpt><trkpt lat="39.22271314214898" lon="16.854103873152134"><ele>115.0</ele><time>2026-03-28T12:34:06Z</time></trkpt><trkpt lat="39.222672990236546" lon="16.854183570541963"><ele>115.00000000000001</ele><time>2026-03-28T12:34:08Z</time></trkpt><trkpt lat="39.22262485504179" lon="16.854264065516283"><ele>115.0</ele><time>2026-03-28T12:34:12Z</time></trkpt><trkpt lat="39.2225289369969" lon="16.85429004453682"><ele>114.42857142857142</ele><time>2026-03-28T12:35:28Z</time></trkpt><trkpt lat="39.22246420293097" lon="16.85433031469476"><ele>113.85714285714286</ele><time>2026-03-28T12:35:30Z</time></trkpt><trkpt lat="39.2224169010067" lon="16.854406025635093"><ele>113.28571428571428</ele><time>2026-03-28T12:35:39Z</time></trkpt><trkpt lat="39.22238721995636" lon="16.854497439587227"><ele>112.71428571428571</ele><time>2026-03-28T12:35:44.999Z</time></trkpt><trkpt lat="39.22234846389718" lon="16.854584795360495"><ele>112.14285714285714</ele><time>2026-03-28T12:35:50.999Z</time></trkpt><trkpt lat="39.22230150806689" lon="16.854648631418005"><ele>111.57142857142857</ele><time>2026-03-28T12:35:55.999Z</time></trkpt><trkpt lat="39.22225502372622" lon="16.85471592125346"><ele>111.0</ele><time>2026-03-28T12:36:00.999Z</time></trkpt><trkpt lat="39.22221292149777" lon="16.854793715772516"><ele>110.66666666666667</ele><time>2026-03-28T12:36:03.999Z</time></trkpt><trkpt lat="39.222170040554516" lon="16.854881962969813"><ele>110.33333333333334</ele><time>2026-03-28T12:36:07.999Z</time></trkpt><trkpt lat="39.22214149193554" lon="16.854984556073596"><ele>110.0</ele><time>2026-03-28T12:36:11.999Z</time></trkpt><trkpt lat="39.22211609140811" lon="16.85506069286833"><ele>109.66666666666667</ele><time>2026-03-28T12:36:14.999Z</time></trkpt><trkpt lat="39.22207888349339" lon="16.855154398467615"><ele>109.33333333333334</ele><time>2026-03-28T12:36:17.999Z</time></trkpt><trkpt lat="39.22205098711435" lon="16.855259094772077"><ele>109.0</ele><time>2026-03-28T12:36:19.999Z</time></trkpt><trkpt lat="39.222034487628875" lon="16.855350195953132"><ele>109.00000000000001</ele><time>2026-03-28T12:36:21.999Z</time></trkpt><trkpt lat="39.2220207766102" lon="16.85546216437373"><ele>109.0</ele><time>2026-03-28T12:36:23.999Z</time></trkpt><trkpt lat="39.2220135380255" lon="16.855576984000393"><ele>109.0</ele><time>2026-03-28T12:36:25.999Z</time></trkpt><trkpt lat="39.222003965918404" lon="16.8556894899431"><ele>109.0</ele><time>2026-03-28T12:36:27.999Z</time></trkpt><trkpt lat="39.22200095214415" lon="16.855796779368593"><ele>109.00000000000001</ele><time>2026-03-28T12:36:29.999Z</time></trkpt><trkpt lat="39.22199710194283" lon="16.85589918439711"><ele>109.0</ele><time>2026-03-28T12:36:31.999Z</time></trkpt><trkpt lat="39.22196255199908" lon="16.855980242995127"><ele>108.80000000000001</ele><time>2026-03-28T12:36:33.999Z</time></trkpt><trkpt lat="39.221913491237245" lon="16.856063893953944"><ele>108.60000000000001</ele><time>2026-03-28T12:36:35.999Z</time></trkpt><trkpt lat="39.22187176274818" lon="16.85615969008869"><ele>108.4</ele><time>2026-03-28T12:36:37.999Z</time></trkpt><trkpt lat="39.22180338510915" lon="16.856241901893572"><ele>108.2</ele><time>2026-03-28T12:36:39.999Z</time></trkpt><trkpt lat="39.22172754048514" lon="16.856325538293408"><ele>108.0</ele><time>2026-03-28T12:36:41.999Z</time></trkpt><trkpt lat="39.22166605150621" lon="16.85644397245364"><ele>108.0</ele><time>2026-03-28T12:36:44Z</time></trkpt><trkpt lat="39.221604062794285" lon="16.85657977991877"><ele>108.00000000000001</ele><time>2026-03-28T12:36:46Z</time></trkpt><trkpt lat="39.22154542205957" lon="16.856687625887513"><ele>108.00000000000001</ele><time>2026-03-28T12:36:48Z</time></trkpt><trkpt lat="39.22148848649499" lon="16.856776054408417"><ele>108.0</ele><time>2026-03-28T12:36:50Z</time></trkpt><trkpt lat="39.221426041099285" lon="16.856859186890066"><ele>108.0</ele><time>2026-03-28T12:36:52Z</time></trkpt><trkpt lat="39.22135303261745" lon="16.856930740216917"><ele>107.83333333333333</ele><time>2026-03-28T12:36:54Z</time></trkpt><trkpt lat="39.221275240885056" lon="16.856984973444582"><ele>107.66666666666666</ele><time>2026-03-28T12:36:56Z</time></trkpt><trkpt lat="39.22121663607008" lon="16.8570522624489"><ele>107.5</ele><time>2026-03-28T12:36:58Z</time></trkpt><trkpt lat="39.22118609689712" lon="16.857149205503628"><ele>107.33333333333333</ele><time>2026-03-28T12:37:00Z</time></trkpt><trkpt lat="39.22115105382108" lon="16.85726647159164"><ele>107.16666666666666</ele><time>2026-03-28T12:37:02Z</time></trkpt><trkpt lat="39.221106249042094" lon="16.857349533350817"><ele>107.0</ele><time>2026-03-28T12:37:05Z</time></trkpt><trkpt lat="39.221039745718016" lon="16.857428853362777"><ele>106.99999999999999</ele><time>2026-03-28T12:37:08Z</time></trkpt><trkpt lat="39.220982273867286" lon="16.857511052341216"><ele>107.0</ele><time>2026-03-28T12:37:12Z</time></trkpt><trkpt lat="39.220920946465235" lon="16.857618589295004"><ele>107.0</ele><time>2026-03-28T12:37:15Z</time></trkpt><trkpt lat="39.22092520708864" lon="16.857707441295993"><ele>107.0</ele><time>2026-03-28T12:37:22Z</time></trkpt><trkpt lat="39.220948620783005" lon="16.85779573315445"><ele>106.99999999999999</ele><time>2026-03-28T12:37:31Z</time></trkpt><trkpt lat="39.220923683988765" lon="16.85788122324825"><ele>107.0</ele><time>2026-03-28T12:37:35Z</time></trkpt><trkpt lat="39.22090206075718" lon="16.857962097062355"><ele>107.16666666666666</ele><time>2026-03-28T12:37:38Z</time></trkpt><trkpt lat="39.22088995991613" lon="16.858042017561797"><ele>107.33333333333333</ele><time>2026-03-28T12:37:40Z</time></trkpt><trkpt lat="39.22087686132352" lon="16.858129742667305"><ele>107.5</ele><time>2026-03-28T12:37:44Z</time></trkpt><trkpt lat="39.22084623933815" lon="16.858239448055745"><ele>107.66666666666666</ele><time>2026-03-28T12:37:48Z</time></trkpt><trkpt lat="39.22082166015594" lon="16.858348936907788"><ele>107.83333333333333</ele><time>2026-03-28T12:37:50Z</time></trkpt><trkpt lat="39.22078580361213" lon="16.858482879507154"><ele>108.0</ele><time>2026-03-28T12:37:52Z</time></trkpt><trkpt lat="39.22076042286021" lon="16.858588897905353"><ele>108.0</ele><time>2026-03-28T12:37:54Z</time></trkpt><trkpt lat="39.22072598720579" lon="16.858676278035524"><ele>108.0</ele><time>2026-03-28T12:37:56Z</time></trkpt><trkpt lat="39.220689611461225" lon="16.858771746106267"><ele>108.0</ele><time>2026-03-28T12:37:58Z</time></trkpt><trkpt lat="39.22064472326175" lon="16.85885985499074"><ele>108.0</ele><time>2026-03-28T12:38:00Z</time></trkpt><trkpt lat="39.220604571317665" lon="16.858956362109254"><ele>108.0</ele><time>2026-03-28T12:38:02Z</time></trkpt><trkpt lat="39.220583564077515" lon="16.859060062580102"><ele>108.0</ele><time>2026-03-28T12:38:04Z</time></trkpt><trkpt lat="39.22058216865582" lon="16.859164564037638"><ele>107.85714285714286</ele><time>2026-03-28T12:38:07Z</time></trkpt><trkpt lat="39.220564429808206" lon="16.8592475782529"><ele>107.71428571428571</ele><time>2026-03-28T12:38:10Z</time></trkpt><trkpt lat="39.22049782667979" lon="16.85926914734929"><ele>107.57142857142858</ele><time>2026-03-28T12:38:13Z</time></trkpt><trkpt lat="39.22042498678439" lon="16.85927439455519"><ele>107.42857142857143</ele><time>2026-03-28T12:38:15Z</time></trkpt><trkpt lat="39.22036144622246" lon="16.859282206866656"><ele>107.28571428571429</ele><time>2026-03-28T12:38:17Z</time></trkpt><trkpt lat="39.220296620834006" lon="16.85929309328924"><ele>107.14285714285715</ele><time>2026-03-28T12:38:19Z</time></trkpt><trkpt lat="39.220233603258016" lon="16.859306951832306"><ele>107.0</ele><time>2026-03-28T12:38:21Z</time></trkpt><trkpt lat="39.22016082530887" lon="16.859353538793073"><ele>106.8</ele><time>2026-03-28T12:38:23Z</time></trkpt><trkpt lat="39.22007490831652" lon="16.859435381650673"><ele>106.6</ele><time>2026-03-28T12:38:25Z</time></trkpt><trkpt lat="39.219987425020946" lon="16.859519652085233"><ele>106.39999999999999</ele><time>2026-03-28T12:38:27Z</time></trkpt><trkpt lat="39.21989804150485" lon="16.859604504241922"><ele>106.19999999999999</ele><time>2026-03-28T12:38:29Z</time></trkpt><trkpt lat="39.21982193990337" lon="16.859696487602772"><ele>106.0</ele><time>2026-03-28T12:38:31Z</time></trkpt><trkpt lat="39.219740285365134" lon="16.859795527982886"><ele>106.0</ele><time>2026-03-28T12:38:33Z</time></trkpt><trkpt lat="39.219683731524455" lon="16.859881928237147"><ele>106.0</ele><time>2026-03-28T12:38:35Z</time></trkpt><trkpt lat="39.21961147386804" lon="16.859968943627276"><ele>106.0</ele><time>2026-03-28T12:38:37Z</time></trkpt><trkpt lat="39.21949936511838" lon="16.8599974369464"><ele>106.0</ele><time>2026-03-28T12:38:39Z</time></trkpt><trkpt lat="39.2193919616555" lon="16.85999027646784"><ele>106.0</ele><time>2026-03-28T12:38:41Z</time></trkpt><trkpt lat="39.21928057624267" lon="16.859998829365754"><ele>106.0</ele><time>2026-03-28T12:38:43Z</time></trkpt><trkpt lat="39.21917366666461" lon="16.86004564807445"><ele>106.0</ele><time>2026-03-28T12:38:45Z</time></trkpt><trkpt lat="39.2190772092356" lon="16.860104882129317"><ele>106.0</ele><time>2026-03-28T12:38:47Z</time></trkpt><trkpt lat="39.21895914187323" lon="16.86012609251718"><ele>106.0</ele><time>2026-03-28T12:38:49Z</time></trkpt><trkpt lat="39.218842896919824" lon="16.860157134194036"><ele>106.0</ele><time>2026-03-28T12:38:51Z</time></trkpt><trkpt lat="39.21878191081373" lon="16.86017926553991"><ele>106.0</ele><time>2026-03-28T12:38:52Z</time></trkpt><trkpt lat="39.21871733912029" lon="16.860207908165545"><ele>106.0</ele><time>2026-03-28T12:38:53Z</time></trkpt><trkpt lat="39.21865612657779" lon="16.860235958556927"><ele>106.0</ele><time>2026-03-28T12:38:54Z</time></trkpt><trkpt lat="39.21858832006924" lon="16.86026273608034"><ele>106.0</ele><time>2026-03-28T12:38:55Z</time></trkpt><trkpt lat="39.218519554292634" lon="16.860283209176416"><ele>106.0</ele><time>2026-03-28T12:38:56Z</time></trkpt><trkpt lat="39.21844983506554" lon="16.860297418374508"><ele>106.0</ele><time>2026-03-28T12:38:57Z</time></trkpt><trkpt lat="39.21838478168876" lon="16.86031382698567"><ele>106.00000000000001</ele><time>2026-03-28T12:38:58Z</time></trkpt><trkpt lat="39.21831015951519" lon="16.86033831979736"><ele>106.0</ele><time>2026-03-28T12:38:59Z</time></trkpt><trkpt lat="39.21824113366621" lon="16.86037479633915"><ele>106.0</ele><time>2026-03-28T12:39:00Z</time></trkpt><trkpt lat="39.21817500775759" lon="16.860418254668176"><ele>106.0</ele><time>2026-03-28T12:39:01Z</time></trkpt><trkpt lat="39.21810770486461" lon="16.860445556557607"><ele>106.00000000000001</ele><time>2026-03-28T12:39:02Z</time></trkpt><trkpt lat="39.2180401973352" lon="16.860449499925366"><ele>106.0</ele><time>2026-03-28T12:39:03Z</time></trkpt><trkpt lat="39.21793000860334" lon="16.86046134228913"><ele>105.66666666666667</ele><time>2026-03-28T12:39:05Z</time></trkpt><trkpt lat="39.21785073378716" lon="16.860490909867234"><ele>105.33333333333334</ele><time>2026-03-28T12:39:07Z</time></trkpt><trkpt lat="39.21778213696287" lon="16.86052374740478"><ele>105.0</ele><time>2026-03-28T12:39:09Z</time></trkpt><trkpt lat="39.21771969614903" lon="16.860560322250592"><ele>104.66666666666666</ele><time>2026-03-28T12:39:11Z</time></trkpt><trkpt lat="39.2176357423921" lon="16.860606872813396"><ele>104.33333333333333</ele><time>2026-03-28T12:39:13Z</time></trkpt><trkpt lat="39.21755066862854" lon="16.86064854007427"><ele>104.0</ele><time>2026-03-28T12:39:15Z</time></trkpt><trkpt lat="39.217466444125336" lon="16.860722424575666"><ele>104.0</ele><time>2026-03-28T12:39:17Z</time></trkpt><trkpt lat="39.21739995514185" lon="16.860762527398933"><ele>104.0</ele><time>2026-03-28T12:39:18Z</time></trkpt><trkpt lat="39.21728449715614" lon="16.860848986866298"><ele>104.0</ele><time>2026-03-28T12:39:20Z</time></trkpt><trkpt lat="39.21718345947482" lon="16.860913620650336"><ele>104.0</ele><time>2026-03-28T12:39:22Z</time></trkpt><trkpt lat="39.217081385545846" lon="16.86097614949064"><ele>104.0</ele><time>2026-03-28T12:39:24Z</time></trkpt><trkpt lat="39.21701752273465" lon="16.861008861997835"><ele>103.80000000000001</ele><time>2026-03-28T12:39:25Z</time></trkpt><trkpt lat="39.21695790272543" lon="16.861046285248968"><ele>103.60000000000001</ele><time>2026-03-28T12:39:26Z</time></trkpt><trkpt lat="39.21684136607392" lon="16.861119306215716"><ele>103.4</ele><time>2026-03-28T12:39:28Z</time></trkpt><trkpt lat="39.2167206655983" lon="16.86118812190215"><ele>103.2</ele><time>2026-03-28T12:39:30Z</time></trkpt><trkpt lat="39.21665028872491" lon="16.861193997647394"><ele>103.0</ele><time>2026-03-28T12:39:31Z</time></trkpt><trkpt lat="39.216563280993405" lon="16.861196281925604"><ele>103.0</ele><time>2026-03-28T12:39:33Z</time></trkpt><trkpt lat="39.21649855728532" lon="16.86121697514516"><ele>103.0</ele><time>2026-03-28T12:39:40Z</time></trkpt><trkpt lat="39.216363458714525" lon="16.861267283751395"><ele>103.0</ele><time>2026-03-28T12:39:42Z</time></trkpt><trkpt lat="39.21627414429551" lon="16.861288404058286"><ele>103.0</ele><time>2026-03-28T12:39:43Z</time></trkpt><trkpt lat="39.216178981597324" lon="16.861307749061716"><ele>103.0</ele><time>2026-03-28T12:39:44Z</time></trkpt><trkpt lat="39.21608270603548" lon="16.86132828407669"><ele>102.60000000000001</ele><time>2026-03-28T12:39:45Z</time></trkpt><trkpt lat="39.21597764549027" lon="16.861355379175187"><ele>102.2</ele><time>2026-03-28T12:39:46Z</time></trkpt><trkpt lat="39.21588076219614" lon="16.861376110745425"><ele>101.8</ele><time>2026-03-28T12:39:47Z</time></trkpt><trkpt lat="39.215788092298375" lon="16.861390159842294"><ele>101.4</ele><time>2026-03-28T12:39:48Z</time></trkpt><trkpt lat="39.21570642174988" lon="16.861408835847083"><ele>101.0</ele><time>2026-03-28T12:39:49Z</time></trkpt><trkpt lat="39.21562824598948" lon="16.861416892548323"><ele>101.0</ele><time>2026-03-28T12:39:50Z</time></trkpt><trkpt lat="39.21551843374349" lon="16.861438310506557"><ele>101.0</ele><time>2026-03-28T12:39:52Z</time></trkpt><trkpt lat="39.21541411275997" lon="16.86145937218384"><ele>101.0</ele><time>2026-03-28T12:39:54Z</time></trkpt><trkpt lat="39.21530788252938" lon="16.86147420202735"><ele>101.0</ele><time>2026-03-28T12:39:56Z</time></trkpt><trkpt lat="39.215223077456535" lon="16.861446651101485"><ele>101.0</ele><time>2026-03-28T12:39:58Z</time></trkpt><trkpt lat="39.21511272359889" lon="16.86148537294444"><ele>101.0</ele><time>2026-03-28T12:40:00Z</time></trkpt><trkpt lat="39.21507094277702" lon="16.861549934956983"><ele>101.0</ele><time>2026-03-28T12:40:01Z</time></trkpt><trkpt lat="39.21501679780691" lon="16.86163497844131"><ele>101.0</ele><time>2026-03-28T12:40:03Z</time></trkpt><trkpt lat="39.21495891512342" lon="16.86170227424467"><ele>101.0</ele><time>2026-03-28T12:40:06Z</time></trkpt><trkpt lat="39.21490767134229" lon="16.861757203482735"><ele>101.0</ele><time>2026-03-28T12:40:09Z</time></trkpt><trkpt lat="39.21484922644489" lon="16.861828583017527"><ele>101.0</ele><time>2026-03-28T12:40:12Z</time></trkpt><trkpt lat="39.21483444689937" lon="16.861916112975848"><ele>101.0</ele><time>2026-03-28T12:40:22Z</time></trkpt><trkpt lat="39.21478366011065" lon="16.861973067505705"><ele>100.99999999999999</ele><time>2026-03-28T12:40:27Z</time></trkpt><trkpt lat="39.214795343909856" lon="16.862069157429996"><ele>101.0</ele><time>2026-03-28T12:40:32Z</time></trkpt><trkpt lat="39.21478402132948" lon="16.862162575999204"><ele>101.0</ele><time>2026-03-28T12:40:34Z</time></trkpt><trkpt lat="39.214748603448214" lon="16.86224314026078"><ele>101.0</ele><time>2026-03-28T12:40:35Z</time></trkpt><trkpt lat="39.21470426029718" lon="16.862322469101223"><ele>100.99999999999999</ele><time>2026-03-28T12:40:36Z</time></trkpt><trkpt lat="39.2146305879222" lon="16.862413615376813"><ele>101.0</ele><time>2026-03-28T12:40:38Z</time></trkpt><trkpt lat="39.214575727218666" lon="16.862455574543805"><ele>100.99999999999999</ele><time>2026-03-28T12:40:40Z</time></trkpt><trkpt lat="39.21451511796666" lon="16.862505880941875"><ele>101.0</ele><time>2026-03-28T12:40:44Z</time></trkpt><trkpt lat="39.214448326239854" lon="16.862518499130736"><ele>101.0</ele><time>2026-03-28T12:41:01Z</time></trkpt><trkpt lat="39.21440389755648" lon="16.862610468496783"><ele>101.0</ele><time>2026-03-28T12:41:04Z</time></trkpt><trkpt lat="39.214361746086674" lon="16.86270849331283"><ele>100.99999999999999</ele><time>2026-03-28T12:41:06Z</time></trkpt><trkpt lat="39.21431578134662" lon="16.862800089337192"><ele>101.0</ele><time>2026-03-28T12:41:08Z</time></trkpt><trkpt lat="39.214259302527864" lon="16.862916973304138"><ele>100.83333333333333</ele><time>2026-03-28T12:41:10Z</time></trkpt><trkpt lat="39.21419406082644" lon="16.863025359344956"><ele>100.66666666666666</ele><time>2026-03-28T12:41:12Z</time></trkpt><trkpt lat="39.214154957527654" lon="16.863120783655877"><ele>100.5</ele><time>2026-03-28T12:41:14Z</time></trkpt><trkpt lat="39.21410552458264" lon="16.863192107891532"><ele>100.33333333333334</ele><time>2026-03-28T12:41:17Z</time></trkpt><trkpt lat="39.214037045166506" lon="16.86320798144724"><ele>100.16666666666667</ele><time>2026-03-28T12:41:24Z</time></trkpt><trkpt lat="39.2139818039376" lon="16.86316673058399"><ele>100.0</ele><time>2026-03-28T12:41:28Z</time></trkpt><trkpt lat="39.21392000468319" lon="16.86312911436472"><ele>100.00000000000001</ele><time>2026-03-28T12:41:31Z</time></trkpt><trkpt lat="39.21384167259959" lon="16.86310460857117"><ele>100.0</ele><time>2026-03-28T12:41:35Z</time></trkpt><trkpt lat="39.21375928910438" lon="16.863129480187595"><ele>100.0</ele><time>2026-03-28T12:41:38Z</time></trkpt><trkpt lat="39.21368632732503" lon="16.863166933952726"><ele>100.0</ele><time>2026-03-28T12:41:40Z</time></trkpt><trkpt lat="39.21360985221168" lon="16.863164879052036"><ele>100.00000000000001</ele><time>2026-03-28T12:41:42Z</time></trkpt><trkpt lat="39.213540578999805" lon="16.863207898803232"><ele>100.0</ele><time>2026-03-28T12:41:44Z</time></trkpt><trkpt lat="39.213464780514244" lon="16.863310345423937"><ele>100.00000000000001</ele><time>2026-03-28T12:41:46Z</time></trkpt><trkpt lat="39.21340041619399" lon="16.863380956181942"><ele>100.0</ele><time>2026-03-28T12:41:48Z</time></trkpt><trkpt lat="39.21331792886423" lon="16.863458722486406"><ele>100.0</ele><time>2026-03-28T12:41:50Z</time></trkpt><trkpt lat="39.21325805810795" lon="16.863540690019626"><ele>100.0</ele><time>2026-03-28T12:41:52Z</time></trkpt><trkpt lat="39.21325170275428" lon="16.86363304352824"><ele>100.00000000000001</ele><time>2026-03-28T12:41:54Z</time></trkpt><trkpt lat="39.213245008496756" lon="16.863720823401874"><ele>100.0</ele><time>2026-03-28T12:41:56Z</time></trkpt><trkpt lat="39.213241254884444" lon="16.86382334114215"><ele>99.83333333333334</ele><time>2026-03-28T12:41:59Z</time></trkpt><trkpt lat="39.21319729466828" lon="16.86395688285419"><ele>99.66666666666667</ele><time>2026-03-28T12:42:01Z</time></trkpt><trkpt lat="39.21314764112558" lon="16.86404396745007"><ele>99.5</ele><time>2026-03-28T12:42:02Z</time></trkpt><trkpt lat="39.21310675531601" lon="16.864134258428635"><ele>99.33333333333334</ele><time>2026-03-28T12:42:03Z</time></trkpt><trkpt lat="39.21307577304303" lon="16.864227798376678"><ele>99.16666666666667</ele><time>2026-03-28T12:42:04Z</time></trkpt><trkpt lat="39.213034922718954" lon="16.864319780910087"><ele>99.0</ele><time>2026-03-28T12:42:05Z</time></trkpt><trkpt lat="39.212984442547" lon="16.86440347695099"><ele>98.83333333333333</ele><time>2026-03-28T12:42:06Z</time></trkpt><trkpt lat="39.21293280629254" lon="16.864481456368807"><ele>98.66666666666666</ele><time>2026-03-28T12:42:07Z</time></trkpt><trkpt lat="39.212873743539966" lon="16.864549764434734"><ele>98.5</ele><time>2026-03-28T12:42:08Z</time></trkpt><trkpt lat="39.212807576810334" lon="16.864607285357476"><ele>98.33333333333333</ele><time>2026-03-28T12:42:09Z</time></trkpt><trkpt lat="39.21274499369227" lon="16.86465316516488"><ele>98.16666666666666</ele><time>2026-03-28T12:42:10Z</time></trkpt><trkpt lat="39.21269037622412" lon="16.864698848549978"><ele>98.0</ele><time>2026-03-28T12:42:11Z</time></trkpt><trkpt lat="39.21258798014127" lon="16.864781535934075"><ele>98.0</ele><time>2026-03-28T12:42:13Z</time></trkpt><trkpt lat="39.21247719682832" lon="16.864840140525807"><ele>98.0</ele><time>2026-03-28T12:42:15Z</time></trkpt><trkpt lat="39.212373374508005" lon="16.864910776688085"><ele>98.0</ele><time>2026-03-28T12:42:17Z</time></trkpt><trkpt lat="39.21233008261958" lon="16.86500987134987"><ele>98.0</ele><time>2026-03-28T12:42:19Z</time></trkpt><trkpt lat="39.212283990239186" lon="16.865087713259985"><ele>98.0</ele><time>2026-03-28T12:42:21Z</time></trkpt><trkpt lat="39.21221813242258" lon="16.86514376339834"><ele>97.99999999999999</ele><time>2026-03-28T12:42:23Z</time></trkpt><trkpt lat="39.21217742285369" lon="16.865228300549962"><ele>98.0</ele><time>2026-03-28T12:42:25Z</time></trkpt><trkpt lat="39.21216704095008" lon="16.865335136731677"><ele>98.0</ele><time>2026-03-28T12:42:27Z</time></trkpt><trkpt lat="39.21217917793868" lon="16.865425677521408"><ele>98.0</ele><time>2026-03-28T12:42:29Z</time></trkpt><trkpt lat="39.21219296969264" lon="16.865542818485196"><ele>97.99999999999999</ele><time>2026-03-28T12:42:32Z</time></trkpt><trkpt lat="39.21218326365618" lon="16.865674996761268"><ele>98.0</ele><time>2026-03-28T12:42:35Z</time></trkpt><trkpt lat="39.212102871670595" lon="16.86579997173091"><ele>98.0</ele><time>2026-03-28T12:42:37Z</time></trkpt><trkpt lat="39.212028017099506" lon="16.865845624499176"><ele>98.0</ele><time>2026-03-28T12:42:38Z</time></trkpt><trkpt lat="39.21195433652496" lon="16.865880669295613"><ele>98.0</ele><time>2026-03-28T12:42:39Z</time></trkpt><trkpt lat="39.21189691278726" lon="16.865917918762552"><ele>98.0</ele><time>2026-03-28T12:42:40Z</time></trkpt><trkpt lat="39.211840806623464" lon="16.86604591122195"><ele>98.0</ele><time>2026-03-28T12:42:42Z</time></trkpt><trkpt lat="39.21184708744779" lon="16.86620122706775"><ele>97.83333333333333</ele><time>2026-03-28T12:42:44Z</time></trkpt><trkpt lat="39.211884909941666" lon="16.86632426397469"><ele>97.66666666666666</ele><time>2026-03-28T12:42:46Z</time></trkpt><trkpt lat="39.2119217353058" lon="16.866432268166534"><ele>97.5</ele><time>2026-03-28T12:42:48Z</time></trkpt><trkpt lat="39.21194613232247" lon="16.866530412013645"><ele>97.33333333333334</ele><time>2026-03-28T12:42:50Z</time></trkpt><trkpt lat="39.211956140779385" lon="16.866628452157737"><ele>97.16666666666667</ele><time>2026-03-28T12:42:53Z</time></trkpt><trkpt lat="39.211957539486505" lon="16.866730662461176"><ele>97.0</ele><time>2026-03-28T12:43:05Z</time></trkpt><trkpt lat="39.21196935007398" lon="16.866838426384078"><ele>97.0</ele><time>2026-03-28T12:43:09Z</time></trkpt><trkpt lat="39.21199456635546" lon="16.866916054205593"><ele>97.0</ele><time>2026-03-28T12:43:12Z</time></trkpt><trkpt lat="39.21202071198482" lon="16.867002013927788"><ele>97.0</ele><time>2026-03-28T12:43:20Z</time></trkpt><trkpt lat="39.21198438679518" lon="16.867077942428846"><ele>97.0</ele><time>2026-03-28T12:43:24Z</time></trkpt><trkpt lat="39.211913799094795" lon="16.86712505748321"><ele>97.0</ele><time>2026-03-28T12:43:28Z</time></trkpt><trkpt lat="39.21183945637565" lon="16.867170024877108"><ele>97.0</ele><time>2026-03-28T12:43:32Z</time></trkpt><trkpt lat="39.211807791720915" lon="16.86724534550434"><ele>97.0</ele><time>2026-03-28T12:43:36Z</time></trkpt><trkpt lat="39.2117827605887" lon="16.867346803693128"><ele>97.00000000000001</ele><time>2026-03-28T12:43:40Z</time></trkpt><trkpt lat="39.21172266771831" lon="16.867416818786428"><ele>97.0</ele><time>2026-03-28T12:43:44Z</time></trkpt><trkpt lat="39.21167548350491" lon="16.86749863413615"><ele>97.0</ele><time>2026-03-28T12:43:48Z</time></trkpt><trkpt lat="39.211652184185716" lon="16.867585288011494"><ele>97.0</ele><time>2026-03-28T12:43:51Z</time></trkpt><trkpt lat="39.21162161232637" lon="16.86765856054342"><ele>97.00000000000001</ele><time>2026-03-28T12:43:53Z</time></trkpt><trkpt lat="39.21158012871614" lon="16.867793599558837"><ele>97.0</ele><time>2026-03-28T12:44:11Z</time></trkpt><trkpt lat="39.21159157488919" lon="16.867890925300852"><ele>97.33333333333334</ele><time>2026-03-28T12:44:14Z</time></trkpt><trkpt lat="39.21161781731885" lon="16.867983815352765"><ele>97.66666666666667</ele><time>2026-03-28T12:44:17Z</time></trkpt><trkpt lat="39.21165542715618" lon="16.86807596099613"><ele>98.0</ele><time>2026-03-28T12:44:20Z</time></trkpt><trkpt lat="39.21170447338671" lon="16.86815145003249"><ele>98.33333333333334</ele><time>2026-03-28T12:44:24Z</time></trkpt><trkpt lat="39.211740149431584" lon="16.86823750096993"><ele>98.66666666666667</ele><time>2026-03-28T12:44:27Z</time></trkpt><trkpt lat="39.21177401695087" lon="16.868318307354993"><ele>99.0</ele><time>2026-03-28T12:44:29Z</time></trkpt><trkpt lat="39.21181132548363" lon="16.86842289256188"><ele>101.0</ele><time>2026-03-28T12:44:31Z</time></trkpt><trkpt lat="39.21187152117795" lon="16.868533730908982"><ele>103.0</ele><time>2026-03-28T12:44:33Z</time></trkpt><trkpt lat="39.211915687650524" lon="16.868632290641333"><ele>105.0</ele><time>2026-03-28T12:44:35Z</time></trkpt><trkpt lat="39.211951592058064" lon="16.86872358384815"><ele>107.0</ele><time>2026-03-28T12:44:37Z</time></trkpt><trkpt lat="39.211987784668764" lon="16.8688383232637"><ele>109.0</ele><time>2026-03-28T12:44:39Z</time></trkpt><trkpt lat="39.212016706610726" lon="16.868945021730855"><ele>109.0</ele><time>2026-03-28T12:44:41Z</time></trkpt><trkpt lat="39.21205053079036" lon="16.86904222239659"><ele>109.0</ele><time>2026-03-28T12:44:43Z</time></trkpt><trkpt lat="39.21206330742712" lon="16.86916451611404"><ele>109.0</ele><time>2026-03-28T12:44:45Z</time></trkpt><trkpt lat="39.21208032087733" lon="16.869307440732296"><ele>109.0</ele><time>2026-03-28T12:44:47Z</time></trkpt><trkpt lat="39.21210151840855" lon="16.86946523292356"><ele>109.0</ele><time>2026-03-28T12:44:49Z</time></trkpt><trkpt lat="39.212129009994264" lon="16.86961418260865"><ele>111.16666666666667</ele><time>2026-03-28T12:44:51Z</time></trkpt><trkpt lat="39.21215676539731" lon="16.86973099404842"><ele>113.33333333333334</ele><time>2026-03-28T12:44:53Z</time></trkpt><trkpt lat="39.21217004987102" lon="16.869830525811036"><ele>115.5</ele><time>2026-03-28T12:44:55Z</time></trkpt><trkpt lat="39.212190309825935" lon="16.8699227153134"><ele>117.66666666666666</ele><time>2026-03-28T12:44:57Z</time></trkpt><trkpt lat="39.212223531346424" lon="16.870017472847216"><ele>119.83333333333333</ele><time>2026-03-28T12:44:59Z</time></trkpt><trkpt lat="39.21225365327691" lon="16.87010367746402"><ele>122.0</ele><time>2026-03-28T12:45:01Z</time></trkpt><trkpt lat="39.21228304247212" lon="16.870194953675995"><ele>122.99999999999999</ele><time>2026-03-28T12:45:04Z</time></trkpt><trkpt lat="39.21232243188068" lon="16.870296646297835"><ele>124.0</ele><time>2026-03-28T12:45:07Z</time></trkpt><trkpt lat="39.21233959452277" lon="16.870375370397483"><ele>124.99999999999999</ele><time>2026-03-28T12:45:09Z</time></trkpt><trkpt lat="39.212367624904864" lon="16.870453409431"><ele>125.99999999999999</ele><time>2026-03-28T12:45:12Z</time></trkpt><trkpt lat="39.212375149709956" lon="16.870542005776915"><ele>127.0</ele><time>2026-03-28T12:45:49Z</time></trkpt><trkpt lat="39.21234411539229" lon="16.87062222688679"><ele>127.99999999999999</ele><time>2026-03-28T12:46:01Z</time></trkpt><trkpt lat="39.212298803408714" lon="16.87072603179277"><ele>129.0</ele><time>2026-03-28T12:46:03Z</time></trkpt><trkpt lat="39.21226423669259" lon="16.870819341948902"><ele>129.0</ele><time>2026-03-28T12:46:06Z</time></trkpt><trkpt lat="39.212221893101415" lon="16.87091758638766"><ele>129.0</ele><time>2026-03-28T12:46:08Z</time></trkpt><trkpt lat="39.21231893274492" lon="16.871013610809843"><ele>129.0</ele><time>2026-03-28T12:46:10Z</time></trkpt><trkpt lat="39.21235502935431" lon="16.87110977144114"><ele>129.0</ele><time>2026-03-28T12:46:13Z</time></trkpt><trkpt lat="39.21239244966809" lon="16.871190880746138"><ele>129.0</ele><time>2026-03-28T12:46:15Z</time></trkpt><trkpt lat="39.21246986180978" lon="16.871257332481587"><ele>126.75</ele><time>2026-03-28T12:46:17Z</time></trkpt><trkpt lat="39.21254957156017" lon="16.87135410964839"><ele>124.5</ele><time>2026-03-28T12:46:19Z</time></trkpt><trkpt lat="39.21266012855275" lon="16.87141651699178"><ele>122.25</ele><time>2026-03-28T12:46:21Z</time></trkpt><trkpt lat="39.212765499451216" lon="16.871475710346107"><ele>120.0</ele><time>2026-03-28T12:46:23Z</time></trkpt><trkpt lat="39.212864121854686" lon="16.871543681869706"><ele>120.0</ele><time>2026-03-28T12:46:25Z</time></trkpt><trkpt lat="39.21294982685687" lon="16.871598185664844"><ele>120.0</ele><time>2026-03-28T12:46:27Z</time></trkpt><trkpt lat="39.21302566028868" lon="16.87172954411893"><ele>120.0</ele><time>2026-03-28T12:46:29Z</time></trkpt><trkpt lat="39.21305516608207" lon="16.871809882882474"><ele>120.0</ele><time>2026-03-28T12:46:30Z</time></trkpt><trkpt lat="39.2130905648734" lon="16.87191214707909"><ele>120.0</ele><time>2026-03-28T12:46:32Z</time></trkpt><trkpt lat="39.21313453514228" lon="16.872038107346793"><ele>118.6</ele><time>2026-03-28T12:46:35Z</time></trkpt><trkpt lat="39.21316278425216" lon="16.87220279010705"><ele>117.2</ele><time>2026-03-28T12:46:37Z</time></trkpt><trkpt lat="39.21318311823726" lon="16.872292317493766"><ele>115.80000000000001</ele><time>2026-03-28T12:46:38Z</time></trkpt><trkpt lat="39.213204258146" lon="16.872394869483365"><ele>114.4</ele><time>2026-03-28T12:46:39Z</time></trkpt><trkpt lat="39.213227404324954" lon="16.87251468114175"><ele>113.0</ele><time>2026-03-28T12:46:40Z</time></trkpt><trkpt lat="39.213251493688375" lon="16.872648538039382"><ele>113.0</ele><time>2026-03-28T12:46:41Z</time></trkpt><trkpt lat="39.2132747879074" lon="16.872787158218603"><ele>113.00000000000001</ele><time>2026-03-28T12:46:42Z</time></trkpt><trkpt lat="39.213292793241195" lon="16.87291536143307"><ele>113.00000000000001</ele><time>2026-03-28T12:46:43Z</time></trkpt><trkpt lat="39.213294425617896" lon="16.873032360854072"><ele>113.0</ele><time>2026-03-28T12:46:44Z</time></trkpt><trkpt lat="39.21328932688306" lon="16.87313611168431"><ele>113.0</ele><time>2026-03-28T12:46:45Z</time></trkpt><trkpt lat="39.21329198284751" lon="16.873228748455528"><ele>112.99999999999999</ele><time>2026-03-28T12:46:46Z</time></trkpt><trkpt lat="39.213285626833944" lon="16.873377000267375"><ele>113.0</ele><time>2026-03-28T12:46:48Z</time></trkpt><trkpt lat="39.21331346668844" lon="16.87349753831866"><ele>113.0</ele><time>2026-03-28T12:46:50Z</time></trkpt><trkpt lat="39.21336344022054" lon="16.87355817353914"><ele>113.0</ele><time>2026-03-28T12:46:51Z</time></trkpt><trkpt lat="39.21342031212334" lon="16.87362917877151"><ele>112.99999999999999</ele><time>2026-03-28T12:46:52Z</time></trkpt><trkpt lat="39.21348171546287" lon="16.87370943959347"><ele>113.0</ele><time>2026-03-28T12:46:53Z</time></trkpt><trkpt lat="39.21354930035036" lon="16.873796211691257"><ele>113.5</ele><time>2026-03-28T12:46:54Z</time></trkpt><trkpt lat="39.213619593749094" lon="16.873889862231078"><ele>114.0</ele><time>2026-03-28T12:46:55Z</time></trkpt><trkpt lat="39.21369429814184" lon="16.873989652686276"><ele>114.5</ele><time>2026-03-28T12:46:56Z</time></trkpt><trkpt lat="39.21377240130496" lon="16.87410739822122"><ele>115.0</ele><time>2026-03-28T12:46:57Z</time></trkpt><trkpt lat="39.21386439882423" lon="16.874232897705873"><ele>115.75</ele><time>2026-03-28T12:46:58Z</time></trkpt><trkpt lat="39.21394370850507" lon="16.874378274621183"><ele>116.5</ele><time>2026-03-28T12:46:59Z</time></trkpt><trkpt lat="39.21402046512942" lon="16.87452731619935"><ele>117.25</ele><time>2026-03-28T12:47:00Z</time></trkpt><trkpt lat="39.214095016125725" lon="16.874682482296162"><ele>118.0</ele><time>2026-03-28T12:47:01Z</time></trkpt><trkpt lat="39.21416484752681" lon="16.87485044228771"><ele>118.0</ele><time>2026-03-28T12:47:02Z</time></trkpt><trkpt lat="39.21423704157111" lon="16.875016977971676"><ele>118.0</ele><time>2026-03-28T12:47:03Z</time></trkpt><trkpt lat="39.2143042751298" lon="16.875178729164677"><ele>118.0</ele><time>2026-03-28T12:47:04Z</time></trkpt><trkpt lat="39.214367397561745" lon="16.875336240048323"><ele>118.0</ele><time>2026-03-28T12:47:05Z</time></trkpt><trkpt lat="39.21442165479107" lon="16.87548637741198"><ele>119.0</ele><time>2026-03-28T12:47:06Z</time></trkpt><trkpt lat="39.2144770611051" lon="16.87561489383704"><ele>120.00000000000001</ele><time>2026-03-28T12:47:07Z</time></trkpt><trkpt lat="39.21452762226011" lon="16.875724887547847"><ele>121.00000000000001</ele><time>2026-03-28T12:47:08Z</time></trkpt><trkpt lat="39.214572459916155" lon="16.87582434652797"><ele>122.0</ele><time>2026-03-28T12:47:09Z</time></trkpt><trkpt lat="39.21460295337729" lon="16.87593546765461"><ele>123.0</ele><time>2026-03-28T12:47:10Z</time></trkpt><trkpt lat="39.214613796858856" lon="16.876079054184984"><ele>124.4</ele><time>2026-03-28T12:47:11Z</time></trkpt><trkpt lat="39.21462240264998" lon="16.87623206422968"><ele>125.80000000000001</ele><time>2026-03-28T12:47:12Z</time></trkpt><trkpt lat="39.21463669668768" lon="16.876377125332368"><ele>127.2</ele><time>2026-03-28T12:47:13Z</time></trkpt><trkpt lat="39.214655756519356" lon="16.87651274346808"><ele>128.6</ele><time>2026-03-28T12:47:14Z</time></trkpt><trkpt lat="39.21467445557854" lon="16.876642940177444"><ele>130.0</ele><time>2026-03-28T12:47:15Z</time></trkpt><trkpt lat="39.21469648202733" lon="16.876761532327947"><ele>131.2</ele><time>2026-03-28T12:47:16Z</time></trkpt><trkpt lat="39.21471339484272" lon="16.8768748560014"><ele>132.4</ele><time>2026-03-28T12:47:17Z</time></trkpt><trkpt lat="39.21468483677916" lon="16.876975354643516"><ele>133.6</ele><time>2026-03-28T12:47:18Z</time></trkpt><trkpt lat="39.21467851694365" lon="16.877097247874953"><ele>134.8</ele><time>2026-03-28T12:47:19Z</time></trkpt><trkpt lat="39.21465389731009" lon="16.877213438196083"><ele>136.0</ele><time>2026-03-28T12:47:20Z</time></trkpt><trkpt lat="39.21465140988365" lon="16.877338025949594"><ele>136.0</ele><time>2026-03-28T12:47:21Z</time></trkpt><trkpt lat="39.214694867977535" lon="16.877455208554643"><ele>136.0</ele><time>2026-03-28T12:47:22Z</time></trkpt><trkpt lat="39.214737878794274" lon="16.877562671356603"><ele>136.0</ele><time>2026-03-28T12:47:23Z</time></trkpt><trkpt lat="39.21480235966279" lon="16.877652811959642"><ele>136.0</ele><time>2026-03-28T12:47:24Z</time></trkpt><trkpt lat="39.214875975896696" lon="16.877719103663967"><ele>136.0</ele><time>2026-03-28T12:47:25Z</time></trkpt><trkpt lat="39.2149376482293" lon="16.87778624509096"><ele>137.66666666666669</ele><time>2026-03-28T12:47:26Z</time></trkpt><trkpt lat="39.21501459367456" lon="16.87782506541623"><ele>139.33333333333334</ele><time>2026-03-28T12:47:27Z</time></trkpt><trkpt lat="39.21507150402919" lon="16.877907975712876"><ele>141.0</ele><time>2026-03-28T12:47:28Z</time></trkpt><trkpt lat="39.21508167172818" lon="16.878010504270474"><ele>142.66666666666666</ele><time>2026-03-28T12:47:29Z</time></trkpt><trkpt lat="39.21506177935804" lon="16.87812569737474"><ele>144.33333333333331</ele><time>2026-03-28T12:47:30Z</time></trkpt><trkpt lat="39.21502613137765" lon="16.878254697207325"><ele>146.0</ele><time>2026-03-28T12:47:31Z</time></trkpt><trkpt lat="39.21495347983011" lon="16.87837516577312"><ele>148.25</ele><time>2026-03-28T12:47:32Z</time></trkpt><trkpt lat="39.21488717570849" lon="16.878507135243453"><ele>150.5</ele><time>2026-03-28T12:47:33Z</time></trkpt><trkpt lat="39.214830235328655" lon="16.878661537191324"><ele>152.75</ele><time>2026-03-28T12:47:34Z</time></trkpt><trkpt lat="39.21474934034186" lon="16.878802153361303"><ele>155.0</ele><time>2026-03-28T12:47:35Z</time></trkpt><trkpt lat="39.214673764291945" lon="16.878948687230178"><ele>155.8</ele><time>2026-03-28T12:47:36Z</time></trkpt><trkpt lat="39.214607697672086" lon="16.879079437731534"><ele>156.6</ele><time>2026-03-28T12:47:37Z</time></trkpt><trkpt lat="39.21455150549047" lon="16.87918628772906"><ele>157.4</ele><time>2026-03-28T12:47:38Z</time></trkpt><trkpt lat="39.2145038819934" lon="16.87927737005817"><ele>158.2</ele><time>2026-03-28T12:47:39Z</time></trkpt><trkpt lat="39.214465571533154" lon="16.879377831286202"><ele>159.0</ele><time>2026-03-28T12:47:40Z</time></trkpt><trkpt lat="39.21446182812741" lon="16.87948364897477"><ele>161.83333333333334</ele><time>2026-03-28T12:47:41Z</time></trkpt><trkpt lat="39.214458445910665" lon="16.879568862396308"><ele>164.66666666666666</ele><time>2026-03-28T12:47:42Z</time></trkpt><trkpt lat="39.21442995817259" lon="16.879685914490427"><ele>167.5</ele><time>2026-03-28T12:47:44Z</time></trkpt><trkpt lat="39.21437401932614" lon="16.879600112308154"><ele>170.33333333333331</ele><time>2026-03-28T12:47:47Z</time></trkpt><trkpt lat="39.214330365341574" lon="16.879511362598585"><ele>173.16666666666666</ele><time>2026-03-28T12:47:48Z</time></trkpt><trkpt lat="39.21426269544365" lon="16.879422813743133"><ele>176.0</ele><time>2026-03-28T12:47:49Z</time></trkpt><trkpt lat="39.21419141363826" lon="16.879392818137728"><ele>176.0</ele><time>2026-03-28T12:47:50Z</time></trkpt><trkpt lat="39.21411890348461" lon="16.879408094693424"><ele>176.0</ele><time>2026-03-28T12:47:51Z</time></trkpt><trkpt lat="39.21404588650207" lon="16.879421194209584"><ele>176.0</ele><time>2026-03-28T12:47:52Z</time></trkpt><trkpt lat="39.21396004974331" lon="16.879505076381864"><ele>176.0</ele><time>2026-03-28T12:47:53Z</time></trkpt><trkpt lat="39.213919146957615" lon="16.879669362933917"><ele>176.0</ele><time>2026-03-28T12:47:54Z</time></trkpt><trkpt lat="39.213867896831196" lon="16.879809610041757"><ele>176.8</ele><time>2026-03-28T12:47:55Z</time></trkpt><trkpt lat="39.21381977679262" lon="16.87995254305568"><ele>177.60000000000002</ele><time>2026-03-28T12:47:56Z</time></trkpt><trkpt lat="39.21376249845008" lon="16.88006643176815"><ele>178.4</ele><time>2026-03-28T12:47:57Z</time></trkpt><trkpt lat="39.21370863925507" lon="16.880151871294487"><ele>179.2</ele><time>2026-03-28T12:47:58Z</time></trkpt><trkpt lat="39.21368056961191" lon="16.880244123271066"><ele>180.0</ele><time>2026-03-28T12:47:59Z</time></trkpt><trkpt lat="39.21368101254929" lon="16.880356608339007"><ele>182.4</ele><time>2026-03-28T12:48:00Z</time></trkpt><trkpt lat="39.21370584258146" lon="16.880444626173592"><ele>184.8</ele><time>2026-03-28T12:48:01Z</time></trkpt><trkpt lat="39.21370269220845" lon="16.880547260186034"><ele>187.2</ele><time>2026-03-28T12:48:02Z</time></trkpt><trkpt lat="39.21366411863092" lon="16.8806482936003"><ele>189.6</ele><time>2026-03-28T12:48:03Z</time></trkpt><trkpt lat="39.21361222186564" lon="16.880760076359383"><ele>192.0</ele><time>2026-03-28T12:48:04Z</time></trkpt><trkpt lat="39.213603960028394" lon="16.880916953332317"><ele>194.0</ele><time>2026-03-28T12:48:05Z</time></trkpt><trkpt lat="39.21355393916706" lon="16.88106795884997"><ele>196.0</ele><time>2026-03-28T12:48:06Z</time></trkpt><trkpt lat="39.21349674182699" lon="16.881220979577684"><ele>198.0</ele><time>2026-03-28T12:48:07Z</time></trkpt><trkpt lat="39.213440800187456" lon="16.881364610022377"><ele>200.0</ele><time>2026-03-28T12:48:08Z</time></trkpt><trkpt lat="39.21338807043999" lon="16.881494518640075"><ele>200.0</ele><time>2026-03-28T12:48:09Z</time></trkpt><trkpt lat="39.213354265116564" lon="16.88161841252794"><ele>200.0</ele><time>2026-03-28T12:48:10Z</time></trkpt><trkpt lat="39.21332261864388" lon="16.881728357832024"><ele>200.0</ele><time>2026-03-28T12:48:11Z</time></trkpt><trkpt lat="39.21329853948881" lon="16.881830005102824"><ele>200.0</ele><time>2026-03-28T12:48:12Z</time></trkpt><trkpt lat="39.21330935294562" lon="16.88193318841456"><ele>200.0</ele><time>2026-03-28T12:48:13Z</time></trkpt><trkpt lat="39.21335585796551" lon="16.88203889381532"><ele>203.25</ele><time>2026-03-28T12:48:14Z</time></trkpt><trkpt lat="39.2134409408076" lon="16.88213953694062"><ele>206.5</ele><time>2026-03-28T12:48:15Z</time></trkpt><trkpt lat="39.21353833412008" lon="16.882243523826013"><ele>209.75</ele><time>2026-03-28T12:48:16Z</time></trkpt><trkpt lat="39.2136345896648" lon="16.882344431688367"><ele>213.0</ele><time>2026-03-28T12:48:17Z</time></trkpt><trkpt lat="39.213722105695766" lon="16.882439626611617"><ele>213.0</ele><time>2026-03-28T12:48:18Z</time></trkpt><trkpt lat="39.21379868777333" lon="16.882518083642296"><ele>213.0</ele><time>2026-03-28T12:48:19Z</time></trkpt><trkpt lat="39.21385585776915" lon="16.882582559543014"><ele>213.0</ele><time>2026-03-28T12:48:20Z</time></trkpt><trkpt lat="39.21393022005076" lon="16.88273013959636"><ele>213.0</ele><time>2026-03-28T12:48:22Z</time></trkpt><trkpt lat="39.213797472269036" lon="16.882755438986333"><ele>213.0</ele><time>2026-03-28T12:48:24Z</time></trkpt><trkpt lat="39.21368513473972" lon="16.88273720795843"><ele>218.0</ele><time>2026-03-28T12:48:25Z</time></trkpt><trkpt lat="39.2135639531525" lon="16.882719126716836"><ele>223.0</ele><time>2026-03-28T12:48:26Z</time></trkpt><trkpt lat="39.213436515735374" lon="16.882702325572254"><ele>228.0</ele><time>2026-03-28T12:48:27Z</time></trkpt><trkpt lat="39.21330199828468" lon="16.88271478151387"><ele>233.0</ele><time>2026-03-28T12:48:28Z</time></trkpt><trkpt lat="39.213186475403575" lon="16.882711799082248"><ele>234.4</ele><time>2026-03-28T12:48:29Z</time></trkpt><trkpt lat="39.21309410120805" lon="16.88267956070915"><ele>235.8</ele><time>2026-03-28T12:48:30Z</time></trkpt><trkpt lat="39.21302132550948" lon="16.882689609674042"><ele>237.2</ele><time>2026-03-28T12:48:31Z</time></trkpt><trkpt lat="39.21291342807472" lon="16.882663999245754"><ele>238.6</ele><time>2026-03-28T12:48:33Z</time></trkpt><trkpt lat="39.21292330544725" lon="16.88283097718858"><ele>240.0</ele><time>2026-03-28T12:48:35Z</time></trkpt><trkpt lat="39.21301839395756" lon="16.8829211546266"><ele>240.0</ele><time>2026-03-28T12:48:36Z</time></trkpt><trkpt lat="39.21312425253689" lon="16.88300294084593"><ele>240.0</ele><time>2026-03-28T12:48:37Z</time></trkpt><trkpt lat="39.213237624535445" lon="16.88309073561883"><ele>240.0</ele><time>2026-03-28T12:48:38Z</time></trkpt><trkpt lat="39.213350480355004" lon="16.883178130494098"><ele>240.0</ele><time>2026-03-28T12:48:39Z</time></trkpt><trkpt lat="39.213446371979046" lon="16.883252772010863"><ele>238.6</ele><time>2026-03-28T12:48:40Z</time></trkpt><trkpt lat="39.21351166069202" lon="16.883305377254562"><ele>237.2</ele><time>2026-03-28T12:48:41Z</time></trkpt><trkpt lat="39.213575009836724" lon="16.88335641963179"><ele>235.8</ele><time>2026-03-28T12:48:43Z</time></trkpt><trkpt lat="39.213474778092724" lon="16.883300938485625"><ele>234.4</ele><time>2026-03-28T12:48:46Z</time></trkpt><trkpt lat="39.21338028491702" lon="16.883224801891764"><ele>233.0</ele><time>2026-03-28T12:48:47Z</time></trkpt><trkpt lat="39.21320502706764" lon="16.88328769809302"><ele>234.75</ele><time>2026-03-28T12:48:48Z</time></trkpt><trkpt lat="39.213065819058016" lon="16.88323760687841"><ele>236.5</ele><time>2026-03-28T12:48:49Z</time></trkpt><trkpt lat="39.212923280880666" lon="16.883186317354557"><ele>238.25</ele><time>2026-03-28T12:48:50Z</time></trkpt><trkpt lat="39.21279572261465" lon="16.883140417893024"><ele>240.0</ele><time>2026-03-28T12:48:51Z</time></trkpt><trkpt lat="39.212690796614815" lon="16.883102662125037"><ele>240.0</ele><time>2026-03-28T12:48:52Z</time></trkpt><trkpt lat="39.21260228156987" lon="16.883072729104082"><ele>240.0</ele><time>2026-03-28T12:48:53Z</time></trkpt><trkpt lat="39.212526589798784" lon="16.883077988276263"><ele>240.0</ele><time>2026-03-28T12:48:55Z</time></trkpt><trkpt lat="39.21253283433805" lon="16.8832967581737"><ele>240.0</ele><time>2026-03-28T12:48:59Z</time></trkpt><trkpt lat="39.21261262006952" lon="16.88343082687302"><ele>241.5</ele><time>2026-03-28T12:49:00Z</time></trkpt><trkpt lat="39.2126890487741" lon="16.88357222224306"><ele>243.0</ele><time>2026-03-28T12:49:01Z</time></trkpt><trkpt lat="39.212764340981245" lon="16.883725510541648"><ele>244.5</ele><time>2026-03-28T12:49:02Z</time></trkpt><trkpt lat="39.21282997358603" lon="16.88386812120198"><ele>246.0</ele><time>2026-03-28T12:49:03Z</time></trkpt><trkpt lat="39.21289467181628" lon="16.883991507669254"><ele>246.0</ele><time>2026-03-28T12:49:04Z</time></trkpt><trkpt lat="39.21292782606478" lon="16.88411695297896"><ele>246.0</ele><time>2026-03-28T12:49:05Z</time></trkpt><trkpt lat="39.21294835139781" lon="16.88422540928555"><ele>246.0</ele><time>2026-03-28T12:49:06Z</time></trkpt><trkpt lat="39.2129660968753" lon="16.884317593379897"><ele>246.0</ele><time>2026-03-28T12:49:07Z</time></trkpt><trkpt lat="39.21299747764837" lon="16.884389989058707"><ele>246.0</ele><time>2026-03-28T12:49:08Z</time></trkpt><trkpt lat="39.213015280474664" lon="16.884468432066623"><ele>246.0</ele><time>2026-03-28T12:49:09Z</time></trkpt><trkpt lat="39.213033451960776" lon="16.884577325366763"><ele>246.0</ele><time>2026-03-28T12:49:11Z</time></trkpt><trkpt lat="39.21303797196136" lon="16.884798373966493"><ele>246.0</ele><time>2026-03-28T12:49:43Z</time></trkpt><trkpt lat="39.21305881039824" lon="16.88489993307889"><ele>246.0</ele><time>2026-03-28T12:49:46Z</time></trkpt><trkpt lat="39.2130399737817" lon="16.884994114298827"><ele>246.0</ele><time>2026-03-28T12:49:48Z</time></trkpt><trkpt lat="39.21299342105304" lon="16.885145014868677"><ele>247.16666666666666</ele><time>2026-03-28T12:49:50Z</time></trkpt><trkpt lat="39.212950410677976" lon="16.885213214939228"><ele>248.33333333333331</ele><time>2026-03-28T12:49:51Z</time></trkpt><trkpt lat="39.212899475892876" lon="16.88528624515271"><ele>249.5</ele><time>2026-03-28T12:49:52Z</time></trkpt><trkpt lat="39.21283755910682" lon="16.885350863134526"><ele>250.66666666666666</ele><time>2026-03-28T12:49:53Z</time></trkpt><trkpt lat="39.21278922652675" lon="16.885423874278"><ele>251.83333333333331</ele><time>2026-03-28T12:49:54Z</time></trkpt><trkpt lat="39.21272267745531" lon="16.885530245027155"><ele>253.0</ele><time>2026-03-28T12:49:56Z</time></trkpt><trkpt lat="39.21267308992458" lon="16.88563107763206"><ele>253.0</ele><time>2026-03-28T12:49:58Z</time></trkpt><trkpt lat="39.21262119392998" lon="16.88571983887207"><ele>253.0</ele><time>2026-03-28T12:50:00Z</time></trkpt><trkpt lat="39.21255842338734" lon="16.885781697996716"><ele>253.0</ele><time>2026-03-28T12:50:02Z</time></trkpt><trkpt lat="39.21250011910828" lon="16.885842553102403"><ele>253.0</ele><time>2026-03-28T12:50:04Z</time></trkpt><trkpt lat="39.21241870276839" lon="16.885924432996855"><ele>253.0</ele><time>2026-03-28T12:50:06Z</time></trkpt><trkpt lat="39.21234251745726" lon="16.88604918876973"><ele>253.14285714285717</ele><time>2026-03-28T12:50:08Z</time></trkpt><trkpt lat="39.21229516928437" lon="16.886103827592155"><ele>253.28571428571428</ele><time>2026-03-28T12:50:09Z</time></trkpt><trkpt lat="39.21224787307691" lon="16.886170380295926"><ele>253.42857142857144</ele><time>2026-03-28T12:50:10Z</time></trkpt><trkpt lat="39.212215071752425" lon="16.88625111099684"><ele>253.57142857142858</ele><time>2026-03-28T12:50:11Z</time></trkpt><trkpt lat="39.212168514033856" lon="16.886330311480435"><ele>253.71428571428572</ele><time>2026-03-28T12:50:12Z</time></trkpt><trkpt lat="39.21212873507251" lon="16.886413217215523"><ele>253.85714285714286</ele><time>2026-03-28T12:50:13Z</time></trkpt><trkpt lat="39.21208793385122" lon="16.886494364041607"><ele>254.0</ele><time>2026-03-28T12:50:14Z</time></trkpt><trkpt lat="39.21203406014604" lon="16.886596079314195"><ele>254.0</ele><time>2026-03-28T12:50:15Z</time></trkpt><trkpt lat="39.21197408812687" lon="16.88671755552941"><ele>253.99999999999997</ele><time>2026-03-28T12:50:16Z</time></trkpt><trkpt lat="39.211919561827266" lon="16.88685653354125"><ele>253.99999999999997</ele><time>2026-03-28T12:50:17Z</time></trkpt><trkpt lat="39.211876723775376" lon="16.88697754837752"><ele>254.0</ele><time>2026-03-28T12:50:18Z</time></trkpt><trkpt lat="39.21184128110156" lon="16.887092181537373"><ele>254.0</ele><time>2026-03-28T12:50:19Z</time></trkpt><trkpt lat="39.21180562407681" lon="16.88719190276208"><ele>255.50000000000003</ele><time>2026-03-28T12:50:20Z</time></trkpt><trkpt lat="39.211768931993035" lon="16.8872975191789"><ele>257.0</ele><time>2026-03-28T12:50:21Z</time></trkpt><trkpt lat="39.21172707404114" lon="16.887411681483673"><ele>258.5</ele><time>2026-03-28T12:50:22Z</time></trkpt><trkpt lat="39.21169315127283" lon="16.887517527744173"><ele>260.0</ele><time>2026-03-28T12:50:23Z</time></trkpt><trkpt lat="39.21167153764746" lon="16.88761981586313"><ele>261.5</ele><time>2026-03-28T12:50:24Z</time></trkpt><trkpt lat="39.21164522326409" lon="16.88771428939891"><ele>263.0</ele><time>2026-03-28T12:50:25Z</time></trkpt><trkpt lat="39.2116233556082" lon="16.88779062642885"><ele>263.25</ele><time>2026-03-28T12:50:26Z</time></trkpt><trkpt lat="39.21156923567886" lon="16.887919162544264"><ele>263.5</ele><time>2026-03-28T12:50:28Z</time></trkpt><trkpt lat="39.21155427880295" lon="16.88804960950554"><ele>263.75</ele><time>2026-03-28T12:50:30Z</time></trkpt><trkpt lat="39.21164810027992" lon="16.888017562551052"><ele>264.0</ele><time>2026-03-28T12:50:32Z</time></trkpt><trkpt lat="39.21181948177252" lon="16.88800866416461"><ele>264.0</ele><time>2026-03-28T12:50:34Z</time></trkpt><trkpt lat="39.21193332594466" lon="16.88794317659636"><ele>264.0</ele><time>2026-03-28T12:50:35Z</time></trkpt><trkpt lat="39.21203401603677" lon="16.88787776743563"><ele>264.0</ele><time>2026-03-28T12:50:36Z</time></trkpt><trkpt lat="39.21209597000455" lon="16.88778835567698"><ele>264.0</ele><time>2026-03-28T12:50:37Z</time></trkpt><trkpt lat="39.21221952855561" lon="16.887717698079463"><ele>264.0</ele><time>2026-03-28T12:50:38Z</time></trkpt><trkpt lat="39.212318079358106" lon="16.8876609971687"><ele>264.0</ele><time>2026-03-28T12:50:39Z</time></trkpt><trkpt lat="39.21241632303269" lon="16.887604359842417"><ele>264.0</ele><time>2026-03-28T12:50:40Z</time></trkpt><trkpt lat="39.21250586941779" lon="16.887551196393094"><ele>264.0</ele><time>2026-03-28T12:50:41Z</time></trkpt><trkpt lat="39.21260324307999" lon="16.887495907321078"><ele>264.0</ele><time>2026-03-28T12:50:42Z</time></trkpt><trkpt lat="39.21269696592797" lon="16.88744653438379"><ele>266.5</ele><time>2026-03-28T12:50:43Z</time></trkpt><trkpt lat="39.212779331563596" lon="16.887397189915532"><ele>269.0</ele><time>2026-03-28T12:50:44Z</time></trkpt><trkpt lat="39.21285319849232" lon="16.887351427736355"><ele>271.5</ele><time>2026-03-28T12:50:45Z</time></trkpt><trkpt lat="39.21292734605646" lon="16.88723759036454"><ele>274.0</ele><time>2026-03-28T12:50:47Z</time></trkpt><trkpt lat="39.21308987615124" lon="16.887345189081326"><ele>274.0</ele><time>2026-03-28T12:50:48Z</time></trkpt><trkpt lat="39.213153898695694" lon="16.887309978613867"><ele>274.0</ele><time>2026-03-28T12:50:49Z</time></trkpt><trkpt lat="39.21323416687108" lon="16.88731210173848"><ele>274.0</ele><time>2026-03-28T12:50:50Z</time></trkpt><trkpt lat="39.21332389322485" lon="16.88734650843151"><ele>274.0</ele><time>2026-03-28T12:50:51Z</time></trkpt><trkpt lat="39.21340929109689" lon="16.887367056686717"><ele>274.0</ele><time>2026-03-28T12:50:52Z</time></trkpt><trkpt lat="39.21349388393435" lon="16.887390308293075"><ele>274.0</ele><time>2026-03-28T12:50:53Z</time></trkpt><trkpt lat="39.21358141577899" lon="16.887419609827774"><ele>275.59999999999997</ele><time>2026-03-28T12:50:54Z</time></trkpt><trkpt lat="39.213668692076936" lon="16.88745118970004"><ele>277.2</ele><time>2026-03-28T12:50:55Z</time></trkpt><trkpt lat="39.21376063703213" lon="16.887481502954298"><ele>278.79999999999995</ele><time>2026-03-28T12:50:56Z</time></trkpt><trkpt lat="39.21384603824232" lon="16.887507617765504"><ele>280.4</ele><time>2026-03-28T12:50:57Z</time></trkpt><trkpt lat="39.213934377060625" lon="16.887534630874054"><ele>282.0</ele><time>2026-03-28T12:50:58Z</time></trkpt><trkpt lat="39.21403739108064" lon="16.887481091377314"><ele>282.0</ele><time>2026-03-28T12:50:59Z</time></trkpt><trkpt lat="39.214118221639296" lon="16.887523164186135"><ele>282.0</ele><time>2026-03-28T12:51:00Z</time></trkpt><trkpt lat="39.214192099283146" lon="16.887594490723266"><ele>282.0</ele><time>2026-03-28T12:51:01Z</time></trkpt><trkpt lat="39.21426207156506" lon="16.8876907630716"><ele>282.0</ele><time>2026-03-28T12:51:02Z</time></trkpt><trkpt lat="39.21432714301813" lon="16.88781576019158"><ele>282.0</ele><time>2026-03-28T12:51:03Z</time></trkpt><trkpt lat="39.21440298643471" lon="16.88793512996626"><ele>284.2</ele><time>2026-03-28T12:51:04Z</time></trkpt><trkpt lat="39.214467042255755" lon="16.888059615958056"><ele>286.4</ele><time>2026-03-28T12:51:05Z</time></trkpt><trkpt lat="39.21452578472953" lon="16.888173342780007"><ele>288.6</ele><time>2026-03-28T12:51:06Z</time></trkpt><trkpt lat="39.214567967509176" lon="16.88828860119083"><ele>290.8</ele><time>2026-03-28T12:51:07Z</time></trkpt><trkpt lat="39.21462960922782" lon="16.888385197985713"><ele>293.0</ele><time>2026-03-28T12:51:08Z</time></trkpt><trkpt lat="39.21470238740454" lon="16.888467329070057"><ele>293.2</ele><time>2026-03-28T12:51:09Z</time></trkpt><trkpt lat="39.21478095798681" lon="16.8885451317368"><ele>293.4</ele><time>2026-03-28T12:51:10Z</time></trkpt><trkpt lat="39.21485965607325" lon="16.888620636843317"><ele>293.59999999999997</ele><time>2026-03-28T12:51:11Z</time></trkpt><trkpt lat="39.2149359434269" lon="16.888693730730846"><ele>293.8</ele><time>2026-03-28T12:51:12Z</time></trkpt><trkpt lat="39.2150097152393" lon="16.888760376385907"><ele>294.0</ele><time>2026-03-28T12:51:13Z</time></trkpt><trkpt lat="39.215080984079506" lon="16.888822576199203"><ele>293.59999999999997</ele><time>2026-03-28T12:51:14Z</time></trkpt><trkpt lat="39.21515526514914" lon="16.888878908359494"><ele>293.2</ele><time>2026-03-28T12:51:15Z</time></trkpt><trkpt lat="39.21523246005861" lon="16.88893330783978"><ele>292.79999999999995</ele><time>2026-03-28T12:51:16Z</time></trkpt><trkpt lat="39.21531298960687" lon="16.888985225188943"><ele>292.4</ele><time>2026-03-28T12:51:17Z</time></trkpt><trkpt lat="39.21538143183861" lon="16.88906514193159"><ele>292.0</ele><time>2026-03-28T12:51:18Z</time></trkpt><trkpt lat="39.215471165218226" lon="16.889115146568592"><ele>292.0</ele><time>2026-03-28T12:51:19Z</time></trkpt><trkpt lat="39.215545071283586" lon="16.889201708175282"><ele>292.0</ele><time>2026-03-28T12:51:20Z</time></trkpt><trkpt lat="39.21561862976629" lon="16.88929717158595"><ele>292.0</ele><time>2026-03-28T12:51:21Z</time></trkpt><trkpt lat="39.21567896298367" lon="16.8894114714102"><ele>292.0</ele><time>2026-03-28T12:51:22Z</time></trkpt><trkpt lat="39.215725829372474" lon="16.889532948815724"><ele>292.0</ele><time>2026-03-28T12:51:23Z</time></trkpt><trkpt lat="39.215772766931224" lon="16.889633712302267"><ele>290.66666666666663</ele><time>2026-03-28T12:51:24Z</time></trkpt><trkpt lat="39.215813364015474" lon="16.889712952721275"><ele>289.3333333333333</ele><time>2026-03-28T12:51:25Z</time></trkpt><trkpt lat="39.21585584230716" lon="16.88977440109463"><ele>288.0</ele><time>2026-03-28T12:51:26Z</time></trkpt><trkpt lat="39.21591972853424" lon="16.889898131128913"><ele>286.6666666666667</ele><time>2026-03-28T12:51:28Z</time></trkpt><trkpt lat="39.21598774461565" lon="16.889996518444605"><ele>285.33333333333337</ele><time>2026-03-28T12:51:30Z</time></trkpt><trkpt lat="39.21604735984004" lon="16.890089009292915"><ele>284.0</ele><time>2026-03-28T12:51:32Z</time></trkpt><trkpt lat="39.21608935538904" lon="16.89018657192344"><ele>280.0</ele><time>2026-03-28T12:51:34Z</time></trkpt><trkpt lat="39.21606422714477" lon="16.890263979101096"><ele>276.0</ele><time>2026-03-28T12:51:35Z</time></trkpt><trkpt lat="39.21610605888943" lon="16.89036176345087"><ele>272.0</ele><time>2026-03-28T12:51:37Z</time></trkpt><trkpt lat="39.21620121570878" lon="16.890435244702726"><ele>268.0</ele><time>2026-03-28T12:51:39Z</time></trkpt><trkpt lat="39.216274748633765" lon="16.890482868049585"><ele>264.0</ele><time>2026-03-28T12:51:41Z</time></trkpt><trkpt lat="39.21634513319814" lon="16.890543501049383"><ele>260.0</ele><time>2026-03-28T12:51:43Z</time></trkpt><trkpt lat="39.21643039094921" lon="16.890612062961274"><ele>263.6666666666667</ele><time>2026-03-28T12:51:45Z</time></trkpt><trkpt lat="39.21653111767744" lon="16.89070110959247"><ele>267.33333333333337</ele><time>2026-03-28T12:51:47Z</time></trkpt><trkpt lat="39.2165916791462" lon="16.890745444731348"><ele>271.0</ele><time>2026-03-28T12:51:48Z</time></trkpt><trkpt lat="39.21665734088991" lon="16.890792635799738"><ele>274.6666666666667</ele><time>2026-03-28T12:51:49Z</time></trkpt><trkpt lat="39.21672297253763" lon="16.89083798359696"><ele>278.3333333333333</ele><time>2026-03-28T12:51:50Z</time></trkpt><trkpt lat="39.21679334931109" lon="16.890866708545754"><ele>282.0</ele><time>2026-03-28T12:51:51Z</time></trkpt><trkpt lat="39.21684834913206" lon="16.890922037563474"><ele>275.4</ele><time>2026-03-28T12:51:52Z</time></trkpt><trkpt lat="39.21690091176157" lon="16.89098422571415"><ele>268.79999999999995</ele><time>2026-03-28T12:51:53Z</time></trkpt><trkpt lat="39.21695109700345" lon="16.89106490330185"><ele>262.2</ele><time>2026-03-28T12:51:54Z</time></trkpt><trkpt lat="39.217004993387484" lon="16.891171475824432"><ele>255.6</ele><time>2026-03-28T12:51:55Z</time></trkpt><trkpt lat="39.217080350757556" lon="16.89128554623367"><ele>249.0</ele><time>2026-03-28T12:51:56Z</time></trkpt><trkpt lat="39.21715581188678" lon="16.891400947818006"><ele>249.0</ele><time>2026-03-28T12:51:57Z</time></trkpt><trkpt lat="39.21723064464629" lon="16.891507333170424"><ele>248.99999999999997</ele><time>2026-03-28T12:51:58Z</time></trkpt><trkpt lat="39.21731511474871" lon="16.89159608568698"><ele>248.99999999999997</ele><time>2026-03-28T12:51:59Z</time></trkpt><trkpt lat="39.217381306616886" lon="16.891698259894472"><ele>249.0</ele><time>2026-03-28T12:52:00Z</time></trkpt><trkpt lat="39.21744893586808" lon="16.89179474441204"><ele>249.0</ele><time>2026-03-28T12:52:01Z</time></trkpt><trkpt lat="39.21751515072946" lon="16.89189129117371"><ele>251.25</ele><time>2026-03-28T12:52:02Z</time></trkpt><trkpt lat="39.21758568151105" lon="16.891995813562545"><ele>253.5</ele><time>2026-03-28T12:52:03Z</time></trkpt><trkpt lat="39.21766474128011" lon="16.892114113375367"><ele>255.75</ele><time>2026-03-28T12:52:04Z</time></trkpt><trkpt lat="39.217749886293085" lon="16.892233030516437"><ele>258.0</ele><time>2026-03-28T12:52:05Z</time></trkpt><trkpt lat="39.21781883615966" lon="16.89236088821218"><ele>258.0</ele><time>2026-03-28T12:52:06Z</time></trkpt><trkpt lat="39.217903989889045" lon="16.8924513123032"><ele>258.0</ele><time>2026-03-28T12:52:07Z</time></trkpt><trkpt lat="39.21797467468829" lon="16.89256034749444"><ele>258.0</ele><time>2026-03-28T12:52:08Z</time></trkpt><trkpt lat="39.21804545416172" lon="16.892672549392188"><ele>258.0</ele><time>2026-03-28T12:52:09Z</time></trkpt><trkpt lat="39.218111794376824" lon="16.892776186916368"><ele>258.0</ele><time>2026-03-28T12:52:10Z</time></trkpt><trkpt lat="39.21817467579791" lon="16.892869301759493"><ele>259.2</ele><time>2026-03-28T12:52:11Z</time></trkpt><trkpt lat="39.21824614038074" lon="16.89295457917302"><ele>260.4</ele><time>2026-03-28T12:52:12Z</time></trkpt><trkpt lat="39.218323443322284" lon="16.893027945443862"><ele>261.59999999999997</ele><time>2026-03-28T12:52:13Z</time></trkpt><trkpt lat="39.21839640132182" lon="16.89309362707066"><ele>262.8</ele><time>2026-03-28T12:52:14Z</time></trkpt><trkpt lat="39.218457709678724" lon="16.893148061446265"><ele>264.0</ele><time>2026-03-28T12:52:15Z</time></trkpt><trkpt lat="39.218561559229364" lon="16.893239145633828"><ele>264.0</ele><time>2026-03-28T12:52:17Z</time></trkpt><trkpt lat="39.21862176150288" lon="16.89328348706062"><ele>264.0</ele><time>2026-03-28T12:52:18Z</time></trkpt><trkpt lat="39.21869100118737" lon="16.893331893672286"><ele>264.0</ele><time>2026-03-28T12:52:19Z</time></trkpt><trkpt lat="39.21876059928056" lon="16.893392843176425"><ele>264.0</ele><time>2026-03-28T12:52:20Z</time></trkpt><trkpt lat="39.21882841630766" lon="16.893455606090008"><ele>264.0</ele><time>2026-03-28T12:52:21Z</time></trkpt><trkpt lat="39.218895716920876" lon="16.89352152575217"><ele>264.0</ele><time>2026-03-28T12:52:22Z</time></trkpt><trkpt lat="39.218978000144396" lon="16.893575026211607"><ele>264.5</ele><time>2026-03-28T12:52:23Z</time></trkpt><trkpt lat="39.219052662356006" lon="16.893640209215462"><ele>265.0</ele><time>2026-03-28T12:52:24Z</time></trkpt><trkpt lat="39.21913966198165" lon="16.89368751925114"><ele>265.5</ele><time>2026-03-28T12:52:25Z</time></trkpt><trkpt lat="39.21921435257474" lon="16.893744285145033"><ele>266.0</ele><time>2026-03-28T12:52:26Z</time></trkpt><trkpt lat="39.21928666446457" lon="16.893807009639595"><ele>266.5</ele><time>2026-03-28T12:52:27Z</time></trkpt><trkpt lat="39.219360647054366" lon="16.89387059171885"><ele>267.0</ele><time>2026-03-28T12:52:28Z</time></trkpt><trkpt lat="39.219429485023184" lon="16.893928686942804"><ele>267.0</ele><time>2026-03-28T12:52:29Z</time></trkpt><trkpt lat="39.21948078925309" lon="16.89400063137731"><ele>267.0</ele><time>2026-03-28T12:52:30Z</time></trkpt><trkpt lat="39.21953705801878" lon="16.89405731851413"><ele>267.0</ele><time>2026-03-28T12:52:31Z</time></trkpt><trkpt lat="39.21960321360003" lon="16.894103568577776"><ele>267.0</ele><time>2026-03-28T12:52:32Z</time></trkpt><trkpt lat="39.21966515469065" lon="16.894180047768685"><ele>267.0</ele><time>2026-03-28T12:52:33Z</time></trkpt><trkpt lat="39.219734312757865" lon="16.89425550549952"><ele>267.0</ele><time>2026-03-28T12:52:34Z</time></trkpt><trkpt lat="39.21979907741818" lon="16.894324249748376"><ele>269.6</ele><time>2026-03-28T12:52:35Z</time></trkpt><trkpt lat="39.21985672946474" lon="16.89439986755323"><ele>272.2</ele><time>2026-03-28T12:52:36Z</time></trkpt><trkpt lat="39.21991789861616" lon="16.8944761234384"><ele>274.8</ele><time>2026-03-28T12:52:37Z</time></trkpt><trkpt lat="39.21998912333484" lon="16.8945500646823"><ele>277.4</ele><time>2026-03-28T12:52:38Z</time></trkpt><trkpt lat="39.2200695962558" lon="16.894622023335756"><ele>280.0</ele><time>2026-03-28T12:52:39Z</time></trkpt><trkpt lat="39.22014942518307" lon="16.894702534793353"><ele>280.0</ele><time>2026-03-28T12:52:40Z</time></trkpt><trkpt lat="39.22022821701362" lon="16.894788008975254"><ele>280.0</ele><time>2026-03-28T12:52:41Z</time></trkpt><trkpt lat="39.22030460181845" lon="16.8948786478116"><ele>280.0</ele><time>2026-03-28T12:52:42Z</time></trkpt><trkpt lat="39.220378989660794" lon="16.89496191653827"><ele>280.0</ele><time>2026-03-28T12:52:43Z</time></trkpt><trkpt lat="39.220444053159675" lon="16.89505685524453"><ele>280.0</ele><time>2026-03-28T12:52:44Z</time></trkpt><trkpt lat="39.22051437791885" lon="16.895166642457177"><ele>281.75</ele><time>2026-03-28T12:52:45Z</time></trkpt><trkpt lat="39.22058611563325" lon="16.895293141737998"><ele>283.5</ele><time>2026-03-28T12:52:46Z</time></trkpt><trkpt lat="39.22066848533196" lon="16.895427045296316"><ele>285.25</ele><time>2026-03-28T12:52:47Z</time></trkpt><trkpt lat="39.220771020973345" lon="16.89555038128192"><ele>287.0</ele><time>2026-03-28T12:52:48Z</time></trkpt><trkpt lat="39.22089331735489" lon="16.895653402946447"><ele>287.0</ele><time>2026-03-28T12:52:49Z</time></trkpt><trkpt lat="39.22101352859575" lon="16.89577121690078"><ele>287.0</ele><time>2026-03-28T12:52:50Z</time></trkpt><trkpt lat="39.22113264889544" lon="16.895898276572403"><ele>287.0</ele><time>2026-03-28T12:52:51Z</time></trkpt><trkpt lat="39.221254285035855" lon="16.89601841889633"><ele>288.5</ele><time>2026-03-28T12:52:52Z</time></trkpt><trkpt lat="39.221376920733164" lon="16.89612396268029"><ele>290.0</ele><time>2026-03-28T12:52:53Z</time></trkpt><trkpt lat="39.22150205371435" lon="16.896214692195453"><ele>291.5</ele><time>2026-03-28T12:52:54Z</time></trkpt><trkpt lat="39.22161320733219" lon="16.896334709392608"><ele>293.0</ele><time>2026-03-28T12:52:55Z</time></trkpt><trkpt lat="39.22173499687044" lon="16.896412288289746"><ele>293.0</ele><time>2026-03-28T12:52:56Z</time></trkpt><trkpt lat="39.22185029688478" lon="16.89650710306283"><ele>293.0</ele><time>2026-03-28T12:52:57Z</time></trkpt><trkpt lat="39.22196999381642" lon="16.89660476781434"><ele>293.0</ele><time>2026-03-28T12:52:58Z</time></trkpt><trkpt lat="39.22209288603697" lon="16.896705040120914"><ele>293.0</ele><time>2026-03-28T12:52:59Z</time></trkpt><trkpt lat="39.222227579006926" lon="16.896814164838663"><ele>294.6666666666667</ele><time>2026-03-28T12:53:00Z</time></trkpt><trkpt lat="39.22234584537305" lon="16.8969100776853"><ele>296.3333333333333</ele><time>2026-03-28T12:53:01Z</time></trkpt><trkpt lat="39.222498618367105" lon="16.896989715376804"><ele>298.0</ele><time>2026-03-28T12:53:02Z</time></trkpt><trkpt lat="39.22264516273142" lon="16.897114387790996"><ele>298.0</ele><time>2026-03-28T12:53:03Z</time></trkpt><trkpt lat="39.22277852791069" lon="16.8972243196897"><ele>298.0</ele><time>2026-03-28T12:53:04Z</time></trkpt><trkpt lat="39.22291988924111" lon="16.897331908999732"><ele>298.0</ele><time>2026-03-28T12:53:05Z</time></trkpt><trkpt lat="39.223064223984565" lon="16.897459986646446"><ele>298.0</ele><time>2026-03-28T12:53:06Z</time></trkpt><trkpt lat="39.22321271969091" lon="16.89756717100237"><ele>298.0</ele><time>2026-03-28T12:53:07Z</time></trkpt><trkpt lat="39.223368602753915" lon="16.89767831681994"><ele>298.0</ele><time>2026-03-28T12:53:08Z</time></trkpt><trkpt lat="39.22350476738437" lon="16.897808559356818"><ele>298.0</ele><time>2026-03-28T12:53:09Z</time></trkpt><trkpt lat="39.22364416429431" lon="16.897940216467294"><ele>298.0</ele><time>2026-03-28T12:53:10Z</time></trkpt><trkpt lat="39.22379392348372" lon="16.898057278807514"><ele>298.0</ele><time>2026-03-28T12:53:11Z</time></trkpt><trkpt lat="39.22392810063603" lon="16.898196665099668"><ele>294.3333333333333</ele><time>2026-03-28T12:53:12Z</time></trkpt><trkpt lat="39.22408207655596" lon="16.898295245616513"><ele>290.6666666666667</ele><time>2026-03-28T12:53:13Z</time></trkpt><trkpt lat="39.224243325387434" lon="16.898404427956894"><ele>287.0</ele><time>2026-03-28T12:53:14Z</time></trkpt><trkpt lat="39.22439537221615" lon="16.898516355648937"><ele>287.0</ele><time>2026-03-28T12:53:15Z</time></trkpt><trkpt lat="39.22453940892688" lon="16.898637616027347"><ele>287.0</ele><time>2026-03-28T12:53:16Z</time></trkpt><trkpt lat="39.2246743160713" lon="16.898779999746864"><ele>287.0</ele><time>2026-03-28T12:53:17Z</time></trkpt><trkpt lat="39.22479166407537" lon="16.898928991374376"><ele>286.5</ele><time>2026-03-28T12:53:18Z</time></trkpt><trkpt lat="39.224901776327144" lon="16.89906848654087"><ele>286.0</ele><time>2026-03-28T12:53:19Z</time></trkpt><trkpt lat="39.224999180646094" lon="16.899192520332274"><ele>285.5</ele><time>2026-03-28T12:53:20Z</time></trkpt><trkpt lat="39.2250973044304" lon="16.899317441008677"><ele>285.0</ele><time>2026-03-28T12:53:21Z</time></trkpt><trkpt lat="39.2252154611962" lon="16.899473737901086"><ele>285.0</ele><time>2026-03-28T12:53:22Z</time></trkpt><trkpt lat="39.225378410179516" lon="16.899637510107944"><ele>285.0</ele><time>2026-03-28T12:53:23Z</time></trkpt><trkpt lat="39.22552778252416" lon="16.89977229264568"><ele>285.0</ele><time>2026-03-28T12:53:24Z</time></trkpt><trkpt lat="39.22565625630756" lon="16.899938624776656"><ele>287.0</ele><time>2026-03-28T12:53:25Z</time></trkpt><trkpt lat="39.22579053730915" lon="16.900106335311758"><ele>289.0</ele><time>2026-03-28T12:53:26Z</time></trkpt><trkpt lat="39.225914877302245" lon="16.900259163405785"><ele>291.0</ele><time>2026-03-28T12:53:27Z</time></trkpt><trkpt lat="39.22603274012223" lon="16.900389629648814"><ele>291.0</ele><time>2026-03-28T12:53:28Z</time></trkpt><trkpt lat="39.22614875474737" lon="16.9004989254882"><ele>291.0</ele><time>2026-03-28T12:53:29Z</time></trkpt><trkpt lat="39.22626473147835" lon="16.90061850521965"><ele>291.0</ele><time>2026-03-28T12:53:30Z</time></trkpt><trkpt lat="39.226367687362455" lon="16.9007369988745"><ele>291.0</ele><time>2026-03-28T12:53:31Z</time></trkpt><trkpt lat="39.2264711962658" lon="16.90086037569663"><ele>296.8</ele><time>2026-03-28T12:53:32Z</time></trkpt><trkpt lat="39.2265653551615" lon="16.900977956290436"><ele>302.6</ele><time>2026-03-28T12:53:33Z</time></trkpt><trkpt lat="39.22664291860439" lon="16.901087774868607"><ele>308.4</ele><time>2026-03-28T12:53:34Z</time></trkpt><trkpt lat="39.22670044922547" lon="16.901189035068203"><ele>314.2</ele><time>2026-03-28T12:53:35Z</time></trkpt><trkpt lat="39.22674146781321" lon="16.90129384475859"><ele>320.0</ele><time>2026-03-28T12:53:36Z</time></trkpt><trkpt lat="39.22676534345611" lon="16.90141733407847"><ele>320.0</ele><time>2026-03-28T12:53:37Z</time></trkpt><trkpt lat="39.226781838746" lon="16.901570474975614"><ele>320.0</ele><time>2026-03-28T12:53:38Z</time></trkpt><trkpt lat="39.22679464486693" lon="16.901742301422882"><ele>320.0</ele><time>2026-03-28T12:53:39Z</time></trkpt><trkpt lat="39.22682803409132" lon="16.901931778608045"><ele>320.0</ele><time>2026-03-28T12:53:39.999Z</time></trkpt><trkpt lat="39.22688231898015" lon="16.90210849992502"><ele>320.33333333333337</ele><time>2026-03-28T12:53:40.999Z</time></trkpt><trkpt lat="39.22695528876358" lon="16.902279472294687"><ele>320.6666666666667</ele><time>2026-03-28T12:53:41.999Z</time></trkpt><trkpt lat="39.227042883169055" lon="16.902435426718014"><ele>321.0</ele><time>2026-03-28T12:53:42.999Z</time></trkpt><trkpt lat="39.22714634284899" lon="16.902584390563504"><ele>321.0</ele><time>2026-03-28T12:53:43.999Z</time></trkpt><trkpt lat="39.22726494234313" lon="16.902739053819737"><ele>321.0</ele><time>2026-03-28T12:53:44.999Z</time></trkpt><trkpt lat="39.22739942126254" lon="16.902888065706513"><ele>321.0</ele><time>2026-03-28T12:53:45.999Z</time></trkpt><trkpt lat="39.22753598733455" lon="16.903019741750956"><ele>324.0</ele><time>2026-03-28T12:53:46.999Z</time></trkpt><trkpt lat="39.22765781251182" lon="16.903135210840883"><ele>327.0</ele><time>2026-03-28T12:53:47.999Z</time></trkpt><trkpt lat="39.22776024177809" lon="16.903256158777705"><ele>330.0</ele><time>2026-03-28T12:53:48.999Z</time></trkpt><trkpt lat="39.227861405719054" lon="16.903349042107017"><ele>333.0</ele><time>2026-03-28T12:53:49.999Z</time></trkpt><trkpt lat="39.22794928914017" lon="16.903432316611077"><ele>333.0</ele><time>2026-03-28T12:53:50.999Z</time></trkpt><trkpt lat="39.228039206186324" lon="16.90350678143945"><ele>333.0</ele><time>2026-03-28T12:53:51.999Z</time></trkpt><trkpt lat="39.228123088976176" lon="16.903586937620588"><ele>333.0</ele><time>2026-03-28T12:53:52.999Z</time></trkpt><trkpt lat="39.22822328369831" lon="16.903635530255396"><ele>333.0</ele><time>2026-03-28T12:53:53.999Z</time></trkpt><trkpt lat="39.22833655257396" lon="16.90360993217711"><ele>333.0</ele><time>2026-03-28T12:53:54.999Z</time></trkpt><trkpt lat="39.228478351038866" lon="16.903573358761776"><ele>334.3333333333333</ele><time>2026-03-28T12:53:55.999Z</time></trkpt><trkpt lat="39.228626728818" lon="16.903616638150314"><ele>335.66666666666663</ele><time>2026-03-28T12:53:56.999Z</time></trkpt><trkpt lat="39.228775114372006" lon="16.90364720612522"><ele>337.0</ele><time>2026-03-28T12:53:57.999Z</time></trkpt><trkpt lat="39.22892327959422" lon="16.903659157616815"><ele>338.0</ele><time>2026-03-28T12:53:58.999Z</time></trkpt><trkpt lat="39.22904804596668" lon="16.903721552339267"><ele>339.0</ele><time>2026-03-28T12:53:59.999Z</time></trkpt><trkpt lat="39.229154733417964" lon="16.90377945942859"><ele>340.0</ele><time>2026-03-28T12:54:00.999Z</time></trkpt><trkpt lat="39.22925111708489" lon="16.903811833793377"><ele>341.0</ele><time>2026-03-28T12:54:01.999Z</time></trkpt><trkpt lat="39.229347754522614" lon="16.903787031047163"><ele>342.0</ele><time>2026-03-28T12:54:02.999Z</time></trkpt><trkpt lat="39.229424300838524" lon="16.90375268572176"><ele>342.0</ele><time>2026-03-28T12:54:03.999Z</time></trkpt><trkpt lat="39.229497917736985" lon="16.903740628327217"><ele>342.0</ele><time>2026-03-28T12:54:04.999Z</time></trkpt><trkpt lat="39.22954111565463" lon="16.903661443415768"><ele>342.0</ele><time>2026-03-28T12:54:05.999Z</time></trkpt><trkpt lat="39.22963832368018" lon="16.903608241470224"><ele>342.0</ele><time>2026-03-28T12:54:07.999Z</time></trkpt><trkpt lat="39.229701449415295" lon="16.90364260512072"><ele>342.0</ele><time>2026-03-28T12:54:09.999Z</time></trkpt><trkpt lat="39.22986439129763" lon="16.90371086820305"><ele>355.0</ele><time>2026-03-28T12:54:20.999Z</time></trkpt><trkpt lat="39.22998130709832" lon="16.903735304561035"><ele>355.0</ele><time>2026-03-28T12:54:32.999Z</time></trkpt><trkpt lat="39.22990010079516" lon="16.903719669060845"><ele>355.0</ele><time>2026-03-28T12:54:45Z</time></trkpt></trkseg><trkseg><trkpt lat="39.22685713292906" lon="16.90175161662681"><ele>321.0</ele><time>2026-03-28T13:57:26Z</time></trkpt><trkpt lat="39.22681725134105" lon="16.90168737881662"><ele>321.0</ele><time>2026-03-28T13:58:12.001Z</time></trkpt><trkpt lat="39.22681259425091" lon="16.901596781473586"><ele>321.0</ele><time>2026-03-28T13:58:31.001Z</time></trkpt><trkpt lat="39.22673817287762" lon="16.901601904302037"><ele>321.0</ele><time>2026-03-28T13:58:42.001Z</time></trkpt><trkpt lat="39.22666683227184" lon="16.90168490663849"><ele>321.0</ele><time>2026-03-28T13:58:46.001Z</time></trkpt><trkpt lat="39.226602922378405" lon="16.901774364451676"><ele>321.0</ele><time>2026-03-28T13:58:47.001Z</time></trkpt><trkpt lat="39.2265277686267" lon="16.90188546405293"><ele>316.0</ele><time>2026-03-28T13:58:48.001Z</time></trkpt><trkpt lat="39.22645387362884" lon="16.901992800352655"><ele>311.0</ele><time>2026-03-28T13:58:49.001Z</time></trkpt><trkpt lat="39.226384393214694" lon="16.902091726996154"><ele>306.0</ele><time>2026-03-28T13:58:50.001Z</time></trkpt><trkpt lat="39.22632475436218" lon="16.902217403825226"><ele>301.0</ele><time>2026-03-28T13:58:51.001Z</time></trkpt><trkpt lat="39.22627726595779" lon="16.902320770703295"><ele>296.0</ele><time>2026-03-28T13:58:52.001Z</time></trkpt><trkpt lat="39.22626278302952" lon="16.902451400002736"><ele>297.2</ele><time>2026-03-28T13:58:53.001Z</time></trkpt><trkpt lat="39.22628289022153" lon="16.902585997059333"><ele>298.40000000000003</ele><time>2026-03-28T13:58:54.001Z</time></trkpt><trkpt lat="39.22630942861857" lon="16.90271443387663"><ele>299.6</ele><time>2026-03-28T13:58:55.001Z</time></trkpt><trkpt lat="39.22634096542986" lon="16.902839489062394"><ele>300.8</ele><time>2026-03-28T13:58:56.001Z</time></trkpt><trkpt lat="39.22635283200883" lon="16.902978925300374"><ele>302.0</ele><time>2026-03-28T13:58:57.001Z</time></trkpt><trkpt lat="39.22637183249473" lon="16.903133067954226"><ele>302.0</ele><time>2026-03-28T13:58:58.001Z</time></trkpt><trkpt lat="39.226387712688805" lon="16.903296758899355"><ele>302.0</ele><time>2026-03-28T13:58:59.001Z</time></trkpt><trkpt lat="39.22642185024914" lon="16.90345201858625"><ele>302.0</ele><time>2026-03-28T13:59:00.001Z</time></trkpt><trkpt lat="39.22642785199214" lon="16.90359947330512"><ele>302.0</ele><time>2026-03-28T13:59:01.001Z</time></trkpt><trkpt lat="39.226429896439974" lon="16.903744234362417"><ele>302.5</ele><time>2026-03-28T13:59:02.001Z</time></trkpt><trkpt lat="39.22645096426303" lon="16.90389493594431"><ele>303.0</ele><time>2026-03-28T13:59:03.001Z</time></trkpt><trkpt lat="39.22647607581286" lon="16.90406547491251"><ele>303.5</ele><time>2026-03-28T13:59:04.001Z</time></trkpt><trkpt lat="39.22652414587073" lon="16.904224998782865"><ele>304.0</ele><time>2026-03-28T13:59:05.001Z</time></trkpt><trkpt lat="39.226571188550764" lon="16.904380069807125"><ele>305.75</ele><time>2026-03-28T13:59:06.001Z</time></trkpt><trkpt lat="39.226626149998744" lon="16.904535990906307"><ele>307.5</ele><time>2026-03-28T13:59:07.001Z</time></trkpt><trkpt lat="39.22668270977384" lon="16.904685572931367"><ele>309.25</ele><time>2026-03-28T13:59:08.001Z</time></trkpt><trkpt lat="39.226749518803295" lon="16.904818857626314"><ele>311.0</ele><time>2026-03-28T13:59:09.001Z</time></trkpt><trkpt lat="39.22680392005642" lon="16.90494014388613"><ele>311.0</ele><time>2026-03-28T13:59:10.001Z</time></trkpt><trkpt lat="39.22684217010711" lon="16.90505720869448"><ele>311.0</ele><time>2026-03-28T13:59:11.001Z</time></trkpt><trkpt lat="39.22687637412921" lon="16.90516922417856"><ele>311.0</ele><time>2026-03-28T13:59:12.001Z</time></trkpt><trkpt lat="39.226910374830084" lon="16.905272106279163"><ele>311.0</ele><time>2026-03-28T13:59:13.001Z</time></trkpt><trkpt lat="39.22694571762957" lon="16.905361239872345"><ele>311.0</ele><time>2026-03-28T13:59:14.001Z</time></trkpt><trkpt lat="39.22699710834976" lon="16.905437609377287"><ele>311.0</ele><time>2026-03-28T13:59:15.001Z</time></trkpt><trkpt lat="39.22705661661659" lon="16.905514309167938"><ele>309.83333333333337</ele><time>2026-03-28T13:59:16.001Z</time></trkpt><trkpt lat="39.2271136203668" lon="16.905592785071494"><ele>308.6666666666667</ele><time>2026-03-28T13:59:17.001Z</time></trkpt><trkpt lat="39.22716436390486" lon="16.905672285020028"><ele>307.5</ele><time>2026-03-28T13:59:18.001Z</time></trkpt><trkpt lat="39.227216164301424" lon="16.90575956245855"><ele>306.3333333333333</ele><time>2026-03-28T13:59:19.001Z</time></trkpt><trkpt lat="39.22725811442537" lon="16.905855647024204"><ele>305.16666666666663</ele><time>2026-03-28T13:59:20.001Z</time></trkpt><trkpt lat="39.22730047475559" lon="16.90593981622137"><ele>304.0</ele><time>2026-03-28T13:59:21.001Z</time></trkpt><trkpt lat="39.22734766120397" lon="16.90600220687446"><ele>302.0</ele><time>2026-03-28T13:59:22.001Z</time></trkpt><trkpt lat="39.22742085738823" lon="16.90612656867336"><ele>300.0</ele><time>2026-03-28T13:59:24.001Z</time></trkpt><trkpt lat="39.22748600087431" lon="16.90623996713701"><ele>298.0</ele><time>2026-03-28T13:59:26.001Z</time></trkpt><trkpt lat="39.227558458540365" lon="16.906346353994074"><ele>296.0</ele><time>2026-03-28T13:59:28.001Z</time></trkpt><trkpt lat="39.227664860926396" lon="16.906434447577126"><ele>296.0</ele><time>2026-03-28T13:59:30.001Z</time></trkpt><trkpt lat="39.227711638323235" lon="16.906492244436357"><ele>296.0</ele><time>2026-03-28T13:59:31.001Z</time></trkpt><trkpt lat="39.22779125696059" lon="16.906597619001122"><ele>296.0</ele><time>2026-03-28T13:59:33.001Z</time></trkpt><trkpt lat="39.22785270616096" lon="16.906679463359957"><ele>296.0</ele><time>2026-03-28T13:59:35.001Z</time></trkpt><trkpt lat="39.22789255898738" lon="16.906762251020407"><ele>296.0</ele><time>2026-03-28T13:59:38.001Z</time></trkpt><trkpt lat="39.227957052070984" lon="16.90682005160443"><ele>296.0</ele><time>2026-03-28T13:59:41.001Z</time></trkpt><trkpt lat="39.22802018012872" lon="16.90687687050012"><ele>291.6</ele><time>2026-03-28T13:59:44.001Z</time></trkpt><trkpt lat="39.22807196660288" lon="16.906945969001622"><ele>287.20000000000005</ele><time>2026-03-28T13:59:48.001Z</time></trkpt><trkpt lat="39.2280978209592" lon="16.907068955649024"><ele>282.79999999999995</ele><time>2026-03-28T13:59:51.001Z</time></trkpt><trkpt lat="39.22809553661364" lon="16.907193154752264"><ele>278.4</ele><time>2026-03-28T13:59:53.001Z</time></trkpt><trkpt lat="39.22807997039195" lon="16.907317876845305"><ele>274.0</ele><time>2026-03-28T13:59:55.001Z</time></trkpt><trkpt lat="39.22809163184908" lon="16.907436011821492"><ele>274.0</ele><time>2026-03-28T13:59:57.001Z</time></trkpt><trkpt lat="39.22812784843546" lon="16.907522132952508"><ele>274.0</ele><time>2026-03-28T13:59:59.001Z</time></trkpt><trkpt lat="39.228187412678004" lon="16.90759717904242"><ele>274.0</ele><time>2026-03-28T14:00:01.001Z</time></trkpt><trkpt lat="39.228247168187174" lon="16.907654369038926"><ele>274.0</ele><time>2026-03-28T14:00:03.001Z</time></trkpt><trkpt lat="39.22831576285663" lon="16.907720123609806"><ele>274.0</ele><time>2026-03-28T14:00:05.001Z</time></trkpt><trkpt lat="39.228402409478846" lon="16.907782415937874"><ele>274.0</ele><time>2026-03-28T14:00:07.001Z</time></trkpt><trkpt lat="39.22848636694584" lon="16.907892206128068"><ele>274.0</ele><time>2026-03-28T14:00:09.001Z</time></trkpt><trkpt lat="39.22857233889628" lon="16.907964418370128"><ele>274.0</ele><time>2026-03-28T14:00:11.001Z</time></trkpt><trkpt lat="39.22862799231426" lon="16.908009049422986"><ele>274.0</ele><time>2026-03-28T14:00:13.001Z</time></trkpt><trkpt lat="39.22869711453713" lon="16.90804016813747"><ele>274.0</ele><time>2026-03-28T14:00:16.001Z</time></trkpt><trkpt lat="39.228771751983366" lon="16.90810773064191"><ele>274.0</ele><time>2026-03-28T14:00:24.001Z</time></trkpt><trkpt lat="39.22881286307488" lon="16.908175864611025"><ele>274.0</ele><time>2026-03-28T14:00:26.001Z</time></trkpt><trkpt lat="39.22889650878141" lon="16.908240918282186"><ele>274.0</ele><time>2026-03-28T14:00:29.001Z</time></trkpt><trkpt lat="39.22896459120526" lon="16.908299262045443"><ele>274.0</ele><time>2026-03-28T14:00:31.001Z</time></trkpt><trkpt lat="39.22904264923099" lon="16.908343981089082"><ele>274.0</ele><time>2026-03-28T14:00:33.001Z</time></trkpt><trkpt lat="39.22909129869205" lon="16.90841822549977"><ele>274.0</ele><time>2026-03-28T14:00:35.001Z</time></trkpt><trkpt lat="39.22913517272829" lon="16.908515625846267"><ele>274.0</ele><time>2026-03-28T14:00:38.001Z</time></trkpt><trkpt lat="39.22918372315726" lon="16.908585452966022"><ele>274.0</ele><time>2026-03-28T14:00:41.001Z</time></trkpt><trkpt lat="39.229218596733475" lon="16.908655643220335"><ele>272.3333333333333</ele><time>2026-03-28T14:00:43.001Z</time></trkpt><trkpt lat="39.22924507797186" lon="16.90873482199177"><ele>270.66666666666663</ele><time>2026-03-28T14:00:45.001Z</time></trkpt><trkpt lat="39.22928301868361" lon="16.908834459280126"><ele>269.0</ele><time>2026-03-28T14:00:48.001Z</time></trkpt><trkpt lat="39.22932660430674" lon="16.908921728596816"><ele>267.3333333333333</ele><time>2026-03-28T14:00:51.001Z</time></trkpt><trkpt lat="39.22936266225248" lon="16.909002272295318"><ele>265.6666666666667</ele><time>2026-03-28T14:00:54.001Z</time></trkpt><trkpt lat="39.22942947077693" lon="16.909053796865805"><ele>264.0</ele><time>2026-03-28T14:00:58.001Z</time></trkpt><trkpt lat="39.229492251621615" lon="16.9090851022642"><ele>264.0</ele><time>2026-03-28T14:01:01.001Z</time></trkpt><trkpt lat="39.22957246684615" lon="16.909141405724686"><ele>264.0</ele><time>2026-03-28T14:01:04.001Z</time></trkpt><trkpt lat="39.229640684217664" lon="16.909197797254144"><ele>264.0</ele><time>2026-03-28T14:01:06.001Z</time></trkpt><trkpt lat="39.22971725102797" lon="16.909232715054703"><ele>264.0</ele><time>2026-03-28T14:01:08.001Z</time></trkpt><trkpt lat="39.22981485315385" lon="16.909233503980474"><ele>264.0</ele><time>2026-03-28T14:01:10.001Z</time></trkpt><trkpt lat="39.22992725724082" lon="16.90923348036491"><ele>264.8</ele><time>2026-03-28T14:01:12.001Z</time></trkpt><trkpt lat="39.23003979322442" lon="16.909273771860228"><ele>265.59999999999997</ele><time>2026-03-28T14:01:14.001Z</time></trkpt><trkpt lat="39.230149505539" lon="16.90928258307924"><ele>266.4</ele><time>2026-03-28T14:01:16.001Z</time></trkpt><trkpt lat="39.230253828946154" lon="16.90927437268303"><ele>267.2</ele><time>2026-03-28T14:01:18.002Z</time></trkpt><trkpt lat="39.23035623825163" lon="16.909242139346713"><ele>268.0</ele><time>2026-03-28T14:01:20.002Z</time></trkpt><trkpt lat="39.23042912269157" lon="16.909212484534947"><ele>268.0</ele><time>2026-03-28T14:01:22.001Z</time></trkpt><trkpt lat="39.2305134168003" lon="16.909171855978983"><ele>268.0</ele><time>2026-03-28T14:01:25.001Z</time></trkpt><trkpt lat="39.23059425600839" lon="16.90915006857499"><ele>268.0</ele><time>2026-03-28T14:01:27.001Z</time></trkpt><trkpt lat="39.23068409312333" lon="16.909149499820213"><ele>268.0</ele><time>2026-03-28T14:01:29.001Z</time></trkpt><trkpt lat="39.2307595364663" lon="16.909227140894373"><ele>268.0</ele><time>2026-03-28T14:01:31.001Z</time></trkpt><trkpt lat="39.230845248023606" lon="16.90929706832922"><ele>265.16666666666663</ele><time>2026-03-28T14:01:33.001Z</time></trkpt><trkpt lat="39.230909196474826" lon="16.90939271680743"><ele>262.3333333333333</ele><time>2026-03-28T14:01:35.001Z</time></trkpt><trkpt lat="39.23096237973738" lon="16.909490155651316"><ele>259.5</ele><time>2026-03-28T14:01:37.001Z</time></trkpt><trkpt lat="39.231019511815106" lon="16.909568479159464"><ele>256.6666666666667</ele><time>2026-03-28T14:01:39.001Z</time></trkpt><trkpt lat="39.231066673148185" lon="16.909655599346856"><ele>253.83333333333334</ele><time>2026-03-28T14:01:42.001Z</time></trkpt><trkpt lat="39.23109735278139" lon="16.909737299433406"><ele>251.0</ele><time>2026-03-28T14:01:46.001Z</time></trkpt><trkpt lat="39.23114406665375" lon="16.90979365357335"><ele>251.00000000000003</ele><time>2026-03-28T14:02:00.001Z</time></trkpt><trkpt lat="39.23120949753575" lon="16.909842599916757"><ele>251.0</ele><time>2026-03-28T14:02:04.001Z</time></trkpt><trkpt lat="39.231281521295706" lon="16.909902234675002"><ele>251.0</ele><time>2026-03-28T14:02:07.001Z</time></trkpt><trkpt lat="39.23132670465869" lon="16.909970194902055"><ele>251.0</ele><time>2026-03-28T14:02:10.001Z</time></trkpt><trkpt lat="39.23137767129729" lon="16.91003888846472"><ele>251.00000000000003</ele><time>2026-03-28T14:02:14.001Z</time></trkpt><trkpt lat="39.23143039886698" lon="16.91010648132764"><ele>251.0</ele><time>2026-03-28T14:02:17.001Z</time></trkpt><trkpt lat="39.23148950573407" lon="16.910184699424555"><ele>248.99999999999997</ele><time>2026-03-28T14:02:20.001Z</time></trkpt><trkpt lat="39.23155929726698" lon="16.910255141168225"><ele>247.0</ele><time>2026-03-28T14:02:23.001Z</time></trkpt><trkpt lat="39.23157940133217" lon="16.910358597532998"><ele>244.99999999999997</ele><time>2026-03-28T14:02:26.001Z</time></trkpt><trkpt lat="39.231531643169376" lon="16.910412442906246"><ele>242.99999999999997</ele><time>2026-03-28T14:02:28.001Z</time></trkpt><trkpt lat="39.23146460148627" lon="16.91042224197102"><ele>241.0</ele><time>2026-03-28T14:02:30.001Z</time></trkpt><trkpt lat="39.23140094586816" lon="16.910455290263144"><ele>238.99999999999997</ele><time>2026-03-28T14:02:32.001Z</time></trkpt><trkpt lat="39.23134487814039" lon="16.91050959506958"><ele>236.99999999999997</ele><time>2026-03-28T14:02:34.001Z</time></trkpt><trkpt lat="39.231318046610255" lon="16.91059797780288"><ele>237.0</ele><time>2026-03-28T14:02:37.001Z</time></trkpt><trkpt lat="39.23140076625415" lon="16.910649867781473"><ele>237.0</ele><time>2026-03-28T14:02:40.001Z</time></trkpt><trkpt lat="39.231483036538336" lon="16.91069800893576"><ele>237.0</ele><time>2026-03-28T14:02:42.001Z</time></trkpt><trkpt lat="39.231546033160114" lon="16.910749697348976"><ele>237.0</ele><time>2026-03-28T14:02:44.001Z</time></trkpt><trkpt lat="39.2316259832456" lon="16.910793835228507"><ele>237.0</ele><time>2026-03-28T14:02:47.001Z</time></trkpt><trkpt lat="39.23169673140866" lon="16.910836389001517"><ele>237.0</ele><time>2026-03-28T14:02:50.001Z</time></trkpt><trkpt lat="39.23176493179948" lon="16.910850040915275"><ele>237.0</ele><time>2026-03-28T14:02:52.001Z</time></trkpt><trkpt lat="39.231840023709104" lon="16.910875971413574"><ele>237.0</ele><time>2026-03-28T14:02:54.001Z</time></trkpt><trkpt lat="39.2319173134865" lon="16.910931254479916"><ele>237.0</ele><time>2026-03-28T14:02:56.001Z</time></trkpt><trkpt lat="39.23199567221708" lon="16.910997051233032"><ele>237.0</ele><time>2026-03-28T14:02:58.001Z</time></trkpt><trkpt lat="39.23205870628256" lon="16.9110628883403"><ele>237.0</ele><time>2026-03-28T14:03:00.001Z</time></trkpt><trkpt lat="39.23211392666181" lon="16.911120757770036"><ele>237.0</ele><time>2026-03-28T14:03:02.001Z</time></trkpt><trkpt lat="39.232156471264574" lon="16.911210022406916"><ele>235.8</ele><time>2026-03-28T14:03:04.001Z</time></trkpt><trkpt lat="39.23220353713372" lon="16.911310664216707"><ele>234.6</ele><time>2026-03-28T14:03:06.001Z</time></trkpt><trkpt lat="39.23226857368022" lon="16.91141799312189"><ele>233.40000000000003</ele><time>2026-03-28T14:03:08.001Z</time></trkpt><trkpt lat="39.23233101022631" lon="16.911528715211002"><ele>232.20000000000002</ele><time>2026-03-28T14:03:10.001Z</time></trkpt><trkpt lat="39.23236934220368" lon="16.91165242667038"><ele>231.0</ele><time>2026-03-28T14:03:12.001Z</time></trkpt><trkpt lat="39.23240942772513" lon="16.9117718971176"><ele>229.66666666666666</ele><time>2026-03-28T14:03:14.001Z</time></trkpt><trkpt lat="39.232468186002485" lon="16.911861498988785"><ele>228.33333333333331</ele><time>2026-03-28T14:03:16.001Z</time></trkpt><trkpt lat="39.23252376367149" lon="16.911952473635353"><ele>227.0</ele><time>2026-03-28T14:03:18.001Z</time></trkpt><trkpt lat="39.23256134118123" lon="16.912024918733138"><ele>225.66666666666666</ele><time>2026-03-28T14:03:21.001Z</time></trkpt><trkpt lat="39.23259531007906" lon="16.912117675748107"><ele>224.33333333333331</ele><time>2026-03-28T14:03:27.001Z</time></trkpt><trkpt lat="39.232633005325134" lon="16.912186734230932"><ele>223.0</ele><time>2026-03-28T14:03:30.001Z</time></trkpt><trkpt lat="39.23267212152654" lon="16.91225613837826"><ele>222.99999999999997</ele><time>2026-03-28T14:03:33.001Z</time></trkpt><trkpt lat="39.232732950672066" lon="16.912330365533208"><ele>223.0</ele><time>2026-03-28T14:03:36.001Z</time></trkpt><trkpt lat="39.23274765964871" lon="16.912443251724678"><ele>223.0</ele><time>2026-03-28T14:03:39.001Z</time></trkpt><trkpt lat="39.23276919640793" lon="16.912535984335634"><ele>223.0</ele><time>2026-03-28T14:03:41.001Z</time></trkpt><trkpt lat="39.232773564730365" lon="16.912658699172642"><ele>222.99999999999997</ele><time>2026-03-28T14:03:43.001Z</time></trkpt><trkpt lat="39.23279342505296" lon="16.912777942081586"><ele>223.0</ele><time>2026-03-28T14:03:45.001Z</time></trkpt><trkpt lat="39.23279976423998" lon="16.912909448905896"><ele>223.0</ele><time>2026-03-28T14:03:47.001Z</time></trkpt><trkpt lat="39.232824350789265" lon="16.913063075487027"><ele>223.0</ele><time>2026-03-28T14:03:49.001Z</time></trkpt><trkpt lat="39.232843213952215" lon="16.91314240608916"><ele>223.0</ele><time>2026-03-28T14:03:50.001Z</time></trkpt><trkpt lat="39.232846997773024" lon="16.913290194168027"><ele>223.0</ele><time>2026-03-28T14:03:52.001Z</time></trkpt><trkpt lat="39.2328583656687" lon="16.9134291274692"><ele>223.0</ele><time>2026-03-28T14:03:54.001Z</time></trkpt><trkpt lat="39.232900477364765" lon="16.91357160074127"><ele>221.83333333333331</ele><time>2026-03-28T14:03:56.001Z</time></trkpt><trkpt lat="39.23296508144535" lon="16.913692698722404"><ele>220.66666666666666</ele><time>2026-03-28T14:03:58.001Z</time></trkpt><trkpt lat="39.2329916742168" lon="16.913802171000672"><ele>219.5</ele><time>2026-03-28T14:04:00.001Z</time></trkpt><trkpt lat="39.23295969129351" lon="16.913890619542016"><ele>218.33333333333331</ele><time>2026-03-28T14:04:02.002Z</time></trkpt><trkpt lat="39.23292573298942" lon="16.91396360689561"><ele>217.16666666666666</ele><time>2026-03-28T14:04:04.001Z</time></trkpt><trkpt lat="39.2329220162215" lon="16.91404601854093"><ele>216.0</ele><time>2026-03-28T14:04:06.001Z</time></trkpt><trkpt lat="39.23293243441199" lon="16.914149016917694"><ele>216.14285714285714</ele><time>2026-03-28T14:04:09.001Z</time></trkpt><trkpt lat="39.232949062449734" lon="16.914240757260437"><ele>216.28571428571428</ele><time>2026-03-28T14:04:12.001Z</time></trkpt><trkpt lat="39.23298409042423" lon="16.914327091992984"><ele>216.42857142857144</ele><time>2026-03-28T14:04:14.001Z</time></trkpt><trkpt lat="39.23301674233482" lon="16.914416344256555"><ele>216.57142857142856</ele><time>2026-03-28T14:04:16.001Z</time></trkpt><trkpt lat="39.23306082206884" lon="16.914480909550967"><ele>216.71428571428572</ele><time>2026-03-28T14:04:18.001Z</time></trkpt><trkpt lat="39.23311941718662" lon="16.91452901653641"><ele>216.85714285714286</ele><time>2026-03-28T14:04:20Z</time></trkpt><trkpt lat="39.23319047076712" lon="16.914538441818127"><ele>217.0</ele><time>2026-03-28T14:04:23Z</time></trkpt><trkpt lat="39.23325007222125" lon="16.91460421073793"><ele>217.0</ele><time>2026-03-28T14:04:28Z</time></trkpt><trkpt lat="39.233278277097114" lon="16.91468667197661"><ele>217.0</ele><time>2026-03-28T14:04:32Z</time></trkpt><trkpt lat="39.23333558119316" lon="16.914738716933243"><ele>217.0</ele><time>2026-03-28T14:04:36Z</time></trkpt><trkpt lat="39.23339001533883" lon="16.914815542270137"><ele>217.0</ele><time>2026-03-28T14:04:40Z</time></trkpt><trkpt lat="39.233429661522976" lon="16.914898040937192"><ele>217.0</ele><time>2026-03-28T14:04:44Z</time></trkpt><trkpt lat="39.23346295420636" lon="16.914974249800814"><ele>217.0</ele><time>2026-03-28T14:04:53Z</time></trkpt><trkpt lat="39.23350145264811" lon="16.915040735068622"><ele>217.0</ele><time>2026-03-28T14:04:56Z</time></trkpt><trkpt lat="39.23353409710655" lon="16.91512106654798"><ele>214.66666666666666</ele><time>2026-03-28T14:05:01Z</time></trkpt><trkpt lat="39.23357106246074" lon="16.915195552585025"><ele>212.33333333333331</ele><time>2026-03-28T14:05:06Z</time></trkpt><trkpt lat="39.233591528382355" lon="16.915282164010904"><ele>210.0</ele><time>2026-03-28T14:05:09Z</time></trkpt><trkpt lat="39.233599995699386" lon="16.915385864014873"><ele>207.66666666666669</ele><time>2026-03-28T14:05:12Z</time></trkpt><trkpt lat="39.233601404602425" lon="16.91550078892461"><ele>205.33333333333334</ele><time>2026-03-28T14:05:15Z</time></trkpt><trkpt lat="39.23359116457794" lon="16.915609446197628"><ele>203.0</ele><time>2026-03-28T14:05:18Z</time></trkpt><trkpt lat="39.233589920750944" lon="16.915692961988032"><ele>203.0</ele><time>2026-03-28T14:05:21Z</time></trkpt><trkpt lat="39.23352100539998" lon="16.915717633426333"><ele>203.0</ele><time>2026-03-28T14:05:25Z</time></trkpt><trkpt lat="39.233475742157154" lon="16.91580362716522"><ele>203.0</ele><time>2026-03-28T14:05:28Z</time></trkpt><trkpt lat="39.23344644540027" lon="16.91587940726964"><ele>203.0</ele><time>2026-03-28T14:05:30Z</time></trkpt><trkpt lat="39.23343479172092" lon="16.915963221606916"><ele>203.0</ele><time>2026-03-28T14:05:32Z</time></trkpt><trkpt lat="39.233468992040194" lon="16.91604434204202"><ele>203.0</ele><time>2026-03-28T14:05:34Z</time></trkpt><trkpt lat="39.23352606736403" lon="16.916104652217268"><ele>203.0</ele><time>2026-03-28T14:05:36Z</time></trkpt><trkpt lat="39.23358654921752" lon="16.91614756957534"><ele>201.33333333333334</ele><time>2026-03-28T14:05:38Z</time></trkpt><trkpt lat="39.233636468399574" lon="16.916249901125056"><ele>199.66666666666669</ele><time>2026-03-28T14:05:41Z</time></trkpt><trkpt lat="39.233681566076136" lon="16.91633498976413"><ele>198.0</ele><time>2026-03-28T14:05:43Z</time></trkpt><trkpt lat="39.233736447707756" lon="16.916414655061587"><ele>196.33333333333331</ele><time>2026-03-28T14:05:45Z</time></trkpt><trkpt lat="39.23380424899764" lon="16.916467368054725"><ele>194.66666666666666</ele><time>2026-03-28T14:05:47Z</time></trkpt><trkpt lat="39.23385223342279" lon="16.91654277645271"><ele>193.0</ele><time>2026-03-28T14:05:49Z</time></trkpt><trkpt lat="39.23388350675218" lon="16.91661474545138"><ele>193.00000000000003</ele><time>2026-03-28T14:05:51Z</time></trkpt><trkpt lat="39.23391562677588" lon="16.916692747985657"><ele>193.0</ele><time>2026-03-28T14:05:55Z</time></trkpt><trkpt lat="39.23396398224501" lon="16.91676471880504"><ele>193.0</ele><time>2026-03-28T14:06:00Z</time></trkpt><trkpt lat="39.23401702634304" lon="16.91682233118218"><ele>193.0</ele><time>2026-03-28T14:06:02Z</time></trkpt><trkpt lat="39.23404520338106" lon="16.91690149706762"><ele>193.0</ele><time>2026-03-28T14:06:03Z</time></trkpt><trkpt lat="39.234091350121055" lon="16.91697576518649"><ele>193.00000000000003</ele><time>2026-03-28T14:06:04Z</time></trkpt><trkpt lat="39.234150457907134" lon="16.917043914790195"><ele>193.0</ele><time>2026-03-28T14:06:05Z</time></trkpt><trkpt lat="39.2342107462087" lon="16.917124791110478"><ele>191.33333333333331</ele><time>2026-03-28T14:06:06Z</time></trkpt><trkpt lat="39.23426374408933" lon="16.917215935032768"><ele>189.66666666666666</ele><time>2026-03-28T14:06:07Z</time></trkpt><trkpt lat="39.23430851724809" lon="16.917312487027477"><ele>188.0</ele><time>2026-03-28T14:06:08Z</time></trkpt><trkpt lat="39.23435294951174" lon="16.91740919131465"><ele>186.33333333333331</ele><time>2026-03-28T14:06:09Z</time></trkpt><trkpt lat="39.234401936467066" lon="16.91750148573906"><ele>184.66666666666666</ele><time>2026-03-28T14:06:10Z</time></trkpt><trkpt lat="39.23445284572711" lon="16.917589080769073"><ele>183.0</ele><time>2026-03-28T14:06:11Z</time></trkpt><trkpt lat="39.2344937901064" lon="16.917682297407733"><ele>181.66666666666666</ele><time>2026-03-28T14:06:12Z</time></trkpt><trkpt lat="39.234523037632925" lon="16.917777145020462"><ele>180.33333333333334</ele><time>2026-03-28T14:06:13Z</time></trkpt><trkpt lat="39.23455064690253" lon="16.9178764582037"><ele>179.0</ele><time>2026-03-28T14:06:14Z</time></trkpt><trkpt lat="39.23457713733805" lon="16.917983038986307"><ele>177.66666666666669</ele><time>2026-03-28T14:06:15Z</time></trkpt><trkpt lat="39.23460135070818" lon="16.918090667119987"><ele>176.33333333333334</ele><time>2026-03-28T14:06:16Z</time></trkpt><trkpt lat="39.234653004839714" lon="16.9181827720752"><ele>175.0</ele><time>2026-03-28T14:06:17Z</time></trkpt><trkpt lat="39.2347170547193" lon="16.918276858442436"><ele>175.0</ele><time>2026-03-28T14:06:18Z</time></trkpt><trkpt lat="39.23478792697314" lon="16.918375339033723"><ele>175.0</ele><time>2026-03-28T14:06:19Z</time></trkpt><trkpt lat="39.2348522096434" lon="16.918473783585902"><ele>175.0</ele><time>2026-03-28T14:06:20Z</time></trkpt><trkpt lat="39.23490642959276" lon="16.91855507804231"><ele>175.0</ele><time>2026-03-28T14:06:21Z</time></trkpt><trkpt lat="39.234947371049344" lon="16.918626681738356"><ele>175.0</ele><time>2026-03-28T14:06:22Z</time></trkpt><trkpt lat="39.235015689652066" lon="16.918734684224873"><ele>175.2</ele><time>2026-03-28T14:06:24Z</time></trkpt><trkpt lat="39.23508152278874" lon="16.918823211705913"><ele>175.4</ele><time>2026-03-28T14:06:26Z</time></trkpt><trkpt lat="39.23514097145284" lon="16.918899729599058"><ele>175.60000000000002</ele><time>2026-03-28T14:06:28Z</time></trkpt><trkpt lat="39.23520039404305" lon="16.918968172075097"><ele>175.8</ele><time>2026-03-28T14:06:31Z</time></trkpt><trkpt lat="39.23524528522623" lon="16.919077208232103"><ele>176.0</ele><time>2026-03-28T14:06:34Z</time></trkpt><trkpt lat="39.23530441432382" lon="16.919176806950873"><ele>174.83333333333331</ele><time>2026-03-28T14:06:36Z</time></trkpt><trkpt lat="39.23535071654359" lon="16.919272463367225"><ele>173.66666666666666</ele><time>2026-03-28T14:06:38Z</time></trkpt><trkpt lat="39.23540177676072" lon="16.919362902732022"><ele>172.5</ele><time>2026-03-28T14:06:40Z</time></trkpt><trkpt lat="39.23541945056423" lon="16.919468037098948"><ele>171.33333333333334</ele><time>2026-03-28T14:06:43Z</time></trkpt><trkpt lat="39.235354558086236" lon="16.91952585168517"><ele>170.16666666666669</ele><time>2026-03-28T14:06:45Z</time></trkpt><trkpt lat="39.235292434749205" lon="16.919613825279235"><ele>169.0</ele><time>2026-03-28T14:06:47Z</time></trkpt><trkpt lat="39.23524301963299" lon="16.919682138113814"><ele>169.0</ele><time>2026-03-28T14:06:49Z</time></trkpt><trkpt lat="39.235199720457814" lon="16.919753557211628"><ele>169.0</ele><time>2026-03-28T14:06:51Z</time></trkpt><trkpt lat="39.235170960170386" lon="16.919858198476952"><ele>169.0</ele><time>2026-03-28T14:06:53Z</time></trkpt><trkpt lat="39.23509406392545" lon="16.919939605689823"><ele>169.0</ele><time>2026-03-28T14:06:55Z</time></trkpt><trkpt lat="39.23502742373087" lon="16.92002689286439"><ele>169.0</ele><time>2026-03-28T14:06:57Z</time></trkpt><trkpt lat="39.23496434053771" lon="16.920113029360742"><ele>169.0</ele><time>2026-03-28T14:06:59Z</time></trkpt><trkpt lat="39.23491362477011" lon="16.92021229917005"><ele>167.5</ele><time>2026-03-28T14:07:01Z</time></trkpt><trkpt lat="39.2348620690818" lon="16.920317331181163"><ele>166.0</ele><time>2026-03-28T14:07:03Z</time></trkpt><trkpt lat="39.23480705856999" lon="16.92041839231134"><ele>164.5</ele><time>2026-03-28T14:07:05Z</time></trkpt><trkpt lat="39.234770579034844" lon="16.920525350788218"><ele>163.0</ele><time>2026-03-28T14:07:07Z</time></trkpt><trkpt lat="39.234724304811586" lon="16.92059044359481"><ele>161.5</ele><time>2026-03-28T14:07:09Z</time></trkpt><trkpt lat="39.23467237728731" lon="16.920645618601196"><ele>160.0</ele><time>2026-03-28T14:07:12Z</time></trkpt><trkpt lat="39.2346224478042" lon="16.920697077259636"><ele>159.33333333333334</ele><time>2026-03-28T14:07:15Z</time></trkpt><trkpt lat="39.23458728051867" lon="16.92076494126943"><ele>158.66666666666669</ele><time>2026-03-28T14:07:18Z</time></trkpt><trkpt lat="39.234517787107634" lon="16.92084340092794"><ele>158.0</ele><time>2026-03-28T14:07:21Z</time></trkpt><trkpt lat="39.23447781964467" lon="16.92092785700672"><ele>157.33333333333334</ele><time>2026-03-28T14:07:24Z</time></trkpt><trkpt lat="39.234437762164006" lon="16.921011949501025"><ele>156.66666666666666</ele><time>2026-03-28T14:07:28Z</time></trkpt><trkpt lat="39.23439276312002" lon="16.92106947718943"><ele>156.0</ele><time>2026-03-28T14:07:31Z</time></trkpt><trkpt lat="39.23433054235132" lon="16.921167982111477"><ele>155.6</ele><time>2026-03-28T14:07:34Z</time></trkpt><trkpt lat="39.23431963470844" lon="16.92126797455376"><ele>155.2</ele><time>2026-03-28T14:07:36Z</time></trkpt><trkpt lat="39.2343474310051" lon="16.92140986181826"><ele>154.8</ele><time>2026-03-28T14:07:38Z</time></trkpt><trkpt lat="39.23435458891031" lon="16.92155912067726"><ele>154.4</ele><time>2026-03-28T14:07:40Z</time></trkpt><trkpt lat="39.23431387225252" lon="16.921708398244906"><ele>154.0</ele><time>2026-03-28T14:07:42Z</time></trkpt><trkpt lat="39.23426732608639" lon="16.921779292855067"><ele>155.0</ele><time>2026-03-28T14:07:43Z</time></trkpt><trkpt lat="39.23422141930549" lon="16.92185640388031"><ele>156.0</ele><time>2026-03-28T14:07:44Z</time></trkpt><trkpt lat="39.23418655380287" lon="16.921929211256185"><ele>157.0</ele><time>2026-03-28T14:07:45Z</time></trkpt><trkpt lat="39.234157731321744" lon="16.922027835397344"><ele>158.0</ele><time>2026-03-28T14:07:47Z</time></trkpt><trkpt lat="39.2340713101556" lon="16.92208858356964"><ele>159.0</ele><time>2026-03-28T14:07:49Z</time></trkpt><trkpt lat="39.2339749940598" lon="16.92219117571359"><ele>160.0</ele><time>2026-03-28T14:07:51Z</time></trkpt><trkpt lat="39.233906021623206" lon="16.92230911132693"><ele>160.16666666666669</ele><time>2026-03-28T14:07:53Z</time></trkpt><trkpt lat="39.23385526254133" lon="16.922392895588615"><ele>160.33333333333334</ele><time>2026-03-28T14:07:55Z</time></trkpt><trkpt lat="39.23378519472112" lon="16.922471778805843"><ele>160.5</ele><time>2026-03-28T14:07:57Z</time></trkpt><trkpt lat="39.233723772756896" lon="16.922559072169577"><ele>160.66666666666666</ele><time>2026-03-28T14:07:59Z</time></trkpt><trkpt lat="39.233670041454765" lon="16.922622447642247"><ele>160.83333333333331</ele><time>2026-03-28T14:08:01Z</time></trkpt><trkpt lat="39.23358779757306" lon="16.922673135253387"><ele>161.0</ele><time>2026-03-28T14:08:03Z</time></trkpt><trkpt lat="39.233485619835406" lon="16.922736974478934"><ele>160.4</ele><time>2026-03-28T14:08:05Z</time></trkpt><trkpt lat="39.233387762858044" lon="16.922799041202776"><ele>159.8</ele><time>2026-03-28T14:08:07Z</time></trkpt><trkpt lat="39.233301866756285" lon="16.922874032333226"><ele>159.20000000000002</ele><time>2026-03-28T14:08:09Z</time></trkpt><trkpt lat="39.233240619763" lon="16.92298246360182"><ele>158.60000000000002</ele><time>2026-03-28T14:08:11Z</time></trkpt><trkpt lat="39.23318330962042" lon="16.923065026605144"><ele>158.0</ele><time>2026-03-28T14:08:13Z</time></trkpt><trkpt lat="39.23312371825474" lon="16.923122619989357"><ele>155.5</ele><time>2026-03-28T14:08:15Z</time></trkpt><trkpt lat="39.23305634961758" lon="16.92318283284939"><ele>153.0</ele><time>2026-03-28T14:08:17Z</time></trkpt><trkpt lat="39.23298534918744" lon="16.923256659252342"><ele>150.5</ele><time>2026-03-28T14:08:19Z</time></trkpt><trkpt lat="39.23294657836134" lon="16.923338184116346"><ele>148.0</ele><time>2026-03-28T14:08:21Z</time></trkpt><trkpt lat="39.23292503860849" lon="16.92343855444631"><ele>145.5</ele><time>2026-03-28T14:08:24Z</time></trkpt><trkpt lat="39.23287560117297" lon="16.92352560894281"><ele>143.0</ele><time>2026-03-28T14:08:27Z</time></trkpt><trkpt lat="39.23286230416389" lon="16.923617535056998"><ele>141.57142857142856</ele><time>2026-03-28T14:08:32Z</time></trkpt><trkpt lat="39.232849106032745" lon="16.923709789616677"><ele>140.14285714285714</ele><time>2026-03-28T14:08:35Z</time></trkpt><trkpt lat="39.23282622004729" lon="16.92378805701926"><ele>138.71428571428572</ele><time>2026-03-28T14:08:38Z</time></trkpt><trkpt lat="39.23283057106834" lon="16.92386940007072"><ele>137.28571428571428</ele><time>2026-03-28T14:08:42Z</time></trkpt><trkpt lat="39.23280837398084" lon="16.923984066157278"><ele>135.85714285714286</ele><time>2026-03-28T14:09:05.001Z</time></trkpt><trkpt lat="39.232790483185724" lon="16.924067143650827"><ele>134.42857142857142</ele><time>2026-03-28T14:09:11.001Z</time></trkpt><trkpt lat="39.23276379118807" lon="16.924163876907876"><ele>133.0</ele><time>2026-03-28T14:09:15.001Z</time></trkpt><trkpt lat="39.23273973791541" lon="16.924251743395505"><ele>131.42857142857142</ele><time>2026-03-28T14:09:20.001Z</time></trkpt><trkpt lat="39.23268518027644" lon="16.924329742530283"><ele>129.85714285714286</ele><time>2026-03-28T14:09:26.001Z</time></trkpt><trkpt lat="39.23266323440855" lon="16.92440640821291"><ele>128.28571428571428</ele><time>2026-03-28T14:09:32.001Z</time></trkpt><trkpt lat="39.23264129545388" lon="16.924504824047645"><ele>126.71428571428571</ele><time>2026-03-28T14:09:39.001Z</time></trkpt><trkpt lat="39.23265316831876" lon="16.924592960579794"><ele>125.14285714285714</ele><time>2026-03-28T14:09:44.001Z</time></trkpt><trkpt lat="39.23265904646292" lon="16.92469614739902"><ele>123.57142857142856</ele><time>2026-03-28T14:09:47.001Z</time></trkpt><trkpt lat="39.23266807014621" lon="16.924780460801838"><ele>121.99999999999999</ele><time>2026-03-28T14:09:49.001Z</time></trkpt><trkpt lat="39.23268107957389" lon="16.924871715357813"><ele>121.99999999999999</ele><time>2026-03-28T14:09:51.001Z</time></trkpt><trkpt lat="39.232716014101065" lon="16.924952757207407"><ele>122.0</ele><time>2026-03-28T14:09:53.001Z</time></trkpt><trkpt lat="39.23273218011711" lon="16.925040942194364"><ele>122.0</ele><time>2026-03-28T14:09:55.001Z</time></trkpt><trkpt lat="39.232749253627624" lon="16.92513621211079"><ele>122.0</ele><time>2026-03-28T14:09:57.001Z</time></trkpt><trkpt lat="39.23274635540785" lon="16.925233583172098"><ele>121.99999999999999</ele><time>2026-03-28T14:09:59.001Z</time></trkpt><trkpt lat="39.232730644580954" lon="16.92534473015717"><ele>122.0</ele><time>2026-03-28T14:10:01.001Z</time></trkpt><trkpt lat="39.23272419581543" lon="16.925437273490438"><ele>121.49999999999999</ele><time>2026-03-28T14:10:03.001Z</time></trkpt><trkpt lat="39.23269344470624" lon="16.925509819691346"><ele>121.0</ele><time>2026-03-28T14:10:05.001Z</time></trkpt><trkpt lat="39.23265050013834" lon="16.925602267658046"><ele>120.5</ele><time>2026-03-28T14:10:07.001Z</time></trkpt><trkpt lat="39.23260386572472" lon="16.925692028664763"><ele>120.0</ele><time>2026-03-28T14:10:09.001Z</time></trkpt><trkpt lat="39.2325563070311" lon="16.925772536078853"><ele>119.49999999999999</ele><time>2026-03-28T14:10:11.001Z</time></trkpt><trkpt lat="39.23250544426759" lon="16.92587341143291"><ele>119.0</ele><time>2026-03-28T14:10:13.001Z</time></trkpt><trkpt lat="39.2324843980598" lon="16.925968999181542"><ele>117.83333333333333</ele><time>2026-03-28T14:10:15.001Z</time></trkpt><trkpt lat="39.23247542838377" lon="16.926059577202786"><ele>116.66666666666666</ele><time>2026-03-28T14:10:17.001Z</time></trkpt><trkpt lat="39.23246386713636" lon="16.92615838383657"><ele>115.5</ele><time>2026-03-28T14:10:19.001Z</time></trkpt><trkpt lat="39.232469797249806" lon="16.92625029860437"><ele>114.33333333333334</ele><time>2026-03-28T14:10:21.001Z</time></trkpt><trkpt lat="39.23247501786287" lon="16.926363824904698"><ele>113.16666666666667</ele><time>2026-03-28T14:10:24.001Z</time></trkpt><trkpt lat="39.23246532510394" lon="16.926468872914743"><ele>112.0</ele><time>2026-03-28T14:10:27.001Z</time></trkpt><trkpt lat="39.232449755397866" lon="16.926548201360877"><ele>112.00000000000001</ele><time>2026-03-28T14:10:29.001Z</time></trkpt><trkpt lat="39.23241652342923" lon="16.92663900634971"><ele>112.0</ele><time>2026-03-28T14:10:33.001Z</time></trkpt><trkpt lat="39.23238696261193" lon="16.92671297080409"><ele>112.0</ele><time>2026-03-28T14:10:35.001Z</time></trkpt><trkpt lat="39.23234897561592" lon="16.926827191628604"><ele>112.0</ele><time>2026-03-28T14:10:38.001Z</time></trkpt><trkpt lat="39.23233704391614" lon="16.92691619909302"><ele>112.00000000000001</ele><time>2026-03-28T14:10:42.001Z</time></trkpt><trkpt lat="39.23232541452825" lon="16.92701311541248"><ele>112.0</ele><time>2026-03-28T14:10:46.001Z</time></trkpt><trkpt lat="39.23229355607788" lon="16.927099184993235"><ele>111.33333333333334</ele><time>2026-03-28T14:10:49.001Z</time></trkpt><trkpt lat="39.23227041914821" lon="16.92719041129495"><ele>110.66666666666667</ele><time>2026-03-28T14:10:51.001Z</time></trkpt><trkpt lat="39.23223965162487" lon="16.927294268713478"><ele>110.0</ele><time>2026-03-28T14:10:53.001Z</time></trkpt><trkpt lat="39.23226736244149" lon="16.927388574636893"><ele>109.33333333333334</ele><time>2026-03-28T14:10:55.001Z</time></trkpt><trkpt lat="39.23229850252157" lon="16.927476159522723"><ele>108.66666666666667</ele><time>2026-03-28T14:10:57.001Z</time></trkpt><trkpt lat="39.23234882697702" lon="16.92754693168264"><ele>108.0</ele><time>2026-03-28T14:10:59.001Z</time></trkpt><trkpt lat="39.232359313062354" lon="16.927632562124238"><ele>108.28571428571428</ele><time>2026-03-28T14:11:02.001Z</time></trkpt><trkpt lat="39.23229010171173" lon="16.92766971776565"><ele>108.57142857142857</ele><time>2026-03-28T14:11:07.001Z</time></trkpt><trkpt lat="39.232223706018054" lon="16.927703313268122"><ele>108.85714285714286</ele><time>2026-03-28T14:11:13.001Z</time></trkpt><trkpt lat="39.23215731741273" lon="16.927705029829397"><ele>109.14285714285714</ele><time>2026-03-28T14:11:21.001Z</time></trkpt><trkpt lat="39.23208705585254" lon="16.92772001071889"><ele>109.42857142857143</ele><time>2026-03-28T14:11:32.001Z</time></trkpt><trkpt lat="39.23203608389293" lon="16.92777952550166"><ele>109.71428571428571</ele><time>2026-03-28T14:11:38Z</time></trkpt><trkpt lat="39.231960974759865" lon="16.927820814429747"><ele>110.0</ele><time>2026-03-28T14:11:42Z</time></trkpt><trkpt lat="39.231871887787456" lon="16.927791279783243"><ele>109.99999999999999</ele><time>2026-03-28T14:11:45Z</time></trkpt><trkpt lat="39.23179498460032" lon="16.927785119932906"><ele>110.0</ele><time>2026-03-28T14:11:48Z</time></trkpt><trkpt lat="39.23172137831183" lon="16.92775698157371"><ele>110.0</ele><time>2026-03-28T14:11:51Z</time></trkpt><trkpt lat="39.231663054455616" lon="16.92771275381555"><ele>110.0</ele><time>2026-03-28T14:11:54Z</time></trkpt><trkpt lat="39.23158543743294" lon="16.927679107292544"><ele>110.0</ele><time>2026-03-28T14:11:58Z</time></trkpt><trkpt lat="39.231515012029085" lon="16.92765047828849"><ele>109.99999999999999</ele><time>2026-03-28T14:12:01Z</time></trkpt><trkpt lat="39.231447947465675" lon="16.927653429425117"><ele>110.0</ele><time>2026-03-28T14:12:04Z</time></trkpt><trkpt lat="39.231358986742784" lon="16.927603317009673"><ele>108.4</ele><time>2026-03-28T14:12:07Z</time></trkpt><trkpt lat="39.23127650175919" lon="16.92757640191532"><ele>106.8</ele><time>2026-03-28T14:12:09Z</time></trkpt><trkpt lat="39.23119007669742" lon="16.92758344846558"><ele>105.19999999999999</ele><time>2026-03-28T14:12:11Z</time></trkpt><trkpt lat="39.231116698639624" lon="16.92769197014141"><ele>103.6</ele><time>2026-03-28T14:12:13Z</time></trkpt><trkpt lat="39.23107966728703" lon="16.92776393765673"><ele>102.0</ele><time>2026-03-28T14:12:14Z</time></trkpt><trkpt lat="39.231001326414514" lon="16.92786852332559"><ele>102.0</ele><time>2026-03-28T14:12:16Z</time></trkpt><trkpt lat="39.230922103702234" lon="16.92798792915346"><ele>102.0</ele><time>2026-03-28T14:12:18Z</time></trkpt><trkpt lat="39.23088506552043" lon="16.92806992159586"><ele>102.0</ele><time>2026-03-28T14:12:19Z</time></trkpt><trkpt lat="39.230855173434975" lon="16.92816217136226"><ele>102.0</ele><time>2026-03-28T14:12:20Z</time></trkpt><trkpt lat="39.230860330144345" lon="16.92829416218216"><ele>102.0</ele><time>2026-03-28T14:12:22Z</time></trkpt><trkpt lat="39.23086147169359" lon="16.92839225391426"><ele>102.83333333333333</ele><time>2026-03-28T14:12:23Z</time></trkpt><trkpt lat="39.23087570815133" lon="16.928486837572642"><ele>103.66666666666666</ele><time>2026-03-28T14:12:24Z</time></trkpt><trkpt lat="39.230918054392426" lon="16.928611557517833"><ele>104.5</ele><time>2026-03-28T14:12:25Z</time></trkpt><trkpt lat="39.230959434728014" lon="16.928719532762056"><ele>105.33333333333333</ele><time>2026-03-28T14:12:26Z</time></trkpt><trkpt lat="39.2309916127552" lon="16.92881249891713"><ele>106.16666666666666</ele><time>2026-03-28T14:12:27Z</time></trkpt><trkpt lat="39.23099364353793" lon="16.92890914247657"><ele>107.0</ele><time>2026-03-28T14:12:28Z</time></trkpt><trkpt lat="39.23098352295332" lon="16.92901864931784"><ele>106.99999999999999</ele><time>2026-03-28T14:12:29Z</time></trkpt><trkpt lat="39.230977492155226" lon="16.92911609866294"><ele>107.0</ele><time>2026-03-28T14:12:30Z</time></trkpt><trkpt lat="39.2309764081336" lon="16.929223433425687"><ele>107.0</ele><time>2026-03-28T14:12:31Z</time></trkpt><trkpt lat="39.230942460337225" lon="16.929332036555394"><ele>107.0</ele><time>2026-03-28T14:12:32Z</time></trkpt><trkpt lat="39.230959718817665" lon="16.92943010253109"><ele>106.99999999999999</ele><time>2026-03-28T14:12:33Z</time></trkpt><trkpt lat="39.23098931829864" lon="16.929518094220942"><ele>107.0</ele><time>2026-03-28T14:12:34Z</time></trkpt><trkpt lat="39.23100180278873" lon="16.929609011141626"><ele>105.8</ele><time>2026-03-28T14:12:35Z</time></trkpt><trkpt lat="39.231020420178886" lon="16.929687015486902"><ele>104.6</ele><time>2026-03-28T14:12:36Z</time></trkpt><trkpt lat="39.23106091367025" lon="16.929800418817724"><ele>103.39999999999999</ele><time>2026-03-28T14:12:38Z</time></trkpt><trkpt lat="39.23109704646514" lon="16.929898809672355"><ele>102.19999999999999</ele><time>2026-03-28T14:12:45Z</time></trkpt><trkpt lat="39.23115586140956" lon="16.93002940962003"><ele>101.0</ele><time>2026-03-28T14:12:47Z</time></trkpt><trkpt lat="39.231202170919616" lon="16.930132241150567"><ele>100.0</ele><time>2026-03-28T14:12:48Z</time></trkpt><trkpt lat="39.23126488451592" lon="16.930271498401126"><ele>99.0</ele><time>2026-03-28T14:12:49Z</time></trkpt><trkpt lat="39.231379436847256" lon="16.930402405291623"><ele>98.0</ele><time>2026-03-28T14:12:50Z</time></trkpt><trkpt lat="39.231470041964755" lon="16.93053769047663"><ele>97.0</ele><time>2026-03-28T14:12:51Z</time></trkpt><trkpt lat="39.231540699564356" lon="16.930663010576428"><ele>98.5</ele><time>2026-03-28T14:12:52Z</time></trkpt><trkpt lat="39.231581967596604" lon="16.930804436301262"><ele>100.0</ele><time>2026-03-28T14:12:53Z</time></trkpt><trkpt lat="39.231637672485725" lon="16.930952253677763"><ele>101.5</ele><time>2026-03-28T14:12:54Z</time></trkpt><trkpt lat="39.231710223848836" lon="16.93109488902008"><ele>103.0</ele><time>2026-03-28T14:12:55Z</time></trkpt><trkpt lat="39.23178374788315" lon="16.931222239326637"><ele>103.0</ele><time>2026-03-28T14:12:56Z</time></trkpt><trkpt lat="39.23184931342577" lon="16.93133685316765"><ele>103.0</ele><time>2026-03-28T14:12:57Z</time></trkpt><trkpt lat="39.231905392580146" lon="16.93143439863395"><ele>103.0</ele><time>2026-03-28T14:12:58Z</time></trkpt><trkpt lat="39.23193825115115" lon="16.931532742184448"><ele>103.0</ele><time>2026-03-28T14:12:59Z</time></trkpt><trkpt lat="39.23194181991993" lon="16.93165185836545"><ele>103.0</ele><time>2026-03-28T14:13:00Z</time></trkpt><trkpt lat="39.23193113049528" lon="16.93180036495772"><ele>102.5</ele><time>2026-03-28T14:13:01Z</time></trkpt><trkpt lat="39.23191391566893" lon="16.93196590070665"><ele>102.0</ele><time>2026-03-28T14:13:02Z</time></trkpt><trkpt lat="39.231898323885154" lon="16.9321296394973"><ele>101.5</ele><time>2026-03-28T14:13:03Z</time></trkpt><trkpt lat="39.231888271948144" lon="16.932286746894903"><ele>101.0</ele><time>2026-03-28T14:13:04Z</time></trkpt><trkpt lat="39.23188482845926" lon="16.9324468576338"><ele>101.0</ele><time>2026-03-28T14:13:05Z</time></trkpt><trkpt lat="39.23189863024197" lon="16.93260092115864"><ele>101.0</ele><time>2026-03-28T14:13:06Z</time></trkpt><trkpt lat="39.23192335836767" lon="16.932740286524723"><ele>101.0</ele><time>2026-03-28T14:13:07Z</time></trkpt><trkpt lat="39.2319586849794" lon="16.932864322498258"><ele>101.0</ele><time>2026-03-28T14:13:08Z</time></trkpt><trkpt lat="39.23199246662422" lon="16.93296942656896"><ele>101.0</ele><time>2026-03-28T14:13:09Z</time></trkpt><trkpt lat="39.232001679245556" lon="16.93307113785507"><ele>101.0</ele><time>2026-03-28T14:13:10Z</time></trkpt><trkpt lat="39.23198016863813" lon="16.93318035307107"><ele>101.0</ele><time>2026-03-28T14:13:11Z</time></trkpt><trkpt lat="39.2319503830468" lon="16.933310728315284"><ele>101.0</ele><time>2026-03-28T14:13:12Z</time></trkpt><trkpt lat="39.23191646788517" lon="16.93343696782986"><ele>101.0</ele><time>2026-03-28T14:13:13Z</time></trkpt><trkpt lat="39.2318738551847" lon="16.93355413311753"><ele>101.0</ele><time>2026-03-28T14:13:14Z</time></trkpt><trkpt lat="39.231812514662735" lon="16.933667713721654"><ele>100.5</ele><time>2026-03-28T14:13:15Z</time></trkpt><trkpt lat="39.23171466072493" lon="16.93379153823594"><ele>100.0</ele><time>2026-03-28T14:13:16Z</time></trkpt><trkpt lat="39.23161216836385" lon="16.933927408541955"><ele>99.5</ele><time>2026-03-28T14:13:17Z</time></trkpt><trkpt lat="39.231520724991626" lon="16.934062353988143"><ele>99.0</ele><time>2026-03-28T14:13:18Z</time></trkpt><trkpt lat="39.23143881718816" lon="16.934187995931065"><ele>97.5</ele><time>2026-03-28T14:13:19Z</time></trkpt><trkpt lat="39.231366092008955" lon="16.934314942702056"><ele>96.0</ele><time>2026-03-28T14:13:20Z</time></trkpt><trkpt lat="39.23130237605991" lon="16.934454972927217"><ele>94.5</ele><time>2026-03-28T14:13:21Z</time></trkpt><trkpt lat="39.23125095393704" lon="16.93459603120257"><ele>93.0</ele><time>2026-03-28T14:13:22Z</time></trkpt><trkpt lat="39.231209282088834" lon="16.9347386327521"><ele>93.0</ele><time>2026-03-28T14:13:23Z</time></trkpt><trkpt lat="39.23117739673483" lon="16.934882557575587"><ele>93.0</ele><time>2026-03-28T14:13:24Z</time></trkpt><trkpt lat="39.23115326412714" lon="16.93501233591073"><ele>93.0</ele><time>2026-03-28T14:13:25Z</time></trkpt><trkpt lat="39.231133093568204" lon="16.93512714709907"><ele>93.0</ele><time>2026-03-28T14:13:26Z</time></trkpt><trkpt lat="39.23111690221024" lon="16.93522262861417"><ele>93.0</ele><time>2026-03-28T14:13:27Z</time></trkpt><trkpt lat="39.23103759747309" lon="16.935360077588356"><ele>93.2</ele><time>2026-03-28T14:13:29Z</time></trkpt><trkpt lat="39.23095563737613" lon="16.935434289292793"><ele>93.4</ele><time>2026-03-28T14:13:30Z</time></trkpt><trkpt lat="39.23087300689415" lon="16.935535159950593"><ele>93.60000000000001</ele><time>2026-03-28T14:13:31Z</time></trkpt><trkpt lat="39.23080410946863" lon="16.935654098310764"><ele>93.80000000000001</ele><time>2026-03-28T14:13:32Z</time></trkpt><trkpt lat="39.230738201753795" lon="16.935782328262285"><ele>94.0</ele><time>2026-03-28T14:13:33Z</time></trkpt><trkpt lat="39.23067229685496" lon="16.935913921758026"><ele>93.2</ele><time>2026-03-28T14:13:34Z</time></trkpt><trkpt lat="39.23060722267306" lon="16.936043862017673"><ele>92.4</ele><time>2026-03-28T14:13:35Z</time></trkpt><trkpt lat="39.23054501240914" lon="16.936168266497788"><ele>91.6</ele><time>2026-03-28T14:13:36Z</time></trkpt><trkpt lat="39.23049807290633" lon="16.93629235557628"><ele>90.8</ele><time>2026-03-28T14:13:37Z</time></trkpt><trkpt lat="39.23044789445813" lon="16.936396477006323"><ele>90.0</ele><time>2026-03-28T14:13:38Z</time></trkpt><trkpt lat="39.23039796457147" lon="16.9364933551253"><ele>90.0</ele><time>2026-03-28T14:13:39Z</time></trkpt><trkpt lat="39.23034776218585" lon="16.936591567627097"><ele>90.0</ele><time>2026-03-28T14:13:40Z</time></trkpt><trkpt lat="39.230295307157746" lon="16.936694051441133"><ele>90.0</ele><time>2026-03-28T14:13:41Z</time></trkpt><trkpt lat="39.230227815707416" lon="16.93679736910162"><ele>90.0</ele><time>2026-03-28T14:13:42Z</time></trkpt><trkpt lat="39.23016229203189" lon="16.936930221922843"><ele>90.0</ele><time>2026-03-28T14:13:43Z</time></trkpt><trkpt lat="39.23010604872035" lon="16.93708559757569"><ele>90.5</ele><time>2026-03-28T14:13:44Z</time></trkpt><trkpt lat="39.23003659162359" lon="16.937232953672453"><ele>91.0</ele><time>2026-03-28T14:13:45Z</time></trkpt><trkpt lat="39.22996604751307" lon="16.93737440630163"><ele>91.5</ele><time>2026-03-28T14:13:46Z</time></trkpt><trkpt lat="39.229901290323916" lon="16.937503322393468"><ele>92.0</ele><time>2026-03-28T14:13:47Z</time></trkpt><trkpt lat="39.22984199184543" lon="16.937623420227688"><ele>92.0</ele><time>2026-03-28T14:13:48Z</time></trkpt><trkpt lat="39.22978606001802" lon="16.937743261679444"><ele>92.0</ele><time>2026-03-28T14:13:49Z</time></trkpt><trkpt lat="39.2297269069489" lon="16.93786616177786"><ele>92.0</ele><time>2026-03-28T14:13:50Z</time></trkpt><trkpt lat="39.22966338514341" lon="16.937990356001105"><ele>92.0</ele><time>2026-03-28T14:13:51Z</time></trkpt><trkpt lat="39.229571005214176" lon="16.93809064316791"><ele>92.0</ele><time>2026-03-28T14:13:52Z</time></trkpt><trkpt lat="39.22946261292192" lon="16.93818281028983"><ele>92.0</ele><time>2026-03-28T14:13:53Z</time></trkpt><trkpt lat="39.22933609046487" lon="16.938273405182606"><ele>92.0</ele><time>2026-03-28T14:13:54Z</time></trkpt><trkpt lat="39.22921413020273" lon="16.938379313682194"><ele>92.0</ele><time>2026-03-28T14:13:55Z</time></trkpt><trkpt lat="39.22909404160144" lon="16.938461269393255"><ele>90.39999999999999</ele><time>2026-03-28T14:13:56Z</time></trkpt><trkpt lat="39.228999154299736" lon="16.938540076717516"><ele>88.8</ele><time>2026-03-28T14:13:57Z</time></trkpt><trkpt lat="39.22892340586978" lon="16.938628677876626"><ele>87.2</ele><time>2026-03-28T14:13:58Z</time></trkpt><trkpt lat="39.22887277956299" lon="16.93874502064477"><ele>85.6</ele><time>2026-03-28T14:13:59Z</time></trkpt><trkpt lat="39.22884937428908" lon="16.938895739329283"><ele>84.0</ele><time>2026-03-28T14:14:00Z</time></trkpt><trkpt lat="39.22882805156334" lon="16.9390713640044"><ele>84.0</ele><time>2026-03-28T14:14:01Z</time></trkpt><trkpt lat="39.22880464538705" lon="16.93926285610912"><ele>84.0</ele><time>2026-03-28T14:14:02Z</time></trkpt><trkpt lat="39.22878476642222" lon="16.939449162659464"><ele>84.0</ele><time>2026-03-28T14:14:03Z</time></trkpt><trkpt lat="39.228777938703104" lon="16.939631322879872"><ele>84.0</ele><time>2026-03-28T14:14:04Z</time></trkpt><trkpt lat="39.22875964656744" lon="16.939804389061724"><ele>84.0</ele><time>2026-03-28T14:14:05Z</time></trkpt><trkpt lat="39.22874279379516" lon="16.93996978040947"><ele>84.0</ele><time>2026-03-28T14:14:06Z</time></trkpt><trkpt lat="39.22873628166758" lon="16.940127731939075"><ele>84.0</ele><time>2026-03-28T14:14:07Z</time></trkpt><trkpt lat="39.22872673079139" lon="16.94028079308271"><ele>84.0</ele><time>2026-03-28T14:14:08Z</time></trkpt><trkpt lat="39.22871592485927" lon="16.940429222897226"><ele>83.6</ele><time>2026-03-28T14:14:09Z</time></trkpt><trkpt lat="39.22871183210569" lon="16.94057421449454"><ele>83.2</ele><time>2026-03-28T14:14:10Z</time></trkpt><trkpt lat="39.228694673082465" lon="16.94071250983068"><ele>82.8</ele><time>2026-03-28T14:14:11Z</time></trkpt><trkpt lat="39.228694103764255" lon="16.94084173578117"><ele>82.39999999999999</ele><time>2026-03-28T14:14:12Z</time></trkpt><trkpt lat="39.22870659335592" lon="16.94096607329957"><ele>82.0</ele><time>2026-03-28T14:14:13Z</time></trkpt><trkpt lat="39.228699698861135" lon="16.94107792078854"><ele>82.19999999999999</ele><time>2026-03-28T14:14:14Z</time></trkpt><trkpt lat="39.228694547542034" lon="16.94117376012009"><ele>82.4</ele><time>2026-03-28T14:14:15Z</time></trkpt><trkpt lat="39.22870930093342" lon="16.94131489861027"><ele>82.6</ele><time>2026-03-28T14:14:17Z</time></trkpt><trkpt lat="39.22882156299711" lon="16.94139400815888"><ele>82.80000000000001</ele><time>2026-03-28T14:14:19Z</time></trkpt><trkpt lat="39.22890492127095" lon="16.94145730784459"><ele>83.0</ele><time>2026-03-28T14:14:20Z</time></trkpt><trkpt lat="39.22899641657649" lon="16.94151777602839"><ele>83.0</ele><time>2026-03-28T14:14:21Z</time></trkpt><trkpt lat="39.22908966442555" lon="16.94156241568457"><ele>83.0</ele><time>2026-03-28T14:14:22Z</time></trkpt><trkpt lat="39.22917707944906" lon="16.9416103650143"><ele>83.0</ele><time>2026-03-28T14:14:23Z</time></trkpt><trkpt lat="39.229257639768306" lon="16.941652300967384"><ele>83.0</ele><time>2026-03-28T14:14:24Z</time></trkpt><trkpt lat="39.229328392564156" lon="16.941703705602176"><ele>83.0</ele><time>2026-03-28T14:14:25Z</time></trkpt><trkpt lat="39.22939330148399" lon="16.941756069140514"><ele>83.0</ele><time>2026-03-28T14:14:26Z</time></trkpt><trkpt lat="39.22944699254083" lon="16.941811936994615"><ele>83.66666666666667</ele><time>2026-03-28T14:14:27Z</time></trkpt><trkpt lat="39.22949802363734" lon="16.941905441862843"><ele>84.33333333333334</ele><time>2026-03-28T14:14:29Z</time></trkpt><trkpt lat="39.22955611579596" lon="16.942005523596066"><ele>85.0</ele><time>2026-03-28T14:14:32Z</time></trkpt><trkpt lat="39.22960281922581" lon="16.942084190723588"><ele>85.66666666666667</ele><time>2026-03-28T14:14:34Z</time></trkpt><trkpt lat="39.229647086450896" lon="16.94215995313156"><ele>86.33333333333333</ele><time>2026-03-28T14:14:37Z</time></trkpt><trkpt lat="39.229694069159784" lon="16.94224673321596"><ele>87.0</ele><time>2026-03-28T14:14:43Z</time></trkpt><trkpt lat="39.22974405375857" lon="16.94234493644615"><ele>87.0</ele><time>2026-03-28T14:14:46Z</time></trkpt><trkpt lat="39.22978852519554" lon="16.942439139624884"><ele>87.0</ele><time>2026-03-28T14:14:48Z</time></trkpt><trkpt lat="39.22983418656822" lon="16.942545496834633"><ele>87.0</ele><time>2026-03-28T14:14:50Z</time></trkpt><trkpt lat="39.22988816400384" lon="16.942670387634784"><ele>87.0</ele><time>2026-03-28T14:14:52Z</time></trkpt><trkpt lat="39.22993535569449" lon="16.942729397698624"><ele>87.0</ele><time>2026-03-28T14:14:53Z</time></trkpt><trkpt lat="39.22999024795381" lon="16.942790780185202"><ele>87.0</ele><time>2026-03-28T14:14:54Z</time></trkpt><trkpt lat="39.23005451007259" lon="16.942837981756078"><ele>87.83333333333333</ele><time>2026-03-28T14:14:55Z</time></trkpt><trkpt lat="39.2301041732397" lon="16.94289909215096"><ele>88.66666666666667</ele><time>2026-03-28T14:14:56Z</time></trkpt><trkpt lat="39.23018408746903" lon="16.942993303124485"><ele>89.5</ele><time>2026-03-28T14:14:58Z</time></trkpt><trkpt lat="39.23026933271628" lon="16.94305280161451"><ele>90.33333333333334</ele><time>2026-03-28T14:15:00Z</time></trkpt><trkpt lat="39.23034415694129" lon="16.94309514143805"><ele>91.16666666666667</ele><time>2026-03-28T14:15:02Z</time></trkpt><trkpt lat="39.230417432367354" lon="16.943139866924884"><ele>92.0</ele><time>2026-03-28T14:15:05Z</time></trkpt><trkpt lat="39.230487767514404" lon="16.943174975018838"><ele>92.0</ele><time>2026-03-28T14:15:07Z</time></trkpt><trkpt lat="39.23054120144978" lon="16.94328918648945"><ele>92.0</ele><time>2026-03-28T14:15:09Z</time></trkpt><trkpt lat="39.23057131351168" lon="16.94336406425384"><ele>92.0</ele><time>2026-03-28T14:15:10Z</time></trkpt><trkpt lat="39.2305971082461" lon="16.943442533957224"><ele>92.0</ele><time>2026-03-28T14:15:11Z</time></trkpt><trkpt lat="39.23062318160686" lon="16.94352755722518"><ele>92.0</ele><time>2026-03-28T14:15:12Z</time></trkpt><trkpt lat="39.23065312491918" lon="16.94362110643664"><ele>92.0</ele><time>2026-03-28T14:15:13Z</time></trkpt><trkpt lat="39.230684704925736" lon="16.943716324193844"><ele>93.0</ele><time>2026-03-28T14:15:14Z</time></trkpt><trkpt lat="39.23072891667256" lon="16.94379809549154"><ele>94.0</ele><time>2026-03-28T14:15:15Z</time></trkpt><trkpt lat="39.230772813455836" lon="16.943868626735984"><ele>95.0</ele><time>2026-03-28T14:15:16Z</time></trkpt><trkpt lat="39.23085425803539" lon="16.943965225685723"><ele>96.0</ele><time>2026-03-28T14:15:18Z</time></trkpt><trkpt lat="39.23095142249968" lon="16.944040550537444"><ele>96.99999999999999</ele><time>2026-03-28T14:15:20Z</time></trkpt><trkpt lat="39.23102139292796" lon="16.944080249505074"><ele>98.0</ele><time>2026-03-28T14:15:21Z</time></trkpt><trkpt lat="39.23111239368706" lon="16.94413579004797"><ele>100.0</ele><time>2026-03-28T14:15:22Z</time></trkpt><trkpt lat="39.231193830956265" lon="16.94422633846193"><ele>102.0</ele><time>2026-03-28T14:15:23Z</time></trkpt><trkpt lat="39.23125631913734" lon="16.944331554402194"><ele>104.00000000000001</ele><time>2026-03-28T14:15:24Z</time></trkpt><trkpt lat="39.23130424885371" lon="16.944441024363577"><ele>106.0</ele><time>2026-03-28T14:15:25Z</time></trkpt><trkpt lat="39.23134252968606" lon="16.94454437173915"><ele>108.0</ele><time>2026-03-28T14:15:26Z</time></trkpt><trkpt lat="39.23135411075038" lon="16.944646577320935"><ele>108.0</ele><time>2026-03-28T14:15:27Z</time></trkpt><trkpt lat="39.231375319325934" lon="16.94472965583272"><ele>108.0</ele><time>2026-03-28T14:15:28Z</time></trkpt><trkpt lat="39.231400284887734" lon="16.94483697129584"><ele>108.0</ele><time>2026-03-28T14:15:30Z</time></trkpt><trkpt lat="39.231444415724305" lon="16.944920445404815"><ele>108.0</ele><time>2026-03-28T14:15:32Z</time></trkpt><trkpt lat="39.2315079613064" lon="16.9450238286436"><ele>108.0</ele><time>2026-03-28T14:15:34Z</time></trkpt><trkpt lat="39.23157052341457" lon="16.945093907899256"><ele>108.0</ele><time>2026-03-28T14:15:36Z</time></trkpt><trkpt lat="39.231596454416966" lon="16.945170026709768"><ele>108.0</ele><time>2026-03-28T14:15:38Z</time></trkpt><trkpt lat="39.23165613768248" lon="16.94522247815771"><ele>108.00000000000001</ele><time>2026-03-28T14:15:40Z</time></trkpt><trkpt lat="39.23174938974439" lon="16.945321153116563"><ele>108.00000000000001</ele><time>2026-03-28T14:15:42Z</time></trkpt><trkpt lat="39.231828632909156" lon="16.945432440226323"><ele>108.0</ele><time>2026-03-28T14:15:44Z</time></trkpt><trkpt lat="39.23193762974828" lon="16.945479976216404"><ele>108.0</ele><time>2026-03-28T14:15:46Z</time></trkpt><trkpt lat="39.23205215524173" lon="16.9455237438239"><ele>108.0</ele><time>2026-03-28T14:15:48Z</time></trkpt><trkpt lat="39.23215920475816" lon="16.945563539911547"><ele>108.00000000000001</ele><time>2026-03-28T14:15:50Z</time></trkpt><trkpt lat="39.232233950819115" lon="16.945594323901773"><ele>108.00000000000001</ele><time>2026-03-28T14:15:52Z</time></trkpt><trkpt lat="39.23229522926406" lon="16.94562170774792"><ele>108.0</ele><time>2026-03-28T14:15:54Z</time></trkpt><trkpt lat="39.232373059614595" lon="16.94566970906113"><ele>108.0</ele><time>2026-03-28T14:15:56Z</time></trkpt><trkpt lat="39.232480856827564" lon="16.945711662045774"><ele>107.5</ele><time>2026-03-28T14:15:58Z</time></trkpt><trkpt lat="39.23258366177573" lon="16.94574097073014"><ele>107.0</ele><time>2026-03-28T14:16:00Z</time></trkpt><trkpt lat="39.232655431904504" lon="16.94573624316155"><ele>106.5</ele><time>2026-03-28T14:16:02Z</time></trkpt><trkpt lat="39.23273898510841" lon="16.945743436126183"><ele>106.0</ele><time>2026-03-28T14:16:05Z</time></trkpt><trkpt lat="39.23281186699259" lon="16.94576818975492"><ele>105.5</ele><time>2026-03-28T14:16:08Z</time></trkpt><trkpt lat="39.23288881819878" lon="16.945772922967027"><ele>105.0</ele><time>2026-03-28T14:16:16Z</time></trkpt><trkpt lat="39.23298011165972" lon="16.945819579393113"><ele>105.0</ele><time>2026-03-28T14:16:19Z</time></trkpt><trkpt lat="39.23306308826133" lon="16.945844924269238"><ele>105.0</ele><time>2026-03-28T14:16:21Z</time></trkpt><trkpt lat="39.23313974410631" lon="16.945850932636997"><ele>105.0</ele><time>2026-03-28T14:16:23Z</time></trkpt><trkpt lat="39.233208895178365" lon="16.94589488261808"><ele>105.0</ele><time>2026-03-28T14:16:26Z</time></trkpt><trkpt lat="39.23328820126499" lon="16.945918953252047"><ele>105.0</ele><time>2026-03-28T14:16:29Z</time></trkpt><trkpt lat="39.23337959580966" lon="16.94594405529671"><ele>105.0</ele><time>2026-03-28T14:16:32Z</time></trkpt><trkpt lat="39.23345740752152" lon="16.945964158974444"><ele>108.16666666666667</ele><time>2026-03-28T14:16:34Z</time></trkpt><trkpt lat="39.2335314947456" lon="16.946002055497537"><ele>111.33333333333334</ele><time>2026-03-28T14:16:36Z</time></trkpt><trkpt lat="39.23360747401361" lon="16.946028392825728"><ele>114.5</ele><time>2026-03-28T14:16:38Z</time></trkpt><trkpt lat="39.23367831513503" lon="16.946064404200378"><ele>117.66666666666667</ele><time>2026-03-28T14:16:40Z</time></trkpt><trkpt lat="39.23375070547471" lon="16.946082768619704"><ele>120.83333333333334</ele><time>2026-03-28T14:16:42Z</time></trkpt><trkpt lat="39.23382310843965" lon="16.946125425300256"><ele>124.0</ele><time>2026-03-28T14:16:44Z</time></trkpt><trkpt lat="39.23389652272694" lon="16.94617515340098"><ele>123.16666666666667</ele><time>2026-03-28T14:16:46Z</time></trkpt><trkpt lat="39.23398177694946" lon="16.946216775586688"><ele>122.33333333333334</ele><time>2026-03-28T14:16:48Z</time></trkpt><trkpt lat="39.2340681128295" lon="16.946251485412862"><ele>121.5</ele><time>2026-03-28T14:16:50Z</time></trkpt><trkpt lat="39.2341493936622" lon="16.9462677266981"><ele>120.66666666666666</ele><time>2026-03-28T14:16:52Z</time></trkpt><trkpt lat="39.23421685875241" lon="16.946271266406693"><ele>119.83333333333333</ele><time>2026-03-28T14:16:54Z</time></trkpt><trkpt lat="39.23427819182574" lon="16.946252208143964"><ele>119.0</ele><time>2026-03-28T14:16:56Z</time></trkpt><trkpt lat="39.2343904611763" lon="16.946210616413108"><ele>118.99999999999999</ele><time>2026-03-28T14:16:58Z</time></trkpt><trkpt lat="39.234465162035676" lon="16.94616283310942"><ele>119.0</ele><time>2026-03-28T14:16:59Z</time></trkpt><trkpt lat="39.23454190707741" lon="16.946114159270056"><ele>119.0</ele><time>2026-03-28T14:17:00Z</time></trkpt><trkpt lat="39.23461363427125" lon="16.946073437237235"><ele>119.0</ele><time>2026-03-28T14:17:01Z</time></trkpt><trkpt lat="39.23467343673459" lon="16.946033846222356"><ele>118.99999999999999</ele><time>2026-03-28T14:17:02Z</time></trkpt><trkpt lat="39.23477862378502" lon="16.94597991298618"><ele>119.0</ele><time>2026-03-28T14:17:04Z</time></trkpt><trkpt lat="39.23488235290559" lon="16.945953134206764"><ele>119.6</ele><time>2026-03-28T14:17:06Z</time></trkpt><trkpt lat="39.23495835857151" lon="16.945901303450132"><ele>120.2</ele><time>2026-03-28T14:17:08Z</time></trkpt><trkpt lat="39.23502046274074" lon="16.945680564992518"><ele>120.79999999999998</ele><time>2026-03-28T14:17:10Z</time></trkpt><trkpt lat="39.235094594393615" lon="16.94565823097203"><ele>121.39999999999999</ele><time>2026-03-28T14:17:11Z</time></trkpt><trkpt lat="39.235169696676415" lon="16.945646137908945"><ele>122.0</ele><time>2026-03-28T14:17:12Z</time></trkpt><trkpt lat="39.23524555773494" lon="16.945641880861235"><ele>121.99999999999999</ele><time>2026-03-28T14:17:13Z</time></trkpt><trkpt lat="39.23531427588009" lon="16.945643196257382"><ele>122.0</ele><time>2026-03-28T14:17:14Z</time></trkpt><trkpt lat="39.235390952774445" lon="16.94564735202015"><ele>122.0</ele><time>2026-03-28T14:17:15Z</time></trkpt><trkpt lat="39.23546653115608" lon="16.945654346738056"><ele>122.0</ele><time>2026-03-28T14:17:16Z</time></trkpt><trkpt lat="39.2355403741506" lon="16.945663642100516"><ele>121.99999999999999</ele><time>2026-03-28T14:17:17Z</time></trkpt><trkpt lat="39.23567602377714" lon="16.94568076413908"><ele>122.0</ele><time>2026-03-28T14:17:18Z</time></trkpt><trkpt lat="39.235742775008205" lon="16.945710872150986"><ele>123.49999999999999</ele><time>2026-03-28T14:17:19Z</time></trkpt><trkpt lat="39.23580414410079" lon="16.945732425985565"><ele>125.0</ele><time>2026-03-28T14:17:20Z</time></trkpt><trkpt lat="39.23589645254283" lon="16.945760920105958"><ele>126.5</ele><time>2026-03-28T14:17:22Z</time></trkpt><trkpt lat="39.23597463452858" lon="16.94576548452784"><ele>128.0</ele><time>2026-03-28T14:17:24Z</time></trkpt><trkpt lat="39.23603140161265" lon="16.945801512517185"><ele>129.5</ele><time>2026-03-28T14:17:26Z</time></trkpt><trkpt lat="39.23610074728606" lon="16.945832294475345"><ele>131.0</ele><time>2026-03-28T14:17:29Z</time></trkpt><trkpt lat="39.23607369959007" lon="16.946095107774372"><ele>132.2</ele><time>2026-03-28T14:17:30Z</time></trkpt><trkpt lat="39.23612500052339" lon="16.946237860859423"><ele>133.39999999999998</ele><time>2026-03-28T14:17:32Z</time></trkpt><trkpt lat="39.23618226935481" lon="16.94637035455444"><ele>134.6</ele><time>2026-03-28T14:17:34Z</time></trkpt><trkpt lat="39.23623240330513" lon="16.946491390405317"><ele>135.79999999999998</ele><time>2026-03-28T14:17:36Z</time></trkpt><trkpt lat="39.23628567706198" lon="16.946601556659516"><ele>137.0</ele><time>2026-03-28T14:17:38Z</time></trkpt><trkpt lat="39.236364058115775" lon="16.94669786657224"><ele>137.2</ele><time>2026-03-28T14:17:40Z</time></trkpt><trkpt lat="39.2364613491503" lon="16.94676182475607"><ele>137.39999999999998</ele><time>2026-03-28T14:17:42Z</time></trkpt><trkpt lat="39.236563994219516" lon="16.94683190154377"><ele>137.60000000000002</ele><time>2026-03-28T14:17:44Z</time></trkpt><trkpt lat="39.23665727164013" lon="16.946915758983135"><ele>137.8</ele><time>2026-03-28T14:17:46Z</time></trkpt><trkpt lat="39.236751478631575" lon="16.946986367203838"><ele>138.0</ele><time>2026-03-28T14:17:48Z</time></trkpt><trkpt lat="39.236833831798876" lon="16.947087555036713"><ele>141.4</ele><time>2026-03-28T14:17:50Z</time></trkpt><trkpt lat="39.23691526689772" lon="16.947178188051296"><ele>144.8</ele><time>2026-03-28T14:17:52Z</time></trkpt><trkpt lat="39.23700673885464" lon="16.947277305378826"><ele>148.2</ele><time>2026-03-28T14:17:54Z</time></trkpt><trkpt lat="39.23704992221985" lon="16.94733857558395"><ele>151.6</ele><time>2026-03-28T14:17:55Z</time></trkpt><trkpt lat="39.23708570837233" lon="16.947407035570464"><ele>155.0</ele><time>2026-03-28T14:17:56Z</time></trkpt><trkpt lat="39.23714064433085" lon="16.947521444302218"><ele>156.33333333333331</ele><time>2026-03-28T14:17:58Z</time></trkpt><trkpt lat="39.23719048635298" lon="16.94757428196391"><ele>157.66666666666666</ele><time>2026-03-28T14:18:02Z</time></trkpt><trkpt lat="39.23715687717298" lon="16.94764389269091"><ele>159.0</ele><time>2026-03-28T14:18:34.001Z</time></trkpt><trkpt lat="39.23713116866018" lon="16.947720141668228"><ele>160.33333333333334</ele><time>2026-03-28T14:19:01.001Z</time></trkpt><trkpt lat="39.23704035607876" lon="16.94778558283142"><ele>161.66666666666669</ele><time>2026-03-28T14:19:04.001Z</time></trkpt><trkpt lat="39.23701171033575" lon="16.947863952748985"><ele>163.0</ele><time>2026-03-28T14:19:06.001Z</time></trkpt><trkpt lat="39.236982572922265" lon="16.947972140859203"><ele>163.0</ele><time>2026-03-28T14:19:08.001Z</time></trkpt><trkpt lat="39.23695590291859" lon="16.94809531163273"><ele>163.0</ele><time>2026-03-28T14:19:10Z</time></trkpt><trkpt lat="39.23694025798913" lon="16.94819438507345"><ele>163.0</ele><time>2026-03-28T14:19:12Z</time></trkpt><trkpt lat="39.23693228969855" lon="16.948280923750552"><ele>163.0</ele><time>2026-03-28T14:19:14Z</time></trkpt><trkpt lat="39.23694004976444" lon="16.9483725212614"><ele>163.0</ele><time>2026-03-28T14:19:16Z</time></trkpt><trkpt lat="39.23696745759148" lon="16.94845610669245"><ele>163.0</ele><time>2026-03-28T14:19:20Z</time></trkpt><trkpt lat="39.237001256365694" lon="16.948532471037165"><ele>163.2857142857143</ele><time>2026-03-28T14:19:26Z</time></trkpt><trkpt lat="39.23704859881941" lon="16.948612714714717"><ele>163.57142857142856</ele><time>2026-03-28T14:19:58.999Z</time></trkpt><trkpt lat="39.23709237519657" lon="16.94868525757416"><ele>163.85714285714286</ele><time>2026-03-28T14:20:00.999Z</time></trkpt><trkpt lat="39.23713337390511" lon="16.948777466056697"><ele>164.14285714285717</ele><time>2026-03-28T14:20:03.999Z</time></trkpt><trkpt lat="39.23716690337484" lon="16.948859273935792"><ele>164.42857142857144</ele><time>2026-03-28T14:20:07.999Z</time></trkpt><trkpt lat="39.23718272065771" lon="16.948945940639227"><ele>164.71428571428572</ele><time>2026-03-28T14:20:12.999Z</time></trkpt><trkpt lat="39.23721551656056" lon="16.949034013399086"><ele>165.0</ele><time>2026-03-28T14:20:15.999Z</time></trkpt><trkpt lat="39.23724635290554" lon="16.949111077872004"><ele>165.0</ele><time>2026-03-28T14:20:17.999Z</time></trkpt><trkpt lat="39.237286194710904" lon="16.94919352679643"><ele>165.0</ele><time>2026-03-28T14:20:19.999Z</time></trkpt><trkpt lat="39.23734312413226" lon="16.949280998877576"><ele>165.0</ele><time>2026-03-28T14:20:21.999Z</time></trkpt><trkpt lat="39.237384966758555" lon="16.949399927607022"><ele>165.0</ele><time>2026-03-28T14:20:23.999Z</time></trkpt><trkpt lat="39.23742249476446" lon="16.94951143057726"><ele>165.0</ele><time>2026-03-28T14:20:25.999Z</time></trkpt><trkpt lat="39.237420301506184" lon="16.94962272859325"><ele>165.0</ele><time>2026-03-28T14:20:27.999Z</time></trkpt><trkpt lat="39.23742321950016" lon="16.949740460911734"><ele>162.0</ele><time>2026-03-28T14:20:29.999Z</time></trkpt><trkpt lat="39.237434194078126" lon="16.949860512698066"><ele>159.0</ele><time>2026-03-28T14:20:31.999Z</time></trkpt><trkpt lat="39.237477204334546" lon="16.94997498554243"><ele>156.0</ele><time>2026-03-28T14:20:33.999Z</time></trkpt><trkpt lat="39.237538573545834" lon="16.950051819419077"><ele>153.0</ele><time>2026-03-28T14:20:35.999Z</time></trkpt><trkpt lat="39.23761363021715" lon="16.95009400806643"><ele>150.0</ele><time>2026-03-28T14:20:37.999Z</time></trkpt><trkpt lat="39.23770102515463" lon="16.950130412662357"><ele>149.0</ele><time>2026-03-28T14:20:39.999Z</time></trkpt><trkpt lat="39.23775203724698" lon="16.950186116866984"><ele>148.0</ele><time>2026-03-28T14:20:40.999Z</time></trkpt><trkpt lat="39.23767618640583" lon="16.950332546060483"><ele>147.0</ele><time>2026-03-28T14:20:42.999Z</time></trkpt><trkpt lat="39.237698679920456" lon="16.950427823109976"><ele>146.0</ele><time>2026-03-28T14:20:45.999Z</time></trkpt><trkpt lat="39.237728569989166" lon="16.950511992908613"><ele>145.0</ele><time>2026-03-28T14:20:48.999Z</time></trkpt><trkpt lat="39.23774428164751" lon="16.950597556769473"><ele>144.0</ele><time>2026-03-28T14:20:50.999Z</time></trkpt><trkpt lat="39.237755351508966" lon="16.9506993619464"><ele>144.0</ele><time>2026-03-28T14:20:52.999Z</time></trkpt><trkpt lat="39.23775971888574" lon="16.950800119680963"><ele>144.0</ele><time>2026-03-28T14:20:54.999Z</time></trkpt><trkpt lat="39.237768301727016" lon="16.950901322548173"><ele>144.0</ele><time>2026-03-28T14:20:56.999Z</time></trkpt><trkpt lat="39.2377754918266" lon="16.951002546273386"><ele>144.0</ele><time>2026-03-28T14:20:58.999Z</time></trkpt><trkpt lat="39.237802236360814" lon="16.951087342582028"><ele>144.0</ele><time>2026-03-28T14:21:00.999Z</time></trkpt><trkpt lat="39.23783434643894" lon="16.951173118392514"><ele>144.0</ele><time>2026-03-28T14:21:03.999Z</time></trkpt><trkpt lat="39.23785074209929" lon="16.951260082217832"><ele>144.6</ele><time>2026-03-28T14:21:06.999Z</time></trkpt><trkpt lat="39.237900035013666" lon="16.951333442622627"><ele>145.2</ele><time>2026-03-28T14:21:12.999Z</time></trkpt><trkpt lat="39.23795941626682" lon="16.951380271637316"><ele>145.79999999999998</ele><time>2026-03-28T14:21:15.999Z</time></trkpt><trkpt lat="39.23800407734796" lon="16.951485002994673"><ele>146.4</ele><time>2026-03-28T14:21:20.999Z</time></trkpt><trkpt lat="39.23806721148078" lon="16.95158874033628"><ele>147.0</ele><time>2026-03-28T14:22:06.999Z</time></trkpt><trkpt lat="39.23814402240378" lon="16.951369984890974"><ele>147.0</ele><time>2026-03-28T14:22:12.999Z</time></trkpt><trkpt lat="39.23815503734816" lon="16.951648497671354"><ele>147.0</ele><time>2026-03-28T14:22:14.999Z</time></trkpt><trkpt lat="39.23820752286426" lon="16.951706503334858"><ele>147.0</ele><time>2026-03-28T14:22:21.999Z</time></trkpt><trkpt lat="39.23826749791588" lon="16.951778024189878"><ele>147.0</ele><time>2026-03-28T14:22:24.999Z</time></trkpt><trkpt lat="39.23831330878354" lon="16.951867812514816"><ele>147.0</ele><time>2026-03-28T14:22:26.999Z</time></trkpt><trkpt lat="39.238256642952834" lon="16.95211401672131"><ele>147.0</ele><time>2026-03-28T14:22:28.999Z</time></trkpt><trkpt lat="39.23829584987789" lon="16.952208932133573"><ele>147.0</ele><time>2026-03-28T14:22:30.999Z</time></trkpt><trkpt lat="39.23832329801668" lon="16.95228891020524"><ele>147.0</ele><time>2026-03-28T14:22:32.999Z</time></trkpt><trkpt lat="39.2383555662235" lon="16.952364534823335"><ele>147.0</ele><time>2026-03-28T14:22:34.999Z</time></trkpt><trkpt lat="39.238391482593705" lon="16.952441376941888"><ele>147.0</ele><time>2026-03-28T14:22:36.999Z</time></trkpt><trkpt lat="39.23844058882855" lon="16.952506754348757"><ele>147.0</ele><time>2026-03-28T14:22:39.999Z</time></trkpt><trkpt lat="39.238467252483495" lon="16.952620067853672"><ele>147.0</ele><time>2026-03-28T14:23:05.999Z</time></trkpt><trkpt lat="39.23850553202267" lon="16.952691110286732"><ele>147.0</ele><time>2026-03-28T14:23:07.999Z</time></trkpt><trkpt lat="39.2385354501096" lon="16.95276494466599"><ele>147.0</ele><time>2026-03-28T14:23:09.999Z</time></trkpt><trkpt lat="39.23856423502028" lon="16.9528627234681"><ele>147.0</ele><time>2026-03-28T14:23:12.999Z</time></trkpt><trkpt lat="39.23859132487305" lon="16.952937352287364"><ele>147.0</ele><time>2026-03-28T14:23:14.999Z</time></trkpt><trkpt lat="39.23862247469222" lon="16.95301868403149"><ele>147.16666666666666</ele><time>2026-03-28T14:23:16.999Z</time></trkpt><trkpt lat="39.238669957291826" lon="16.95309853143516"><ele>147.33333333333334</ele><time>2026-03-28T14:23:18.999Z</time></trkpt><trkpt lat="39.23870467496211" lon="16.95319554739895"><ele>147.5</ele><time>2026-03-28T14:23:20.999Z</time></trkpt><trkpt lat="39.23873862416243" lon="16.953292648069688"><ele>147.66666666666669</ele><time>2026-03-28T14:23:22.999Z</time></trkpt><trkpt lat="39.23876884998207" lon="16.95337531325225"><ele>147.83333333333334</ele><time>2026-03-28T14:23:24.999Z</time></trkpt><trkpt lat="39.23879776808001" lon="16.953466010380808"><ele>148.0</ele><time>2026-03-28T14:23:26.999Z</time></trkpt><trkpt lat="39.238800081469996" lon="16.953573910139408"><ele>148.0</ele><time>2026-03-28T14:23:28.999Z</time></trkpt><trkpt lat="39.23880343317795" lon="16.95369937190068"><ele>148.0</ele><time>2026-03-28T14:23:30.999Z</time></trkpt><trkpt lat="39.23881086126178" lon="16.95382144796271"><ele>148.0</ele><time>2026-03-28T14:23:32.999Z</time></trkpt><trkpt lat="39.23881381249875" lon="16.953937370117362"><ele>148.0</ele><time>2026-03-28T14:23:34.999Z</time></trkpt><trkpt lat="39.23886923222565" lon="16.954012835118444"><ele>148.0</ele><time>2026-03-28T14:23:36.999Z</time></trkpt><trkpt lat="39.238933990760174" lon="16.95406981959208"><ele>148.0</ele><time>2026-03-28T14:23:38.999Z</time></trkpt><trkpt lat="39.23899175822423" lon="16.95414127926322"><ele>151.60000000000002</ele><time>2026-03-28T14:23:40.999Z</time></trkpt><trkpt lat="39.23905991478338" lon="16.954213770405158"><ele>155.20000000000002</ele><time>2026-03-28T14:23:42.999Z</time></trkpt><trkpt lat="39.23912035186933" lon="16.954304587578964"><ele>158.8</ele><time>2026-03-28T14:23:44.999Z</time></trkpt><trkpt lat="39.23916795494181" lon="16.954405417414915"><ele>162.4</ele><time>2026-03-28T14:23:46.999Z</time></trkpt><trkpt lat="39.239213551709305" lon="16.954512851708227"><ele>166.0</ele><time>2026-03-28T14:23:48.999Z</time></trkpt><trkpt lat="39.23927067444402" lon="16.954609539438547"><ele>166.0</ele><time>2026-03-28T14:23:50.999Z</time></trkpt><trkpt lat="39.239331131801" lon="16.95469296473732"><ele>166.0</ele><time>2026-03-28T14:23:52.999Z</time></trkpt><trkpt lat="39.239385294276985" lon="16.954788884771144"><ele>166.0</ele><time>2026-03-28T14:23:54.999Z</time></trkpt><trkpt lat="39.23944051632944" lon="16.954867557868024"><ele>166.0</ele><time>2026-03-28T14:23:56.999Z</time></trkpt><trkpt lat="39.239492831869065" lon="16.954945625885674"><ele>166.0</ele><time>2026-03-28T14:23:58.999Z</time></trkpt><trkpt lat="39.239575251972326" lon="16.954998947361698"><ele>166.0</ele><time>2026-03-28T14:24:00.999Z</time></trkpt><trkpt lat="39.23966005749132" lon="16.955053500667585"><ele>166.60000000000002</ele><time>2026-03-28T14:24:02.999Z</time></trkpt><trkpt lat="39.23973759474148" lon="16.955104472647783"><ele>167.2</ele><time>2026-03-28T14:24:04.999Z</time></trkpt><trkpt lat="39.239829772950564" lon="16.955133933904243"><ele>167.8</ele><time>2026-03-28T14:24:06.999Z</time></trkpt><trkpt lat="39.23993341769677" lon="16.955173793587388"><ele>168.39999999999998</ele><time>2026-03-28T14:24:08.999Z</time></trkpt><trkpt lat="39.24003485799029" lon="16.95522962480016"><ele>169.0</ele><time>2026-03-28T14:24:10.999Z</time></trkpt><trkpt lat="39.24013560877168" lon="16.955277136215695"><ele>169.0</ele><time>2026-03-28T14:24:12.999Z</time></trkpt><trkpt lat="39.24022604852028" lon="16.955296811366683"><ele>169.0</ele><time>2026-03-28T14:24:14.999Z</time></trkpt><trkpt lat="39.2403070761187" lon="16.955319745516814"><ele>169.0</ele><time>2026-03-28T14:24:17.999Z</time></trkpt><trkpt lat="39.24039540647259" lon="16.955280725074715"><ele>169.0</ele><time>2026-03-28T14:24:20.999Z</time></trkpt><trkpt lat="39.240479228955316" lon="16.95525909243124"><ele>169.0</ele><time>2026-03-28T14:24:22.999Z</time></trkpt><trkpt lat="39.24056638876873" lon="16.955287635215445"><ele>169.0</ele><time>2026-03-28T14:24:24.999Z</time></trkpt><trkpt lat="39.240657467077575" lon="16.955270138543614"><ele>169.0</ele><time>2026-03-28T14:24:26.999Z</time></trkpt><trkpt lat="39.240761467753345" lon="16.9552418806713"><ele>169.0</ele><time>2026-03-28T14:24:28.999Z</time></trkpt><trkpt lat="39.24086893069246" lon="16.955217319225163"><ele>169.0</ele><time>2026-03-28T14:24:30.999Z</time></trkpt><trkpt lat="39.240976135347225" lon="16.955230160222193"><ele>169.0</ele><time>2026-03-28T14:24:32.999Z</time></trkpt><trkpt lat="39.241065125553156" lon="16.95533162302355"><ele>169.0</ele><time>2026-03-28T14:24:34.999Z</time></trkpt><trkpt lat="39.24115488284251" lon="16.955399294085126"><ele>169.0</ele><time>2026-03-28T14:24:36.999Z</time></trkpt><trkpt lat="39.24124229842062" lon="16.95542963324221"><ele>169.0</ele><time>2026-03-28T14:24:38.999Z</time></trkpt><trkpt lat="39.241304466298594" lon="16.955442927081947"><ele>169.0</ele><time>2026-03-28T14:24:40.999Z</time></trkpt><trkpt lat="39.24137493664226" lon="16.955523751624032"><ele>169.0</ele><time>2026-03-28T14:24:43.999Z</time></trkpt><trkpt lat="39.241428916837" lon="16.9555763794359"><ele>169.0</ele><time>2026-03-28T14:24:45.999Z</time></trkpt><trkpt lat="39.24150140606036" lon="16.955623338928763"><ele>169.0</ele><time>2026-03-28T14:24:47.999Z</time></trkpt><trkpt lat="39.241569731361835" lon="16.95565997090489"><ele>168.2</ele><time>2026-03-28T14:24:49.999Z</time></trkpt><trkpt lat="39.2416489085622" lon="16.95568114732519"><ele>167.39999999999998</ele><time>2026-03-28T14:24:51.999Z</time></trkpt><trkpt lat="39.24171935771368" lon="16.955720470494697"><ele>166.6</ele><time>2026-03-28T14:24:53.999Z</time></trkpt><trkpt lat="39.24179433432437" lon="16.95579693004504"><ele>165.8</ele><time>2026-03-28T14:24:55.999Z</time></trkpt><trkpt lat="39.24188423734107" lon="16.955848933796606"><ele>165.0</ele><time>2026-03-28T14:24:57.999Z</time></trkpt><trkpt lat="39.24197788033566" lon="16.955899353892374"><ele>165.0</ele><time>2026-03-28T14:24:59.999Z</time></trkpt><trkpt lat="39.242073468207025" lon="16.95589896833025"><ele>165.0</ele><time>2026-03-28T14:25:01.999Z</time></trkpt><trkpt lat="39.24216170318991" lon="16.955966641272962"><ele>165.0</ele><time>2026-03-28T14:25:03.999Z</time></trkpt><trkpt lat="39.24221539871193" lon="16.956032003179587"><ele>165.0</ele><time>2026-03-28T14:25:04.999Z</time></trkpt><trkpt lat="39.242256153443854" lon="16.95609591676385"><ele>165.0</ele><time>2026-03-28T14:25:05.999Z</time></trkpt><trkpt lat="39.2423033348117" lon="16.95621274760746"><ele>165.0</ele><time>2026-03-28T14:25:07.999Z</time></trkpt><trkpt lat="39.24233278268755" lon="16.956300673488894"><ele>166.0</ele><time>2026-03-28T14:25:09.999Z</time></trkpt><trkpt lat="39.242326367276476" lon="16.95641682607215"><ele>167.0</ele><time>2026-03-28T14:25:12.999Z</time></trkpt><trkpt lat="39.24230495337358" lon="16.956528069982546"><ele>168.0</ele><time>2026-03-28T14:25:14.999Z</time></trkpt><trkpt lat="39.242320372507294" lon="16.956644421524565"><ele>169.0</ele><time>2026-03-28T14:25:16.999Z</time></trkpt><trkpt lat="39.242388221609524" lon="16.956758755693347"><ele>170.0</ele><time>2026-03-28T14:25:19Z</time></trkpt><trkpt lat="39.242438522221775" lon="16.956865303034927"><ele>170.0</ele><time>2026-03-28T14:25:21Z</time></trkpt><trkpt lat="39.242482382197075" lon="16.956950787022503"><ele>170.0</ele><time>2026-03-28T14:25:23Z</time></trkpt><trkpt lat="39.24254801082689" lon="16.957042278137347"><ele>170.0</ele><time>2026-03-28T14:25:25Z</time></trkpt><trkpt lat="39.242614760786275" lon="16.957175113504377"><ele>170.0</ele><time>2026-03-28T14:25:27Z</time></trkpt><trkpt lat="39.24267697766945" lon="16.95731065139145"><ele>170.0</ele><time>2026-03-28T14:25:29Z</time></trkpt><trkpt lat="39.24271761429441" lon="16.957458180254633"><ele>168.2</ele><time>2026-03-28T14:25:31Z</time></trkpt><trkpt lat="39.24267917227851" lon="16.957598380790596"><ele>166.4</ele><time>2026-03-28T14:25:33Z</time></trkpt><trkpt lat="39.242651971566765" lon="16.957734723773644"><ele>164.60000000000002</ele><time>2026-03-28T14:25:35Z</time></trkpt><trkpt lat="39.24266098918738" lon="16.95787410379668"><ele>162.8</ele><time>2026-03-28T14:25:37Z</time></trkpt><trkpt lat="39.24267143139467" lon="16.95800752665211"><ele>161.0</ele><time>2026-03-28T14:25:39Z</time></trkpt><trkpt lat="39.24271978341701" lon="16.95810314241259"><ele>161.0</ele><time>2026-03-28T14:25:41Z</time></trkpt><trkpt lat="39.24272913287894" lon="16.95824049771174"><ele>161.0</ele><time>2026-03-28T14:25:43Z</time></trkpt><trkpt lat="39.24274991790383" lon="16.95838891480892"><ele>161.0</ele><time>2026-03-28T14:25:45Z</time></trkpt><trkpt lat="39.24278335542387" lon="16.95853034175191"><ele>161.0</ele><time>2026-03-28T14:25:47Z</time></trkpt><trkpt lat="39.24282607141547" lon="16.958678103758185"><ele>159.4</ele><time>2026-03-28T14:25:49Z</time></trkpt><trkpt lat="39.24284275731524" lon="16.95883030864442"><ele>157.8</ele><time>2026-03-28T14:25:51Z</time></trkpt><trkpt lat="39.242858020877456" lon="16.958973605667897"><ele>156.20000000000002</ele><time>2026-03-28T14:25:53Z</time></trkpt><trkpt lat="39.242878369519296" lon="16.959051180499078"><ele>154.60000000000002</ele><time>2026-03-28T14:25:54Z</time></trkpt><trkpt lat="39.24289902236869" lon="16.959130706536914"><ele>153.0</ele><time>2026-03-28T14:25:55Z</time></trkpt><trkpt lat="39.24295876797596" lon="16.959264869497133"><ele>152.5</ele><time>2026-03-28T14:25:57Z</time></trkpt><trkpt lat="39.24306677406236" lon="16.959342194180824"><ele>152.0</ele><time>2026-03-28T14:25:59Z</time></trkpt><trkpt lat="39.24312728907621" lon="16.959371326197555"><ele>151.5</ele><time>2026-03-28T14:26:00Z</time></trkpt><trkpt lat="39.24318139211406" lon="16.95941295313699"><ele>151.0</ele><time>2026-03-28T14:26:01Z</time></trkpt><trkpt lat="39.24323373873683" lon="16.959459841958527"><ele>150.5</ele><time>2026-03-28T14:26:02Z</time></trkpt><trkpt lat="39.24332751230641" lon="16.959554695225506"><ele>150.0</ele><time>2026-03-28T14:26:04Z</time></trkpt><trkpt lat="39.24335458163393" lon="16.959638465414443"><ele>147.4</ele><time>2026-03-28T14:26:06Z</time></trkpt><trkpt lat="39.24336581880815" lon="16.959745531661525"><ele>144.8</ele><time>2026-03-28T14:26:12Z</time></trkpt><trkpt lat="39.243345699962624" lon="16.95986952540281"><ele>142.2</ele><time>2026-03-28T14:26:13Z</time></trkpt><trkpt lat="39.24338118987311" lon="16.95998310885454"><ele>139.6</ele><time>2026-03-28T14:26:14Z</time></trkpt><trkpt lat="39.243410769394075" lon="16.96010683518543"><ele>137.0</ele><time>2026-03-28T14:26:15Z</time></trkpt><trkpt lat="39.24344066587817" lon="16.960228065449353"><ele>136.83333333333331</ele><time>2026-03-28T14:26:16Z</time></trkpt><trkpt lat="39.2434807161799" lon="16.960334624056173"><ele>136.66666666666666</ele><time>2026-03-28T14:26:17Z</time></trkpt><trkpt lat="39.24352630412892" lon="16.960428630999377"><ele>136.5</ele><time>2026-03-28T14:26:18Z</time></trkpt><trkpt lat="39.24359234905476" lon="16.960503314365237"><ele>136.33333333333334</ele><time>2026-03-28T14:26:19Z</time></trkpt><trkpt lat="39.243668390108404" lon="16.96056240275432"><ele>136.16666666666669</ele><time>2026-03-28T14:26:20Z</time></trkpt><trkpt lat="39.243741800149074" lon="16.960623616883222"><ele>136.0</ele><time>2026-03-28T14:26:21Z</time></trkpt><trkpt lat="39.24381528549564" lon="16.960699930435112"><ele>136.0</ele><time>2026-03-28T14:26:22Z</time></trkpt><trkpt lat="39.24387534926286" lon="16.960799679940973"><ele>136.0</ele><time>2026-03-28T14:26:23Z</time></trkpt><trkpt lat="39.24393277849447" lon="16.960882760345772"><ele>136.0</ele><time>2026-03-28T14:26:24Z</time></trkpt><trkpt lat="39.243978089671614" lon="16.96096344632581"><ele>136.0</ele><time>2026-03-28T14:26:25Z</time></trkpt><trkpt lat="39.2440347473668" lon="16.96101612329779"><ele>136.0</ele><time>2026-03-28T14:26:26Z</time></trkpt><trkpt lat="39.244115507738925" lon="16.961038673141605"><ele>136.0</ele><time>2026-03-28T14:26:27Z</time></trkpt><trkpt lat="39.24423044414423" lon="16.961078336619366"><ele>136.25</ele><time>2026-03-28T14:26:28Z</time></trkpt><trkpt lat="39.24435357539945" lon="16.961036465440923"><ele>136.5</ele><time>2026-03-28T14:26:29Z</time></trkpt><trkpt lat="39.24448108795199" lon="16.960966103052126"><ele>136.75</ele><time>2026-03-28T14:26:30Z</time></trkpt><trkpt lat="39.244587856352155" lon="16.960911098159656"><ele>137.0</ele><time>2026-03-28T14:26:31Z</time></trkpt><trkpt lat="39.24469272380942" lon="16.96087922070272"><ele>137.0</ele><time>2026-03-28T14:26:32Z</time></trkpt><trkpt lat="39.244791899521765" lon="16.960858261166866"><ele>137.0</ele><time>2026-03-28T14:26:33Z</time></trkpt><trkpt lat="39.2448823371672" lon="16.960845164225443"><ele>137.0</ele><time>2026-03-28T14:26:34Z</time></trkpt><trkpt lat="39.24496605133374" lon="16.96083271121123"><ele>137.0</ele><time>2026-03-28T14:26:35Z</time></trkpt><trkpt lat="39.24504186069483" lon="16.960851191611823"><ele>137.0</ele><time>2026-03-28T14:26:36Z</time></trkpt><trkpt lat="39.245140380395" lon="16.960834388339702"><ele>138.6</ele><time>2026-03-28T14:26:37Z</time></trkpt><trkpt lat="39.2452397109915" lon="16.96078431834381"><ele>140.2</ele><time>2026-03-28T14:26:38Z</time></trkpt><trkpt lat="39.24534030172232" lon="16.96072899571693"><ele>141.8</ele><time>2026-03-28T14:26:39Z</time></trkpt><trkpt lat="39.24544565266822" lon="16.960671055145287"><ele>143.4</ele><time>2026-03-28T14:26:40Z</time></trkpt><trkpt lat="39.245547374982415" lon="16.960615110227472"><ele>145.0</ele><time>2026-03-28T14:26:41Z</time></trkpt><trkpt lat="39.24563720454432" lon="16.960565645849698"><ele>147.0</ele><time>2026-03-28T14:26:42Z</time></trkpt><trkpt lat="39.24572213651352" lon="16.960520031723842"><ele>149.0</ele><time>2026-03-28T14:26:43Z</time></trkpt><trkpt lat="39.24580729782864" lon="16.960473792983347"><ele>151.0</ele><time>2026-03-28T14:26:44Z</time></trkpt><trkpt lat="39.245895745537105" lon="16.960425151278265"><ele>153.0</ele><time>2026-03-28T14:26:45Z</time></trkpt><trkpt lat="39.245984269671936" lon="16.960373712870346"><ele>155.0</ele><time>2026-03-28T14:26:46Z</time></trkpt><trkpt lat="39.24606848056955" lon="16.960304772349303"><ele>155.0</ele><time>2026-03-28T14:26:47Z</time></trkpt><trkpt lat="39.24615320585543" lon="16.960255342376318"><ele>155.0</ele><time>2026-03-28T14:26:48Z</time></trkpt><trkpt lat="39.24623027808848" lon="16.960210264629723"><ele>155.0</ele><time>2026-03-28T14:26:49Z</time></trkpt><trkpt lat="39.246307175981" lon="16.96017303786388"><ele>155.0</ele><time>2026-03-28T14:26:50Z</time></trkpt><trkpt lat="39.24638142935955" lon="16.960138351556846"><ele>155.0</ele><time>2026-03-28T14:26:51Z</time></trkpt><trkpt lat="39.24644425250414" lon="16.960115733251186"><ele>155.0</ele><time>2026-03-28T14:26:52Z</time></trkpt><trkpt lat="39.2465529304644" lon="16.960128051497374"><ele>157.6</ele><time>2026-03-28T14:26:54Z</time></trkpt><trkpt lat="39.24665820995963" lon="16.960153596195433"><ele>160.2</ele><time>2026-03-28T14:26:56Z</time></trkpt><trkpt lat="39.24674657226792" lon="16.96021497872032"><ele>162.8</ele><time>2026-03-28T14:26:58Z</time></trkpt><trkpt lat="39.24684389146075" lon="16.960228421823544"><ele>165.4</ele><time>2026-03-28T14:27:00Z</time></trkpt><trkpt lat="39.24690057377019" lon="16.96017454569584"><ele>168.0</ele><time>2026-03-28T14:27:02Z</time></trkpt><trkpt lat="39.24688037526864" lon="16.96007472862503"><ele>169.5</ele><time>2026-03-28T14:27:04Z</time></trkpt><trkpt lat="39.24686337114536" lon="16.959990269199654"><ele>171.0</ele><time>2026-03-28T14:27:07Z</time></trkpt><trkpt lat="39.24685408172991" lon="16.9598956588677"><ele>172.5</ele><time>2026-03-28T14:27:16Z</time></trkpt><trkpt lat="39.246818525973886" lon="16.95982838984551"><ele>174.0</ele><time>2026-03-28T14:27:18Z</time></trkpt><trkpt lat="39.24683564052747" lon="16.959740201016373"><ele>175.5</ele><time>2026-03-28T14:27:20Z</time></trkpt><trkpt lat="39.246902435353554" lon="16.959704895703936"><ele>177.0</ele><time>2026-03-28T14:27:22Z</time></trkpt><trkpt lat="39.24700918887451" lon="16.959821300690873"><ele>177.0</ele><time>2026-03-28T14:27:24Z</time></trkpt><trkpt lat="39.24707133779061" lon="16.959880330728307"><ele>177.0</ele><time>2026-03-28T14:27:25Z</time></trkpt><trkpt lat="39.24714038706304" lon="16.959947608742677"><ele>177.0</ele><time>2026-03-28T14:27:26Z</time></trkpt><trkpt lat="39.247222121686505" lon="16.96000604603848"><ele>177.0</ele><time>2026-03-28T14:27:27Z</time></trkpt><trkpt lat="39.24730635150705" lon="16.96003505088615"><ele>177.0</ele><time>2026-03-28T14:27:28Z</time></trkpt><trkpt lat="39.24738466200476" lon="16.960055338568004"><ele>177.0</ele><time>2026-03-28T14:27:29Z</time></trkpt><trkpt lat="39.247452173688266" lon="16.960071046115722"><ele>178.33333333333334</ele><time>2026-03-28T14:27:30Z</time></trkpt><trkpt lat="39.24754042422855" lon="16.960117792089555"><ele>179.66666666666666</ele><time>2026-03-28T14:27:32Z</time></trkpt><trkpt lat="39.2475975700098" lon="16.9601915836709"><ele>181.0</ele><time>2026-03-28T14:27:33Z</time></trkpt><trkpt lat="39.24766301360243" lon="16.96027024107677"><ele>182.33333333333331</ele><time>2026-03-28T14:27:34Z</time></trkpt><trkpt lat="39.24772538772158" lon="16.96033865869638"><ele>183.66666666666666</ele><time>2026-03-28T14:27:35Z</time></trkpt><trkpt lat="39.24780408748829" lon="16.960397834158606"><ele>185.0</ele><time>2026-03-28T14:27:37Z</time></trkpt><trkpt lat="39.24784981447068" lon="16.960546756056708"><ele>185.0</ele><time>2026-03-28T14:27:39Z</time></trkpt><trkpt lat="39.247861193199896" lon="16.96066746189786"><ele>185.0</ele><time>2026-03-28T14:27:40Z</time></trkpt><trkpt lat="39.24790893890658" lon="16.960754934058418"><ele>185.0</ele><time>2026-03-28T14:27:41Z</time></trkpt><trkpt lat="39.247950889543" lon="16.960819009750605"><ele>185.0</ele><time>2026-03-28T14:27:42Z</time></trkpt><trkpt lat="39.24799817934986" lon="16.96090152462135"><ele>185.0</ele><time>2026-03-28T14:27:43Z</time></trkpt><trkpt lat="39.24805442187595" lon="16.961003307074094"><ele>185.0</ele><time>2026-03-28T14:27:44Z</time></trkpt><trkpt lat="39.248120430744365" lon="16.961122763761704"><ele>189.0</ele><time>2026-03-28T14:27:45Z</time></trkpt><trkpt lat="39.24819664535278" lon="16.96125800082484"><ele>193.0</ele><time>2026-03-28T14:27:46Z</time></trkpt><trkpt lat="39.24827479830336" lon="16.96137953779656"><ele>197.0</ele><time>2026-03-28T14:27:47Z</time></trkpt><trkpt lat="39.24835881190121" lon="16.961504855299637"><ele>201.0</ele><time>2026-03-28T14:27:48Z</time></trkpt><trkpt lat="39.2484477478368" lon="16.961627059944718"><ele>198.0</ele><time>2026-03-28T14:27:49Z</time></trkpt><trkpt lat="39.24853800717531" lon="16.961732650581236"><ele>195.0</ele><time>2026-03-28T14:27:50Z</time></trkpt><trkpt lat="39.24861550492573" lon="16.96182408866937"><ele>192.0</ele><time>2026-03-28T14:27:51Z</time></trkpt><trkpt lat="39.248682135295574" lon="16.96188242305625"><ele>189.0</ele><time>2026-03-28T14:27:52Z</time></trkpt><trkpt lat="39.24877916434606" lon="16.961940908073736"><ele>186.0</ele><time>2026-03-28T14:27:54Z</time></trkpt><trkpt lat="39.248849114145926" lon="16.96195803419814"><ele>186.0</ele><time>2026-03-28T14:28:01Z</time></trkpt><trkpt lat="39.248904543236726" lon="16.961918322225337"><ele>186.0</ele><time>2026-03-28T14:28:47Z</time></trkpt><trkpt lat="39.24895226136114" lon="16.96183121363636"><ele>186.0</ele><time>2026-03-28T14:29:20Z</time></trkpt><trkpt lat="39.24896819113028" lon="16.961737669409708"><ele>186.0</ele><time>2026-03-28T14:29:22Z</time></trkpt><trkpt lat="39.24895123701089" lon="16.961627786931277"><ele>186.0</ele><time>2026-03-28T14:29:24Z</time></trkpt><trkpt lat="39.248940329250296" lon="16.961529176628055"><ele>186.0</ele><time>2026-03-28T14:29:27Z</time></trkpt><trkpt lat="39.24892609953567" lon="16.961438627275736"><ele>189.0</ele><time>2026-03-28T14:29:29Z</time></trkpt><trkpt lat="39.24892801267844" lon="16.961333465451702"><ele>192.0</ele><time>2026-03-28T14:29:30Z</time></trkpt><trkpt lat="39.2488153074126" lon="16.961229557488117"><ele>195.0</ele><time>2026-03-28T14:29:32Z</time></trkpt><trkpt lat="39.248730423556644" lon="16.961159954927698"><ele>198.0</ele><time>2026-03-28T14:29:33Z</time></trkpt><trkpt lat="39.24865100603607" lon="16.961096578145515"><ele>201.0</ele><time>2026-03-28T14:29:34Z</time></trkpt><trkpt lat="39.24858304921001" lon="16.961042345940463"><ele>201.0</ele><time>2026-03-28T14:29:35Z</time></trkpt><trkpt lat="39.248525412432826" lon="16.961004969812215"><ele>201.0</ele><time>2026-03-28T14:29:36Z</time></trkpt><trkpt lat="39.24842135529652" lon="16.96102599497784"><ele>201.0</ele><time>2026-03-28T14:29:37Z</time></trkpt><trkpt lat="39.248404000438455" lon="16.96079793104984"><ele>201.0</ele><time>2026-03-28T14:29:38Z</time></trkpt><trkpt lat="39.248503413666256" lon="16.96069355427503"><ele>205.20000000000002</ele><time>2026-03-28T14:29:39Z</time></trkpt><trkpt lat="39.248602804265225" lon="16.96061539226055"><ele>209.4</ele><time>2026-03-28T14:29:40Z</time></trkpt><trkpt lat="39.24870057430063" lon="16.960551184337902"><ele>213.6</ele><time>2026-03-28T14:29:41Z</time></trkpt><trkpt lat="39.248814870717155" lon="16.9605224169277"><ele>217.8</ele><time>2026-03-28T14:29:42Z</time></trkpt><trkpt lat="39.24891415925024" lon="16.96053682573895"><ele>222.0</ele><time>2026-03-28T14:29:43Z</time></trkpt><trkpt lat="39.249000799025815" lon="16.960558082774973"><ele>224.83333333333334</ele><time>2026-03-28T14:29:44Z</time></trkpt><trkpt lat="39.249090884268156" lon="16.960580186412116"><ele>227.66666666666669</ele><time>2026-03-28T14:29:45Z</time></trkpt><trkpt lat="39.249186088594286" lon="16.9606088775315"><ele>230.5</ele><time>2026-03-28T14:29:46Z</time></trkpt><trkpt lat="39.2492770402426" lon="16.960636929166316"><ele>233.33333333333334</ele><time>2026-03-28T14:29:47Z</time></trkpt><trkpt lat="39.24934797574622" lon="16.960674171502912"><ele>236.16666666666669</ele><time>2026-03-28T14:29:48Z</time></trkpt><trkpt lat="39.24941367065209" lon="16.960681435758783"><ele>239.0</ele><time>2026-03-28T14:29:49Z</time></trkpt><trkpt lat="39.24947647284076" lon="16.960673692918093"><ele>239.0</ele><time>2026-03-28T14:29:50Z</time></trkpt><trkpt lat="39.24953100426789" lon="16.96052545180745"><ele>238.99999999999997</ele><time>2026-03-28T14:29:52Z</time></trkpt><trkpt lat="39.249539394813795" lon="16.96041918496944"><ele>238.99999999999997</ele><time>2026-03-28T14:29:53Z</time></trkpt><trkpt lat="39.24954758293369" lon="16.960296567167116"><ele>239.0</ele><time>2026-03-28T14:29:54Z</time></trkpt><trkpt lat="39.2495688206512" lon="16.960172920353493"><ele>239.0</ele><time>2026-03-28T14:29:55Z</time></trkpt><trkpt lat="39.249595310579274" lon="16.96004830256926"><ele>237.75</ele><time>2026-03-28T14:29:56Z</time></trkpt><trkpt lat="39.249633004240174" lon="16.95992798923026"><ele>236.5</ele><time>2026-03-28T14:29:57Z</time></trkpt><trkpt lat="39.24969710463919" lon="16.95981099107579"><ele>235.25</ele><time>2026-03-28T14:29:58Z</time></trkpt><trkpt lat="39.24980300702926" lon="16.95971601872737"><ele>234.0</ele><time>2026-03-28T14:29:59Z</time></trkpt><trkpt lat="39.24992645219768" lon="16.959662910306417"><ele>234.0</ele><time>2026-03-28T14:30:00Z</time></trkpt><trkpt lat="39.25004236161099" lon="16.959613296919215"><ele>234.0</ele><time>2026-03-28T14:30:01Z</time></trkpt><trkpt lat="39.25014182260709" lon="16.95956437667609"><ele>234.0</ele><time>2026-03-28T14:30:02Z</time></trkpt><trkpt lat="39.250233978668994" lon="16.959501071082936"><ele>234.0</ele><time>2026-03-28T14:30:03Z</time></trkpt><trkpt lat="39.250321674861084" lon="16.959399433535424"><ele>234.0</ele><time>2026-03-28T14:30:04Z</time></trkpt><trkpt lat="39.250404032827234" lon="16.95927142374006"><ele>234.0</ele><time>2026-03-28T14:30:05Z</time></trkpt><trkpt lat="39.250451157459466" lon="16.959114144052855"><ele>234.0</ele><time>2026-03-28T14:30:06Z</time></trkpt><trkpt lat="39.25047376928568" lon="16.95895681289573"><ele>234.0</ele><time>2026-03-28T14:30:07Z</time></trkpt><trkpt lat="39.25052241018383" lon="16.958807602114977"><ele>238.5</ele><time>2026-03-28T14:30:08Z</time></trkpt><trkpt lat="39.25054271959457" lon="16.958642747235896"><ele>243.0</ele><time>2026-03-28T14:30:09Z</time></trkpt><trkpt lat="39.25056620739801" lon="16.958458181350707"><ele>247.5</ele><time>2026-03-28T14:30:10Z</time></trkpt><trkpt lat="39.250594791667886" lon="16.95826618299919"><ele>252.0</ele><time>2026-03-28T14:30:11Z</time></trkpt><trkpt lat="39.250617954726756" lon="16.958068548687496"><ele>252.0</ele><time>2026-03-28T14:30:12Z</time></trkpt><trkpt lat="39.250681337301344" lon="16.95788563020911"><ele>252.0</ele><time>2026-03-28T14:30:13Z</time></trkpt><trkpt lat="39.25073281956905" lon="16.957707621902443"><ele>252.0</ele><time>2026-03-28T14:30:14Z</time></trkpt><trkpt lat="39.250789471850894" lon="16.95754914384025"><ele>252.0</ele><time>2026-03-28T14:30:15Z</time></trkpt><trkpt lat="39.25086057379581" lon="16.957408336379494"><ele>254.25</ele><time>2026-03-28T14:30:16Z</time></trkpt><trkpt lat="39.25094427857934" lon="16.957273004361486"><ele>256.5</ele><time>2026-03-28T14:30:17Z</time></trkpt><trkpt lat="39.25104427587337" lon="16.9571692178491"><ele>258.75</ele><time>2026-03-28T14:30:18Z</time></trkpt><trkpt lat="39.25119191363795" lon="16.957029598356932"><ele>261.0</ele><time>2026-03-28T14:30:19Z</time></trkpt><trkpt lat="39.2513392502481" lon="16.956871583326443"><ele>261.3333333333333</ele><time>2026-03-28T14:30:20Z</time></trkpt><trkpt lat="39.25151813928218" lon="16.956780801074935"><ele>261.66666666666663</ele><time>2026-03-28T14:30:21Z</time></trkpt><trkpt lat="39.25165162436737" lon="16.956658820912235"><ele>262.0</ele><time>2026-03-28T14:30:22Z</time></trkpt><trkpt lat="39.25176843712811" lon="16.95654708162377"><ele>263.5</ele><time>2026-03-28T14:30:23Z</time></trkpt><trkpt lat="39.25187963612397" lon="16.956445577408775"><ele>265.0</ele><time>2026-03-28T14:30:24Z</time></trkpt><trkpt lat="39.251946377783554" lon="16.956302350180742"><ele>266.5</ele><time>2026-03-28T14:30:25Z</time></trkpt><trkpt lat="39.252038203918715" lon="16.956225322251708"><ele>268.0</ele><time>2026-03-28T14:30:26Z</time></trkpt><trkpt lat="39.25209750316494" lon="16.95615440659825"><ele>268.0</ele><time>2026-03-28T14:30:27Z</time></trkpt><trkpt lat="39.252153450174376" lon="16.956098027980495"><ele>268.0</ele><time>2026-03-28T14:30:28Z</time></trkpt><trkpt lat="39.252212127835364" lon="16.95603925134829"><ele>268.0</ele><time>2026-03-28T14:30:29Z</time></trkpt><trkpt lat="39.25229472947502" lon="16.955931603510994"><ele>268.0</ele><time>2026-03-28T14:30:31Z</time></trkpt><trkpt lat="39.25234312588472" lon="16.955803580914313"><ele>268.0</ele><time>2026-03-28T14:30:33Z</time></trkpt><trkpt lat="39.25233179296743" lon="16.955702277625544"><ele>267.3333333333333</ele><time>2026-03-28T14:30:34Z</time></trkpt><trkpt lat="39.25234128567039" lon="16.95559350316728"><ele>266.66666666666663</ele><time>2026-03-28T14:30:35Z</time></trkpt><trkpt lat="39.25232168044001" lon="16.955497387523803"><ele>266.0</ele><time>2026-03-28T14:30:36Z</time></trkpt><trkpt lat="39.25230192145502" lon="16.955393763870138"><ele>265.3333333333333</ele><time>2026-03-28T14:30:37Z</time></trkpt><trkpt lat="39.252272550978674" lon="16.955296736665556"><ele>264.6666666666667</ele><time>2026-03-28T14:30:38Z</time></trkpt><trkpt lat="39.252224529325275" lon="16.95522077991343"><ele>264.0</ele><time>2026-03-28T14:30:39Z</time></trkpt><trkpt lat="39.252174856524256" lon="16.955121799207458"><ele>266.6666666666667</ele><time>2026-03-28T14:30:40Z</time></trkpt><trkpt lat="39.25211166021306" lon="16.955054848898044"><ele>269.3333333333333</ele><time>2026-03-28T14:30:41Z</time></trkpt><trkpt lat="39.25204382824387" lon="16.954972879965478"><ele>272.0</ele><time>2026-03-28T14:30:42Z</time></trkpt><trkpt lat="39.251968003783276" lon="16.954909283462342"><ele>274.66666666666663</ele><time>2026-03-28T14:30:43Z</time></trkpt><trkpt lat="39.25190666674261" lon="16.954837862157426"><ele>277.3333333333333</ele><time>2026-03-28T14:30:44Z</time></trkpt><trkpt lat="39.25184997397334" lon="16.954781073200945"><ele>280.0</ele><time>2026-03-28T14:30:45Z</time></trkpt><trkpt lat="39.25179410992384" lon="16.95472505825126"><ele>280.2</ele><time>2026-03-28T14:30:46Z</time></trkpt><trkpt lat="39.25169563627563" lon="16.954652013593414"><ele>280.4</ele><time>2026-03-28T14:30:48Z</time></trkpt><trkpt lat="39.2516377379855" lon="16.954607940437082"><ele>280.6</ele><time>2026-03-28T14:30:50Z</time></trkpt><trkpt lat="39.25160861583537" lon="16.954532727573536"><ele>280.8</ele><time>2026-03-28T14:30:52Z</time></trkpt><trkpt lat="39.2515630788055" lon="16.95445711301384"><ele>281.0</ele><time>2026-03-28T14:30:55Z</time></trkpt><trkpt lat="39.251413000623764" lon="16.954426631745005"><ele>282.14285714285717</ele><time>2026-03-28T14:30:59Z</time></trkpt><trkpt lat="39.2513945675771" lon="16.9545072589841"><ele>283.2857142857143</ele><time>2026-03-28T14:31:00Z</time></trkpt><trkpt lat="39.25138133503439" lon="16.954592446394823"><ele>284.42857142857144</ele><time>2026-03-28T14:31:01Z</time></trkpt><trkpt lat="39.25136302671653" lon="16.954681846359417"><ele>285.57142857142856</ele><time>2026-03-28T14:31:02Z</time></trkpt><trkpt lat="39.25136418684101" lon="16.954793911981124"><ele>286.7142857142857</ele><time>2026-03-28T14:31:03Z</time></trkpt><trkpt lat="39.2513368344969" lon="16.954889863703535"><ele>287.8571428571429</ele><time>2026-03-28T14:31:04Z</time></trkpt><trkpt lat="39.25132717660965" lon="16.954972437307326"><ele>289.0</ele><time>2026-03-28T14:31:05Z</time></trkpt><trkpt lat="39.25131798572091" lon="16.95506414902634"><ele>289.0</ele><time>2026-03-28T14:31:06Z</time></trkpt><trkpt lat="39.251318287551314" lon="16.955159020593566"><ele>289.0</ele><time>2026-03-28T14:31:07Z</time></trkpt><trkpt lat="39.251282645887414" lon="16.955261664473138"><ele>289.0</ele><time>2026-03-28T14:31:08Z</time></trkpt><trkpt lat="39.251291327880594" lon="16.95536404776573"><ele>289.0</ele><time>2026-03-28T14:31:09Z</time></trkpt><trkpt lat="39.25128665032593" lon="16.955463674249874"><ele>289.0</ele><time>2026-03-28T14:31:10Z</time></trkpt><trkpt lat="39.25126304186946" lon="16.955559974700694"><ele>289.0</ele><time>2026-03-28T14:31:11Z</time></trkpt><trkpt lat="39.25124858391521" lon="16.955652671855088"><ele>289.0</ele><time>2026-03-28T14:31:12Z</time></trkpt><trkpt lat="39.251181955015106" lon="16.955720523459433"><ele>289.0</ele><time>2026-03-28T14:31:13Z</time></trkpt><trkpt lat="39.25112585127102" lon="16.955815023399726"><ele>289.0</ele><time>2026-03-28T14:31:14Z</time></trkpt><trkpt lat="39.25104688972293" lon="16.955821352014418"><ele>289.0</ele><time>2026-03-28T14:31:15Z</time></trkpt><trkpt lat="39.25098133514732" lon="16.95586468014536"><ele>289.0</ele><time>2026-03-28T14:31:16Z</time></trkpt><trkpt lat="39.2508827466691" lon="16.95588649787574"><ele>289.0</ele><time>2026-03-28T14:31:18Z</time></trkpt><trkpt lat="39.25078104398033" lon="16.955855799292504"><ele>289.0</ele><time>2026-03-28T14:31:19Z</time></trkpt><trkpt lat="39.250689137066836" lon="16.95582539576862"><ele>289.0</ele><time>2026-03-28T14:31:20Z</time></trkpt><trkpt lat="39.25060511389333" lon="16.955774715156537"><ele>289.0</ele><time>2026-03-28T14:31:21Z</time></trkpt><trkpt lat="39.25051397152296" lon="16.955686198236425"><ele>289.0</ele><time>2026-03-28T14:31:22Z</time></trkpt><trkpt lat="39.2504159840881" lon="16.955581599293325"><ele>289.0</ele><time>2026-03-28T14:31:23Z</time></trkpt><trkpt lat="39.25027275220979" lon="16.955490431682055"><ele>290.4</ele><time>2026-03-28T14:31:24Z</time></trkpt><trkpt lat="39.250185892386426" lon="16.955388519499863"><ele>291.79999999999995</ele><time>2026-03-28T14:31:25Z</time></trkpt><trkpt lat="39.25007781861667" lon="16.95533819495601"><ele>293.20000000000005</ele><time>2026-03-28T14:31:26Z</time></trkpt><trkpt lat="39.249980465193524" lon="16.955274929589052"><ele>294.6</ele><time>2026-03-28T14:31:27Z</time></trkpt><trkpt lat="39.249879222597905" lon="16.955243871550746"><ele>296.0</ele><time>2026-03-28T14:31:28Z</time></trkpt><trkpt lat="39.24977164593386" lon="16.955232553406162"><ele>297.6</ele><time>2026-03-28T14:31:29Z</time></trkpt><trkpt lat="39.24965395199633" lon="16.955222904114112"><ele>299.20000000000005</ele><time>2026-03-28T14:31:30Z</time></trkpt><trkpt lat="39.24954922359474" lon="16.955180006052988"><ele>300.79999999999995</ele><time>2026-03-28T14:31:31Z</time></trkpt><trkpt lat="39.24946928919399" lon="16.955162209187044"><ele>302.4</ele><time>2026-03-28T14:31:31.999Z</time></trkpt><trkpt lat="39.249388585579325" lon="16.95514424115899"><ele>304.0</ele><time>2026-03-28T14:31:33Z</time></trkpt><trkpt lat="39.24931099622462" lon="16.9551522977202"><ele>304.0</ele><time>2026-03-28T14:31:33.999Z</time></trkpt><trkpt lat="39.24923194778876" lon="16.95513124135333"><ele>304.0</ele><time>2026-03-28T14:31:34.999Z</time></trkpt><trkpt lat="39.24915138465306" lon="16.955126766364927"><ele>304.0</ele><time>2026-03-28T14:31:36.999Z</time></trkpt><trkpt lat="39.24902158716489" lon="16.955157031948108"><ele>304.0</ele><time>2026-03-28T14:31:38.999Z</time></trkpt><trkpt lat="39.24894485204255" lon="16.955425850691736"><ele>304.4</ele><time>2026-03-28T14:31:40.999Z</time></trkpt><trkpt lat="39.24891342419194" lon="16.95554448560215"><ele>304.79999999999995</ele><time>2026-03-28T14:31:41.999Z</time></trkpt><trkpt lat="39.24888095243586" lon="16.9556624090589"><ele>305.20000000000005</ele><time>2026-03-28T14:31:42.999Z</time></trkpt><trkpt lat="39.248861974269296" lon="16.95580122157002"><ele>305.6</ele><time>2026-03-28T14:31:43.999Z</time></trkpt><trkpt lat="39.24881308150806" lon="16.95591740415031"><ele>306.0</ele><time>2026-03-28T14:31:44.999Z</time></trkpt><trkpt lat="39.24878311090754" lon="16.956014631799484"><ele>304.0</ele><time>2026-03-28T14:31:45.999Z</time></trkpt><trkpt lat="39.24871205923272" lon="16.956093932456668"><ele>302.0</ele><time>2026-03-28T14:31:46.999Z</time></trkpt><trkpt lat="39.24865843736437" lon="16.956166676286248"><ele>300.0</ele><time>2026-03-28T14:31:47.999Z</time></trkpt><trkpt lat="39.248583151401796" lon="16.956203189365677"><ele>298.0</ele><time>2026-03-28T14:31:48.999Z</time></trkpt><trkpt lat="39.24854224056876" lon="16.95628604144718"><ele>296.0</ele><time>2026-03-28T14:31:49.999Z</time></trkpt><trkpt lat="39.24847770147808" lon="16.956331688882823"><ele>294.0</ele><time>2026-03-28T14:31:50.999Z</time></trkpt><trkpt lat="39.248467308095414" lon="16.956447303390174"><ele>294.0</ele><time>2026-03-28T14:31:52.999Z</time></trkpt><trkpt lat="39.24843064750824" lon="16.956547898629054"><ele>294.0</ele><time>2026-03-28T14:31:54.999Z</time></trkpt><trkpt lat="39.24851287681994" lon="16.956576826204294"><ele>294.0</ele><time>2026-03-28T14:31:55.999Z</time></trkpt><trkpt lat="39.248525887857454" lon="16.956656632381208"><ele>294.0</ele><time>2026-03-28T14:31:56.999Z</time></trkpt><trkpt lat="39.24854145879541" lon="16.956752139060626"><ele>294.0</ele><time>2026-03-28T14:31:57.999Z</time></trkpt><trkpt lat="39.248554979450866" lon="16.956835069563027"><ele>294.0</ele><time>2026-03-28T14:31:58.999Z</time></trkpt><trkpt lat="39.24857694689297" lon="16.956978149531913"><ele>293.3333333333333</ele><time>2026-03-28T14:32:00.999Z</time></trkpt><trkpt lat="39.24859666228857" lon="16.9570629932674"><ele>292.6666666666667</ele><time>2026-03-28T14:32:02.999Z</time></trkpt><trkpt lat="39.24861337311134" lon="16.957144570930907"><ele>292.0</ele><time>2026-03-28T14:32:04.999Z</time></trkpt><trkpt lat="39.248609127688425" lon="16.95723353541156"><ele>291.33333333333337</ele><time>2026-03-28T14:32:06.999Z</time></trkpt><trkpt lat="39.24862552705848" lon="16.9573512962105"><ele>290.6666666666667</ele><time>2026-03-28T14:32:08.999Z</time></trkpt><trkpt lat="39.24864002152004" lon="16.95744264716379"><ele>290.0</ele><time>2026-03-28T14:32:10.999Z</time></trkpt><trkpt lat="39.248724852130444" lon="16.957477739586555"><ele>290.0</ele><time>2026-03-28T14:32:13.999Z</time></trkpt><trkpt lat="39.24872910723576" lon="16.957376013490684"><ele>290.0</ele><time>2026-03-28T14:32:14.999Z</time></trkpt><trkpt lat="39.24873329043086" lon="16.95726643930889"><ele>290.0</ele><time>2026-03-28T14:32:16.999Z</time></trkpt><trkpt lat="39.248722612495975" lon="16.957175665161866"><ele>290.0</ele><time>2026-03-28T14:32:20.999Z</time></trkpt><trkpt lat="39.24875349154483" lon="16.957259571202766"><ele>290.0</ele><time>2026-03-28T14:44:06Z</time></trkpt><trkpt lat="39.248768831595235" lon="16.957472211753466"><ele>290.0</ele><time>2026-03-28T14:48:49Z</time></trkpt><trkpt lat="39.24876616826007" lon="16.957383432349815"><ele>290.0</ele><time>2026-03-28T14:52:34.001Z</time></trkpt><trkpt lat="39.248755462619826" lon="16.95729835928707"><ele>290.0</ele><time>2026-03-28T14:52:42.001Z</time></trkpt><trkpt lat="39.248747584808775" lon="16.95721503713788"><ele>290.0</ele><time>2026-03-28T14:52:53.001Z</time></trkpt><trkpt lat="39.248742421815614" lon="16.957092845942316"><ele>290.0</ele><time>2026-03-28T14:54:06Z</time></trkpt><trkpt lat="39.24873163345744" lon="16.957001353731567"><ele>290.0</ele><time>2026-03-28T14:54:09Z</time></trkpt><trkpt lat="39.248754481199356" lon="16.956922733814075"><ele>290.0</ele><time>2026-03-28T14:54:11Z</time></trkpt><trkpt lat="39.24879846734077" lon="16.956827179712498"><ele>290.0</ele><time>2026-03-28T14:54:13Z</time></trkpt><trkpt lat="39.24887865916147" lon="16.956782276164095"><ele>290.0</ele><time>2026-03-28T14:54:15Z</time></trkpt><trkpt lat="39.24896290928276" lon="16.95672678411978"><ele>290.0</ele><time>2026-03-28T14:54:17.001Z</time></trkpt><trkpt lat="39.249058954840294" lon="16.956628674313205"><ele>290.0</ele><time>2026-03-28T14:54:19.001Z</time></trkpt><trkpt lat="39.249112854252" lon="16.956574976635114"><ele>290.0</ele><time>2026-03-28T14:54:20.001Z</time></trkpt><trkpt lat="39.24920188278347" lon="16.95654525768296"><ele>289.6666666666667</ele><time>2026-03-28T14:54:22.001Z</time></trkpt><trkpt lat="39.249259617962835" lon="16.956589196819174"><ele>289.33333333333337</ele><time>2026-03-28T14:54:23.001Z</time></trkpt><trkpt lat="39.24933117709217" lon="16.956620987950743"><ele>289.0</ele><time>2026-03-28T14:54:24.001Z</time></trkpt><trkpt lat="39.24941047554727" lon="16.956664873671542"><ele>288.6666666666667</ele><time>2026-03-28T14:54:25.001Z</time></trkpt><trkpt lat="39.2494784570166" lon="16.95679292162621"><ele>288.3333333333333</ele><time>2026-03-28T14:54:26.001Z</time></trkpt><trkpt lat="39.249574379771566" lon="16.95682384277841"><ele>288.0</ele><time>2026-03-28T14:54:27.001Z</time></trkpt><trkpt lat="39.24966309603967" lon="16.956859201913996"><ele>286.2</ele><time>2026-03-28T14:54:28.001Z</time></trkpt><trkpt lat="39.24974452931265" lon="16.956861547289687"><ele>284.4</ele><time>2026-03-28T14:54:29.001Z</time></trkpt><trkpt lat="39.24981497772441" lon="16.956884167449235"><ele>282.59999999999997</ele><time>2026-03-28T14:54:30.001Z</time></trkpt><trkpt lat="39.249886292248554" lon="16.956907010839736"><ele>280.8</ele><time>2026-03-28T14:54:31.001Z</time></trkpt><trkpt lat="39.250086370998766" lon="16.956956974525994"><ele>279.0</ele><time>2026-03-28T14:54:32.001Z</time></trkpt><trkpt lat="39.25009933801583" lon="16.957052036401002"><ele>279.0</ele><time>2026-03-28T14:54:33.001Z</time></trkpt><trkpt lat="39.24999654928107" lon="16.957225702946932"><ele>279.0</ele><time>2026-03-28T14:54:34.001Z</time></trkpt><trkpt lat="39.249942480761305" lon="16.957295755447102"><ele>279.0</ele><time>2026-03-28T14:54:35.001Z</time></trkpt><trkpt lat="39.2498843330903" lon="16.95736913692684"><ele>279.0</ele><time>2026-03-28T14:54:36.001Z</time></trkpt><trkpt lat="39.24982856334021" lon="16.957439489690135"><ele>279.0</ele><time>2026-03-28T14:54:37.001Z</time></trkpt><trkpt lat="39.24976264221221" lon="16.957500229729906"><ele>279.0</ele><time>2026-03-28T14:54:38.001Z</time></trkpt><trkpt lat="39.249689150092664" lon="16.95752813170969"><ele>279.0</ele><time>2026-03-28T14:54:39.001Z</time></trkpt><trkpt lat="39.24961318277021" lon="16.957518013135665"><ele>279.0</ele><time>2026-03-28T14:54:40.001Z</time></trkpt><trkpt lat="39.24949387405316" lon="16.95745239763647"><ele>279.0</ele><time>2026-03-28T14:54:42.001Z</time></trkpt><trkpt lat="39.249426575574795" lon="16.957461537486456"><ele>279.0</ele><time>2026-03-28T14:54:43.001Z</time></trkpt><trkpt lat="39.24936638227229" lon="16.957495227258338"><ele>279.0</ele><time>2026-03-28T14:54:44.001Z</time></trkpt><trkpt lat="39.24934210518028" lon="16.95757192285165"><ele>278.5</ele><time>2026-03-28T14:54:46.001Z</time></trkpt><trkpt lat="39.24933755184059" lon="16.957657666115978"><ele>278.0</ele><time>2026-03-28T14:54:48.001Z</time></trkpt><trkpt lat="39.249340081365645" lon="16.957811204122596"><ele>277.5</ele><time>2026-03-28T14:54:50.001Z</time></trkpt><trkpt lat="39.249353116199664" lon="16.957950552025686"><ele>277.0</ele><time>2026-03-28T14:54:52.001Z</time></trkpt><trkpt lat="39.24936085559782" lon="16.958059977554665"><ele>276.5</ele><time>2026-03-28T14:54:54.001Z</time></trkpt><trkpt lat="39.24936736934538" lon="16.958147571946743"><ele>276.0</ele><time>2026-03-28T14:54:56.001Z</time></trkpt><trkpt lat="39.24937398326299" lon="16.958236513429245"><ele>276.0</ele><time>2026-03-28T14:54:58.001Z</time></trkpt><trkpt lat="39.249382495924365" lon="16.958350988485986"><ele>276.0</ele><time>2026-03-28T14:55:01.001Z</time></trkpt><trkpt lat="39.249387642639284" lon="16.958478795161785"><ele>276.0</ele><time>2026-03-28T14:55:03.001Z</time></trkpt><trkpt lat="39.2494728524395" lon="16.95846017204812"><ele>276.0</ele><time>2026-03-28T14:55:05.001Z</time></trkpt><trkpt lat="39.249576175839216" lon="16.958463794945065"><ele>276.0</ele><time>2026-03-28T14:55:07.001Z</time></trkpt><trkpt lat="39.249667356763744" lon="16.958542164541864"><ele>274.1666666666667</ele><time>2026-03-28T14:55:09.001Z</time></trkpt><trkpt lat="39.24975000894884" lon="16.958594090322176"><ele>272.3333333333333</ele><time>2026-03-28T14:55:11.001Z</time></trkpt><trkpt lat="39.249858757740455" lon="16.958627244488483"><ele>270.5</ele><time>2026-03-28T14:55:13.001Z</time></trkpt><trkpt lat="39.249931161806934" lon="16.958606157723494"><ele>268.66666666666663</ele><time>2026-03-28T14:55:14Z</time></trkpt><trkpt lat="39.24998421438" lon="16.958559671110606"><ele>266.8333333333333</ele><time>2026-03-28T14:55:15Z</time></trkpt><trkpt lat="39.25004986487271" lon="16.958475331347184"><ele>265.0</ele><time>2026-03-28T14:55:16Z</time></trkpt><trkpt lat="39.25011210174237" lon="16.95839195692494"><ele>264.4</ele><time>2026-03-28T14:55:17Z</time></trkpt><trkpt lat="39.25018143016487" lon="16.95831332644051"><ele>263.8</ele><time>2026-03-28T14:55:18Z</time></trkpt><trkpt lat="39.250254529757136" lon="16.958229186286285"><ele>263.2</ele><time>2026-03-28T14:55:19Z</time></trkpt><trkpt lat="39.25031632512893" lon="16.95813393441692"><ele>262.6</ele><time>2026-03-28T14:55:20Z</time></trkpt><trkpt lat="39.250369035129616" lon="16.958023040500684"><ele>262.0</ele><time>2026-03-28T14:55:21Z</time></trkpt><trkpt lat="39.25041015029468" lon="16.957922752424746"><ele>262.0</ele><time>2026-03-28T14:55:22Z</time></trkpt><trkpt lat="39.25044814267999" lon="16.957828483828877"><ele>262.0</ele><time>2026-03-28T14:55:23Z</time></trkpt><trkpt lat="39.25048476243207" lon="16.957738143078945"><ele>262.0</ele><time>2026-03-28T14:55:24Z</time></trkpt><trkpt lat="39.25051715132472" lon="16.957645251885662"><ele>262.0</ele><time>2026-03-28T14:55:25Z</time></trkpt><trkpt lat="39.250545830298584" lon="16.957554209390022"><ele>262.0</ele><time>2026-03-28T14:55:26Z</time></trkpt><trkpt lat="39.25056263840556" lon="16.957455611185072"><ele>262.0</ele><time>2026-03-28T14:55:27Z</time></trkpt><trkpt lat="39.25057729688521" lon="16.957372345517612"><ele>261.8</ele><time>2026-03-28T14:55:28Z</time></trkpt><trkpt lat="39.25061334452892" lon="16.957222905296284"><ele>261.6</ele><time>2026-03-28T14:55:30Z</time></trkpt><trkpt lat="39.25066209517136" lon="16.95714946231481"><ele>261.40000000000003</ele><time>2026-03-28T14:55:31Z</time></trkpt><trkpt lat="39.250737246227416" lon="16.957103630815176"><ele>261.2</ele><time>2026-03-28T14:55:32Z</time></trkpt><trkpt lat="39.250832093859394" lon="16.95709051657037"><ele>261.0</ele><time>2026-03-28T14:55:33Z</time></trkpt><trkpt lat="39.25094160341587" lon="16.95705591143641"><ele>261.0</ele><time>2026-03-28T14:55:34Z</time></trkpt><trkpt lat="39.25103812482278" lon="16.95700263687671"><ele>261.0</ele><time>2026-03-28T14:55:35Z</time></trkpt><trkpt lat="39.25111855129606" lon="16.956948062171858"><ele>261.0</ele><time>2026-03-28T14:55:36Z</time></trkpt><trkpt lat="39.25118172355778" lon="16.956903247244394"><ele>261.0</ele><time>2026-03-28T14:55:37Z</time></trkpt><trkpt lat="39.2512808236834" lon="16.95685062155036"><ele>261.0</ele><time>2026-03-28T14:55:39Z</time></trkpt><trkpt lat="39.25138180132614" lon="16.956816675057354"><ele>261.2</ele><time>2026-03-28T14:55:41Z</time></trkpt><trkpt lat="39.25146491507458" lon="16.95677065071606"><ele>261.40000000000003</ele><time>2026-03-28T14:55:42Z</time></trkpt><trkpt lat="39.25151962178895" lon="16.956718320020364"><ele>261.6</ele><time>2026-03-28T14:55:43Z</time></trkpt><trkpt lat="39.25160387426009" lon="16.956637726820546"><ele>261.8</ele><time>2026-03-28T14:55:44Z</time></trkpt><trkpt lat="39.25169669948045" lon="16.956548933175416"><ele>262.0</ele><time>2026-03-28T14:55:45Z</time></trkpt><trkpt lat="39.251790252589224" lon="16.956459443252978"><ele>263.2</ele><time>2026-03-28T14:55:46Z</time></trkpt><trkpt lat="39.251875495339526" lon="16.95637790279734"><ele>264.4</ele><time>2026-03-28T14:55:47Z</time></trkpt><trkpt lat="39.25194962797815" lon="16.956306989895378"><ele>265.6</ele><time>2026-03-28T14:55:48Z</time></trkpt><trkpt lat="39.25202578141384" lon="16.95623414395395"><ele>266.8</ele><time>2026-03-28T14:55:49Z</time></trkpt><trkpt lat="39.252094660771434" lon="16.956167601661388"><ele>268.0</ele><time>2026-03-28T14:55:50Z</time></trkpt><trkpt lat="39.25215471617709" lon="16.95610639806548"><ele>268.0</ele><time>2026-03-28T14:55:51Z</time></trkpt><trkpt lat="39.252233974204785" lon="16.955999692871504"><ele>268.0</ele><time>2026-03-28T14:55:53Z</time></trkpt><trkpt lat="39.252277970579065" lon="16.95588787567123"><ele>268.0</ele><time>2026-03-28T14:55:55Z</time></trkpt><trkpt lat="39.252327184401615" lon="16.955798698693528"><ele>268.0</ele><time>2026-03-28T14:55:57Z</time></trkpt><trkpt lat="39.25235367614525" lon="16.95563034429047"><ele>268.0</ele><time>2026-03-28T14:55:59Z</time></trkpt><trkpt lat="39.25235363731311" lon="16.955543948200834"><ele>267.2</ele><time>2026-03-28T14:56:00Z</time></trkpt><trkpt lat="39.252366510307176" lon="16.95538896978983"><ele>266.4</ele><time>2026-03-28T14:56:02Z</time></trkpt><trkpt lat="39.25241425993637" lon="16.955320164313335"><ele>265.59999999999997</ele><time>2026-03-28T14:56:03Z</time></trkpt><trkpt lat="39.25241739126602" lon="16.955204046706488"><ele>264.8</ele><time>2026-03-28T14:56:05Z</time></trkpt><trkpt lat="39.252414247893746" lon="16.955083373006072"><ele>264.0</ele><time>2026-03-28T14:56:08Z</time></trkpt><trkpt lat="39.252406861308316" lon="16.954978434402424"><ele>263.8333333333333</ele><time>2026-03-28T14:56:10Z</time></trkpt><trkpt lat="39.2523872899064" lon="16.954843671783934"><ele>263.6666666666667</ele><time>2026-03-28T14:56:12Z</time></trkpt><trkpt lat="39.2523568175727" lon="16.954706285802605"><ele>263.5</ele><time>2026-03-28T14:56:14Z</time></trkpt><trkpt lat="39.2523384208943" lon="16.954610936034996"><ele>263.33333333333337</ele><time>2026-03-28T14:56:15Z</time></trkpt><trkpt lat="39.252370328405995" lon="16.954531487341182"><ele>263.1666666666667</ele><time>2026-03-28T14:56:16Z</time></trkpt><trkpt lat="39.252422413215825" lon="16.95446488875179"><ele>263.0</ele><time>2026-03-28T14:56:17Z</time></trkpt><trkpt lat="39.25248120165852" lon="16.95442235960053"><ele>263.0</ele><time>2026-03-28T14:56:18Z</time></trkpt><trkpt lat="39.25254481284409" lon="16.954377676230568"><ele>263.0</ele><time>2026-03-28T14:56:19Z</time></trkpt><trkpt lat="39.25259240225154" lon="16.9542936733935"><ele>263.0</ele><time>2026-03-28T14:56:20Z</time></trkpt><trkpt lat="39.25263430591394" lon="16.954206990232855"><ele>263.0</ele><time>2026-03-28T14:56:21Z</time></trkpt><trkpt lat="39.252653783195846" lon="16.954112676910178"><ele>263.0</ele><time>2026-03-28T14:56:22Z</time></trkpt><trkpt lat="39.25268131473444" lon="16.95399769146005"><ele>263.0</ele><time>2026-03-28T14:56:23Z</time></trkpt><trkpt lat="39.252684256002574" lon="16.953873308074048"><ele>261.8</ele><time>2026-03-28T14:56:24Z</time></trkpt><trkpt lat="39.25267671220753" lon="16.953748825952285"><ele>260.6</ele><time>2026-03-28T14:56:25Z</time></trkpt><trkpt lat="39.25266263783116" lon="16.95362691503482"><ele>259.4</ele><time>2026-03-28T14:56:26Z</time></trkpt><trkpt lat="39.252646063843976" lon="16.953515248932025"><ele>258.2</ele><time>2026-03-28T14:56:27Z</time></trkpt><trkpt lat="39.25260423853119" lon="16.95341457744913"><ele>257.0</ele><time>2026-03-28T14:56:28Z</time></trkpt><trkpt lat="39.2526205200532" lon="16.95330901630523"><ele>255.8</ele><time>2026-03-28T14:56:29Z</time></trkpt><trkpt lat="39.25265025812115" lon="16.95320287250376"><ele>254.6</ele><time>2026-03-28T14:56:30Z</time></trkpt><trkpt lat="39.25270261315625" lon="16.953107570710035"><ele>253.40000000000003</ele><time>2026-03-28T14:56:31Z</time></trkpt><trkpt lat="39.252727032012444" lon="16.952986300352016"><ele>252.20000000000002</ele><time>2026-03-28T14:56:32Z</time></trkpt><trkpt lat="39.25273064582857" lon="16.952867511113034"><ele>251.0</ele><time>2026-03-28T14:56:33Z</time></trkpt><trkpt lat="39.25272861603201" lon="16.95274297122731"><ele>251.00000000000003</ele><time>2026-03-28T14:56:34Z</time></trkpt><trkpt lat="39.252741614445" lon="16.95262397380919"><ele>251.0</ele><time>2026-03-28T14:56:35Z</time></trkpt><trkpt lat="39.25275429145585" lon="16.952510298893998"><ele>251.0</ele><time>2026-03-28T14:56:36Z</time></trkpt><trkpt lat="39.25278014601807" lon="16.952404390087747"><ele>251.0</ele><time>2026-03-28T14:56:37Z</time></trkpt><trkpt lat="39.25278165176558" lon="16.952314932664112"><ele>251.00000000000003</ele><time>2026-03-28T14:56:38Z</time></trkpt><trkpt lat="39.252743841286616" lon="16.95222276339219"><ele>251.0</ele><time>2026-03-28T14:56:39Z</time></trkpt><trkpt lat="39.25276672541705" lon="16.952112850959157"><ele>249.50000000000003</ele><time>2026-03-28T14:56:40Z</time></trkpt><trkpt lat="39.252835730599244" lon="16.952075461483112"><ele>248.0</ele><time>2026-03-28T14:56:41Z</time></trkpt><trkpt lat="39.25289903143548" lon="16.9520879608745"><ele>246.5</ele><time>2026-03-28T14:56:42Z</time></trkpt><trkpt lat="39.25296928157059" lon="16.952092014985972"><ele>245.0</ele><time>2026-03-28T14:56:43Z</time></trkpt><trkpt lat="39.25305311855785" lon="16.952088297131066"><ele>243.50000000000003</ele><time>2026-03-28T14:56:44Z</time></trkpt><trkpt lat="39.25314474807136" lon="16.952081279479348"><ele>242.0</ele><time>2026-03-28T14:56:45Z</time></trkpt><trkpt lat="39.25323921557865" lon="16.952068366547078"><ele>239.00000000000003</ele><time>2026-03-28T14:56:46Z</time></trkpt><trkpt lat="39.253323240982404" lon="16.95206426783766"><ele>236.0</ele><time>2026-03-28T14:56:47Z</time></trkpt><trkpt lat="39.25339362964816" lon="16.952033065292397"><ele>233.0</ele><time>2026-03-28T14:56:48Z</time></trkpt><trkpt lat="39.25343781420807" lon="16.951961298167593"><ele>230.0</ele><time>2026-03-28T14:56:49Z</time></trkpt><trkpt lat="39.25348242236361" lon="16.951881150719984"><ele>227.00000000000003</ele><time>2026-03-28T14:56:50Z</time></trkpt><trkpt lat="39.25353891670014" lon="16.951809989217125"><ele>224.0</ele><time>2026-03-28T14:56:51Z</time></trkpt><trkpt lat="39.2535723388605" lon="16.95171236381517"><ele>224.66666666666669</ele><time>2026-03-28T14:56:52Z</time></trkpt><trkpt lat="39.25361445043735" lon="16.951614154779485"><ele>225.33333333333334</ele><time>2026-03-28T14:56:53Z</time></trkpt><trkpt lat="39.253664662191696" lon="16.951526439913316"><ele>226.0</ele><time>2026-03-28T14:56:54Z</time></trkpt><trkpt lat="39.253714634278936" lon="16.95145082096569"><ele>226.66666666666669</ele><time>2026-03-28T14:56:55Z</time></trkpt><trkpt lat="39.25377940358868" lon="16.951389601471703"><ele>227.33333333333334</ele><time>2026-03-28T14:56:56Z</time></trkpt><trkpt lat="39.25385943947337" lon="16.951405090704167"><ele>228.0</ele><time>2026-03-28T14:56:57Z</time></trkpt><trkpt lat="39.25395513786558" lon="16.951398717903086"><ele>226.16666666666666</ele><time>2026-03-28T14:56:58Z</time></trkpt><trkpt lat="39.2540547837759" lon="16.951389569308027"><ele>224.33333333333331</ele><time>2026-03-28T14:56:59Z</time></trkpt><trkpt lat="39.254146000009236" lon="16.95137631986512"><ele>222.5</ele><time>2026-03-28T14:57:00Z</time></trkpt><trkpt lat="39.25422995145241" lon="16.95139008867266"><ele>220.66666666666666</ele><time>2026-03-28T14:57:01Z</time></trkpt><trkpt lat="39.25428515395002" lon="16.951465224978925"><ele>218.83333333333331</ele><time>2026-03-28T14:57:02Z</time></trkpt><trkpt lat="39.25435021498203" lon="16.951536161448963"><ele>217.0</ele><time>2026-03-28T14:57:03Z</time></trkpt><trkpt lat="39.25442194163453" lon="16.95159382836247"><ele>216.99999999999997</ele><time>2026-03-28T14:57:04Z</time></trkpt><trkpt lat="39.25449260940242" lon="16.951618418977862"><ele>217.0</ele><time>2026-03-28T14:57:05Z</time></trkpt><trkpt lat="39.25456426435285" lon="16.951626030776858"><ele>217.0</ele><time>2026-03-28T14:57:06Z</time></trkpt><trkpt lat="39.25463655821488" lon="16.95159440745158"><ele>217.0</ele><time>2026-03-28T14:57:07Z</time></trkpt><trkpt lat="39.25470470604427" lon="16.951602943834075"><ele>216.99999999999997</ele><time>2026-03-28T14:57:08Z</time></trkpt><trkpt lat="39.254802897592306" lon="16.951628164194997"><ele>217.0</ele><time>2026-03-28T14:57:10Z</time></trkpt><trkpt lat="39.25478822759961" lon="16.951742997300176"><ele>215.8</ele><time>2026-03-28T14:57:13Z</time></trkpt><trkpt lat="39.25474462269206" lon="16.951852604996297"><ele>214.6</ele><time>2026-03-28T14:57:15Z</time></trkpt><trkpt lat="39.254700220601094" lon="16.95199595582371"><ele>213.4</ele><time>2026-03-28T14:57:17Z</time></trkpt><trkpt lat="39.254783083311125" lon="16.95217445321865"><ele>212.20000000000002</ele><time>2026-03-28T14:57:19Z</time></trkpt><trkpt lat="39.2548287394347" lon="16.952234156108954"><ele>211.0</ele><time>2026-03-28T14:57:20Z</time></trkpt><trkpt lat="39.254932545888984" lon="16.95232599957677"><ele>211.0</ele><time>2026-03-28T14:57:22Z</time></trkpt><trkpt lat="39.25501588783359" lon="16.95242531380596"><ele>211.0</ele><time>2026-03-28T14:57:24Z</time></trkpt><trkpt lat="39.25509014488391" lon="16.952507112861454"><ele>211.0</ele><time>2026-03-28T14:57:26Z</time></trkpt><trkpt lat="39.2551658632183" lon="16.952578045969815"><ele>211.0</ele><time>2026-03-28T14:57:28Z</time></trkpt><trkpt lat="39.25525335229067" lon="16.952641278560574"><ele>211.0</ele><time>2026-03-28T14:57:30Z</time></trkpt><trkpt lat="39.255341592784994" lon="16.952684885673865"><ele>209.8</ele><time>2026-03-28T14:57:32Z</time></trkpt><trkpt lat="39.2554398713157" lon="16.952719761604172"><ele>208.60000000000002</ele><time>2026-03-28T14:57:34Z</time></trkpt><trkpt lat="39.25554931997521" lon="16.952731112821198"><ele>207.4</ele><time>2026-03-28T14:57:36Z</time></trkpt><trkpt lat="39.25567532806959" lon="16.952738098282627"><ele>206.2</ele><time>2026-03-28T14:57:38Z</time></trkpt><trkpt lat="39.25574588277592" lon="16.952745818086193"><ele>205.0</ele><time>2026-03-28T14:57:39Z</time></trkpt><trkpt lat="39.2558156550656" lon="16.952750443427217"><ele>205.0</ele><time>2026-03-28T14:57:40Z</time></trkpt><trkpt lat="39.255881960866155" lon="16.952754635549343"><ele>205.0</ele><time>2026-03-28T14:57:41Z</time></trkpt><trkpt lat="39.25595012309196" lon="16.952746163779093"><ele>205.0</ele><time>2026-03-28T14:57:42Z</time></trkpt><trkpt lat="39.25602335149672" lon="16.95272963065545"><ele>205.0</ele><time>2026-03-28T14:57:43Z</time></trkpt><trkpt lat="39.256102359643315" lon="16.952703109431404"><ele>205.0</ele><time>2026-03-28T14:57:44Z</time></trkpt><trkpt lat="39.2561786114631" lon="16.952656553659967"><ele>205.0</ele><time>2026-03-28T14:57:45Z</time></trkpt><trkpt lat="39.25624805279987" lon="16.95262243680852"><ele>205.0</ele><time>2026-03-28T14:57:46Z</time></trkpt><trkpt lat="39.256313898459794" lon="16.95259576860875"><ele>205.0</ele><time>2026-03-28T14:57:47Z</time></trkpt><trkpt lat="39.256377020344175" lon="16.95255782569467"><ele>205.0</ele><time>2026-03-28T14:57:48Z</time></trkpt><trkpt lat="39.25644085437044" lon="16.952513703009412"><ele>205.0</ele><time>2026-03-28T14:57:49Z</time></trkpt><trkpt lat="39.25650277804269" lon="16.952460598433984"><ele>205.0</ele><time>2026-03-28T14:57:50Z</time></trkpt><trkpt lat="39.256567299308166" lon="16.952409489356388"><ele>205.0</ele><time>2026-03-28T14:57:51Z</time></trkpt><trkpt lat="39.25663097668513" lon="16.952360786233946"><ele>205.0</ele><time>2026-03-28T14:57:52Z</time></trkpt><trkpt lat="39.256688543181646" lon="16.95231658260874"><ele>205.0</ele><time>2026-03-28T14:57:53Z</time></trkpt><trkpt lat="39.25674771995096" lon="16.952288330151568"><ele>203.99999999999997</ele><time>2026-03-28T14:57:54Z</time></trkpt><trkpt lat="39.25683624532852" lon="16.952258206382783"><ele>203.0</ele><time>2026-03-28T14:57:56Z</time></trkpt><trkpt lat="39.25690231823103" lon="16.95221637045949"><ele>202.0</ele><time>2026-03-28T14:57:57Z</time></trkpt><trkpt lat="39.256944062997995" lon="16.95229072016051"><ele>201.0</ele><time>2026-03-28T14:57:59Z</time></trkpt><trkpt lat="39.256959673083465" lon="16.95238664318278"><ele>199.99999999999997</ele><time>2026-03-28T14:58:01Z</time></trkpt><trkpt lat="39.25699565277271" lon="16.95249983941277"><ele>199.0</ele><time>2026-03-28T14:58:03Z</time></trkpt><trkpt lat="39.25704136729437" lon="16.952648597906528"><ele>198.99999999999997</ele><time>2026-03-28T14:58:05Z</time></trkpt><trkpt lat="39.25706046448463" lon="16.952739743719473"><ele>199.0</ele><time>2026-03-28T14:58:06Z</time></trkpt><trkpt lat="39.25707518500822" lon="16.952843421561116"><ele>199.0</ele><time>2026-03-28T14:58:07Z</time></trkpt><trkpt lat="39.257077849824526" lon="16.952947577712923"><ele>199.0</ele><time>2026-03-28T14:58:08Z</time></trkpt><trkpt lat="39.257065783526535" lon="16.95304486896017"><ele>198.99999999999997</ele><time>2026-03-28T14:58:09Z</time></trkpt><trkpt lat="39.2570582367768" lon="16.953131943154204"><ele>199.0</ele><time>2026-03-28T14:58:10Z</time></trkpt><trkpt lat="39.25703503402347" lon="16.953278563307535"><ele>197.6</ele><time>2026-03-28T14:58:12Z</time></trkpt><trkpt lat="39.257012433748024" lon="16.953415023889153"><ele>196.2</ele><time>2026-03-28T14:58:14Z</time></trkpt><trkpt lat="39.25700494670504" lon="16.95355621126037"><ele>194.79999999999998</ele><time>2026-03-28T14:58:16Z</time></trkpt><trkpt lat="39.2570229282377" lon="16.953692368817006"><ele>193.39999999999998</ele><time>2026-03-28T14:58:18Z</time></trkpt><trkpt lat="39.25703938476231" lon="16.953779653685604"><ele>192.0</ele><time>2026-03-28T14:58:19Z</time></trkpt><trkpt lat="39.257138327955985" lon="16.953867626425318"><ele>192.0</ele><time>2026-03-28T14:58:21Z</time></trkpt><trkpt lat="39.25723347849914" lon="16.953944558616552"><ele>192.0</ele><time>2026-03-28T14:58:23Z</time></trkpt><trkpt lat="39.257344545693314" lon="16.95402227410009"><ele>192.0</ele><time>2026-03-28T14:58:25Z</time></trkpt><trkpt lat="39.257398502670185" lon="16.954083533172177"><ele>192.0</ele><time>2026-03-28T14:58:26Z</time></trkpt><trkpt lat="39.25745659533969" lon="16.954142884259525"><ele>192.0</ele><time>2026-03-28T14:58:27Z</time></trkpt><trkpt lat="39.25752117941088" lon="16.95418803790552"><ele>189.66666666666666</ele><time>2026-03-28T14:58:28Z</time></trkpt><trkpt lat="39.25759062212441" lon="16.95421918330758"><ele>187.33333333333334</ele><time>2026-03-28T14:58:29Z</time></trkpt><trkpt lat="39.25766713558186" lon="16.954237702637005"><ele>185.0</ele><time>2026-03-28T14:58:30Z</time></trkpt><trkpt lat="39.25774684226197" lon="16.954253982006936"><ele>182.66666666666669</ele><time>2026-03-28T14:58:31Z</time></trkpt><trkpt lat="39.25782873219313" lon="16.954269764095667"><ele>180.33333333333334</ele><time>2026-03-28T14:58:32Z</time></trkpt><trkpt lat="39.25791190567878" lon="16.954290748055175"><ele>178.0</ele><time>2026-03-28T14:58:33Z</time></trkpt><trkpt lat="39.25799524728752" lon="16.954318674535315"><ele>178.0</ele><time>2026-03-28T14:58:34Z</time></trkpt><trkpt lat="39.25807921405231" lon="16.95432722647519"><ele>178.0</ele><time>2026-03-28T14:58:35Z</time></trkpt><trkpt lat="39.258155307858296" lon="16.9543942681932"><ele>178.0</ele><time>2026-03-28T14:58:36Z</time></trkpt><trkpt lat="39.25822276689387" lon="16.954463457225206"><ele>178.0</ele><time>2026-03-28T14:58:37Z</time></trkpt><trkpt lat="39.25829374343955" lon="16.954524859773"><ele>178.0</ele><time>2026-03-28T14:58:38Z</time></trkpt><trkpt lat="39.258357003019775" lon="16.954594825129398"><ele>178.0</ele><time>2026-03-28T14:58:39Z</time></trkpt><trkpt lat="39.25842728062549" lon="16.954650007010965"><ele>176.66666666666669</ele><time>2026-03-28T14:58:40Z</time></trkpt><trkpt lat="39.258495910265694" lon="16.954703791850566"><ele>175.33333333333334</ele><time>2026-03-28T14:58:41Z</time></trkpt><trkpt lat="39.2585648878186" lon="16.95475683188919"><ele>174.0</ele><time>2026-03-28T14:58:42Z</time></trkpt><trkpt lat="39.258638050764695" lon="16.95480457935378"><ele>172.66666666666666</ele><time>2026-03-28T14:58:43Z</time></trkpt><trkpt lat="39.25870667903616" lon="16.954858696614373"><ele>171.33333333333331</ele><time>2026-03-28T14:58:44.001Z</time></trkpt><trkpt lat="39.25877639198414" lon="16.954909298793986"><ele>170.0</ele><time>2026-03-28T14:58:45.001Z</time></trkpt><trkpt lat="39.258848944358824" lon="16.954947457646647"><ele>170.0</ele><time>2026-03-28T14:58:46.001Z</time></trkpt><trkpt lat="39.258919339323555" lon="16.954984912747026"><ele>170.0</ele><time>2026-03-28T14:58:47.001Z</time></trkpt><trkpt lat="39.258990339159666" lon="16.955018368954786"><ele>170.0</ele><time>2026-03-28T14:58:48.001Z</time></trkpt><trkpt lat="39.259062715905195" lon="16.955054168292783"><ele>170.0</ele><time>2026-03-28T14:58:49.001Z</time></trkpt><trkpt lat="39.259139280081605" lon="16.955090949930582"><ele>170.0</ele><time>2026-03-28T14:58:50.001Z</time></trkpt><trkpt lat="39.25921456752004" lon="16.955127921158773"><ele>170.0</ele><time>2026-03-28T14:58:51.001Z</time></trkpt><trkpt lat="39.25928894005536" lon="16.95515734434668"><ele>168.5</ele><time>2026-03-28T14:58:52.001Z</time></trkpt><trkpt lat="39.259362195617896" lon="16.955181508513867"><ele>167.0</ele><time>2026-03-28T14:58:53.001Z</time></trkpt><trkpt lat="39.25943480154109" lon="16.955216918225236"><ele>165.5</ele><time>2026-03-28T14:58:54.001Z</time></trkpt><trkpt lat="39.25952119360271" lon="16.955247445850993"><ele>164.0</ele><time>2026-03-28T14:58:55.001Z</time></trkpt><trkpt lat="39.25959907932548" lon="16.955224577450615"><ele>162.5</ele><time>2026-03-28T14:58:56.001Z</time></trkpt><trkpt lat="39.25967966329579" lon="16.955180972378248"><ele>161.0</ele><time>2026-03-28T14:58:57.001Z</time></trkpt><trkpt lat="39.259754527353216" lon="16.955130837927253"><ele>159.60000000000002</ele><time>2026-03-28T14:58:58.001Z</time></trkpt><trkpt lat="39.25982636743062" lon="16.95508272858841"><ele>158.20000000000002</ele><time>2026-03-28T14:58:59.001Z</time></trkpt><trkpt lat="39.25992170335283" lon="16.955010120877645"><ele>156.8</ele><time>2026-03-28T14:59:01.001Z</time></trkpt><trkpt lat="39.26004204509655" lon="16.954997791433893"><ele>155.4</ele><time>2026-03-28T14:59:03.001Z</time></trkpt><trkpt lat="39.26010808212447" lon="16.95505141259573"><ele>154.0</ele><time>2026-03-28T14:59:04.001Z</time></trkpt><trkpt lat="39.26017654791287" lon="16.95511625895932"><ele>153.6</ele><time>2026-03-28T14:59:05.001Z</time></trkpt><trkpt lat="39.26025085583524" lon="16.955178463046973"><ele>153.2</ele><time>2026-03-28T14:59:06.001Z</time></trkpt><trkpt lat="39.26033642760686" lon="16.955228405788045"><ele>152.79999999999998</ele><time>2026-03-28T14:59:07.001Z</time></trkpt><trkpt lat="39.26043100731749" lon="16.95528257471744"><ele>152.4</ele><time>2026-03-28T14:59:08.001Z</time></trkpt><trkpt lat="39.26051432191228" lon="16.955368159071984"><ele>152.0</ele><time>2026-03-28T14:59:09.001Z</time></trkpt><trkpt lat="39.26060130271558" lon="16.955432778769076"><ele>150.2</ele><time>2026-03-28T14:59:10.001Z</time></trkpt><trkpt lat="39.260695600521736" lon="16.955479920963686"><ele>148.39999999999998</ele><time>2026-03-28T14:59:11.001Z</time></trkpt><trkpt lat="39.26078479652459" lon="16.95554547026433"><ele>146.60000000000002</ele><time>2026-03-28T14:59:12.001Z</time></trkpt><trkpt lat="39.26087739798108" lon="16.955614662896892"><ele>144.8</ele><time>2026-03-28T14:59:13.001Z</time></trkpt><trkpt lat="39.26096102715501" lon="16.955699370115724"><ele>143.0</ele><time>2026-03-28T14:59:14.001Z</time></trkpt><trkpt lat="39.26104473980059" lon="16.95576340848654"><ele>143.0</ele><time>2026-03-28T14:59:15.001Z</time></trkpt><trkpt lat="39.26111229470822" lon="16.955848928339737"><ele>143.0</ele><time>2026-03-28T14:59:16.001Z</time></trkpt><trkpt lat="39.26117717835846" lon="16.95592717633689"><ele>143.0</ele><time>2026-03-28T14:59:17.001Z</time></trkpt><trkpt lat="39.26123710364674" lon="16.95599957934612"><ele>143.0</ele><time>2026-03-28T14:59:18.001Z</time></trkpt><trkpt lat="39.26127989583505" lon="16.956075630280495"><ele>143.0</ele><time>2026-03-28T14:59:19.001Z</time></trkpt><trkpt lat="39.26132143407838" lon="16.95614303186284"><ele>143.0</ele><time>2026-03-28T14:59:20.001Z</time></trkpt><trkpt lat="39.26137132071194" lon="16.956278987640005"><ele>142.8</ele><time>2026-03-28T14:59:22.001Z</time></trkpt><trkpt lat="39.26142027116172" lon="16.95633937673953"><ele>142.60000000000002</ele><time>2026-03-28T14:59:23.001Z</time></trkpt><trkpt lat="39.261440711356244" lon="16.956421065185797"><ele>142.39999999999998</ele><time>2026-03-28T14:59:24.001Z</time></trkpt><trkpt lat="39.261449835410346" lon="16.956548016941944"><ele>142.2</ele><time>2026-03-28T14:59:26.001Z</time></trkpt><trkpt lat="39.26148230595614" lon="16.956639035926855"><ele>142.0</ele><time>2026-03-28T14:59:29.001Z</time></trkpt><trkpt lat="39.26163140804589" lon="16.956734137527064"><ele>140.4</ele><time>2026-03-28T14:59:30.001Z</time></trkpt><trkpt lat="39.26170771126487" lon="16.956731474027578"><ele>138.79999999999998</ele><time>2026-03-28T14:59:31.001Z</time></trkpt><trkpt lat="39.261787127372116" lon="16.95672434991762"><ele>137.2</ele><time>2026-03-28T14:59:32.001Z</time></trkpt><trkpt lat="39.261871004392304" lon="16.956711617003347"><ele>135.6</ele><time>2026-03-28T14:59:33.001Z</time></trkpt><trkpt lat="39.26193788387" lon="16.956701987030396"><ele>134.0</ele><time>2026-03-28T14:59:34.001Z</time></trkpt><trkpt lat="39.26208278501253" lon="16.956628029113574"><ele>134.0</ele><time>2026-03-28T14:59:36.001Z</time></trkpt><trkpt lat="39.2621586484754" lon="16.95667798459021"><ele>134.0</ele><time>2026-03-28T14:59:37.001Z</time></trkpt><trkpt lat="39.262253470778376" lon="16.95676888809238"><ele>134.0</ele><time>2026-03-28T14:59:38.001Z</time></trkpt><trkpt lat="39.26231566351837" lon="16.95689130449202"><ele>134.0</ele><time>2026-03-28T14:59:39.001Z</time></trkpt><trkpt lat="39.262355111303044" lon="16.95697083310042"><ele>134.0</ele><time>2026-03-28T14:59:40.001Z</time></trkpt><trkpt lat="39.262348825887145" lon="16.957101076020965"><ele>132.16666666666666</ele><time>2026-03-28T14:59:41.001Z</time></trkpt><trkpt lat="39.26237624502359" lon="16.957205765671915"><ele>130.33333333333331</ele><time>2026-03-28T14:59:42.001Z</time></trkpt><trkpt lat="39.26245226781059" lon="16.957255145785297"><ele>128.5</ele><time>2026-03-28T14:59:43.001Z</time></trkpt><trkpt lat="39.2625113036969" lon="16.95731643973276"><ele>126.66666666666666</ele><time>2026-03-28T14:59:44.001Z</time></trkpt><trkpt lat="39.26257918290093" lon="16.957366430909893"><ele>124.83333333333333</ele><time>2026-03-28T14:59:45.001Z</time></trkpt><trkpt lat="39.26264934098917" lon="16.957411737726893"><ele>123.0</ele><time>2026-03-28T14:59:46.001Z</time></trkpt><trkpt lat="39.26272039557765" lon="16.957457181766582"><ele>123.0</ele><time>2026-03-28T14:59:47.001Z</time></trkpt><trkpt lat="39.2627985392439" lon="16.957491160711072"><ele>123.0</ele><time>2026-03-28T14:59:48.001Z</time></trkpt><trkpt lat="39.26286169686109" lon="16.95755570135946"><ele>123.0</ele><time>2026-03-28T14:59:49.001Z</time></trkpt><trkpt lat="39.262923406146015" lon="16.957610663966037"><ele>123.0</ele><time>2026-03-28T14:59:50.001Z</time></trkpt><trkpt lat="39.26298322164136" lon="16.9576736425467"><ele>123.0</ele><time>2026-03-28T14:59:51.001Z</time></trkpt><trkpt lat="39.263049956159385" lon="16.957722257275048"><ele>123.0</ele><time>2026-03-28T14:59:52.001Z</time></trkpt><trkpt lat="39.26310927333475" lon="16.957793720912946"><ele>122.0</ele><time>2026-03-28T14:59:53.001Z</time></trkpt><trkpt lat="39.263179598401535" lon="16.957833468587285"><ele>121.0</ele><time>2026-03-28T14:59:54.001Z</time></trkpt><trkpt lat="39.26324445303335" lon="16.95785261452633"><ele>120.0</ele><time>2026-03-28T14:59:55.001Z</time></trkpt><trkpt lat="39.263311863289" lon="16.95784836747805"><ele>119.0</ele><time>2026-03-28T14:59:56.001Z</time></trkpt><trkpt lat="39.26341043301059" lon="16.957902440712765"><ele>118.0</ele><time>2026-03-28T14:59:58.001Z</time></trkpt><trkpt lat="39.26352457526705" lon="16.95795323464707"><ele>117.0</ele><time>2026-03-28T15:00:00.001Z</time></trkpt><trkpt lat="39.26358091636258" lon="16.95799237887326"><ele>117.0</ele><time>2026-03-28T15:00:01.001Z</time></trkpt><trkpt lat="39.26363911737666" lon="16.9580292341005"><ele>117.00000000000001</ele><time>2026-03-28T15:00:02.001Z</time></trkpt><trkpt lat="39.26368728476734" lon="16.958083931437674"><ele>117.0</ele><time>2026-03-28T15:00:03.001Z</time></trkpt><trkpt lat="39.26374662882671" lon="16.958124639179985"><ele>117.0</ele><time>2026-03-28T15:00:04.001Z</time></trkpt><trkpt lat="39.26381114394958" lon="16.958168894098407"><ele>117.00000000000001</ele><time>2026-03-28T15:00:05.001Z</time></trkpt><trkpt lat="39.26387949402479" lon="16.958215779478554"><ele>117.0</ele><time>2026-03-28T15:00:06.001Z</time></trkpt><trkpt lat="39.26395542488514" lon="16.958265573894888"><ele>117.0</ele><time>2026-03-28T15:00:07.001Z</time></trkpt><trkpt lat="39.264041594577876" lon="16.95829866040197"><ele>116.39999999999999</ele><time>2026-03-28T15:00:08.001Z</time></trkpt><trkpt lat="39.26411525493619" lon="16.95836658410035"><ele>115.79999999999998</ele><time>2026-03-28T15:00:09.001Z</time></trkpt><trkpt lat="39.26421141980706" lon="16.958405158751358"><ele>115.2</ele><time>2026-03-28T15:00:10.001Z</time></trkpt><trkpt lat="39.264300874440124" lon="16.958455601986948"><ele>114.6</ele><time>2026-03-28T15:00:11.001Z</time></trkpt><trkpt lat="39.264382529992815" lon="16.958499621970223"><ele>114.0</ele><time>2026-03-28T15:00:12.001Z</time></trkpt><trkpt lat="39.26445444122802" lon="16.958538256010684"><ele>114.0</ele><time>2026-03-28T15:00:13.001Z</time></trkpt><trkpt lat="39.26455658272515" lon="16.95859135620765"><ele>114.0</ele><time>2026-03-28T15:00:15.001Z</time></trkpt><trkpt lat="39.26461754821257" lon="16.958638874889914"><ele>114.0</ele><time>2026-03-28T15:00:17.001Z</time></trkpt><trkpt lat="39.26468489670185" lon="16.958669700617996"><ele>114.0</ele><time>2026-03-28T15:00:19.001Z</time></trkpt><trkpt lat="39.264780746312184" lon="16.95869175787585"><ele>114.0</ele><time>2026-03-28T15:00:21.001Z</time></trkpt><trkpt lat="39.2648591753471" lon="16.958738424869917"><ele>114.0</ele><time>2026-03-28T15:00:23.001Z</time></trkpt><trkpt lat="39.26492219800744" lon="16.958769209420417"><ele>113.0</ele><time>2026-03-28T15:00:26.001Z</time></trkpt><trkpt lat="39.26510104781879" lon="16.958840153869872"><ele>112.0</ele><time>2026-03-28T15:00:38.001Z</time></trkpt><trkpt lat="39.265152318023915" lon="16.958899120880318"><ele>111.0</ele><time>2026-03-28T15:00:41.001Z</time></trkpt><trkpt lat="39.26520855657255" lon="16.95894240090513"><ele>110.0</ele><time>2026-03-28T15:00:44.001Z</time></trkpt><trkpt lat="39.26527800934942" lon="16.9589847434262"><ele>109.0</ele><time>2026-03-28T15:00:47.001Z</time></trkpt><trkpt lat="39.265343605561576" lon="16.959018377611056"><ele>109.00000000000001</ele><time>2026-03-28T15:00:49.001Z</time></trkpt><trkpt lat="39.26540854875188" lon="16.959059951871797"><ele>109.0</ele><time>2026-03-28T15:00:51.001Z</time></trkpt><trkpt lat="39.2654805560228" lon="16.959107503622096"><ele>109.0</ele><time>2026-03-28T15:00:53.001Z</time></trkpt><trkpt lat="39.26556206740819" lon="16.959149442053768"><ele>109.0</ele><time>2026-03-28T15:00:55.001Z</time></trkpt><trkpt lat="39.265631717138554" lon="16.959197544627504"><ele>109.00000000000001</ele><time>2026-03-28T15:00:57.001Z</time></trkpt><trkpt lat="39.265696662322" lon="16.959234546803227"><ele>109.0</ele><time>2026-03-28T15:01:00.001Z</time></trkpt><trkpt lat="39.26577416536808" lon="16.95928522521305"><ele>109.50000000000001</ele><time>2026-03-28T15:01:03.001Z</time></trkpt><trkpt lat="39.265825314998054" lon="16.95934723293679"><ele>110.0</ele><time>2026-03-28T15:01:05.001Z</time></trkpt><trkpt lat="39.26587653959836" lon="16.959402196388684"><ele>110.5</ele><time>2026-03-28T15:01:07.001Z</time></trkpt><trkpt lat="39.265946230737555" lon="16.959445372115606"><ele>111.0</ele><time>2026-03-28T15:01:09.001Z</time></trkpt><trkpt lat="39.266018730783756" lon="16.959512914035802"><ele>111.50000000000001</ele><time>2026-03-28T15:01:11.001Z</time></trkpt><trkpt lat="39.26611207799934" lon="16.959590022387495"><ele>112.0</ele><time>2026-03-28T15:01:13.001Z</time></trkpt><trkpt lat="39.266205347859895" lon="16.95967288868042"><ele>112.00000000000001</ele><time>2026-03-28T15:01:15Z</time></trkpt><trkpt lat="39.26625656366764" lon="16.95972243365505"><ele>112.0</ele><time>2026-03-28T15:01:16Z</time></trkpt><trkpt lat="39.26630536845579" lon="16.959783250158118"><ele>112.0</ele><time>2026-03-28T15:01:17Z</time></trkpt><trkpt lat="39.266359814016525" lon="16.959839755881372"><ele>112.0</ele><time>2026-03-28T15:01:18Z</time></trkpt><trkpt lat="39.26642441097106" lon="16.959879960908278"><ele>112.00000000000001</ele><time>2026-03-28T15:01:19Z</time></trkpt><trkpt lat="39.26650422002652" lon="16.95989250774823"><ele>112.0</ele><time>2026-03-28T15:01:20Z</time></trkpt><trkpt lat="39.26659420619671" lon="16.95999536489291"><ele>113.28571428571428</ele><time>2026-03-28T15:01:22Z</time></trkpt><trkpt lat="39.266650941801544" lon="16.960036243631677"><ele>114.57142857142857</ele><time>2026-03-28T15:01:23Z</time></trkpt><trkpt lat="39.26671658223627" lon="16.960066903996665"><ele>115.85714285714286</ele><time>2026-03-28T15:01:24Z</time></trkpt><trkpt lat="39.266782628877564" lon="16.960094174905084"><ele>117.14285714285714</ele><time>2026-03-28T15:01:25Z</time></trkpt><trkpt lat="39.2668457711079" lon="16.960120221886232"><ele>118.42857142857142</ele><time>2026-03-28T15:01:26Z</time></trkpt><trkpt lat="39.26690375415709" lon="16.96015443976386"><ele>119.71428571428571</ele><time>2026-03-28T15:01:27Z</time></trkpt><trkpt lat="39.26696725236004" lon="16.960197895627147"><ele>121.0</ele><time>2026-03-28T15:01:28Z</time></trkpt><trkpt lat="39.26705245237068" lon="16.960264838657626"><ele>121.00000000000001</ele><time>2026-03-28T15:01:29Z</time></trkpt><trkpt lat="39.26711841818292" lon="16.96031927414838"><ele>121.0</ele><time>2026-03-28T15:01:30Z</time></trkpt><trkpt lat="39.26716538647009" lon="16.96040912853514"><ele>121.0</ele><time>2026-03-28T15:01:31Z</time></trkpt><trkpt lat="39.267239360845885" lon="16.960455070023393"><ele>121.0</ele><time>2026-03-28T15:01:32Z</time></trkpt><trkpt lat="39.26731148135369" lon="16.96050541523016"><ele>121.00000000000001</ele><time>2026-03-28T15:01:33Z</time></trkpt><trkpt lat="39.2673750350274" lon="16.960548177224748"><ele>121.0</ele><time>2026-03-28T15:01:34Z</time></trkpt><trkpt lat="39.267485119734246" lon="16.96060883996821"><ele>121.5</ele><time>2026-03-28T15:01:36Z</time></trkpt><trkpt lat="39.26758969551309" lon="16.96068334635142"><ele>122.0</ele><time>2026-03-28T15:01:38Z</time></trkpt><trkpt lat="39.267667178339806" lon="16.960793903612053"><ele>122.5</ele><time>2026-03-28T15:01:40Z</time></trkpt><trkpt lat="39.26777329808718" lon="16.960857960453346"><ele>123.0</ele><time>2026-03-28T15:01:42Z</time></trkpt><trkpt lat="39.26788249178617" lon="16.96091683834815"><ele>124.66666666666667</ele><time>2026-03-28T15:01:44Z</time></trkpt><trkpt lat="39.26793957543016" lon="16.960951672977405"><ele>126.33333333333334</ele><time>2026-03-28T15:01:45Z</time></trkpt><trkpt lat="39.26804481157912" lon="16.96103124515278"><ele>128.0</ele><time>2026-03-28T15:01:47Z</time></trkpt><trkpt lat="39.26810018436289" lon="16.961174877262277"><ele>129.66666666666669</ele><time>2026-03-28T15:01:49Z</time></trkpt><trkpt lat="39.268148544884816" lon="16.96124347740667"><ele>131.33333333333334</ele><time>2026-03-28T15:01:50Z</time></trkpt><trkpt lat="39.26817143456041" lon="16.961326023595703"><ele>133.0</ele><time>2026-03-28T15:01:51Z</time></trkpt><trkpt lat="39.268216687425536" lon="16.961474698663395"><ele>134.66666666666669</ele><time>2026-03-28T15:01:53Z</time></trkpt><trkpt lat="39.26829183607201" lon="16.961619386556503"><ele>136.33333333333334</ele><time>2026-03-28T15:01:55Z</time></trkpt><trkpt lat="39.268334941435626" lon="16.961696304377156"><ele>138.0</ele><time>2026-03-28T15:01:56Z</time></trkpt><trkpt lat="39.26839296813623" lon="16.96175582079683"><ele>139.66666666666666</ele><time>2026-03-28T15:01:57Z</time></trkpt><trkpt lat="39.268459527561895" lon="16.961809108943864"><ele>141.33333333333331</ele><time>2026-03-28T15:01:58Z</time></trkpt><trkpt lat="39.26852494389757" lon="16.96185919858644"><ele>143.0</ele><time>2026-03-28T15:01:59Z</time></trkpt><trkpt lat="39.268593588967434" lon="16.96189743959696"><ele>143.33333333333331</ele><time>2026-03-28T15:02:00Z</time></trkpt><trkpt lat="39.268650754970274" lon="16.961944412421516"><ele>143.66666666666666</ele><time>2026-03-28T15:02:01Z</time></trkpt><trkpt lat="39.268704664385375" lon="16.96198893031669"><ele>144.0</ele><time>2026-03-28T15:02:02Z</time></trkpt><trkpt lat="39.26875995609044" lon="16.962030148517094"><ele>144.33333333333334</ele><time>2026-03-28T15:02:03Z</time></trkpt><trkpt lat="39.26886280199463" lon="16.962105622130522"><ele>144.66666666666669</ele><time>2026-03-28T15:02:05Z</time></trkpt><trkpt lat="39.26896975958591" lon="16.96215718778519"><ele>145.0</ele><time>2026-03-28T15:02:07Z</time></trkpt><trkpt lat="39.269067731293056" lon="16.962201080453834"><ele>147.0</ele><time>2026-03-28T15:02:09Z</time></trkpt><trkpt lat="39.26916207184985" lon="16.962252049516625"><ele>149.0</ele><time>2026-03-28T15:02:11Z</time></trkpt><trkpt lat="39.26925970899669" lon="16.962329492140046"><ele>151.0</ele><time>2026-03-28T15:02:13Z</time></trkpt><trkpt lat="39.26934056767709" lon="16.962390201553934"><ele>153.0</ele><time>2026-03-28T15:02:15Z</time></trkpt><trkpt lat="39.26942119633055" lon="16.96237688521793"><ele>155.0</ele><time>2026-03-28T15:02:17Z</time></trkpt><trkpt lat="39.26949565363076" lon="16.96226420906762"><ele>155.0</ele><time>2026-03-28T15:02:19Z</time></trkpt><trkpt lat="39.26953613382795" lon="16.96219888150279"><ele>155.0</ele><time>2026-03-28T15:02:20Z</time></trkpt><trkpt lat="39.269560403537454" lon="16.96210787697931"><ele>155.0</ele><time>2026-03-28T15:02:21Z</time></trkpt><trkpt lat="39.26961131975034" lon="16.962028810172438"><ele>155.0</ele><time>2026-03-28T15:02:22Z</time></trkpt><trkpt lat="39.269675496490294" lon="16.961998748464783"><ele>155.0</ele><time>2026-03-28T15:02:23Z</time></trkpt><trkpt lat="39.269784230104506" lon="16.961981480365708"><ele>155.0</ele><time>2026-03-28T15:02:25Z</time></trkpt><trkpt lat="39.269875447584056" lon="16.962019971422222"><ele>157.5</ele><time>2026-03-28T15:02:27Z</time></trkpt><trkpt lat="39.26991771974808" lon="16.962105582390592"><ele>160.0</ele><time>2026-03-28T15:02:29Z</time></trkpt><trkpt lat="39.269960297568645" lon="16.962204481114956"><ele>162.5</ele><time>2026-03-28T15:02:31Z</time></trkpt><trkpt lat="39.269989613379366" lon="16.96230068541366"><ele>165.0</ele><time>2026-03-28T15:02:33Z</time></trkpt><trkpt lat="39.27005665712868" lon="16.96236523511439"><ele>167.5</ele><time>2026-03-28T15:02:35Z</time></trkpt><trkpt lat="39.27014540679152" lon="16.962404717642087"><ele>170.0</ele><time>2026-03-28T15:02:37Z</time></trkpt><trkpt lat="39.27023085285416" lon="16.96246282002346"><ele>170.0</ele><time>2026-03-28T15:02:39Z</time></trkpt><trkpt lat="39.27031109839359" lon="16.962517185941824"><ele>170.0</ele><time>2026-03-28T15:02:41Z</time></trkpt><trkpt lat="39.27027902488568" lon="16.962587341885765"><ele>170.0</ele><time>2026-03-28T15:02:42Z</time></trkpt><trkpt lat="39.27030924609977" lon="16.96269468723972"><ele>170.0</ele><time>2026-03-28T15:02:44Z</time></trkpt><trkpt lat="39.270402895476025" lon="16.962772253561425"><ele>170.0</ele><time>2026-03-28T15:02:46Z</time></trkpt><trkpt lat="39.270447170020326" lon="16.96287763661117"><ele>170.0</ele><time>2026-03-28T15:02:48Z</time></trkpt><trkpt lat="39.27043984436196" lon="16.96297872898368"><ele>170.14285714285714</ele><time>2026-03-28T15:02:50Z</time></trkpt><trkpt lat="39.27045256497849" lon="16.963068113037856"><ele>170.28571428571428</ele><time>2026-03-28T15:02:53Z</time></trkpt><trkpt lat="39.270503065011084" lon="16.96314585832916"><ele>170.42857142857142</ele><time>2026-03-28T15:02:56Z</time></trkpt><trkpt lat="39.270540031882" lon="16.9632181211598"><ele>170.57142857142856</ele><time>2026-03-28T15:02:59Z</time></trkpt><trkpt lat="39.270560039115786" lon="16.963310670312417"><ele>170.71428571428572</ele><time>2026-03-28T15:03:33Z</time></trkpt><trkpt lat="39.27061912858641" lon="16.963382038650803"><ele>170.85714285714283</ele><time>2026-03-28T15:03:37Z</time></trkpt><trkpt lat="39.27064148634454" lon="16.963462848240642"><ele>171.0</ele><time>2026-03-28T15:03:40Z</time></trkpt><trkpt lat="39.2706822071251" lon="16.963554241657096"><ele>175.5</ele><time>2026-03-28T15:03:44Z</time></trkpt><trkpt lat="39.27074417176303" lon="16.96362714041696"><ele>180.0</ele><time>2026-03-28T15:03:48Z</time></trkpt><trkpt lat="39.27078051178706" lon="16.96373849465597"><ele>184.5</ele><time>2026-03-28T15:03:51Z</time></trkpt><trkpt lat="39.270835912790446" lon="16.963796830956426"><ele>189.0</ele><time>2026-03-28T15:03:54Z</time></trkpt><trkpt lat="39.27080204611399" lon="16.963867681028237"><ele>193.5</ele><time>2026-03-28T15:04:19Z</time></trkpt><trkpt lat="39.27086776827512" lon="16.96389650676346"><ele>198.0</ele><time>2026-03-28T15:05:03Z</time></trkpt><trkpt lat="39.27083052781491" lon="16.963975248868813"><ele>198.0</ele><time>2026-03-28T15:05:06Z</time></trkpt><trkpt lat="39.27083458779344" lon="16.96407794366459"><ele>198.0</ele><time>2026-03-28T15:05:08Z</time></trkpt><trkpt lat="39.270831600999955" lon="16.964214488753363"><ele>198.0</ele><time>2026-03-28T15:05:10Z</time></trkpt><trkpt lat="39.270852623462105" lon="16.964350068145823"><ele>198.0</ele><time>2026-03-28T15:05:12Z</time></trkpt><trkpt lat="39.27088221868028" lon="16.96447844711662"><ele>198.0</ele><time>2026-03-28T15:05:14Z</time></trkpt><trkpt lat="39.270959136023805" lon="16.96459729303795"><ele>197.8</ele><time>2026-03-28T15:05:16Z</time></trkpt><trkpt lat="39.27100435548717" lon="16.9646572990002"><ele>197.60000000000002</ele><time>2026-03-28T15:05:17Z</time></trkpt><trkpt lat="39.2710678792705" lon="16.96477706034816"><ele>197.39999999999998</ele><time>2026-03-28T15:05:19Z</time></trkpt><trkpt lat="39.27110965606804" lon="16.964903370994115"><ele>197.2</ele><time>2026-03-28T15:05:21Z</time></trkpt><trkpt lat="39.27114994347791" lon="16.96501937668596"><ele>197.0</ele><time>2026-03-28T15:05:23Z</time></trkpt><trkpt lat="39.27116156151664" lon="16.965107747447526"><ele>197.28571428571428</ele><time>2026-03-28T15:05:25Z</time></trkpt><trkpt lat="39.27120520572235" lon="16.965197110421308"><ele>197.57142857142858</ele><time>2026-03-28T15:05:36Z</time></trkpt><trkpt lat="39.27126913873964" lon="16.96526482733527"><ele>197.85714285714283</ele><time>2026-03-28T15:05:39Z</time></trkpt><trkpt lat="39.27131104740446" lon="16.96534340224972"><ele>198.14285714285714</ele><time>2026-03-28T15:05:42Z</time></trkpt><trkpt lat="39.271362744860625" lon="16.9653952410915"><ele>198.42857142857142</ele><time>2026-03-28T15:05:44Z</time></trkpt><trkpt lat="39.271398015533556" lon="16.965470193183457"><ele>198.7142857142857</ele><time>2026-03-28T15:05:47Z</time></trkpt><trkpt lat="39.271423308177496" lon="16.965556991879367"><ele>199.0</ele><time>2026-03-28T15:05:49Z</time></trkpt><trkpt lat="39.27144033712166" lon="16.965647826728972"><ele>203.33333333333331</ele><time>2026-03-28T15:05:51Z</time></trkpt><trkpt lat="39.27146485163504" lon="16.965730608919067"><ele>207.66666666666666</ele><time>2026-03-28T15:05:53Z</time></trkpt><trkpt lat="39.271469340682714" lon="16.965834440259545"><ele>212.0</ele><time>2026-03-28T15:06:00Z</time></trkpt><trkpt lat="39.27154551803038" lon="16.965887844235834"><ele>216.33333333333331</ele><time>2026-03-28T15:06:05Z</time></trkpt><trkpt lat="39.271590722828655" lon="16.96580290090681"><ele>220.66666666666666</ele><time>2026-03-28T15:06:07Z</time></trkpt><trkpt lat="39.27163887377696" lon="16.965698203533297"><ele>225.0</ele><time>2026-03-28T15:06:09Z</time></trkpt><trkpt lat="39.27169224798291" lon="16.965614697684856"><ele>225.0</ele><time>2026-03-28T15:06:11Z</time></trkpt><trkpt lat="39.27175879373403" lon="16.965540491783905"><ele>225.0</ele><time>2026-03-28T15:06:13Z</time></trkpt><trkpt lat="39.27182824999572" lon="16.96546688053125"><ele>225.0</ele><time>2026-03-28T15:06:15Z</time></trkpt><trkpt lat="39.27190235119929" lon="16.965415870819005"><ele>225.0</ele><time>2026-03-28T15:06:17Z</time></trkpt><trkpt lat="39.271984894331986" lon="16.96537599571234"><ele>225.0</ele><time>2026-03-28T15:06:19Z</time></trkpt><trkpt lat="39.27208157992639" lon="16.96531875823132"><ele>225.0</ele><time>2026-03-28T15:06:21Z</time></trkpt><trkpt lat="39.27216437910953" lon="16.965196829472045"><ele>225.0</ele><time>2026-03-28T15:06:23Z</time></trkpt><trkpt lat="39.272212847105884" lon="16.965144267074383"><ele>225.0</ele><time>2026-03-28T15:06:24Z</time></trkpt><trkpt lat="39.27225722966589" lon="16.965086349407056"><ele>225.0</ele><time>2026-03-28T15:06:25Z</time></trkpt><trkpt lat="39.27234169781988" lon="16.96499093560495"><ele>225.0</ele><time>2026-03-28T15:06:27Z</time></trkpt><trkpt lat="39.27241960685215" lon="16.96490882783756"><ele>229.6</ele><time>2026-03-28T15:06:29Z</time></trkpt><trkpt lat="39.27247888931085" lon="16.96483105700507"><ele>234.2</ele><time>2026-03-28T15:06:31Z</time></trkpt><trkpt lat="39.272516918033155" lon="16.964725786847854"><ele>238.8</ele><time>2026-03-28T15:06:34Z</time></trkpt><trkpt lat="39.27256487389707" lon="16.9646315725488"><ele>243.4</ele><time>2026-03-28T15:06:36Z</time></trkpt><trkpt lat="39.27264194835964" lon="16.96452863395056"><ele>248.0</ele><time>2026-03-28T15:06:38Z</time></trkpt><trkpt lat="39.272722554043256" lon="16.96442896966313"><ele>248.0</ele><time>2026-03-28T15:06:40Z</time></trkpt><trkpt lat="39.27280245999213" lon="16.96435263763722"><ele>248.0</ele><time>2026-03-28T15:06:42Z</time></trkpt><trkpt lat="39.272924145092624" lon="16.964345196373664"><ele>248.0</ele><time>2026-03-28T15:06:44Z</time></trkpt><trkpt lat="39.273032155889126" lon="16.964366129397074"><ele>248.0</ele><time>2026-03-28T15:06:46Z</time></trkpt><trkpt lat="39.27312731910969" lon="16.96436924574393"><ele>248.0</ele><time>2026-03-28T15:06:48Z</time></trkpt><trkpt lat="39.2732135861421" lon="16.9643389312457"><ele>251.60000000000002</ele><time>2026-03-28T15:06:50Z</time></trkpt><trkpt lat="39.273301358647814" lon="16.964290143483602"><ele>255.20000000000002</ele><time>2026-03-28T15:06:52Z</time></trkpt><trkpt lat="39.27340188726238" lon="16.96425062171689"><ele>258.8</ele><time>2026-03-28T15:06:54Z</time></trkpt><trkpt lat="39.27351396943416" lon="16.964212312544984"><ele>262.40000000000003</ele><time>2026-03-28T15:06:56Z</time></trkpt><trkpt lat="39.27357978248302" lon="16.964191654538055"><ele>266.0</ele><time>2026-03-28T15:06:57Z</time></trkpt><trkpt lat="39.273646178936076" lon="16.964159542680918"><ele>266.0</ele><time>2026-03-28T15:06:58Z</time></trkpt><trkpt lat="39.273705568695526" lon="16.96412254753651"><ele>266.0</ele><time>2026-03-28T15:06:59Z</time></trkpt><trkpt lat="39.273799523969934" lon="16.96405719839343"><ele>266.0</ele><time>2026-03-28T15:07:01Z</time></trkpt><trkpt lat="39.27386286323096" lon="16.96397989767195"><ele>266.0</ele><time>2026-03-28T15:07:03Z</time></trkpt><trkpt lat="39.273951248322234" lon="16.963900753423108"><ele>266.0</ele><time>2026-03-28T15:07:05Z</time></trkpt><trkpt lat="39.274059040510835" lon="16.963814472281594"><ele>269.2</ele><time>2026-03-28T15:07:07Z</time></trkpt><trkpt lat="39.27414725329491" lon="16.963778767837415"><ele>272.40000000000003</ele><time>2026-03-28T15:07:09Z</time></trkpt><trkpt lat="39.27424485796164" lon="16.963779822179706"><ele>275.6</ele><time>2026-03-28T15:07:11Z</time></trkpt><trkpt lat="39.27434226733831" lon="16.963817537970186"><ele>278.8</ele><time>2026-03-28T15:07:13Z</time></trkpt><trkpt lat="39.27443536740947" lon="16.963861686469322"><ele>282.0</ele><time>2026-03-28T15:07:15Z</time></trkpt><trkpt lat="39.27450106625347" lon="16.963936864726563"><ele>282.0</ele><time>2026-03-28T15:07:17Z</time></trkpt><trkpt lat="39.274547223934775" lon="16.96402023941927"><ele>282.0</ele><time>2026-03-28T15:07:19Z</time></trkpt><trkpt lat="39.274549868460326" lon="16.96411094019208"><ele>282.0</ele><time>2026-03-28T15:07:21Z</time></trkpt><trkpt lat="39.27455500729894" lon="16.964204197625882"><ele>282.0</ele><time>2026-03-28T15:07:23Z</time></trkpt><trkpt lat="39.274558659664066" lon="16.964300620975877"><ele>282.0</ele><time>2026-03-28T15:07:25Z</time></trkpt><trkpt lat="39.27457189403379" lon="16.96440817827711"><ele>282.0</ele><time>2026-03-28T15:07:27Z</time></trkpt><trkpt lat="39.27461990896665" lon="16.96449173482757"><ele>281.8333333333333</ele><time>2026-03-28T15:07:29Z</time></trkpt><trkpt lat="39.27469505825285" lon="16.96449191210195"><ele>281.6666666666667</ele><time>2026-03-28T15:07:31Z</time></trkpt><trkpt lat="39.274772317639325" lon="16.964477281294236"><ele>281.5</ele><time>2026-03-28T15:07:33Z</time></trkpt><trkpt lat="39.27484831990887" lon="16.964473030179377"><ele>281.33333333333337</ele><time>2026-03-28T15:07:35Z</time></trkpt><trkpt lat="39.274927010656846" lon="16.964483740850763"><ele>281.1666666666667</ele><time>2026-03-28T15:07:37Z</time></trkpt><trkpt lat="39.27499279537371" lon="16.964545601262717"><ele>281.0</ele><time>2026-03-28T15:07:39Z</time></trkpt><trkpt lat="39.275083238493224" lon="16.964591921978865"><ele>282.0</ele><time>2026-03-28T15:07:41Z</time></trkpt><trkpt lat="39.27520594114668" lon="16.9645827385732"><ele>283.0</ele><time>2026-03-28T15:07:43Z</time></trkpt><trkpt lat="39.275271488537975" lon="16.96457894659676"><ele>284.0</ele><time>2026-03-28T15:07:44Z</time></trkpt><trkpt lat="39.27533915095693" lon="16.96459367197235"><ele>285.0</ele><time>2026-03-28T15:07:45Z</time></trkpt><trkpt lat="39.27540534114797" lon="16.964625740769353"><ele>286.0</ele><time>2026-03-28T15:07:46Z</time></trkpt><trkpt lat="39.27547491793868" lon="16.96464323729731"><ele>287.0</ele><time>2026-03-28T15:07:47Z</time></trkpt><trkpt lat="39.27554701681296" lon="16.964650039810923"><ele>289.8</ele><time>2026-03-28T15:07:48Z</time></trkpt><trkpt lat="39.27561704315964" lon="16.96464897069426"><ele>292.6</ele><time>2026-03-28T15:07:49Z</time></trkpt><trkpt lat="39.275726735453055" lon="16.96462233399672"><ele>295.40000000000003</ele><time>2026-03-28T15:07:51Z</time></trkpt><trkpt lat="39.27582073582279" lon="16.96459698825915"><ele>298.2</ele><time>2026-03-28T15:07:53Z</time></trkpt><trkpt lat="39.275907203274485" lon="16.96453768335319"><ele>301.0</ele><time>2026-03-28T15:07:55.001Z</time></trkpt><trkpt lat="39.2759884398683" lon="16.964498063931003"><ele>301.0</ele><time>2026-03-28T15:07:57.001Z</time></trkpt><trkpt lat="39.27606063975939" lon="16.96446564447721"><ele>301.0</ele><time>2026-03-28T15:07:59.001Z</time></trkpt><trkpt lat="39.27611943641839" lon="16.96440203252813"><ele>301.0</ele><time>2026-03-28T15:08:01.001Z</time></trkpt><trkpt lat="39.2761902838658" lon="16.964351917362105"><ele>301.0</ele><time>2026-03-28T15:08:03.001Z</time></trkpt><trkpt lat="39.2762606557128" lon="16.964272472751183"><ele>301.0</ele><time>2026-03-28T15:08:05.001Z</time></trkpt><trkpt lat="39.276326125895935" lon="16.964175225215527"><ele>301.0</ele><time>2026-03-28T15:08:07.001Z</time></trkpt><trkpt lat="39.27642094430086" lon="16.9640778410689"><ele>299.8</ele><time>2026-03-28T15:08:09.001Z</time></trkpt><trkpt lat="39.27642163285879" lon="16.963924194762498"><ele>298.6</ele><time>2026-03-28T15:08:11.001Z</time></trkpt><trkpt lat="39.27645981439383" lon="16.963794979082756"><ele>297.4</ele><time>2026-03-28T15:08:13.001Z</time></trkpt><trkpt lat="39.27650769987138" lon="16.963690506487843"><ele>296.2</ele><time>2026-03-28T15:08:15.001Z</time></trkpt><trkpt lat="39.276571389827645" lon="16.963594988148447"><ele>295.0</ele><time>2026-03-28T15:08:17.001Z</time></trkpt><trkpt lat="39.27661955526562" lon="16.963513067527373"><ele>298.42857142857144</ele><time>2026-03-28T15:08:19Z</time></trkpt><trkpt lat="39.27665654323504" lon="16.963445451466196"><ele>301.8571428571429</ele><time>2026-03-28T15:08:21Z</time></trkpt><trkpt lat="39.27668924527987" lon="16.96336867505488"><ele>305.28571428571433</ele><time>2026-03-28T15:08:24Z</time></trkpt><trkpt lat="39.27670978609937" lon="16.963287930584954"><ele>308.7142857142857</ele><time>2026-03-28T15:08:28Z</time></trkpt><trkpt lat="39.27674511538511" lon="16.963204799089493"><ele>312.1428571428571</ele><time>2026-03-28T15:08:32Z</time></trkpt><trkpt lat="39.27679448665275" lon="16.963150311176037"><ele>315.5714285714286</ele><time>2026-03-28T15:08:34Z</time></trkpt><trkpt lat="39.27683977813277" lon="16.963085245678993"><ele>319.0</ele><time>2026-03-28T15:08:36Z</time></trkpt><trkpt lat="39.27687224143614" lon="16.962993850804516"><ele>319.0</ele><time>2026-03-28T15:08:38Z</time></trkpt><trkpt lat="39.27693122909075" lon="16.96290326734547"><ele>319.0</ele><time>2026-03-28T15:08:40Z</time></trkpt><trkpt lat="39.27698459141413" lon="16.962834825076694"><ele>319.0</ele><time>2026-03-28T15:08:42Z</time></trkpt><trkpt lat="39.27703102416713" lon="16.962756699257984"><ele>319.0</ele><time>2026-03-28T15:08:55Z</time></trkpt><trkpt lat="39.277101476443995" lon="16.96268566448469"><ele>319.0</ele><time>2026-03-28T15:09:00Z</time></trkpt><trkpt lat="39.27716101301198" lon="16.96260285641376"><ele>319.0</ele><time>2026-03-28T15:09:04Z</time></trkpt><trkpt lat="39.27722755899157" lon="16.962542682629802"><ele>322.3333333333333</ele><time>2026-03-28T15:09:07Z</time></trkpt><trkpt lat="39.27731254185251" lon="16.962510215413918"><ele>325.66666666666663</ele><time>2026-03-28T15:09:10Z</time></trkpt><trkpt lat="39.277366834844585" lon="16.962464685595233"><ele>329.0</ele><time>2026-03-28T15:09:13Z</time></trkpt><trkpt lat="39.277435631103955" lon="16.96241016659552"><ele>332.3333333333333</ele><time>2026-03-28T15:09:16Z</time></trkpt><trkpt lat="39.277498995820984" lon="16.962358701449663"><ele>335.6666666666667</ele><time>2026-03-28T15:09:18Z</time></trkpt><trkpt lat="39.277552727452836" lon="16.962287635923115"><ele>339.0</ele><time>2026-03-28T15:09:20Z</time></trkpt><trkpt lat="39.277618545250895" lon="16.962250941698137"><ele>339.0</ele><time>2026-03-28T15:09:22Z</time></trkpt><trkpt lat="39.27769473619748" lon="16.962176903962508"><ele>339.0</ele><time>2026-03-28T15:09:25Z</time></trkpt><trkpt lat="39.27775863985275" lon="16.962114211173915"><ele>339.0</ele><time>2026-03-28T15:09:27Z</time></trkpt><trkpt lat="39.277814342124344" lon="16.962059750283682"><ele>339.0</ele><time>2026-03-28T15:09:29Z</time></trkpt><trkpt lat="39.27788911546503" lon="16.962004437422287"><ele>339.0</ele><time>2026-03-28T15:09:32Z</time></trkpt><trkpt lat="39.277957288251834" lon="16.961960404459262"><ele>339.0</ele><time>2026-03-28T15:09:34Z</time></trkpt><trkpt lat="39.27803059061136" lon="16.96187924928916"><ele>341.3333333333333</ele><time>2026-03-28T15:09:36Z</time></trkpt><trkpt lat="39.278125498008976" lon="16.961869072135666"><ele>343.6666666666667</ele><time>2026-03-28T15:09:38Z</time></trkpt><trkpt lat="39.27821879442711" lon="16.961880651073436"><ele>346.0</ele><time>2026-03-28T15:09:40Z</time></trkpt><trkpt lat="39.27830356985057" lon="16.96185405636834"><ele>348.33333333333337</ele><time>2026-03-28T15:09:42Z</time></trkpt><trkpt lat="39.27837412998688" lon="16.96183599004077"><ele>350.6666666666667</ele><time>2026-03-28T15:09:44Z</time></trkpt><trkpt lat="39.27845639290161" lon="16.96184587238638"><ele>353.0</ele><time>2026-03-28T15:09:47Z</time></trkpt><trkpt lat="39.278547386175426" lon="16.96182545189413"><ele>353.0</ele><time>2026-03-28T15:09:50Z</time></trkpt><trkpt lat="39.27862669205942" lon="16.961809002388783"><ele>353.0</ele><time>2026-03-28T15:09:52Z</time></trkpt><trkpt lat="39.2787045027443" lon="16.961783965330415"><ele>353.0</ele><time>2026-03-28T15:09:54Z</time></trkpt><trkpt lat="39.278792579673315" lon="16.961735000452542"><ele>353.0</ele><time>2026-03-28T15:09:56Z</time></trkpt><trkpt lat="39.27888392296171" lon="16.961661653114184"><ele>353.0</ele><time>2026-03-28T15:09:58Z</time></trkpt><trkpt lat="39.27896544264713" lon="16.9615683230373"><ele>354.59999999999997</ele><time>2026-03-28T15:10:00Z</time></trkpt><trkpt lat="39.27903772345028" lon="16.961484061481475"><ele>356.2</ele><time>2026-03-28T15:10:02Z</time></trkpt><trkpt lat="39.279113931316765" lon="16.961397474366084"><ele>357.8</ele><time>2026-03-28T15:10:04Z</time></trkpt><trkpt lat="39.27919469451031" lon="16.961310232845168"><ele>359.4</ele><time>2026-03-28T15:10:06Z</time></trkpt><trkpt lat="39.279272718680765" lon="16.961212708117493"><ele>361.0</ele><time>2026-03-28T15:10:08Z</time></trkpt><trkpt lat="39.27935821353929" lon="16.961133388695334"><ele>361.0</ele><time>2026-03-28T15:10:10Z</time></trkpt><trkpt lat="39.279435187383086" lon="16.961060735402928"><ele>361.0</ele><time>2026-03-28T15:10:12Z</time></trkpt><trkpt lat="39.27948089647271" lon="16.96097641631114"><ele>361.0</ele><time>2026-03-28T15:10:14Z</time></trkpt><trkpt lat="39.27947857811511" lon="16.960863555940843"><ele>361.0</ele><time>2026-03-28T15:10:16Z</time></trkpt><trkpt lat="39.279468855206936" lon="16.960747729707666"><ele>361.0</ele><time>2026-03-28T15:10:18Z</time></trkpt><trkpt lat="39.27943335765994" lon="16.960656640266055"><ele>361.0</ele><time>2026-03-28T15:10:20Z</time></trkpt><trkpt lat="39.27938117750824" lon="16.960578244973526"><ele>360.8333333333333</ele><time>2026-03-28T15:10:23Z</time></trkpt><trkpt lat="39.27932769857692" lon="16.960491752959552"><ele>360.66666666666663</ele><time>2026-03-28T15:10:27Z</time></trkpt><trkpt lat="39.27928536179555" lon="16.960430756231315"><ele>360.5</ele><time>2026-03-28T15:10:29Z</time></trkpt><trkpt lat="39.27924381527442" lon="16.96036302008253"><ele>360.3333333333333</ele><time>2026-03-28T15:10:33Z</time></trkpt><trkpt lat="39.279215753953004" lon="16.960287176542018"><ele>360.1666666666667</ele><time>2026-03-28T15:10:48Z</time></trkpt><trkpt lat="39.27918561915316" lon="16.9601902705443"><ele>360.0</ele><time>2026-03-28T15:10:51Z</time></trkpt><trkpt lat="39.27915214794995" lon="16.960070185345092"><ele>360.3333333333333</ele><time>2026-03-28T15:10:54Z</time></trkpt><trkpt lat="39.27912928722473" lon="16.959961323412422"><ele>360.6666666666667</ele><time>2026-03-28T15:10:56Z</time></trkpt><trkpt lat="39.279104038761716" lon="16.959822875129966"><ele>361.0</ele><time>2026-03-28T15:10:58Z</time></trkpt><trkpt lat="39.27909888183644" lon="16.959690687627557"><ele>361.33333333333337</ele><time>2026-03-28T15:11:00Z</time></trkpt><trkpt lat="39.2791134375831" lon="16.959593291814617"><ele>361.6666666666667</ele><time>2026-03-28T15:11:02Z</time></trkpt><trkpt lat="39.279149003415476" lon="16.95952350923733"><ele>362.0</ele><time>2026-03-28T15:11:05Z</time></trkpt><trkpt lat="39.27922438166967" lon="16.95952435271743"><ele>362.0</ele><time>2026-03-28T15:11:40Z</time></trkpt><trkpt lat="39.279290472706805" lon="16.959497582404254"><ele>362.0</ele><time>2026-03-28T15:11:42Z</time></trkpt><trkpt lat="39.27936246379135" lon="16.959479243293035"><ele>362.0</ele><time>2026-03-28T15:11:46Z</time></trkpt><trkpt lat="39.27943035852634" lon="16.95947247700475"><ele>362.0</ele><time>2026-03-28T15:11:49Z</time></trkpt><trkpt lat="39.27951747480915" lon="16.959460869562463"><ele>362.0</ele><time>2026-03-28T15:11:51Z</time></trkpt><trkpt lat="39.279620833556706" lon="16.959417177473718"><ele>362.0</ele><time>2026-03-28T15:11:53Z</time></trkpt><trkpt lat="39.27972636390908" lon="16.959325504412014"><ele>363.33333333333337</ele><time>2026-03-28T15:11:55Z</time></trkpt><trkpt lat="39.27977774646367" lon="16.959260636794763"><ele>364.6666666666667</ele><time>2026-03-28T15:11:56Z</time></trkpt><trkpt lat="39.27982797816938" lon="16.959198114456107"><ele>366.0</ele><time>2026-03-28T15:11:57Z</time></trkpt><trkpt lat="39.279879109668904" lon="16.959136021657457"><ele>367.3333333333333</ele><time>2026-03-28T15:11:58Z</time></trkpt><trkpt lat="39.27992118667139" lon="16.959070969409886"><ele>368.66666666666663</ele><time>2026-03-28T15:11:59Z</time></trkpt><trkpt lat="39.279972842419525" lon="16.959024317691295"><ele>370.0</ele><time>2026-03-28T15:12:00Z</time></trkpt><trkpt lat="39.280076721257984" lon="16.958925508146482"><ele>370.0</ele><time>2026-03-28T15:12:02Z</time></trkpt><trkpt lat="39.28013960770654" lon="16.958860280601858"><ele>370.0</ele><time>2026-03-28T15:12:03Z</time></trkpt><trkpt lat="39.28020200782244" lon="16.95878138549474"><ele>370.0</ele><time>2026-03-28T15:12:04Z</time></trkpt><trkpt lat="39.280244966344625" lon="16.9586857581231"><ele>370.0</ele><time>2026-03-28T15:12:05Z</time></trkpt><trkpt lat="39.28029735487606" lon="16.95861778305954"><ele>370.0</ele><time>2026-03-28T15:12:06Z</time></trkpt><trkpt lat="39.28039070921255" lon="16.95856946032472"><ele>370.0</ele><time>2026-03-28T15:12:08Z</time></trkpt><trkpt lat="39.28047025945233" lon="16.9585724626235"><ele>370.0</ele><time>2026-03-28T15:12:10Z</time></trkpt><trkpt lat="39.2805681203755" lon="16.95861204809574"><ele>370.0</ele><time>2026-03-28T15:12:12Z</time></trkpt><trkpt lat="39.28067521005981" lon="16.95866410296165"><ele>370.0</ele><time>2026-03-28T15:12:14Z</time></trkpt><trkpt lat="39.28077486737603" lon="16.95873101122713"><ele>370.0</ele><time>2026-03-28T15:12:16Z</time></trkpt><trkpt lat="39.280869993556955" lon="16.958759193851993"><ele>370.0</ele><time>2026-03-28T15:12:18Z</time></trkpt><trkpt lat="39.28095514336304" lon="16.958722115068408"><ele>370.66666666666663</ele><time>2026-03-28T15:12:20Z</time></trkpt><trkpt lat="39.28102595770786" lon="16.958670544926484"><ele>371.3333333333333</ele><time>2026-03-28T15:12:22Z</time></trkpt><trkpt lat="39.28110098870733" lon="16.958653144075853"><ele>372.0</ele><time>2026-03-28T15:12:24Z</time></trkpt><trkpt lat="39.281180357647315" lon="16.958637142878132"><ele>372.6666666666667</ele><time>2026-03-28T15:12:27Z</time></trkpt><trkpt lat="39.281255566361274" lon="16.958621010750008"><ele>373.33333333333337</ele><time>2026-03-28T15:12:30Z</time></trkpt><trkpt lat="39.28132179890594" lon="16.9586071982917"><ele>374.0</ele><time>2026-03-28T15:12:33Z</time></trkpt><trkpt lat="39.28139803273922" lon="16.958579884219137"><ele>373.5</ele><time>2026-03-28T15:12:56Z</time></trkpt><trkpt lat="39.28147809027615" lon="16.958544559113438"><ele>373.0</ele><time>2026-03-28T15:12:59Z</time></trkpt><trkpt lat="39.28156279135296" lon="16.95850662452197"><ele>372.5</ele><time>2026-03-28T15:13:02Z</time></trkpt><trkpt lat="39.28162589276926" lon="16.958475562560274"><ele>372.0</ele><time>2026-03-28T15:13:03.999Z</time></trkpt><trkpt lat="39.28169267754522" lon="16.958432285569526"><ele>371.5</ele><time>2026-03-28T15:13:05.999Z</time></trkpt><trkpt lat="39.2817837354587" lon="16.95839067931119"><ele>371.0</ele><time>2026-03-28T15:13:07.999Z</time></trkpt><trkpt lat="39.281890511554636" lon="16.958335231242714"><ele>370.20000000000005</ele><time>2026-03-28T15:13:09.999Z</time></trkpt><trkpt lat="39.28199791053882" lon="16.958317345721902"><ele>369.40000000000003</ele><time>2026-03-28T15:13:11.999Z</time></trkpt><trkpt lat="39.28208866153843" lon="16.95827170869649"><ele>368.6</ele><time>2026-03-28T15:13:13.999Z</time></trkpt><trkpt lat="39.28217216796996" lon="16.95824801477532"><ele>367.8</ele><time>2026-03-28T15:13:15.999Z</time></trkpt><trkpt lat="39.28224754182155" lon="16.95826874421519"><ele>367.0</ele><time>2026-03-28T15:13:17.999Z</time></trkpt><trkpt lat="39.28233155323627" lon="16.958284371731295"><ele>364.20000000000005</ele><time>2026-03-28T15:13:19.999Z</time></trkpt><trkpt lat="39.28242582433112" lon="16.95830008109943"><ele>361.4</ele><time>2026-03-28T15:13:21.999Z</time></trkpt><trkpt lat="39.28253299881985" lon="16.958316194213833"><ele>358.6</ele><time>2026-03-28T15:13:23.999Z</time></trkpt><trkpt lat="39.28264354456251" lon="16.958330930564873"><ele>355.79999999999995</ele><time>2026-03-28T15:13:25.999Z</time></trkpt><trkpt lat="39.282747353272214" lon="16.95832649175666"><ele>353.0</ele><time>2026-03-28T15:13:27.999Z</time></trkpt><trkpt lat="39.282842501957546" lon="16.95836185036"><ele>350.0</ele><time>2026-03-28T15:13:29.999Z</time></trkpt><trkpt lat="39.282940078460655" lon="16.958388347717825"><ele>347.0</ele><time>2026-03-28T15:13:31.999Z</time></trkpt><trkpt lat="39.28302511573536" lon="16.95840796550408"><ele>344.0</ele><time>2026-03-28T15:13:33.999Z</time></trkpt><trkpt lat="39.28309497757118" lon="16.95841741142734"><ele>341.0</ele><time>2026-03-28T15:13:35.999Z</time></trkpt><trkpt lat="39.28316180713942" lon="16.958372875790886"><ele>338.0</ele><time>2026-03-28T15:13:37.999Z</time></trkpt><trkpt lat="39.28322415743221" lon="16.95832032989401"><ele>335.0</ele><time>2026-03-28T15:13:39.999Z</time></trkpt><trkpt lat="39.28329805816764" lon="16.958324431028398"><ele>334.6666666666667</ele><time>2026-03-28T15:13:41.999Z</time></trkpt><trkpt lat="39.283362600704635" lon="16.958317230013233"><ele>334.33333333333337</ele><time>2026-03-28T15:13:43.999Z</time></trkpt><trkpt lat="39.28343315705009" lon="16.958360527555175"><ele>334.0</ele><time>2026-03-28T15:13:46.999Z</time></trkpt><trkpt lat="39.28351730339888" lon="16.958359849076526"><ele>333.6666666666667</ele><time>2026-03-28T15:13:49.999Z</time></trkpt><trkpt lat="39.28356892887784" lon="16.95841142028443"><ele>333.3333333333333</ele><time>2026-03-28T15:13:51.999Z</time></trkpt><trkpt lat="39.28363778626138" lon="16.95840502020187"><ele>333.0</ele><time>2026-03-28T15:13:57.999Z</time></trkpt><trkpt lat="39.28373357296764" lon="16.958384505709432"><ele>333.0</ele><time>2026-03-28T15:14:45.999Z</time></trkpt><trkpt lat="39.28379758837342" lon="16.958345571576526"><ele>333.0</ele><time>2026-03-28T15:14:47.999Z</time></trkpt><trkpt lat="39.28390750470421" lon="16.95827286798571"><ele>333.0</ele><time>2026-03-28T15:14:49.999Z</time></trkpt><trkpt lat="39.28397280673528" lon="16.958253267642505"><ele>333.0</ele><time>2026-03-28T15:14:50.999Z</time></trkpt><trkpt lat="39.28408763669796" lon="16.958268958695534"><ele>333.0</ele><time>2026-03-28T15:14:52.999Z</time></trkpt><trkpt lat="39.284200240813554" lon="16.958261010444375"><ele>332.4</ele><time>2026-03-28T15:14:54.999Z</time></trkpt><trkpt lat="39.284311605611364" lon="16.958285890985003"><ele>331.79999999999995</ele><time>2026-03-28T15:14:56.999Z</time></trkpt><trkpt lat="39.28440794408949" lon="16.95824258251082"><ele>331.2</ele><time>2026-03-28T15:14:58.999Z</time></trkpt><trkpt lat="39.28448440928326" lon="16.95817936502961"><ele>330.6</ele><time>2026-03-28T15:15:00.999Z</time></trkpt><trkpt lat="39.284599681374814" lon="16.9580970395553"><ele>330.0</ele><time>2026-03-28T15:15:02.999Z</time></trkpt><trkpt lat="39.28467839503218" lon="16.95805783630028"><ele>330.0</ele><time>2026-03-28T15:15:03.999Z</time></trkpt><trkpt lat="39.28476077015229" lon="16.958033683294925"><ele>330.0</ele><time>2026-03-28T15:15:04.999Z</time></trkpt><trkpt lat="39.28484894057494" lon="16.95802041432039"><ele>330.0</ele><time>2026-03-28T15:15:05.999Z</time></trkpt><trkpt lat="39.284933046470734" lon="16.957990677600925"><ele>330.0</ele><time>2026-03-28T15:15:06.999Z</time></trkpt><trkpt lat="39.28500448885118" lon="16.957969185946943"><ele>330.0</ele><time>2026-03-28T15:15:07.999Z</time></trkpt><trkpt lat="39.2851183188516" lon="16.957937469827367"><ele>328.6</ele><time>2026-03-28T15:15:09.999Z</time></trkpt><trkpt lat="39.28519736242613" lon="16.95790948076503"><ele>327.2</ele><time>2026-03-28T15:15:11.999Z</time></trkpt><trkpt lat="39.28526376500604" lon="16.957817010749107"><ele>325.79999999999995</ele><time>2026-03-28T15:15:52Z</time></trkpt><trkpt lat="39.28534148980629" lon="16.95772015111457"><ele>324.4</ele><time>2026-03-28T15:15:55Z</time></trkpt><trkpt lat="39.28541281106647" lon="16.95763425319505"><ele>323.0</ele><time>2026-03-28T15:15:57Z</time></trkpt><trkpt lat="39.28545310406471" lon="16.957563901320437"><ele>323.33333333333337</ele><time>2026-03-28T15:15:59Z</time></trkpt><trkpt lat="39.285528353956" lon="16.95748737763831"><ele>323.6666666666667</ele><time>2026-03-28T15:16:02Z</time></trkpt><trkpt lat="39.28560629286364" lon="16.957401070014793"><ele>324.0</ele><time>2026-03-28T15:16:04Z</time></trkpt><trkpt lat="39.28566707594953" lon="16.957363608553322"><ele>324.3333333333333</ele><time>2026-03-28T15:16:05Z</time></trkpt><trkpt lat="39.28573814434693" lon="16.95732004717292"><ele>324.66666666666663</ele><time>2026-03-28T15:16:06Z</time></trkpt><trkpt lat="39.28582407133444" lon="16.957272926377623"><ele>325.0</ele><time>2026-03-28T15:16:07Z</time></trkpt><trkpt lat="39.28591127987752" lon="16.957224489585535"><ele>325.1428571428571</ele><time>2026-03-28T15:16:08Z</time></trkpt><trkpt lat="39.28598860625394" lon="16.95717707775468"><ele>325.28571428571433</ele><time>2026-03-28T15:16:09Z</time></trkpt><trkpt lat="39.286049515938686" lon="16.957115408856907"><ele>325.42857142857144</ele><time>2026-03-28T15:16:10Z</time></trkpt><trkpt lat="39.28609543827189" lon="16.9570580181396"><ele>325.57142857142856</ele><time>2026-03-28T15:16:11Z</time></trkpt><trkpt lat="39.28612179676884" lon="16.956979700103986"><ele>325.71428571428567</ele><time>2026-03-28T15:16:12Z</time></trkpt><trkpt lat="39.28614229535845" lon="16.95690112993013"><ele>325.8571428571429</ele><time>2026-03-28T15:16:13Z</time></trkpt><trkpt lat="39.28615831820963" lon="16.956813494125967"><ele>326.0</ele><time>2026-03-28T15:16:14Z</time></trkpt><trkpt lat="39.28617873657836" lon="16.95671610366106"><ele>327.6</ele><time>2026-03-28T15:16:15Z</time></trkpt><trkpt lat="39.2862077572099" lon="16.956620122354362"><ele>329.20000000000005</ele><time>2026-03-28T15:16:16Z</time></trkpt><trkpt lat="39.28623224444857" lon="16.956527721031314"><ele>330.79999999999995</ele><time>2026-03-28T15:16:17Z</time></trkpt><trkpt lat="39.286276616601214" lon="16.956451315139585"><ele>332.4</ele><time>2026-03-28T15:16:18Z</time></trkpt><trkpt lat="39.286353476448944" lon="16.956362519140175"><ele>334.0</ele><time>2026-03-28T15:16:20Z</time></trkpt><trkpt lat="39.286468122478006" lon="16.95630869954421"><ele>334.2857142857143</ele><time>2026-03-28T15:16:22Z</time></trkpt><trkpt lat="39.286532451686305" lon="16.95629782220403"><ele>334.57142857142856</ele><time>2026-03-28T15:16:23Z</time></trkpt><trkpt lat="39.28659959348654" lon="16.956279379766578"><ele>334.8571428571429</ele><time>2026-03-28T15:16:24Z</time></trkpt><trkpt lat="39.2866694685652" lon="16.956260186498092"><ele>335.1428571428571</ele><time>2026-03-28T15:16:25Z</time></trkpt><trkpt lat="39.28674348591363" lon="16.9562377516829"><ele>335.42857142857144</ele><time>2026-03-28T15:16:26Z</time></trkpt><trkpt lat="39.2868176666548" lon="16.95621052292522"><ele>335.7142857142857</ele><time>2026-03-28T15:16:27Z</time></trkpt><trkpt lat="39.28688867151546" lon="16.95618109729283"><ele>336.0</ele><time>2026-03-28T15:16:28Z</time></trkpt><trkpt lat="39.2869592884914" lon="16.956151832232337"><ele>336.0</ele><time>2026-03-28T15:16:29Z</time></trkpt><trkpt lat="39.287028307956334" lon="16.95612317718015"><ele>336.0</ele><time>2026-03-28T15:16:30Z</time></trkpt><trkpt lat="39.287091097195244" lon="16.956095706372246"><ele>336.0</ele><time>2026-03-28T15:16:31Z</time></trkpt><trkpt lat="39.287151908998375" lon="16.956069100621736"><ele>336.0</ele><time>2026-03-28T15:16:32Z</time></trkpt><trkpt lat="39.287213794934274" lon="16.956042024938952"><ele>336.0</ele><time>2026-03-28T15:16:33Z</time></trkpt><trkpt lat="39.28727920548212" lon="16.956012398854956"><ele>336.0</ele><time>2026-03-28T15:16:34Z</time></trkpt><trkpt lat="39.28734420066154" lon="16.955982477112087"><ele>336.0</ele><time>2026-03-28T15:16:35Z</time></trkpt><trkpt lat="39.28741269266117" lon="16.955948358348103"><ele>334.5</ele><time>2026-03-28T15:16:36Z</time></trkpt><trkpt lat="39.28748569597086" lon="16.955907119506072"><ele>333.0</ele><time>2026-03-28T15:16:37Z</time></trkpt><trkpt lat="39.28755773001242" lon="16.955862267126328"><ele>331.5</ele><time>2026-03-28T15:16:38Z</time></trkpt><trkpt lat="39.2876224415479" lon="16.955797625551206"><ele>330.0</ele><time>2026-03-28T15:16:39Z</time></trkpt><trkpt lat="39.28769466188507" lon="16.955756808355215"><ele>328.5</ele><time>2026-03-28T15:16:40Z</time></trkpt><trkpt lat="39.287772836532746" lon="16.9557436124247"><ele>327.0</ele><time>2026-03-28T15:16:41Z</time></trkpt><trkpt lat="39.28784534791467" lon="16.955710172514504"><ele>330.1666666666667</ele><time>2026-03-28T15:16:42Z</time></trkpt><trkpt lat="39.28791872333893" lon="16.9556743141579"><ele>333.3333333333333</ele><time>2026-03-28T15:16:43Z</time></trkpt><trkpt lat="39.287993534483356" lon="16.955637754036253"><ele>336.5</ele><time>2026-03-28T15:16:44Z</time></trkpt><trkpt lat="39.28806857453736" lon="16.9555994583156"><ele>339.66666666666663</ele><time>2026-03-28T15:16:45Z</time></trkpt><trkpt lat="39.288142992074164" lon="16.95555884867839"><ele>342.8333333333333</ele><time>2026-03-28T15:16:46Z</time></trkpt><trkpt lat="39.28821678653373" lon="16.9555141267712"><ele>346.0</ele><time>2026-03-28T15:16:47Z</time></trkpt><trkpt lat="39.28828973930594" lon="16.955460572312024"><ele>346.0</ele><time>2026-03-28T15:16:48Z</time></trkpt><trkpt lat="39.28835636561232" lon="16.95540668485227"><ele>346.0</ele><time>2026-03-28T15:16:49Z</time></trkpt><trkpt lat="39.28842379521749" lon="16.955357666668526"><ele>346.0</ele><time>2026-03-28T15:16:50Z</time></trkpt><trkpt lat="39.28848266611354" lon="16.955316434835026"><ele>346.0</ele><time>2026-03-28T15:16:51Z</time></trkpt><trkpt lat="39.28857439107097" lon="16.955267973074577"><ele>346.0</ele><time>2026-03-28T15:16:53Z</time></trkpt><trkpt lat="39.288671301590135" lon="16.955232307838436"><ele>346.0</ele><time>2026-03-28T15:16:55Z</time></trkpt><trkpt lat="39.28879473901588" lon="16.955214895356487"><ele>346.0</ele><time>2026-03-28T15:16:57Z</time></trkpt><trkpt lat="39.288866471995284" lon="16.95521502643539"><ele>346.0</ele><time>2026-03-28T15:16:58Z</time></trkpt><trkpt lat="39.288947471627075" lon="16.955198472935628"><ele>346.0</ele><time>2026-03-28T15:16:59Z</time></trkpt><trkpt lat="39.28901244213598" lon="16.95516447034433"><ele>346.0</ele><time>2026-03-28T15:17:00Z</time></trkpt><trkpt lat="39.289085294244856" lon="16.955134349108047"><ele>346.0</ele><time>2026-03-28T15:17:01Z</time></trkpt><trkpt lat="39.28915555238788" lon="16.95510676031911"><ele>346.0</ele><time>2026-03-28T15:17:02Z</time></trkpt><trkpt lat="39.2892232572283" lon="16.95508494680127"><ele>346.0</ele><time>2026-03-28T15:17:03Z</time></trkpt><trkpt lat="39.28929124327763" lon="16.95506981195113"><ele>344.5</ele><time>2026-03-28T15:17:04Z</time></trkpt><trkpt lat="39.2893596867904" lon="16.955055170797607"><ele>343.0</ele><time>2026-03-28T15:17:05Z</time></trkpt><trkpt lat="39.28943417356359" lon="16.955037776404048"><ele>341.5</ele><time>2026-03-28T15:17:06Z</time></trkpt><trkpt lat="39.28951594375335" lon="16.955017725621662"><ele>340.0</ele><time>2026-03-28T15:17:07Z</time></trkpt><trkpt lat="39.289598648641984" lon="16.955003083673077"><ele>338.5</ele><time>2026-03-28T15:17:08Z</time></trkpt><trkpt lat="39.28969000487327" lon="16.95498769920722"><ele>337.0</ele><time>2026-03-28T15:17:09Z</time></trkpt><trkpt lat="39.28979371103611" lon="16.954959458823495"><ele>342.8</ele><time>2026-03-28T15:17:10Z</time></trkpt><trkpt lat="39.28989954458827" lon="16.95490031982308"><ele>348.6</ele><time>2026-03-28T15:17:11Z</time></trkpt><trkpt lat="39.2899928449216" lon="16.954816933320505"><ele>354.40000000000003</ele><time>2026-03-28T15:17:12Z</time></trkpt><trkpt lat="39.29008690360389" lon="16.95474429016916"><ele>360.20000000000005</ele><time>2026-03-28T15:17:13Z</time></trkpt><trkpt lat="39.290177541252326" lon="16.954682799070206"><ele>366.0</ele><time>2026-03-28T15:17:14Z</time></trkpt><trkpt lat="39.29026044096044" lon="16.954626764889145"><ele>366.0</ele><time>2026-03-28T15:17:15Z</time></trkpt><trkpt lat="39.29033558534177" lon="16.95457597274771"><ele>366.0</ele><time>2026-03-28T15:17:16Z</time></trkpt><trkpt lat="39.29041008362194" lon="16.954525345245546"><ele>366.0</ele><time>2026-03-28T15:17:17Z</time></trkpt><trkpt lat="39.290477305326355" lon="16.954472231317776"><ele>366.0</ele><time>2026-03-28T15:17:18Z</time></trkpt><trkpt lat="39.29052329634506" lon="16.954405582992827"><ele>366.0</ele><time>2026-03-28T15:17:19Z</time></trkpt><trkpt lat="39.29060163405339" lon="16.954359938731752"><ele>366.0</ele><time>2026-03-28T15:17:21Z</time></trkpt><trkpt lat="39.29069592271099" lon="16.95441021952712"><ele>366.1666666666667</ele><time>2026-03-28T15:17:23Z</time></trkpt><trkpt lat="39.29075796282617" lon="16.954446730607145"><ele>366.3333333333333</ele><time>2026-03-28T15:17:24Z</time></trkpt><trkpt lat="39.2908211619979" lon="16.954502639232523"><ele>366.5</ele><time>2026-03-28T15:17:25Z</time></trkpt><trkpt lat="39.290894294178564" lon="16.95455306966676"><ele>366.66666666666663</ele><time>2026-03-28T15:17:26Z</time></trkpt><trkpt lat="39.29097501452015" lon="16.954595185920535"><ele>366.8333333333333</ele><time>2026-03-28T15:17:27Z</time></trkpt><trkpt lat="39.29105766290433" lon="16.95462766904826"><ele>367.0</ele><time>2026-03-28T15:17:28Z</time></trkpt><trkpt lat="39.29114365289899" lon="16.954654175972124"><ele>367.0</ele><time>2026-03-28T15:17:29Z</time></trkpt><trkpt lat="39.29123400287713" lon="16.954671150689187"><ele>367.0</ele><time>2026-03-28T15:17:30Z</time></trkpt><trkpt lat="39.291327250931054" lon="16.954682288388753"><ele>367.0</ele><time>2026-03-28T15:17:31Z</time></trkpt><trkpt lat="39.29141839402191" lon="16.954689104602092"><ele>367.0</ele><time>2026-03-28T15:17:32Z</time></trkpt><trkpt lat="39.29150559030806" lon="16.954690618595286"><ele>367.0</ele><time>2026-03-28T15:17:33Z</time></trkpt><trkpt lat="39.29159059467591" lon="16.95468310910692"><ele>367.0</ele><time>2026-03-28T15:17:34Z</time></trkpt><trkpt lat="39.291669016593005" lon="16.954669574235236"><ele>365.8</ele><time>2026-03-28T15:17:35Z</time></trkpt><trkpt lat="39.2917522979973" lon="16.954661152776474"><ele>364.6</ele><time>2026-03-28T15:17:36Z</time></trkpt><trkpt lat="39.291836504398546" lon="16.95465263786259"><ele>363.40000000000003</ele><time>2026-03-28T15:17:37Z</time></trkpt><trkpt lat="39.29192546512399" lon="16.954643642369785"><ele>362.20000000000005</ele><time>2026-03-28T15:17:38Z</time></trkpt><trkpt lat="39.29201962757242" lon="16.95463412089104"><ele>361.0</ele><time>2026-03-28T15:17:39Z</time></trkpt><trkpt lat="39.292110313650824" lon="16.954545530634284"><ele>361.0</ele><time>2026-03-28T15:17:40Z</time></trkpt><trkpt lat="39.292198889264796" lon="16.954507945639854"><ele>361.0</ele><time>2026-03-28T15:17:41Z</time></trkpt><trkpt lat="39.29228095809991" lon="16.95447368766877"><ele>361.0</ele><time>2026-03-28T15:17:42Z</time></trkpt><trkpt lat="39.29236222139496" lon="16.95448763193736"><ele>361.0</ele><time>2026-03-28T15:17:43Z</time></trkpt><trkpt lat="39.292426176802365" lon="16.954458693890476"><ele>361.0</ele><time>2026-03-28T15:17:44Z</time></trkpt><trkpt lat="39.29249412626523" lon="16.95443607113856"><ele>361.0</ele><time>2026-03-28T15:17:45Z</time></trkpt><trkpt lat="39.29255870189545" lon="16.954423181268968"><ele>359.8333333333333</ele><time>2026-03-28T15:17:46Z</time></trkpt><trkpt lat="39.29262479213491" lon="16.954424359127216"><ele>358.66666666666663</ele><time>2026-03-28T15:17:47Z</time></trkpt><trkpt lat="39.29269855973343" lon="16.95443122288504"><ele>357.5</ele><time>2026-03-28T15:17:48Z</time></trkpt><trkpt lat="39.29278578904875" lon="16.954421901451635"><ele>356.3333333333333</ele><time>2026-03-28T15:17:49Z</time></trkpt><trkpt lat="39.29287136048477" lon="16.954393936763427"><ele>355.1666666666667</ele><time>2026-03-28T15:17:50Z</time></trkpt><trkpt lat="39.2929513194857" lon="16.95435677878668"><ele>354.0</ele><time>2026-03-28T15:17:51Z</time></trkpt><trkpt lat="39.29302688975625" lon="16.954329354848348"><ele>353.3333333333333</ele><time>2026-03-28T15:17:52Z</time></trkpt><trkpt lat="39.29310667495345" lon="16.954324306251056"><ele>352.6666666666667</ele><time>2026-03-28T15:17:53Z</time></trkpt><trkpt lat="39.29319047743139" lon="16.954295676961078"><ele>352.0</ele><time>2026-03-28T15:17:54Z</time></trkpt><trkpt lat="39.2932699668903" lon="16.95425332217826"><ele>351.33333333333337</ele><time>2026-03-28T15:17:55Z</time></trkpt><trkpt lat="39.29334376523941" lon="16.954188809902433"><ele>350.6666666666667</ele><time>2026-03-28T15:17:56Z</time></trkpt><trkpt lat="39.29340319808544" lon="16.95410851215521"><ele>350.0</ele><time>2026-03-28T15:17:57Z</time></trkpt><trkpt lat="39.29343592894835" lon="16.954016138240835"><ele>352.6666666666667</ele><time>2026-03-28T15:17:58Z</time></trkpt><trkpt lat="39.293524543144514" lon="16.953952372893646"><ele>355.33333333333337</ele><time>2026-03-28T15:18:00Z</time></trkpt><trkpt lat="39.29360536727857" lon="16.953972334377422"><ele>358.0</ele><time>2026-03-28T15:18:02Z</time></trkpt><trkpt lat="39.29366443468178" lon="16.954022223363555"><ele>360.6666666666667</ele><time>2026-03-28T15:18:03Z</time></trkpt><trkpt lat="39.29373698656926" lon="16.954062419725627"><ele>363.3333333333333</ele><time>2026-03-28T15:18:04Z</time></trkpt><trkpt lat="39.29382075639361" lon="16.954086636125623"><ele>366.0</ele><time>2026-03-28T15:18:05Z</time></trkpt><trkpt lat="39.293902649727976" lon="16.95409752905742"><ele>367.1666666666667</ele><time>2026-03-28T15:18:06Z</time></trkpt><trkpt lat="39.29398460792805" lon="16.954098594339992"><ele>368.3333333333333</ele><time>2026-03-28T15:18:07Z</time></trkpt><trkpt lat="39.294053592485184" lon="16.954101375585644"><ele>369.5</ele><time>2026-03-28T15:18:08Z</time></trkpt><trkpt lat="39.294133612050125" lon="16.954123381368287"><ele>370.66666666666663</ele><time>2026-03-28T15:18:09Z</time></trkpt><trkpt lat="39.294208811249455" lon="16.954134647162736"><ele>371.8333333333333</ele><time>2026-03-28T15:18:10Z</time></trkpt><trkpt lat="39.29428900834389" lon="16.954142959742217"><ele>373.0</ele><time>2026-03-28T15:18:11Z</time></trkpt><trkpt lat="39.29437415470623" lon="16.954141863198704"><ele>373.0</ele><time>2026-03-28T15:18:12Z</time></trkpt><trkpt lat="39.294443409972466" lon="16.9541347825577"><ele>373.0</ele><time>2026-03-28T15:18:13Z</time></trkpt><trkpt lat="39.29452055390743" lon="16.954155034897656"><ele>373.0</ele><time>2026-03-28T15:18:14Z</time></trkpt><trkpt lat="39.29458421204139" lon="16.954178478106986"><ele>373.0</ele><time>2026-03-28T15:18:15Z</time></trkpt><trkpt lat="39.2946615222068" lon="16.954221710635792"><ele>373.0</ele><time>2026-03-28T15:18:16Z</time></trkpt><trkpt lat="39.29475013672509" lon="16.954218410361328"><ele>373.0</ele><time>2026-03-28T15:18:17Z</time></trkpt><trkpt lat="39.29482877008973" lon="16.954190745248958"><ele>373.66666666666663</ele><time>2026-03-28T15:18:18Z</time></trkpt><trkpt lat="39.294898595801165" lon="16.954136444311192"><ele>374.3333333333333</ele><time>2026-03-28T15:18:19Z</time></trkpt><trkpt lat="39.294944319573105" lon="16.95406890768838"><ele>375.0</ele><time>2026-03-28T15:18:20Z</time></trkpt><trkpt lat="39.295015916514274" lon="16.953967777629984"><ele>375.6666666666667</ele><time>2026-03-28T15:18:22Z</time></trkpt><trkpt lat="39.29509842251776" lon="16.953938319195647"><ele>376.33333333333337</ele><time>2026-03-28T15:18:24Z</time></trkpt><trkpt lat="39.29515873811985" lon="16.9540314649732"><ele>377.0</ele><time>2026-03-28T15:18:27Z</time></trkpt><trkpt lat="39.29516708574249" lon="16.95412711364861"><ele>375.8</ele><time>2026-03-28T15:18:28Z</time></trkpt><trkpt lat="39.295136987776296" lon="16.95433903359185"><ele>374.6</ele><time>2026-03-28T15:18:29Z</time></trkpt><trkpt lat="39.29519672455425" lon="16.95438727566007"><ele>373.40000000000003</ele><time>2026-03-28T15:18:30Z</time></trkpt><trkpt lat="39.295272214070636" lon="16.954443282955197"><ele>372.20000000000005</ele><time>2026-03-28T15:18:31Z</time></trkpt><trkpt lat="39.29535895082748" lon="16.954488740379286"><ele>371.0</ele><time>2026-03-28T15:18:32Z</time></trkpt><trkpt lat="39.295442860707624" lon="16.954528641223614"><ele>371.0</ele><time>2026-03-28T15:18:33Z</time></trkpt><trkpt lat="39.29552216909605" lon="16.954561950508605"><ele>371.0</ele><time>2026-03-28T15:18:34Z</time></trkpt><trkpt lat="39.29560261251343" lon="16.954579957472564"><ele>371.0</ele><time>2026-03-28T15:18:35Z</time></trkpt><trkpt lat="39.295681638577136" lon="16.954572237635695"><ele>371.0</ele><time>2026-03-28T15:18:36Z</time></trkpt><trkpt lat="39.29576275881278" lon="16.95455984957231"><ele>371.0</ele><time>2026-03-28T15:18:37Z</time></trkpt><trkpt lat="39.29584865408216" lon="16.954544296630367"><ele>371.0</ele><time>2026-03-28T15:18:38Z</time></trkpt><trkpt lat="39.29594640403954" lon="16.954520708020503"><ele>375.8</ele><time>2026-03-28T15:18:39Z</time></trkpt><trkpt lat="39.29604152431803" lon="16.95449103095916"><ele>380.6</ele><time>2026-03-28T15:18:40Z</time></trkpt><trkpt lat="39.29613131162218" lon="16.954459723542502"><ele>385.4</ele><time>2026-03-28T15:18:41Z</time></trkpt><trkpt lat="39.2962244073516" lon="16.95442848254539"><ele>390.2</ele><time>2026-03-28T15:18:42Z</time></trkpt><trkpt lat="39.29632205447431" lon="16.95437667328891"><ele>395.0</ele><time>2026-03-28T15:18:43Z</time></trkpt><trkpt lat="39.296422483690165" lon="16.954344534521006"><ele>397.66666666666663</ele><time>2026-03-28T15:18:44Z</time></trkpt><trkpt lat="39.29650880035015" lon="16.954312033251743"><ele>400.3333333333333</ele><time>2026-03-28T15:18:45Z</time></trkpt><trkpt lat="39.2965799642413" lon="16.954290984300737"><ele>403.0</ele><time>2026-03-28T15:18:46Z</time></trkpt><trkpt lat="39.29664826820652" lon="16.954288710833335"><ele>405.66666666666663</ele><time>2026-03-28T15:18:47Z</time></trkpt><trkpt lat="39.29672115264932" lon="16.954319866648813"><ele>408.3333333333333</ele><time>2026-03-28T15:18:48Z</time></trkpt><trkpt lat="39.29678760490923" lon="16.95438555285757"><ele>411.0</ele><time>2026-03-28T15:18:49Z</time></trkpt><trkpt lat="39.29683576012968" lon="16.9544705677715"><ele>411.0</ele><time>2026-03-28T15:18:50Z</time></trkpt><trkpt lat="39.29687797885014" lon="16.954550652709752"><ele>411.0</ele><time>2026-03-28T15:18:51Z</time></trkpt><trkpt lat="39.296916704329476" lon="16.95463545045625"><ele>411.0</ele><time>2026-03-28T15:18:52Z</time></trkpt><trkpt lat="39.296947424303404" lon="16.954721966167934"><ele>411.0</ele><time>2026-03-28T15:18:53Z</time></trkpt><trkpt lat="39.29695970044034" lon="16.954802745207328"><ele>411.0</ele><time>2026-03-28T15:18:54Z</time></trkpt><trkpt lat="39.29694826590529" lon="16.954963616996586"><ele>411.0</ele><time>2026-03-28T15:18:56Z</time></trkpt><trkpt lat="39.29695095822484" lon="16.95512577582444"><ele>410.1666666666667</ele><time>2026-03-28T15:18:58Z</time></trkpt><trkpt lat="39.29702954488894" lon="16.95519518271844"><ele>409.33333333333337</ele><time>2026-03-28T15:19:00Z</time></trkpt><trkpt lat="39.29714103616515" lon="16.955229169587227"><ele>408.5</ele><time>2026-03-28T15:19:02Z</time></trkpt><trkpt lat="39.297213042329425" lon="16.95523308606935"><ele>407.6666666666667</ele><time>2026-03-28T15:19:03Z</time></trkpt><trkpt lat="39.29728246898151" lon="16.955242770672882"><ele>406.83333333333337</ele><time>2026-03-28T15:19:04Z</time></trkpt><trkpt lat="39.29734736894444" lon="16.955265415627462"><ele>406.0</ele><time>2026-03-28T15:19:05Z</time></trkpt><trkpt lat="39.297422919893634" lon="16.95535022869318"><ele>409.6666666666667</ele><time>2026-03-28T15:19:07Z</time></trkpt><trkpt lat="39.297515960793945" lon="16.955453127606706"><ele>413.33333333333337</ele><time>2026-03-28T15:19:09Z</time></trkpt><trkpt lat="39.29756470889761" lon="16.955505352110965"><ele>417.0</ele><time>2026-03-28T15:19:10Z</time></trkpt><trkpt lat="39.2976107243269" lon="16.955562570910207"><ele>420.66666666666663</ele><time>2026-03-28T15:19:11Z</time></trkpt><trkpt lat="39.297649511623455" lon="16.95562699778725"><ele>424.3333333333333</ele><time>2026-03-28T15:19:12Z</time></trkpt><trkpt lat="39.29769430027315" lon="16.95570369593893"><ele>428.0</ele><time>2026-03-28T15:19:13Z</time></trkpt><trkpt lat="39.29773681289212" lon="16.95577649651629"><ele>427.99999999999994</ele><time>2026-03-28T15:19:14Z</time></trkpt><trkpt lat="39.297781980422045" lon="16.955851443943864"><ele>428.0</ele><time>2026-03-28T15:19:15Z</time></trkpt><trkpt lat="39.29783825858544" lon="16.95592930914588"><ele>428.0</ele><time>2026-03-28T15:19:16Z</time></trkpt><trkpt lat="39.29789798291963" lon="16.955996015964203"><ele>428.0</ele><time>2026-03-28T15:19:17Z</time></trkpt><trkpt lat="39.29794603505242" lon="16.956056769509658"><ele>427.99999999999994</ele><time>2026-03-28T15:19:18Z</time></trkpt><trkpt lat="39.29801876218739" lon="16.95616031500893"><ele>428.0</ele><time>2026-03-28T15:19:20Z</time></trkpt><trkpt lat="39.29805997073969" lon="16.956259019124328"><ele>431.8571428571429</ele><time>2026-03-28T15:19:22Z</time></trkpt><trkpt lat="39.29808916008299" lon="16.956367281939663"><ele>435.7142857142857</ele><time>2026-03-28T15:19:24Z</time></trkpt><trkpt lat="39.29811264334391" lon="16.95646287989031"><ele>439.57142857142856</ele><time>2026-03-28T15:19:26Z</time></trkpt><trkpt lat="39.298141263567466" lon="16.956539564052225"><ele>443.42857142857144</ele><time>2026-03-28T15:19:28Z</time></trkpt><trkpt lat="39.29818975462216" lon="16.95659804066216"><ele>447.2857142857143</ele><time>2026-03-28T15:19:30Z</time></trkpt><trkpt lat="39.29825423206807" lon="16.956626378512937"><ele>451.14285714285717</ele><time>2026-03-28T15:19:32Z</time></trkpt><trkpt lat="39.298324607460515" lon="16.956632318964832"><ele>455.0</ele><time>2026-03-28T15:19:35Z</time></trkpt><trkpt lat="39.29840302866337" lon="16.956635134015944"><ele>454.99999999999994</ele><time>2026-03-28T15:19:39Z</time></trkpt><trkpt lat="39.29833531181038" lon="16.956632703249127"><ele>455.0</ele><time>2026-03-28T15:19:46Z</time></trkpt><trkpt lat="39.298255505639816" lon="16.956626568375125"><ele>455.0</ele><time>2026-03-28T15:19:48Z</time></trkpt><trkpt lat="39.298155729580515" lon="16.95667728873479"><ele>455.0</ele><time>2026-03-28T15:19:50Z</time></trkpt><trkpt lat="39.29806615690523" lon="16.956719282230726"><ele>454.99999999999994</ele><time>2026-03-28T15:19:52Z</time></trkpt><trkpt lat="39.298014115249195" lon="16.956789044011042"><ele>455.0</ele><time>2026-03-28T15:19:54Z</time></trkpt><trkpt lat="39.29802668232574" lon="16.956939238789293"><ele>457.8</ele><time>2026-03-28T15:19:56Z</time></trkpt><trkpt lat="39.29803078610726" lon="16.95703882545934"><ele>460.6</ele><time>2026-03-28T15:19:58Z</time></trkpt><trkpt lat="39.2980408114108" lon="16.95715829380942"><ele>463.4</ele><time>2026-03-28T15:20:00Z</time></trkpt><trkpt lat="39.298073223529634" lon="16.95731534120035"><ele>466.2</ele><time>2026-03-28T15:20:02Z</time></trkpt><trkpt lat="39.29810725380662" lon="16.957468349286565"><ele>469.0</ele><time>2026-03-28T15:20:04Z</time></trkpt><trkpt lat="39.298129087778634" lon="16.957585432775893"><ele>472.4</ele><time>2026-03-28T15:20:06Z</time></trkpt><trkpt lat="39.29812475511" lon="16.957684610729803"><ele>475.79999999999995</ele><time>2026-03-28T15:20:08Z</time></trkpt><trkpt lat="39.29810907936575" lon="16.95780886221362"><ele>479.20000000000005</ele><time>2026-03-28T15:20:10Z</time></trkpt><trkpt lat="39.298116218337086" lon="16.957951362156848"><ele>482.6</ele><time>2026-03-28T15:20:12Z</time></trkpt><trkpt lat="39.29812891295834" lon="16.958085854962274"><ele>486.0</ele><time>2026-03-28T15:20:14Z</time></trkpt><trkpt lat="39.298117944288904" lon="16.95817584686032"><ele>481.6</ele><time>2026-03-28T15:20:16Z</time></trkpt><trkpt lat="39.2980737934006" lon="16.958283999868346"><ele>477.20000000000005</ele><time>2026-03-28T15:20:18Z</time></trkpt><trkpt lat="39.29802550488951" lon="16.958397075765298"><ele>472.79999999999995</ele><time>2026-03-28T15:20:20Z</time></trkpt><trkpt lat="39.29798459408384" lon="16.958537549906634"><ele>468.4</ele><time>2026-03-28T15:20:22Z</time></trkpt><trkpt lat="39.29794899100982" lon="16.958685450934606"><ele>464.0</ele><time>2026-03-28T15:20:24Z</time></trkpt><trkpt lat="39.29790486399756" lon="16.958820465666687"><ele>463.99999999999994</ele><time>2026-03-28T15:20:26Z</time></trkpt><trkpt lat="39.297855869471775" lon="16.958930358095298"><ele>464.0</ele><time>2026-03-28T15:20:28Z</time></trkpt><trkpt lat="39.29779077578704" lon="16.959054395845584"><ele>464.0</ele><time>2026-03-28T15:20:30Z</time></trkpt><trkpt lat="39.29775576554088" lon="16.95914432972975"><ele>464.0</ele><time>2026-03-28T15:20:31Z</time></trkpt><trkpt lat="39.29772919980136" lon="16.9592312094399"><ele>463.99999999999994</ele><time>2026-03-28T15:20:32Z</time></trkpt><trkpt lat="39.297693708595304" lon="16.959316382411536"><ele>464.0</ele><time>2026-03-28T15:20:33Z</time></trkpt><trkpt lat="39.29765141065643" lon="16.95938389746626"><ele>467.57142857142867</ele><time>2026-03-28T15:20:34Z</time></trkpt><trkpt lat="39.297603200629" lon="16.959459436893688"><ele>471.14285714285717</ele><time>2026-03-28T15:20:35Z</time></trkpt><trkpt lat="39.297560437265716" lon="16.959537598471503"><ele>474.7142857142858</ele><time>2026-03-28T15:20:36Z</time></trkpt><trkpt lat="39.29751648604204" lon="16.95961123099087"><ele>478.28571428571433</ele><time>2026-03-28T15:20:37Z</time></trkpt><trkpt lat="39.29746541171636" lon="16.95968066234096"><ele>481.8571428571429</ele><time>2026-03-28T15:20:38Z</time></trkpt><trkpt lat="39.29741848345655" lon="16.959740899098076"><ele>485.42857142857144</ele><time>2026-03-28T15:20:39Z</time></trkpt><trkpt lat="39.29739194683558" lon="16.959816506193267"><ele>489.0</ele><time>2026-03-28T15:20:40Z</time></trkpt><trkpt lat="39.29736579308008" lon="16.95990757420098"><ele>489.0</ele><time>2026-03-28T15:20:41Z</time></trkpt><trkpt lat="39.29731908254023" lon="16.959986804041613"><ele>489.0</ele><time>2026-03-28T15:20:42Z</time></trkpt><trkpt lat="39.2972746654197" lon="16.960052534865852"><ele>489.0</ele><time>2026-03-28T15:20:43Z</time></trkpt><trkpt lat="39.29718390906687" lon="16.96014196244726"><ele>489.0</ele><time>2026-03-28T15:20:45Z</time></trkpt><trkpt lat="39.297106401614755" lon="16.96024556300657"><ele>489.0</ele><time>2026-03-28T15:20:47Z</time></trkpt><trkpt lat="39.29707748208869" lon="16.960364810709574"><ele>490.4</ele><time>2026-03-28T15:20:48Z</time></trkpt><trkpt lat="39.29700271798353" lon="16.960402756301523"><ele>491.79999999999995</ele><time>2026-03-28T15:20:49Z</time></trkpt><trkpt lat="39.29691666810654" lon="16.960384984890247"><ele>493.20000000000005</ele><time>2026-03-28T15:20:50Z</time></trkpt><trkpt lat="39.296829662485116" lon="16.96040721218592"><ele>494.6</ele><time>2026-03-28T15:20:51Z</time></trkpt><trkpt lat="39.29675261649748" lon="16.96048873844371"><ele>496.0</ele><time>2026-03-28T15:20:52Z</time></trkpt><trkpt lat="39.29667915564917" lon="16.960564393587408"><ele>496.00000000000006</ele><time>2026-03-28T15:20:53Z</time></trkpt><trkpt lat="39.296592712393014" lon="16.960598127943626"><ele>496.0</ele><time>2026-03-28T15:20:54Z</time></trkpt><trkpt lat="39.29651752990736" lon="16.96063682927745"><ele>496.0</ele><time>2026-03-28T15:20:55Z</time></trkpt><trkpt lat="39.2964298266144" lon="16.9606099966326"><ele>496.0</ele><time>2026-03-28T15:20:56Z</time></trkpt><trkpt lat="39.296352838224664" lon="16.960671500697178"><ele>496.00000000000006</ele><time>2026-03-28T15:20:57Z</time></trkpt><trkpt lat="39.296325312981665" lon="16.96077539888559"><ele>496.0</ele><time>2026-03-28T15:20:58Z</time></trkpt><trkpt lat="39.2962889881743" lon="16.96088479236438"><ele>496.50000000000006</ele><time>2026-03-28T15:20:59Z</time></trkpt><trkpt lat="39.29622935029311" lon="16.96097718567727"><ele>497.0</ele><time>2026-03-28T15:21:00Z</time></trkpt><trkpt lat="39.2961731498835" lon="16.96105720479084"><ele>497.5</ele><time>2026-03-28T15:21:01Z</time></trkpt><trkpt lat="39.296121893918766" lon="16.961136710548136"><ele>498.0</ele><time>2026-03-28T15:21:02Z</time></trkpt><trkpt lat="39.29610134612767" lon="16.961242110728087"><ele>498.50000000000006</ele><time>2026-03-28T15:21:03Z</time></trkpt><trkpt lat="39.29607054230074" lon="16.96135093436341"><ele>499.0</ele><time>2026-03-28T15:21:04Z</time></trkpt><trkpt lat="39.29600414221069" lon="16.961464137110955"><ele>499.0</ele><time>2026-03-28T15:21:05Z</time></trkpt><trkpt lat="39.295904640597094" lon="16.961506519257757"><ele>499.0</ele><time>2026-03-28T15:21:06Z</time></trkpt><trkpt lat="39.295824109593255" lon="16.961604124883507"><ele>499.0</ele><time>2026-03-28T15:21:07Z</time></trkpt><trkpt lat="39.29574810973339" lon="16.961681604324284"><ele>499.0</ele><time>2026-03-28T15:21:08Z</time></trkpt><trkpt lat="39.29568308530996" lon="16.961718278368608"><ele>499.0</ele><time>2026-03-28T15:21:09Z</time></trkpt><trkpt lat="39.29558552713894" lon="16.96177483952535"><ele>498.2</ele><time>2026-03-28T15:21:10Z</time></trkpt><trkpt lat="39.29551115764315" lon="16.961865134354415"><ele>497.4</ele><time>2026-03-28T15:21:11Z</time></trkpt><trkpt lat="39.295452417147004" lon="16.96195212308059"><ele>496.6</ele><time>2026-03-28T15:21:12Z</time></trkpt><trkpt lat="39.29540495919507" lon="16.96203806656105"><ele>495.8</ele><time>2026-03-28T15:21:13Z</time></trkpt><trkpt lat="39.295337591907824" lon="16.962123382581638"><ele>495.0</ele><time>2026-03-28T15:21:15Z</time></trkpt><trkpt lat="39.29520822376607" lon="16.96215639194159"><ele>495.0</ele><time>2026-03-28T15:21:17Z</time></trkpt><trkpt lat="39.29509382088323" lon="16.96225252048604"><ele>495.0</ele><time>2026-03-28T15:21:19Z</time></trkpt><trkpt lat="39.295072917495" lon="16.962361073653792"><ele>495.0</ele><time>2026-03-28T15:21:20Z</time></trkpt><trkpt lat="39.29503688636102" lon="16.96245296242038"><ele>495.0</ele><time>2026-03-28T15:21:21Z</time></trkpt><trkpt lat="39.29498783669114" lon="16.962541009164177"><ele>495.0</ele><time>2026-03-28T15:21:22Z</time></trkpt><trkpt lat="39.29495275891065" lon="16.962620353124986"><ele>497.0</ele><time>2026-03-28T15:21:23Z</time></trkpt><trkpt lat="39.29490859531435" lon="16.962711758086357"><ele>499.0</ele><time>2026-03-28T15:21:25Z</time></trkpt><trkpt lat="39.29488222305289" lon="16.96279249909718"><ele>501.0</ele><time>2026-03-28T15:21:28Z</time></trkpt><trkpt lat="39.29484630131403" lon="16.962883851064692"><ele>503.0</ele><time>2026-03-28T15:21:31Z</time></trkpt><trkpt lat="39.294835565307864" lon="16.96297054292427"><ele>505.0</ele><time>2026-03-28T15:21:33Z</time></trkpt><trkpt lat="39.29482349274942" lon="16.963068027207132"><ele>507.0</ele><time>2026-03-28T15:21:35Z</time></trkpt><trkpt lat="39.29496715330441" lon="16.963215212566674"><ele>507.0</ele><time>2026-03-28T15:21:37Z</time></trkpt><trkpt lat="39.29499342004635" lon="16.96333048389165"><ele>507.0</ele><time>2026-03-28T15:21:39Z</time></trkpt><trkpt lat="39.29493220002827" lon="16.963380783563768"><ele>507.0</ele><time>2026-03-28T15:21:40Z</time></trkpt><trkpt lat="39.29492638493525" lon="16.9634728592109"><ele>507.0</ele><time>2026-03-28T15:21:42Z</time></trkpt><trkpt lat="39.29490234372647" lon="16.963556970014423"><ele>507.0</ele><time>2026-03-28T15:21:44Z</time></trkpt><trkpt lat="39.29487400638304" lon="16.963650322800298"><ele>507.0</ele><time>2026-03-28T15:21:46Z</time></trkpt><trkpt lat="39.29484829093503" lon="16.963725763806348"><ele>507.0</ele><time>2026-03-28T15:21:47Z</time></trkpt><trkpt lat="39.294790491317414" lon="16.963802781596264"><ele>506.5</ele><time>2026-03-28T15:21:48Z</time></trkpt><trkpt lat="39.29473771580197" lon="16.963876840755624"><ele>506.0</ele><time>2026-03-28T15:21:49Z</time></trkpt><trkpt lat="39.294681431873975" lon="16.963945251742985"><ele>505.5</ele><time>2026-03-28T15:21:50Z</time></trkpt><trkpt lat="39.294634767983965" lon="16.964030497629718"><ele>505.0</ele><time>2026-03-28T15:21:51Z</time></trkpt><trkpt lat="39.29460314972498" lon="16.964122846862026"><ele>504.5</ele><time>2026-03-28T15:21:52Z</time></trkpt><trkpt lat="39.29453952733993" lon="16.964184453174223"><ele>504.0</ele><time>2026-03-28T15:21:53Z</time></trkpt><trkpt lat="39.294481707410036" lon="16.96426326568385"><ele>504.0</ele><time>2026-03-28T15:21:54Z</time></trkpt><trkpt lat="39.29443407163883" lon="16.964365289831772"><ele>504.0</ele><time>2026-03-28T15:21:55Z</time></trkpt><trkpt lat="39.29440236556657" lon="16.96446932650739"><ele>504.0</ele><time>2026-03-28T15:21:56Z</time></trkpt><trkpt lat="39.29435526143618" lon="16.964561519890555"><ele>504.0</ele><time>2026-03-28T15:21:57Z</time></trkpt><trkpt lat="39.29431579843658" lon="16.964666506364072"><ele>504.0</ele><time>2026-03-28T15:21:58Z</time></trkpt><trkpt lat="39.294270392640804" lon="16.964776493751973"><ele>504.0</ele><time>2026-03-28T15:21:59Z</time></trkpt><trkpt lat="39.29426063356214" lon="16.964861611759282"><ele>504.0</ele><time>2026-03-28T15:22:00Z</time></trkpt><trkpt lat="39.29429121436766" lon="16.964998937158473"><ele>504.0</ele><time>2026-03-28T15:22:02Z</time></trkpt><trkpt lat="39.29424065149159" lon="16.965123952678663"><ele>504.0</ele><time>2026-03-28T15:22:04Z</time></trkpt><trkpt lat="39.29421036438161" lon="16.965197948627623"><ele>504.0</ele><time>2026-03-28T15:22:05Z</time></trkpt><trkpt lat="39.29414895284453" lon="16.96523682926776"><ele>504.0</ele><time>2026-03-28T15:22:06Z</time></trkpt><trkpt lat="39.294118607117426" lon="16.96530997034086"><ele>502.8333333333333</ele><time>2026-03-28T15:22:07Z</time></trkpt><trkpt lat="39.294078222458225" lon="16.965385201144677"><ele>501.66666666666663</ele><time>2026-03-28T15:22:08Z</time></trkpt><trkpt lat="39.29405752122584" lon="16.965473831920207"><ele>500.5</ele><time>2026-03-28T15:22:09Z</time></trkpt><trkpt lat="39.29403399494591" lon="16.965574558165773"><ele>499.3333333333333</ele><time>2026-03-28T15:22:10Z</time></trkpt><trkpt lat="39.29401212342248" lon="16.96567358468103"><ele>498.16666666666663</ele><time>2026-03-28T15:22:11Z</time></trkpt><trkpt lat="39.29398795093584" lon="16.965752493837112"><ele>497.0</ele><time>2026-03-28T15:22:12Z</time></trkpt><trkpt lat="39.293886928296395" lon="16.965981931099996"><ele>503.75</ele><time>2026-03-28T15:22:14Z</time></trkpt><trkpt lat="39.29407406505055" lon="16.965967899765555"><ele>510.5</ele><time>2026-03-28T15:22:15Z</time></trkpt><trkpt lat="39.29416489113952" lon="16.965845124065687"><ele>517.25</ele><time>2026-03-28T15:22:17Z</time></trkpt><trkpt lat="39.29421870782868" lon="16.96577422337698"><ele>524.0</ele><time>2026-03-28T15:22:18Z</time></trkpt><trkpt lat="39.29427553326507" lon="16.965705802706708"><ele>524.0</ele><time>2026-03-28T15:22:19Z</time></trkpt><trkpt lat="39.29433150407406" lon="16.965641124785403"><ele>524.0</ele><time>2026-03-28T15:22:20Z</time></trkpt><trkpt lat="39.29439104840588" lon="16.96557593936214"><ele>524.0</ele><time>2026-03-28T15:22:21Z</time></trkpt><trkpt lat="39.29446931136499" lon="16.96551456468366"><ele>524.0</ele><time>2026-03-28T15:22:23Z</time></trkpt><trkpt lat="39.29440071305792" lon="16.96542492246429"><ele>524.0</ele><time>2026-03-28T15:22:25Z</time></trkpt><trkpt lat="39.29451747731848" lon="16.965498852368604"><ele>524.0</ele><time>2026-03-28T15:22:28Z</time></trkpt><trkpt lat="39.29445347249231" lon="16.965636251346268"><ele>524.0</ele><time>2026-03-28T15:22:30Z</time></trkpt><trkpt lat="39.29437514824323" lon="16.96575870515723"><ele>524.0</ele><time>2026-03-28T15:22:32Z</time></trkpt><trkpt lat="39.294332077353666" lon="16.965821981487668"><ele>524.0</ele><time>2026-03-28T15:22:33Z</time></trkpt><trkpt lat="39.294315214188686" lon="16.96591249209702"><ele>524.0</ele><time>2026-03-28T15:22:34Z</time></trkpt><trkpt lat="39.29427804614571" lon="16.966006417038617"><ele>527.8333333333333</ele><time>2026-03-28T15:22:35Z</time></trkpt><trkpt lat="39.29426757900237" lon="16.966112816910247"><ele>531.6666666666666</ele><time>2026-03-28T15:22:36Z</time></trkpt><trkpt lat="39.294256061139464" lon="16.966217125913666"><ele>535.5</ele><time>2026-03-28T15:22:37Z</time></trkpt><trkpt lat="39.294254615022496" lon="16.96632908888088"><ele>539.3333333333334</ele><time>2026-03-28T15:22:38Z</time></trkpt><trkpt lat="39.2942232018749" lon="16.96642726238998"><ele>543.1666666666667</ele><time>2026-03-28T15:22:39Z</time></trkpt><trkpt lat="39.2942037043903" lon="16.966522638024696"><ele>547.0</ele><time>2026-03-28T15:22:40Z</time></trkpt><trkpt lat="39.29418728793349" lon="16.966607894088284"><ele>545.0</ele><time>2026-03-28T15:22:41Z</time></trkpt><trkpt lat="39.294133704613074" lon="16.966765388627415"><ele>543.0</ele><time>2026-03-28T15:22:43Z</time></trkpt><trkpt lat="39.29408494891773" lon="16.966853337703835"><ele>541.0</ele><time>2026-03-28T15:22:44Z</time></trkpt><trkpt lat="39.29401628320135" lon="16.966925722699987"><ele>539.0</ele><time>2026-03-28T15:22:45Z</time></trkpt><trkpt lat="39.29394957477902" lon="16.96698014987616"><ele>537.0</ele><time>2026-03-28T15:22:46Z</time></trkpt><trkpt lat="39.29387886558795" lon="16.96700840118214"><ele>537.0</ele><time>2026-03-28T15:22:47Z</time></trkpt><trkpt lat="39.29382508739053" lon="16.96708298045074"><ele>537.0</ele><time>2026-03-28T15:22:48Z</time></trkpt><trkpt lat="39.293771601881794" lon="16.96719114077074"><ele>537.0</ele><time>2026-03-28T15:22:49Z</time></trkpt><trkpt lat="39.293757473688366" lon="16.967297651500612"><ele>537.0</ele><time>2026-03-28T15:22:50Z</time></trkpt><trkpt lat="39.29375374378843" lon="16.967395020018213"><ele>537.0</ele><time>2026-03-28T15:22:51Z</time></trkpt><trkpt lat="39.293828685140475" lon="16.967505832594632"><ele>543.3333333333334</ele><time>2026-03-28T15:22:52Z</time></trkpt><trkpt lat="39.29378691795534" lon="16.967620858504"><ele>549.6666666666666</ele><time>2026-03-28T15:22:53Z</time></trkpt><trkpt lat="39.293709268784845" lon="16.967690263882577"><ele>556.0</ele><time>2026-03-28T15:22:54Z</time></trkpt><trkpt lat="39.29364997281798" lon="16.96773346430764"><ele>562.3333333333333</ele><time>2026-03-28T15:22:55Z</time></trkpt><trkpt lat="39.293565501839474" lon="16.967762056754644"><ele>568.6666666666666</ele><time>2026-03-28T15:22:56Z</time></trkpt><trkpt lat="39.29350053238917" lon="16.967823075364063"><ele>575.0</ele><time>2026-03-28T15:22:57Z</time></trkpt><trkpt lat="39.29343744938204" lon="16.967898065366036"><ele>575.0</ele><time>2026-03-28T15:22:58Z</time></trkpt><trkpt lat="39.29338537364293" lon="16.96798677849923"><ele>575.0</ele><time>2026-03-28T15:22:59Z</time></trkpt><trkpt lat="39.29331538002436" lon="16.968077660684816"><ele>575.0</ele><time>2026-03-28T15:23:00Z</time></trkpt><trkpt lat="39.2932334197097" lon="16.96813028175669"><ele>575.0</ele><time>2026-03-28T15:23:01Z</time></trkpt><trkpt lat="39.29315455570477" lon="16.96815606579992"><ele>575.0</ele><time>2026-03-28T15:23:02Z</time></trkpt><trkpt lat="39.29305273950341" lon="16.968160484442414"><ele>572.5</ele><time>2026-03-28T15:23:04Z</time></trkpt><trkpt lat="39.29301202540911" lon="16.967983313884137"><ele>570.0</ele><time>2026-03-28T15:23:05Z</time></trkpt><trkpt lat="39.29302338290431" lon="16.968073505107505"><ele>567.5</ele><time>2026-03-28T15:23:06Z</time></trkpt><trkpt lat="39.29300909555905" lon="16.96815873766718"><ele>565.0</ele><time>2026-03-28T15:23:09Z</time></trkpt><trkpt lat="39.293034291760975" lon="16.968424957521126"><ele>565.0</ele><time>2026-03-28T15:23:23Z</time></trkpt><trkpt lat="39.29308583386082" lon="16.968481200811507"><ele>565.0</ele><time>2026-03-28T15:23:24Z</time></trkpt><trkpt lat="39.29317436136118" lon="16.968562379349653"><ele>565.0</ele><time>2026-03-28T15:23:26Z</time></trkpt><trkpt lat="39.29325664533447" lon="16.968625634302576"><ele>565.0</ele><time>2026-03-28T15:23:28Z</time></trkpt><trkpt lat="39.29331691013326" lon="16.968663307893635"><ele>565.0</ele><time>2026-03-28T15:23:30Z</time></trkpt><trkpt lat="39.293277942035125" lon="16.968740616657705"><ele>565.0</ele><time>2026-03-28T15:23:32Z</time></trkpt><trkpt lat="39.29323996049346" lon="16.96881802238481"><ele>568.1428571428571</ele><time>2026-03-28T15:23:33Z</time></trkpt><trkpt lat="39.29320712292543" lon="16.968892973324422"><ele>571.2857142857142</ele><time>2026-03-28T15:23:34Z</time></trkpt><trkpt lat="39.29318278760551" lon="16.968969316197647"><ele>574.4285714285714</ele><time>2026-03-28T15:23:35Z</time></trkpt><trkpt lat="39.29315879217803" lon="16.969045030570452"><ele>577.5714285714286</ele><time>2026-03-28T15:23:36Z</time></trkpt><trkpt lat="39.293150474417935" lon="16.969135296649632"><ele>580.7142857142858</ele><time>2026-03-28T15:23:37Z</time></trkpt><trkpt lat="39.29313687062704" lon="16.96922198884748"><ele>583.8571428571429</ele><time>2026-03-28T15:23:38Z</time></trkpt><trkpt lat="39.293177101696415" lon="16.969311044564307"><ele>587.0</ele><time>2026-03-28T15:23:39Z</time></trkpt><trkpt lat="39.29316526470407" lon="16.969427422901894"><ele>588.5</ele><time>2026-03-28T15:23:41Z</time></trkpt><trkpt lat="39.293163641380346" lon="16.96953554155311"><ele>590.0</ele><time>2026-03-28T15:23:44Z</time></trkpt><trkpt lat="39.293345386588655" lon="16.96958054915853"><ele>591.5</ele><time>2026-03-28T15:23:46Z</time></trkpt><trkpt lat="39.29340744213911" lon="16.969476495678244"><ele>593.0</ele><time>2026-03-28T15:23:48Z</time></trkpt><trkpt lat="39.29346863313362" lon="16.969399148334205"><ele>593.0</ele><time>2026-03-28T15:23:49Z</time></trkpt><trkpt lat="39.29352870651855" lon="16.969331063613197"><ele>593.0</ele><time>2026-03-28T15:23:50Z</time></trkpt><trkpt lat="39.29360264178533" lon="16.9692459240479"><ele>593.0</ele><time>2026-03-28T15:23:51Z</time></trkpt><trkpt lat="39.29368470123697" lon="16.96914965069873"><ele>593.0</ele><time>2026-03-28T15:23:52Z</time></trkpt><trkpt lat="39.29376721064096" lon="16.969049098296427"><ele>593.0</ele><time>2026-03-28T15:23:53Z</time></trkpt><trkpt lat="39.29385401008481" lon="16.96894702086909"><ele>591.75</ele><time>2026-03-28T15:23:54Z</time></trkpt><trkpt lat="39.293950589433784" lon="16.968842549898167"><ele>590.5</ele><time>2026-03-28T15:23:55Z</time></trkpt><trkpt lat="39.29405172279856" lon="16.968743786488705"><ele>589.25</ele><time>2026-03-28T15:23:56Z</time></trkpt><trkpt lat="39.29415806965879" lon="16.968644700028502"><ele>588.0</ele><time>2026-03-28T15:23:57Z</time></trkpt><trkpt lat="39.294260865418075" lon="16.968549336455215"><ele>588.0</ele><time>2026-03-28T15:23:58Z</time></trkpt><trkpt lat="39.294370831261325" lon="16.96844148230945"><ele>588.0</ele><time>2026-03-28T15:23:59Z</time></trkpt><trkpt lat="39.29448771963893" lon="16.968325300026898"><ele>588.0</ele><time>2026-03-28T15:24:00Z</time></trkpt><trkpt lat="39.29460691269796" lon="16.968209075163877"><ele>588.0</ele><time>2026-03-28T15:24:01Z</time></trkpt><trkpt lat="39.29473337468286" lon="16.96809396005383"><ele>589.6666666666666</ele><time>2026-03-28T15:24:02Z</time></trkpt><trkpt lat="39.294858085113475" lon="16.967981545513187"><ele>591.3333333333333</ele><time>2026-03-28T15:24:03Z</time></trkpt><trkpt lat="39.29499207526817" lon="16.96785756274041"><ele>593.0</ele><time>2026-03-28T15:24:04Z</time></trkpt><trkpt lat="39.29505143626478" lon="16.9676473751265"><ele>593.0</ele><time>2026-03-28T15:24:05Z</time></trkpt><trkpt lat="39.29516895244077" lon="16.96752942952522"><ele>593.0</ele><time>2026-03-28T15:24:06Z</time></trkpt><trkpt lat="39.29529027520185" lon="16.967381704511634"><ele>593.0</ele><time>2026-03-28T15:24:07Z</time></trkpt><trkpt lat="39.2954011444858" lon="16.96725476107743"><ele>595.0</ele><time>2026-03-28T15:24:08Z</time></trkpt><trkpt lat="39.29550141635495" lon="16.967150559785406"><ele>597.0</ele><time>2026-03-28T15:24:09Z</time></trkpt><trkpt lat="39.29558695514787" lon="16.967096075825715"><ele>599.0</ele><time>2026-03-28T15:24:10Z</time></trkpt><trkpt lat="39.29569434541303" lon="16.96704388553203"><ele>601.0</ele><time>2026-03-28T15:24:11Z</time></trkpt><trkpt lat="39.29578249689668" lon="16.967024560031945"><ele>603.0</ele><time>2026-03-28T15:24:12Z</time></trkpt><trkpt lat="39.29593389038838" lon="16.966989306237586"><ele>603.0</ele><time>2026-03-28T15:24:13Z</time></trkpt><trkpt lat="39.29596996037032" lon="16.966859056298404"><ele>603.0</ele><time>2026-03-28T15:24:14Z</time></trkpt><trkpt lat="39.29605637488535" lon="16.96669837953994"><ele>603.0</ele><time>2026-03-28T15:24:15Z</time></trkpt><trkpt lat="39.296116392451395" lon="16.9665613828762"><ele>603.0</ele><time>2026-03-28T15:24:16Z</time></trkpt><trkpt lat="39.29617120065529" lon="16.966397786218007"><ele>604.5</ele><time>2026-03-28T15:24:17Z</time></trkpt><trkpt lat="39.29625541461611" lon="16.966247654856215"><ele>606.0</ele><time>2026-03-28T15:24:18Z</time></trkpt><trkpt lat="39.29623115441487" lon="16.96608472365245"><ele>607.5</ele><time>2026-03-28T15:24:19Z</time></trkpt><trkpt lat="39.2962746169648" lon="16.965945509093395"><ele>609.0</ele><time>2026-03-28T15:24:20Z</time></trkpt><trkpt lat="39.296302947811654" lon="16.96585600307296"><ele>609.0</ele><time>2026-03-28T15:24:21Z</time></trkpt><trkpt lat="39.29633371776674" lon="16.96576594348774"><ele>609.0</ele><time>2026-03-28T15:24:22Z</time></trkpt><trkpt lat="39.29636454861783" lon="16.96567755922402"><ele>609.0</ele><time>2026-03-28T15:24:23Z</time></trkpt><trkpt lat="39.29638832800508" lon="16.965596348934817"><ele>609.0</ele><time>2026-03-28T15:24:24Z</time></trkpt><trkpt lat="39.29644568307002" lon="16.96548582932298"><ele>609.0</ele><time>2026-03-28T15:24:26Z</time></trkpt><trkpt lat="39.29652271758887" lon="16.965408366208663"><ele>609.0</ele><time>2026-03-28T15:24:28Z</time></trkpt><trkpt lat="39.296652004433625" lon="16.965408107596357"><ele>614.3333333333334</ele><time>2026-03-28T15:24:31Z</time></trkpt><trkpt lat="39.29670941545009" lon="16.96544941517061"><ele>619.6666666666667</ele><time>2026-03-28T15:24:33Z</time></trkpt><trkpt lat="39.29677741628987" lon="16.965476893581812"><ele>625.0</ele><time>2026-03-28T15:24:35Z</time></trkpt><trkpt lat="39.29710163199381" lon="16.965036765837688"><ele>627.0</ele><time>2026-03-28T15:24:39Z</time></trkpt><trkpt lat="39.297131869181094" lon="16.964940453955656"><ele>629.0</ele><time>2026-03-28T15:24:41Z</time></trkpt><trkpt lat="39.2971434307424" lon="16.964827991034667"><ele>631.0</ele><time>2026-03-28T15:24:43Z</time></trkpt><trkpt lat="39.29707775444565" lon="16.964693595227942"><ele>633.0</ele><time>2026-03-28T15:24:45Z</time></trkpt><trkpt lat="39.29701456306989" lon="16.96466766694492"><ele>635.0</ele><time>2026-03-28T15:24:46Z</time></trkpt><trkpt lat="39.29693863037763" lon="16.96463884648212"><ele>637.0</ele><time>2026-03-28T15:24:48Z</time></trkpt><trkpt lat="39.296875209035164" lon="16.96457103683553"><ele>637.0</ele><time>2026-03-28T15:24:51Z</time></trkpt><trkpt lat="39.29684903820091" lon="16.96449226664885"><ele>637.0</ele><time>2026-03-28T15:25:08Z</time></trkpt><trkpt lat="39.296779504568605" lon="16.964490566173815"><ele>637.0</ele><time>2026-03-28T15:25:15Z</time></trkpt><trkpt lat="39.29671695095445" lon="16.9645004191346"><ele>637.0</ele><time>2026-03-28T15:25:20Z</time></trkpt><trkpt lat="39.29665005569277" lon="16.964520784111095"><ele>637.0</ele><time>2026-03-28T15:25:24Z</time></trkpt><trkpt lat="39.29658141706468" lon="16.964515947945635"><ele>637.0</ele><time>2026-03-28T15:25:29Z</time></trkpt><trkpt lat="39.29652482876123" lon="16.964556543504198"><ele>637.0</ele><time>2026-03-28T15:25:41Z</time></trkpt><trkpt lat="39.29662083578012" lon="16.964553282563813"><ele>637.0</ele><time>2026-03-28T15:32:41Z</time></trkpt><trkpt lat="39.296612909754806" lon="16.964672304443067"><ele>637.0</ele><time>2026-03-28T15:33:41Z</time></trkpt><trkpt lat="39.29661887461067" lon="16.964757123661204"><ele>637.0</ele><time>2026-03-28T15:34:47Z</time></trkpt><trkpt lat="39.29667352155494" lon="16.96469344053511"><ele>637.0</ele><time>2026-03-28T15:35:02Z</time></trkpt><trkpt lat="39.296735603682436" lon="16.964660046618327"><ele>637.0</ele><time>2026-03-28T15:35:07Z</time></trkpt><trkpt lat="39.29669837279673" lon="16.96458754681206"><ele>637.0</ele><time>2026-03-28T15:35:42Z</time></trkpt><trkpt lat="39.296662800146876" lon="16.96451784871506"><ele>637.0</ele><time>2026-03-28T15:36:02Z</time></trkpt><trkpt lat="39.29663848317272" lon="16.964437678459703"><ele>637.0</ele><time>2026-03-28T15:36:15Z</time></trkpt><trkpt lat="39.29670928569177" lon="16.964429050489084"><ele>637.0</ele><time>2026-03-28T15:36:30.999Z</time></trkpt><trkpt lat="39.296777408697395" lon="16.96444395761045"><ele>637.0</ele><time>2026-03-28T15:36:32.999Z</time></trkpt><trkpt lat="39.29686369764711" lon="16.9644838117233"><ele>637.0</ele><time>2026-03-28T15:36:35.999Z</time></trkpt><trkpt lat="39.29692135003806" lon="16.964543572552802"><ele>637.0</ele><time>2026-03-28T15:36:37.999Z</time></trkpt><trkpt lat="39.29700487979465" lon="16.964627241062527"><ele>637.0</ele><time>2026-03-28T15:36:39.999Z</time></trkpt><trkpt lat="39.297098676709886" lon="16.964714600820265"><ele>637.0</ele><time>2026-03-28T15:36:41.999Z</time></trkpt><trkpt lat="39.2971191731896" lon="16.964809131925403"><ele>637.0</ele><time>2026-03-28T15:36:43.999Z</time></trkpt><trkpt lat="39.29709544089355" lon="16.964892293114588"><ele>637.0</ele><time>2026-03-28T15:36:45.999Z</time></trkpt><trkpt lat="39.29704362845212" lon="16.964973704369214"><ele>637.0</ele><time>2026-03-28T15:36:48Z</time></trkpt><trkpt lat="39.29712113354337" lon="16.9653089076443"><ele>633.0</ele><time>2026-03-28T15:36:49Z</time></trkpt><trkpt lat="39.297068129369734" lon="16.965373147411643"><ele>629.0</ele><time>2026-03-28T15:36:51Z</time></trkpt><trkpt lat="39.29701793421856" lon="16.965446596447926"><ele>625.0</ele><time>2026-03-28T15:36:53Z</time></trkpt><trkpt lat="39.296701443826905" lon="16.965201888741316"><ele>625.0</ele><time>2026-03-28T15:36:56Z</time></trkpt><trkpt lat="39.29665041370183" lon="16.96534158562866"><ele>625.0</ele><time>2026-03-28T15:37:00Z</time></trkpt><trkpt lat="39.296572365229174" lon="16.96537710180946"><ele>625.0</ele><time>2026-03-28T15:37:06Z</time></trkpt><trkpt lat="39.296508211097745" lon="16.965405607302124"><ele>625.0</ele><time>2026-03-28T15:37:08Z</time></trkpt><trkpt lat="39.29643020881249" lon="16.96546513602096"><ele>625.0</ele><time>2026-03-28T15:37:11Z</time></trkpt><trkpt lat="39.29638850646952" lon="16.96553826676561"><ele>625.0</ele><time>2026-03-28T15:37:15Z</time></trkpt><trkpt lat="39.296357400115106" lon="16.96561668428478"><ele>622.8333333333334</ele><time>2026-03-28T15:37:18Z</time></trkpt><trkpt lat="39.29632450400261" lon="16.96571638735485"><ele>620.6666666666667</ele><time>2026-03-28T15:37:21Z</time></trkpt><trkpt lat="39.29629307339641" lon="16.96581695659081"><ele>618.5</ele><time>2026-03-28T15:37:24Z</time></trkpt><trkpt lat="39.29628417214651" lon="16.965898433704467"><ele>616.3333333333334</ele><time>2026-03-28T15:37:26Z</time></trkpt><trkpt lat="39.29624082538011" lon="16.965979460627413"><ele>614.1666666666666</ele><time>2026-03-28T15:37:28Z</time></trkpt><trkpt lat="39.296202716428375" lon="16.9660963676736"><ele>612.0</ele><time>2026-03-28T15:37:30Z</time></trkpt><trkpt lat="39.29617443844395" lon="16.96623070877801"><ele>612.0</ele><time>2026-03-28T15:37:32Z</time></trkpt><trkpt lat="39.29611941018448" lon="16.966350248611512"><ele>612.0</ele><time>2026-03-28T15:37:34Z</time></trkpt><trkpt lat="39.29609957038284" lon="16.9664631169951"><ele>612.0</ele><time>2026-03-28T15:37:36Z</time></trkpt><trkpt lat="39.29605031321762" lon="16.966556677153452"><ele>612.0</ele><time>2026-03-28T15:37:39Z</time></trkpt><trkpt lat="39.29602354689235" lon="16.96663664210647"><ele>612.0</ele><time>2026-03-28T15:37:41Z</time></trkpt><trkpt lat="39.29599479171521" lon="16.96672088283893"><ele>612.0</ele><time>2026-03-28T15:37:43Z</time></trkpt><trkpt lat="39.2959542016477" lon="16.966834688354457"><ele>609.75</ele><time>2026-03-28T15:37:45Z</time></trkpt><trkpt lat="39.29591166590305" lon="16.966946561086097"><ele>607.5</ele><time>2026-03-28T15:37:47Z</time></trkpt><trkpt lat="39.29586463543612" lon="16.967069228455756"><ele>605.25</ele><time>2026-03-28T15:37:49Z</time></trkpt><trkpt lat="39.29582287004015" lon="16.967178162545352"><ele>603.0</ele><time>2026-03-28T15:37:51Z</time></trkpt><trkpt lat="39.295986441418414" lon="16.96739305797046"><ele>603.0</ele><time>2026-03-28T15:37:53Z</time></trkpt><trkpt lat="39.29599635423707" lon="16.967501966364193"><ele>603.0</ele><time>2026-03-28T15:37:55Z</time></trkpt><trkpt lat="39.296009595228455" lon="16.967609269326573"><ele>603.0</ele><time>2026-03-28T15:37:57Z</time></trkpt><trkpt lat="39.29603623855074" lon="16.967707821617864"><ele>603.0</ele><time>2026-03-28T15:37:59Z</time></trkpt><trkpt lat="39.29606461277438" lon="16.967833278128232"><ele>603.0</ele><time>2026-03-28T15:38:01Z</time></trkpt><trkpt lat="39.296075299699574" lon="16.96796407115405"><ele>600.6</ele><time>2026-03-28T15:38:03Z</time></trkpt><trkpt lat="39.29609102844543" lon="16.968083777115165"><ele>598.1999999999999</ele><time>2026-03-28T15:38:05Z</time></trkpt><trkpt lat="39.29609809542776" lon="16.968206778729265"><ele>595.8</ele><time>2026-03-28T15:38:07Z</time></trkpt><trkpt lat="39.296092382871684" lon="16.968335473485038"><ele>593.4</ele><time>2026-03-28T15:38:09Z</time></trkpt><trkpt lat="39.29611504936459" lon="16.968475139886213"><ele>591.0</ele><time>2026-03-28T15:38:11Z</time></trkpt><trkpt lat="39.296127818734554" lon="16.96857071794551"><ele>590.1666666666666</ele><time>2026-03-28T15:38:12Z</time></trkpt><trkpt lat="39.29615385544394" lon="16.968650717494832"><ele>589.3333333333334</ele><time>2026-03-28T15:38:13Z</time></trkpt><trkpt lat="39.29618521989988" lon="16.968722834150668"><ele>588.5</ele><time>2026-03-28T15:38:14Z</time></trkpt><trkpt lat="39.296249933499915" lon="16.96885912470737"><ele>587.6666666666667</ele><time>2026-03-28T15:38:16Z</time></trkpt><trkpt lat="39.29629558575353" lon="16.968922806076282"><ele>586.8333333333334</ele><time>2026-03-28T15:38:17Z</time></trkpt><trkpt lat="39.29636120817478" lon="16.96897748614053"><ele>586.0</ele><time>2026-03-28T15:38:18Z</time></trkpt><trkpt lat="39.29643610637663" lon="16.969014118488232"><ele>586.0</ele><time>2026-03-28T15:38:19Z</time></trkpt><trkpt lat="39.29650665777295" lon="16.96904532985584"><ele>586.0</ele><time>2026-03-28T15:38:20Z</time></trkpt><trkpt lat="39.29661439544765" lon="16.96911224722372"><ele>586.0</ele><time>2026-03-28T15:38:22Z</time></trkpt><trkpt lat="39.29669279727076" lon="16.96920864857709"><ele>586.0</ele><time>2026-03-28T15:38:24Z</time></trkpt><trkpt lat="39.29675312484595" lon="16.969295532827847"><ele>586.0</ele><time>2026-03-28T15:38:26Z</time></trkpt><trkpt lat="39.29680635252803" lon="16.9693765694313"><ele>583.6</ele><time>2026-03-28T15:38:28Z</time></trkpt><trkpt lat="39.296863409707" lon="16.96947612005434"><ele>581.2</ele><time>2026-03-28T15:38:30Z</time></trkpt><trkpt lat="39.29693322767904" lon="16.969568524702588"><ele>578.8</ele><time>2026-03-28T15:38:32Z</time></trkpt><trkpt lat="39.2970045930062" lon="16.969666577711987"><ele>576.4</ele><time>2026-03-28T15:38:34Z</time></trkpt><trkpt lat="39.297103500104285" lon="16.969764846860215"><ele>574.0</ele><time>2026-03-28T15:38:36Z</time></trkpt><trkpt lat="39.297157726988885" lon="16.969830554678882"><ele>574.0</ele><time>2026-03-28T15:38:37Z</time></trkpt><trkpt lat="39.297217293444206" lon="16.96990775345043"><ele>574.0</ele><time>2026-03-28T15:38:38Z</time></trkpt><trkpt lat="39.29726769123647" lon="16.96999528877688"><ele>574.0</ele><time>2026-03-28T15:38:39Z</time></trkpt><trkpt lat="39.297303765300235" lon="16.970078924487925"><ele>574.0</ele><time>2026-03-28T15:38:40Z</time></trkpt><trkpt lat="39.29733494667861" lon="16.970163721279416"><ele>574.0</ele><time>2026-03-28T15:38:41Z</time></trkpt><trkpt lat="39.297360109343074" lon="16.970240220695587"><ele>574.0</ele><time>2026-03-28T15:38:42Z</time></trkpt><trkpt lat="39.29740307201081" lon="16.970375309616188"><ele>573.2</ele><time>2026-03-28T15:38:44Z</time></trkpt><trkpt lat="39.297454535882" lon="16.970508334948136"><ele>572.4</ele><time>2026-03-28T15:38:46Z</time></trkpt><trkpt lat="39.29751669789558" lon="16.970653939181076"><ele>571.6</ele><time>2026-03-28T15:38:48Z</time></trkpt><trkpt lat="39.29754820028701" lon="16.970733857898185"><ele>570.8</ele><time>2026-03-28T15:38:49Z</time></trkpt><trkpt lat="39.29757755028202" lon="16.970818090203103"><ele>570.0</ele><time>2026-03-28T15:38:50Z</time></trkpt><trkpt lat="39.29759185426622" lon="16.970900997369945"><ele>567.6</ele><time>2026-03-28T15:38:51Z</time></trkpt><trkpt lat="39.29760563144027" lon="16.970980690506074"><ele>565.2</ele><time>2026-03-28T15:38:52Z</time></trkpt><trkpt lat="39.297643949045984" lon="16.971129077536013"><ele>562.8</ele><time>2026-03-28T15:38:54Z</time></trkpt><trkpt lat="39.29769822014181" lon="16.9712858075505"><ele>560.4</ele><time>2026-03-28T15:38:56Z</time></trkpt><trkpt lat="39.29772329348177" lon="16.971436546734985"><ele>558.0</ele><time>2026-03-28T15:38:58Z</time></trkpt><trkpt lat="39.297747360917874" lon="16.971583347818264"><ele>555.1999999999999</ele><time>2026-03-28T15:39:00Z</time></trkpt><trkpt lat="39.2977434387196" lon="16.971727482053712"><ele>552.4</ele><time>2026-03-28T15:39:02Z</time></trkpt><trkpt lat="39.29769693731163" lon="16.97187271692041"><ele>549.5999999999999</ele><time>2026-03-28T15:39:04Z</time></trkpt><trkpt lat="39.2976759191548" lon="16.971953518961154"><ele>546.8</ele><time>2026-03-28T15:39:05Z</time></trkpt><trkpt lat="39.29761662407782" lon="16.972098995361222"><ele>544.0</ele><time>2026-03-28T15:39:07Z</time></trkpt><trkpt lat="39.297583515648874" lon="16.972181787952337"><ele>543.9999999999999</ele><time>2026-03-28T15:39:08Z</time></trkpt><trkpt lat="39.29756758798263" lon="16.972271688156507"><ele>544.0</ele><time>2026-03-28T15:39:09Z</time></trkpt><trkpt lat="39.297565624885536" lon="16.972360162737797"><ele>544.0</ele><time>2026-03-28T15:39:10Z</time></trkpt><trkpt lat="39.297558478259226" lon="16.972447282219086"><ele>544.0</ele><time>2026-03-28T15:39:11Z</time></trkpt><trkpt lat="39.29755013240845" lon="16.97254173106986"><ele>544.0</ele><time>2026-03-28T15:39:12Z</time></trkpt><trkpt lat="39.29753277879562" lon="16.972632259402477"><ele>543.9999999999999</ele><time>2026-03-28T15:39:13Z</time></trkpt><trkpt lat="39.29750087564483" lon="16.972710966905233"><ele>544.0</ele><time>2026-03-28T15:39:14Z</time></trkpt><trkpt lat="39.297471048689225" lon="16.972784496191203"><ele>541.6666666666667</ele><time>2026-03-28T15:39:15Z</time></trkpt><trkpt lat="39.297403173143316" lon="16.972920218454203"><ele>539.3333333333334</ele><time>2026-03-28T15:39:17Z</time></trkpt><trkpt lat="39.29738647672865" lon="16.97300276157546"><ele>537.0</ele><time>2026-03-28T15:39:18Z</time></trkpt><trkpt lat="39.29740314471225" lon="16.97308931832511"><ele>534.6666666666666</ele><time>2026-03-28T15:39:19Z</time></trkpt><trkpt lat="39.29743410317042" lon="16.973173434955406"><ele>532.3333333333333</ele><time>2026-03-28T15:39:20Z</time></trkpt><trkpt lat="39.29746638402811" lon="16.973254236655993"><ele>530.0</ele><time>2026-03-28T15:39:21Z</time></trkpt><trkpt lat="39.29748793937452" lon="16.9733335548384"><ele>526.8333333333333</ele><time>2026-03-28T15:39:22Z</time></trkpt><trkpt lat="39.29751327999023" lon="16.973424632326797"><ele>523.6666666666666</ele><time>2026-03-28T15:39:23Z</time></trkpt><trkpt lat="39.29754648532201" lon="16.973522873495615"><ele>520.5</ele><time>2026-03-28T15:39:24Z</time></trkpt><trkpt lat="39.297573201235906" lon="16.97362209636377"><ele>517.3333333333334</ele><time>2026-03-28T15:39:25Z</time></trkpt><trkpt lat="39.297588683368396" lon="16.97372822598108"><ele>514.1666666666667</ele><time>2026-03-28T15:39:26Z</time></trkpt><trkpt lat="39.297601839660075" lon="16.973836229130193"><ele>511.0</ele><time>2026-03-28T15:39:27Z</time></trkpt><trkpt lat="39.29761814685216" lon="16.97394298362401"><ele>511.0</ele><time>2026-03-28T15:39:28Z</time></trkpt><trkpt lat="39.2976341073496" lon="16.97404607167197"><ele>511.0</ele><time>2026-03-28T15:39:29Z</time></trkpt><trkpt lat="39.2976450502689" lon="16.974144903688742"><ele>511.0</ele><time>2026-03-28T15:39:30Z</time></trkpt><trkpt lat="39.29766267821615" lon="16.97423844629053"><ele>511.0</ele><time>2026-03-28T15:39:31Z</time></trkpt><trkpt lat="39.297689703696676" lon="16.97432408765347"><ele>511.0</ele><time>2026-03-28T15:39:32Z</time></trkpt><trkpt lat="39.297730696577815" lon="16.97439399208439"><ele>511.0</ele><time>2026-03-28T15:39:33Z</time></trkpt><trkpt lat="39.29778295948608" lon="16.974447536767507"><ele>511.0</ele><time>2026-03-28T15:39:34Z</time></trkpt><trkpt lat="39.29783166422623" lon="16.97450116971654"><ele>508.20000000000005</ele><time>2026-03-28T15:39:35Z</time></trkpt><trkpt lat="39.297875117403116" lon="16.974566252994475"><ele>505.40000000000003</ele><time>2026-03-28T15:39:36Z</time></trkpt><trkpt lat="39.29794501559966" lon="16.974698832095626"><ele>502.6</ele><time>2026-03-28T15:39:38Z</time></trkpt><trkpt lat="39.297979728206286" lon="16.974770104960676"><ele>499.8</ele><time>2026-03-28T15:39:39Z</time></trkpt><trkpt lat="39.29800561303788" lon="16.97491977647681"><ele>497.0</ele><time>2026-03-28T15:39:41Z</time></trkpt><trkpt lat="39.29803705362442" lon="16.97505684874239"><ele>493.6</ele><time>2026-03-28T15:39:43Z</time></trkpt><trkpt lat="39.2980951348939" lon="16.975158453703926"><ele>490.20000000000005</ele><time>2026-03-28T15:39:45Z</time></trkpt><trkpt lat="39.29820141243553" lon="16.97521413776221"><ele>486.8</ele><time>2026-03-28T15:39:47Z</time></trkpt><trkpt lat="39.29830078583311" lon="16.975293096709304"><ele>483.4</ele><time>2026-03-28T15:39:49Z</time></trkpt><trkpt lat="39.29835463888593" lon="16.975343663301572"><ele>480.0</ele><time>2026-03-28T15:39:50Z</time></trkpt><trkpt lat="39.298416566675904" lon="16.975398033108366"><ele>480.0</ele><time>2026-03-28T15:39:51Z</time></trkpt><trkpt lat="39.298473798720856" lon="16.97546181990243"><ele>480.0</ele><time>2026-03-28T15:39:52Z</time></trkpt><trkpt lat="39.29854663049674" lon="16.975527876173448"><ele>480.0</ele><time>2026-03-28T15:39:53Z</time></trkpt><trkpt lat="39.298599140511534" lon="16.97559194677183"><ele>480.0</ele><time>2026-03-28T15:39:54Z</time></trkpt><trkpt lat="39.29865055942022" lon="16.97566242981384"><ele>480.0</ele><time>2026-03-28T15:39:55Z</time></trkpt><trkpt lat="39.29868604594051" lon="16.975733054927442"><ele>480.0</ele><time>2026-03-28T15:39:56Z</time></trkpt><trkpt lat="39.29872534079466" lon="16.975852259231516"><ele>480.0</ele><time>2026-03-28T15:39:58Z</time></trkpt><trkpt lat="39.298736027549204" lon="16.975938863125524"><ele>480.0</ele><time>2026-03-28T15:40:01Z</time></trkpt><trkpt lat="39.29866789933315" lon="16.975796016518945"><ele>480.0</ele><time>2026-03-28T15:40:09Z</time></trkpt><trkpt lat="39.2986271951434" lon="16.975733231363066"><ele>480.0</ele><time>2026-03-28T15:40:10Z</time></trkpt><trkpt lat="39.29858991953992" lon="16.97564266620437"><ele>480.0</ele><time>2026-03-28T15:40:11Z</time></trkpt><trkpt lat="39.298571189221676" lon="16.975487166697093"><ele>480.0</ele><time>2026-03-28T15:40:13Z</time></trkpt><trkpt lat="39.29853576574862" lon="16.975231037297263"><ele>480.0</ele><time>2026-03-28T15:40:15Z</time></trkpt><trkpt lat="39.29858246064046" lon="16.975167955040735"><ele>480.0</ele><time>2026-03-28T15:40:16Z</time></trkpt><trkpt lat="39.298600535294064" lon="16.97507847379737"><ele>480.0</ele><time>2026-03-28T15:40:18Z</time></trkpt><trkpt lat="39.29859259003536" lon="16.97496060957763"><ele>480.0</ele><time>2026-03-28T15:40:21Z</time></trkpt><trkpt lat="39.29854850298106" lon="16.974866774397853"><ele>482.0</ele><time>2026-03-28T15:40:22Z</time></trkpt><trkpt lat="39.29846590138328" lon="16.974747622988296"><ele>484.0</ele><time>2026-03-28T15:40:23Z</time></trkpt><trkpt lat="39.298382100477255" lon="16.974633868711184"><ele>486.0</ele><time>2026-03-28T15:40:24Z</time></trkpt><trkpt lat="39.29828262869165" lon="16.97451371745121"><ele>488.0</ele><time>2026-03-28T15:40:25Z</time></trkpt><trkpt lat="39.29819268938946" lon="16.97441402711833"><ele>488.0</ele><time>2026-03-28T15:40:26Z</time></trkpt><trkpt lat="39.29810750564476" lon="16.974332518453437"><ele>487.99999999999994</ele><time>2026-03-28T15:40:27Z</time></trkpt><trkpt lat="39.298048826183525" lon="16.974254976789144"><ele>487.99999999999994</ele><time>2026-03-28T15:40:28Z</time></trkpt><trkpt lat="39.29801322733326" lon="16.9741804656863"><ele>488.0</ele><time>2026-03-28T15:40:29Z</time></trkpt><trkpt lat="39.298012375617226" lon="16.974097053250162"><ele>488.0</ele><time>2026-03-28T15:40:31Z</time></trkpt><trkpt lat="39.298124998221375" lon="16.973973148380622"><ele>487.75</ele><time>2026-03-28T15:40:33Z</time></trkpt><trkpt lat="39.29824716708323" lon="16.973937200911333"><ele>487.5</ele><time>2026-03-28T15:40:34Z</time></trkpt><trkpt lat="39.29837041882575" lon="16.97386395635677"><ele>487.25</ele><time>2026-03-28T15:40:35Z</time></trkpt><trkpt lat="39.29849708087295" lon="16.973790989850862"><ele>487.0</ele><time>2026-03-28T15:40:36Z</time></trkpt><trkpt lat="39.29862019977968" lon="16.973729071902905"><ele>487.0</ele><time>2026-03-28T15:40:37Z</time></trkpt><trkpt lat="39.29875108306009" lon="16.973679448346296"><ele>487.00000000000006</ele><time>2026-03-28T15:40:38Z</time></trkpt><trkpt lat="39.298838045536186" lon="16.97358272022828"><ele>487.00000000000006</ele><time>2026-03-28T15:40:39Z</time></trkpt><trkpt lat="39.298928935482365" lon="16.973535108692683"><ele>487.0</ele><time>2026-03-28T15:40:40Z</time></trkpt><trkpt lat="39.2990158202259" lon="16.973509325115614"><ele>487.0</ele><time>2026-03-28T15:40:41Z</time></trkpt><trkpt lat="39.299091134293214" lon="16.97359403097277"><ele>484.0</ele><time>2026-03-28T15:40:42.001Z</time></trkpt><trkpt lat="39.299210857779855" lon="16.9736503024157"><ele>481.00000000000006</ele><time>2026-03-28T15:40:43.001Z</time></trkpt><trkpt lat="39.29933390010224" lon="16.973627264201827"><ele>478.00000000000006</ele><time>2026-03-28T15:40:44.001Z</time></trkpt><trkpt lat="39.29941748485171" lon="16.973572005687977"><ele>475.0</ele><time>2026-03-28T15:40:45.001Z</time></trkpt><trkpt lat="39.29948918181803" lon="16.973508222719776"><ele>472.0</ele><time>2026-03-28T15:40:46.001Z</time></trkpt><trkpt lat="39.29955642770729" lon="16.973447341783814"><ele>472.00000000000006</ele><time>2026-03-28T15:40:47.001Z</time></trkpt><trkpt lat="39.299622055391396" lon="16.97338694963856"><ele>472.0</ele><time>2026-03-28T15:40:48.001Z</time></trkpt><trkpt lat="39.29968149524299" lon="16.973330621490096"><ele>472.0</ele><time>2026-03-28T15:40:49.001Z</time></trkpt><trkpt lat="39.299732458998676" lon="16.973282326065632"><ele>472.0</ele><time>2026-03-28T15:40:50.001Z</time></trkpt><trkpt lat="39.29982166547947" lon="16.973218961139814"><ele>472.00000000000006</ele><time>2026-03-28T15:40:52.001Z</time></trkpt><trkpt lat="39.299904375875414" lon="16.973212896447702"><ele>472.0</ele><time>2026-03-28T15:40:55.001Z</time></trkpt><trkpt lat="39.300007844975326" lon="16.97325702293056"><ele>474.40000000000003</ele><time>2026-03-28T15:40:57.001Z</time></trkpt><trkpt lat="39.30009712592127" lon="16.9733191012217"><ele>476.80000000000007</ele><time>2026-03-28T15:40:59.001Z</time></trkpt><trkpt lat="39.30016167801693" lon="16.973341525647896"><ele>479.2</ele><time>2026-03-28T15:41:00.001Z</time></trkpt><trkpt lat="39.300250914265234" lon="16.97336054882541"><ele>481.6</ele><time>2026-03-28T15:41:01.001Z</time></trkpt><trkpt lat="39.30034334112992" lon="16.973360548827326"><ele>484.0</ele><time>2026-03-28T15:41:03.001Z</time></trkpt><trkpt lat="39.30042284352621" lon="16.973079020202686"><ele>484.0</ele><time>2026-03-28T15:41:06.001Z</time></trkpt><trkpt lat="39.30043842666259" lon="16.97294475325892"><ele>484.0</ele><time>2026-03-28T15:41:08.001Z</time></trkpt><trkpt lat="39.30049816784043" lon="16.97280932135787"><ele>484.0</ele><time>2026-03-28T15:41:10.001Z</time></trkpt><trkpt lat="39.30056945645273" lon="16.972721598307807"><ele>484.0</ele><time>2026-03-28T15:41:12.001Z</time></trkpt><trkpt lat="39.3005613541879" lon="16.972580843621635"><ele>484.0</ele><time>2026-03-28T15:41:14.001Z</time></trkpt><trkpt lat="39.300525541621056" lon="16.97251326412211"><ele>485.33333333333337</ele><time>2026-03-28T15:41:15.001Z</time></trkpt><trkpt lat="39.30044360557647" lon="16.97239959444791"><ele>486.6666666666667</ele><time>2026-03-28T15:41:17.001Z</time></trkpt><trkpt lat="39.30038472861825" lon="16.972330383464698"><ele>488.0</ele><time>2026-03-28T15:41:18.001Z</time></trkpt><trkpt lat="39.30031905478897" lon="16.97226681399023"><ele>489.33333333333337</ele><time>2026-03-28T15:41:19.001Z</time></trkpt><trkpt lat="39.30025041450407" lon="16.972212937716677"><ele>490.6666666666667</ele><time>2026-03-28T15:41:20.001Z</time></trkpt><trkpt lat="39.30018391720432" lon="16.972152448189146"><ele>492.0</ele><time>2026-03-28T15:41:21.001Z</time></trkpt><trkpt lat="39.30011922750302" lon="16.972106814465143"><ele>492.0</ele><time>2026-03-28T15:41:22.001Z</time></trkpt><trkpt lat="39.30009169635509" lon="16.972016297208466"><ele>492.0</ele><time>2026-03-28T15:41:23.001Z</time></trkpt><trkpt lat="39.300039757562956" lon="16.971934561574784"><ele>492.0</ele><time>2026-03-28T15:41:24.001Z</time></trkpt><trkpt lat="39.299997888990866" lon="16.971817136984956"><ele>492.0</ele><time>2026-03-28T15:41:25.001Z</time></trkpt><trkpt lat="39.299989319512164" lon="16.971699390799056"><ele>492.0</ele><time>2026-03-28T15:41:26.001Z</time></trkpt><trkpt lat="39.29998971241221" lon="16.971594944584698"><ele>492.0</ele><time>2026-03-28T15:41:27.001Z</time></trkpt><trkpt lat="39.2999889346091" lon="16.971508109212486"><ele>489.8</ele><time>2026-03-28T15:41:28.001Z</time></trkpt><trkpt lat="39.29998738497285" lon="16.971384426246562"><ele>487.6</ele><time>2026-03-28T15:41:30.001Z</time></trkpt><trkpt lat="39.30009471459911" lon="16.971195904251797"><ele>485.40000000000003</ele><time>2026-03-28T15:41:33.001Z</time></trkpt><trkpt lat="39.3001803815217" lon="16.97120001373842"><ele>483.20000000000005</ele><time>2026-03-28T15:41:34.001Z</time></trkpt><trkpt lat="39.300259953974894" lon="16.971219040844634"><ele>481.0</ele><time>2026-03-28T15:41:35.001Z</time></trkpt><trkpt lat="39.30036003708442" lon="16.971233376824955"><ele>481.0</ele><time>2026-03-28T15:41:36.001Z</time></trkpt><trkpt lat="39.300449189482165" lon="16.97128306116047"><ele>481.0</ele><time>2026-03-28T15:41:37.001Z</time></trkpt><trkpt lat="39.30053466328826" lon="16.971319515604506"><ele>481.0</ele><time>2026-03-28T15:41:38.001Z</time></trkpt><trkpt lat="39.30062545934684" lon="16.971343979909715"><ele>481.0</ele><time>2026-03-28T15:41:39.001Z</time></trkpt><trkpt lat="39.300711727789235" lon="16.971371888015558"><ele>481.0</ele><time>2026-03-28T15:41:40.001Z</time></trkpt><trkpt lat="39.300789159804296" lon="16.971413987775097"><ele>479.8</ele><time>2026-03-28T15:41:41.001Z</time></trkpt><trkpt lat="39.300842587104356" lon="16.971535299502587"><ele>478.6</ele><time>2026-03-28T15:41:42.001Z</time></trkpt><trkpt lat="39.30092313609881" lon="16.971581236343404"><ele>477.4</ele><time>2026-03-28T15:41:43.001Z</time></trkpt><trkpt lat="39.300987557650245" lon="16.971639051204008"><ele>476.2</ele><time>2026-03-28T15:41:44.001Z</time></trkpt><trkpt lat="39.301040443704075" lon="16.971722777422137"><ele>475.0</ele><time>2026-03-28T15:41:45.001Z</time></trkpt><trkpt lat="39.30109890743399" lon="16.971838271653073"><ele>473.0</ele><time>2026-03-28T15:41:46.001Z</time></trkpt><trkpt lat="39.301156774708616" lon="16.971949545077003"><ele>471.0</ele><time>2026-03-28T15:41:47.001Z</time></trkpt><trkpt lat="39.30121208557356" lon="16.97205692522714"><ele>469.0</ele><time>2026-03-28T15:41:48.001Z</time></trkpt><trkpt lat="39.301267537262895" lon="16.972152104283523"><ele>467.0</ele><time>2026-03-28T15:41:49.001Z</time></trkpt><trkpt lat="39.30132051556256" lon="16.972224078144023"><ele>465.0</ele><time>2026-03-28T15:41:50.001Z</time></trkpt><trkpt lat="39.30141932764425" lon="16.972299638336057"><ele>461.6</ele><time>2026-03-28T15:41:51.001Z</time></trkpt><trkpt lat="39.30148952957628" lon="16.97229689671113"><ele>458.2</ele><time>2026-03-28T15:41:52.001Z</time></trkpt><trkpt lat="39.30156584139019" lon="16.972198400852353"><ele>454.79999999999995</ele><time>2026-03-28T15:41:53.001Z</time></trkpt><trkpt lat="39.30159689274893" lon="16.972096091640527"><ele>451.4</ele><time>2026-03-28T15:41:54.001Z</time></trkpt><trkpt lat="39.30163859550048" lon="16.971971741146103"><ele>448.0</ele><time>2026-03-28T15:41:55.001Z</time></trkpt><trkpt lat="39.30168608647828" lon="16.971826303236746"><ele>452.59999999999997</ele><time>2026-03-28T15:41:56.001Z</time></trkpt><trkpt lat="39.30172410909092" lon="16.971671698504426"><ele>457.19999999999993</ele><time>2026-03-28T15:41:57.001Z</time></trkpt><trkpt lat="39.30175921728404" lon="16.97152740782716"><ele>461.8</ele><time>2026-03-28T15:41:58.001Z</time></trkpt><trkpt lat="39.30179650693142" lon="16.971392872953047"><ele>466.4</ele><time>2026-03-28T15:41:59.001Z</time></trkpt><trkpt lat="39.30180855698252" lon="16.971270406290692"><ele>471.0</ele><time>2026-03-28T15:42:00.001Z</time></trkpt><trkpt lat="39.30181375614881" lon="16.971152763639044"><ele>471.0</ele><time>2026-03-28T15:42:01.001Z</time></trkpt><trkpt lat="39.30180767545443" lon="16.971023910626826"><ele>471.0</ele><time>2026-03-28T15:42:02.001Z</time></trkpt><trkpt lat="39.301784617310815" lon="16.97089636065236"><ele>471.0</ele><time>2026-03-28T15:42:03.001Z</time></trkpt><trkpt lat="39.30175874107404" lon="16.970775835678612"><ele>471.0</ele><time>2026-03-28T15:42:04.001Z</time></trkpt><trkpt lat="39.30174401569184" lon="16.970671043357584"><ele>471.0</ele><time>2026-03-28T15:42:05.001Z</time></trkpt><trkpt lat="39.30174757352246" lon="16.970572108434457"><ele>472.0</ele><time>2026-03-28T15:42:06.001Z</time></trkpt><trkpt lat="39.301756067798316" lon="16.97047331363624"><ele>473.0</ele><time>2026-03-28T15:42:07.001Z</time></trkpt><trkpt lat="39.30171660206738" lon="16.970332580002683"><ele>474.0</ele><time>2026-03-28T15:42:08.001Z</time></trkpt><trkpt lat="39.301667272174484" lon="16.97025114676694"><ele>475.0</ele><time>2026-03-28T15:42:09.001Z</time></trkpt><trkpt lat="39.301613969907756" lon="16.970161700335822"><ele>476.0</ele><time>2026-03-28T15:42:10.001Z</time></trkpt><trkpt lat="39.30158013417962" lon="16.97006639812788"><ele>477.0</ele><time>2026-03-28T15:42:11.001Z</time></trkpt><trkpt lat="39.30156052533119" lon="16.96996886578932"><ele>477.0</ele><time>2026-03-28T15:42:12.001Z</time></trkpt><trkpt lat="39.301550007595864" lon="16.969878691103986"><ele>477.0</ele><time>2026-03-28T15:42:13.001Z</time></trkpt><trkpt lat="39.30154348102834" lon="16.969795293231453"><ele>477.0</ele><time>2026-03-28T15:42:14.001Z</time></trkpt><trkpt lat="39.301546763355496" lon="16.969697966754687"><ele>477.0</ele><time>2026-03-28T15:42:15.001Z</time></trkpt><trkpt lat="39.30155118912871" lon="16.969584891006427"><ele>477.0</ele><time>2026-03-28T15:42:16.001Z</time></trkpt><trkpt lat="39.301585235404296" lon="16.969467380038235"><ele>477.0</ele><time>2026-03-28T15:42:17.001Z</time></trkpt><trkpt lat="39.30160039127591" lon="16.96934514107073"><ele>477.0</ele><time>2026-03-28T15:42:18.001Z</time></trkpt><trkpt lat="39.30162089604833" lon="16.969222254527196"><ele>477.00000000000006</ele><time>2026-03-28T15:42:19.001Z</time></trkpt><trkpt lat="39.30163077730539" lon="16.969101050261653"><ele>477.00000000000006</ele><time>2026-03-28T15:42:20.001Z</time></trkpt><trkpt lat="39.301634354041624" lon="16.968993106903742"><ele>477.0</ele><time>2026-03-28T15:42:21.001Z</time></trkpt><trkpt lat="39.30163488451005" lon="16.96887376835578"><ele>477.0</ele><time>2026-03-28T15:42:22.001Z</time></trkpt><trkpt lat="39.30158872653204" lon="16.96876697749296"><ele>477.1666666666667</ele><time>2026-03-28T15:42:23.001Z</time></trkpt><trkpt lat="39.30153347512687" lon="16.96870394941562"><ele>477.33333333333337</ele><time>2026-03-28T15:42:24.001Z</time></trkpt><trkpt lat="39.30148376803932" lon="16.9686449303656"><ele>477.5</ele><time>2026-03-28T15:42:25.001Z</time></trkpt><trkpt lat="39.30144244735781" lon="16.968568651002144"><ele>477.6666666666667</ele><time>2026-03-28T15:42:26.001Z</time></trkpt><trkpt lat="39.301415985335105" lon="16.968465069490616"><ele>477.83333333333337</ele><time>2026-03-28T15:42:27.001Z</time></trkpt><trkpt lat="39.301449934863385" lon="16.96834329171398"><ele>478.0</ele><time>2026-03-28T15:42:28.001Z</time></trkpt><trkpt lat="39.30146256215453" lon="16.968201462460932"><ele>477.50000000000006</ele><time>2026-03-28T15:42:29.001Z</time></trkpt><trkpt lat="39.3015181561675" lon="16.968079281190466"><ele>477.0</ele><time>2026-03-28T15:42:30.001Z</time></trkpt><trkpt lat="39.301586051187876" lon="16.96800941509643"><ele>476.5</ele><time>2026-03-28T15:42:31.001Z</time></trkpt><trkpt lat="39.30163612757157" lon="16.967947815703056"><ele>476.0</ele><time>2026-03-28T15:42:32.001Z</time></trkpt><trkpt lat="39.301678602411315" lon="16.967884090970188"><ele>475.50000000000006</ele><time>2026-03-28T15:42:33.001Z</time></trkpt><trkpt lat="39.30172621823" lon="16.967824949970613"><ele>475.0</ele><time>2026-03-28T15:42:34.001Z</time></trkpt><trkpt lat="39.30173882346297" lon="16.967743143510425"><ele>475.00000000000006</ele><time>2026-03-28T15:42:35.001Z</time></trkpt><trkpt lat="39.30175878722486" lon="16.967662442965118"><ele>475.0</ele><time>2026-03-28T15:42:36.001Z</time></trkpt><trkpt lat="39.30178122409951" lon="16.967541005744252"><ele>475.0</ele><time>2026-03-28T15:42:37.001Z</time></trkpt><trkpt lat="39.30186189952742" lon="16.96750196253053"><ele>475.0</ele><time>2026-03-28T15:42:38.001Z</time></trkpt><trkpt lat="39.301945157837324" lon="16.967525371077965"><ele>475.00000000000006</ele><time>2026-03-28T15:42:39.001Z</time></trkpt><trkpt lat="39.302020800127536" lon="16.9675925072242"><ele>475.0</ele><time>2026-03-28T15:42:40.001Z</time></trkpt><trkpt lat="39.302113413889074" lon="16.967630057347264"><ele>475.0</ele><time>2026-03-28T15:42:41.001Z</time></trkpt><trkpt lat="39.3022088728246" lon="16.96763298385485"><ele>475.0</ele><time>2026-03-28T15:42:42.001Z</time></trkpt><trkpt lat="39.30230277792518" lon="16.967620916341225"><ele>475.0</ele><time>2026-03-28T15:42:43.001Z</time></trkpt><trkpt lat="39.30239254010459" lon="16.96758398384611"><ele>475.0</ele><time>2026-03-28T15:42:44.001Z</time></trkpt><trkpt lat="39.302479739101855" lon="16.967548653449725"><ele>475.0</ele><time>2026-03-28T15:42:45.001Z</time></trkpt><trkpt lat="39.30257020985829" lon="16.967512183536375"><ele>474.4</ele><time>2026-03-28T15:42:46.001Z</time></trkpt><trkpt lat="39.30266004834079" lon="16.967458476883202"><ele>473.8</ele><time>2026-03-28T15:42:47.001Z</time></trkpt><trkpt lat="39.30274448687215" lon="16.96739260750416"><ele>473.20000000000005</ele><time>2026-03-28T15:42:48.001Z</time></trkpt><trkpt lat="39.30281054513065" lon="16.967296937461732"><ele>472.6</ele><time>2026-03-28T15:42:49.001Z</time></trkpt><trkpt lat="39.30286823860156" lon="16.967219539439586"><ele>472.0</ele><time>2026-03-28T15:42:50.001Z</time></trkpt><trkpt lat="39.30294322288759" lon="16.967164779483713"><ele>472.00000000000006</ele><time>2026-03-28T15:42:51.001Z</time></trkpt><trkpt lat="39.30301751697379" lon="16.96711559577814"><ele>472.0</ele><time>2026-03-28T15:42:52.001Z</time></trkpt><trkpt lat="39.303097025762824" lon="16.96703639311727"><ele>472.0</ele><time>2026-03-28T15:42:53.001Z</time></trkpt><trkpt lat="39.30314573377572" lon="16.966921917611764"><ele>472.0</ele><time>2026-03-28T15:42:54.001Z</time></trkpt><trkpt lat="39.30316311484258" lon="16.966799529965677"><ele>472.00000000000006</ele><time>2026-03-28T15:42:55.001Z</time></trkpt><trkpt lat="39.30316487127292" lon="16.966711353944902"><ele>472.0</ele><time>2026-03-28T15:42:56.001Z</time></trkpt><trkpt lat="39.30312423963181" lon="16.966568752020475"><ele>470.40000000000003</ele><time>2026-03-28T15:42:58.001Z</time></trkpt><trkpt lat="39.30314481822622" lon="16.966467238865032"><ele>468.80000000000007</ele><time>2026-03-28T15:42:59.001Z</time></trkpt><trkpt lat="39.30328581332148" lon="16.966531703660422"><ele>467.2</ele><time>2026-03-28T15:43:02.001Z</time></trkpt><trkpt lat="39.30329480913079" lon="16.96662824411156"><ele>465.6</ele><time>2026-03-28T15:43:03.001Z</time></trkpt><trkpt lat="39.303301554302124" lon="16.966754160407003"><ele>464.0</ele><time>2026-03-28T15:43:04.001Z</time></trkpt><trkpt lat="39.303337098261494" lon="16.966876634587774"><ele>462.66666666666663</ele><time>2026-03-28T15:43:05.001Z</time></trkpt><trkpt lat="39.30335042573075" lon="16.96698664187101"><ele>461.3333333333333</ele><time>2026-03-28T15:43:06.001Z</time></trkpt><trkpt lat="39.30335482976697" lon="16.967082284167088"><ele>460.0</ele><time>2026-03-28T15:43:07.001Z</time></trkpt><trkpt lat="39.30335530846533" lon="16.967212755041835"><ele>458.66666666666663</ele><time>2026-03-28T15:43:08.001Z</time></trkpt><trkpt lat="39.30341404858918" lon="16.967301969023225"><ele>457.3333333333333</ele><time>2026-03-28T15:43:09.001Z</time></trkpt><trkpt lat="39.303487023961935" lon="16.96734725776972"><ele>456.0</ele><time>2026-03-28T15:43:10.001Z</time></trkpt><trkpt lat="39.303583545049094" lon="16.967322227296542"><ele>456.0</ele><time>2026-03-28T15:43:11.001Z</time></trkpt><trkpt lat="39.303678672421725" lon="16.967390702228084"><ele>456.0</ele><time>2026-03-28T15:43:12.001Z</time></trkpt><trkpt lat="39.30371301891104" lon="16.967511383321952"><ele>456.0</ele><time>2026-03-28T15:43:13.001Z</time></trkpt><trkpt lat="39.30373187316861" lon="16.96762624842892"><ele>456.0</ele><time>2026-03-28T15:43:14.001Z</time></trkpt><trkpt lat="39.30375344106215" lon="16.967728564850976"><ele>456.0</ele><time>2026-03-28T15:43:15.001Z</time></trkpt><trkpt lat="39.30375473936075" lon="16.96783215512864"><ele>454.4</ele><time>2026-03-28T15:43:16.001Z</time></trkpt><trkpt lat="39.30380126212383" lon="16.96794084879999"><ele>452.8</ele><time>2026-03-28T15:43:17.001Z</time></trkpt><trkpt lat="39.30387382035626" lon="16.968010165049346"><ele>451.19999999999993</ele><time>2026-03-28T15:43:18.001Z</time></trkpt><trkpt lat="39.303946806277814" lon="16.96803623185424"><ele>449.59999999999997</ele><time>2026-03-28T15:43:19.001Z</time></trkpt><trkpt lat="39.30409159730461" lon="16.96813823333527"><ele>448.0</ele><time>2026-03-28T15:43:20.001Z</time></trkpt><trkpt lat="39.30407900656007" lon="16.9682636126806"><ele>452.4</ele><time>2026-03-28T15:43:21.001Z</time></trkpt><trkpt lat="39.30405085671452" lon="16.968410313140257"><ele>456.79999999999995</ele><time>2026-03-28T15:43:23.001Z</time></trkpt><trkpt lat="39.30409289998262" lon="16.96852508205175"><ele>461.2</ele><time>2026-03-28T15:43:24.001Z</time></trkpt><trkpt lat="39.304166232753836" lon="16.968622666273404"><ele>465.6</ele><time>2026-03-28T15:43:25.001Z</time></trkpt><trkpt lat="39.304243164057695" lon="16.968691893543237"><ele>470.0</ele><time>2026-03-28T15:43:26.001Z</time></trkpt><trkpt lat="39.30430347911399" lon="16.968746824677094"><ele>470.0</ele><time>2026-03-28T15:43:27.001Z</time></trkpt><trkpt lat="39.30440431852449" lon="16.968781696357173"><ele>470.0</ele><time>2026-03-28T15:43:28.001Z</time></trkpt><trkpt lat="39.30445924714058" lon="16.96894413563387"><ele>470.0</ele><time>2026-03-28T15:43:29.001Z</time></trkpt><trkpt lat="39.304408232487305" lon="16.96901875545792"><ele>470.0</ele><time>2026-03-28T15:43:30.001Z</time></trkpt><trkpt lat="39.304329825763745" lon="16.969052920265923"><ele>470.0</ele><time>2026-03-28T15:43:31.001Z</time></trkpt><trkpt lat="39.3042264134783" lon="16.969113783127614"><ele>469.8</ele><time>2026-03-28T15:43:33.001Z</time></trkpt><trkpt lat="39.304170961305765" lon="16.969263362896047"><ele>469.6</ele><time>2026-03-28T15:43:35.001Z</time></trkpt><trkpt lat="39.304188430604285" lon="16.969366985157823"><ele>469.4</ele><time>2026-03-28T15:43:36.001Z</time></trkpt><trkpt lat="39.304226736291625" lon="16.969474302306583"><ele>469.2</ele><time>2026-03-28T15:43:37.001Z</time></trkpt><trkpt lat="39.30430071726262" lon="16.96955584196738"><ele>469.0</ele><time>2026-03-28T15:43:38.001Z</time></trkpt><trkpt lat="39.304385183709186" lon="16.96957943399522"><ele>469.00000000000006</ele><time>2026-03-28T15:43:39.001Z</time></trkpt><trkpt lat="39.30446575631206" lon="16.969581760854883"><ele>469.0</ele><time>2026-03-28T15:43:40.001Z</time></trkpt><trkpt lat="39.30452898272921" lon="16.969560446733198"><ele>469.0</ele><time>2026-03-28T15:43:41.001Z</time></trkpt><trkpt lat="39.30460190636625" lon="16.969560005795653"><ele>469.0</ele><time>2026-03-28T15:43:42.001Z</time></trkpt><trkpt lat="39.304625312223436" lon="16.9696397163281"><ele>469.00000000000006</ele><time>2026-03-28T15:43:43.001Z</time></trkpt><trkpt lat="39.30465198542491" lon="16.96974824202649"><ele>469.0</ele><time>2026-03-28T15:43:44.001Z</time></trkpt><trkpt lat="39.30472049414709" lon="16.96982010307122"><ele>471.6666666666667</ele><time>2026-03-28T15:43:45Z</time></trkpt><trkpt lat="39.30479798971075" lon="16.969854084146114"><ele>474.33333333333337</ele><time>2026-03-28T15:43:46Z</time></trkpt><trkpt lat="39.304874717781146" lon="16.969872976781442"><ele>477.0</ele><time>2026-03-28T15:43:47Z</time></trkpt><trkpt lat="39.304982648908876" lon="16.969878957177514"><ele>479.66666666666663</ele><time>2026-03-28T15:43:49Z</time></trkpt><trkpt lat="39.3050505190641" lon="16.969914610964565"><ele>482.3333333333333</ele><time>2026-03-28T15:43:52Z</time></trkpt><trkpt lat="39.30511563312886" lon="16.969960699348544"><ele>485.0</ele><time>2026-03-28T15:44:02Z</time></trkpt><trkpt lat="39.30516364179012" lon="16.97002092897762"><ele>485.6</ele><time>2026-03-28T15:44:16Z</time></trkpt><trkpt lat="39.30520797658515" lon="16.970085032650776"><ele>486.2</ele><time>2026-03-28T15:44:19Z</time></trkpt><trkpt lat="39.30523259200905" lon="16.970234827321132"><ele>486.79999999999995</ele><time>2026-03-28T15:44:22Z</time></trkpt><trkpt lat="39.30518031830591" lon="16.97039266946566"><ele>487.4</ele><time>2026-03-28T15:44:24Z</time></trkpt><trkpt lat="39.30514679700632" lon="16.97049472870293"><ele>488.0</ele><time>2026-03-28T15:44:25Z</time></trkpt><trkpt lat="39.305087631131634" lon="16.970594007831735"><ele>488.0</ele><time>2026-03-28T15:44:26Z</time></trkpt><trkpt lat="39.30504616061513" lon="16.970717642069022"><ele>487.99999999999994</ele><time>2026-03-28T15:44:27Z</time></trkpt><trkpt lat="39.305042841960834" lon="16.970847473581685"><ele>487.99999999999994</ele><time>2026-03-28T15:44:28Z</time></trkpt><trkpt lat="39.30504529454458" lon="16.970963995163185"><ele>488.0</ele><time>2026-03-28T15:44:29Z</time></trkpt><trkpt lat="39.30506006194753" lon="16.971089844714704"><ele>488.0</ele><time>2026-03-28T15:44:30Z</time></trkpt><trkpt lat="39.30511299401182" lon="16.97120223712505"><ele>487.59999999999997</ele><time>2026-03-28T15:44:31Z</time></trkpt><trkpt lat="39.30519564021188" lon="16.971283476722164"><ele>487.19999999999993</ele><time>2026-03-28T15:44:32Z</time></trkpt><trkpt lat="39.30526587166958" lon="16.971377443452262"><ele>486.8</ele><time>2026-03-28T15:44:33Z</time></trkpt><trkpt lat="39.30533967945214" lon="16.97145820978972"><ele>486.4</ele><time>2026-03-28T15:44:34Z</time></trkpt><trkpt lat="39.30542832177401" lon="16.97150997328244"><ele>486.0</ele><time>2026-03-28T15:44:35Z</time></trkpt><trkpt lat="39.305524647933794" lon="16.97154171990641"><ele>486.8</ele><time>2026-03-28T15:44:36Z</time></trkpt><trkpt lat="39.305622597183024" lon="16.971572794618506"><ele>487.6</ele><time>2026-03-28T15:44:37Z</time></trkpt><trkpt lat="39.305718057505274" lon="16.971620305585393"><ele>488.4</ele><time>2026-03-28T15:44:38Z</time></trkpt><trkpt lat="39.30581095674968" lon="16.97168720468331"><ele>489.2</ele><time>2026-03-28T15:44:39Z</time></trkpt><trkpt lat="39.30589302845848" lon="16.97177508376476"><ele>490.0</ele><time>2026-03-28T15:44:40Z</time></trkpt><trkpt lat="39.305969978122" lon="16.971869238417707"><ele>490.0</ele><time>2026-03-28T15:44:41Z</time></trkpt><trkpt lat="39.30604645564733" lon="16.97196505071806"><ele>490.0</ele><time>2026-03-28T15:44:42Z</time></trkpt><trkpt lat="39.30612292278799" lon="16.97206058198451"><ele>490.0</ele><time>2026-03-28T15:44:43Z</time></trkpt><trkpt lat="39.306194314830236" lon="16.972159216964027"><ele>490.0</ele><time>2026-03-28T15:44:44Z</time></trkpt><trkpt lat="39.3062668786497" lon="16.97224267908509"><ele>490.0</ele><time>2026-03-28T15:44:45Z</time></trkpt><trkpt lat="39.306338074181745" lon="16.97232079511572"><ele>490.00000000000006</ele><time>2026-03-28T15:44:46Z</time></trkpt><trkpt lat="39.30640980677953" lon="16.972393719538136"><ele>490.0</ele><time>2026-03-28T15:44:47Z</time></trkpt><trkpt lat="39.30648651446819" lon="16.972450959152415"><ele>490.0</ele><time>2026-03-28T15:44:48Z</time></trkpt><trkpt lat="39.30655952742269" lon="16.972503281653772"><ele>490.0</ele><time>2026-03-28T15:44:49.001Z</time></trkpt><trkpt lat="39.30662457737506" lon="16.97254930572327"><ele>490.00000000000006</ele><time>2026-03-28T15:44:50.001Z</time></trkpt><trkpt lat="39.306693098230944" lon="16.972580942758057"><ele>490.0</ele><time>2026-03-28T15:44:51.001Z</time></trkpt><trkpt lat="39.30675757555346" lon="16.972618331017877"><ele>488.00000000000006</ele><time>2026-03-28T15:44:52.001Z</time></trkpt><trkpt lat="39.30682225561924" lon="16.972653644634075"><ele>486.0</ele><time>2026-03-28T15:44:53.001Z</time></trkpt><trkpt lat="39.306883922036164" lon="16.972680007870924"><ele>484.0</ele><time>2026-03-28T15:44:54.001Z</time></trkpt><trkpt lat="39.30698975689144" lon="16.97269423283733"><ele>482.0</ele><time>2026-03-28T15:44:56.001Z</time></trkpt><trkpt lat="39.307077717770056" lon="16.972724031768635"><ele>480.00000000000006</ele><time>2026-03-28T15:44:59.001Z</time></trkpt><trkpt lat="39.307154967613606" lon="16.972775429655066"><ele>478.0</ele><time>2026-03-28T15:45:02.001Z</time></trkpt><trkpt lat="39.30723643431811" lon="16.97277713387338"><ele>482.59999999999997</ele><time>2026-03-28T15:45:05.001Z</time></trkpt><trkpt lat="39.307314348962336" lon="16.9727231762638"><ele>487.19999999999993</ele><time>2026-03-28T15:45:08.001Z</time></trkpt><trkpt lat="39.307404462434334" lon="16.972621903185814"><ele>491.8</ele><time>2026-03-28T15:45:10.001Z</time></trkpt><trkpt lat="39.307458251269104" lon="16.972573032258317"><ele>496.4</ele><time>2026-03-28T15:45:11.001Z</time></trkpt><trkpt lat="39.30758163602132" lon="16.972539695584892"><ele>501.0</ele><time>2026-03-28T15:45:13.001Z</time></trkpt><trkpt lat="39.30765376659158" lon="16.97254731546316"><ele>501.0</ele><time>2026-03-28T15:45:14.001Z</time></trkpt><trkpt lat="39.3077251847342" lon="16.972568082877963"><ele>501.0</ele><time>2026-03-28T15:45:15.001Z</time></trkpt><trkpt lat="39.307791438556116" lon="16.972591644757166"><ele>501.0</ele><time>2026-03-28T15:45:16.001Z</time></trkpt><trkpt lat="39.30786124196654" lon="16.972614047700482"><ele>501.0</ele><time>2026-03-28T15:45:17.001Z</time></trkpt><trkpt lat="39.30793962889554" lon="16.972630268420453"><ele>501.0</ele><time>2026-03-28T15:45:18.001Z</time></trkpt><trkpt lat="39.30801935661578" lon="16.972606503364293"><ele>501.0</ele><time>2026-03-28T15:45:19.001Z</time></trkpt><trkpt lat="39.30808029337621" lon="16.9725505492064"><ele>501.1666666666667</ele><time>2026-03-28T15:45:20.001Z</time></trkpt><trkpt lat="39.308125062006525" lon="16.972486366959735"><ele>501.33333333333337</ele><time>2026-03-28T15:45:21.001Z</time></trkpt><trkpt lat="39.30818854110813" lon="16.97237822241529"><ele>501.5</ele><time>2026-03-28T15:45:23.001Z</time></trkpt><trkpt lat="39.30825391095167" lon="16.972251789775946"><ele>501.6666666666667</ele><time>2026-03-28T15:45:25.001Z</time></trkpt><trkpt lat="39.308314251308005" lon="16.972208262219294"><ele>501.83333333333337</ele><time>2026-03-28T15:45:26.001Z</time></trkpt><trkpt lat="39.30838660759559" lon="16.972198187213678"><ele>502.0</ele><time>2026-03-28T15:45:27.001Z</time></trkpt><trkpt lat="39.30846023157323" lon="16.97218150901856"><ele>501.99999999999994</ele><time>2026-03-28T15:45:28.001Z</time></trkpt><trkpt lat="39.308520524625095" lon="16.97223423671259"><ele>502.0</ele><time>2026-03-28T15:45:29.001Z</time></trkpt><trkpt lat="39.30858593486777" lon="16.972282141812308"><ele>501.99999999999994</ele><time>2026-03-28T15:45:30.001Z</time></trkpt><trkpt lat="39.308653626147475" lon="16.972333824478703"><ele>501.99999999999994</ele><time>2026-03-28T15:45:31.001Z</time></trkpt><trkpt lat="39.30871592605942" lon="16.97236603101965"><ele>502.0</ele><time>2026-03-28T15:45:32.001Z</time></trkpt><trkpt lat="39.308795763288934" lon="16.97236896034464"><ele>501.99999999999994</ele><time>2026-03-28T15:45:33.001Z</time></trkpt><trkpt lat="39.30886586293917" lon="16.972357145116963"><ele>501.99999999999994</ele><time>2026-03-28T15:45:34.001Z</time></trkpt><trkpt lat="39.30893508698584" lon="16.97234547749591"><ele>502.40000000000003</ele><time>2026-03-28T15:45:35.001Z</time></trkpt><trkpt lat="39.30900125610398" lon="16.972330498478303"><ele>502.80000000000007</ele><time>2026-03-28T15:45:36.001Z</time></trkpt><trkpt lat="39.30906414033373" lon="16.97231281910391"><ele>503.2</ele><time>2026-03-28T15:45:37.001Z</time></trkpt><trkpt lat="39.309100016574305" lon="16.97203153885001"><ele>503.6</ele><time>2026-03-28T15:45:38.001Z</time></trkpt><trkpt lat="39.30916734582269" lon="16.971974526289337"><ele>504.0</ele><time>2026-03-28T15:45:39.001Z</time></trkpt><trkpt lat="39.30924860458682" lon="16.97195983024399"><ele>504.0</ele><time>2026-03-28T15:45:40.001Z</time></trkpt><trkpt lat="39.309339399900686" lon="16.971974885458973"><ele>504.0</ele><time>2026-03-28T15:45:41.001Z</time></trkpt><trkpt lat="39.30942606440765" lon="16.972030144912427"><ele>504.0</ele><time>2026-03-28T15:45:42.001Z</time></trkpt><trkpt lat="39.30949797741007" lon="16.97212527556922"><ele>504.0</ele><time>2026-03-28T15:45:43.001Z</time></trkpt><trkpt lat="39.309569324462075" lon="16.972224694761152"><ele>504.0</ele><time>2026-03-28T15:45:44.001Z</time></trkpt><trkpt lat="39.309638949238014" lon="16.972312986932202"><ele>504.0</ele><time>2026-03-28T15:45:45.001Z</time></trkpt><trkpt lat="39.30971550089294" lon="16.97238885408687"><ele>504.0</ele><time>2026-03-28T15:45:46.001Z</time></trkpt><trkpt lat="39.30979782819547" lon="16.972473677660954"><ele>504.0</ele><time>2026-03-28T15:45:47.001Z</time></trkpt><trkpt lat="39.30989965313816" lon="16.972535360242112"><ele>504.0</ele><time>2026-03-28T15:45:48.001Z</time></trkpt><trkpt lat="39.31002030219923" lon="16.972560444951917"><ele>504.0</ele><time>2026-03-28T15:45:49.001Z</time></trkpt><trkpt lat="39.31015234674175" lon="16.972565291435743"><ele>500.75</ele><time>2026-03-28T15:45:50.001Z</time></trkpt><trkpt lat="39.310288957964254" lon="16.97257704352627"><ele>497.5</ele><time>2026-03-28T15:45:51.001Z</time></trkpt><trkpt lat="39.31044258771382" lon="16.97251891923961"><ele>494.25</ele><time>2026-03-28T15:45:52.001Z</time></trkpt><trkpt lat="39.31058619928374" lon="16.972529697959008"><ele>491.0</ele><time>2026-03-28T15:45:53.001Z</time></trkpt><trkpt lat="39.31072724402976" lon="16.972545738890734"><ele>486.25</ele><time>2026-03-28T15:45:54.001Z</time></trkpt><trkpt lat="39.31087094931635" lon="16.972565362022653"><ele>481.5</ele><time>2026-03-28T15:45:55.001Z</time></trkpt><trkpt lat="39.31100740300088" lon="16.972580355420302"><ele>476.75</ele><time>2026-03-28T15:45:56.001Z</time></trkpt><trkpt lat="39.311135185173164" lon="16.97257830529253"><ele>472.0</ele><time>2026-03-28T15:45:57.001Z</time></trkpt><trkpt lat="39.31125657909012" lon="16.972563759065228"><ele>472.0</ele><time>2026-03-28T15:45:58.001Z</time></trkpt><trkpt lat="39.311375557488546" lon="16.97255758825731"><ele>472.0</ele><time>2026-03-28T15:45:59.001Z</time></trkpt><trkpt lat="39.311496538964256" lon="16.972558691956422"><ele>472.0</ele><time>2026-03-28T15:46:00.001Z</time></trkpt><trkpt lat="39.31161809174356" lon="16.9725690809807"><ele>472.0</ele><time>2026-03-28T15:46:01.001Z</time></trkpt><trkpt lat="39.3117424613329" lon="16.97258403118622"><ele>472.25</ele><time>2026-03-28T15:46:02.001Z</time></trkpt><trkpt lat="39.31187128317066" lon="16.97260752087897"><ele>472.5</ele><time>2026-03-28T15:46:03.001Z</time></trkpt><trkpt lat="39.31200150224737" lon="16.97264082229875"><ele>472.75</ele><time>2026-03-28T15:46:04.001Z</time></trkpt><trkpt lat="39.312118635448705" lon="16.972721708086787"><ele>473.0</ele><time>2026-03-28T15:46:05.001Z</time></trkpt><trkpt lat="39.31223945808251" lon="16.97279025945004"><ele>472.5</ele><time>2026-03-28T15:46:06.001Z</time></trkpt><trkpt lat="39.31235352975813" lon="16.97286920546621"><ele>472.0</ele><time>2026-03-28T15:46:07.001Z</time></trkpt><trkpt lat="39.31245708782708" lon="16.97296525743718"><ele>471.5</ele><time>2026-03-28T15:46:08.001Z</time></trkpt><trkpt lat="39.31256187056434" lon="16.97308627968124"><ele>471.0</ele><time>2026-03-28T15:46:09.001Z</time></trkpt><trkpt lat="39.31265247174105" lon="16.97322684760985"><ele>467.25</ele><time>2026-03-28T15:46:10.001Z</time></trkpt><trkpt lat="39.3127378186342" lon="16.9733721309242"><ele>463.5</ele><time>2026-03-28T15:46:11.001Z</time></trkpt><trkpt lat="39.31282155110287" lon="16.973508975711717"><ele>459.75</ele><time>2026-03-28T15:46:12.001Z</time></trkpt><trkpt lat="39.31291847807478" lon="16.97362248368284"><ele>456.0</ele><time>2026-03-28T15:46:13.001Z</time></trkpt><trkpt lat="39.31297879964971" lon="16.97375970608297"><ele>456.0</ele><time>2026-03-28T15:46:14.001Z</time></trkpt><trkpt lat="39.31303624567532" lon="16.973886971359804"><ele>456.0</ele><time>2026-03-28T15:46:15.001Z</time></trkpt><trkpt lat="39.313079766117184" lon="16.97401744275972"><ele>456.0</ele><time>2026-03-28T15:46:16.001Z</time></trkpt><trkpt lat="39.31309977074516" lon="16.974162724184314"><ele>456.0</ele><time>2026-03-28T15:46:17.001Z</time></trkpt><trkpt lat="39.3130865754074" lon="16.974319986778557"><ele>454.0</ele><time>2026-03-28T15:46:18.001Z</time></trkpt><trkpt lat="39.31305530626686" lon="16.974477006843802"><ele>452.0</ele><time>2026-03-28T15:46:19.001Z</time></trkpt><trkpt lat="39.313023164511016" lon="16.974635798259296"><ele>450.0</ele><time>2026-03-28T15:46:20.001Z</time></trkpt><trkpt lat="39.312964718491564" lon="16.974770556506677"><ele>448.0</ele><time>2026-03-28T15:46:21.001Z</time></trkpt><trkpt lat="39.31293534340031" lon="16.974906445659183"><ele>446.0</ele><time>2026-03-28T15:46:22.001Z</time></trkpt><trkpt lat="39.31290655916173" lon="16.97504713322196"><ele>444.0</ele><time>2026-03-28T15:46:23.001Z</time></trkpt><trkpt lat="39.31291156453532" lon="16.97520239121637"><ele>442.0</ele><time>2026-03-28T15:46:24.001Z</time></trkpt><trkpt lat="39.31294989474052" lon="16.975331880965758"><ele>440.0</ele><time>2026-03-28T15:46:25.001Z</time></trkpt><trkpt lat="39.31302475233715" lon="16.97544025943334"><ele>442.4</ele><time>2026-03-28T15:46:26.001Z</time></trkpt><trkpt lat="39.31309404352875" lon="16.97554920664451"><ele>444.8</ele><time>2026-03-28T15:46:27.001Z</time></trkpt><trkpt lat="39.31314678205439" lon="16.975670867950562"><ele>447.20000000000005</ele><time>2026-03-28T15:46:28.001Z</time></trkpt><trkpt lat="39.3131535305036" lon="16.97580286047725"><ele>449.6</ele><time>2026-03-28T15:46:29.001Z</time></trkpt><trkpt lat="39.31314809171693" lon="16.975940668116856"><ele>452.0</ele><time>2026-03-28T15:46:30.001Z</time></trkpt><trkpt lat="39.313139309191925" lon="16.976075519613396"><ele>452.0</ele><time>2026-03-28T15:46:31.001Z</time></trkpt><trkpt lat="39.313129720226904" lon="16.976206075525187"><ele>452.00000000000006</ele><time>2026-03-28T15:46:32.001Z</time></trkpt><trkpt lat="39.31313080823674" lon="16.976344560740365"><ele>452.00000000000006</ele><time>2026-03-28T15:46:33.001Z</time></trkpt><trkpt lat="39.313163696681414" lon="16.976477629226938"><ele>452.0</ele><time>2026-03-28T15:46:34.001Z</time></trkpt><trkpt lat="39.31322697370454" lon="16.976573248883998"><ele>452.0</ele><time>2026-03-28T15:46:35.001Z</time></trkpt><trkpt lat="39.313309766656154" lon="16.97662565653073"><ele>452.0</ele><time>2026-03-28T15:46:36.001Z</time></trkpt><trkpt lat="39.31340105908492" lon="16.97667392003415"><ele>452.00000000000006</ele><time>2026-03-28T15:46:37.001Z</time></trkpt><trkpt lat="39.313511777591806" lon="16.97665333571064"><ele>452.00000000000006</ele><time>2026-03-28T15:46:38.001Z</time></trkpt><trkpt lat="39.31362566550281" lon="16.976612559971304"><ele>452.0</ele><time>2026-03-28T15:46:39.001Z</time></trkpt><trkpt lat="39.313730231865634" lon="16.976550541376987"><ele>452.0</ele><time>2026-03-28T15:46:40.001Z</time></trkpt><trkpt lat="39.31382494093338" lon="16.976480627933398"><ele>449.6</ele><time>2026-03-28T15:46:41.001Z</time></trkpt><trkpt lat="39.31390975480601" lon="16.976409028156922"><ele>447.20000000000005</ele><time>2026-03-28T15:46:42.001Z</time></trkpt><trkpt lat="39.31397501363567" lon="16.976314344300366"><ele>444.8</ele><time>2026-03-28T15:46:43.001Z</time></trkpt><trkpt lat="39.3140298915716" lon="16.9762038617462"><ele>442.4</ele><time>2026-03-28T15:46:44.001Z</time></trkpt><trkpt lat="39.31407288210236" lon="16.976077166639328"><ele>440.0</ele><time>2026-03-28T15:46:45.001Z</time></trkpt><trkpt lat="39.31411709800091" lon="16.975949770040724"><ele>442.2</ele><time>2026-03-28T15:46:46.001Z</time></trkpt><trkpt lat="39.314144450179555" lon="16.97582945900381"><ele>444.4</ele><time>2026-03-28T15:46:47.001Z</time></trkpt><trkpt lat="39.314185274957204" lon="16.975709231404686"><ele>446.6</ele><time>2026-03-28T15:46:48.001Z</time></trkpt><trkpt lat="39.31417735967962" lon="16.975574668196735"><ele>448.8</ele><time>2026-03-28T15:46:49.001Z</time></trkpt><trkpt lat="39.31413239545413" lon="16.97546004272947"><ele>451.0</ele><time>2026-03-28T15:46:50.001Z</time></trkpt><trkpt lat="39.31411768232862" lon="16.975343257510893"><ele>451.00000000000006</ele><time>2026-03-28T15:46:51.001Z</time></trkpt><trkpt lat="39.31413265352165" lon="16.975232354815844"><ele>451.0</ele><time>2026-03-28T15:46:52.001Z</time></trkpt><trkpt lat="39.31416965725413" lon="16.97512728158029"><ele>451.0</ele><time>2026-03-28T15:46:53.001Z</time></trkpt><trkpt lat="39.31423265062577" lon="16.97504927800447"><ele>451.0</ele><time>2026-03-28T15:46:54.001Z</time></trkpt><trkpt lat="39.3142949578271" lon="16.974985441269553"><ele>451.00000000000006</ele><time>2026-03-28T15:46:55.001Z</time></trkpt><trkpt lat="39.31436624442009" lon="16.974964778155293"><ele>451.0</ele><time>2026-03-28T15:46:56.001Z</time></trkpt><trkpt lat="39.314444156568435" lon="16.974968515678423"><ele>453.20000000000005</ele><time>2026-03-28T15:46:57.001Z</time></trkpt><trkpt lat="39.31452401402979" lon="16.97492399704301"><ele>455.40000000000003</ele><time>2026-03-28T15:46:58.001Z</time></trkpt><trkpt lat="39.31458705398937" lon="16.974843740156714"><ele>457.6</ele><time>2026-03-28T15:46:59.001Z</time></trkpt><trkpt lat="39.31462667748542" lon="16.974739396280103"><ele>459.8</ele><time>2026-03-28T15:47:00.001Z</time></trkpt><trkpt lat="39.31463263150513" lon="16.9746048737582"><ele>462.0</ele><time>2026-03-28T15:47:01.001Z</time></trkpt><trkpt lat="39.31461227551595" lon="16.97448546318839"><ele>462.0</ele><time>2026-03-28T15:47:02.001Z</time></trkpt><trkpt lat="39.314598285444276" lon="16.974378839582133"><ele>462.0</ele><time>2026-03-28T15:47:03.001Z</time></trkpt><trkpt lat="39.31460182750269" lon="16.97427526434348"><ele>462.0</ele><time>2026-03-28T15:47:04.001Z</time></trkpt><trkpt lat="39.31460957913877" lon="16.974182497084882"><ele>462.0</ele><time>2026-03-28T15:47:05.001Z</time></trkpt><trkpt lat="39.314626916349546" lon="16.974093532261655"><ele>462.0</ele><time>2026-03-28T15:47:06.001Z</time></trkpt><trkpt lat="39.314683899252415" lon="16.97405281782548"><ele>462.0</ele><time>2026-03-28T15:47:07.001Z</time></trkpt><trkpt lat="39.31475564570929" lon="16.97404415098701"><ele>462.0</ele><time>2026-03-28T15:47:08.001Z</time></trkpt><trkpt lat="39.31483896784586" lon="16.974060090491317"><ele>459.0</ele><time>2026-03-28T15:47:09.001Z</time></trkpt><trkpt lat="39.31492604350869" lon="16.97411456090703"><ele>456.0</ele><time>2026-03-28T15:47:10.001Z</time></trkpt><trkpt lat="39.31501543403028" lon="16.97420357139233"><ele>453.0</ele><time>2026-03-28T15:47:11.001Z</time></trkpt><trkpt lat="39.31510479448603" lon="16.974314397265225"><ele>450.0</ele><time>2026-03-28T15:47:12.001Z</time></trkpt><trkpt lat="39.31519639169662" lon="16.974438874316935"><ele>446.5</ele><time>2026-03-28T15:47:13.001Z</time></trkpt><trkpt lat="39.315290828600325" lon="16.974582726453"><ele>443.0</ele><time>2026-03-28T15:47:14.001Z</time></trkpt><trkpt lat="39.315418445235245" lon="16.974662780975244"><ele>439.5</ele><time>2026-03-28T15:47:15.001Z</time></trkpt><trkpt lat="39.31553743970984" lon="16.974727730961476"><ele>436.0</ele><time>2026-03-28T15:47:16.001Z</time></trkpt><trkpt lat="39.3156449987224" lon="16.974794158201387"><ele>436.0</ele><time>2026-03-28T15:47:17.001Z</time></trkpt><trkpt lat="39.31575261696864" lon="16.974883480221155"><ele>436.0</ele><time>2026-03-28T15:47:18.001Z</time></trkpt><trkpt lat="39.315855441551264" lon="16.975006435922776"><ele>436.0</ele><time>2026-03-28T15:47:19.001Z</time></trkpt><trkpt lat="39.315951981394726" lon="16.97514556954905"><ele>436.0</ele><time>2026-03-28T15:47:20.001Z</time></trkpt><trkpt lat="39.31604126213951" lon="16.975283628219014"><ele>434.75</ele><time>2026-03-28T15:47:21.001Z</time></trkpt><trkpt lat="39.31612470005649" lon="16.97541467642121"><ele>433.5</ele><time>2026-03-28T15:47:22.001Z</time></trkpt><trkpt lat="39.31620306755483" lon="16.97553676752249"><ele>432.25</ele><time>2026-03-28T15:47:23.001Z</time></trkpt><trkpt lat="39.316300704486764" lon="16.975660901440346"><ele>431.0</ele><time>2026-03-28T15:47:24.001Z</time></trkpt><trkpt lat="39.31642386735273" lon="16.97574601421433"><ele>428.75</ele><time>2026-03-28T15:47:25.001Z</time></trkpt><trkpt lat="39.31655493796762" lon="16.9757815437969"><ele>426.5</ele><time>2026-03-28T15:47:26.001Z</time></trkpt><trkpt lat="39.31668664914381" lon="16.975775157661886"><ele>424.25</ele><time>2026-03-28T15:47:27.001Z</time></trkpt><trkpt lat="39.316822850468604" lon="16.975754883211923"><ele>422.0</ele><time>2026-03-28T15:47:28.001Z</time></trkpt><trkpt lat="39.31695452004023" lon="16.975710246353934"><ele>422.0</ele><time>2026-03-28T15:47:29.001Z</time></trkpt><trkpt lat="39.31708780986013" lon="16.97570512342296"><ele>422.0</ele><time>2026-03-28T15:47:30.001Z</time></trkpt><trkpt lat="39.31721496672107" lon="16.975748197293658"><ele>422.0</ele><time>2026-03-28T15:47:31.001Z</time></trkpt><trkpt lat="39.31734517845569" lon="16.975736988351404"><ele>422.0</ele><time>2026-03-28T15:47:32.001Z</time></trkpt><trkpt lat="39.31747150198581" lon="16.975771937170894"><ele>418.49999999999994</ele><time>2026-03-28T15:47:33.001Z</time></trkpt><trkpt lat="39.31759633158568" lon="16.975789298221482"><ele>415.0</ele><time>2026-03-28T15:47:34.001Z</time></trkpt><trkpt lat="39.317694841388565" lon="16.975802998768078"><ele>411.5</ele><time>2026-03-28T15:47:35.001Z</time></trkpt><trkpt lat="39.31777249023698" lon="16.97582662587062"><ele>408.0</ele><time>2026-03-28T15:47:36.001Z</time></trkpt><trkpt lat="39.317830955734266" lon="16.97588313509399"><ele>404.49999999999994</ele><time>2026-03-28T15:47:37.001Z</time></trkpt><trkpt lat="39.3178482073158" lon="16.97596608103051"><ele>401.0</ele><time>2026-03-28T15:47:38.001Z</time></trkpt><trkpt lat="39.317801269222166" lon="16.976041708020386"><ele>400.8</ele><time>2026-03-28T15:47:39.001Z</time></trkpt><trkpt lat="39.31778928103371" lon="16.97616408875173"><ele>400.6</ele><time>2026-03-28T15:47:40.001Z</time></trkpt><trkpt lat="39.31771593691003" lon="16.976258188568657"><ele>400.4</ele><time>2026-03-28T15:47:41.001Z</time></trkpt><trkpt lat="39.31763415917995" lon="16.97635716896021"><ele>400.2</ele><time>2026-03-28T15:47:42.001Z</time></trkpt><trkpt lat="39.317527674336795" lon="16.97643630385236"><ele>400.0</ele><time>2026-03-28T15:47:43.001Z</time></trkpt><trkpt lat="39.317428652650385" lon="16.97655687118442"><ele>396.75</ele><time>2026-03-28T15:47:44.001Z</time></trkpt><trkpt lat="39.31734028326636" lon="16.97670437663158"><ele>393.5</ele><time>2026-03-28T15:47:45.001Z</time></trkpt><trkpt lat="39.31726464011051" lon="16.97686022149528"><ele>390.25</ele><time>2026-03-28T15:47:46.001Z</time></trkpt><trkpt lat="39.31719388193162" lon="16.97701264697118"><ele>387.0</ele><time>2026-03-28T15:47:47.001Z</time></trkpt><trkpt lat="39.3171239143796" lon="16.97716336929913"><ele>389.75</ele><time>2026-03-28T15:47:48.001Z</time></trkpt><trkpt lat="39.317055328617414" lon="16.977311115009908"><ele>392.5</ele><time>2026-03-28T15:47:49.001Z</time></trkpt><trkpt lat="39.317013478223764" lon="16.977488629381064"><ele>395.25</ele><time>2026-03-28T15:47:50.001Z</time></trkpt><trkpt lat="39.31693849424026" lon="16.977656249952542"><ele>398.0</ele><time>2026-03-28T15:47:51.001Z</time></trkpt><trkpt lat="39.316862899510426" lon="16.97781886558311"><ele>398.0</ele><time>2026-03-28T15:47:52.001Z</time></trkpt><trkpt lat="39.31679157856231" lon="16.977974860245862"><ele>398.0</ele><time>2026-03-28T15:47:53.001Z</time></trkpt><trkpt lat="39.3167213134422" lon="16.978121588432543"><ele>398.0</ele><time>2026-03-28T15:47:54.001Z</time></trkpt><trkpt lat="39.31665873603061" lon="16.97826596451495"><ele>398.0</ele><time>2026-03-28T15:47:55.001Z</time></trkpt><trkpt lat="39.31660230166371" lon="16.978403334094647"><ele>395.79999999999995</ele><time>2026-03-28T15:47:56.001Z</time></trkpt><trkpt lat="39.316572664611854" lon="16.978533626863843"><ele>393.6</ele><time>2026-03-28T15:47:57.001Z</time></trkpt><trkpt lat="39.316531180756414" lon="16.978636811544888"><ele>391.4</ele><time>2026-03-28T15:47:58.001Z</time></trkpt><trkpt lat="39.31650218503659" lon="16.978730473517174"><ele>389.20000000000005</ele><time>2026-03-28T15:47:59.001Z</time></trkpt><trkpt lat="39.31647869210137" lon="16.978816553973086"><ele>387.0</ele><time>2026-03-28T15:48:00.001Z</time></trkpt><trkpt lat="39.316394671793894" lon="16.979003434708872"><ele>387.0</ele><time>2026-03-28T15:48:01.001Z</time></trkpt><trkpt lat="39.31641723011641" lon="16.979148524620395"><ele>387.0</ele><time>2026-03-28T15:48:02.001Z</time></trkpt><trkpt lat="39.316587826269924" lon="16.979305903457142"><ele>387.0</ele><time>2026-03-28T15:48:08.001Z</time></trkpt><trkpt lat="39.31655368836814" lon="16.979402521768694"><ele>387.0</ele><time>2026-03-28T15:48:09.001Z</time></trkpt><trkpt lat="39.31651154931057" lon="16.97949418143044"><ele>384.5</ele><time>2026-03-28T15:48:10.001Z</time></trkpt><trkpt lat="39.316481199330205" lon="16.979598051815536"><ele>382.0</ele><time>2026-03-28T15:48:11.001Z</time></trkpt><trkpt lat="39.31644824158587" lon="16.97969668636144"><ele>379.5</ele><time>2026-03-28T15:48:12.001Z</time></trkpt><trkpt lat="39.31641228624493" lon="16.97979153284343"><ele>377.0</ele><time>2026-03-28T15:48:13.001Z</time></trkpt><trkpt lat="39.316371617846016" lon="16.979885075310666"><ele>374.5</ele><time>2026-03-28T15:48:14.001Z</time></trkpt><trkpt lat="39.31633002021041" lon="16.979978824198195"><ele>372.0</ele><time>2026-03-28T15:48:15.001Z</time></trkpt><trkpt lat="39.31628669399701" lon="16.980067102270496"><ele>368.20000000000005</ele><time>2026-03-28T15:48:16.001Z</time></trkpt><trkpt lat="39.31624363207824" lon="16.9801538688241"><ele>364.4</ele><time>2026-03-28T15:48:17.001Z</time></trkpt><trkpt lat="39.31618891287743" lon="16.9802315410901"><ele>360.6</ele><time>2026-03-28T15:48:18.001Z</time></trkpt><trkpt lat="39.31613159947487" lon="16.980321878566013"><ele>356.79999999999995</ele><time>2026-03-28T15:48:19.001Z</time></trkpt><trkpt lat="39.31601418251652" lon="16.98042926662681"><ele>353.0</ele><time>2026-03-28T15:48:20.001Z</time></trkpt><trkpt lat="39.3160084004155" lon="16.980537642497342"><ele>353.0</ele><time>2026-03-28T15:48:21.001Z</time></trkpt><trkpt lat="39.31599725792083" lon="16.98067941493382"><ele>353.0</ele><time>2026-03-28T15:48:22.001Z</time></trkpt><trkpt lat="39.31601105563732" lon="16.980800913592635"><ele>353.0</ele><time>2026-03-28T15:48:23.001Z</time></trkpt><trkpt lat="39.31602962588623" lon="16.980927534946336"><ele>353.0</ele><time>2026-03-28T15:48:24.001Z</time></trkpt><trkpt lat="39.31604208952208" lon="16.98102926864261"><ele>353.0</ele><time>2026-03-28T15:48:25.001Z</time></trkpt><trkpt lat="39.31605757576586" lon="16.981166238761674"><ele>351.25</ele><time>2026-03-28T15:48:26.001Z</time></trkpt><trkpt lat="39.3160409578071" lon="16.98131919872996"><ele>349.5</ele><time>2026-03-28T15:48:27.001Z</time></trkpt><trkpt lat="39.31602292939557" lon="16.981475176163556"><ele>347.75</ele><time>2026-03-28T15:48:28.001Z</time></trkpt><trkpt lat="39.316025428590784" lon="16.98163183217226"><ele>346.0</ele><time>2026-03-28T15:48:29.001Z</time></trkpt><trkpt lat="39.316030154072365" lon="16.981787909558314"><ele>344.25</ele><time>2026-03-28T15:48:30.001Z</time></trkpt><trkpt lat="39.31603304882394" lon="16.981943186675867"><ele>342.5</ele><time>2026-03-28T15:48:31.001Z</time></trkpt><trkpt lat="39.31605242311016" lon="16.982157914895524"><ele>340.75</ele><time>2026-03-28T15:48:32.001Z</time></trkpt><trkpt lat="39.31612671523954" lon="16.982327306376703"><ele>339.0</ele><time>2026-03-28T15:48:33.001Z</time></trkpt><trkpt lat="39.316202264891444" lon="16.982485416774175"><ele>339.5</ele><time>2026-03-28T15:48:34.001Z</time></trkpt><trkpt lat="39.31628217589967" lon="16.982639709502575"><ele>340.0</ele><time>2026-03-28T15:48:35.001Z</time></trkpt><trkpt lat="39.3163600679181" lon="16.982777701867175"><ele>340.5</ele><time>2026-03-28T15:48:36.001Z</time></trkpt><trkpt lat="39.31643822806596" lon="16.982912012889074"><ele>341.0</ele><time>2026-03-28T15:48:37.001Z</time></trkpt><trkpt lat="39.31651244385272" lon="16.983039545832177"><ele>341.0</ele><time>2026-03-28T15:48:38.001Z</time></trkpt><trkpt lat="39.31658632613263" lon="16.98316650565571"><ele>341.0</ele><time>2026-03-28T15:48:39.001Z</time></trkpt><trkpt lat="39.31665092316187" lon="16.983293360293896"><ele>341.0</ele><time>2026-03-28T15:48:40.001Z</time></trkpt><trkpt lat="39.31670021806195" lon="16.983430730496753"><ele>341.0</ele><time>2026-03-28T15:48:41.001Z</time></trkpt><trkpt lat="39.31673995300933" lon="16.983594086161638"><ele>338.75</ele><time>2026-03-28T15:48:42.001Z</time></trkpt><trkpt lat="39.31678304842908" lon="16.983757487658558"><ele>336.5</ele><time>2026-03-28T15:48:43.001Z</time></trkpt><trkpt lat="39.316807812526136" lon="16.98391876485632"><ele>334.25</ele><time>2026-03-28T15:48:44.001Z</time></trkpt><trkpt lat="39.31682383514761" lon="16.98408008377703"><ele>332.0</ele><time>2026-03-28T15:48:45.001Z</time></trkpt><trkpt lat="39.316886677341145" lon="16.984211316136403"><ele>330.0</ele><time>2026-03-28T15:48:46.001Z</time></trkpt><trkpt lat="39.31693807497336" lon="16.98434768036578"><ele>328.0</ele><time>2026-03-28T15:48:47.001Z</time></trkpt><trkpt lat="39.31699114877561" lon="16.984475009821594"><ele>326.0</ele><time>2026-03-28T15:48:48.001Z</time></trkpt><trkpt lat="39.31702694247929" lon="16.98460843735707"><ele>324.0</ele><time>2026-03-28T15:48:49.001Z</time></trkpt><trkpt lat="39.31704591597499" lon="16.98474046979571"><ele>322.0</ele><time>2026-03-28T15:48:50.001Z</time></trkpt><trkpt lat="39.3170924541923" lon="16.984854610360323"><ele>322.0</ele><time>2026-03-28T15:48:51.001Z</time></trkpt><trkpt lat="39.31715369444311" lon="16.984951424159114"><ele>322.0</ele><time>2026-03-28T15:48:52.001Z</time></trkpt><trkpt lat="39.31720293922345" lon="16.985052309551488"><ele>322.0</ele><time>2026-03-28T15:48:53.001Z</time></trkpt><trkpt lat="39.317324330428114" lon="16.98508049639133"><ele>322.0</ele><time>2026-03-28T15:48:54.001Z</time></trkpt><trkpt lat="39.31742330947041" lon="16.985096293697143"><ele>322.0</ele><time>2026-03-28T15:48:55.001Z</time></trkpt><trkpt lat="39.317516265066004" lon="16.985108510279836"><ele>322.40000000000003</ele><time>2026-03-28T15:48:56.001Z</time></trkpt><trkpt lat="39.317609395736" lon="16.98509153692282"><ele>322.8</ele><time>2026-03-28T15:48:57.001Z</time></trkpt><trkpt lat="39.31770077832919" lon="16.985135125243577"><ele>323.2</ele><time>2026-03-28T15:48:58.001Z</time></trkpt><trkpt lat="39.31778060889567" lon="16.985185727333516"><ele>323.6</ele><time>2026-03-28T15:48:59.001Z</time></trkpt><trkpt lat="39.31787381439853" lon="16.985228450456983"><ele>324.0</ele><time>2026-03-28T15:49:00.001Z</time></trkpt><trkpt lat="39.3179741277664" lon="16.98526055440334"><ele>324.4</ele><time>2026-03-28T15:49:01.001Z</time></trkpt><trkpt lat="39.31807714757079" lon="16.9852924945381"><ele>324.79999999999995</ele><time>2026-03-28T15:49:02.001Z</time></trkpt><trkpt lat="39.318173995155504" lon="16.985334666793037"><ele>325.20000000000005</ele><time>2026-03-28T15:49:03.001Z</time></trkpt><trkpt lat="39.3182691855179" lon="16.98537299020309"><ele>325.6</ele><time>2026-03-28T15:49:04.001Z</time></trkpt><trkpt lat="39.31836289147551" lon="16.98540574140628"><ele>326.0</ele><time>2026-03-28T15:49:05.001Z</time></trkpt><trkpt lat="39.31845185088315" lon="16.985441255511063"><ele>326.0</ele><time>2026-03-28T15:49:06.001Z</time></trkpt><trkpt lat="39.318531403829596" lon="16.985483549562357"><ele>326.0</ele><time>2026-03-28T15:49:07.001Z</time></trkpt><trkpt lat="39.31859808633716" lon="16.9855445507246"><ele>326.0</ele><time>2026-03-28T15:49:08.001Z</time></trkpt><trkpt lat="39.318665107711155" lon="16.985591612764427"><ele>326.0</ele><time>2026-03-28T15:49:09.001Z</time></trkpt><trkpt lat="39.31872761231272" lon="16.985646466631934"><ele>326.0</ele><time>2026-03-28T15:49:10.001Z</time></trkpt><trkpt lat="39.31878256866924" lon="16.9857071878198"><ele>326.0</ele><time>2026-03-28T15:49:11.001Z</time></trkpt><trkpt lat="39.31882853043297" lon="16.98577944994838"><ele>323.2</ele><time>2026-03-28T15:49:12.001Z</time></trkpt><trkpt lat="39.31886810162679" lon="16.985878141373604"><ele>320.40000000000003</ele><time>2026-03-28T15:49:13.001Z</time></trkpt><trkpt lat="39.318909908495606" lon="16.985988896456043"><ele>317.6</ele><time>2026-03-28T15:49:14.001Z</time></trkpt><trkpt lat="39.31895512772735" lon="16.986106808723303"><ele>314.8</ele><time>2026-03-28T15:49:15.001Z</time></trkpt><trkpt lat="39.319012793540196" lon="16.98622735211438"><ele>312.0</ele><time>2026-03-28T15:49:16.001Z</time></trkpt><trkpt lat="39.319078141368585" lon="16.986338812166128"><ele>312.0</ele><time>2026-03-28T15:49:17.001Z</time></trkpt><trkpt lat="39.31914304428095" lon="16.98644881566684"><ele>312.0</ele><time>2026-03-28T15:49:18.001Z</time></trkpt><trkpt lat="39.319209381293184" lon="16.986565621676757"><ele>312.0</ele><time>2026-03-28T15:49:19.001Z</time></trkpt><trkpt lat="39.319275950888546" lon="16.986682926962388"><ele>312.0</ele><time>2026-03-28T15:49:20.001Z</time></trkpt><trkpt lat="39.319339735571695" lon="16.986804789237457"><ele>312.0</ele><time>2026-03-28T15:49:21.001Z</time></trkpt><trkpt lat="39.31941024439005" lon="16.98691610873631"><ele>310.0</ele><time>2026-03-28T15:49:22.001Z</time></trkpt><trkpt lat="39.31946327666744" lon="16.98703927840855"><ele>308.0</ele><time>2026-03-28T15:49:23.001Z</time></trkpt><trkpt lat="39.31949872900642" lon="16.987168765690885"><ele>306.0</ele><time>2026-03-28T15:49:24.001Z</time></trkpt><trkpt lat="39.31954384399332" lon="16.98728486817953"><ele>304.0</ele><time>2026-03-28T15:49:25.001Z</time></trkpt><trkpt lat="39.31959441883608" lon="16.98739610001947"><ele>302.0</ele><time>2026-03-28T15:49:26.001Z</time></trkpt><trkpt lat="39.319618648905475" lon="16.987521942251394"><ele>300.6</ele><time>2026-03-28T15:49:27Z</time></trkpt><trkpt lat="39.3196603079147" lon="16.98764510532201"><ele>299.2</ele><time>2026-03-28T15:49:28Z</time></trkpt><trkpt lat="39.3196943965154" lon="16.987767132340846"><ele>297.8</ele><time>2026-03-28T15:49:29Z</time></trkpt><trkpt lat="39.31972041051939" lon="16.98789174984516"><ele>296.4</ele><time>2026-03-28T15:49:30Z</time></trkpt><trkpt lat="39.31975651294324" lon="16.988011334961453"><ele>295.0</ele><time>2026-03-28T15:49:31Z</time></trkpt><trkpt lat="39.31980607394546" lon="16.988137580074167"><ele>295.0</ele><time>2026-03-28T15:49:32Z</time></trkpt><trkpt lat="39.31986455737573" lon="16.988276146417874"><ele>295.0</ele><time>2026-03-28T15:49:33Z</time></trkpt><trkpt lat="39.319942299409114" lon="16.988418863992916"><ele>295.0</ele><time>2026-03-28T15:49:34Z</time></trkpt><trkpt lat="39.32001465060288" lon="16.98857048258184"><ele>295.0</ele><time>2026-03-28T15:49:35Z</time></trkpt><trkpt lat="39.32008513185051" lon="16.988721983537815"><ele>292.0</ele><time>2026-03-28T15:49:36Z</time></trkpt><trkpt lat="39.320154876864976" lon="16.988871609307825"><ele>289.0</ele><time>2026-03-28T15:49:37Z</time></trkpt><trkpt lat="39.320216616263444" lon="16.989023108505013"><ele>286.0</ele><time>2026-03-28T15:49:38Z</time></trkpt><trkpt lat="39.32026245958024" lon="16.98917764639947"><ele>283.0</ele><time>2026-03-28T15:49:39Z</time></trkpt><trkpt lat="39.32031169872542" lon="16.989317646940805"><ele>280.6</ele><time>2026-03-28T15:49:40Z</time></trkpt><trkpt lat="39.320350698942704" lon="16.989447740907647"><ele>278.20000000000005</ele><time>2026-03-28T15:49:41Z</time></trkpt><trkpt lat="39.32037219733662" lon="16.98957068669952"><ele>275.8</ele><time>2026-03-28T15:49:42Z</time></trkpt><trkpt lat="39.3203810890773" lon="16.989684385144457"><ele>273.40000000000003</ele><time>2026-03-28T15:49:43Z</time></trkpt><trkpt lat="39.32039248050078" lon="16.989795625662055"><ele>271.0</ele><time>2026-03-28T15:49:44Z</time></trkpt><trkpt lat="39.32038837791171" lon="16.98990017888736"><ele>271.0</ele><time>2026-03-28T15:49:45Z</time></trkpt><trkpt lat="39.32037052526676" lon="16.99000451823205"><ele>271.0</ele><time>2026-03-28T15:49:46Z</time></trkpt><trkpt lat="39.32040192219189" lon="16.990088697615928"><ele>271.0</ele><time>2026-03-28T15:49:47Z</time></trkpt><trkpt lat="39.32045124771887" lon="16.990166441049976"><ele>271.0</ele><time>2026-03-28T15:49:48Z</time></trkpt><trkpt lat="39.32052356732114" lon="16.990227881243218"><ele>271.0</ele><time>2026-03-28T15:49:49Z</time></trkpt><trkpt lat="39.32058769667334" lon="16.990329134384616"><ele>271.0</ele><time>2026-03-28T15:49:50Z</time></trkpt><trkpt lat="39.320670271266216" lon="16.9904132542098"><ele>269.8</ele><time>2026-03-28T15:49:51Z</time></trkpt><trkpt lat="39.320741757644086" lon="16.990504983187144"><ele>268.6</ele><time>2026-03-28T15:49:52Z</time></trkpt><trkpt lat="39.32080487685403" lon="16.990597779893548"><ele>267.4</ele><time>2026-03-28T15:49:53Z</time></trkpt><trkpt lat="39.32086255211307" lon="16.990688582556288"><ele>266.2</ele><time>2026-03-28T15:49:54Z</time></trkpt><trkpt lat="39.3208997228358" lon="16.990784808410417"><ele>265.0</ele><time>2026-03-28T15:49:55Z</time></trkpt><trkpt lat="39.32091945417233" lon="16.990893448828004"><ele>262.3333333333333</ele><time>2026-03-28T15:49:56Z</time></trkpt><trkpt lat="39.320930114540246" lon="16.99100235036408"><ele>259.66666666666663</ele><time>2026-03-28T15:49:57Z</time></trkpt><trkpt lat="39.32094447116136" lon="16.99111106852243"><ele>257.0</ele><time>2026-03-28T15:49:58Z</time></trkpt><trkpt lat="39.32099309533292" lon="16.99119887403225"><ele>254.33333333333331</ele><time>2026-03-28T15:49:59Z</time></trkpt><trkpt lat="39.321042196755435" lon="16.991291606659225"><ele>251.66666666666666</ele><time>2026-03-28T15:50:00Z</time></trkpt><trkpt lat="39.32111339675598" lon="16.991357574368102"><ele>249.0</ele><time>2026-03-28T15:50:01Z</time></trkpt><trkpt lat="39.32118161089893" lon="16.991417733598674"><ele>249.0</ele><time>2026-03-28T15:50:02Z</time></trkpt><trkpt lat="39.32124711356372" lon="16.991475478204837"><ele>248.99999999999997</ele><time>2026-03-28T15:50:03Z</time></trkpt><trkpt lat="39.32129680840783" lon="16.99156798015739"><ele>248.99999999999997</ele><time>2026-03-28T15:50:04Z</time></trkpt><trkpt lat="39.32133666092186" lon="16.991701844955934"><ele>249.0</ele><time>2026-03-28T15:50:05Z</time></trkpt><trkpt lat="39.321361465039736" lon="16.991842181325655"><ele>249.0</ele><time>2026-03-28T15:50:06Z</time></trkpt><trkpt lat="39.321374290426384" lon="16.991966929299807"><ele>249.33333333333334</ele><time>2026-03-28T15:50:07Z</time></trkpt><trkpt lat="39.321360533814584" lon="16.99208597733147"><ele>249.66666666666669</ele><time>2026-03-28T15:50:08Z</time></trkpt><trkpt lat="39.32135045061299" lon="16.99218677633465"><ele>250.0</ele><time>2026-03-28T15:50:09Z</time></trkpt><trkpt lat="39.321386437635226" lon="16.992290813560878"><ele>250.33333333333334</ele><time>2026-03-28T15:50:10Z</time></trkpt><trkpt lat="39.3214599901918" lon="16.992377143816125"><ele>250.66666666666669</ele><time>2026-03-28T15:50:11Z</time></trkpt><trkpt lat="39.32152360330133" lon="16.992459373169922"><ele>251.0</ele><time>2026-03-28T15:50:12Z</time></trkpt><trkpt lat="39.321584191962536" lon="16.992549475547975"><ele>249.33333333333334</ele><time>2026-03-28T15:50:13Z</time></trkpt><trkpt lat="39.321617743477994" lon="16.992636569742242"><ele>247.66666666666669</ele><time>2026-03-28T15:50:14Z</time></trkpt><trkpt lat="39.32165368538625" lon="16.992712611938398"><ele>246.0</ele><time>2026-03-28T15:50:15Z</time></trkpt><trkpt lat="39.32167699605108" lon="16.992799186900434"><ele>244.33333333333331</ele><time>2026-03-28T15:50:16Z</time></trkpt><trkpt lat="39.32172783963018" lon="16.992909597117638"><ele>242.66666666666666</ele><time>2026-03-28T15:50:17Z</time></trkpt><trkpt lat="39.32178280806545" lon="16.992992250946205"><ele>241.0</ele><time>2026-03-28T15:50:18Z</time></trkpt><trkpt lat="39.32184587093457" lon="16.993055214361476"><ele>240.99999999999997</ele><time>2026-03-28T15:50:19Z</time></trkpt><trkpt lat="39.32189928230609" lon="16.99314173432184"><ele>241.0</ele><time>2026-03-28T15:50:20Z</time></trkpt><trkpt lat="39.321934934853296" lon="16.99322864927526"><ele>241.0</ele><time>2026-03-28T15:50:21Z</time></trkpt><trkpt lat="39.32197589833299" lon="16.993325896048045"><ele>241.0</ele><time>2026-03-28T15:50:22Z</time></trkpt><trkpt lat="39.32201732276586" lon="16.9934124596734"><ele>240.99999999999997</ele><time>2026-03-28T15:50:23Z</time></trkpt><trkpt lat="39.32205839878699" lon="16.993493425428973"><ele>241.0</ele><time>2026-03-28T15:50:24Z</time></trkpt><trkpt lat="39.322115445009004" lon="16.99362253099316"><ele>237.66666666666666</ele><time>2026-03-28T15:50:26Z</time></trkpt><trkpt lat="39.322163723048305" lon="16.9936801267485"><ele>234.33333333333331</ele><time>2026-03-28T15:50:27Z</time></trkpt><trkpt lat="39.322237471834875" lon="16.993688917540112"><ele>231.0</ele><time>2026-03-28T15:50:28Z</time></trkpt><trkpt lat="39.3223123290949" lon="16.993697013575396"><ele>227.66666666666669</ele><time>2026-03-28T15:50:29Z</time></trkpt><trkpt lat="39.3223892580519" lon="16.993678245472765"><ele>224.33333333333334</ele><time>2026-03-28T15:50:30Z</time></trkpt><trkpt lat="39.32246428889896" lon="16.993639471420924"><ele>221.0</ele><time>2026-03-28T15:50:31Z</time></trkpt><trkpt lat="39.322538111478806" lon="16.99359482863194"><ele>221.00000000000003</ele><time>2026-03-28T15:50:32Z</time></trkpt><trkpt lat="39.32262856841412" lon="16.9935173359127"><ele>221.0</ele><time>2026-03-28T15:50:34Z</time></trkpt><trkpt lat="39.32268569391827" lon="16.993457843026277"><ele>221.0</ele><time>2026-03-28T15:50:35Z</time></trkpt><trkpt lat="39.322799632114105" lon="16.993400686420163"><ele>221.0</ele><time>2026-03-28T15:50:37Z</time></trkpt><trkpt lat="39.32285675946172" lon="16.993362479732074"><ele>221.00000000000003</ele><time>2026-03-28T15:50:38Z</time></trkpt><trkpt lat="39.32292272538951" lon="16.993322553790495"><ele>221.0</ele><time>2026-03-28T15:50:39Z</time></trkpt><trkpt lat="39.32302370017494" lon="16.993328202061065"><ele>218.0</ele><time>2026-03-28T15:50:41Z</time></trkpt><trkpt lat="39.32309537325689" lon="16.993436729606408"><ele>215.00000000000003</ele><time>2026-03-28T15:50:43Z</time></trkpt><trkpt lat="39.32311700179405" lon="16.993523675668932"><ele>212.0</ele><time>2026-03-28T15:50:44Z</time></trkpt><trkpt lat="39.323139340444804" lon="16.99362907787539"><ele>209.0</ele><time>2026-03-28T15:50:45Z</time></trkpt><trkpt lat="39.32315614676579" lon="16.99374057892264"><ele>206.0</ele><time>2026-03-28T15:50:46Z</time></trkpt><trkpt lat="39.323185453574844" lon="16.99387927569273"><ele>206.0</ele><time>2026-03-28T15:50:47Z</time></trkpt><trkpt lat="39.32320167688473" lon="16.994043774764485"><ele>206.0</ele><time>2026-03-28T15:50:48Z</time></trkpt><trkpt lat="39.32320687289355" lon="16.99418766472576"><ele>206.0</ele><time>2026-03-28T15:50:49Z</time></trkpt><trkpt lat="39.32322957981273" lon="16.994346511714266"><ele>206.0</ele><time>2026-03-28T15:50:50Z</time></trkpt><trkpt lat="39.32322822638346" lon="16.994501511496402"><ele>204.4</ele><time>2026-03-28T15:50:51Z</time></trkpt><trkpt lat="39.32323866387158" lon="16.99463953517749"><ele>202.8</ele><time>2026-03-28T15:50:52Z</time></trkpt><trkpt lat="39.323261474785056" lon="16.9947564525131"><ele>201.20000000000002</ele><time>2026-03-28T15:50:53Z</time></trkpt><trkpt lat="39.32328337266176" lon="16.99487932066862"><ele>199.60000000000002</ele><time>2026-03-28T15:50:54Z</time></trkpt><trkpt lat="39.32331966254305" lon="16.994979612355515"><ele>198.0</ele><time>2026-03-28T15:50:55Z</time></trkpt><trkpt lat="39.323364083649714" lon="16.99504687816693"><ele>195.33333333333334</ele><time>2026-03-28T15:50:56Z</time></trkpt><trkpt lat="39.32342335363164" lon="16.995096591166643"><ele>192.66666666666666</ele><time>2026-03-28T15:50:57Z</time></trkpt><trkpt lat="39.32351048409562" lon="16.99514639943866"><ele>190.0</ele><time>2026-03-28T15:50:58Z</time></trkpt><trkpt lat="39.3235941756968" lon="16.995166405139646"><ele>187.33333333333331</ele><time>2026-03-28T15:50:59Z</time></trkpt><trkpt lat="39.32366870007065" lon="16.995170661546933"><ele>184.66666666666666</ele><time>2026-03-28T15:51:00Z</time></trkpt><trkpt lat="39.323783057898794" lon="16.995110912868903"><ele>182.0</ele><time>2026-03-28T15:51:01Z</time></trkpt><trkpt lat="39.32387728741831" lon="16.995103914633592"><ele>182.16666666666666</ele><time>2026-03-28T15:51:02Z</time></trkpt><trkpt lat="39.32397506686517" lon="16.995095912611497"><ele>182.33333333333331</ele><time>2026-03-28T15:51:03Z</time></trkpt><trkpt lat="39.32406683022877" lon="16.995089604118338"><ele>182.5</ele><time>2026-03-28T15:51:04Z</time></trkpt><trkpt lat="39.324161057046844" lon="16.995084376026995"><ele>182.66666666666666</ele><time>2026-03-28T15:51:05Z</time></trkpt><trkpt lat="39.32424122528778" lon="16.995079217983314"><ele>182.83333333333334</ele><time>2026-03-28T15:51:06Z</time></trkpt><trkpt lat="39.32432423284561" lon="16.995075106665524"><ele>183.0</ele><time>2026-03-28T15:51:07Z</time></trkpt><trkpt lat="39.32439235817368" lon="16.99501414768523"><ele>183.5</ele><time>2026-03-28T15:51:08Z</time></trkpt><trkpt lat="39.32444997814504" lon="16.99494433409349"><ele>184.0</ele><time>2026-03-28T15:51:09Z</time></trkpt><trkpt lat="39.32450984910387" lon="16.99486244784549"><ele>184.5</ele><time>2026-03-28T15:51:10Z</time></trkpt><trkpt lat="39.32456812402488" lon="16.994786354467443"><ele>185.0</ele><time>2026-03-28T15:51:11Z</time></trkpt><trkpt lat="39.32462509344815" lon="16.994704255960926"><ele>185.5</ele><time>2026-03-28T15:51:12Z</time></trkpt><trkpt lat="39.32468140519679" lon="16.99464999496594"><ele>186.0</ele><time>2026-03-28T15:51:13Z</time></trkpt><trkpt lat="39.32467414301335" lon="16.99449048250612"><ele>186.0</ele><time>2026-03-28T15:51:15Z</time></trkpt><trkpt lat="39.324677501940236" lon="16.994391254834508"><ele>186.0</ele><time>2026-03-28T15:51:16Z</time></trkpt><trkpt lat="39.32465930645877" lon="16.994289454224138"><ele>186.0</ele><time>2026-03-28T15:51:17Z</time></trkpt><trkpt lat="39.32464023599266" lon="16.99419221750154"><ele>186.0</ele><time>2026-03-28T15:51:18Z</time></trkpt><trkpt lat="39.32462330603517" lon="16.994102964664503"><ele>186.0</ele><time>2026-03-28T15:51:19Z</time></trkpt><trkpt lat="39.32459532676648" lon="16.993989752613228"><ele>186.0</ele><time>2026-03-28T15:51:21Z</time></trkpt><trkpt lat="39.32454673514184" lon="16.993896349920764"><ele>186.16666666666666</ele><time>2026-03-28T15:51:24Z</time></trkpt><trkpt lat="39.32461169623121" lon="16.993836267651727"><ele>186.33333333333334</ele><time>2026-03-28T15:51:27Z</time></trkpt><trkpt lat="39.324691695099126" lon="16.993936897146224"><ele>186.5</ele><time>2026-03-28T15:51:29Z</time></trkpt><trkpt lat="39.32474585763469" lon="16.993989735891788"><ele>186.66666666666669</ele><time>2026-03-28T15:51:30Z</time></trkpt><trkpt lat="39.3248016471931" lon="16.99404604489742"><ele>186.83333333333334</ele><time>2026-03-28T15:51:31Z</time></trkpt><trkpt lat="39.324875426984626" lon="16.994111953603568"><ele>187.0</ele><time>2026-03-28T15:51:32Z</time></trkpt><trkpt lat="39.32496099057301" lon="16.994181729586593"><ele>184.0</ele><time>2026-03-28T15:51:33Z</time></trkpt><trkpt lat="39.32503955388074" lon="16.994247921938452"><ele>181.0</ele><time>2026-03-28T15:51:34Z</time></trkpt><trkpt lat="39.325104775912244" lon="16.994286649306083"><ele>178.0</ele><time>2026-03-28T15:51:35Z</time></trkpt><trkpt lat="39.32516466064415" lon="16.994328391668464"><ele>175.0</ele><time>2026-03-28T15:51:36Z</time></trkpt><trkpt lat="39.32524236288924" lon="16.994360558494073"><ele>172.0</ele><time>2026-03-28T15:51:37Z</time></trkpt><trkpt lat="39.325334590299704" lon="16.994369896159892"><ele>169.0</ele><time>2026-03-28T15:51:38Z</time></trkpt><trkpt lat="39.32542331820205" lon="16.994388836872204"><ele>169.0</ele><time>2026-03-28T15:51:39Z</time></trkpt><trkpt lat="39.325512670356744" lon="16.994374317967914"><ele>169.0</ele><time>2026-03-28T15:51:40Z</time></trkpt><trkpt lat="39.32559304807606" lon="16.99436872241547"><ele>169.0</ele><time>2026-03-28T15:51:41Z</time></trkpt><trkpt lat="39.3256715705206" lon="16.99436289941212"><ele>169.0</ele><time>2026-03-28T15:51:42Z</time></trkpt><trkpt lat="39.32575881855173" lon="16.994355252159387"><ele>169.0</ele><time>2026-03-28T15:51:43Z</time></trkpt><trkpt lat="39.32584574250195" lon="16.99436408683007"><ele>169.0</ele><time>2026-03-28T15:51:44Z</time></trkpt><trkpt lat="39.3259322177632" lon="16.99436989121016"><ele>169.83333333333334</ele><time>2026-03-28T15:51:45Z</time></trkpt><trkpt lat="39.32600682676045" lon="16.994330192163762"><ele>170.66666666666669</ele><time>2026-03-28T15:51:46Z</time></trkpt><trkpt lat="39.32608169884037" lon="16.994336726316934"><ele>171.5</ele><time>2026-03-28T15:51:47Z</time></trkpt><trkpt lat="39.3261426257671" lon="16.9942216140411"><ele>172.33333333333334</ele><time>2026-03-28T15:51:48Z</time></trkpt><trkpt lat="39.32620735320735" lon="16.994171423186664"><ele>173.16666666666666</ele><time>2026-03-28T15:51:49Z</time></trkpt><trkpt lat="39.32626879383341" lon="16.994126084237493"><ele>174.0</ele><time>2026-03-28T15:51:50Z</time></trkpt><trkpt lat="39.326319991803594" lon="16.994075977029475"><ele>175.33333333333334</ele><time>2026-03-28T15:51:51Z</time></trkpt><trkpt lat="39.32636763997708" lon="16.994015636294044"><ele>176.66666666666666</ele><time>2026-03-28T15:51:52Z</time></trkpt><trkpt lat="39.32640937539347" lon="16.99393331302252"><ele>178.0</ele><time>2026-03-28T15:51:53Z</time></trkpt><trkpt lat="39.32645513901501" lon="16.993844966662415"><ele>179.33333333333331</ele><time>2026-03-28T15:51:54Z</time></trkpt><trkpt lat="39.326517714364016" lon="16.9937720954728"><ele>180.66666666666666</ele><time>2026-03-28T15:51:55Z</time></trkpt><trkpt lat="39.326584538086244" lon="16.99370802793467"><ele>182.0</ele><time>2026-03-28T15:51:56Z</time></trkpt><trkpt lat="39.326644284371675" lon="16.993637928511404"><ele>182.5</ele><time>2026-03-28T15:51:57Z</time></trkpt><trkpt lat="39.326703386864246" lon="16.993575596809507"><ele>183.0</ele><time>2026-03-28T15:51:58Z</time></trkpt><trkpt lat="39.32677351059509" lon="16.993550857749263"><ele>183.5</ele><time>2026-03-28T15:51:59Z</time></trkpt><trkpt lat="39.3268392007534" lon="16.99350415207668"><ele>184.0</ele><time>2026-03-28T15:52:00Z</time></trkpt><trkpt lat="39.326895276471085" lon="16.99344684408847"><ele>184.5</ele><time>2026-03-28T15:52:01Z</time></trkpt><trkpt lat="39.326938479194574" lon="16.99337330861153"><ele>185.0</ele><time>2026-03-28T15:52:02Z</time></trkpt><trkpt lat="39.326979798474255" lon="16.9932496354175"><ele>185.0</ele><time>2026-03-28T15:52:04Z</time></trkpt><trkpt lat="39.3270466471593" lon="16.993187098500467"><ele>185.0</ele><time>2026-03-28T15:52:07Z</time></trkpt><trkpt lat="39.32709030676925" lon="16.99327484943061"><ele>185.0</ele><time>2026-03-28T15:52:11Z</time></trkpt><trkpt lat="39.32716287125916" lon="16.993321848765046"><ele>185.0</ele><time>2026-03-28T15:52:16Z</time></trkpt><trkpt lat="39.327223273563185" lon="16.993382247927197"><ele>185.0</ele><time>2026-03-28T15:52:20Z</time></trkpt><trkpt lat="39.32729108631949" lon="16.993409851768515"><ele>185.0</ele><time>2026-03-28T15:52:23Z</time></trkpt><trkpt lat="39.32737927496003" lon="16.993402795449118"><ele>185.85714285714283</ele><time>2026-03-28T15:52:26Z</time></trkpt><trkpt lat="39.327443479785956" lon="16.993435637341115"><ele>186.71428571428572</ele><time>2026-03-28T15:52:29Z</time></trkpt><trkpt lat="39.32745533185206" lon="16.99355300220383"><ele>187.57142857142856</ele><time>2026-03-28T15:52:32Z</time></trkpt><trkpt lat="39.327465978302925" lon="16.993636602308456"><ele>188.42857142857142</ele><time>2026-03-28T15:52:33Z</time></trkpt><trkpt lat="39.32747891677682" lon="16.9937247380993"><ele>189.28571428571428</ele><time>2026-03-28T15:52:34Z</time></trkpt><trkpt lat="39.327492835497935" lon="16.993817006241876"><ele>190.14285714285714</ele><time>2026-03-28T15:52:35Z</time></trkpt><trkpt lat="39.327508699391664" lon="16.99391165903079"><ele>191.0</ele><time>2026-03-28T15:52:36Z</time></trkpt><trkpt lat="39.327529474721445" lon="16.994017251276784"><ele>191.0</ele><time>2026-03-28T15:52:37Z</time></trkpt><trkpt lat="39.32755773482864" lon="16.99412982389459"><ele>191.0</ele><time>2026-03-28T15:52:38Z</time></trkpt><trkpt lat="39.327594191289165" lon="16.9942452927254"><ele>191.0</ele><time>2026-03-28T15:52:39Z</time></trkpt><trkpt lat="39.32763807582714" lon="16.994363882928944"><ele>191.0</ele><time>2026-03-28T15:52:40Z</time></trkpt><trkpt lat="39.327682892833266" lon="16.99447289759351"><ele>191.0</ele><time>2026-03-28T15:52:41Z</time></trkpt><trkpt lat="39.327723358130605" lon="16.9945798755998"><ele>191.0</ele><time>2026-03-28T15:52:42Z</time></trkpt><trkpt lat="39.32775849590538" lon="16.994687739232855"><ele>191.0</ele><time>2026-03-28T15:52:43Z</time></trkpt><trkpt lat="39.327803682208824" lon="16.994781998063463"><ele>191.0</ele><time>2026-03-28T15:52:44Z</time></trkpt><trkpt lat="39.327808107671615" lon="16.994891836956736"><ele>191.0</ele><time>2026-03-28T15:52:45Z</time></trkpt><trkpt lat="39.32781164671518" lon="16.995001978220124"><ele>191.0</ele><time>2026-03-28T15:52:46Z</time></trkpt><trkpt lat="39.327812666942705" lon="16.99511213823348"><ele>191.0</ele><time>2026-03-28T15:52:47Z</time></trkpt><trkpt lat="39.327809799243695" lon="16.99521617799803"><ele>190.16666666666666</ele><time>2026-03-28T15:52:48Z</time></trkpt><trkpt lat="39.32780256999296" lon="16.995317992990678"><ele>189.33333333333331</ele><time>2026-03-28T15:52:49Z</time></trkpt><trkpt lat="39.32778484425027" lon="16.995417300253113"><ele>188.5</ele><time>2026-03-28T15:52:50Z</time></trkpt><trkpt lat="39.32777333510872" lon="16.99552187488188"><ele>187.66666666666666</ele><time>2026-03-28T15:52:51Z</time></trkpt><trkpt lat="39.32775932317079" lon="16.995630887973736"><ele>186.83333333333334</ele><time>2026-03-28T15:52:52Z</time></trkpt><trkpt lat="39.32774524107866" lon="16.99574149291796"><ele>186.0</ele><time>2026-03-28T15:52:53Z</time></trkpt><trkpt lat="39.327731296220634" lon="16.99584443383831"><ele>184.4</ele><time>2026-03-28T15:52:54Z</time></trkpt><trkpt lat="39.32771259808296" lon="16.995938002962504"><ele>182.8</ele><time>2026-03-28T15:52:55Z</time></trkpt><trkpt lat="39.327688698901625" lon="16.996023097917433"><ele>181.20000000000002</ele><time>2026-03-28T15:52:56Z</time></trkpt><trkpt lat="39.32765607753314" lon="16.996097074992953"><ele>179.60000000000002</ele><time>2026-03-28T15:52:57Z</time></trkpt><trkpt lat="39.32756513407824" lon="16.996197500756338"><ele>178.0</ele><time>2026-03-28T15:52:59Z</time></trkpt><trkpt lat="39.32744692496128" lon="16.996253789513798"><ele>177.99999999999997</ele><time>2026-03-28T15:53:01Z</time></trkpt><trkpt lat="39.327384336800385" lon="16.99628352951811"><ele>178.0</ele><time>2026-03-28T15:53:02Z</time></trkpt><trkpt lat="39.327321969814356" lon="16.996311012296548"><ele>178.0</ele><time>2026-03-28T15:53:03Z</time></trkpt><trkpt lat="39.32726139690043" lon="16.996342925973284"><ele>178.0</ele><time>2026-03-28T15:53:04Z</time></trkpt><trkpt lat="39.327198110971324" lon="16.996366704307963"><ele>178.0</ele><time>2026-03-28T15:53:05Z</time></trkpt><trkpt lat="39.32712681884531" lon="16.996370979043444"><ele>177.99999999999997</ele><time>2026-03-28T15:53:06Z</time></trkpt><trkpt lat="39.32705632222364" lon="16.996394292705432"><ele>178.0</ele><time>2026-03-28T15:53:07Z</time></trkpt><trkpt lat="39.32698448236835" lon="16.99641858494105"><ele>177.0</ele><time>2026-03-28T15:53:08Z</time></trkpt><trkpt lat="39.32691237295014" lon="16.996444664272595"><ele>176.0</ele><time>2026-03-28T15:53:09Z</time></trkpt><trkpt lat="39.32683772021603" lon="16.996471663409935"><ele>175.0</ele><time>2026-03-28T15:53:10Z</time></trkpt><trkpt lat="39.3267620213184" lon="16.99651166878379"><ele>174.0</ele><time>2026-03-28T15:53:11Z</time></trkpt><trkpt lat="39.32667874154515" lon="16.996530010869463"><ele>173.0</ele><time>2026-03-28T15:53:12Z</time></trkpt><trkpt lat="39.326607713388626" lon="16.996585288509912"><ele>172.0</ele><time>2026-03-28T15:53:13Z</time></trkpt><trkpt lat="39.32653238635824" lon="16.99662103118097"><ele>172.00000000000003</ele><time>2026-03-28T15:53:14Z</time></trkpt><trkpt lat="39.32645748124402" lon="16.996647284295616"><ele>172.0</ele><time>2026-03-28T15:53:15Z</time></trkpt><trkpt lat="39.326388610520006" lon="16.996673407788915"><ele>172.0</ele><time>2026-03-28T15:53:16Z</time></trkpt><trkpt lat="39.32634085877711" lon="16.996730506175087"><ele>172.0</ele><time>2026-03-28T15:53:17Z</time></trkpt><trkpt lat="39.32630864266989" lon="16.99681065920103"><ele>172.0</ele><time>2026-03-28T15:53:18Z</time></trkpt><trkpt lat="39.3262651575692" lon="16.996882081253485"><ele>172.00000000000003</ele><time>2026-03-28T15:53:19Z</time></trkpt><trkpt lat="39.32623753623946" lon="16.99696002537368"><ele>172.0</ele><time>2026-03-28T15:53:20Z</time></trkpt><trkpt lat="39.32618813047509" lon="16.99710372974402"><ele>169.66666666666669</ele><time>2026-03-28T15:53:22Z</time></trkpt><trkpt lat="39.326143760112195" lon="16.997222299172044"><ele>167.33333333333334</ele><time>2026-03-28T15:53:24Z</time></trkpt><trkpt lat="39.32610509245114" lon="16.99730920205348"><ele>165.0</ele><time>2026-03-28T15:53:26Z</time></trkpt><trkpt lat="39.32607069524829" lon="16.997383574121855"><ele>162.66666666666666</ele><time>2026-03-28T15:53:28Z</time></trkpt><trkpt lat="39.326025783065035" lon="16.997478008438772"><ele>160.33333333333331</ele><time>2026-03-28T15:53:31Z</time></trkpt><trkpt lat="39.32598866295623" lon="16.99755523547919"><ele>158.0</ele><time>2026-03-28T15:53:34Z</time></trkpt><trkpt lat="39.32595297351987" lon="16.99762824852154"><ele>156.8</ele><time>2026-03-28T15:53:37Z</time></trkpt><trkpt lat="39.32591584011198" lon="16.99770421594365"><ele>155.60000000000002</ele><time>2026-03-28T15:53:40Z</time></trkpt><trkpt lat="39.325858671232155" lon="16.99784420591618"><ele>154.39999999999998</ele><time>2026-03-28T15:58:20Z</time></trkpt><trkpt lat="39.32583130577409" lon="16.997924733518836"><ele>153.2</ele><time>2026-03-28T15:58:40Z</time></trkpt><trkpt lat="39.325781035272584" lon="16.998072662744377"><ele>152.0</ele><time>2026-03-28T15:58:42Z</time></trkpt><trkpt lat="39.32574756559853" lon="16.998171149676743"><ele>152.0</ele><time>2026-03-28T15:58:43Z</time></trkpt><trkpt lat="39.32571595191931" lon="16.998264175210082"><ele>152.0</ele><time>2026-03-28T15:58:44Z</time></trkpt><trkpt lat="39.32569853577752" lon="16.998360069367962"><ele>152.0</ele><time>2026-03-28T15:58:45Z</time></trkpt><trkpt lat="39.32567317385322" lon="16.998449433344135"><ele>152.0</ele><time>2026-03-28T15:58:46Z</time></trkpt><trkpt lat="39.325656871023384" lon="16.998540561023855"><ele>152.0</ele><time>2026-03-28T15:58:47Z</time></trkpt><trkpt lat="39.32564992600706" lon="16.998626549859857"><ele>152.0</ele><time>2026-03-28T15:58:48Z</time></trkpt><trkpt lat="39.32564388389869" lon="16.998720739558927"><ele>152.0</ele><time>2026-03-28T15:58:49Z</time></trkpt><trkpt lat="39.325694730598734" lon="16.998772449297316"><ele>148.83333333333331</ele><time>2026-03-28T15:58:50Z</time></trkpt><trkpt lat="39.32579959804734" lon="16.99883754562437"><ele>145.66666666666666</ele><time>2026-03-28T15:58:52Z</time></trkpt><trkpt lat="39.32587239969822" lon="16.998857957480574"><ele>142.5</ele><time>2026-03-28T15:58:53Z</time></trkpt><trkpt lat="39.32594918926049" lon="16.998870365615694"><ele>139.33333333333334</ele><time>2026-03-28T15:58:54Z</time></trkpt><trkpt lat="39.32602161241271" lon="16.998882068197453"><ele>136.16666666666669</ele><time>2026-03-28T15:58:55Z</time></trkpt><trkpt lat="39.32608894489237" lon="16.998889574867793"><ele>133.0</ele><time>2026-03-28T15:58:56Z</time></trkpt><trkpt lat="39.326158971800375" lon="16.998692296117778"><ele>133.0</ele><time>2026-03-28T15:58:57Z</time></trkpt><trkpt lat="39.32620268414822" lon="16.998602905604006"><ele>133.0</ele><time>2026-03-28T15:58:58Z</time></trkpt><trkpt lat="39.32624896554927" lon="16.998526071922594"><ele>133.0</ele><time>2026-03-28T15:58:59Z</time></trkpt><trkpt lat="39.3262823991558" lon="16.998446012352467"><ele>133.0</ele><time>2026-03-28T15:59:00Z</time></trkpt><trkpt lat="39.32636207225434" lon="16.998377915219727"><ele>133.0</ele><time>2026-03-28T15:59:02Z</time></trkpt><trkpt lat="39.326436073670486" lon="16.998348896189583"><ele>133.0</ele><time>2026-03-28T15:59:04Z</time></trkpt><trkpt lat="39.326390417247474" lon="16.998596626702675"><ele>133.0</ele><time>2026-03-28T15:59:07Z</time></trkpt><trkpt lat="39.32635666536512" lon="16.99872001041337"><ele>133.0</ele><time>2026-03-28T15:59:08Z</time></trkpt><trkpt lat="39.326314838147745" lon="16.998842750457026"><ele>133.0</ele><time>2026-03-28T15:59:09Z</time></trkpt><trkpt lat="39.326268106942244" lon="16.99895167322491"><ele>133.0</ele><time>2026-03-28T15:59:10Z</time></trkpt><trkpt lat="39.326206181375134" lon="16.9990565180243"><ele>133.0</ele><time>2026-03-28T15:59:11Z</time></trkpt><trkpt lat="39.32614585603946" lon="16.99916409820638"><ele>129.33333333333334</ele><time>2026-03-28T15:59:12Z</time></trkpt><trkpt lat="39.326062392454354" lon="16.999242061026706"><ele>125.66666666666667</ele><time>2026-03-28T15:59:13Z</time></trkpt><trkpt lat="39.325987924728494" lon="16.99932451134662"><ele>122.0</ele><time>2026-03-28T15:59:14Z</time></trkpt><trkpt lat="39.3259093260825" lon="16.999387115957838"><ele>118.33333333333334</ele><time>2026-03-28T15:59:15Z</time></trkpt><trkpt lat="39.32585223117385" lon="16.999450448366186"><ele>114.66666666666667</ele><time>2026-03-28T15:59:16Z</time></trkpt><trkpt lat="39.325793186833" lon="16.999483025589203"><ele>111.0</ele><time>2026-03-28T15:59:17Z</time></trkpt><trkpt lat="39.3257340533846" lon="16.999529697916035"><ele>111.0</ele><time>2026-03-28T15:59:18Z</time></trkpt><trkpt lat="39.325803956862" lon="16.999743585534603"><ele>111.0</ele><time>2026-03-28T15:59:22Z</time></trkpt><trkpt lat="39.325871521881865" lon="16.999830436925993"><ele>111.0</ele><time>2026-03-28T15:59:23Z</time></trkpt><trkpt lat="39.32594067950905" lon="16.999925479300163"><ele>111.0</ele><time>2026-03-28T15:59:24Z</time></trkpt><trkpt lat="39.32600350581685" lon="17.000017819843535"><ele>111.0</ele><time>2026-03-28T15:59:25Z</time></trkpt><trkpt lat="39.32605648484673" lon="17.000113454009"><ele>111.0</ele><time>2026-03-28T15:59:26Z</time></trkpt><trkpt lat="39.32608234948922" lon="17.000220678554236"><ele>111.0</ele><time>2026-03-28T15:59:27Z</time></trkpt><trkpt lat="39.32605129550735" lon="17.00034570365503"><ele>111.0</ele><time>2026-03-28T15:59:28Z</time></trkpt><trkpt lat="39.32600951203466" lon="17.00045373047388"><ele>111.0</ele><time>2026-03-28T15:59:29Z</time></trkpt><trkpt lat="39.325975837703226" lon="17.000562000271948"><ele>111.0</ele><time>2026-03-28T15:59:30Z</time></trkpt><trkpt lat="39.32591681699607" lon="17.000652325414745"><ele>111.0</ele><time>2026-03-28T15:59:31Z</time></trkpt><trkpt lat="39.32584800002536" lon="17.000731456608282"><ele>111.0</ele><time>2026-03-28T15:59:32Z</time></trkpt><trkpt lat="39.325784334138966" lon="17.000821248733953"><ele>111.0</ele><time>2026-03-28T15:59:33Z</time></trkpt><trkpt lat="39.3257335528105" lon="17.000932723244222"><ele>111.0</ele><time>2026-03-28T15:59:34Z</time></trkpt><trkpt lat="39.325687709357716" lon="17.001054374128014"><ele>111.0</ele><time>2026-03-28T15:59:35Z</time></trkpt><trkpt lat="39.32565614158343" lon="17.0011897585217"><ele>111.0</ele><time>2026-03-28T15:59:36Z</time></trkpt><trkpt lat="39.325632688133155" lon="17.001326566145277"><ele>111.0</ele><time>2026-03-28T15:59:37Z</time></trkpt><trkpt lat="39.325616552380446" lon="17.001462895442355"><ele>111.0</ele><time>2026-03-28T15:59:38Z</time></trkpt><trkpt lat="39.32560210751781" lon="17.00159850129559"><ele>111.0</ele><time>2026-03-28T15:59:39Z</time></trkpt><trkpt lat="39.325480338116975" lon="17.001759911793773"><ele>111.0</ele><time>2026-03-28T15:59:40Z</time></trkpt><trkpt lat="39.325496353587376" lon="17.001885512822355"><ele>111.0</ele><time>2026-03-28T15:59:41Z</time></trkpt><trkpt lat="39.32550196764791" lon="17.001987890367715"><ele>111.0</ele><time>2026-03-28T15:59:42Z</time></trkpt><trkpt lat="39.32550323030344" lon="17.00209199917585"><ele>111.0</ele><time>2026-03-28T15:59:43Z</time></trkpt><trkpt lat="39.32549002421156" lon="17.002176107318643"><ele>111.0</ele><time>2026-03-28T15:59:44Z</time></trkpt><trkpt lat="39.325483024472504" lon="17.002275658680986"><ele>111.0</ele><time>2026-03-28T15:59:45Z</time></trkpt><trkpt lat="39.325476047720464" lon="17.002374883070175"><ele>111.0</ele><time>2026-03-28T15:59:46Z</time></trkpt><trkpt lat="39.32540619993938" lon="17.002380339679505"><ele>111.0</ele><time>2026-03-28T15:59:47Z</time></trkpt><trkpt lat="39.325655062869984" lon="17.002587536711268"><ele>111.0</ele><time>2026-03-28T15:59:48Z</time></trkpt><trkpt lat="39.325664454724894" lon="17.002683743110854"><ele>111.0</ele><time>2026-03-28T15:59:49Z</time></trkpt><trkpt lat="39.32566470278819" lon="17.00277156505847"><ele>111.14285714285714</ele><time>2026-03-28T15:59:50Z</time></trkpt><trkpt lat="39.325635799910444" lon="17.002905974859534"><ele>111.28571428571429</ele><time>2026-03-28T15:59:52Z</time></trkpt><trkpt lat="39.325609503552506" lon="17.002982489354675"><ele>111.42857142857143</ele><time>2026-03-28T15:59:54Z</time></trkpt><trkpt lat="39.325570438621206" lon="17.00306389792292"><ele>111.57142857142857</ele><time>2026-03-28T16:00:01Z</time></trkpt><trkpt lat="39.32552385826225" lon="17.003119104348162"><ele>111.71428571428572</ele><time>2026-03-28T16:00:06Z</time></trkpt><trkpt lat="39.32547220510102" lon="17.003180320169157"><ele>111.85714285714286</ele><time>2026-03-28T16:00:15Z</time></trkpt><trkpt lat="39.32543200191836" lon="17.003245770257983"><ele>112.0</ele><time>2026-03-28T16:00:22Z</time></trkpt><trkpt lat="39.32540923333007" lon="17.003331392198085"><ele>112.0</ele><time>2026-03-28T16:00:33Z</time></trkpt><trkpt lat="39.32539257268927" lon="17.003410654114234"><ele>112.0</ele><time>2026-03-28T16:00:40Z</time></trkpt><trkpt lat="39.325353889212025" lon="17.003492712815845"><ele>112.0</ele><time>2026-03-28T16:00:49Z</time></trkpt><trkpt lat="39.32531859930437" lon="17.00357183623029"><ele>112.0</ele><time>2026-03-28T16:00:53Z</time></trkpt><trkpt lat="39.325266266150834" lon="17.00364791345969"><ele>112.0</ele><time>2026-03-28T16:00:56Z</time></trkpt><trkpt lat="39.32523981732815" lon="17.003725617279006"><ele>112.0</ele><time>2026-03-28T16:00:58Z</time></trkpt><trkpt lat="39.325190798199124" lon="17.00382907519887"><ele>112.0</ele><time>2026-03-28T16:01:01Z</time></trkpt><trkpt lat="39.325182103179785" lon="17.003923300693252"><ele>112.00000000000001</ele><time>2026-03-28T16:01:04Z</time></trkpt><trkpt lat="39.3251839002723" lon="17.004005144787406"><ele>112.0</ele><time>2026-03-28T16:01:06Z</time></trkpt><trkpt lat="39.32520766135672" lon="17.004100969134903"><ele>112.0</ele><time>2026-03-28T16:01:08Z</time></trkpt><trkpt lat="39.325224245576244" lon="17.004195773353718"><ele>112.0</ele><time>2026-03-28T16:01:10Z</time></trkpt><trkpt lat="39.32524156796585" lon="17.00431820544889"><ele>112.00000000000001</ele><time>2026-03-28T16:01:12Z</time></trkpt><trkpt lat="39.325246109930426" lon="17.004456747362354"><ele>112.0</ele><time>2026-03-28T16:01:14Z</time></trkpt><trkpt lat="39.32522994731325" lon="17.004583848843435"><ele>111.0</ele><time>2026-03-28T16:01:16Z</time></trkpt><trkpt lat="39.32521046697885" lon="17.004706591883927"><ele>109.99999999999999</ele><time>2026-03-28T16:01:18Z</time></trkpt><trkpt lat="39.325206629582986" lon="17.004848137313054"><ele>108.99999999999999</ele><time>2026-03-28T16:01:20Z</time></trkpt><trkpt lat="39.32520393763962" lon="17.005011730509"><ele>108.0</ele><time>2026-03-28T16:01:22Z</time></trkpt><trkpt lat="39.32518688514444" lon="17.00515829966802"><ele>107.0</ele><time>2026-03-28T16:01:24Z</time></trkpt><trkpt lat="39.32517425969151" lon="17.00527742027566"><ele>106.83333333333333</ele><time>2026-03-28T16:01:26Z</time></trkpt><trkpt lat="39.32516965160307" lon="17.00537751440811"><ele>106.66666666666666</ele><time>2026-03-28T16:01:28Z</time></trkpt><trkpt lat="39.32517198274615" lon="17.005465313987877"><ele>106.5</ele><time>2026-03-28T16:01:30Z</time></trkpt><trkpt lat="39.32517078415256" lon="17.00556039256594"><ele>106.33333333333334</ele><time>2026-03-28T16:01:32Z</time></trkpt><trkpt lat="39.325166290559636" lon="17.005676511230018"><ele>106.16666666666667</ele><time>2026-03-28T16:01:34Z</time></trkpt><trkpt lat="39.32515891922683" lon="17.00579854761244"><ele>106.0</ele><time>2026-03-28T16:01:36Z</time></trkpt><trkpt lat="39.32515110348305" lon="17.005910578279593"><ele>105.57142857142857</ele><time>2026-03-28T16:01:38Z</time></trkpt><trkpt lat="39.32514699664755" lon="17.006010458008628"><ele>105.14285714285714</ele><time>2026-03-28T16:01:40Z</time></trkpt><trkpt lat="39.325127034446545" lon="17.006092218420637"><ele>104.71428571428571</ele><time>2026-03-28T16:01:42Z</time></trkpt><trkpt lat="39.32511537809387" lon="17.006178945093183"><ele>104.28571428571428</ele><time>2026-03-28T16:01:44Z</time></trkpt><trkpt lat="39.325078501128274" lon="17.006256407620082"><ele>103.85714285714286</ele><time>2026-03-28T16:01:46Z</time></trkpt><trkpt lat="39.325090640359164" lon="17.00635366282209"><ele>103.42857142857142</ele><time>2026-03-28T16:01:48Z</time></trkpt><trkpt lat="39.32509068221607" lon="17.006452910986575"><ele>103.0</ele><time>2026-03-28T16:01:50Z</time></trkpt><trkpt lat="39.325103595425766" lon="17.00655021406634"><ele>103.00000000000001</ele><time>2026-03-28T16:01:52Z</time></trkpt><trkpt lat="39.32511101123692" lon="17.006636834603494"><ele>103.0</ele><time>2026-03-28T16:01:54Z</time></trkpt><trkpt lat="39.32511302469875" lon="17.00672399509241"><ele>103.0</ele><time>2026-03-28T16:01:56Z</time></trkpt><trkpt lat="39.32513168124636" lon="17.00681722041525"><ele>103.0</ele><time>2026-03-28T16:01:58Z</time></trkpt><trkpt lat="39.32516056510011" lon="17.006917031410694"><ele>103.00000000000001</ele><time>2026-03-28T16:02:00Z</time></trkpt><trkpt lat="39.32520914759742" lon="17.00700328216371"><ele>103.0</ele><time>2026-03-28T16:02:03Z</time></trkpt><trkpt lat="39.32527826319433" lon="17.007078705304046"><ele>103.4</ele><time>2026-03-28T16:02:06Z</time></trkpt><trkpt lat="39.325342092808164" lon="17.00714613885927"><ele>103.80000000000001</ele><time>2026-03-28T16:02:08Z</time></trkpt><trkpt lat="39.32542360682512" lon="17.007149976758217"><ele>104.2</ele><time>2026-03-28T16:02:10Z</time></trkpt><trkpt lat="39.32551246651686" lon="17.007147761285395"><ele>104.6</ele><time>2026-03-28T16:02:12Z</time></trkpt><trkpt lat="39.3256200703396" lon="17.007152309513753"><ele>105.0</ele><time>2026-03-28T16:02:14Z</time></trkpt><trkpt lat="39.32573948213112" lon="17.007150004208487"><ele>103.66666666666667</ele><time>2026-03-28T16:02:16Z</time></trkpt><trkpt lat="39.325799365108566" lon="17.00712184717541"><ele>102.33333333333334</ele><time>2026-03-28T16:02:17Z</time></trkpt><trkpt lat="39.32591520582054" lon="17.007131355443626"><ele>101.0</ele><time>2026-03-28T16:02:19Z</time></trkpt><trkpt lat="39.3260427230803" lon="17.00716144813663"><ele>99.66666666666667</ele><time>2026-03-28T16:02:21Z</time></trkpt><trkpt lat="39.326105768557476" lon="17.00719018396384"><ele>98.33333333333334</ele><time>2026-03-28T16:02:22Z</time></trkpt><trkpt lat="39.32616617830968" lon="17.007217866081373"><ele>97.0</ele><time>2026-03-28T16:02:23Z</time></trkpt><trkpt lat="39.32622639637815" lon="17.00724461462603"><ele>97.0</ele><time>2026-03-28T16:02:24Z</time></trkpt><trkpt lat="39.32627697660494" lon="17.007293143878602"><ele>97.0</ele><time>2026-03-28T16:02:25.001Z</time></trkpt><trkpt lat="39.3263515061511" lon="17.007398892700433"><ele>97.0</ele><time>2026-03-28T16:02:27.001Z</time></trkpt><trkpt lat="39.32642844730739" lon="17.007508992921252"><ele>97.0</ele><time>2026-03-28T16:02:29.001Z</time></trkpt><trkpt lat="39.3264768220583" lon="17.00763677870287"><ele>97.0</ele><time>2026-03-28T16:02:31.001Z</time></trkpt><trkpt lat="39.326545888175374" lon="17.00776640342945"><ele>96.6</ele><time>2026-03-28T16:02:33.001Z</time></trkpt><trkpt lat="39.326592874943685" lon="17.00790651449338"><ele>96.19999999999999</ele><time>2026-03-28T16:02:35.001Z</time></trkpt><trkpt lat="39.32662191925449" lon="17.008044926059945"><ele>95.8</ele><time>2026-03-28T16:02:37.001Z</time></trkpt><trkpt lat="39.326626847521325" lon="17.00817248251816"><ele>95.4</ele><time>2026-03-28T16:02:39.001Z</time></trkpt><trkpt lat="39.326572667582234" lon="17.008284379469607"><ele>95.0</ele><time>2026-03-28T16:02:41.001Z</time></trkpt><trkpt lat="39.32650823212059" lon="17.00839532926912"><ele>94.6</ele><time>2026-03-28T16:02:43.001Z</time></trkpt><trkpt lat="39.326473522286044" lon="17.008497853455452"><ele>94.2</ele><time>2026-03-28T16:02:45.001Z</time></trkpt><trkpt lat="39.32644541756573" lon="17.008588642931095"><ele>93.80000000000001</ele><time>2026-03-28T16:02:47.001Z</time></trkpt><trkpt lat="39.32642238925509" lon="17.008701082213733"><ele>93.4</ele><time>2026-03-28T16:02:49.001Z</time></trkpt><trkpt lat="39.32642593409699" lon="17.008857060526395"><ele>93.0</ele><time>2026-03-28T16:02:51.001Z</time></trkpt><trkpt lat="39.326470948940106" lon="17.0090051981151"><ele>93.0</ele><time>2026-03-28T16:02:53.001Z</time></trkpt><trkpt lat="39.326507579103406" lon="17.00907212139111"><ele>93.0</ele><time>2026-03-28T16:02:54.001Z</time></trkpt><trkpt lat="39.32654645718414" lon="17.0091364319197"><ele>93.0</ele><time>2026-03-28T16:02:55.001Z</time></trkpt><trkpt lat="39.32664639186846" lon="17.009219930058862"><ele>93.0</ele><time>2026-03-28T16:02:57.001Z</time></trkpt><trkpt lat="39.32674810581711" lon="17.009295788167147"><ele>93.0</ele><time>2026-03-28T16:02:59.001Z</time></trkpt><trkpt lat="39.32681044184557" lon="17.009313150690232"><ele>93.0</ele><time>2026-03-28T16:03:00.001Z</time></trkpt><trkpt lat="39.3268759096334" lon="17.009315604303744"><ele>93.2</ele><time>2026-03-28T16:03:01.001Z</time></trkpt><trkpt lat="39.326985574574366" lon="17.009335087193485"><ele>93.4</ele><time>2026-03-28T16:03:03.001Z</time></trkpt><trkpt lat="39.3270545408077" lon="17.00937856318196"><ele>93.60000000000001</ele><time>2026-03-28T16:03:06.001Z</time></trkpt><trkpt lat="39.327131521304636" lon="17.009457122815228"><ele>93.80000000000001</ele><time>2026-03-28T16:03:08.001Z</time></trkpt><trkpt lat="39.327210666752805" lon="17.009528218210207"><ele>94.0</ele><time>2026-03-28T16:03:10.001Z</time></trkpt><trkpt lat="39.32727668023614" lon="17.00957441615366"><ele>94.0</ele><time>2026-03-28T16:03:12.001Z</time></trkpt><trkpt lat="39.327352648164606" lon="17.009616219393813"><ele>94.0</ele><time>2026-03-28T16:03:15.001Z</time></trkpt><trkpt lat="39.327430035622505" lon="17.00964146964919"><ele>94.0</ele><time>2026-03-28T16:03:20.001Z</time></trkpt><trkpt lat="39.32751206599478" lon="17.009757774974407"><ele>94.0</ele><time>2026-03-28T16:03:22.001Z</time></trkpt><trkpt lat="39.327518392724244" lon="17.009843605879045"><ele>94.0</ele><time>2026-03-28T16:03:23.001Z</time></trkpt><trkpt lat="39.327502482121226" lon="17.009935965238295"><ele>94.0</ele><time>2026-03-28T16:03:24.001Z</time></trkpt><trkpt lat="39.32748442834903" lon="17.010013984555673"><ele>93.0</ele><time>2026-03-28T16:03:25.001Z</time></trkpt><trkpt lat="39.32745133440889" lon="17.010147053348426"><ele>92.0</ele><time>2026-03-28T16:03:27.001Z</time></trkpt><trkpt lat="39.327428436181144" lon="17.010268641800078"><ele>91.0</ele><time>2026-03-28T16:03:29.001Z</time></trkpt><trkpt lat="39.32740108165836" lon="17.010379541435178"><ele>90.0</ele><time>2026-03-28T16:03:31.001Z</time></trkpt><trkpt lat="39.32735414208119" lon="17.010498583454737"><ele>89.0</ele><time>2026-03-28T16:03:33.001Z</time></trkpt><trkpt lat="39.32731915048266" lon="17.01062607197329"><ele>89.0</ele><time>2026-03-28T16:03:35.001Z</time></trkpt><trkpt lat="39.32734085078846" lon="17.010712439094654"><ele>89.0</ele><time>2026-03-28T16:03:37.001Z</time></trkpt><trkpt lat="39.32740353720802" lon="17.010801557726015"><ele>89.0</ele><time>2026-03-28T16:03:40.001Z</time></trkpt><trkpt lat="39.32746426714906" lon="17.010851637591973"><ele>89.0</ele><time>2026-03-28T16:03:42.001Z</time></trkpt><trkpt lat="39.327527295640266" lon="17.010921470432248"><ele>89.0</ele><time>2026-03-28T16:03:44.001Z</time></trkpt><trkpt lat="39.32761580220661" lon="17.010972689407534"><ele>89.0</ele><time>2026-03-28T16:03:46.001Z</time></trkpt><trkpt lat="39.32768935631346" lon="17.011044792735213"><ele>89.2</ele><time>2026-03-28T16:03:48.001Z</time></trkpt><trkpt lat="39.3277769551635" lon="17.01111471921463"><ele>89.4</ele><time>2026-03-28T16:03:50.001Z</time></trkpt><trkpt lat="39.32786588928348" lon="17.011198171518735"><ele>89.6</ele><time>2026-03-28T16:03:52.001Z</time></trkpt><trkpt lat="39.327914222225154" lon="17.01126380452971"><ele>89.8</ele><time>2026-03-28T16:03:54.001Z</time></trkpt><trkpt lat="39.32796840176504" lon="17.01135445532"><ele>90.0</ele><time>2026-03-28T16:03:56.001Z</time></trkpt><trkpt lat="39.32803460204402" lon="17.011452287088886"><ele>90.0</ele><time>2026-03-28T16:03:58.001Z</time></trkpt><trkpt lat="39.328014933076965" lon="17.01153113835692"><ele>90.0</ele><time>2026-03-28T16:04:00.001Z</time></trkpt><trkpt lat="39.32797201646864" lon="17.011622444156433"><ele>90.0</ele><time>2026-03-28T16:04:02.001Z</time></trkpt><trkpt lat="39.32791831934046" lon="17.011685809978648"><ele>90.0</ele><time>2026-03-28T16:04:04.001Z</time></trkpt><trkpt lat="39.327850743841395" lon="17.011750157541353"><ele>90.0</ele><time>2026-03-28T16:04:06.001Z</time></trkpt><trkpt lat="39.327767597851015" lon="17.011829984342693"><ele>90.0</ele><time>2026-03-28T16:04:08.001Z</time></trkpt><trkpt lat="39.32771586428191" lon="17.01191979004885"><ele>90.8</ele><time>2026-03-28T16:04:10.001Z</time></trkpt><trkpt lat="39.32771573746783" lon="17.012023831872977"><ele>91.6</ele><time>2026-03-28T16:04:12.001Z</time></trkpt><trkpt lat="39.32771142875875" lon="17.01216499424566"><ele>92.4</ele><time>2026-03-28T16:04:14.001Z</time></trkpt><trkpt lat="39.32769507748739" lon="17.012292213135428"><ele>93.2</ele><time>2026-03-28T16:04:16.001Z</time></trkpt><trkpt lat="39.32770593723927" lon="17.012393219855035"><ele>94.0</ele><time>2026-03-28T16:04:18.001Z</time></trkpt><trkpt lat="39.32773454916694" lon="17.012509312729502"><ele>94.0</ele><time>2026-03-28T16:04:20.001Z</time></trkpt><trkpt lat="39.327776627643466" lon="17.01262528130186"><ele>94.0</ele><time>2026-03-28T16:04:22.001Z</time></trkpt><trkpt lat="39.32780633346458" lon="17.012698283458136"><ele>94.0</ele><time>2026-03-28T16:04:24.001Z</time></trkpt><trkpt lat="39.3278475913589" lon="17.012770914699534"><ele>94.0</ele><time>2026-03-28T16:04:26.001Z</time></trkpt><trkpt lat="39.32792906215164" lon="17.012801177291035"><ele>94.0</ele><time>2026-03-28T16:04:28.001Z</time></trkpt><trkpt lat="39.32804208002662" lon="17.012757067789035"><ele>94.0</ele><time>2026-03-28T16:04:30.001Z</time></trkpt><trkpt lat="39.32810737590405" lon="17.012732645141668"><ele>93.0</ele><time>2026-03-28T16:04:31.001Z</time></trkpt><trkpt lat="39.328173653558224" lon="17.01270257663447"><ele>92.0</ele><time>2026-03-28T16:04:32.001Z</time></trkpt><trkpt lat="39.328236080485915" lon="17.012668146297703"><ele>91.0</ele><time>2026-03-28T16:04:33.001Z</time></trkpt><trkpt lat="39.328346534435504" lon="17.01262340003762"><ele>90.0</ele><time>2026-03-28T16:04:35.001Z</time></trkpt><trkpt lat="39.32841603133042" lon="17.012634695563403"><ele>89.0</ele><time>2026-03-28T16:04:37.001Z</time></trkpt><trkpt lat="39.3284861295568" lon="17.01264573732039"><ele>88.0</ele><time>2026-03-28T16:04:39.001Z</time></trkpt><trkpt lat="39.32859024654731" lon="17.012669186635307"><ele>88.0</ele><time>2026-03-28T16:04:41.001Z</time></trkpt><trkpt lat="39.32865040427052" lon="17.01269587776719"><ele>88.0</ele><time>2026-03-28T16:04:42.001Z</time></trkpt><trkpt lat="39.328772393050556" lon="17.012714086581635"><ele>88.0</ele><time>2026-03-28T16:04:44.001Z</time></trkpt><trkpt lat="39.328836559946126" lon="17.01272837774529"><ele>88.0</ele><time>2026-03-28T16:04:45.001Z</time></trkpt><trkpt lat="39.32889778070424" lon="17.012752818541724"><ele>88.0</ele><time>2026-03-28T16:04:46.001Z</time></trkpt><trkpt lat="39.328997258510604" lon="17.01280286594321"><ele>88.0</ele><time>2026-03-28T16:04:48.001Z</time></trkpt><trkpt lat="39.32906261092715" lon="17.012864167167525"><ele>88.0</ele><time>2026-03-28T16:04:50.001Z</time></trkpt><trkpt lat="39.32909541847953" lon="17.01293895384894"><ele>88.0</ele><time>2026-03-28T16:04:52.001Z</time></trkpt><trkpt lat="39.32908340123192" lon="17.0130236382562"><ele>88.0</ele><time>2026-03-28T16:04:54.001Z</time></trkpt><trkpt lat="39.32904290639956" lon="17.013128025113943"><ele>88.0</ele><time>2026-03-28T16:04:56.001Z</time></trkpt><trkpt lat="39.328971388242266" lon="17.013242597422366"><ele>88.0</ele><time>2026-03-28T16:04:58.001Z</time></trkpt><trkpt lat="39.32893311860547" lon="17.013387514001924"><ele>88.0</ele><time>2026-03-28T16:05:00.001Z</time></trkpt><trkpt lat="39.32893886509654" lon="17.013526068283827"><ele>88.0</ele><time>2026-03-28T16:05:02.001Z</time></trkpt><trkpt lat="39.328946967797364" lon="17.01363092248159"><ele>88.0</ele><time>2026-03-28T16:05:04.001Z</time></trkpt><trkpt lat="39.32895341870599" lon="17.013742152631217"><ele>88.0</ele><time>2026-03-28T16:05:06.001Z</time></trkpt><trkpt lat="39.328982755590964" lon="17.013886657065388"><ele>88.0</ele><time>2026-03-28T16:05:08Z</time></trkpt><trkpt lat="39.32899583344286" lon="17.014015528886258"><ele>88.0</ele><time>2026-03-28T16:05:10Z</time></trkpt><trkpt lat="39.329020947519034" lon="17.014151394175443"><ele>88.0</ele><time>2026-03-28T16:05:12Z</time></trkpt><trkpt lat="39.32905263653982" lon="17.014224224048284"><ele>88.0</ele><time>2026-03-28T16:05:13Z</time></trkpt><trkpt lat="39.329063733350104" lon="17.014373572938204"><ele>88.0</ele><time>2026-03-28T16:05:15Z</time></trkpt><trkpt lat="39.32906380855601" lon="17.014513185964677"><ele>88.0</ele><time>2026-03-28T16:05:17Z</time></trkpt><trkpt lat="39.32907304745823" lon="17.014669581012186"><ele>88.0</ele><time>2026-03-28T16:05:19Z</time></trkpt><trkpt lat="39.32908264645876" lon="17.014751136838413"><ele>88.0</ele><time>2026-03-28T16:05:20Z</time></trkpt><trkpt lat="39.32910876069932" lon="17.014897632699228"><ele>88.0</ele><time>2026-03-28T16:05:22Z</time></trkpt><trkpt lat="39.32910850063564" lon="17.015017490783585"><ele>88.0</ele><time>2026-03-28T16:05:24Z</time></trkpt><trkpt lat="39.32910223315113" lon="17.0151430889558"><ele>88.0</ele><time>2026-03-28T16:05:26Z</time></trkpt><trkpt lat="39.32912432049829" lon="17.015272659405515"><ele>86.80000000000001</ele><time>2026-03-28T16:05:28Z</time></trkpt><trkpt lat="39.329146249708536" lon="17.015400816623057"><ele>85.6</ele><time>2026-03-28T16:05:30Z</time></trkpt><trkpt lat="39.32915123370205" lon="17.015535069670857"><ele>84.4</ele><time>2026-03-28T16:05:32Z</time></trkpt><trkpt lat="39.32916865530326" lon="17.0156564855276"><ele>83.19999999999999</ele><time>2026-03-28T16:05:34Z</time></trkpt><trkpt lat="39.32918572703305" lon="17.015799013956766"><ele>82.0</ele><time>2026-03-28T16:05:36Z</time></trkpt><trkpt lat="39.32920686594477" lon="17.01592142777786"><ele>81.8</ele><time>2026-03-28T16:05:38Z</time></trkpt><trkpt lat="39.32924222774949" lon="17.01602909670566"><ele>81.6</ele><time>2026-03-28T16:05:40Z</time></trkpt><trkpt lat="39.32925862584565" lon="17.016142329860394"><ele>81.39999999999999</ele><time>2026-03-28T16:05:42Z</time></trkpt><trkpt lat="39.329267976681216" lon="17.016255396793234"><ele>81.19999999999999</ele><time>2026-03-28T16:05:44Z</time></trkpt><trkpt lat="39.32931402155463" lon="17.016409914451152"><ele>81.0</ele><time>2026-03-28T16:05:46Z</time></trkpt><trkpt lat="39.32935229603259" lon="17.016490821971555"><ele>81.0</ele><time>2026-03-28T16:05:47Z</time></trkpt><trkpt lat="39.329378421235184" lon="17.016587065408963"><ele>81.0</ele><time>2026-03-28T16:05:48Z</time></trkpt><trkpt lat="39.32941807643467" lon="17.016681955905536"><ele>81.0</ele><time>2026-03-28T16:05:49Z</time></trkpt><trkpt lat="39.32946233426433" lon="17.016774611234737"><ele>81.0</ele><time>2026-03-28T16:05:50Z</time></trkpt><trkpt lat="39.32951752682116" lon="17.01685813275546"><ele>81.0</ele><time>2026-03-28T16:05:51Z</time></trkpt><trkpt lat="39.329574933710504" lon="17.016935103175726"><ele>81.0</ele><time>2026-03-28T16:05:52Z</time></trkpt><trkpt lat="39.32962805082641" lon="17.017007764385312"><ele>81.4</ele><time>2026-03-28T16:05:53Z</time></trkpt><trkpt lat="39.32967933900598" lon="17.01707262579184"><ele>81.8</ele><time>2026-03-28T16:05:54Z</time></trkpt><trkpt lat="39.32972831049904" lon="17.017128289816636"><ele>82.2</ele><time>2026-03-28T16:05:55Z</time></trkpt><trkpt lat="39.329807971793755" lon="17.017225908937874"><ele>82.60000000000001</ele><time>2026-03-28T16:05:57Z</time></trkpt><trkpt lat="39.32988719905571" lon="17.01731574019906"><ele>83.0</ele><time>2026-03-28T16:05:59Z</time></trkpt><trkpt lat="39.32997400621089" lon="17.01741396071663"><ele>82.0</ele><time>2026-03-28T16:06:01Z</time></trkpt><trkpt lat="39.330066691532096" lon="17.017518410865218"><ele>81.0</ele><time>2026-03-28T16:06:03Z</time></trkpt><trkpt lat="39.330157181364896" lon="17.01762419348827"><ele>80.0</ele><time>2026-03-28T16:06:05Z</time></trkpt><trkpt lat="39.33022656283658" lon="17.01775436496514"><ele>79.0</ele><time>2026-03-28T16:06:07Z</time></trkpt><trkpt lat="39.33027796580661" lon="17.01789137820416"><ele>79.0</ele><time>2026-03-28T16:06:09Z</time></trkpt><trkpt lat="39.33031195283331" lon="17.018030085326995"><ele>79.0</ele><time>2026-03-28T16:06:11Z</time></trkpt><trkpt lat="39.330334297308404" lon="17.018192523506595"><ele>79.0</ele><time>2026-03-28T16:06:13Z</time></trkpt><trkpt lat="39.330357463337215" lon="17.018351218143213"><ele>79.0</ele><time>2026-03-28T16:06:15Z</time></trkpt><trkpt lat="39.33035507782107" lon="17.018438777856808"><ele>79.0</ele><time>2026-03-28T16:06:16.001Z</time></trkpt><trkpt lat="39.33035883040053" lon="17.018542658874097"><ele>78.8</ele><time>2026-03-28T16:06:17.001Z</time></trkpt><trkpt lat="39.33034306366568" lon="17.01864375029813"><ele>78.60000000000001</ele><time>2026-03-28T16:06:18.001Z</time></trkpt><trkpt lat="39.33031722435476" lon="17.018739697360147"><ele>78.4</ele><time>2026-03-28T16:06:19.001Z</time></trkpt><trkpt lat="39.3302917544596" lon="17.01882799916129"><ele>78.2</ele><time>2026-03-28T16:06:20.001Z</time></trkpt><trkpt lat="39.33026137557115" lon="17.018974988384578"><ele>78.0</ele><time>2026-03-28T16:06:22.001Z</time></trkpt><trkpt lat="39.330202010400974" lon="17.019096718303786"><ele>77.16666666666667</ele><time>2026-03-28T16:06:24.001Z</time></trkpt><trkpt lat="39.33011398775639" lon="17.019211259975734"><ele>76.33333333333333</ele><time>2026-03-28T16:06:26.001Z</time></trkpt><trkpt lat="39.3300692031423" lon="17.019270808326862"><ele>75.5</ele><time>2026-03-28T16:06:27.001Z</time></trkpt><trkpt lat="39.32999757890109" lon="17.019392052033364"><ele>74.66666666666666</ele><time>2026-03-28T16:06:29.001Z</time></trkpt><trkpt lat="39.32996889861408" lon="17.019466495386055"><ele>73.83333333333333</ele><time>2026-03-28T16:06:30.001Z</time></trkpt><trkpt lat="39.329934198676696" lon="17.019548561720526"><ele>73.0</ele><time>2026-03-28T16:06:31.001Z</time></trkpt><trkpt lat="39.32989599759053" lon="17.019640687696324"><ele>73.0</ele><time>2026-03-28T16:06:32.001Z</time></trkpt><trkpt lat="39.32985622095319" lon="17.019742957223514"><ele>73.0</ele><time>2026-03-28T16:06:33.001Z</time></trkpt><trkpt lat="39.32981303388116" lon="17.01984832111182"><ele>73.0</ele><time>2026-03-28T16:06:34.001Z</time></trkpt><trkpt lat="39.329772308063305" lon="17.019955130081236"><ele>73.0</ele><time>2026-03-28T16:06:35.001Z</time></trkpt><trkpt lat="39.32974067787821" lon="17.020054002296582"><ele>73.0</ele><time>2026-03-28T16:06:36.001Z</time></trkpt><trkpt lat="39.329715783052684" lon="17.02013852776693"><ele>73.0</ele><time>2026-03-28T16:06:37.001Z</time></trkpt><trkpt lat="39.32968642473898" lon="17.020278592407614"><ele>76.0</ele><time>2026-03-28T16:06:39.001Z</time></trkpt><trkpt lat="39.32966145502557" lon="17.020425647842767"><ele>79.0</ele><time>2026-03-28T16:06:41.001Z</time></trkpt><trkpt lat="39.329656974414085" lon="17.020583819207634"><ele>82.0</ele><time>2026-03-28T16:06:43.001Z</time></trkpt><trkpt lat="39.32964871686332" lon="17.02072439359778"><ele>85.0</ele><time>2026-03-28T16:06:45.001Z</time></trkpt><trkpt lat="39.32962924108515" lon="17.020833087496193"><ele>88.0</ele><time>2026-03-28T16:06:47.001Z</time></trkpt><trkpt lat="39.329686649767055" lon="17.020891312032287"><ele>84.80000000000001</ele><time>2026-03-28T16:06:49.001Z</time></trkpt><trkpt lat="39.329776929669826" lon="17.02091445272089"><ele>81.60000000000001</ele><time>2026-03-28T16:06:51.001Z</time></trkpt><trkpt lat="39.32987361354218" lon="17.020960906140893"><ele>78.4</ele><time>2026-03-28T16:06:53.001Z</time></trkpt><trkpt lat="39.329942753067414" lon="17.021063939162243"><ele>75.2</ele><time>2026-03-28T16:06:55.001Z</time></trkpt><trkpt lat="39.32996792664743" lon="17.02123067925666"><ele>72.0</ele><time>2026-03-28T16:06:57.001Z</time></trkpt><trkpt lat="39.329970875157024" lon="17.021333602359903"><ele>72.0</ele><time>2026-03-28T16:06:58.001Z</time></trkpt><trkpt lat="39.32997638728082" lon="17.021428724670173"><ele>72.0</ele><time>2026-03-28T16:06:59.001Z</time></trkpt><trkpt lat="39.32996915919093" lon="17.02157648585138"><ele>72.0</ele><time>2026-03-28T16:07:01.001Z</time></trkpt><trkpt lat="39.329957623794336" lon="17.02172619667875"><ele>72.0</ele><time>2026-03-28T16:07:03.001Z</time></trkpt><trkpt lat="39.32994896968212" lon="17.021815703855907"><ele>72.0</ele><time>2026-03-28T16:07:04.001Z</time></trkpt><trkpt lat="39.32994043242408" lon="17.021921870408075"><ele>71.6</ele><time>2026-03-28T16:07:05.001Z</time></trkpt><trkpt lat="39.32994384026852" lon="17.022028809588335"><ele>71.2</ele><time>2026-03-28T16:07:06.001Z</time></trkpt><trkpt lat="39.32995115810722" lon="17.022122763492355"><ele>70.8</ele><time>2026-03-28T16:07:07.001Z</time></trkpt><trkpt lat="39.330015986267554" lon="17.02225159616829"><ele>70.4</ele><time>2026-03-28T16:07:09.001Z</time></trkpt><trkpt lat="39.330076838435296" lon="17.02239278932133"><ele>70.0</ele><time>2026-03-28T16:07:11.001Z</time></trkpt><trkpt lat="39.33013216376219" lon="17.022462220761923"><ele>71.2</ele><time>2026-03-28T16:07:12.001Z</time></trkpt><trkpt lat="39.33020279621941" lon="17.022513234071425"><ele>72.4</ele><time>2026-03-28T16:07:13.001Z</time></trkpt><trkpt lat="39.33027266555479" lon="17.022572226059133"><ele>73.6</ele><time>2026-03-28T16:07:14.001Z</time></trkpt><trkpt lat="39.33034370398348" lon="17.022639390092206"><ele>74.8</ele><time>2026-03-28T16:07:15.001Z</time></trkpt><trkpt lat="39.33042577485278" lon="17.02270664693953"><ele>76.0</ele><time>2026-03-28T16:07:16.001Z</time></trkpt><trkpt lat="39.330517371492604" lon="17.02277837874997"><ele>74.75</ele><time>2026-03-28T16:07:17.001Z</time></trkpt><trkpt lat="39.33061273380499" lon="17.022857333456567"><ele>73.5</ele><time>2026-03-28T16:07:18.001Z</time></trkpt><trkpt lat="39.330705934457114" lon="17.022947968984408"><ele>72.25</ele><time>2026-03-28T16:07:19.001Z</time></trkpt><trkpt lat="39.330794309676826" lon="17.023051760623314"><ele>71.0</ele><time>2026-03-28T16:07:20.001Z</time></trkpt><trkpt lat="39.330880823425346" lon="17.023155213098942"><ele>71.0</ele><time>2026-03-28T16:07:21.001Z</time></trkpt><trkpt lat="39.33097096282223" lon="17.023252802079064"><ele>71.0</ele><time>2026-03-28T16:07:22.001Z</time></trkpt><trkpt lat="39.33106420387164" lon="17.023349673450248"><ele>71.0</ele><time>2026-03-28T16:07:23.001Z</time></trkpt><trkpt lat="39.33116764145504" lon="17.02342833882121"><ele>71.0</ele><time>2026-03-28T16:07:24.001Z</time></trkpt><trkpt lat="39.331275562640045" lon="17.02349870171329"><ele>70.2</ele><time>2026-03-28T16:07:25.001Z</time></trkpt><trkpt lat="39.3313791922539" lon="17.02355667028655"><ele>69.39999999999999</ele><time>2026-03-28T16:07:26.001Z</time></trkpt><trkpt lat="39.33147818937017" lon="17.02361180963239"><ele>68.6</ele><time>2026-03-28T16:07:27.001Z</time></trkpt><trkpt lat="39.33156707611405" lon="17.023675058755547"><ele>67.8</ele><time>2026-03-28T16:07:28.001Z</time></trkpt><trkpt lat="39.33165184511635" lon="17.02373905869456"><ele>67.0</ele><time>2026-03-28T16:07:29.001Z</time></trkpt><trkpt lat="39.331730609375654" lon="17.02379709786856"><ele>67.6</ele><time>2026-03-28T16:07:30.001Z</time></trkpt><trkpt lat="39.33179969104859" lon="17.02385687313951"><ele>68.2</ele><time>2026-03-28T16:07:31.001Z</time></trkpt><trkpt lat="39.3318590492024" lon="17.02391534973346"><ele>68.8</ele><time>2026-03-28T16:07:32.001Z</time></trkpt><trkpt lat="39.3319059385561" lon="17.02397612497955"><ele>69.4</ele><time>2026-03-28T16:07:33.001Z</time></trkpt><trkpt lat="39.33193567859568" lon="17.024131962097677"><ele>70.0</ele><time>2026-03-28T16:07:35.001Z</time></trkpt><trkpt lat="39.33190888487118" lon="17.02428867616174"><ele>70.0</ele><time>2026-03-28T16:07:37.001Z</time></trkpt><trkpt lat="39.331866869963726" lon="17.02436341787325"><ele>70.0</ele><time>2026-03-28T16:07:38Z</time></trkpt><trkpt lat="39.33182226079339" lon="17.024435271862114"><ele>70.0</ele><time>2026-03-28T16:07:39Z</time></trkpt><trkpt lat="39.33176235240208" lon="17.024508815098518"><ele>70.0</ele><time>2026-03-28T16:07:40Z</time></trkpt><trkpt lat="39.33168118540121" lon="17.02455452385588"><ele>70.0</ele><time>2026-03-28T16:07:41Z</time></trkpt><trkpt lat="39.331601027941524" lon="17.024605830416345"><ele>70.0</ele><time>2026-03-28T16:07:42Z</time></trkpt><trkpt lat="39.33152624458532" lon="17.024658569020517"><ele>70.0</ele><time>2026-03-28T16:07:43Z</time></trkpt><trkpt lat="39.331447183552484" lon="17.024693088433573"><ele>70.0</ele><time>2026-03-28T16:07:44Z</time></trkpt><trkpt lat="39.33136707597817" lon="17.024717105483607"><ele>70.0</ele><time>2026-03-28T16:07:45Z</time></trkpt><trkpt lat="39.33129303610142" lon="17.02475488211236"><ele>70.0</ele><time>2026-03-28T16:07:46Z</time></trkpt><trkpt lat="39.33122527899168" lon="17.024793446975515"><ele>70.0</ele><time>2026-03-28T16:07:47Z</time></trkpt><trkpt lat="39.33116686913357" lon="17.024837698025543"><ele>70.0</ele><time>2026-03-28T16:07:48Z</time></trkpt><trkpt lat="39.331109543244445" lon="17.02487447818984"><ele>69.16666666666666</ele><time>2026-03-28T16:07:49Z</time></trkpt><trkpt lat="39.331004334529524" lon="17.024948315092544"><ele>68.33333333333333</ele><time>2026-03-28T16:07:51Z</time></trkpt><trkpt lat="39.33093017089092" lon="17.025028802275685"><ele>67.5</ele><time>2026-03-28T16:07:53Z</time></trkpt><trkpt lat="39.33088535037045" lon="17.025096485222466"><ele>66.66666666666667</ele><time>2026-03-28T16:07:55Z</time></trkpt><trkpt lat="39.330849544967016" lon="17.025181430097163"><ele>65.83333333333334</ele><time>2026-03-28T16:08:10Z</time></trkpt><trkpt lat="39.33084629312137" lon="17.02528156057366"><ele>65.0</ele><time>2026-03-28T16:08:13Z</time></trkpt><trkpt lat="39.33084603446233" lon="17.02537827971768"><ele>64.83333333333334</ele><time>2026-03-28T16:08:15Z</time></trkpt><trkpt lat="39.33085195973987" lon="17.02549505134947"><ele>64.66666666666667</ele><time>2026-03-28T16:08:17Z</time></trkpt><trkpt lat="39.330888519720176" lon="17.02559342903077"><ele>64.5</ele><time>2026-03-28T16:08:19Z</time></trkpt><trkpt lat="39.330939873675206" lon="17.02566041291638"><ele>64.33333333333333</ele><time>2026-03-28T16:08:21Z</time></trkpt><trkpt lat="39.331012867263794" lon="17.025702636804425"><ele>64.16666666666666</ele><time>2026-03-28T16:08:23Z</time></trkpt><trkpt lat="39.331077452041" lon="17.02575485887965"><ele>64.0</ele><time>2026-03-28T16:08:25Z</time></trkpt><trkpt lat="39.331126579731965" lon="17.025819621495938"><ele>63.49999999999999</ele><time>2026-03-28T16:08:27Z</time></trkpt><trkpt lat="39.331170507579316" lon="17.025914506997534"><ele>63.0</ele><time>2026-03-28T16:08:29Z</time></trkpt><trkpt lat="39.33119764546827" lon="17.026040632498617"><ele>62.5</ele><time>2026-03-28T16:08:31Z</time></trkpt><trkpt lat="39.331215500979205" lon="17.02619017167276"><ele>62.0</ele><time>2026-03-28T16:08:33Z</time></trkpt><trkpt lat="39.33121663777752" lon="17.02627495482418"><ele>61.49999999999999</ele><time>2026-03-28T16:08:34Z</time></trkpt><trkpt lat="39.331218404748284" lon="17.026362980726116"><ele>61.0</ele><time>2026-03-28T16:08:35Z</time></trkpt><trkpt lat="39.33121708014249" lon="17.02645547418982"><ele>60.99999999999999</ele><time>2026-03-28T16:08:36Z</time></trkpt><trkpt lat="39.33121771074447" lon="17.026555551520044"><ele>61.0</ele><time>2026-03-28T16:08:37Z</time></trkpt><trkpt lat="39.33121535617649" lon="17.02665955197348"><ele>60.99999999999999</ele><time>2026-03-28T16:08:38Z</time></trkpt><trkpt lat="39.33121164544222" lon="17.026759507674814"><ele>60.99999999999999</ele><time>2026-03-28T16:08:39Z</time></trkpt><trkpt lat="39.33120741866824" lon="17.026852979436708"><ele>61.0</ele><time>2026-03-28T16:08:40Z</time></trkpt><trkpt lat="39.331191822707076" lon="17.026936141192692"><ele>60.99999999999999</ele><time>2026-03-28T16:08:41Z</time></trkpt><trkpt lat="39.331171364006636" lon="17.02702794511279"><ele>60.99999999999999</ele><time>2026-03-28T16:08:42Z</time></trkpt><trkpt lat="39.331153701190054" lon="17.027134400032317"><ele>60.99999999999999</ele><time>2026-03-28T16:08:43Z</time></trkpt><trkpt lat="39.33114199983728" lon="17.027235206844896"><ele>61.0</ele><time>2026-03-28T16:08:44Z</time></trkpt><trkpt lat="39.33114299891954" lon="17.027327964768347"><ele>61.0</ele><time>2026-03-28T16:08:45Z</time></trkpt><trkpt lat="39.33115289744493" lon="17.02741470817441"><ele>61.0</ele><time>2026-03-28T16:08:46Z</time></trkpt><trkpt lat="39.3311718898476" lon="17.027512321942794"><ele>60.99999999999999</ele><time>2026-03-28T16:08:47Z</time></trkpt><trkpt lat="39.33120818001365" lon="17.027611986512078"><ele>61.0</ele><time>2026-03-28T16:08:48Z</time></trkpt><trkpt lat="39.33125698410578" lon="17.02771397018969"><ele>60.99999999999999</ele><time>2026-03-28T16:08:49Z</time></trkpt><trkpt lat="39.33132561743973" lon="17.027797230545872"><ele>61.0</ele><time>2026-03-28T16:08:50Z</time></trkpt><trkpt lat="39.331403379075894" lon="17.027858963194728"><ele>61.0</ele><time>2026-03-28T16:08:51Z</time></trkpt><trkpt lat="39.331487908345764" lon="17.02789458287847"><ele>61.0</ele><time>2026-03-28T16:08:52Z</time></trkpt><trkpt lat="39.331567967087054" lon="17.027928225816822"><ele>60.99999999999999</ele><time>2026-03-28T16:08:53Z</time></trkpt><trkpt lat="39.33163685012551" lon="17.02796192661797"><ele>61.0</ele><time>2026-03-28T16:08:54Z</time></trkpt><trkpt lat="39.33169502365794" lon="17.027993039310637"><ele>61.0</ele><time>2026-03-28T16:08:55Z</time></trkpt><trkpt lat="39.331798400803436" lon="17.02806816954087"><ele>60.99999999999999</ele><time>2026-03-28T16:08:57Z</time></trkpt><trkpt lat="39.33190990339192" lon="17.028131858360865"><ele>60.99999999999999</ele><time>2026-03-28T16:08:59Z</time></trkpt><trkpt lat="39.33198090149372" lon="17.028214231771084"><ele>61.0</ele><time>2026-03-28T16:09:01Z</time></trkpt><trkpt lat="39.33203504638091" lon="17.028285233912662"><ele>61.0</ele><time>2026-03-28T16:09:03Z</time></trkpt><trkpt lat="39.33211218446945" lon="17.02836907973934"><ele>60.49999999999999</ele><time>2026-03-28T16:09:05Z</time></trkpt><trkpt lat="39.33218756663789" lon="17.028469678393567"><ele>60.0</ele><time>2026-03-28T16:09:07Z</time></trkpt><trkpt lat="39.33224822464767" lon="17.028570440031853"><ele>59.5</ele><time>2026-03-28T16:09:09Z</time></trkpt><trkpt lat="39.33228931639163" lon="17.028704821655676"><ele>59.0</ele><time>2026-03-28T16:09:11Z</time></trkpt><trkpt lat="39.33230095940016" lon="17.028785637053947"><ele>58.49999999999999</ele><time>2026-03-28T16:09:12Z</time></trkpt><trkpt lat="39.33231451321084" lon="17.028870199188457"><ele>58.0</ele><time>2026-03-28T16:09:13Z</time></trkpt><trkpt lat="39.332333615733035" lon="17.02895912077975"><ele>58.666666666666664</ele><time>2026-03-28T16:09:14Z</time></trkpt><trkpt lat="39.33235424445949" lon="17.029058842968983"><ele>59.33333333333333</ele><time>2026-03-28T16:09:15Z</time></trkpt><trkpt lat="39.332368146509026" lon="17.02917135611518"><ele>60.0</ele><time>2026-03-28T16:09:16Z</time></trkpt><trkpt lat="39.33238492465773" lon="17.02928992869943"><ele>60.66666666666667</ele><time>2026-03-28T16:09:17Z</time></trkpt><trkpt lat="39.3324026034504" lon="17.02940289519311"><ele>61.333333333333336</ele><time>2026-03-28T16:09:18Z</time></trkpt><trkpt lat="39.332410941796745" lon="17.029507049239474"><ele>62.0</ele><time>2026-03-28T16:09:19Z</time></trkpt><trkpt lat="39.33242402559327" lon="17.02959912617899"><ele>62.0</ele><time>2026-03-28T16:09:20Z</time></trkpt><trkpt lat="39.332461382621" lon="17.029749132639306"><ele>62.0</ele><time>2026-03-28T16:09:22Z</time></trkpt><trkpt lat="39.33251729845602" lon="17.02988204888603"><ele>62.0</ele><time>2026-03-28T16:09:24Z</time></trkpt><trkpt lat="39.33259274204808" lon="17.02996257394574"><ele>62.0</ele><time>2026-03-28T16:09:26Z</time></trkpt><trkpt lat="39.33265691546225" lon="17.029980622393865"><ele>62.0</ele><time>2026-03-28T16:09:28Z</time></trkpt><trkpt lat="39.332740209977224" lon="17.029982592048835"><ele>61.00000000000001</ele><time>2026-03-28T16:09:31Z</time></trkpt><trkpt lat="39.3328109717612" lon="17.03005542866227"><ele>60.0</ele><time>2026-03-28T16:09:33Z</time></trkpt><trkpt lat="39.33283640672588" lon="17.030137626715312"><ele>59.0</ele><time>2026-03-28T16:09:34Z</time></trkpt><trkpt lat="39.33286715864941" lon="17.030221661663038"><ele>58.0</ele><time>2026-03-28T16:09:35Z</time></trkpt><trkpt lat="39.33290013186809" lon="17.03029844999409"><ele>57.00000000000001</ele><time>2026-03-28T16:09:36Z</time></trkpt><trkpt lat="39.33296872143554" lon="17.030407252063185"><ele>56.0</ele><time>2026-03-28T16:09:38Z</time></trkpt><trkpt lat="39.333020312736046" lon="17.030464700081048"><ele>55.833333333333336</ele><time>2026-03-28T16:09:40Z</time></trkpt><trkpt lat="39.33306768175625" lon="17.03054883280047"><ele>55.66666666666667</ele><time>2026-03-28T16:09:42Z</time></trkpt><trkpt lat="39.333117679755524" lon="17.03063439644504"><ele>55.5</ele><time>2026-03-28T16:09:44Z</time></trkpt><trkpt lat="39.33317265377753" lon="17.030699887474892"><ele>55.33333333333333</ele><time>2026-03-28T16:09:46Z</time></trkpt><trkpt lat="39.33324871128522" lon="17.03076110924083"><ele>55.166666666666664</ele><time>2026-03-28T16:09:49Z</time></trkpt><trkpt lat="39.33331516306962" lon="17.030816046707"><ele>55.0</ele><time>2026-03-28T16:09:52Z</time></trkpt><trkpt lat="39.333393108945934" lon="17.030854739872048"><ele>54.33333333333333</ele><time>2026-03-28T16:09:55Z</time></trkpt><trkpt lat="39.333454557837356" lon="17.03090038681549"><ele>53.666666666666664</ele><time>2026-03-28T16:09:57Z</time></trkpt><trkpt lat="39.333557402133955" lon="17.030971139093417"><ele>53.0</ele><time>2026-03-28T16:09:59Z</time></trkpt><trkpt lat="39.33362101727347" lon="17.031011616716707"><ele>52.33333333333333</ele><time>2026-03-28T16:10:00Z</time></trkpt><trkpt lat="39.33369052039961" lon="17.031049424056675"><ele>51.666666666666664</ele><time>2026-03-28T16:10:01Z</time></trkpt><trkpt lat="39.33376712452739" lon="17.031084902891006"><ele>51.0</ele><time>2026-03-28T16:10:02Z</time></trkpt><trkpt lat="39.3338472154668" lon="17.03112359865332"><ele>51.333333333333336</ele><time>2026-03-28T16:10:03Z</time></trkpt><trkpt lat="39.333929445367545" lon="17.031160712877277"><ele>51.66666666666667</ele><time>2026-03-28T16:10:04Z</time></trkpt><trkpt lat="39.33400700503615" lon="17.031189495202693"><ele>52.0</ele><time>2026-03-28T16:10:05Z</time></trkpt><trkpt lat="39.334076448438374" lon="17.03122670809728"><ele>52.333333333333336</ele><time>2026-03-28T16:10:06Z</time></trkpt><trkpt lat="39.334139382088594" lon="17.031279513833574"><ele>52.66666666666667</ele><time>2026-03-28T16:10:07Z</time></trkpt><trkpt lat="39.33419057575339" lon="17.031349166006553"><ele>53.0</ele><time>2026-03-28T16:10:08Z</time></trkpt><trkpt lat="39.334244098151" lon="17.0314146240041"><ele>53.00000000000001</ele><time>2026-03-28T16:10:09Z</time></trkpt><trkpt lat="39.33429868069713" lon="17.031472934568377"><ele>53.0</ele><time>2026-03-28T16:10:10Z</time></trkpt><trkpt lat="39.33435407125619" lon="17.031521749859674"><ele>53.0</ele><time>2026-03-28T16:10:11Z</time></trkpt><trkpt lat="39.33445061508566" lon="17.03162089490682"><ele>53.0</ele><time>2026-03-28T16:10:13Z</time></trkpt><trkpt lat="39.334498557695255" lon="17.03167807330332"><ele>53.00000000000001</ele><time>2026-03-28T16:10:14Z</time></trkpt><trkpt lat="39.33454812868842" lon="17.031735631135938"><ele>53.0</ele><time>2026-03-28T16:10:15Z</time></trkpt><trkpt lat="39.33462876271814" lon="17.031855341594387"><ele>52.5</ele><time>2026-03-28T16:10:17Z</time></trkpt><trkpt lat="39.334703980789804" lon="17.031983324833245"><ele>52.0</ele><time>2026-03-28T16:10:19Z</time></trkpt><trkpt lat="39.33477479652843" lon="17.032111471866955"><ele>51.5</ele><time>2026-03-28T16:10:21Z</time></trkpt><trkpt lat="39.33483445409816" lon="17.032235614281106"><ele>51.0</ele><time>2026-03-28T16:10:23Z</time></trkpt><trkpt lat="39.3348930535109" lon="17.032366176261778"><ele>51.0</ele><time>2026-03-28T16:10:25Z</time></trkpt><trkpt lat="39.33497681228255" lon="17.032493491069975"><ele>51.0</ele><time>2026-03-28T16:10:27Z</time></trkpt><trkpt lat="39.33503593768795" lon="17.032550170911268"><ele>51.0</ele><time>2026-03-28T16:10:28Z</time></trkpt><trkpt lat="39.335097838727414" lon="17.032609980162196"><ele>51.0</ele><time>2026-03-28T16:10:29Z</time></trkpt><trkpt lat="39.33516841138842" lon="17.032649648097667"><ele>51.0</ele><time>2026-03-28T16:10:30Z</time></trkpt><trkpt lat="39.33524333822838" lon="17.03267004779401"><ele>51.0</ele><time>2026-03-28T16:10:31Z</time></trkpt><trkpt lat="39.33531697083382" lon="17.03270395802604"><ele>51.0</ele><time>2026-03-28T16:10:32Z</time></trkpt><trkpt lat="39.335392169884074" lon="17.032749929812475"><ele>51.0</ele><time>2026-03-28T16:10:33Z</time></trkpt><trkpt lat="39.33547114651099" lon="17.03279441829935"><ele>51.0</ele><time>2026-03-28T16:10:34Z</time></trkpt><trkpt lat="39.33554919481263" lon="17.032837844426133"><ele>51.0</ele><time>2026-03-28T16:10:35Z</time></trkpt><trkpt lat="39.33562403740814" lon="17.032878212542773"><ele>51.0</ele><time>2026-03-28T16:10:36Z</time></trkpt><trkpt lat="39.335693491839265" lon="17.03291710035429"><ele>51.0</ele><time>2026-03-28T16:10:37Z</time></trkpt><trkpt lat="39.33575955390909" lon="17.032948193424193"><ele>51.0</ele><time>2026-03-28T16:10:38Z</time></trkpt><trkpt lat="39.33585750376634" lon="17.033030516580215"><ele>51.0</ele><time>2026-03-28T16:10:40Z</time></trkpt><trkpt lat="39.33591296554433" lon="17.03316960250838"><ele>51.0</ele><time>2026-03-28T16:10:42Z</time></trkpt><trkpt lat="39.335970820818844" lon="17.0333113946037"><ele>51.0</ele><time>2026-03-28T16:10:44Z</time></trkpt><trkpt lat="39.335969852178906" lon="17.03344813027515"><ele>50.666666666666664</ele><time>2026-03-28T16:10:46Z</time></trkpt><trkpt lat="39.335959884278424" lon="17.033557500872526"><ele>50.33333333333333</ele><time>2026-03-28T16:10:48Z</time></trkpt><trkpt lat="39.33596477338479" lon="17.03363953330271"><ele>50.0</ele><time>2026-03-28T16:10:50Z</time></trkpt><trkpt lat="39.335980966976734" lon="17.033744623203688"><ele>49.666666666666664</ele><time>2026-03-28T16:10:53Z</time></trkpt><trkpt lat="39.33598679005949" lon="17.03385987267777"><ele>49.33333333333333</ele><time>2026-03-28T16:10:56Z</time></trkpt><trkpt lat="39.33598182799804" lon="17.033941669994416"><ele>49.0</ele><time>2026-03-28T16:10:58Z</time></trkpt><trkpt lat="39.335992166889575" lon="17.034047173258305"><ele>48.83333333333333</ele><time>2026-03-28T16:11:01Z</time></trkpt><trkpt lat="39.33594674841552" lon="17.034147061133226"><ele>48.666666666666664</ele><time>2026-03-28T16:11:04Z</time></trkpt><trkpt lat="39.33589231026717" lon="17.034215964620344"><ele>48.5</ele><time>2026-03-28T16:11:06Z</time></trkpt><trkpt lat="39.33586186248528" lon="17.034302637611464"><ele>48.33333333333333</ele><time>2026-03-28T16:11:08Z</time></trkpt><trkpt lat="39.3357848908965" lon="17.034371933702047"><ele>48.166666666666664</ele><time>2026-03-28T16:11:10Z</time></trkpt><trkpt lat="39.33576759799945" lon="17.034492394759948"><ele>48.0</ele><time>2026-03-28T16:11:12Z</time></trkpt><trkpt lat="39.335797916724566" lon="17.034619973410592"><ele>48.0</ele><time>2026-03-28T16:11:14Z</time></trkpt><trkpt lat="39.33583386830083" lon="17.034726145550437"><ele>48.0</ele><time>2026-03-28T16:11:16Z</time></trkpt><trkpt lat="39.33586910568663" lon="17.034855643699697"><ele>48.0</ele><time>2026-03-28T16:11:18Z</time></trkpt><trkpt lat="39.335875479510925" lon="17.03494554985783"><ele>48.0</ele><time>2026-03-28T16:11:19Z</time></trkpt><trkpt lat="39.335883756103314" lon="17.035052574144185"><ele>48.0</ele><time>2026-03-28T16:11:20Z</time></trkpt><trkpt lat="39.33588772277524" lon="17.035171405379774"><ele>48.0</ele><time>2026-03-28T16:11:21Z</time></trkpt><trkpt lat="39.33588680648193" lon="17.035294056951503"><ele>48.333333333333336</ele><time>2026-03-28T16:11:22Z</time></trkpt><trkpt lat="39.33587030716535" lon="17.03540579400113"><ele>48.66666666666667</ele><time>2026-03-28T16:11:23Z</time></trkpt><trkpt lat="39.33586414748645" lon="17.035499812853804"><ele>49.0</ele><time>2026-03-28T16:11:24Z</time></trkpt><trkpt lat="39.335849276540635" lon="17.035642644655674"><ele>49.333333333333336</ele><time>2026-03-28T16:11:26Z</time></trkpt><trkpt lat="39.335848288546" lon="17.035744965639275"><ele>49.66666666666667</ele><time>2026-03-28T16:11:28Z</time></trkpt><trkpt lat="39.33584828854582" lon="17.03583516529657"><ele>50.0</ele><time>2026-03-28T16:11:30Z</time></trkpt><trkpt lat="39.33584672263065" lon="17.035943118987596"><ele>50.00000000000001</ele><time>2026-03-28T16:11:33Z</time></trkpt><trkpt lat="39.33585099286511" lon="17.036056408415384"><ele>50.0</ele><time>2026-03-28T16:11:36Z</time></trkpt><trkpt lat="39.33584507360956" lon="17.036139631549"><ele>50.0</ele><time>2026-03-28T16:11:38Z</time></trkpt><trkpt lat="39.33583275831795" lon="17.03626721779032"><ele>50.0</ele><time>2026-03-28T16:11:40Z</time></trkpt><trkpt lat="39.33580701595988" lon="17.03634210457811"><ele>50.00000000000001</ele><time>2026-03-28T16:11:41Z</time></trkpt><trkpt lat="39.335782442935454" lon="17.036417382450665"><ele>50.0</ele><time>2026-03-28T16:11:42Z</time></trkpt><trkpt lat="39.33577566227796" lon="17.03652194443881"><ele>50.0</ele><time>2026-03-28T16:11:43Z</time></trkpt><trkpt lat="39.33576550795068" lon="17.036617903440344"><ele>50.0</ele><time>2026-03-28T16:11:44Z</time></trkpt><trkpt lat="39.33574640002122" lon="17.03672348862448"><ele>50.0</ele><time>2026-03-28T16:11:45Z</time></trkpt><trkpt lat="39.3357300646965" lon="17.036861940783314"><ele>50.0</ele><time>2026-03-28T16:11:46Z</time></trkpt><trkpt lat="39.33573758768603" lon="17.037010727678915"><ele>50.0</ele><time>2026-03-28T16:11:47Z</time></trkpt><trkpt lat="39.33575017303598" lon="17.037135950247563"><ele>49.66666666666667</ele><time>2026-03-28T16:11:48Z</time></trkpt><trkpt lat="39.335772152912995" lon="17.037245875045432"><ele>49.333333333333336</ele><time>2026-03-28T16:11:49Z</time></trkpt><trkpt lat="39.33578049295585" lon="17.037353167352073"><ele>49.0</ele><time>2026-03-28T16:11:50Z</time></trkpt><trkpt lat="39.33577130379383" lon="17.037460289650237"><ele>48.66666666666667</ele><time>2026-03-28T16:11:51Z</time></trkpt><trkpt lat="39.33577686949195" lon="17.03756411944608"><ele>48.333333333333336</ele><time>2026-03-28T16:11:52Z</time></trkpt><trkpt lat="39.335792784510325" lon="17.037667386328994"><ele>48.0</ele><time>2026-03-28T16:11:53Z</time></trkpt><trkpt lat="39.33579720238304" lon="17.037774328740344"><ele>47.833333333333336</ele><time>2026-03-28T16:11:54Z</time></trkpt><trkpt lat="39.33580206630979" lon="17.037887620374786"><ele>47.666666666666664</ele><time>2026-03-28T16:11:55Z</time></trkpt><trkpt lat="39.33581566174421" lon="17.038002776087666"><ele>47.5</ele><time>2026-03-28T16:11:56Z</time></trkpt><trkpt lat="39.3358307609105" lon="17.038113126869103"><ele>47.33333333333333</ele><time>2026-03-28T16:11:57Z</time></trkpt><trkpt lat="39.33588930480653" lon="17.038191058416235"><ele>47.166666666666664</ele><time>2026-03-28T16:11:58Z</time></trkpt><trkpt lat="39.335926492997395" lon="17.03827920855154"><ele>47.0</ele><time>2026-03-28T16:11:59Z</time></trkpt><trkpt lat="39.33598873976608" lon="17.03831368003093"><ele>46.6</ele><time>2026-03-28T16:12:00Z</time></trkpt><trkpt lat="39.33599682879219" lon="17.03845280282234"><ele>46.2</ele><time>2026-03-28T16:12:01Z</time></trkpt><trkpt lat="39.336025991235275" lon="17.038534009843705"><ele>45.8</ele><time>2026-03-28T16:12:02Z</time></trkpt><trkpt lat="39.33597339813198" lon="17.038689785821088"><ele>45.4</ele><time>2026-03-28T16:12:03Z</time></trkpt><trkpt lat="39.33598852222348" lon="17.03878116206709"><ele>45.0</ele><time>2026-03-28T16:12:04Z</time></trkpt><trkpt lat="39.3358608654372" lon="17.038924945721156"><ele>45.0</ele><time>2026-03-28T16:12:05Z</time></trkpt><trkpt lat="39.33584626032075" lon="17.039028159193034"><ele>45.0</ele><time>2026-03-28T16:12:06Z</time></trkpt><trkpt lat="39.335829042415476" lon="17.039132168157042"><ele>45.0</ele><time>2026-03-28T16:12:07Z</time></trkpt><trkpt lat="39.335810051557196" lon="17.039244282346292"><ele>45.0</ele><time>2026-03-28T16:12:08Z</time></trkpt><trkpt lat="39.33579320775767" lon="17.039367912889077"><ele>45.0</ele><time>2026-03-28T16:12:09Z</time></trkpt><trkpt lat="39.33578350807207" lon="17.0395027279393"><ele>45.0</ele><time>2026-03-28T16:12:10Z</time></trkpt><trkpt lat="39.335770164818236" lon="17.039637681148655"><ele>45.0</ele><time>2026-03-28T16:12:11Z</time></trkpt><trkpt lat="39.33576048802538" lon="17.039773799166447"><ele>45.0</ele><time>2026-03-28T16:12:12Z</time></trkpt><trkpt lat="39.335750057658544" lon="17.039902413785093"><ele>45.0</ele><time>2026-03-28T16:12:13Z</time></trkpt><trkpt lat="39.33574278979956" lon="17.040021214407354"><ele>45.0</ele><time>2026-03-28T16:12:14Z</time></trkpt><trkpt lat="39.335725227744774" lon="17.04012640524661"><ele>45.0</ele><time>2026-03-28T16:12:15Z</time></trkpt><trkpt lat="39.3357275227142" lon="17.04022608934187"><ele>45.0</ele><time>2026-03-28T16:12:16Z</time></trkpt><trkpt lat="39.33573683098627" lon="17.040323854573565"><ele>45.0</ele><time>2026-03-28T16:12:17Z</time></trkpt><trkpt lat="39.335726739568095" lon="17.04042441999082"><ele>45.0</ele><time>2026-03-28T16:12:18Z</time></trkpt><trkpt lat="39.3356899853313" lon="17.040533537565093"><ele>45.0</ele><time>2026-03-28T16:12:19Z</time></trkpt><trkpt lat="39.33563965055886" lon="17.040644256107633"><ele>45.0</ele><time>2026-03-28T16:12:20Z</time></trkpt><trkpt lat="39.33559402201585" lon="17.04075037399822"><ele>44.5</ele><time>2026-03-28T16:12:21Z</time></trkpt><trkpt lat="39.3355547371164" lon="17.040849285353108"><ele>44.0</ele><time>2026-03-28T16:12:22Z</time></trkpt><trkpt lat="39.33552690442993" lon="17.040947394281176"><ele>43.5</ele><time>2026-03-28T16:12:23Z</time></trkpt><trkpt lat="39.33550659881375" lon="17.04104128356171"><ele>43.0</ele><time>2026-03-28T16:12:24Z</time></trkpt><trkpt lat="39.33551071280356" lon="17.041131851663497"><ele>42.5</ele><time>2026-03-28T16:12:25Z</time></trkpt><trkpt lat="39.33554568831579" lon="17.041211508824613"><ele>42.0</ele><time>2026-03-28T16:12:26Z</time></trkpt><trkpt lat="39.33560054991231" lon="17.041287917897183"><ele>42.0</ele><time>2026-03-28T16:12:27Z</time></trkpt><trkpt lat="39.335678965945" lon="17.041341331336035"><ele>42.0</ele><time>2026-03-28T16:12:28Z</time></trkpt><trkpt lat="39.33576566006315" lon="17.04138817742631"><ele>42.0</ele><time>2026-03-28T16:12:29Z</time></trkpt><trkpt lat="39.335855793550955" lon="17.041423603682816"><ele>42.0</ele><time>2026-03-28T16:12:30Z</time></trkpt><trkpt lat="39.335944726452624" lon="17.041433775771868"><ele>42.0</ele><time>2026-03-28T16:12:31Z</time></trkpt><trkpt lat="39.33602888522418" lon="17.041455435124945"><ele>42.0</ele><time>2026-03-28T16:12:32Z</time></trkpt><trkpt lat="39.336113525685576" lon="17.041467658487925"><ele>42.0</ele><time>2026-03-28T16:12:33Z</time></trkpt><trkpt lat="39.33619603751512" lon="17.041479221535255"><ele>42.0</ele><time>2026-03-28T16:12:34Z</time></trkpt><trkpt lat="39.33627261837149" lon="17.04147795528837"><ele>42.0</ele><time>2026-03-28T16:12:35Z</time></trkpt><trkpt lat="39.336339743976666" lon="17.041465245873336"><ele>42.0</ele><time>2026-03-28T16:12:36Z</time></trkpt><trkpt lat="39.33643619688798" lon="17.0414455460816"><ele>42.0</ele><time>2026-03-28T16:12:38Z</time></trkpt><trkpt lat="39.336513359897125" lon="17.041420766254458"><ele>42.0</ele><time>2026-03-28T16:12:41Z</time></trkpt><trkpt lat="39.336576853355304" lon="17.04142217380152"><ele>42.0</ele><time>2026-03-28T16:12:46Z</time></trkpt><trkpt lat="39.33663974765633" lon="17.041440652810067"><ele>42.0</ele><time>2026-03-28T16:12:51Z</time></trkpt><trkpt lat="39.336689073913625" lon="17.04154064766049"><ele>42.0</ele><time>2026-03-28T16:12:54Z</time></trkpt><trkpt lat="39.33673041376832" lon="17.041630457177106"><ele>42.0</ele><time>2026-03-28T16:12:56Z</time></trkpt><trkpt lat="39.336778597270886" lon="17.041747302421072"><ele>42.0</ele><time>2026-03-28T16:12:58Z</time></trkpt><trkpt lat="39.336786632355945" lon="17.041876496413604"><ele>42.0</ele><time>2026-03-28T16:13:00Z</time></trkpt><trkpt lat="39.33681283833678" lon="17.042006260066067"><ele>42.0</ele><time>2026-03-28T16:13:02Z</time></trkpt><trkpt lat="39.33683412490103" lon="17.04213672351798"><ele>42.0</ele><time>2026-03-28T16:13:04Z</time></trkpt><trkpt lat="39.33685584030448" lon="17.042301077174873"><ele>42.0</ele><time>2026-03-28T16:13:06Z</time></trkpt><trkpt lat="39.33685956153517" lon="17.04239108255729"><ele>42.0</ele><time>2026-03-28T16:13:07Z</time></trkpt><trkpt lat="39.33686771416487" lon="17.042483873106598"><ele>41.666666666666664</ele><time>2026-03-28T16:13:08Z</time></trkpt><trkpt lat="39.33687145244012" lon="17.0425801171502"><ele>41.333333333333336</ele><time>2026-03-28T16:13:09Z</time></trkpt><trkpt lat="39.33687903626161" lon="17.04267783529465"><ele>41.0</ele><time>2026-03-28T16:13:10Z</time></trkpt><trkpt lat="39.33689160640905" lon="17.042774414228838"><ele>40.66666666666667</ele><time>2026-03-28T16:13:11Z</time></trkpt><trkpt lat="39.33691570228434" lon="17.04286715110799"><ele>40.333333333333336</ele><time>2026-03-28T16:13:12Z</time></trkpt><trkpt lat="39.336948075463965" lon="17.04295843567323"><ele>40.0</ele><time>2026-03-28T16:13:13Z</time></trkpt><trkpt lat="39.336976890166426" lon="17.043044762475795"><ele>40.0</ele><time>2026-03-28T16:13:14Z</time></trkpt><trkpt lat="39.33699104167698" lon="17.04313349052389"><ele>40.0</ele><time>2026-03-28T16:13:15Z</time></trkpt><trkpt lat="39.337010191545154" lon="17.043274752073206"><ele>40.0</ele><time>2026-03-28T16:13:17Z</time></trkpt><trkpt lat="39.33700731949922" lon="17.043404632558417"><ele>40.0</ele><time>2026-03-28T16:13:19Z</time></trkpt><trkpt lat="39.33698797166455" lon="17.043541394092145"><ele>40.0</ele><time>2026-03-28T16:13:21Z</time></trkpt><trkpt lat="39.3369606897948" lon="17.043683303149507"><ele>40.4</ele><time>2026-03-28T16:13:23Z</time></trkpt><trkpt lat="39.33691969874515" lon="17.043817833167044"><ele>40.8</ele><time>2026-03-28T16:13:25Z</time></trkpt><trkpt lat="39.33690824889967" lon="17.043935270840365"><ele>41.2</ele><time>2026-03-28T16:13:27Z</time></trkpt><trkpt lat="39.33689835654675" lon="17.044062579886933"><ele>41.6</ele><time>2026-03-28T16:13:29Z</time></trkpt><trkpt lat="39.33689564391728" lon="17.044216082945688"><ele>42.0</ele><time>2026-03-28T16:13:31Z</time></trkpt><trkpt lat="39.33690317610498" lon="17.044299446209624"><ele>42.0</ele><time>2026-03-28T16:13:32Z</time></trkpt><trkpt lat="39.336911627147494" lon="17.044383411886212"><ele>42.0</ele><time>2026-03-28T16:13:33Z</time></trkpt><trkpt lat="39.3369182927266" lon="17.044476338875732"><ele>42.0</ele><time>2026-03-28T16:13:34Z</time></trkpt><trkpt lat="39.336944029237195" lon="17.044585173344394"><ele>42.0</ele><time>2026-03-28T16:13:35Z</time></trkpt><trkpt lat="39.336976874270015" lon="17.044699611764493"><ele>42.0</ele><time>2026-03-28T16:13:36Z</time></trkpt><trkpt lat="39.33700066137483" lon="17.044801939208984"><ele>42.0</ele><time>2026-03-28T16:13:37Z</time></trkpt><trkpt lat="39.33701816095369" lon="17.04489898799204"><ele>42.0</ele><time>2026-03-28T16:13:38Z</time></trkpt><trkpt lat="39.33703320950968" lon="17.04499110679574"><ele>42.0</ele><time>2026-03-28T16:13:39Z</time></trkpt><trkpt lat="39.3370497484769" lon="17.04507621326737"><ele>42.0</ele><time>2026-03-28T16:13:40Z</time></trkpt><trkpt lat="39.33706122841505" lon="17.045179394457147"><ele>42.0</ele><time>2026-03-28T16:13:42Z</time></trkpt><trkpt lat="39.337092305013286" lon="17.04527002387003"><ele>42.0</ele><time>2026-03-28T16:13:47Z</time></trkpt><trkpt lat="39.33709311789339" lon="17.045366379386213"><ele>42.0</ele><time>2026-03-28T16:13:49Z</time></trkpt><trkpt lat="39.337104468317136" lon="17.04547684127655"><ele>42.0</ele><time>2026-03-28T16:13:51Z</time></trkpt><trkpt lat="39.33710603564054" lon="17.045633445792834"><ele>42.0</ele><time>2026-03-28T16:13:53Z</time></trkpt><trkpt lat="39.33711237234362" lon="17.0457383251895"><ele>42.0</ele><time>2026-03-28T16:13:54Z</time></trkpt><trkpt lat="39.33712966694625" lon="17.045856284006696"><ele>42.0</ele><time>2026-03-28T16:13:55Z</time></trkpt><trkpt lat="39.337152492279465" lon="17.04597894990935"><ele>42.0</ele><time>2026-03-28T16:13:56Z</time></trkpt><trkpt lat="39.33717581848913" lon="17.046095895341686"><ele>42.166666666666664</ele><time>2026-03-28T16:13:57Z</time></trkpt><trkpt lat="39.337194930150794" lon="17.046207438347295"><ele>42.333333333333336</ele><time>2026-03-28T16:13:58Z</time></trkpt><trkpt lat="39.33720148499646" lon="17.04631268215595"><ele>42.5</ele><time>2026-03-28T16:13:59Z</time></trkpt><trkpt lat="39.33721310611729" lon="17.04641468786862"><ele>42.66666666666667</ele><time>2026-03-28T16:14:00Z</time></trkpt><trkpt lat="39.33722313004505" lon="17.046520633635243"><ele>42.833333333333336</ele><time>2026-03-28T16:14:01Z</time></trkpt><trkpt lat="39.33723068143812" lon="17.046630928383077"><ele>43.0</ele><time>2026-03-28T16:14:02Z</time></trkpt><trkpt lat="39.337229897958736" lon="17.046747843102985"><ele>43.0</ele><time>2026-03-28T16:14:03Z</time></trkpt><trkpt lat="39.33722456334638" lon="17.046867227872642"><ele>43.0</ele><time>2026-03-28T16:14:04Z</time></trkpt><trkpt lat="39.33722173698009" lon="17.046988654270123"><ele>43.0</ele><time>2026-03-28T16:14:05Z</time></trkpt><trkpt lat="39.337200893035025" lon="17.0471054176103"><ele>43.0</ele><time>2026-03-28T16:14:06Z</time></trkpt><trkpt lat="39.33717723407432" lon="17.04721275078816"><ele>43.0</ele><time>2026-03-28T16:14:07Z</time></trkpt><trkpt lat="39.33716545718263" lon="17.047300841102132"><ele>43.0</ele><time>2026-03-28T16:14:08Z</time></trkpt><trkpt lat="39.33710247269679" lon="17.04739606651066"><ele>43.0</ele><time>2026-03-28T16:14:10Z</time></trkpt><trkpt lat="39.33700611228173" lon="17.047407129033513"><ele>43.0</ele><time>2026-03-28T16:14:12Z</time></trkpt><trkpt lat="39.336936631066976" lon="17.04748795508336"><ele>43.0</ele><time>2026-03-28T16:14:14Z</time></trkpt><trkpt lat="39.33687970496807" lon="17.047578991649132"><ele>43.0</ele><time>2026-03-28T16:14:16Z</time></trkpt><trkpt lat="39.33686183557687" lon="17.04771205617572"><ele>43.0</ele><time>2026-03-28T16:14:18Z</time></trkpt><trkpt lat="39.336856517917155" lon="17.047848977136493"><ele>42.8</ele><time>2026-03-28T16:14:20Z</time></trkpt><trkpt lat="39.33685974509166" lon="17.04798988293344"><ele>42.599999999999994</ele><time>2026-03-28T16:14:22Z</time></trkpt><trkpt lat="39.33684784181312" lon="17.048129949805432"><ele>42.400000000000006</ele><time>2026-03-28T16:14:24Z</time></trkpt><trkpt lat="39.33681313198197" lon="17.048265062388694"><ele>42.2</ele><time>2026-03-28T16:14:26Z</time></trkpt><trkpt lat="39.33679013954467" lon="17.048404063479378"><ele>42.0</ele><time>2026-03-28T16:14:28Z</time></trkpt><trkpt lat="39.33678967119269" lon="17.048534107569463"><ele>42.0</ele><time>2026-03-28T16:14:30Z</time></trkpt><trkpt lat="39.33681142509614" lon="17.048669277826143"><ele>42.0</ele><time>2026-03-28T16:14:32Z</time></trkpt><trkpt lat="39.33684693095965" lon="17.048822431488038"><ele>42.0</ele><time>2026-03-28T16:14:34Z</time></trkpt><trkpt lat="39.336859831567125" lon="17.048907625605832"><ele>42.0</ele><time>2026-03-28T16:14:35Z</time></trkpt><trkpt lat="39.33687063241629" lon="17.048999465945347"><ele>42.0</ele><time>2026-03-28T16:14:36Z</time></trkpt><trkpt lat="39.33688051803422" lon="17.049099009296153"><ele>42.0</ele><time>2026-03-28T16:14:37Z</time></trkpt><trkpt lat="39.33689218643778" lon="17.04920543094392"><ele>41.8</ele><time>2026-03-28T16:14:38Z</time></trkpt><trkpt lat="39.33690536408858" lon="17.04931576622691"><ele>41.6</ele><time>2026-03-28T16:14:39Z</time></trkpt><trkpt lat="39.3369140637246" lon="17.04942673414205"><ele>41.4</ele><time>2026-03-28T16:14:40Z</time></trkpt><trkpt lat="39.3369357615884" lon="17.049540523205607"><ele>41.199999999999996</ele><time>2026-03-28T16:14:41Z</time></trkpt><trkpt lat="39.33695836982292" lon="17.049662455256293"><ele>41.0</ele><time>2026-03-28T16:14:42Z</time></trkpt><trkpt lat="39.33698074429273" lon="17.049787212133047"><ele>41.0</ele><time>2026-03-28T16:14:43Z</time></trkpt><trkpt lat="39.336999157736585" lon="17.04991039957943"><ele>41.0</ele><time>2026-03-28T16:14:44Z</time></trkpt><trkpt lat="39.33701666435326" lon="17.050038011374113"><ele>41.0</ele><time>2026-03-28T16:14:45Z</time></trkpt><trkpt lat="39.33702072899675" lon="17.05017266943293"><ele>41.0</ele><time>2026-03-28T16:14:46Z</time></trkpt><trkpt lat="39.337040941944494" lon="17.05031015812653"><ele>41.0</ele><time>2026-03-28T16:14:47Z</time></trkpt><trkpt lat="39.33707705322947" lon="17.050445919135733"><ele>40.8</ele><time>2026-03-28T16:14:48Z</time></trkpt><trkpt lat="39.337095463631314" lon="17.05058203579407"><ele>40.599999999999994</ele><time>2026-03-28T16:14:49Z</time></trkpt><trkpt lat="39.337113875197666" lon="17.05070244942216"><ele>40.4</ele><time>2026-03-28T16:14:50Z</time></trkpt><trkpt lat="39.33712830935698" lon="17.050815867136254"><ele>40.2</ele><time>2026-03-28T16:14:51Z</time></trkpt><trkpt lat="39.33712654756988" lon="17.05093076063404"><ele>40.0</ele><time>2026-03-28T16:14:52Z</time></trkpt><trkpt lat="39.33714990322283" lon="17.05104536420871"><ele>40.0</ele><time>2026-03-28T16:14:53Z</time></trkpt><trkpt lat="39.33715466330447" lon="17.051172436879018"><ele>40.0</ele><time>2026-03-28T16:14:54Z</time></trkpt><trkpt lat="39.337157854790085" lon="17.05130086542134"><ele>40.0</ele><time>2026-03-28T16:14:55Z</time></trkpt><trkpt lat="39.337162158333264" lon="17.051422253524134"><ele>40.0</ele><time>2026-03-28T16:14:56Z</time></trkpt><trkpt lat="39.33714122704696" lon="17.05153180048195"><ele>40.0</ele><time>2026-03-28T16:14:57Z</time></trkpt><trkpt lat="39.33714205787368" lon="17.05162419407098"><ele>39.8</ele><time>2026-03-28T16:14:58Z</time></trkpt><trkpt lat="39.33713849869879" lon="17.051772407146252"><ele>39.6</ele><time>2026-03-28T16:15:00Z</time></trkpt><trkpt lat="39.33713031582458" lon="17.051922984157347"><ele>39.4</ele><time>2026-03-28T16:15:02Z</time></trkpt><trkpt lat="39.33712330608046" lon="17.052006099238184"><ele>39.2</ele><time>2026-03-28T16:15:03Z</time></trkpt><trkpt lat="39.33711531472656" lon="17.052089260468374"><ele>39.0</ele><time>2026-03-28T16:15:04Z</time></trkpt><trkpt lat="39.33709776865499" lon="17.0522448192933"><ele>39.0</ele><time>2026-03-28T16:15:06Z</time></trkpt><trkpt lat="39.33707788442586" lon="17.052392634108415"><ele>39.0</ele><time>2026-03-28T16:15:08Z</time></trkpt><trkpt lat="39.33705461048613" lon="17.052542099421807"><ele>39.0</ele><time>2026-03-28T16:15:10Z</time></trkpt><trkpt lat="39.337025218868185" lon="17.052703258991485"><ele>39.0</ele><time>2026-03-28T16:15:12Z</time></trkpt><trkpt lat="39.33700617157607" lon="17.052784547065603"><ele>39.0</ele><time>2026-03-28T16:15:13Z</time></trkpt><trkpt lat="39.3369817383623" lon="17.05286732898726"><ele>38.8</ele><time>2026-03-28T16:15:14Z</time></trkpt><trkpt lat="39.33693869304177" lon="17.05299642914747"><ele>38.599999999999994</ele><time>2026-03-28T16:15:16Z</time></trkpt><trkpt lat="39.33701715977124" lon="17.053121055385688"><ele>38.4</ele><time>2026-03-28T16:15:18Z</time></trkpt><trkpt lat="39.33709699410339" lon="17.053121834175684"><ele>38.199999999999996</ele><time>2026-03-28T16:15:20Z</time></trkpt><trkpt lat="39.3371804357962" lon="17.053034908417345"><ele>38.0</ele><time>2026-03-28T16:15:22Z</time></trkpt><trkpt lat="39.33724268048977" lon="17.05295935668717"><ele>37.8</ele><time>2026-03-28T16:15:24Z</time></trkpt><trkpt lat="39.33734375192723" lon="17.052892432555506"><ele>37.599999999999994</ele><time>2026-03-28T16:15:25Z</time></trkpt><trkpt lat="39.337429751249516" lon="17.05290705659096"><ele>37.400000000000006</ele><time>2026-03-28T16:15:26Z</time></trkpt><trkpt lat="39.33750712082127" lon="17.05295556593004"><ele>37.2</ele><time>2026-03-28T16:15:29Z</time></trkpt><trkpt lat="39.337573604131286" lon="17.053019190817082"><ele>37.0</ele><time>2026-03-28T16:15:37Z</time></trkpt><trkpt lat="39.33764174639384" lon="17.053143592858756"><ele>37.0</ele><time>2026-03-28T16:15:50Z</time></trkpt><trkpt lat="39.33760674998624" lon="17.05306538959842"><ele>37.0</ele><time>2026-03-28T16:16:04Z</time></trkpt><trkpt lat="39.33752621222243" lon="17.05309054819612"><ele>37.0</ele><time>2026-03-28T16:16:55Z</time></trkpt><trkpt lat="39.33750561938508" lon="17.053011344287892"><ele>37.0</ele><time>2026-03-28T16:16:59Z</time></trkpt><trkpt lat="39.337576184198234" lon="17.05303268094818"><ele>37.0</ele><time>2026-03-28T16:17:06Z</time></trkpt><trkpt lat="39.33762239627554" lon="17.053095734046835"><ele>37.0</ele><time>2026-03-28T16:17:11Z</time></trkpt><trkpt lat="39.337653825126885" lon="17.053178175359726"><ele>37.0</ele><time>2026-03-28T16:17:20Z</time></trkpt><trkpt lat="39.33769274929777" lon="17.053284230222154"><ele>37.333333333333336</ele><time>2026-03-28T16:17:23Z</time></trkpt><trkpt lat="39.33773135976041" lon="17.05336728597177"><ele>37.66666666666667</ele><time>2026-03-28T16:17:25Z</time></trkpt><trkpt lat="39.337792749318275" lon="17.05348522790776"><ele>38.0</ele><time>2026-03-28T16:17:27Z</time></trkpt><trkpt lat="39.33783271357582" lon="17.05355867626342"><ele>38.333333333333336</ele><time>2026-03-28T16:17:28Z</time></trkpt><trkpt lat="39.337872514770915" lon="17.053631824832284"><ele>38.666666666666664</ele><time>2026-03-28T16:17:29Z</time></trkpt><trkpt lat="39.33790886522365" lon="17.05369863141988"><ele>39.0</ele><time>2026-03-28T16:17:30Z</time></trkpt><trkpt lat="39.33796029886427" lon="17.053789923289795"><ele>39.0</ele><time>2026-03-28T16:17:32Z</time></trkpt><trkpt lat="39.33792016691592" lon="17.05371875332331"><ele>39.0</ele><time>2026-03-28T16:17:37Z</time></trkpt><trkpt lat="39.337868616969764" lon="17.053624666414553"><ele>39.0</ele><time>2026-03-28T16:17:39Z</time></trkpt><trkpt lat="39.33781809586123" lon="17.05353181565331"><ele>39.0</ele><time>2026-03-28T16:17:41Z</time></trkpt><trkpt lat="39.3377724605314" lon="17.053447943356428"><ele>39.0</ele><time>2026-03-28T16:17:43Z</time></trkpt><trkpt lat="39.337730439303535" lon="17.053365466390723"><ele>39.0</ele><time>2026-03-28T16:17:45Z</time></trkpt><trkpt lat="39.33757286570808" lon="17.053476193966038"><ele>39.0</ele><time>2026-03-28T16:18:21Z</time></trkpt><trkpt lat="39.33753289740437" lon="17.053399738981337"><ele>39.0</ele><time>2026-03-28T16:18:35Z</time></trkpt><trkpt lat="39.33747355756208" lon="17.05337110082868"><ele>39.0</ele><time>2026-03-28T16:19:14Z</time></trkpt><trkpt lat="39.33740404080593" lon="17.053362105348175"><ele>39.0</ele><time>2026-03-28T16:19:58Z</time></trkpt><trkpt lat="39.33743428541138" lon="17.053437785363737"><ele>39.0</ele><time>2026-03-28T16:20:19Z</time></trkpt><trkpt lat="39.337376755083135" lon="17.05338839209767"><ele>39.0</ele><time>2026-03-28T16:20:59Z</time></trkpt><trkpt lat="39.33733836006185" lon="17.05345490403201"><ele>39.0</ele><time>2026-03-28T16:21:51Z</time></trkpt><trkpt lat="39.337286043650536" lon="17.053401054741432"><ele>39.0</ele><time>2026-03-28T16:22:38Z</time></trkpt><trkpt lat="39.33724558447235" lon="17.053466281582583"><ele>39.0</ele><time>2026-03-28T16:23:43Z</time></trkpt><trkpt lat="39.33732563895126" lon="17.053525989436096"><ele>39.0</ele><time>2026-03-28T16:24:10Z</time></trkpt><trkpt lat="39.33739375646731" lon="17.05349744209419"><ele>39.0</ele><time>2026-03-28T16:24:15Z</time></trkpt><trkpt lat="39.33735274976278" lon="17.05342913782951"><ele>39.0</ele><time>2026-03-28T16:28:49Z</time></trkpt><trkpt lat="39.33741476751187" lon="17.05357672329097"><ele>39.0</ele><time>2026-03-28T16:30:38Z</time></trkpt><trkpt lat="39.33745679803728" lon="17.05365165155752"><ele>39.0</ele><time>2026-03-28T16:30:39Z</time></trkpt><trkpt lat="39.33751653672365" lon="17.05373146204162"><ele>39.0</ele><time>2026-03-28T16:30:40Z</time></trkpt><trkpt lat="39.33758263581151" lon="17.053820004654362"><ele>39.0</ele><time>2026-03-28T16:30:41Z</time></trkpt><trkpt lat="39.33764759888508" lon="17.05390383432438"><ele>39.0</ele><time>2026-03-28T16:30:42Z</time></trkpt><trkpt lat="39.33771104708013" lon="17.053965819291466"><ele>39.0</ele><time>2026-03-28T16:30:43Z</time></trkpt><trkpt lat="39.33777537795494" lon="17.054003920918316"><ele>39.0</ele><time>2026-03-28T16:30:44Z</time></trkpt><trkpt lat="39.337829934483544" lon="17.054054265979804"><ele>39.0</ele><time>2026-03-28T16:30:45Z</time></trkpt><trkpt lat="39.33803822376764" lon="17.053891279039618"><ele>39.0</ele><time>2026-03-28T16:30:46Z</time></trkpt><trkpt lat="39.33810088314279" lon="17.05395922499991"><ele>39.0</ele><time>2026-03-28T16:30:47Z</time></trkpt><trkpt lat="39.33834572496632" lon="17.0541164868225"><ele>39.0</ele><time>2026-03-28T16:30:49Z</time></trkpt><trkpt lat="39.33843888066825" lon="17.054518579000515"><ele>39.0</ele><time>2026-03-28T16:30:50Z</time></trkpt><trkpt lat="39.33843423200882" lon="17.054655030170608"><ele>39.0</ele><time>2026-03-28T16:30:52Z</time></trkpt><trkpt lat="39.33844744036136" lon="17.054834054071218"><ele>39.0</ele><time>2026-03-28T16:30:54Z</time></trkpt><trkpt lat="39.338458816566344" lon="17.054916067954856"><ele>39.0</ele><time>2026-03-28T16:30:55Z</time></trkpt><trkpt lat="39.33847804104118" lon="17.05501235321646"><ele>39.0</ele><time>2026-03-28T16:30:56Z</time></trkpt><trkpt lat="39.33850023730747" lon="17.055105677806097"><ele>39.0</ele><time>2026-03-28T16:30:57Z</time></trkpt><trkpt lat="39.33853854812074" lon="17.055239174787424"><ele>39.0</ele><time>2026-03-28T16:30:58Z</time></trkpt><trkpt lat="39.33858208795621" lon="17.055387465388556"><ele>39.25</ele><time>2026-03-28T16:30:59Z</time></trkpt><trkpt lat="39.33862647362885" lon="17.055540383268326"><ele>39.5</ele><time>2026-03-28T16:31:00Z</time></trkpt><trkpt lat="39.33866780562883" lon="17.055685071242053"><ele>39.75</ele><time>2026-03-28T16:31:01Z</time></trkpt><trkpt lat="39.33870751726888" lon="17.055824086465044"><ele>40.0</ele><time>2026-03-28T16:31:02Z</time></trkpt><trkpt lat="39.33874693940828" lon="17.055962088857207"><ele>39.5</ele><time>2026-03-28T16:31:03Z</time></trkpt><trkpt lat="39.3387862018174" lon="17.05609953170723"><ele>39.0</ele><time>2026-03-28T16:31:04Z</time></trkpt><trkpt lat="39.33882571634404" lon="17.05623785794031"><ele>38.5</ele><time>2026-03-28T16:31:05Z</time></trkpt><trkpt lat="39.33886541381059" lon="17.05637885276135"><ele>38.0</ele><time>2026-03-28T16:31:06Z</time></trkpt><trkpt lat="39.33890317127215" lon="17.056514849613198"><ele>39.33333333333333</ele><time>2026-03-28T16:31:07Z</time></trkpt><trkpt lat="39.338943568815075" lon="17.056665451099665"><ele>40.666666666666664</ele><time>2026-03-28T16:31:08Z</time></trkpt><trkpt lat="39.338986147217746" lon="17.056895058490948"><ele>42.0</ele><time>2026-03-28T16:31:09Z</time></trkpt><trkpt lat="39.33898693686443" lon="17.057114090894583"><ele>42.0</ele><time>2026-03-28T16:31:10Z</time></trkpt><trkpt lat="39.338968028067434" lon="17.05729479970563"><ele>42.0</ele><time>2026-03-28T16:31:11Z</time></trkpt><trkpt lat="39.338951474334884" lon="17.05744043997998"><ele>42.0</ele><time>2026-03-28T16:31:12Z</time></trkpt><trkpt lat="39.33893816801233" lon="17.057587233313043"><ele>42.0</ele><time>2026-03-28T16:31:13Z</time></trkpt><trkpt lat="39.3389276325355" lon="17.057730282738635"><ele>42.0</ele><time>2026-03-28T16:31:14Z</time></trkpt><trkpt lat="39.33892569640666" lon="17.05787005897639"><ele>42.0</ele><time>2026-03-28T16:31:15Z</time></trkpt><trkpt lat="39.338932537298774" lon="17.057996099352355"><ele>42.0</ele><time>2026-03-28T16:31:16Z</time></trkpt><trkpt lat="39.33894909373025" lon="17.05813428516303"><ele>42.0</ele><time>2026-03-28T16:31:17Z</time></trkpt><trkpt lat="39.338970136065235" lon="17.05824580416578"><ele>42.0</ele><time>2026-03-28T16:31:18Z</time></trkpt><trkpt lat="39.33900395861331" lon="17.05836889592905"><ele>42.0</ele><time>2026-03-28T16:31:19Z</time></trkpt><trkpt lat="39.339042213440656" lon="17.05849299463787"><ele>42.0</ele><time>2026-03-28T16:31:20Z</time></trkpt><trkpt lat="39.3390841096928" lon="17.058627709597612"><ele>42.0</ele><time>2026-03-28T16:31:21Z</time></trkpt><trkpt lat="39.339129075758365" lon="17.0587653101067"><ele>42.0</ele><time>2026-03-28T16:31:22Z</time></trkpt><trkpt lat="39.33924785055563" lon="17.05892094599091"><ele>42.0</ele><time>2026-03-28T16:31:23Z</time></trkpt><trkpt lat="39.33929698647414" lon="17.059102658921386"><ele>42.0</ele><time>2026-03-28T16:31:24Z</time></trkpt><trkpt lat="39.339356055872464" lon="17.059301745140154"><ele>42.0</ele><time>2026-03-28T16:31:25Z</time></trkpt><trkpt lat="39.33941986461653" lon="17.059509750164498"><ele>41.666666666666664</ele><time>2026-03-28T16:31:26Z</time></trkpt><trkpt lat="39.33949295158813" lon="17.059734853980512"><ele>41.33333333333333</ele><time>2026-03-28T16:31:27Z</time></trkpt><trkpt lat="39.33956075643381" lon="17.059964647638598"><ele>41.0</ele><time>2026-03-28T16:31:28Z</time></trkpt><trkpt lat="39.339619373093825" lon="17.060201444259054"><ele>39.666666666666664</ele><time>2026-03-28T16:31:29Z</time></trkpt><trkpt lat="39.33967177775092" lon="17.06042179180479"><ele>38.333333333333336</ele><time>2026-03-28T16:31:30Z</time></trkpt><trkpt lat="39.33970363167398" lon="17.06062881117091"><ele>37.0</ele><time>2026-03-28T16:31:31Z</time></trkpt><trkpt lat="39.33972125656153" lon="17.060841299141682"><ele>40.333333333333336</ele><time>2026-03-28T16:31:32Z</time></trkpt><trkpt lat="39.339737616413295" lon="17.06108153647446"><ele>43.666666666666664</ele><time>2026-03-28T16:31:33Z</time></trkpt><trkpt lat="39.33975215772199" lon="17.061350700664033"><ele>47.0</ele><time>2026-03-28T16:31:34Z</time></trkpt><trkpt lat="39.33976611372045" lon="17.061609030577497"><ele>47.666666666666664</ele><time>2026-03-28T16:31:35Z</time></trkpt><trkpt lat="39.33977966673441" lon="17.061859900204002"><ele>48.33333333333333</ele><time>2026-03-28T16:31:36Z</time></trkpt><trkpt lat="39.3397927698413" lon="17.062102440495153"><ele>49.0</ele><time>2026-03-28T16:31:37Z</time></trkpt><trkpt lat="39.33980493200246" lon="17.06232756373612"><ele>47.666666666666664</ele><time>2026-03-28T16:31:38Z</time></trkpt><trkpt lat="39.339819479230435" lon="17.06256113896951"><ele>46.33333333333333</ele><time>2026-03-28T16:31:39Z</time></trkpt><trkpt lat="39.33988348491713" lon="17.062795503494375"><ele>45.0</ele><time>2026-03-28T16:31:40Z</time></trkpt><trkpt lat="39.33993894868949" lon="17.06304886586855"><ele>43.0</ele><time>2026-03-28T16:31:41Z</time></trkpt><trkpt lat="39.34002681434481" lon="17.06328186757169"><ele>41.0</ele><time>2026-03-28T16:31:42Z</time></trkpt><trkpt lat="39.340097054807195" lon="17.063517950286457"><ele>39.0</ele><time>2026-03-28T16:31:43Z</time></trkpt><trkpt lat="39.340176780955574" lon="17.063753202363447"><ele>39.0</ele><time>2026-03-28T16:31:44Z</time></trkpt><trkpt lat="39.340261830494896" lon="17.063984735596677"><ele>39.0</ele><time>2026-03-28T16:31:45Z</time></trkpt><trkpt lat="39.34035798396197" lon="17.064219774329956"><ele>39.0</ele><time>2026-03-28T16:31:46Z</time></trkpt><trkpt lat="39.34050721535894" lon="17.06439360089207"><ele>42.66666666666667</ele><time>2026-03-28T16:31:47Z</time></trkpt><trkpt lat="39.34063590236664" lon="17.064543754312478"><ele>46.333333333333336</ele><time>2026-03-28T16:31:48Z</time></trkpt><trkpt lat="39.34071471541769" lon="17.06470772386616"><ele>50.0</ele><time>2026-03-28T16:31:49Z</time></trkpt><trkpt lat="39.3407894649593" lon="17.064845978233517"><ele>49.5</ele><time>2026-03-28T16:31:50Z</time></trkpt><trkpt lat="39.34083802372552" lon="17.064991228988145"><ele>49.0</ele><time>2026-03-28T16:31:51Z</time></trkpt><trkpt lat="39.34086205419777" lon="17.06514667959728"><ele>48.5</ele><time>2026-03-28T16:31:52Z</time></trkpt><trkpt lat="39.34087591555548" lon="17.06531610552381"><ele>48.0</ele><time>2026-03-28T16:31:53Z</time></trkpt><trkpt lat="39.340882990307286" lon="17.06548723061393"><ele>48.0</ele><time>2026-03-28T16:31:54Z</time></trkpt><trkpt lat="39.34087831275491" lon="17.06567805227215"><ele>48.0</ele><time>2026-03-28T16:31:55Z</time></trkpt><trkpt lat="39.34085869499929" lon="17.065865761690386"><ele>48.0</ele><time>2026-03-28T16:31:56Z</time></trkpt><trkpt lat="39.340829436010196" lon="17.066048534623345"><ele>48.0</ele><time>2026-03-28T16:31:57Z</time></trkpt><trkpt lat="39.34080346623215" lon="17.06623845990557"><ele>47.0</ele><time>2026-03-28T16:31:58Z</time></trkpt><trkpt lat="39.34079339558724" lon="17.066428397979987"><ele>46.0</ele><time>2026-03-28T16:31:59Z</time></trkpt><trkpt lat="39.340812763319256" lon="17.066604659239058"><ele>45.0</ele><time>2026-03-28T16:32:00Z</time></trkpt><trkpt lat="39.34085250454837" lon="17.06680869724162"><ele>44.0</ele><time>2026-03-28T16:32:01Z</time></trkpt><trkpt lat="39.34090285556453" lon="17.06702176600682"><ele>42.666666666666664</ele><time>2026-03-28T16:32:02Z</time></trkpt><trkpt lat="39.34096346171865" lon="17.067249958624483"><ele>41.333333333333336</ele><time>2026-03-28T16:32:03Z</time></trkpt><trkpt lat="39.34101925099042" lon="17.067468241723223"><ele>40.0</ele><time>2026-03-28T16:32:04Z</time></trkpt><trkpt lat="39.34107256739375" lon="17.06766915742482"><ele>39.75</ele><time>2026-03-28T16:32:05Z</time></trkpt><trkpt lat="39.34113106228823" lon="17.067858398115323"><ele>39.5</ele><time>2026-03-28T16:32:06Z</time></trkpt><trkpt lat="39.34121072018103" lon="17.06802074486891"><ele>39.25</ele><time>2026-03-28T16:32:07Z</time></trkpt><trkpt lat="39.341254171134736" lon="17.06818029176634"><ele>39.0</ele><time>2026-03-28T16:32:08Z</time></trkpt><trkpt lat="39.3413404536639" lon="17.068263321768725"><ele>38.75</ele><time>2026-03-28T16:32:09Z</time></trkpt><trkpt lat="39.34142337918141" lon="17.068293916722368"><ele>38.5</ele><time>2026-03-28T16:32:10Z</time></trkpt><trkpt lat="39.34157525929109" lon="17.068328307894387"><ele>38.25</ele><time>2026-03-28T16:32:11Z</time></trkpt><trkpt lat="39.341721760980285" lon="17.068327602792724"><ele>38.0</ele><time>2026-03-28T16:32:12Z</time></trkpt><trkpt lat="39.34186148997301" lon="17.068311707774026"><ele>38.0</ele><time>2026-03-28T16:32:13Z</time></trkpt><trkpt lat="39.34199140034865" lon="17.068331232058608"><ele>38.0</ele><time>2026-03-28T16:32:14Z</time></trkpt><trkpt lat="39.34212644801867" lon="17.068368245603974"><ele>38.0</ele><time>2026-03-28T16:32:15Z</time></trkpt><trkpt lat="39.342254072962064" lon="17.068447652834156"><ele>38.0</ele><time>2026-03-28T16:32:16Z</time></trkpt><trkpt lat="39.3423837172713" lon="17.068559725573557"><ele>40.33333333333333</ele><time>2026-03-28T16:32:17Z</time></trkpt><trkpt lat="39.342515037762674" lon="17.068681669415415"><ele>42.666666666666664</ele><time>2026-03-28T16:32:18Z</time></trkpt><trkpt lat="39.34263321706521" lon="17.06880125016058"><ele>45.0</ele><time>2026-03-28T16:32:19Z</time></trkpt><trkpt lat="39.34272890418081" lon="17.06893007197213"><ele>45.0</ele><time>2026-03-28T16:32:20Z</time></trkpt><trkpt lat="39.3428485596041" lon="17.069047825196613"><ele>45.0</ele><time>2026-03-28T16:32:21Z</time></trkpt><trkpt lat="39.34296100335627" lon="17.06919292310781"><ele>45.0</ele><time>2026-03-28T16:32:22Z</time></trkpt><trkpt lat="39.3430587723403" lon="17.069346390916955"><ele>44.666666666666664</ele><time>2026-03-28T16:32:23Z</time></trkpt><trkpt lat="39.34318857385906" lon="17.069493686452"><ele>44.33333333333333</ele><time>2026-03-28T16:32:24Z</time></trkpt><trkpt lat="39.34331001506411" lon="17.069672659018917"><ele>44.0</ele><time>2026-03-28T16:32:25Z</time></trkpt><trkpt lat="39.343441148498606" lon="17.069831313642684"><ele>40.33333333333333</ele><time>2026-03-28T16:32:26Z</time></trkpt><trkpt lat="39.343579412095195" lon="17.06998096299023"><ele>36.666666666666664</ele><time>2026-03-28T16:32:27Z</time></trkpt><trkpt lat="39.34370645484107" lon="17.07011782292241"><ele>33.0</ele><time>2026-03-28T16:32:28Z</time></trkpt><trkpt lat="39.34383483369598" lon="17.070251604385316"><ele>35.75</ele><time>2026-03-28T16:32:29Z</time></trkpt><trkpt lat="39.34394525773578" lon="17.070389265810764"><ele>38.5</ele><time>2026-03-28T16:32:30Z</time></trkpt><trkpt lat="39.34405247545732" lon="17.070484968795455"><ele>41.25</ele><time>2026-03-28T16:32:31Z</time></trkpt><trkpt lat="39.34415045406131" lon="17.07059212218833"><ele>44.0</ele><time>2026-03-28T16:32:32Z</time></trkpt><trkpt lat="39.34425328449969" lon="17.070694783715727"><ele>41.5</ele><time>2026-03-28T16:32:33Z</time></trkpt><trkpt lat="39.34436261831415" lon="17.07078523181047"><ele>39.0</ele><time>2026-03-28T16:32:34Z</time></trkpt><trkpt lat="39.34448009530456" lon="17.0708535006873"><ele>36.5</ele><time>2026-03-28T16:32:35Z</time></trkpt><trkpt lat="39.34459236143708" lon="17.070890383518062"><ele>34.0</ele><time>2026-03-28T16:32:36Z</time></trkpt><trkpt lat="39.34470931914903" lon="17.070941268120734"><ele>34.75</ele><time>2026-03-28T16:32:37Z</time></trkpt><trkpt lat="39.34483242680222" lon="17.070999196475647"><ele>35.5</ele><time>2026-03-28T16:32:38Z</time></trkpt><trkpt lat="39.34495997637833" lon="17.070992642724374"><ele>36.25</ele><time>2026-03-28T16:32:39Z</time></trkpt><trkpt lat="39.34506773904374" lon="17.071014219086592"><ele>37.0</ele><time>2026-03-28T16:32:40Z</time></trkpt><trkpt lat="39.34516764733528" lon="17.071021754887873"><ele>37.0</ele><time>2026-03-28T16:32:41Z</time></trkpt><trkpt lat="39.345257864795975" lon="17.07101899199414"><ele>37.0</ele><time>2026-03-28T16:32:42Z</time></trkpt><trkpt lat="39.34533996686436" lon="17.071043424906435"><ele>37.0</ele><time>2026-03-28T16:32:43Z</time></trkpt><trkpt lat="39.34541847524693" lon="17.071095406662018"><ele>37.0</ele><time>2026-03-28T16:32:44Z</time></trkpt><trkpt lat="39.34545734735327" lon="17.071188409327387"><ele>37.0</ele><time>2026-03-28T16:32:45Z</time></trkpt><trkpt lat="39.34549047781843" lon="17.071293737269194"><ele>37.0</ele><time>2026-03-28T16:32:46Z</time></trkpt><trkpt lat="39.34552310513841" lon="17.071454999907168"><ele>35.25</ele><time>2026-03-28T16:32:47Z</time></trkpt><trkpt lat="39.34554873340882" lon="17.07162334861936"><ele>33.5</ele><time>2026-03-28T16:32:48Z</time></trkpt><trkpt lat="39.345573483890185" lon="17.071788562529044"><ele>31.75</ele><time>2026-03-28T16:32:49Z</time></trkpt><trkpt lat="39.34560872850626" lon="17.07195971637088"><ele>30.0</ele><time>2026-03-28T16:32:50Z</time></trkpt><trkpt lat="39.34562487587328" lon="17.072100094959993"><ele>30.0</ele><time>2026-03-28T16:32:51Z</time></trkpt><trkpt lat="39.34564788213485" lon="17.072266817190375"><ele>30.0</ele><time>2026-03-28T16:32:52Z</time></trkpt><trkpt lat="39.34568073120616" lon="17.072401630878048"><ele>30.0</ele><time>2026-03-28T16:32:53Z</time></trkpt><trkpt lat="39.34568537011372" lon="17.072535423155067"><ele>30.0</ele><time>2026-03-28T16:32:54Z</time></trkpt><trkpt lat="39.34570338780807" lon="17.072655694479305"><ele>30.0</ele><time>2026-03-28T16:32:55Z</time></trkpt><trkpt lat="39.3457191494592" lon="17.07276090630117"><ele>29.833333333333332</ele><time>2026-03-28T16:32:56Z</time></trkpt><trkpt lat="39.34573380352937" lon="17.072858723767883"><ele>29.666666666666664</ele><time>2026-03-28T16:32:57Z</time></trkpt><trkpt lat="39.34576298003226" lon="17.072959316047953"><ele>29.5</ele><time>2026-03-28T16:32:58Z</time></trkpt><trkpt lat="39.345764726153035" lon="17.073065135543693"><ele>29.333333333333332</ele><time>2026-03-28T16:32:59Z</time></trkpt><trkpt lat="39.34578233913266" lon="17.07318270403965"><ele>29.166666666666664</ele><time>2026-03-28T16:33:00Z</time></trkpt><trkpt lat="39.34583424270196" lon="17.073294522251736"><ele>29.0</ele><time>2026-03-28T16:33:01Z</time></trkpt><trkpt lat="39.34585245004056" lon="17.07342462845925"><ele>28.666666666666664</ele><time>2026-03-28T16:33:02Z</time></trkpt><trkpt lat="39.34586862309925" lon="17.073551274922988"><ele>28.333333333333332</ele><time>2026-03-28T16:33:03Z</time></trkpt><trkpt lat="39.34585697511453" lon="17.073665681583993"><ele>28.0</ele><time>2026-03-28T16:33:04Z</time></trkpt><trkpt lat="39.34587072527426" lon="17.07375595111541"><ele>27.666666666666664</ele><time>2026-03-28T16:33:04.999Z</time></trkpt><trkpt lat="39.345894088005394" lon="17.07385425118448"><ele>27.333333333333332</ele><time>2026-03-28T16:33:05.999Z</time></trkpt><trkpt lat="39.345907931473924" lon="17.07396400536959"><ele>27.0</ele><time>2026-03-28T16:33:06.999Z</time></trkpt><trkpt lat="39.345929812335385" lon="17.074078857046707"><ele>27.0</ele><time>2026-03-28T16:33:07.999Z</time></trkpt><trkpt lat="39.34593845243731" lon="17.074195819634948"><ele>27.0</ele><time>2026-03-28T16:33:08.999Z</time></trkpt><trkpt lat="39.34596589046416" lon="17.074303838153956"><ele>27.0</ele><time>2026-03-28T16:33:09.999Z</time></trkpt><trkpt lat="39.34597911946658" lon="17.074411863531754"><ele>27.0</ele><time>2026-03-28T16:33:10.999Z</time></trkpt><trkpt lat="39.34599603336844" lon="17.0745166921941"><ele>27.0</ele><time>2026-03-28T16:33:11.999Z</time></trkpt><trkpt lat="39.34601766582754" lon="17.074630729275224"><ele>27.0</ele><time>2026-03-28T16:33:12.999Z</time></trkpt><trkpt lat="39.34602876720351" lon="17.07476411176385"><ele>27.0</ele><time>2026-03-28T16:33:13.999Z</time></trkpt><trkpt lat="39.346047714728336" lon="17.074886785972335"><ele>27.000000000000004</ele><time>2026-03-28T16:33:14.999Z</time></trkpt><trkpt lat="39.3460651676754" lon="17.075004895647147"><ele>27.000000000000004</ele><time>2026-03-28T16:33:16Z</time></trkpt><trkpt lat="39.34608268394337" lon="17.075118097152114"><ele>27.0</ele><time>2026-03-28T16:33:17Z</time></trkpt><trkpt lat="39.34610073871708" lon="17.075235555651073"><ele>27.0</ele><time>2026-03-28T16:33:18Z</time></trkpt><trkpt lat="39.34611933463666" lon="17.075350906731206"><ele>27.0</ele><time>2026-03-28T16:33:19Z</time></trkpt><trkpt lat="39.34613879795218" lon="17.075460387078373"><ele>27.0</ele><time>2026-03-28T16:33:20Z</time></trkpt><trkpt lat="39.34615898545076" lon="17.0755632961255"><ele>27.0</ele><time>2026-03-28T16:33:21Z</time></trkpt><trkpt lat="39.34618251241493" lon="17.075661878205455"><ele>27.0</ele><time>2026-03-28T16:33:22Z</time></trkpt><trkpt lat="39.3462005099144" lon="17.075752232322042"><ele>27.0</ele><time>2026-03-28T16:33:23Z</time></trkpt><trkpt lat="39.34623308511594" lon="17.075840922476154"><ele>27.0</ele><time>2026-03-28T16:33:24Z</time></trkpt><trkpt lat="39.346256920587905" lon="17.075938212237894"><ele>26.833333333333332</ele><time>2026-03-28T16:33:25Z</time></trkpt><trkpt lat="39.346275779547334" lon="17.07604033758305"><ele>26.666666666666664</ele><time>2026-03-28T16:33:26Z</time></trkpt><trkpt lat="39.34632171715254" lon="17.076129934440107"><ele>26.5</ele><time>2026-03-28T16:33:27Z</time></trkpt><trkpt lat="39.34638885589418" lon="17.07623884433239"><ele>26.333333333333332</ele><time>2026-03-28T16:33:29Z</time></trkpt><trkpt lat="39.346432387884306" lon="17.076304077977177"><ele>26.166666666666664</ele><time>2026-03-28T16:33:30Z</time></trkpt><trkpt lat="39.34644582108506" lon="17.07641643601361"><ele>26.0</ele><time>2026-03-28T16:33:31Z</time></trkpt><trkpt lat="39.34651432022597" lon="17.0765102267946"><ele>26.4</ele><time>2026-03-28T16:33:32Z</time></trkpt><trkpt lat="39.34657402356149" lon="17.07661618846374"><ele>26.8</ele><time>2026-03-28T16:33:33Z</time></trkpt><trkpt lat="39.34661515502084" lon="17.0767293714826"><ele>27.199999999999996</ele><time>2026-03-28T16:33:34Z</time></trkpt><trkpt lat="39.346673427839384" lon="17.076834807748668"><ele>27.599999999999998</ele><time>2026-03-28T16:33:35Z</time></trkpt><trkpt lat="39.34673562077464" lon="17.076935589500142"><ele>28.0</ele><time>2026-03-28T16:33:36Z</time></trkpt><trkpt lat="39.34679171233477" lon="17.077026276847427"><ele>28.0</ele><time>2026-03-28T16:33:37Z</time></trkpt><trkpt lat="39.34684718400984" lon="17.077122908430052"><ele>27.999999999999996</ele><time>2026-03-28T16:33:38Z</time></trkpt><trkpt lat="39.34690495583172" lon="17.077232316441695"><ele>27.999999999999996</ele><time>2026-03-28T16:33:39Z</time></trkpt><trkpt lat="39.34695804313495" lon="17.07734960258568"><ele>28.0</ele><time>2026-03-28T16:33:40Z</time></trkpt><trkpt lat="39.346999774263566" lon="17.077466094319703"><ele>28.0</ele><time>2026-03-28T16:33:41Z</time></trkpt><trkpt lat="39.34702572467573" lon="17.07757302617786"><ele>28.0</ele><time>2026-03-28T16:33:42Z</time></trkpt><trkpt lat="39.347034907749936" lon="17.07767732990636"><ele>27.999999999999996</ele><time>2026-03-28T16:33:43Z</time></trkpt><trkpt lat="39.34702840368333" lon="17.077813346759356"><ele>27.999999999999996</ele><time>2026-03-28T16:33:44Z</time></trkpt><trkpt lat="39.34700301974203" lon="17.077936778500828"><ele>28.0</ele><time>2026-03-28T16:33:45Z</time></trkpt><trkpt lat="39.34697913725581" lon="17.07808576320742"><ele>28.0</ele><time>2026-03-28T16:33:46Z</time></trkpt><trkpt lat="39.346970331732685" lon="17.078227779175887"><ele>28.0</ele><time>2026-03-28T16:33:47Z</time></trkpt><trkpt lat="39.34697970211218" lon="17.078387619155755"><ele>28.0</ele><time>2026-03-28T16:33:48Z</time></trkpt><trkpt lat="39.34696517031736" lon="17.07852151338283"><ele>28.0</ele><time>2026-03-28T16:33:49Z</time></trkpt><trkpt lat="39.3469651829176" lon="17.078660007528132"><ele>28.0</ele><time>2026-03-28T16:33:50Z</time></trkpt><trkpt lat="39.34695971202159" lon="17.078812951007116"><ele>28.0</ele><time>2026-03-28T16:33:51Z</time></trkpt><trkpt lat="39.34694903526221" lon="17.078972389996874"><ele>27.999999999999996</ele><time>2026-03-28T16:33:52Z</time></trkpt><trkpt lat="39.346933773659956" lon="17.07911349485782"><ele>27.999999999999996</ele><time>2026-03-28T16:33:53Z</time></trkpt><trkpt lat="39.34691758203461" lon="17.07924756119537"><ele>28.0</ele><time>2026-03-28T16:33:54Z</time></trkpt><trkpt lat="39.34690233250639" lon="17.079364584600377"><ele>28.0</ele><time>2026-03-28T16:33:55Z</time></trkpt><trkpt lat="39.34688668637121" lon="17.079484651558584"><ele>27.799999999999997</ele><time>2026-03-28T16:33:56Z</time></trkpt><trkpt lat="39.34687280688322" lon="17.079591161484668"><ele>27.599999999999998</ele><time>2026-03-28T16:33:57Z</time></trkpt><trkpt lat="39.346857431663366" lon="17.079709597606723"><ele>27.400000000000002</ele><time>2026-03-28T16:33:58Z</time></trkpt><trkpt lat="39.346848195658325" lon="17.07986957236673"><ele>27.200000000000003</ele><time>2026-03-28T16:33:59Z</time></trkpt><trkpt lat="39.34682584791598" lon="17.080019402142106"><ele>27.0</ele><time>2026-03-28T16:34:00Z</time></trkpt><trkpt lat="39.34681475138023" lon="17.080170354500545"><ele>27.0</ele><time>2026-03-28T16:34:01Z</time></trkpt><trkpt lat="39.34680076429195" lon="17.080317423454016"><ele>27.0</ele><time>2026-03-28T16:34:02Z</time></trkpt><trkpt lat="39.34680536562472" lon="17.080463404506343"><ele>27.0</ele><time>2026-03-28T16:34:03Z</time></trkpt><trkpt lat="39.346830960554364" lon="17.08061934463971"><ele>27.0</ele><time>2026-03-28T16:34:04Z</time></trkpt><trkpt lat="39.346879089865936" lon="17.08076740335871"><ele>26.400000000000002</ele><time>2026-03-28T16:34:05Z</time></trkpt><trkpt lat="39.34693369715295" lon="17.080891619024985"><ele>25.800000000000004</ele><time>2026-03-28T16:34:06Z</time></trkpt><trkpt lat="39.346990282317904" lon="17.08099843079629"><ele>25.2</ele><time>2026-03-28T16:34:07Z</time></trkpt><trkpt lat="39.347054127357104" lon="17.081110009846007"><ele>24.6</ele><time>2026-03-28T16:34:08Z</time></trkpt><trkpt lat="39.34713038800746" lon="17.081218160459144"><ele>24.0</ele><time>2026-03-28T16:34:09Z</time></trkpt><trkpt lat="39.34719379775708" lon="17.0813393954084"><ele>24.6</ele><time>2026-03-28T16:34:10Z</time></trkpt><trkpt lat="39.347261494749205" lon="17.081449340347643"><ele>25.2</ele><time>2026-03-28T16:34:11Z</time></trkpt><trkpt lat="39.34733164089298" lon="17.081562004464907"><ele>25.800000000000004</ele><time>2026-03-28T16:34:12Z</time></trkpt><trkpt lat="39.34742187889567" lon="17.081672070042078"><ele>26.400000000000002</ele><time>2026-03-28T16:34:13Z</time></trkpt><trkpt lat="39.347465603121314" lon="17.08177445829319"><ele>27.0</ele><time>2026-03-28T16:34:14Z</time></trkpt><trkpt lat="39.34752950775181" lon="17.081875805766437"><ele>27.0</ele><time>2026-03-28T16:34:15Z</time></trkpt><trkpt lat="39.34759736133045" lon="17.08198341644388"><ele>27.000000000000004</ele><time>2026-03-28T16:34:16Z</time></trkpt><trkpt lat="39.347677914762464" lon="17.082080565564528"><ele>27.000000000000004</ele><time>2026-03-28T16:34:17Z</time></trkpt><trkpt lat="39.3477368604531" lon="17.082206914181405"><ele>27.0</ele><time>2026-03-28T16:34:18Z</time></trkpt><trkpt lat="39.347803117702014" lon="17.08231554396904"><ele>27.0</ele><time>2026-03-28T16:34:19Z</time></trkpt><trkpt lat="39.347867480767604" lon="17.082420065503225"><ele>26.400000000000002</ele><time>2026-03-28T16:34:20Z</time></trkpt><trkpt lat="39.34792711647913" lon="17.082515659228257"><ele>25.800000000000004</ele><time>2026-03-28T16:34:21Z</time></trkpt><trkpt lat="39.34798977088239" lon="17.082614268276494"><ele>25.2</ele><time>2026-03-28T16:34:22Z</time></trkpt><trkpt lat="39.34805169121644" lon="17.082708243674467"><ele>24.6</ele><time>2026-03-28T16:34:23Z</time></trkpt><trkpt lat="39.3481074274708" lon="17.082818472739234"><ele>24.0</ele><time>2026-03-28T16:34:24Z</time></trkpt><trkpt lat="39.34818626974917" lon="17.082917989086116"><ele>24.0</ele><time>2026-03-28T16:34:25Z</time></trkpt><trkpt lat="39.34825407181391" lon="17.083034232055343"><ele>24.0</ele><time>2026-03-28T16:34:26Z</time></trkpt><trkpt lat="39.34834014496088" lon="17.08314930435059"><ele>24.0</ele><time>2026-03-28T16:34:27Z</time></trkpt><trkpt lat="39.34842069569769" lon="17.08329025432192"><ele>24.0</ele><time>2026-03-28T16:34:28Z</time></trkpt><trkpt lat="39.34850069599906" lon="17.083417265733406"><ele>23.0</ele><time>2026-03-28T16:34:29Z</time></trkpt><trkpt lat="39.348583700235984" lon="17.083549046059176"><ele>22.0</ele><time>2026-03-28T16:34:30Z</time></trkpt><trkpt lat="39.34867006172368" lon="17.083686156793473"><ele>21.0</ele><time>2026-03-28T16:34:31Z</time></trkpt><trkpt lat="39.34876138367101" lon="17.0838320906774"><ele>20.0</ele><time>2026-03-28T16:34:32Z</time></trkpt><trkpt lat="39.348854758126116" lon="17.083981584521162"><ele>20.5</ele><time>2026-03-28T16:34:33Z</time></trkpt><trkpt lat="39.34894418344106" lon="17.08412475573445"><ele>21.0</ele><time>2026-03-28T16:34:34Z</time></trkpt><trkpt lat="39.34906117300533" lon="17.084223221461976"><ele>21.5</ele><time>2026-03-28T16:34:35Z</time></trkpt><trkpt lat="39.349142594711445" lon="17.084362523855063"><ele>22.0</ele><time>2026-03-28T16:34:36Z</time></trkpt><trkpt lat="39.349230575453824" lon="17.084500196666006"><ele>22.0</ele><time>2026-03-28T16:34:37Z</time></trkpt><trkpt lat="39.34928427436827" lon="17.084670131742726"><ele>22.0</ele><time>2026-03-28T16:34:38Z</time></trkpt><trkpt lat="39.34936688548659" lon="17.084806772131614"><ele>22.0</ele><time>2026-03-28T16:34:39Z</time></trkpt><trkpt lat="39.349448070421325" lon="17.0849426364418"><ele>22.0</ele><time>2026-03-28T16:34:40Z</time></trkpt><trkpt lat="39.349526032392525" lon="17.085080943236616"><ele>21.0</ele><time>2026-03-28T16:34:41Z</time></trkpt><trkpt lat="39.34959367584127" lon="17.085229226373613"><ele>20.0</ele><time>2026-03-28T16:34:42Z</time></trkpt><trkpt lat="39.34964891535823" lon="17.085384707407883"><ele>19.0</ele><time>2026-03-28T16:34:43Z</time></trkpt><trkpt lat="39.34969667085913" lon="17.08554920255935"><ele>18.0</ele><time>2026-03-28T16:34:44Z</time></trkpt><trkpt lat="39.34974149099916" lon="17.08572580524284"><ele>18.25</ele><time>2026-03-28T16:34:45Z</time></trkpt><trkpt lat="39.34978845791419" lon="17.085911827315506"><ele>18.5</ele><time>2026-03-28T16:34:46Z</time></trkpt><trkpt lat="39.34983600687611" lon="17.086092677196053"><ele>18.75</ele><time>2026-03-28T16:34:47Z</time></trkpt><trkpt lat="39.34988143437728" lon="17.08626993146638"><ele>19.0</ele><time>2026-03-28T16:34:48Z</time></trkpt><trkpt lat="39.3499248883588" lon="17.086448730597766"><ele>19.0</ele><time>2026-03-28T16:34:49Z</time></trkpt><trkpt lat="39.34997322588642" lon="17.086631960639217"><ele>19.0</ele><time>2026-03-28T16:34:50Z</time></trkpt><trkpt lat="39.3500322404083" lon="17.086829852902493"><ele>19.0</ele><time>2026-03-28T16:34:51Z</time></trkpt><trkpt lat="39.35010458645216" lon="17.087036081652606"><ele>19.0</ele><time>2026-03-28T16:34:52Z</time></trkpt><trkpt lat="39.35018189732963" lon="17.087240701768692"><ele>19.0</ele><time>2026-03-28T16:34:53Z</time></trkpt><trkpt lat="39.35026055080026" lon="17.087445373994587"><ele>19.0</ele><time>2026-03-28T16:34:54Z</time></trkpt><trkpt lat="39.3503396129951" lon="17.087648110513857"><ele>19.0</ele><time>2026-03-28T16:34:55Z</time></trkpt><trkpt lat="39.350416631448205" lon="17.087844861975412"><ele>19.0</ele><time>2026-03-28T16:34:56Z</time></trkpt><trkpt lat="39.350491671154415" lon="17.088036555158595"><ele>19.0</ele><time>2026-03-28T16:34:57Z</time></trkpt><trkpt lat="39.35056421792445" lon="17.088221880152183"><ele>18.666666666666664</ele><time>2026-03-28T16:34:58Z</time></trkpt><trkpt lat="39.350632726461775" lon="17.088396889238926"><ele>18.333333333333332</ele><time>2026-03-28T16:34:59Z</time></trkpt><trkpt lat="39.350700594515075" lon="17.088570262170666"><ele>18.0</ele><time>2026-03-28T16:35:00Z</time></trkpt><trkpt lat="39.35077397489112" lon="17.08875771661062"><ele>18.0</ele><time>2026-03-28T16:35:01Z</time></trkpt><trkpt lat="39.350845904838" lon="17.088940540653347"><ele>18.0</ele><time>2026-03-28T16:35:02Z</time></trkpt><trkpt lat="39.35091943373297" lon="17.08912676739811"><ele>18.0</ele><time>2026-03-28T16:35:03Z</time></trkpt><trkpt lat="39.35100659172754" lon="17.08930593497858"><ele>17.666666666666668</ele><time>2026-03-28T16:35:04Z</time></trkpt><trkpt lat="39.351077290715054" lon="17.089482650202413"><ele>17.333333333333336</ele><time>2026-03-28T16:35:05Z</time></trkpt><trkpt lat="39.35113515433632" lon="17.089672601118515"><ele>17.0</ele><time>2026-03-28T16:35:06Z</time></trkpt><trkpt lat="39.351205068389376" lon="17.089848525136436"><ele>17.25</ele><time>2026-03-28T16:35:07Z</time></trkpt><trkpt lat="39.35128521144834" lon="17.090015611207495"><ele>17.5</ele><time>2026-03-28T16:35:08Z</time></trkpt><trkpt lat="39.351339360434096" lon="17.09018644043494"><ele>17.75</ele><time>2026-03-28T16:35:09Z</time></trkpt><trkpt lat="39.35140527579719" lon="17.09035230008607"><ele>18.0</ele><time>2026-03-28T16:35:10Z</time></trkpt><trkpt lat="39.35149754893932" lon="17.090506208577235"><ele>18.333333333333332</ele><time>2026-03-28T16:35:11Z</time></trkpt><trkpt lat="39.351565099226534" lon="17.090675481175047"><ele>18.666666666666664</ele><time>2026-03-28T16:35:12Z</time></trkpt><trkpt lat="39.35163408850235" lon="17.09084592720152"><ele>19.0</ele><time>2026-03-28T16:35:13Z</time></trkpt><trkpt lat="39.35169629358519" lon="17.09104278902853"><ele>19.0</ele><time>2026-03-28T16:35:14Z</time></trkpt><trkpt lat="39.35177620490089" lon="17.091224312020465"><ele>19.0</ele><time>2026-03-28T16:35:15Z</time></trkpt><trkpt lat="39.35185405357401" lon="17.091423077992893"><ele>19.0</ele><time>2026-03-28T16:35:16Z</time></trkpt><trkpt lat="39.351938125135085" lon="17.091616638417882"><ele>18.333333333333332</ele><time>2026-03-28T16:35:17Z</time></trkpt><trkpt lat="39.35201291264825" lon="17.09180488455421"><ele>17.666666666666668</ele><time>2026-03-28T16:35:18Z</time></trkpt><trkpt lat="39.352084356508485" lon="17.09198032244085"><ele>17.0</ele><time>2026-03-28T16:35:19Z</time></trkpt><trkpt lat="39.352151686443975" lon="17.092151779824174"><ele>17.0</ele><time>2026-03-28T16:35:20Z</time></trkpt><trkpt lat="39.35223300708323" lon="17.092324656098278"><ele>17.0</ele><time>2026-03-28T16:35:21Z</time></trkpt><trkpt lat="39.35229495214621" lon="17.09251515465775"><ele>17.0</ele><time>2026-03-28T16:35:22Z</time></trkpt><trkpt lat="39.35238677962589" lon="17.09269346316316"><ele>17.0</ele><time>2026-03-28T16:35:23Z</time></trkpt><trkpt lat="39.35246219323151" lon="17.092893221204186"><ele>17.0</ele><time>2026-03-28T16:35:24Z</time></trkpt><trkpt lat="39.3525398934663" lon="17.09308207779041"><ele>17.0</ele><time>2026-03-28T16:35:25Z</time></trkpt><trkpt lat="39.352616693215516" lon="17.09326874572913"><ele>16.333333333333336</ele><time>2026-03-28T16:35:26Z</time></trkpt><trkpt lat="39.352695722322494" lon="17.09346146642145"><ele>15.666666666666668</ele><time>2026-03-28T16:35:27Z</time></trkpt><trkpt lat="39.352775252092535" lon="17.093656041996844"><ele>15.0</ele><time>2026-03-28T16:35:28Z</time></trkpt><trkpt lat="39.35285102609536" lon="17.09384142878579"><ele>15.0</ele><time>2026-03-28T16:35:29Z</time></trkpt><trkpt lat="39.35292891505418" lon="17.094031990055043"><ele>15.0</ele><time>2026-03-28T16:35:30Z</time></trkpt><trkpt lat="39.353013198209844" lon="17.094206656741722"><ele>15.0</ele><time>2026-03-28T16:35:31Z</time></trkpt><trkpt lat="39.35306833386478" lon="17.09437308921945"><ele>15.0</ele><time>2026-03-28T16:35:32Z</time></trkpt><trkpt lat="39.35314822223742" lon="17.094528191319966"><ele>15.0</ele><time>2026-03-28T16:35:33Z</time></trkpt><trkpt lat="39.353208249183275" lon="17.094688429046744"><ele>15.0</ele><time>2026-03-28T16:35:34Z</time></trkpt><trkpt lat="39.35328029371317" lon="17.094824776107444"><ele>15.0</ele><time>2026-03-28T16:35:35Z</time></trkpt><trkpt lat="39.353345800300296" lon="17.094974578186534"><ele>15.0</ele><time>2026-03-28T16:35:36Z</time></trkpt><trkpt lat="39.35343356461019" lon="17.09514955223124"><ele>15.0</ele><time>2026-03-28T16:35:37Z</time></trkpt><trkpt lat="39.35353042256306" lon="17.095335929479923"><ele>15.0</ele><time>2026-03-28T16:35:38Z</time></trkpt><trkpt lat="39.35379171439484" lon="17.095380910124593"><ele>15.0</ele><time>2026-03-28T16:35:39Z</time></trkpt><trkpt lat="39.35395398429215" lon="17.095507247077716"><ele>15.0</ele><time>2026-03-28T16:35:40Z</time></trkpt><trkpt lat="39.35412333207715" lon="17.095626475399428"><ele>15.0</ele><time>2026-03-28T16:35:41Z</time></trkpt><trkpt lat="39.35428461913148" lon="17.095745670218367"><ele>15.0</ele><time>2026-03-28T16:35:42Z</time></trkpt><trkpt lat="39.35444584076775" lon="17.095857792582052"><ele>15.0</ele><time>2026-03-28T16:35:43Z</time></trkpt><trkpt lat="39.354599065972415" lon="17.095959279158464"><ele>15.0</ele><time>2026-03-28T16:35:44Z</time></trkpt><trkpt lat="39.35475017221682" lon="17.096063732754242"><ele>16.333333333333332</ele><time>2026-03-28T16:35:45Z</time></trkpt><trkpt lat="39.35490404561924" lon="17.096169688349594"><ele>17.666666666666664</ele><time>2026-03-28T16:35:46Z</time></trkpt><trkpt lat="39.35505920290213" lon="17.09629493728286"><ele>19.0</ele><time>2026-03-28T16:35:47Z</time></trkpt><trkpt lat="39.35520358777373" lon="17.096423566022153"><ele>19.0</ele><time>2026-03-28T16:35:48Z</time></trkpt><trkpt lat="39.35536220252191" lon="17.096524392877868"><ele>19.0</ele><time>2026-03-28T16:35:49Z</time></trkpt><trkpt lat="39.3554993530964" lon="17.09661656205528"><ele>19.0</ele><time>2026-03-28T16:35:50Z</time></trkpt><trkpt lat="39.35562775910987" lon="17.096713233780147"><ele>20.333333333333332</ele><time>2026-03-28T16:35:51Z</time></trkpt><trkpt lat="39.355754849435876" lon="17.096823153551455"><ele>21.666666666666668</ele><time>2026-03-28T16:35:52Z</time></trkpt><trkpt lat="39.35589272084643" lon="17.096950634813535"><ele>23.0</ele><time>2026-03-28T16:35:53Z</time></trkpt><trkpt lat="39.3560366232797" lon="17.097094423657794"><ele>23.0</ele><time>2026-03-28T16:35:54Z</time></trkpt><trkpt lat="39.356185528698965" lon="17.09725389698743"><ele>23.0</ele><time>2026-03-28T16:35:55Z</time></trkpt><trkpt lat="39.3563095674304" lon="17.09743173945031"><ele>23.0</ele><time>2026-03-28T16:35:56Z</time></trkpt><trkpt lat="39.35643175552024" lon="17.097565141541523"><ele>23.5</ele><time>2026-03-28T16:35:57Z</time></trkpt><trkpt lat="39.356546314435015" lon="17.0976746460555"><ele>24.0</ele><time>2026-03-28T16:35:58Z</time></trkpt><trkpt lat="39.356638812719474" lon="17.097804335396805"><ele>24.5</ele><time>2026-03-28T16:35:59Z</time></trkpt><trkpt lat="39.356742604946135" lon="17.09791289035192"><ele>25.0</ele><time>2026-03-28T16:36:00Z</time></trkpt><trkpt lat="39.356841905082625" lon="17.09803275827075"><ele>25.0</ele><time>2026-03-28T16:36:01Z</time></trkpt><trkpt lat="39.35694957354291" lon="17.098148116883152"><ele>25.0</ele><time>2026-03-28T16:36:02Z</time></trkpt><trkpt lat="39.35703097076617" lon="17.09826581891069"><ele>25.0</ele><time>2026-03-28T16:36:03Z</time></trkpt><trkpt lat="39.35711962319162" lon="17.09837584511375"><ele>25.0</ele><time>2026-03-28T16:36:04Z</time></trkpt><trkpt lat="39.35718138202211" lon="17.098482131382987"><ele>25.75</ele><time>2026-03-28T16:36:05Z</time></trkpt><trkpt lat="39.357232408648116" lon="17.098619010747438"><ele>26.5</ele><time>2026-03-28T16:36:06Z</time></trkpt><trkpt lat="39.35724052864571" lon="17.098763283613625"><ele>27.25</ele><time>2026-03-28T16:36:07Z</time></trkpt><trkpt lat="39.35725338935145" lon="17.09891362332945"><ele>28.0</ele><time>2026-03-28T16:36:08Z</time></trkpt><trkpt lat="39.35726851458887" lon="17.099092229180027"><ele>28.0</ele><time>2026-03-28T16:36:09Z</time></trkpt><trkpt lat="39.357283441385505" lon="17.09928055983723"><ele>28.0</ele><time>2026-03-28T16:36:10Z</time></trkpt><trkpt lat="39.35729717787138" lon="17.099478916822754"><ele>28.0</ele><time>2026-03-28T16:36:11Z</time></trkpt><trkpt lat="39.357320371890204" lon="17.099682676841958"><ele>28.0</ele><time>2026-03-28T16:36:12Z</time></trkpt><trkpt lat="39.357354963717086" lon="17.099887278046086"><ele>28.0</ele><time>2026-03-28T16:36:13Z</time></trkpt><trkpt lat="39.35739586149032" lon="17.100085530872814"><ele>28.0</ele><time>2026-03-28T16:36:14Z</time></trkpt><trkpt lat="39.357445527730526" lon="17.100295803866214"><ele>26.666666666666668</ele><time>2026-03-28T16:36:15Z</time></trkpt><trkpt lat="39.35750070907792" lon="17.100524181023925"><ele>25.333333333333336</ele><time>2026-03-28T16:36:16Z</time></trkpt><trkpt lat="39.3575486456113" lon="17.100766807501415"><ele>24.0</ele><time>2026-03-28T16:36:17Z</time></trkpt><trkpt lat="39.357592346597066" lon="17.101015500359946"><ele>23.333333333333332</ele><time>2026-03-28T16:36:18Z</time></trkpt><trkpt lat="39.35762918649924" lon="17.101247239137226"><ele>22.666666666666664</ele><time>2026-03-28T16:36:19Z</time></trkpt><trkpt lat="39.35766110853233" lon="17.101480167597582"><ele>22.0</ele><time>2026-03-28T16:36:20Z</time></trkpt><trkpt lat="39.357690727312374" lon="17.10168847450333"><ele>22.0</ele><time>2026-03-28T16:36:21Z</time></trkpt><trkpt lat="39.35771995832345" lon="17.1018988288993"><ele>22.0</ele><time>2026-03-28T16:36:22Z</time></trkpt><trkpt lat="39.35775209806793" lon="17.102114055095026"><ele>22.0</ele><time>2026-03-28T16:36:23Z</time></trkpt><trkpt lat="39.35778322929536" lon="17.102323101937223"><ele>21.666666666666664</ele><time>2026-03-28T16:36:24Z</time></trkpt><trkpt lat="39.357806242704584" lon="17.102501684650736"><ele>21.333333333333332</ele><time>2026-03-28T16:36:25Z</time></trkpt><trkpt lat="39.3578345627492" lon="17.10271729267077"><ele>21.0</ele><time>2026-03-28T16:36:26Z</time></trkpt><trkpt lat="39.35786729051713" lon="17.10292715514802"><ele>21.0</ele><time>2026-03-28T16:36:27Z</time></trkpt><trkpt lat="39.35791615987448" lon="17.103149668932897"><ele>21.0</ele><time>2026-03-28T16:36:28Z</time></trkpt><trkpt lat="39.35794328328891" lon="17.10336991220148"><ele>21.0</ele><time>2026-03-28T16:36:29Z</time></trkpt><trkpt lat="39.35794613316975" lon="17.103607241516617"><ele>21.333333333333332</ele><time>2026-03-28T16:36:30Z</time></trkpt><trkpt lat="39.35797255018575" lon="17.103852612476643"><ele>21.666666666666664</ele><time>2026-03-28T16:36:31Z</time></trkpt><trkpt lat="39.35796677991579" lon="17.10407728083204"><ele>22.0</ele><time>2026-03-28T16:36:32Z</time></trkpt><trkpt lat="39.35798902504943" lon="17.104284491778873"><ele>22.0</ele><time>2026-03-28T16:36:33Z</time></trkpt><trkpt lat="39.3580032072064" lon="17.104486871371456"><ele>22.0</ele><time>2026-03-28T16:36:34Z</time></trkpt><trkpt lat="39.35801433080167" lon="17.10469292316938"><ele>22.0</ele><time>2026-03-28T16:36:35Z</time></trkpt><trkpt lat="39.35803481737922" lon="17.104894460424703"><ele>22.666666666666664</ele><time>2026-03-28T16:36:36Z</time></trkpt><trkpt lat="39.35805258900154" lon="17.10509790075121"><ele>23.333333333333332</ele><time>2026-03-28T16:36:37Z</time></trkpt><trkpt lat="39.35806472497921" lon="17.105281749438188"><ele>24.0</ele><time>2026-03-28T16:36:38Z</time></trkpt><trkpt lat="39.358082848817595" lon="17.105479752622536"><ele>24.0</ele><time>2026-03-28T16:36:39Z</time></trkpt><trkpt lat="39.35809642024234" lon="17.105651555422085"><ele>24.0</ele><time>2026-03-28T16:36:40Z</time></trkpt><trkpt lat="39.35812191240197" lon="17.105821257046493"><ele>24.0</ele><time>2026-03-28T16:36:41Z</time></trkpt><trkpt lat="39.35813084765236" lon="17.105990963445652"><ele>24.0</ele><time>2026-03-28T16:36:42Z</time></trkpt><trkpt lat="39.35815442182749" lon="17.106135727613697"><ele>23.666666666666668</ele><time>2026-03-28T16:36:43Z</time></trkpt><trkpt lat="39.35816838141943" lon="17.106327307396267"><ele>23.333333333333336</ele><time>2026-03-28T16:36:44Z</time></trkpt><trkpt lat="39.35824181403752" lon="17.106505830727837"><ele>23.0</ele><time>2026-03-28T16:36:45Z</time></trkpt><trkpt lat="39.35830169373856" lon="17.1067026457298"><ele>23.0</ele><time>2026-03-28T16:36:46Z</time></trkpt><trkpt lat="39.358365443038466" lon="17.10686239969485"><ele>23.0</ele><time>2026-03-28T16:36:47Z</time></trkpt><trkpt lat="39.35843627895826" lon="17.107005914495762"><ele>23.0</ele><time>2026-03-28T16:36:48Z</time></trkpt><trkpt lat="39.35849814730824" lon="17.107156862409397"><ele>23.0</ele><time>2026-03-28T16:36:49Z</time></trkpt><trkpt lat="39.35857091717731" lon="17.107333037545178"><ele>22.0</ele><time>2026-03-28T16:36:50Z</time></trkpt><trkpt lat="39.358618160409186" lon="17.10752116353279"><ele>21.0</ele><time>2026-03-28T16:36:51.001Z</time></trkpt><trkpt lat="39.358666358660024" lon="17.10770244946643"><ele>20.0</ele><time>2026-03-28T16:36:52.001Z</time></trkpt><trkpt lat="39.35871079610935" lon="17.107864828591488"><ele>19.0</ele><time>2026-03-28T16:36:53.001Z</time></trkpt><trkpt lat="39.358770644335685" lon="17.108042829486575"><ele>19.0</ele><time>2026-03-28T16:36:54.001Z</time></trkpt><trkpt lat="39.358827062677115" lon="17.108198191450025"><ele>19.0</ele><time>2026-03-28T16:36:55.001Z</time></trkpt><trkpt lat="39.35887499381182" lon="17.108329467306135"><ele>19.0</ele><time>2026-03-28T16:36:56.001Z</time></trkpt><trkpt lat="39.35892179250437" lon="17.108457641804613"><ele>19.0</ele><time>2026-03-28T16:36:57.001Z</time></trkpt><trkpt lat="39.358961978154056" lon="17.10856770411669"><ele>19.0</ele><time>2026-03-28T16:36:58.001Z</time></trkpt><trkpt lat="39.358998908871705" lon="17.108665805733462"><ele>19.333333333333332</ele><time>2026-03-28T16:36:59.001Z</time></trkpt><trkpt lat="39.3590398933234" lon="17.10876470118577"><ele>19.666666666666664</ele><time>2026-03-28T16:37:00.001Z</time></trkpt><trkpt lat="39.35904445398607" lon="17.108854020098267"><ele>20.0</ele><time>2026-03-28T16:37:01.001Z</time></trkpt><trkpt lat="39.359091708671826" lon="17.108969135998343"><ele>20.333333333333332</ele><time>2026-03-28T16:37:03.001Z</time></trkpt><trkpt lat="39.35914006198054" lon="17.1090274981632"><ele>20.666666666666668</ele><time>2026-03-28T16:37:05.001Z</time></trkpt><trkpt lat="39.359164269620734" lon="17.109124561767352"><ele>21.0</ele><time>2026-03-28T16:37:07.001Z</time></trkpt><trkpt lat="39.359186331229196" lon="17.109205344302467"><ele>21.0</ele><time>2026-03-28T16:37:10.001Z</time></trkpt><trkpt lat="39.35922165786137" lon="17.109305030937037"><ele>21.0</ele><time>2026-03-28T16:37:13.001Z</time></trkpt><trkpt lat="39.35921978042552" lon="17.10941000609292"><ele>21.0</ele><time>2026-03-28T16:37:15.001Z</time></trkpt><trkpt lat="39.35922217651718" lon="17.109523381071046"><ele>21.0</ele><time>2026-03-28T16:37:17.001Z</time></trkpt><trkpt lat="39.35924233848624" lon="17.109659210357563"><ele>21.0</ele><time>2026-03-28T16:37:19.001Z</time></trkpt><trkpt lat="39.359241107379034" lon="17.109816355125123"><ele>21.0</ele><time>2026-03-28T16:37:21.001Z</time></trkpt><trkpt lat="39.35928163066071" lon="17.109887953003597"><ele>21.0</ele><time>2026-03-28T16:37:22.001Z</time></trkpt><trkpt lat="39.35931906325494" lon="17.109971038720175"><ele>21.0</ele><time>2026-03-28T16:37:23.001Z</time></trkpt><trkpt lat="39.35934155178004" lon="17.110066840996115"><ele>21.0</ele><time>2026-03-28T16:37:24.001Z</time></trkpt><trkpt lat="39.35936315661143" lon="17.110164756336427"><ele>21.0</ele><time>2026-03-28T16:37:25.001Z</time></trkpt><trkpt lat="39.35939081443951" lon="17.11031903714357"><ele>21.0</ele><time>2026-03-28T16:37:27.001Z</time></trkpt><trkpt lat="39.35941696724574" lon="17.110453234799497"><ele>21.0</ele><time>2026-03-28T16:37:29.001Z</time></trkpt><trkpt lat="39.35941931979441" lon="17.110537592343594"><ele>21.0</ele><time>2026-03-28T16:37:32.001Z</time></trkpt><trkpt lat="39.359431436298294" lon="17.110626264573778"><ele>21.0</ele><time>2026-03-28T16:37:37.001Z</time></trkpt><trkpt lat="39.35943264342615" lon="17.110721566045957"><ele>21.0</ele><time>2026-03-28T16:37:41.001Z</time></trkpt><trkpt lat="39.35939466583913" lon="17.11083031692764"><ele>21.0</ele><time>2026-03-28T16:37:45.001Z</time></trkpt><trkpt lat="39.35939161527186" lon="17.11092929719302"><ele>21.0</ele><time>2026-03-28T16:37:47.001Z</time></trkpt><trkpt lat="39.359493139055274" lon="17.110977911260832"><ele>21.0</ele><time>2026-03-28T16:37:49.001Z</time></trkpt><trkpt lat="39.359519067243504" lon="17.111082210329243"><ele>21.0</ele><time>2026-03-28T16:37:50.001Z</time></trkpt><trkpt lat="39.35961807203145" lon="17.11116646084847"><ele>21.0</ele><time>2026-03-28T16:37:52.001Z</time></trkpt><trkpt lat="39.35969228400797" lon="17.111219853783737"><ele>21.0</ele><time>2026-03-28T16:37:53.001Z</time></trkpt><trkpt lat="39.35974895841998" lon="17.111277876249662"><ele>21.0</ele><time>2026-03-28T16:37:54.001Z</time></trkpt><trkpt lat="39.35970765673782" lon="17.111433142894096"><ele>21.0</ele><time>2026-03-28T16:37:56.001Z</time></trkpt><trkpt lat="39.359647963655725" lon="17.11150166915128"><ele>21.0</ele><time>2026-03-28T16:37:57.001Z</time></trkpt><trkpt lat="39.359615810912594" lon="17.11159605820909"><ele>21.0</ele><time>2026-03-28T16:37:58.001Z</time></trkpt><trkpt lat="39.359601102076134" lon="17.111681692490166"><ele>21.0</ele><time>2026-03-28T16:37:59.001Z</time></trkpt><trkpt lat="39.35957172203939" lon="17.111802269642446"><ele>21.0</ele><time>2026-03-28T16:38:01.001Z</time></trkpt><trkpt lat="39.35955560433211" lon="17.11189842574617"><ele>21.0</ele><time>2026-03-28T16:38:04.001Z</time></trkpt><trkpt lat="39.35974546922534" lon="17.111999347925877"><ele>20.0</ele><time>2026-03-28T16:38:05.001Z</time></trkpt><trkpt lat="39.35989148533616" lon="17.112036943436937"><ele>19.0</ele><time>2026-03-28T16:38:06.001Z</time></trkpt><trkpt lat="39.360042525917336" lon="17.112070401261565"><ele>18.0</ele><time>2026-03-28T16:38:07.001Z</time></trkpt><trkpt lat="39.36019945114069" lon="17.11211993114258"><ele>18.0</ele><time>2026-03-28T16:38:08.001Z</time></trkpt><trkpt lat="39.36034472631147" lon="17.112177976317117"><ele>18.0</ele><time>2026-03-28T16:38:09.001Z</time></trkpt><trkpt lat="39.36048406252015" lon="17.112242065420077"><ele>18.0</ele><time>2026-03-28T16:38:10.001Z</time></trkpt><trkpt lat="39.36059480606507" lon="17.11228525597308"><ele>18.0</ele><time>2026-03-28T16:38:11.001Z</time></trkpt><trkpt lat="39.36070448376879" lon="17.112340773037406"><ele>18.5</ele><time>2026-03-28T16:38:12.001Z</time></trkpt><trkpt lat="39.36082745144865" lon="17.112371792735335"><ele>19.0</ele><time>2026-03-28T16:38:13.001Z</time></trkpt><trkpt lat="39.360964866746784" lon="17.112414053518428"><ele>19.5</ele><time>2026-03-28T16:38:14.001Z</time></trkpt><trkpt lat="39.361130255512876" lon="17.1124567114277"><ele>20.0</ele><time>2026-03-28T16:38:15.001Z</time></trkpt><trkpt lat="39.36129285049201" lon="17.112508212893708"><ele>19.75</ele><time>2026-03-28T16:38:16.001Z</time></trkpt><trkpt lat="39.36143544012091" lon="17.112557094930107"><ele>19.5</ele><time>2026-03-28T16:38:17.001Z</time></trkpt><trkpt lat="39.36157041795888" lon="17.112599216883975"><ele>19.25</ele><time>2026-03-28T16:38:18.001Z</time></trkpt><trkpt lat="39.361700489836075" lon="17.112647308661725"><ele>19.0</ele><time>2026-03-28T16:38:19.001Z</time></trkpt><trkpt lat="39.361834542211085" lon="17.112685163510395"><ele>19.0</ele><time>2026-03-28T16:38:20.001Z</time></trkpt><trkpt lat="39.3619490061037" lon="17.11272120612475"><ele>19.0</ele><time>2026-03-28T16:38:21.001Z</time></trkpt><trkpt lat="39.36206237374336" lon="17.112742965115167"><ele>19.0</ele><time>2026-03-28T16:38:22.001Z</time></trkpt><trkpt lat="39.36216824773329" lon="17.112774530008718"><ele>19.0</ele><time>2026-03-28T16:38:23.001Z</time></trkpt><trkpt lat="39.36225507446996" lon="17.112809742951782"><ele>19.0</ele><time>2026-03-28T16:38:24.001Z</time></trkpt><trkpt lat="39.36234444273221" lon="17.112859305348632"><ele>19.333333333333332</ele><time>2026-03-28T16:38:25.001Z</time></trkpt><trkpt lat="39.36244443819268" lon="17.1129078180004"><ele>19.666666666666664</ele><time>2026-03-28T16:38:26.001Z</time></trkpt><trkpt lat="39.362535694759174" lon="17.112926823790048"><ele>20.0</ele><time>2026-03-28T16:38:27.001Z</time></trkpt><trkpt lat="39.36261486175999" lon="17.112967850196913"><ele>20.333333333333332</ele><time>2026-03-28T16:38:28.001Z</time></trkpt><trkpt lat="39.362699356477165" lon="17.112986572972662"><ele>20.666666666666668</ele><time>2026-03-28T16:38:29.001Z</time></trkpt><trkpt lat="39.36276709322557" lon="17.113008311136802"><ele>21.0</ele><time>2026-03-28T16:38:30.001Z</time></trkpt><trkpt lat="39.36283110747443" lon="17.113030823792883"><ele>21.0</ele><time>2026-03-28T16:38:31.001Z</time></trkpt><trkpt lat="39.362901993591706" lon="17.11304411595234"><ele>21.0</ele><time>2026-03-28T16:38:32.001Z</time></trkpt><trkpt lat="39.36296689383345" lon="17.113061364304244"><ele>21.0</ele><time>2026-03-28T16:38:33.001Z</time></trkpt><trkpt lat="39.363061802191226" lon="17.113092645897332"><ele>21.0</ele><time>2026-03-28T16:38:35.001Z</time></trkpt><trkpt lat="39.36315629686083" lon="17.11310735583205"><ele>21.0</ele><time>2026-03-28T16:38:37.001Z</time></trkpt><trkpt lat="39.36322775708567" lon="17.113121985265437"><ele>21.0</ele><time>2026-03-28T16:38:38.001Z</time></trkpt><trkpt lat="39.363327573414985" lon="17.11318207974058"><ele>20.6</ele><time>2026-03-28T16:38:39.001Z</time></trkpt><trkpt lat="39.3634292857537" lon="17.113229129787822"><ele>20.200000000000003</ele><time>2026-03-28T16:38:40.001Z</time></trkpt><trkpt lat="39.36353539022587" lon="17.113270996141765"><ele>19.799999999999997</ele><time>2026-03-28T16:38:41.001Z</time></trkpt><trkpt lat="39.36365223749995" lon="17.11333001314328"><ele>19.4</ele><time>2026-03-28T16:38:42.001Z</time></trkpt><trkpt lat="39.36375117288995" lon="17.113368611291953"><ele>19.0</ele><time>2026-03-28T16:38:43.001Z</time></trkpt><trkpt lat="39.363856506192896" lon="17.113390267213344"><ele>19.799999999999997</ele><time>2026-03-28T16:38:44.001Z</time></trkpt><trkpt lat="39.363954437124555" lon="17.113405382838046"><ele>20.599999999999998</ele><time>2026-03-28T16:38:45.001Z</time></trkpt><trkpt lat="39.36405279275345" lon="17.113435801147983"><ele>21.4</ele><time>2026-03-28T16:38:46.001Z</time></trkpt><trkpt lat="39.36415058183106" lon="17.11347129523361"><ele>22.2</ele><time>2026-03-28T16:38:47.001Z</time></trkpt><trkpt lat="39.364237158008955" lon="17.113502613257875"><ele>23.0</ele><time>2026-03-28T16:38:48.001Z</time></trkpt><trkpt lat="39.36433871771511" lon="17.1135317963173"><ele>23.0</ele><time>2026-03-28T16:38:49.001Z</time></trkpt><trkpt lat="39.36444572654278" lon="17.113587818646852"><ele>23.0</ele><time>2026-03-28T16:38:50.001Z</time></trkpt><trkpt lat="39.36455277625427" lon="17.113620602014368"><ele>23.0</ele><time>2026-03-28T16:38:51.001Z</time></trkpt><trkpt lat="39.364664910043885" lon="17.113672557177573"><ele>23.0</ele><time>2026-03-28T16:38:52.001Z</time></trkpt><trkpt lat="39.36478102928825" lon="17.11374046823847"><ele>24.0</ele><time>2026-03-28T16:38:53.001Z</time></trkpt><trkpt lat="39.36490250289598" lon="17.11380440365636"><ele>25.0</ele><time>2026-03-28T16:38:54.001Z</time></trkpt><trkpt lat="39.36501881788776" lon="17.113856617335422"><ele>26.0</ele><time>2026-03-28T16:38:55.001Z</time></trkpt><trkpt lat="39.36513255828759" lon="17.113912025887704"><ele>27.0</ele><time>2026-03-28T16:38:56.001Z</time></trkpt><trkpt lat="39.36525029128128" lon="17.113973389514623"><ele>27.0</ele><time>2026-03-28T16:38:57.001Z</time></trkpt><trkpt lat="39.36538099319992" lon="17.1140310507285"><ele>27.0</ele><time>2026-03-28T16:38:58.001Z</time></trkpt><trkpt lat="39.36550338177878" lon="17.114084133540672"><ele>27.0</ele><time>2026-03-28T16:38:59.001Z</time></trkpt><trkpt lat="39.36559423150169" lon="17.114149697533957"><ele>27.0</ele><time>2026-03-28T16:39:00.001Z</time></trkpt><trkpt lat="39.36569166538634" lon="17.114199159893968"><ele>26.200000000000003</ele><time>2026-03-28T16:39:01.001Z</time></trkpt><trkpt lat="39.36581552201873" lon="17.114262301247155"><ele>25.400000000000002</ele><time>2026-03-28T16:39:02.001Z</time></trkpt><trkpt lat="39.36592676341485" lon="17.114319052136025"><ele>24.6</ele><time>2026-03-28T16:39:03.001Z</time></trkpt><trkpt lat="39.36602032238007" lon="17.114366782158612"><ele>23.799999999999997</ele><time>2026-03-28T16:39:04.001Z</time></trkpt><trkpt lat="39.366097894585856" lon="17.114404617256465"><ele>23.0</ele><time>2026-03-28T16:39:05.001Z</time></trkpt><trkpt lat="39.366186965645745" lon="17.114447195040626"><ele>23.0</ele><time>2026-03-28T16:39:06.001Z</time></trkpt><trkpt lat="39.366261620698694" lon="17.11446357434505"><ele>23.0</ele><time>2026-03-28T16:39:07.001Z</time></trkpt><trkpt lat="39.366339882616096" lon="17.11449876522974"><ele>23.0</ele><time>2026-03-28T16:39:08.001Z</time></trkpt><trkpt lat="39.366406549554355" lon="17.11454884896192"><ele>23.0</ele><time>2026-03-28T16:39:09.001Z</time></trkpt><trkpt lat="39.366490520113004" lon="17.114599707603656"><ele>23.0</ele><time>2026-03-28T16:39:10.001Z</time></trkpt><trkpt lat="39.36656620050773" lon="17.114628901984236"><ele>23.0</ele><time>2026-03-28T16:39:11.001Z</time></trkpt><trkpt lat="39.36663399717269" lon="17.114681192909092"><ele>22.799999999999997</ele><time>2026-03-28T16:39:12.001Z</time></trkpt><trkpt lat="39.36671079631163" lon="17.11473236850037"><ele>22.6</ele><time>2026-03-28T16:39:13.001Z</time></trkpt><trkpt lat="39.366834422088886" lon="17.114790961009977"><ele>22.4</ele><time>2026-03-28T16:39:15.001Z</time></trkpt><trkpt lat="39.36694600063619" lon="17.114812713162568"><ele>22.200000000000003</ele><time>2026-03-28T16:39:17.001Z</time></trkpt><trkpt lat="39.36702273059227" lon="17.11483335876888"><ele>22.0</ele><time>2026-03-28T16:39:19.001Z</time></trkpt><trkpt lat="39.36712456194851" lon="17.114863731936477"><ele>22.0</ele><time>2026-03-28T16:39:21.001Z</time></trkpt><trkpt lat="39.36720333772654" lon="17.11489081111615"><ele>22.0</ele><time>2026-03-28T16:39:23.001Z</time></trkpt><trkpt lat="39.36726985025476" lon="17.114916272696373"><ele>22.0</ele><time>2026-03-28T16:39:36.001Z</time></trkpt><trkpt lat="39.367342443241846" lon="17.114952450814158"><ele>22.0</ele><time>2026-03-28T16:39:43.001Z</time></trkpt><trkpt lat="39.367410963983055" lon="17.114999463803738"><ele>22.0</ele><time>2026-03-28T16:39:46.001Z</time></trkpt><trkpt lat="39.36746967764093" lon="17.115050953572556"><ele>22.0</ele><time>2026-03-28T16:39:50.001Z</time></trkpt><trkpt lat="39.36750959962335" lon="17.115129744588803"><ele>22.0</ele><time>2026-03-28T16:39:56.001Z</time></trkpt><trkpt lat="39.36734047567573" lon="17.11521303926983"><ele>22.0</ele><time>2026-03-28T16:40:00.001Z</time></trkpt><trkpt lat="39.36729193857788" lon="17.1152684360788"><ele>22.0</ele><time>2026-03-28T16:40:01.001Z</time></trkpt><trkpt lat="39.36720782238426" lon="17.115373875242575"><ele>22.0</ele><time>2026-03-28T16:40:03.001Z</time></trkpt><trkpt lat="39.36712671898056" lon="17.115485776995282"><ele>21.5</ele><time>2026-03-28T16:40:05.001Z</time></trkpt><trkpt lat="39.36703722435053" lon="17.115607018916187"><ele>21.0</ele><time>2026-03-28T16:40:07.001Z</time></trkpt><trkpt lat="39.36693949630376" lon="17.11572019293147"><ele>20.5</ele><time>2026-03-28T16:40:09.001Z</time></trkpt><trkpt lat="39.3668633666008" lon="17.115826092395984"><ele>20.0</ele><time>2026-03-28T16:40:11.001Z</time></trkpt><trkpt lat="39.36678257554937" lon="17.11595396628044"><ele>19.333333333333336</ele><time>2026-03-28T16:40:13.001Z</time></trkpt><trkpt lat="39.36671553851302" lon="17.11609950681424"><ele>18.666666666666668</ele><time>2026-03-28T16:40:15.001Z</time></trkpt><trkpt lat="39.36668026717407" lon="17.11616855080239"><ele>18.0</ele><time>2026-03-28T16:40:16.001Z</time></trkpt><trkpt lat="39.36664375082949" lon="17.116245934668722"><ele>17.333333333333332</ele><time>2026-03-28T16:40:17.001Z</time></trkpt><trkpt lat="39.366624886733796" lon="17.116363774052967"><ele>16.666666666666664</ele><time>2026-03-28T16:40:18.001Z</time></trkpt><trkpt lat="39.36661625104169" lon="17.116465426189347"><ele>16.0</ele><time>2026-03-28T16:40:19.001Z</time></trkpt><trkpt lat="39.36665603521072" lon="17.11665275249097"><ele>15.600000000000001</ele><time>2026-03-28T16:40:21.001Z</time></trkpt><trkpt lat="39.36669596343639" lon="17.11672611254165"><ele>15.200000000000001</ele><time>2026-03-28T16:40:22.001Z</time></trkpt><trkpt lat="39.36673857992625" lon="17.116874973190672"><ele>14.799999999999999</ele><time>2026-03-28T16:40:24.001Z</time></trkpt><trkpt lat="39.36677841686984" lon="17.117014369541046"><ele>14.399999999999999</ele><time>2026-03-28T16:40:26.001Z</time></trkpt><trkpt lat="39.36682055764622" lon="17.117167440718593"><ele>14.0</ele><time>2026-03-28T16:40:28.001Z</time></trkpt><trkpt lat="39.36685297018342" lon="17.117250945620576"><ele>14.000000000000002</ele><time>2026-03-28T16:40:29.001Z</time></trkpt><trkpt lat="39.36688743996948" lon="17.11734320255793"><ele>14.0</ele><time>2026-03-28T16:40:30.001Z</time></trkpt><trkpt lat="39.36690879374298" lon="17.117457097957992"><ele>14.0</ele><time>2026-03-28T16:40:31.001Z</time></trkpt><trkpt lat="39.36693341367567" lon="17.11757262816723"><ele>14.0</ele><time>2026-03-28T16:40:32.001Z</time></trkpt><trkpt lat="39.3669530364933" lon="17.117677617385823"><ele>14.000000000000002</ele><time>2026-03-28T16:40:33.001Z</time></trkpt><trkpt lat="39.366966521379666" lon="17.117771598463488"><ele>14.0</ele><time>2026-03-28T16:40:34.001Z</time></trkpt><trkpt lat="39.36697814191548" lon="17.11785489586105"><ele>13.833333333333334</ele><time>2026-03-28T16:40:35.001Z</time></trkpt><trkpt lat="39.366990093780196" lon="17.117940568352104"><ele>13.666666666666668</ele><time>2026-03-28T16:40:36.001Z</time></trkpt><trkpt lat="39.36700289772445" lon="17.118032348566874"><ele>13.5</ele><time>2026-03-28T16:40:37.001Z</time></trkpt><trkpt lat="39.367017024905785" lon="17.118132366115507"><ele>13.333333333333332</ele><time>2026-03-28T16:40:38.001Z</time></trkpt><trkpt lat="39.36703357747386" lon="17.118243408199476"><ele>13.166666666666666</ele><time>2026-03-28T16:40:39.001Z</time></trkpt><trkpt lat="39.367049428844005" lon="17.118349746191676"><ele>13.0</ele><time>2026-03-28T16:40:40.001Z</time></trkpt><trkpt lat="39.36706486472536" lon="17.118453296959885"><ele>12.333333333333332</ele><time>2026-03-28T16:40:41.001Z</time></trkpt><trkpt lat="39.36707980577756" lon="17.118553528218335"><ele>11.666666666666666</ele><time>2026-03-28T16:40:42.001Z</time></trkpt><trkpt lat="39.367095023781886" lon="17.118655617401814"><ele>11.0</ele><time>2026-03-28T16:40:43.001Z</time></trkpt><trkpt lat="39.367111011158414" lon="17.11876286784674"><ele>10.333333333333332</ele><time>2026-03-28T16:40:44.001Z</time></trkpt><trkpt lat="39.367127547920916" lon="17.11887380546089"><ele>9.666666666666666</ele><time>2026-03-28T16:40:45.001Z</time></trkpt><trkpt lat="39.36714214212993" lon="17.118973525824792"><ele>9.0</ele><time>2026-03-28T16:40:46.001Z</time></trkpt><trkpt lat="39.36715413730423" lon="17.119054983310043"><ele>8.8</ele><time>2026-03-28T16:40:47.001Z</time></trkpt><trkpt lat="39.3671755177372" lon="17.11920017502771"><ele>8.600000000000001</ele><time>2026-03-28T16:40:49.001Z</time></trkpt><trkpt lat="39.36719399936414" lon="17.119325681350052"><ele>8.4</ele><time>2026-03-28T16:40:51.001Z</time></trkpt><trkpt lat="39.367214614319366" lon="17.11946567639156"><ele>8.200000000000001</ele><time>2026-03-28T16:40:53.001Z</time></trkpt><trkpt lat="39.367243181509366" lon="17.119616511010758"><ele>8.0</ele><time>2026-03-28T16:40:55.001Z</time></trkpt><trkpt lat="39.367259332033086" lon="17.119697432387866"><ele>8.4</ele><time>2026-03-28T16:40:56.001Z</time></trkpt><trkpt lat="39.367265112339375" lon="17.11984677035811"><ele>8.8</ele><time>2026-03-28T16:40:58.001Z</time></trkpt><trkpt lat="39.3672877312364" lon="17.120011706087553"><ele>9.2</ele><time>2026-03-28T16:41:00.001Z</time></trkpt><trkpt lat="39.367297455169044" lon="17.120098675520413"><ele>9.6</ele><time>2026-03-28T16:41:01.001Z</time></trkpt><trkpt lat="39.367309801711734" lon="17.120193399205892"><ele>10.0</ele><time>2026-03-28T16:41:02.001Z</time></trkpt><trkpt lat="39.367322963451684" lon="17.120295983777492"><ele>10.0</ele><time>2026-03-28T16:41:03.001Z</time></trkpt><trkpt lat="39.367337092013635" lon="17.120406104698155"><ele>10.0</ele><time>2026-03-28T16:41:04.001Z</time></trkpt><trkpt lat="39.367352294724164" lon="17.120520901984268"><ele>10.0</ele><time>2026-03-28T16:41:05.001Z</time></trkpt><trkpt lat="39.367367132218945" lon="17.120627215915345"><ele>10.0</ele><time>2026-03-28T16:41:06.001Z</time></trkpt><trkpt lat="39.36738030340704" lon="17.12071859640904"><ele>10.0</ele><time>2026-03-28T16:41:07.001Z</time></trkpt><trkpt lat="39.367401697601146" lon="17.120867029688835"><ele>10.0</ele><time>2026-03-28T16:41:09.001Z</time></trkpt><trkpt lat="39.3674261824081" lon="17.121024641542483"><ele>9.8</ele><time>2026-03-28T16:41:11.001Z</time></trkpt><trkpt lat="39.367446351413555" lon="17.12116243791307"><ele>9.6</ele><time>2026-03-28T16:41:13.001Z</time></trkpt><trkpt lat="39.36746426910119" lon="17.121285050298972"><ele>9.4</ele><time>2026-03-28T16:41:15.001Z</time></trkpt><trkpt lat="39.36748237094218" lon="17.121410525580075"><ele>9.2</ele><time>2026-03-28T16:41:17.001Z</time></trkpt><trkpt lat="39.3674994024449" lon="17.121528251761433"><ele>9.0</ele><time>2026-03-28T16:41:19.001Z</time></trkpt><trkpt lat="39.367515210073094" lon="17.121631830597092"><ele>9.0</ele><time>2026-03-28T16:41:21.001Z</time></trkpt><trkpt lat="39.3675330772418" lon="17.12175089066295"><ele>9.0</ele><time>2026-03-28T16:41:23.001Z</time></trkpt><trkpt lat="39.36754655726607" lon="17.121842670189682"><ele>9.0</ele><time>2026-03-28T16:41:25.001Z</time></trkpt><trkpt lat="39.36756371416481" lon="17.12195200042947"><ele>9.0</ele><time>2026-03-28T16:41:28.001Z</time></trkpt><trkpt lat="39.36757710678903" lon="17.122036308063123"><ele>9.0</ele><time>2026-03-28T16:41:30.001Z</time></trkpt><trkpt lat="39.36759036642458" lon="17.12211977863647"><ele>9.0</ele><time>2026-03-28T16:41:32.001Z</time></trkpt><trkpt lat="39.36760439196446" lon="17.12220807224004"><ele>9.0</ele><time>2026-03-28T16:41:34.001Z</time></trkpt><trkpt lat="39.367616916299326" lon="17.12230200220887"><ele>9.0</ele><time>2026-03-28T16:41:36.001Z</time></trkpt><trkpt lat="39.36763138945345" lon="17.122405637183693"><ele>9.0</ele><time>2026-03-28T16:41:38.001Z</time></trkpt><trkpt lat="39.367644458523166" lon="17.12249628714676"><ele>9.0</ele><time>2026-03-28T16:41:40.001Z</time></trkpt><trkpt lat="39.36765717103568" lon="17.122587038935073"><ele>9.0</ele><time>2026-03-28T16:41:42.001Z</time></trkpt><trkpt lat="39.36767360942797" lon="17.122703882799783"><ele>9.0</ele><time>2026-03-28T16:41:44.001Z</time></trkpt><trkpt lat="39.36768531853381" lon="17.12278688260451"><ele>9.166666666666666</ele><time>2026-03-28T16:41:46.001Z</time></trkpt><trkpt lat="39.367696769028946" lon="17.12286804950572"><ele>9.333333333333334</ele><time>2026-03-28T16:41:48.001Z</time></trkpt><trkpt lat="39.367710234721905" lon="17.122965079593403"><ele>9.5</ele><time>2026-03-28T16:41:51.001Z</time></trkpt><trkpt lat="39.36772516838685" lon="17.123072543294377"><ele>9.666666666666668</ele><time>2026-03-28T16:41:54.001Z</time></trkpt><trkpt lat="39.367741939337115" lon="17.12319322819021"><ele>9.833333333333334</ele><time>2026-03-28T16:41:57.001Z</time></trkpt><trkpt lat="39.36775759437295" lon="17.12330588282981"><ele>10.0</ele><time>2026-03-28T16:42:00.001Z</time></trkpt><trkpt lat="39.36777088360919" lon="17.123401513060795"><ele>10.0</ele><time>2026-03-28T16:42:03.001Z</time></trkpt><trkpt lat="39.367783811365214" lon="17.12349454206746"><ele>10.0</ele><time>2026-03-28T16:42:06.001Z</time></trkpt><trkpt lat="39.36780129989414" lon="17.12361680476855"><ele>10.0</ele><time>2026-03-28T16:42:09.001Z</time></trkpt><trkpt lat="39.36781472014723" lon="17.123710607578207"><ele>10.0</ele><time>2026-03-28T16:42:11.001Z</time></trkpt><trkpt lat="39.36782666632013" lon="17.12379579392485"><ele>10.0</ele><time>2026-03-28T16:42:13.001Z</time></trkpt><trkpt lat="39.367841986709436" lon="17.1239050415975"><ele>10.0</ele><time>2026-03-28T16:42:16.001Z</time></trkpt><trkpt lat="39.36786751644727" lon="17.12408977047634"><ele>9.666666666666668</ele><time>2026-03-28T16:42:18.001Z</time></trkpt><trkpt lat="39.36788138163795" lon="17.124191229722854"><ele>9.333333333333334</ele><time>2026-03-28T16:42:19.001Z</time></trkpt><trkpt lat="39.367898356753834" lon="17.124312427385508"><ele>9.0</ele><time>2026-03-28T16:42:21.001Z</time></trkpt><trkpt lat="39.367911087707" lon="17.12440126637625"><ele>8.666666666666666</ele><time>2026-03-28T16:42:23.001Z</time></trkpt><trkpt lat="39.36792382347188" lon="17.124490139082383"><ele>8.333333333333332</ele><time>2026-03-28T16:42:25.001Z</time></trkpt><trkpt lat="39.36793536791908" lon="17.124571836458706"><ele>8.0</ele><time>2026-03-28T16:42:27.001Z</time></trkpt><trkpt lat="39.36794845661478" lon="17.124665463505067"><ele>7.999999999999999</ele><time>2026-03-28T16:42:29.001Z</time></trkpt><trkpt lat="39.36796164400364" lon="17.124759796530466"><ele>8.0</ele><time>2026-03-28T16:42:31.001Z</time></trkpt><trkpt lat="39.36797366166219" lon="17.124845762256516"><ele>8.0</ele><time>2026-03-28T16:42:38.001Z</time></trkpt><trkpt lat="39.36798762947159" lon="17.124945677833757"><ele>8.0</ele><time>2026-03-28T16:42:49.001Z</time></trkpt><trkpt lat="39.36800420770792" lon="17.125064266578928"><ele>7.999999999999999</ele><time>2026-03-28T16:42:51.001Z</time></trkpt><trkpt lat="39.36801817160437" lon="17.12516415493886"><ele>8.0</ele><time>2026-03-28T16:42:52.001Z</time></trkpt><trkpt lat="39.36803383519778" lon="17.12527410561887"><ele>8.4</ele><time>2026-03-28T16:42:53.001Z</time></trkpt><trkpt lat="39.36804982126786" lon="17.125386686815286"><ele>8.8</ele><time>2026-03-28T16:42:54.001Z</time></trkpt><trkpt lat="39.36806621613882" lon="17.125505771877403"><ele>9.2</ele><time>2026-03-28T16:42:55.001Z</time></trkpt><trkpt lat="39.368083470835664" lon="17.12563176706619"><ele>9.6</ele><time>2026-03-28T16:42:56.001Z</time></trkpt><trkpt lat="39.36810127809923" lon="17.125756449488115"><ele>10.0</ele><time>2026-03-28T16:42:57.001Z</time></trkpt><trkpt lat="39.36811787098116" lon="17.125873975530816"><ele>10.0</ele><time>2026-03-28T16:42:58.001Z</time></trkpt><trkpt lat="39.36813181665544" lon="17.125974311614733"><ele>10.0</ele><time>2026-03-28T16:42:59.001Z</time></trkpt><trkpt lat="39.36814396273873" lon="17.126061666612635"><ele>10.0</ele><time>2026-03-28T16:43:00.001Z</time></trkpt><trkpt lat="39.36816465527668" lon="17.12620740417252"><ele>10.0</ele><time>2026-03-28T16:43:02.001Z</time></trkpt><trkpt lat="39.36818116940023" lon="17.126323766511078"><ele>10.0</ele><time>2026-03-28T16:43:04.001Z</time></trkpt><trkpt lat="39.36819500607531" lon="17.126421265406762"><ele>10.0</ele><time>2026-03-28T16:43:07.001Z</time></trkpt><trkpt lat="39.36820759693192" lon="17.126513658092886"><ele>9.833333333333334</ele><time>2026-03-28T16:43:11.001Z</time></trkpt><trkpt lat="39.36822042136693" lon="17.12660593336006"><ele>9.666666666666668</ele><time>2026-03-28T16:43:13.001Z</time></trkpt><trkpt lat="39.368236301960884" lon="17.12671779449373"><ele>9.5</ele><time>2026-03-28T16:43:15.001Z</time></trkpt><trkpt lat="39.368251311654966" lon="17.12682400944195"><ele>9.333333333333334</ele><time>2026-03-28T16:43:17.001Z</time></trkpt><trkpt lat="39.368266926459405" lon="17.126934180329624"><ele>9.166666666666666</ele><time>2026-03-28T16:43:19.001Z</time></trkpt><trkpt lat="39.36828230552001" lon="17.12704269043103"><ele>9.0</ele><time>2026-03-28T16:43:21.001Z</time></trkpt><trkpt lat="39.36829963779478" lon="17.127164981833726"><ele>9.0</ele><time>2026-03-28T16:43:23.001Z</time></trkpt><trkpt lat="39.368345976073506" lon="17.127331076797535"><ele>9.0</ele><time>2026-03-28T16:43:25.001Z</time></trkpt><trkpt lat="39.36835953055452" lon="17.127416098918463"><ele>9.0</ele><time>2026-03-28T16:43:26.001Z</time></trkpt><trkpt lat="39.36835417506179" lon="17.127557382565847"><ele>9.0</ele><time>2026-03-28T16:43:28.001Z</time></trkpt><trkpt lat="39.368369422548746" lon="17.12766622556606"><ele>9.0</ele><time>2026-03-28T16:43:30.001Z</time></trkpt><trkpt lat="39.368384469399885" lon="17.127773638629762"><ele>9.0</ele><time>2026-03-28T16:43:32.001Z</time></trkpt><trkpt lat="39.368396819292876" lon="17.127861800027656"><ele>9.0</ele><time>2026-03-28T16:43:34.001Z</time></trkpt><trkpt lat="39.3684093278517" lon="17.127951094080565"><ele>9.0</ele><time>2026-03-28T16:43:37.001Z</time></trkpt><trkpt lat="39.368422233977626" lon="17.12804322621812"><ele>9.0</ele><time>2026-03-28T16:43:41.001Z</time></trkpt><trkpt lat="39.36846273600607" lon="17.128109641733342"><ele>9.0</ele><time>2026-03-28T16:43:43.001Z</time></trkpt><trkpt lat="39.36844637182295" lon="17.128214249245122"><ele>9.0</ele><time>2026-03-28T16:43:45.001Z</time></trkpt><trkpt lat="39.368466150390205" lon="17.128355910143537"><ele>8.6</ele><time>2026-03-28T16:43:47.001Z</time></trkpt><trkpt lat="39.36847807400237" lon="17.128442652899835"><ele>8.2</ele><time>2026-03-28T16:43:48.001Z</time></trkpt><trkpt lat="39.36849930245982" lon="17.12859797069131"><ele>7.799999999999999</ele><time>2026-03-28T16:43:50.001Z</time></trkpt><trkpt lat="39.36852048619294" lon="17.128751145237906"><ele>7.3999999999999995</ele><time>2026-03-28T16:43:52Z</time></trkpt><trkpt lat="39.368539903980114" lon="17.128892874534074"><ele>7.0</ele><time>2026-03-28T16:43:54Z</time></trkpt><trkpt lat="39.36858576895621" lon="17.129041508034415"><ele>7.199999999999999</ele><time>2026-03-28T16:43:56Z</time></trkpt><trkpt lat="39.36860499889917" lon="17.129178443670853"><ele>7.3999999999999995</ele><time>2026-03-28T16:43:58Z</time></trkpt><trkpt lat="39.368623200706075" lon="17.12930676118621"><ele>7.6000000000000005</ele><time>2026-03-28T16:44:00Z</time></trkpt><trkpt lat="39.36864105709865" lon="17.12943264460517"><ele>7.800000000000001</ele><time>2026-03-28T16:44:02Z</time></trkpt><trkpt lat="39.368659085013654" lon="17.129559739961525"><ele>8.0</ele><time>2026-03-28T16:44:04Z</time></trkpt><trkpt lat="39.3686755434061" lon="17.12968430153123"><ele>7.999999999999999</ele><time>2026-03-28T16:44:06Z</time></trkpt><trkpt lat="39.36869147149342" lon="17.129799691665042"><ele>8.0</ele><time>2026-03-28T16:44:08Z</time></trkpt><trkpt lat="39.368706432704734" lon="17.129908183369555"><ele>8.0</ele><time>2026-03-28T16:44:10Z</time></trkpt><trkpt lat="39.36871967122705" lon="17.130004185621484"><ele>8.0</ele><time>2026-03-28T16:44:12Z</time></trkpt><trkpt lat="39.36873360810946" lon="17.13010194874652"><ele>7.999999999999999</ele><time>2026-03-28T16:44:14Z</time></trkpt><trkpt lat="39.36874916477427" lon="17.13021295358186"><ele>8.0</ele><time>2026-03-28T16:44:16Z</time></trkpt><trkpt lat="39.36876341689749" lon="17.13032011217361"><ele>7.666666666666666</ele><time>2026-03-28T16:44:19Z</time></trkpt><trkpt lat="39.36877670070937" lon="17.130415880095583"><ele>7.333333333333333</ele><time>2026-03-28T16:44:21Z</time></trkpt><trkpt lat="39.36879116923547" lon="17.13051961819516"><ele>7.0</ele><time>2026-03-28T16:44:23Z</time></trkpt><trkpt lat="39.368804778056806" lon="17.130617192862548"><ele>6.666666666666666</ele><time>2026-03-28T16:44:25Z</time></trkpt><trkpt lat="39.36881709829178" lon="17.13070659096481"><ele>6.333333333333333</ele><time>2026-03-28T16:44:27Z</time></trkpt><trkpt lat="39.36883383381462" lon="17.130827819137142"><ele>6.0</ele><time>2026-03-28T16:44:30Z</time></trkpt><trkpt lat="39.36884715534108" lon="17.130924317834754"><ele>6.0</ele><time>2026-03-28T16:44:32Z</time></trkpt><trkpt lat="39.36886728024271" lon="17.131062334037804"><ele>6.0</ele><time>2026-03-28T16:44:34Z</time></trkpt><trkpt lat="39.36887912601666" lon="17.131145914783218"><ele>6.0</ele><time>2026-03-28T16:44:35Z</time></trkpt><trkpt lat="39.368899076764855" lon="17.131291371733578"><ele>6.0</ele><time>2026-03-28T16:44:37Z</time></trkpt><trkpt lat="39.368917964841515" lon="17.131426973118284"><ele>6.0</ele><time>2026-03-28T16:44:39Z</time></trkpt><trkpt lat="39.368937292011985" lon="17.131562273348624"><ele>6.0</ele><time>2026-03-28T16:44:41Z</time></trkpt><trkpt lat="39.368953149732896" lon="17.131673040707014"><ele>6.0</ele><time>2026-03-28T16:44:43Z</time></trkpt><trkpt lat="39.368966397052695" lon="17.131768677321595"><ele>6.0</ele><time>2026-03-28T16:44:45Z</time></trkpt><trkpt lat="39.368979167916244" lon="17.13185516118404"><ele>6.0</ele><time>2026-03-28T16:44:47Z</time></trkpt><trkpt lat="39.368997216122025" lon="17.131977385460278"><ele>6.0</ele><time>2026-03-28T16:44:50Z</time></trkpt><trkpt lat="39.36901171734667" lon="17.13208112472951"><ele>6.0</ele><time>2026-03-28T16:44:52Z</time></trkpt><trkpt lat="39.36902838304509" lon="17.132197916151615"><ele>6.0</ele><time>2026-03-28T16:44:54Z</time></trkpt><trkpt lat="39.36904166863722" lon="17.132293970057162"><ele>6.0</ele><time>2026-03-28T16:44:56Z</time></trkpt><trkpt lat="39.369052287749376" lon="17.132394782887857"><ele>6.0</ele><time>2026-03-28T16:44:59Z</time></trkpt><trkpt lat="39.3690711693269" lon="17.132481469496252"><ele>6.0</ele><time>2026-03-28T16:45:02Z</time></trkpt><trkpt lat="39.36909511422753" lon="17.132558605570242"><ele>6.0</ele><time>2026-03-28T16:45:10Z</time></trkpt><trkpt lat="39.36909096471164" lon="17.1326503783957"><ele>6.0</ele><time>2026-03-28T16:45:18Z</time></trkpt><trkpt lat="39.36921005692654" lon="17.132672685735592"><ele>6.333333333333333</ele><time>2026-03-28T16:45:21Z</time></trkpt><trkpt lat="39.3692776230702" lon="17.132707242200066"><ele>6.666666666666666</ele><time>2026-03-28T16:45:24Z</time></trkpt><trkpt lat="39.369348991821134" lon="17.132778714725443"><ele>7.0</ele><time>2026-03-28T16:45:26Z</time></trkpt><trkpt lat="39.36933814212464" lon="17.13287863368522"><ele>7.333333333333333</ele><time>2026-03-28T16:45:29Z</time></trkpt><trkpt lat="39.369325524156345" lon="17.132975533040728"><ele>7.666666666666666</ele><time>2026-03-28T16:45:32Z</time></trkpt><trkpt lat="39.36933407445682" lon="17.133071046243177"><ele>8.0</ele><time>2026-03-28T16:45:35Z</time></trkpt><trkpt lat="39.36930921513915" lon="17.13315564998338"><ele>7.999999999999999</ele><time>2026-03-28T16:45:38Z</time></trkpt><trkpt lat="39.36921383102011" lon="17.13317389652195"><ele>8.0</ele><time>2026-03-28T16:45:40Z</time></trkpt><trkpt lat="39.36914388498193" lon="17.133158188530523"><ele>8.0</ele><time>2026-03-28T16:45:41Z</time></trkpt><trkpt lat="39.36906702949792" lon="17.133130217492624"><ele>8.0</ele><time>2026-03-28T16:45:42Z</time></trkpt><trkpt lat="39.36899090725616" lon="17.13310750781126"><ele>7.999999999999999</ele><time>2026-03-28T16:45:43Z</time></trkpt><trkpt lat="39.36890898268609" lon="17.133095443431305"><ele>8.0</ele><time>2026-03-28T16:45:44Z</time></trkpt><trkpt lat="39.36882613224968" lon="17.133079528262776"><ele>8.0</ele><time>2026-03-28T16:45:45Z</time></trkpt><trkpt lat="39.36875655124645" lon="17.13307036412328"><ele>8.0</ele><time>2026-03-28T16:45:46Z</time></trkpt><trkpt lat="39.368645903122584" lon="17.133057194667053"><ele>8.0</ele><time>2026-03-28T16:45:48Z</time></trkpt><trkpt lat="39.36854337399547" lon="17.133045517147647"><ele>8.0</ele><time>2026-03-28T16:45:50Z</time></trkpt><trkpt lat="39.36843692945197" lon="17.13303686511339"><ele>8.0</ele><time>2026-03-28T16:45:52Z</time></trkpt><trkpt lat="39.368344785949276" lon="17.133030061865302"><ele>8.0</ele><time>2026-03-28T16:45:54Z</time></trkpt><trkpt lat="39.36824881507458" lon="17.1330284832045"><ele>8.0</ele><time>2026-03-28T16:45:56Z</time></trkpt><trkpt lat="39.368143158027344" lon="17.133024458136706"><ele>8.0</ele><time>2026-03-28T16:45:58Z</time></trkpt><trkpt lat="39.36802707529103" lon="17.133027013133148"><ele>8.0</ele><time>2026-03-28T16:46:00Z</time></trkpt><trkpt lat="39.36792321379603" lon="17.133028705737374"><ele>8.0</ele><time>2026-03-28T16:46:02Z</time></trkpt><trkpt lat="39.36784211233732" lon="17.1330244200124"><ele>7.999999999999999</ele><time>2026-03-28T16:46:03Z</time></trkpt><trkpt lat="39.36774485217435" lon="17.133019016023052"><ele>8.0</ele><time>2026-03-28T16:46:04Z</time></trkpt><trkpt lat="39.367656448124286" lon="17.133017396760696"><ele>8.0</ele><time>2026-03-28T16:46:05Z</time></trkpt><trkpt lat="39.36758455436158" lon="17.13301655809288"><ele>8.0</ele><time>2026-03-28T16:46:06Z</time></trkpt><trkpt lat="39.36748402819074" lon="17.133020308539397"><ele>7.999999999999999</ele><time>2026-03-28T16:46:08Z</time></trkpt><trkpt lat="39.3674016179033" lon="17.13300806980787"><ele>8.0</ele><time>2026-03-28T16:46:10Z</time></trkpt><trkpt lat="39.36730233371757" lon="17.13300381382838"><ele>8.0</ele><time>2026-03-28T16:46:12Z</time></trkpt><trkpt lat="39.367173698633366" lon="17.133004898411755"><ele>8.0</ele><time>2026-03-28T16:46:14Z</time></trkpt><trkpt lat="39.36710685364418" lon="17.13299888104155"><ele>8.0</ele><time>2026-03-28T16:46:15Z</time></trkpt><trkpt lat="39.367041992243784" lon="17.132997798404645"><ele>8.0</ele><time>2026-03-28T16:46:16Z</time></trkpt><trkpt lat="39.36692585480685" lon="17.133001354958417"><ele>8.0</ele><time>2026-03-28T16:46:18Z</time></trkpt><trkpt lat="39.36692585480685" lon="17.133001354958417"><ele>8.0</ele><time>2026-03-28T16:46:18Z</time></trkpt></trkseg></trk></gpx>